<?xml version="1.0"?>
<gpx
 version="1.1"
 creator="Satmap Active 20"
 xmlns:xsi="http://www.w3.org/2001/XMLSchema-instance"
 xmlns="http://www.topografix.com/GPX/1/1"
 xmlns:satmap="http://www.satmap.com/updates/xmlschemas/GpxExtensions/v2/GpxExtensions_v2.xsd"
 xsi:schemaLocation="http://www.topografix.com/GPX/1/1 http://www.topografix.com/GPX/1/1/gpx.xsd">
<metadata>
<time>2021-02-18T10:36:31Z</time>
<extensions>
<satmap:platform>43</satmap:platform>
<satmap:software version="3.13.037">SM15.exe</satmap:software>
<satmap:username>pieter metz</satmap:username>
<satmap:network_ids>
<satmap:network_id type="wifi">00-23-A7-CA-E3-5C</satmap:network_id>
<satmap:network_id type="bluetooth">80-BB-EB-78-4F-29</satmap:network_id>
</satmap:network_ids>
<satmap:snap_type>simple</satmap:snap_type>
</extensions>
</metadata>
<trk>
<name>2021-02-18_1036</name>
<desc>Track 1</desc>
<number>1</number>
<trkseg>
<trkpt lat="53.447486" lon="05.799560"><ele>8.8</ele><time>2021-02-18T10:36:31Z</time><name>PT1</name></trkpt>
<trkpt lat="53.447482" lon="05.799557"><ele>8.7</ele><time>2021-02-18T10:36:32Z</time><name>PT2</name></trkpt>
<trkpt lat="53.447481" lon="05.799557"><ele>8.7</ele><time>2021-02-18T10:36:32Z</time><name>PT3</name></trkpt>
<trkpt lat="53.447483" lon="05.799559"><ele>8.6</ele><time>2021-02-18T10:36:59Z</time><name>PT4</name></trkpt>
<trkpt lat="53.447495" lon="05.799560"><ele>8.7</ele><time>2021-02-18T10:37:01Z</time><name>PT5</name></trkpt>
<trkpt lat="53.447504" lon="05.799559"><ele>8.5</ele><time>2021-02-18T10:37:02Z</time><name>PT6</name></trkpt>
<trkpt lat="53.447514" lon="05.799557"><ele>8.5</ele><time>2021-02-18T10:37:02Z</time><name>PT7</name></trkpt>
<trkpt lat="53.447522" lon="05.799554"><ele>8.3</ele><time>2021-02-18T10:37:04Z</time><name>PT8</name></trkpt>
<trkpt lat="53.447520" lon="05.799572"><ele>8.3</ele><time>2021-02-18T10:37:05Z</time><name>PT9</name></trkpt>
<trkpt lat="53.447531" lon="05.799570"><ele>8.4</ele><time>2021-02-18T10:37:05Z</time><name>PT10</name></trkpt>
<trkpt lat="53.447542" lon="05.799569"><ele>8.5</ele><time>2021-02-18T10:37:07Z</time><name>PT11</name></trkpt>
<trkpt lat="53.447552" lon="05.799571"><ele>8.7</ele><time>2021-02-18T10:37:08Z</time><name>PT12</name></trkpt>
<trkpt lat="53.447562" lon="05.799575"><ele>8.7</ele><time>2021-02-18T10:37:08Z</time><name>PT13</name></trkpt>
<trkpt lat="53.447573" lon="05.799574"><ele>8.7</ele><time>2021-02-18T10:37:10Z</time><name>PT14</name></trkpt>
<trkpt lat="53.447582" lon="05.799568"><ele>8.5</ele><time>2021-02-18T10:37:11Z</time><name>PT15</name></trkpt>
<trkpt lat="53.447591" lon="05.799566"><ele>8.7</ele><time>2021-02-18T10:37:11Z</time><name>PT16</name></trkpt>
<trkpt lat="53.447600" lon="05.799568"><ele>8.7</ele><time>2021-02-18T10:37:13Z</time><name>PT17</name></trkpt>
<trkpt lat="53.447607" lon="05.799571"><ele>8.7</ele><time>2021-02-18T10:37:14Z</time><name>PT18</name></trkpt>
<trkpt lat="53.447614" lon="05.799576"><ele>8.7</ele><time>2021-02-18T10:37:14Z</time><name>PT19</name></trkpt>
<trkpt lat="53.447623" lon="05.799584"><ele>8.6</ele><time>2021-02-18T10:37:16Z</time><name>PT20</name></trkpt>
<trkpt lat="53.447630" lon="05.799587"><ele>8.7</ele><time>2021-02-18T10:37:17Z</time><name>PT21</name></trkpt>
<trkpt lat="53.447635" lon="05.799595"><ele>8.7</ele><time>2021-02-18T10:37:17Z</time><name>PT22</name></trkpt>
<trkpt lat="53.447641" lon="05.799608"><ele>8.8</ele><time>2021-02-18T10:37:19Z</time><name>PT23</name></trkpt>
<trkpt lat="53.447647" lon="05.799616"><ele>8.7</ele><time>2021-02-18T10:37:20Z</time><name>PT24</name></trkpt>
<trkpt lat="53.447655" lon="05.799625"><ele>8.7</ele><time>2021-02-18T10:37:20Z</time><name>PT25</name></trkpt>
<trkpt lat="53.447665" lon="05.799633"><ele>8.6</ele><time>2021-02-18T10:37:22Z</time><name>PT26</name></trkpt>
<trkpt lat="53.447676" lon="05.799640"><ele>8.5</ele><time>2021-02-18T10:37:23Z</time><name>PT27</name></trkpt>
<trkpt lat="53.447683" lon="05.799646"><ele>8.5</ele><time>2021-02-18T10:37:23Z</time><name>PT28</name></trkpt>
<trkpt lat="53.447691" lon="05.799651"><ele>8.7</ele><time>2021-02-18T10:37:25Z</time><name>PT29</name></trkpt>
<trkpt lat="53.447700" lon="05.799658"><ele>8.8</ele><time>2021-02-18T10:37:26Z</time><name>PT30</name></trkpt>
<trkpt lat="53.447708" lon="05.799664"><ele>8.7</ele><time>2021-02-18T10:37:26Z</time><name>PT31</name></trkpt>
<trkpt lat="53.447717" lon="05.799675"><ele>8.7</ele><time>2021-02-18T10:37:28Z</time><name>PT32</name></trkpt>
<trkpt lat="53.447726" lon="05.799684"><ele>8.6</ele><time>2021-02-18T10:37:29Z</time><name>PT33</name></trkpt>
<trkpt lat="53.447731" lon="05.799690"><ele>8.7</ele><time>2021-02-18T10:37:29Z</time><name>PT34</name></trkpt>
<trkpt lat="53.447740" lon="05.799698"><ele>8.7</ele><time>2021-02-18T10:37:31Z</time><name>PT35</name></trkpt>
<trkpt lat="53.447751" lon="05.799704"><ele>9</ele><time>2021-02-18T10:37:32Z</time><name>PT36</name></trkpt>
<trkpt lat="53.447773" lon="05.799704"><ele>9</ele><time>2021-02-18T10:37:32Z</time><name>PT37</name></trkpt>
<trkpt lat="53.447779" lon="05.799722"><ele>9</ele><time>2021-02-18T10:37:34Z</time><name>PT38</name></trkpt>
<trkpt lat="53.447794" lon="05.799730"><ele>8.9</ele><time>2021-02-18T10:37:35Z</time><name>PT39</name></trkpt>
<trkpt lat="53.447816" lon="05.799730"><ele>8.9</ele><time>2021-02-18T10:37:35Z</time><name>PT40</name></trkpt>
<trkpt lat="53.447832" lon="05.799734"><ele>8.8</ele><time>2021-02-18T10:37:37Z</time><name>PT41</name></trkpt>
<trkpt lat="53.447848" lon="05.799735"><ele>8.9</ele><time>2021-02-18T10:37:38Z</time><name>PT42</name></trkpt>
<trkpt lat="53.447860" lon="05.799737"><ele>8.9</ele><time>2021-02-18T10:37:38Z</time><name>PT43</name></trkpt>
<trkpt lat="53.447877" lon="05.799738"><ele>8.9</ele><time>2021-02-18T10:37:40Z</time><name>PT44</name></trkpt>
<trkpt lat="53.447892" lon="05.799740"><ele>9.1</ele><time>2021-02-18T10:37:41Z</time><name>PT45</name></trkpt>
<trkpt lat="53.447905" lon="05.799740"><ele>9.1</ele><time>2021-02-18T10:37:41Z</time><name>PT46</name></trkpt>
<trkpt lat="53.447920" lon="05.799739"><ele>9</ele><time>2021-02-18T10:37:43Z</time><name>PT47</name></trkpt>
<trkpt lat="53.447933" lon="05.799738"><ele>9.1</ele><time>2021-02-18T10:37:44Z</time><name>PT48</name></trkpt>
<trkpt lat="53.447945" lon="05.799735"><ele>8.9</ele><time>2021-02-18T10:37:44Z</time><name>PT49</name></trkpt>
<trkpt lat="53.447958" lon="05.799732"><ele>8.8</ele><time>2021-02-18T10:37:46Z</time><name>PT50</name></trkpt>
<trkpt lat="53.447970" lon="05.799732"><ele>8.9</ele><time>2021-02-18T10:37:47Z</time><name>PT51</name></trkpt>
<trkpt lat="53.447981" lon="05.799732"><ele>8.8</ele><time>2021-02-18T10:37:47Z</time><name>PT52</name></trkpt>
<trkpt lat="53.447992" lon="05.799732"><ele>8.8</ele><time>2021-02-18T10:37:49Z</time><name>PT53</name></trkpt>
<trkpt lat="53.448004" lon="05.799733"><ele>8.8</ele><time>2021-02-18T10:37:50Z</time><name>PT54</name></trkpt>
<trkpt lat="53.448016" lon="05.799733"><ele>8.8</ele><time>2021-02-18T10:37:50Z</time><name>PT55</name></trkpt>
<trkpt lat="53.448029" lon="05.799735"><ele>8.7</ele><time>2021-02-18T10:37:52Z</time><name>PT56</name></trkpt>
<trkpt lat="53.448040" lon="05.799736"><ele>8.8</ele><time>2021-02-18T10:37:53Z</time><name>PT57</name></trkpt>
<trkpt lat="53.448052" lon="05.799737"><ele>8.7</ele><time>2021-02-18T10:37:53Z</time><name>PT58</name></trkpt>
<trkpt lat="53.448062" lon="05.799738"><ele>8.7</ele><time>2021-02-18T10:37:55Z</time><name>PT59</name></trkpt>
<trkpt lat="53.448075" lon="05.799740"><ele>8.4</ele><time>2021-02-18T10:37:56Z</time><name>PT60</name></trkpt>
<trkpt lat="53.448086" lon="05.799741"><ele>8.4</ele><time>2021-02-18T10:37:56Z</time><name>PT61</name></trkpt>
<trkpt lat="53.448100" lon="05.799740"><ele>8.3</ele><time>2021-02-18T10:37:58Z</time><name>PT62</name></trkpt>
<trkpt lat="53.448109" lon="05.799744"><ele>8.2</ele><time>2021-02-18T10:37:59Z</time><name>PT63</name></trkpt>
<trkpt lat="53.448118" lon="05.799749"><ele>8.2</ele><time>2021-02-18T10:37:59Z</time><name>PT64</name></trkpt>
<trkpt lat="53.448130" lon="05.799748"><ele>8.3</ele><time>2021-02-18T10:38:01Z</time><name>PT65</name></trkpt>
<trkpt lat="53.448144" lon="05.799750"><ele>8.2</ele><time>2021-02-18T10:38:02Z</time><name>PT66</name></trkpt>
<trkpt lat="53.448158" lon="05.799754"><ele>8.2</ele><time>2021-02-18T10:38:02Z</time><name>PT67</name></trkpt>
<trkpt lat="53.448171" lon="05.799757"><ele>8.2</ele><time>2021-02-18T10:38:04Z</time><name>PT68</name></trkpt>
<trkpt lat="53.448183" lon="05.799757"><ele>8.2</ele><time>2021-02-18T10:38:05Z</time><name>PT69</name></trkpt>
<trkpt lat="53.448193" lon="05.799760"><ele>8.2</ele><time>2021-02-18T10:38:05Z</time><name>PT70</name></trkpt>
<trkpt lat="53.448206" lon="05.799761"><ele>8.3</ele><time>2021-02-18T10:38:07Z</time><name>PT71</name></trkpt>
<trkpt lat="53.448216" lon="05.799760"><ele>8.1</ele><time>2021-02-18T10:38:08Z</time><name>PT72</name></trkpt>
<trkpt lat="53.448228" lon="05.799756"><ele>8.1</ele><time>2021-02-18T10:38:08Z</time><name>PT73</name></trkpt>
<trkpt lat="53.448240" lon="05.799754"><ele>8</ele><time>2021-02-18T10:38:10Z</time><name>PT74</name></trkpt>
<trkpt lat="53.448249" lon="05.799755"><ele>8.1</ele><time>2021-02-18T10:38:11Z</time><name>PT75</name></trkpt>
<trkpt lat="53.448261" lon="05.799749"><ele>8.2</ele><time>2021-02-18T10:38:11Z</time><name>PT76</name></trkpt>
<trkpt lat="53.448272" lon="05.799746"><ele>8.2</ele><time>2021-02-18T10:38:13Z</time><name>PT77</name></trkpt>
<trkpt lat="53.448284" lon="05.799744"><ele>8.2</ele><time>2021-02-18T10:38:14Z</time><name>PT78</name></trkpt>
<trkpt lat="53.448294" lon="05.799745"><ele>8.2</ele><time>2021-02-18T10:38:14Z</time><name>PT79</name></trkpt>
<trkpt lat="53.448307" lon="05.799740"><ele>8.1</ele><time>2021-02-18T10:38:16Z</time><name>PT80</name></trkpt>
<trkpt lat="53.448318" lon="05.799737"><ele>8.2</ele><time>2021-02-18T10:38:17Z</time><name>PT81</name></trkpt>
<trkpt lat="53.448329" lon="05.799739"><ele>8.2</ele><time>2021-02-18T10:38:17Z</time><name>PT82</name></trkpt>
<trkpt lat="53.448339" lon="05.799741"><ele>8.2</ele><time>2021-02-18T10:38:19Z</time><name>PT83</name></trkpt>
<trkpt lat="53.448352" lon="05.799743"><ele>8.2</ele><time>2021-02-18T10:38:20Z</time><name>PT84</name></trkpt>
<trkpt lat="53.448363" lon="05.799749"><ele>8.2</ele><time>2021-02-18T10:38:20Z</time><name>PT85</name></trkpt>
<trkpt lat="53.448371" lon="05.799752"><ele>8</ele><time>2021-02-18T10:38:22Z</time><name>PT86</name></trkpt>
<trkpt lat="53.448379" lon="05.799750"><ele>7.8</ele><time>2021-02-18T10:38:23Z</time><name>PT87</name></trkpt>
<trkpt lat="53.448388" lon="05.799752"><ele>7.7</ele><time>2021-02-18T10:38:23Z</time><name>PT88</name></trkpt>
<trkpt lat="53.448397" lon="05.799754"><ele>7.7</ele><time>2021-02-18T10:38:25Z</time><name>PT89</name></trkpt>
<trkpt lat="53.448410" lon="05.799756"><ele>7.7</ele><time>2021-02-18T10:38:26Z</time><name>PT90</name></trkpt>
<trkpt lat="53.448422" lon="05.799758"><ele>7.7</ele><time>2021-02-18T10:38:26Z</time><name>PT91</name></trkpt>
<trkpt lat="53.448435" lon="05.799760"><ele>7.9</ele><time>2021-02-18T10:38:28Z</time><name>PT92</name></trkpt>
<trkpt lat="53.448446" lon="05.799763"><ele>8.1</ele><time>2021-02-18T10:38:29Z</time><name>PT93</name></trkpt>
<trkpt lat="53.448458" lon="05.799765"><ele>8.1</ele><time>2021-02-18T10:38:29Z</time><name>PT94</name></trkpt>
<trkpt lat="53.448469" lon="05.799769"><ele>8</ele><time>2021-02-18T10:38:31Z</time><name>PT95</name></trkpt>
<trkpt lat="53.448476" lon="05.799776"><ele>8.1</ele><time>2021-02-18T10:38:32Z</time><name>PT96</name></trkpt>
<trkpt lat="53.448482" lon="05.799783"><ele>8</ele><time>2021-02-18T10:38:32Z</time><name>PT97</name></trkpt>
<trkpt lat="53.448492" lon="05.799788"><ele>7.9</ele><time>2021-02-18T10:38:34Z</time><name>PT98</name></trkpt>
<trkpt lat="53.448501" lon="05.799793"><ele>7.9</ele><time>2021-02-18T10:38:35Z</time><name>PT99</name></trkpt>
<trkpt lat="53.448512" lon="05.799796"><ele>7.9</ele><time>2021-02-18T10:38:35Z</time><name>PT100</name></trkpt>
<trkpt lat="53.448525" lon="05.799798"><ele>7.8</ele><time>2021-02-18T10:38:37Z</time><name>PT101</name></trkpt>
<trkpt lat="53.448537" lon="05.799799"><ele>8.2</ele><time>2021-02-18T10:38:38Z</time><name>PT102</name></trkpt>
<trkpt lat="53.448551" lon="05.799796"><ele>8.2</ele><time>2021-02-18T10:38:38Z</time><name>PT103</name></trkpt>
<trkpt lat="53.448562" lon="05.799795"><ele>8</ele><time>2021-02-18T10:38:40Z</time><name>PT104</name></trkpt>
<trkpt lat="53.448572" lon="05.799795"><ele>8.2</ele><time>2021-02-18T10:38:41Z</time><name>PT105</name></trkpt>
<trkpt lat="53.448583" lon="05.799796"><ele>8.1</ele><time>2021-02-18T10:38:41Z</time><name>PT106</name></trkpt>
<trkpt lat="53.448595" lon="05.799798"><ele>8</ele><time>2021-02-18T10:38:43Z</time><name>PT107</name></trkpt>
<trkpt lat="53.448605" lon="05.799803"><ele>8</ele><time>2021-02-18T10:38:44Z</time><name>PT108</name></trkpt>
<trkpt lat="53.448619" lon="05.799804"><ele>7.9</ele><time>2021-02-18T10:38:44Z</time><name>PT109</name></trkpt>
<trkpt lat="53.448633" lon="05.799806"><ele>7.9</ele><time>2021-02-18T10:38:46Z</time><name>PT110</name></trkpt>
<trkpt lat="53.448643" lon="05.799808"><ele>7.7</ele><time>2021-02-18T10:38:47Z</time><name>PT111</name></trkpt>
<trkpt lat="53.448653" lon="05.799810"><ele>7.7</ele><time>2021-02-18T10:38:47Z</time><name>PT112</name></trkpt>
<trkpt lat="53.448667" lon="05.799812"><ele>7.7</ele><time>2021-02-18T10:38:49Z</time><name>PT113</name></trkpt>
<trkpt lat="53.448682" lon="05.799813"><ele>7.8</ele><time>2021-02-18T10:38:50Z</time><name>PT114</name></trkpt>
<trkpt lat="53.448694" lon="05.799815"><ele>7.9</ele><time>2021-02-18T10:38:50Z</time><name>PT115</name></trkpt>
<trkpt lat="53.448706" lon="05.799820"><ele>8.2</ele><time>2021-02-18T10:38:52Z</time><name>PT116</name></trkpt>
<trkpt lat="53.448715" lon="05.799824"><ele>8.2</ele><time>2021-02-18T10:38:53Z</time><name>PT117</name></trkpt>
<trkpt lat="53.448726" lon="05.799829"><ele>8.2</ele><time>2021-02-18T10:38:53Z</time><name>PT118</name></trkpt>
<trkpt lat="53.448736" lon="05.799831"><ele>8.1</ele><time>2021-02-18T10:38:55Z</time><name>PT119</name></trkpt>
<trkpt lat="53.448747" lon="05.799834"><ele>8</ele><time>2021-02-18T10:38:56Z</time><name>PT120</name></trkpt>
<trkpt lat="53.448758" lon="05.799839"><ele>7.9</ele><time>2021-02-18T10:38:56Z</time><name>PT121</name></trkpt>
<trkpt lat="53.448774" lon="05.799843"><ele>8</ele><time>2021-02-18T10:38:58Z</time><name>PT122</name></trkpt>
<trkpt lat="53.448787" lon="05.799853"><ele>8</ele><time>2021-02-18T10:38:59Z</time><name>PT123</name></trkpt>
<trkpt lat="53.448794" lon="05.799872"><ele>8</ele><time>2021-02-18T10:38:59Z</time><name>PT124</name></trkpt>
<trkpt lat="53.448808" lon="05.799877"><ele>8.1</ele><time>2021-02-18T10:39:01Z</time><name>PT125</name></trkpt>
<trkpt lat="53.448817" lon="05.799881"><ele>8.2</ele><time>2021-02-18T10:39:02Z</time><name>PT126</name></trkpt>
<trkpt lat="53.448829" lon="05.799883"><ele>8.4</ele><time>2021-02-18T10:39:02Z</time><name>PT127</name></trkpt>
<trkpt lat="53.448839" lon="05.799886"><ele>8.5</ele><time>2021-02-18T10:39:04Z</time><name>PT128</name></trkpt>
<trkpt lat="53.448848" lon="05.799890"><ele>8.7</ele><time>2021-02-18T10:39:05Z</time><name>PT129</name></trkpt>
<trkpt lat="53.448860" lon="05.799896"><ele>8.7</ele><time>2021-02-18T10:39:05Z</time><name>PT130</name></trkpt>
<trkpt lat="53.448872" lon="05.799898"><ele>8.8</ele><time>2021-02-18T10:39:07Z</time><name>PT131</name></trkpt>
<trkpt lat="53.448882" lon="05.799902"><ele>8.7</ele><time>2021-02-18T10:39:08Z</time><name>PT132</name></trkpt>
<trkpt lat="53.448893" lon="05.799905"><ele>8.7</ele><time>2021-02-18T10:39:08Z</time><name>PT133</name></trkpt>
<trkpt lat="53.448902" lon="05.799909"><ele>8.4</ele><time>2021-02-18T10:39:10Z</time><name>PT134</name></trkpt>
<trkpt lat="53.448911" lon="05.799913"><ele>8.2</ele><time>2021-02-18T10:39:11Z</time><name>PT135</name></trkpt>
<trkpt lat="53.448924" lon="05.799917"><ele>8.3</ele><time>2021-02-18T10:39:11Z</time><name>PT136</name></trkpt>
<trkpt lat="53.448935" lon="05.799919"><ele>8.2</ele><time>2021-02-18T10:39:13Z</time><name>PT137</name></trkpt>
<trkpt lat="53.448945" lon="05.799920"><ele>8.3</ele><time>2021-02-18T10:39:14Z</time><name>PT138</name></trkpt>
<trkpt lat="53.448955" lon="05.799920"><ele>8.2</ele><time>2021-02-18T10:39:14Z</time><name>PT139</name></trkpt>
<trkpt lat="53.448966" lon="05.799921"><ele>8.2</ele><time>2021-02-18T10:39:16Z</time><name>PT140</name></trkpt>
<trkpt lat="53.448975" lon="05.799926"><ele>8.3</ele><time>2021-02-18T10:39:17Z</time><name>PT141</name></trkpt>
<trkpt lat="53.448983" lon="05.799930"><ele>8.2</ele><time>2021-02-18T10:39:17Z</time><name>PT142</name></trkpt>
<trkpt lat="53.448991" lon="05.799930"><ele>8.2</ele><time>2021-02-18T10:39:19Z</time><name>PT143</name></trkpt>
<trkpt lat="53.449000" lon="05.799934"><ele>8.2</ele><time>2021-02-18T10:39:20Z</time><name>PT144</name></trkpt>
<trkpt lat="53.449010" lon="05.799937"><ele>8.2</ele><time>2021-02-18T10:39:20Z</time><name>PT145</name></trkpt>
<trkpt lat="53.449019" lon="05.799944"><ele>8.2</ele><time>2021-02-18T10:39:22Z</time><name>PT146</name></trkpt>
<trkpt lat="53.449028" lon="05.799955"><ele>8.1</ele><time>2021-02-18T10:39:23Z</time><name>PT147</name></trkpt>
<trkpt lat="53.449035" lon="05.799969"><ele>8.1</ele><time>2021-02-18T10:39:23Z</time><name>PT148</name></trkpt>
<trkpt lat="53.449044" lon="05.799982"><ele>8.1</ele><time>2021-02-18T10:39:25Z</time><name>PT149</name></trkpt>
<trkpt lat="53.449057" lon="05.799994"><ele>7.9</ele><time>2021-02-18T10:39:26Z</time><name>PT150</name></trkpt>
<trkpt lat="53.449066" lon="05.800001"><ele>8</ele><time>2021-02-18T10:39:26Z</time><name>PT151</name></trkpt>
<trkpt lat="53.449076" lon="05.800007"><ele>7.9</ele><time>2021-02-18T10:39:28Z</time><name>PT152</name></trkpt>
<trkpt lat="53.449089" lon="05.800013"><ele>8</ele><time>2021-02-18T10:39:29Z</time><name>PT153</name></trkpt>
<trkpt lat="53.449101" lon="05.800019"><ele>8.2</ele><time>2021-02-18T10:39:29Z</time><name>PT154</name></trkpt>
<trkpt lat="53.449113" lon="05.800018"><ele>8.2</ele><time>2021-02-18T10:39:31Z</time><name>PT155</name></trkpt>
<trkpt lat="53.449125" lon="05.800021"><ele>8.3</ele><time>2021-02-18T10:39:32Z</time><name>PT156</name></trkpt>
<trkpt lat="53.449139" lon="05.800024"><ele>8.4</ele><time>2021-02-18T10:39:32Z</time><name>PT157</name></trkpt>
<trkpt lat="53.449153" lon="05.800028"><ele>8.5</ele><time>2021-02-18T10:39:34Z</time><name>PT158</name></trkpt>
<trkpt lat="53.449164" lon="05.800035"><ele>8.7</ele><time>2021-02-18T10:39:35Z</time><name>PT159</name></trkpt>
<trkpt lat="53.449174" lon="05.800040"><ele>8.8</ele><time>2021-02-18T10:39:35Z</time><name>PT160</name></trkpt>
<trkpt lat="53.449190" lon="05.800044"><ele>8.7</ele><time>2021-02-18T10:39:37Z</time><name>PT161</name></trkpt>
<trkpt lat="53.449203" lon="05.800052"><ele>8.6</ele><time>2021-02-18T10:39:38Z</time><name>PT162</name></trkpt>
<trkpt lat="53.449221" lon="05.800065"><ele>8.6</ele><time>2021-02-18T10:39:38Z</time><name>PT163</name></trkpt>
<trkpt lat="53.449235" lon="05.800072"><ele>8.4</ele><time>2021-02-18T10:39:40Z</time><name>PT164</name></trkpt>
<trkpt lat="53.449247" lon="05.800076"><ele>8.4</ele><time>2021-02-18T10:39:41Z</time><name>PT165</name></trkpt>
<trkpt lat="53.449262" lon="05.800081"><ele>8.5</ele><time>2021-02-18T10:39:41Z</time><name>PT166</name></trkpt>
<trkpt lat="53.449274" lon="05.800085"><ele>8.6</ele><time>2021-02-18T10:39:43Z</time><name>PT167</name></trkpt>
<trkpt lat="53.449286" lon="05.800091"><ele>8.5</ele><time>2021-02-18T10:39:44Z</time><name>PT168</name></trkpt>
<trkpt lat="53.449298" lon="05.800097"><ele>8.7</ele><time>2021-02-18T10:39:44Z</time><name>PT169</name></trkpt>
<trkpt lat="53.449311" lon="05.800101"><ele>8.4</ele><time>2021-02-18T10:39:46Z</time><name>PT170</name></trkpt>
<trkpt lat="53.449328" lon="05.800103"><ele>8.4</ele><time>2021-02-18T10:39:47Z</time><name>PT171</name></trkpt>
<trkpt lat="53.449338" lon="05.800107"><ele>8.3</ele><time>2021-02-18T10:39:47Z</time><name>PT172</name></trkpt>
<trkpt lat="53.449349" lon="05.800111"><ele>8.4</ele><time>2021-02-18T10:39:49Z</time><name>PT173</name></trkpt>
<trkpt lat="53.449361" lon="05.800113"><ele>8.7</ele><time>2021-02-18T10:39:50Z</time><name>PT174</name></trkpt>
<trkpt lat="53.449372" lon="05.800114"><ele>8.8</ele><time>2021-02-18T10:39:50Z</time><name>PT175</name></trkpt>
<trkpt lat="53.449384" lon="05.800121"><ele>8.8</ele><time>2021-02-18T10:39:52Z</time><name>PT176</name></trkpt>
<trkpt lat="53.449395" lon="05.800126"><ele>8.7</ele><time>2021-02-18T10:39:53Z</time><name>PT177</name></trkpt>
<trkpt lat="53.449407" lon="05.800134"><ele>8.7</ele><time>2021-02-18T10:39:53Z</time><name>PT178</name></trkpt>
<trkpt lat="53.449423" lon="05.800145"><ele>8.4</ele><time>2021-02-18T10:39:55Z</time><name>PT179</name></trkpt>
<trkpt lat="53.449429" lon="05.800165"><ele>8.2</ele><time>2021-02-18T10:39:56Z</time><name>PT180</name></trkpt>
<trkpt lat="53.449439" lon="05.800173"><ele>8.1</ele><time>2021-02-18T10:39:56Z</time><name>PT181</name></trkpt>
<trkpt lat="53.449450" lon="05.800181"><ele>8.1</ele><time>2021-02-18T10:39:58Z</time><name>PT182</name></trkpt>
<trkpt lat="53.449461" lon="05.800187"><ele>8.2</ele><time>2021-02-18T10:39:59Z</time><name>PT183</name></trkpt>
<trkpt lat="53.449472" lon="05.800191"><ele>8.2</ele><time>2021-02-18T10:39:59Z</time><name>PT184</name></trkpt>
<trkpt lat="53.449487" lon="05.800195"><ele>8.3</ele><time>2021-02-18T10:40:01Z</time><name>PT185</name></trkpt>
<trkpt lat="53.449501" lon="05.800200"><ele>8.4</ele><time>2021-02-18T10:40:02Z</time><name>PT186</name></trkpt>
<trkpt lat="53.449514" lon="05.800207"><ele>8.4</ele><time>2021-02-18T10:40:02Z</time><name>PT187</name></trkpt>
<trkpt lat="53.449527" lon="05.800213"><ele>8.4</ele><time>2021-02-18T10:40:04Z</time><name>PT188</name></trkpt>
<trkpt lat="53.449541" lon="05.800220"><ele>8.2</ele><time>2021-02-18T10:40:05Z</time><name>PT189</name></trkpt>
<trkpt lat="53.449553" lon="05.800227"><ele>8.2</ele><time>2021-02-18T10:40:05Z</time><name>PT190</name></trkpt>
<trkpt lat="53.449563" lon="05.800233"><ele>8.2</ele><time>2021-02-18T10:40:07Z</time><name>PT191</name></trkpt>
<trkpt lat="53.449574" lon="05.800237"><ele>8.4</ele><time>2021-02-18T10:40:08Z</time><name>PT192</name></trkpt>
<trkpt lat="53.449585" lon="05.800244"><ele>8.4</ele><time>2021-02-18T10:40:08Z</time><name>PT193</name></trkpt>
<trkpt lat="53.449597" lon="05.800251"><ele>8.7</ele><time>2021-02-18T10:40:10Z</time><name>PT194</name></trkpt>
<trkpt lat="53.449608" lon="05.800258"><ele>8.7</ele><time>2021-02-18T10:40:11Z</time><name>PT195</name></trkpt>
<trkpt lat="53.449617" lon="05.800262"><ele>8.7</ele><time>2021-02-18T10:40:11Z</time><name>PT196</name></trkpt>
<trkpt lat="53.449628" lon="05.800264"><ele>8.9</ele><time>2021-02-18T10:40:13Z</time><name>PT197</name></trkpt>
<trkpt lat="53.449640" lon="05.800264"><ele>9</ele><time>2021-02-18T10:40:14Z</time><name>PT198</name></trkpt>
<trkpt lat="53.449652" lon="05.800265"><ele>9.1</ele><time>2021-02-18T10:40:14Z</time><name>PT199</name></trkpt>
<trkpt lat="53.449665" lon="05.800269"><ele>9.3</ele><time>2021-02-18T10:40:16Z</time><name>PT200</name></trkpt>
<trkpt lat="53.449676" lon="05.800270"><ele>9.2</ele><time>2021-02-18T10:40:17Z</time><name>PT201</name></trkpt>
<trkpt lat="53.449687" lon="05.800274"><ele>9.1</ele><time>2021-02-18T10:40:17Z</time><name>PT202</name></trkpt>
<trkpt lat="53.449694" lon="05.800286"><ele>8.8</ele><time>2021-02-18T10:40:19Z</time><name>PT203</name></trkpt>
<trkpt lat="53.449704" lon="05.800293"><ele>8.5</ele><time>2021-02-18T10:40:20Z</time><name>PT204</name></trkpt>
<trkpt lat="53.449714" lon="05.800300"><ele>8.4</ele><time>2021-02-18T10:40:20Z</time><name>PT205</name></trkpt>
<trkpt lat="53.449724" lon="05.800306"><ele>8.4</ele><time>2021-02-18T10:40:22Z</time><name>PT206</name></trkpt>
<trkpt lat="53.449736" lon="05.800308"><ele>8.6</ele><time>2021-02-18T10:40:23Z</time><name>PT207</name></trkpt>
<trkpt lat="53.449745" lon="05.800313"><ele>8.7</ele><time>2021-02-18T10:40:23Z</time><name>PT208</name></trkpt>
<trkpt lat="53.449753" lon="05.800318"><ele>8.5</ele><time>2021-02-18T10:40:25Z</time><name>PT209</name></trkpt>
<trkpt lat="53.449763" lon="05.800320"><ele>8.4</ele><time>2021-02-18T10:40:26Z</time><name>PT210</name></trkpt>
<trkpt lat="53.449772" lon="05.800321"><ele>8.4</ele><time>2021-02-18T10:40:26Z</time><name>PT211</name></trkpt>
<trkpt lat="53.449784" lon="05.800327"><ele>8.1</ele><time>2021-02-18T10:40:28Z</time><name>PT212</name></trkpt>
<trkpt lat="53.449792" lon="05.800335"><ele>8.2</ele><time>2021-02-18T10:40:29Z</time><name>PT213</name></trkpt>
<trkpt lat="53.449800" lon="05.800341"><ele>8.4</ele><time>2021-02-18T10:40:29Z</time><name>PT214</name></trkpt>
<trkpt lat="53.449803" lon="05.800361"><ele>8.6</ele><time>2021-02-18T10:40:31Z</time><name>PT215</name></trkpt>
<trkpt lat="53.449811" lon="05.800373"><ele>8.7</ele><time>2021-02-18T10:40:32Z</time><name>PT216</name></trkpt>
<trkpt lat="53.449821" lon="05.800379"><ele>8.7</ele><time>2021-02-18T10:40:32Z</time><name>PT217</name></trkpt>
<trkpt lat="53.449830" lon="05.800385"><ele>8.6</ele><time>2021-02-18T10:40:34Z</time><name>PT218</name></trkpt>
<trkpt lat="53.449839" lon="05.800395"><ele>8.6</ele><time>2021-02-18T10:40:35Z</time><name>PT219</name></trkpt>
<trkpt lat="53.449848" lon="05.800404"><ele>8.6</ele><time>2021-02-18T10:40:35Z</time><name>PT220</name></trkpt>
<trkpt lat="53.449858" lon="05.800412"><ele>8.6</ele><time>2021-02-18T10:40:37Z</time><name>PT221</name></trkpt>
<trkpt lat="53.449866" lon="05.800417"><ele>8.5</ele><time>2021-02-18T10:40:38Z</time><name>PT222</name></trkpt>
<trkpt lat="53.449875" lon="05.800422"><ele>8.3</ele><time>2021-02-18T10:40:38Z</time><name>PT223</name></trkpt>
<trkpt lat="53.449890" lon="05.800423"><ele>8.4</ele><time>2021-02-18T10:40:40Z</time><name>PT224</name></trkpt>
<trkpt lat="53.449898" lon="05.800427"><ele>8.2</ele><time>2021-02-18T10:40:41Z</time><name>PT225</name></trkpt>
<trkpt lat="53.449906" lon="05.800430"><ele>8.2</ele><time>2021-02-18T10:40:41Z</time><name>PT226</name></trkpt>
<trkpt lat="53.449910" lon="05.800431"><ele>8.3</ele><time>2021-02-18T10:40:43Z</time><name>PT227</name></trkpt>
<trkpt lat="53.449915" lon="05.800432"><ele>8.3</ele><time>2021-02-18T10:40:44Z</time><name>PT228</name></trkpt>
<trkpt lat="53.449924" lon="05.800433"><ele>8.4</ele><time>2021-02-18T10:40:44Z</time><name>PT229</name></trkpt>
<trkpt lat="53.449936" lon="05.800438"><ele>8.6</ele><time>2021-02-18T10:40:46Z</time><name>PT230</name></trkpt>
<trkpt lat="53.449946" lon="05.800443"><ele>8.6</ele><time>2021-02-18T10:40:47Z</time><name>PT231</name></trkpt>
<trkpt lat="53.449956" lon="05.800446"><ele>8.6</ele><time>2021-02-18T10:40:47Z</time><name>PT232</name></trkpt>
<trkpt lat="53.449970" lon="05.800445"><ele>8.6</ele><time>2021-02-18T10:40:49Z</time><name>PT233</name></trkpt>
<trkpt lat="53.449979" lon="05.800447"><ele>8.4</ele><time>2021-02-18T10:40:50Z</time><name>PT234</name></trkpt>
<trkpt lat="53.449990" lon="05.800452"><ele>8.3</ele><time>2021-02-18T10:40:50Z</time><name>PT235</name></trkpt>
<trkpt lat="53.450000" lon="05.800457"><ele>8.3</ele><time>2021-02-18T10:40:52Z</time><name>PT236</name></trkpt>
<trkpt lat="53.450007" lon="05.800468"><ele>8.4</ele><time>2021-02-18T10:40:53Z</time><name>PT237</name></trkpt>
<trkpt lat="53.450016" lon="05.800478"><ele>8.5</ele><time>2021-02-18T10:40:53Z</time><name>PT238</name></trkpt>
<trkpt lat="53.450030" lon="05.800487"><ele>8.4</ele><time>2021-02-18T10:40:55Z</time><name>PT239</name></trkpt>
<trkpt lat="53.450040" lon="05.800495"><ele>8.1</ele><time>2021-02-18T10:40:56Z</time><name>PT240</name></trkpt>
<trkpt lat="53.450047" lon="05.800506"><ele>8</ele><time>2021-02-18T10:40:56Z</time><name>PT241</name></trkpt>
<trkpt lat="53.450056" lon="05.800513"><ele>8.1</ele><time>2021-02-18T10:40:58Z</time><name>PT242</name></trkpt>
<trkpt lat="53.450064" lon="05.800519"><ele>8.4</ele><time>2021-02-18T10:40:59Z</time><name>PT243</name></trkpt>
<trkpt lat="53.450076" lon="05.800523"><ele>8.3</ele><time>2021-02-18T10:40:59Z</time><name>PT244</name></trkpt>
<trkpt lat="53.450085" lon="05.800529"><ele>8.6</ele><time>2021-02-18T10:41:01Z</time><name>PT245</name></trkpt>
<trkpt lat="53.450095" lon="05.800534"><ele>8.7</ele><time>2021-02-18T10:41:02Z</time><name>PT246</name></trkpt>
<trkpt lat="53.450105" lon="05.800539"><ele>8.7</ele><time>2021-02-18T10:41:02Z</time><name>PT247</name></trkpt>
<trkpt lat="53.450113" lon="05.800541"><ele>8.7</ele><time>2021-02-18T10:41:04Z</time><name>PT248</name></trkpt>
<trkpt lat="53.450122" lon="05.800548"><ele>8.9</ele><time>2021-02-18T10:41:05Z</time><name>PT249</name></trkpt>
<trkpt lat="53.450136" lon="05.800556"><ele>8.8</ele><time>2021-02-18T10:41:05Z</time><name>PT250</name></trkpt>
<trkpt lat="53.450148" lon="05.800568"><ele>8.7</ele><time>2021-02-18T10:41:07Z</time><name>PT251</name></trkpt>
<trkpt lat="53.450158" lon="05.800576"><ele>8.7</ele><time>2021-02-18T10:41:08Z</time><name>PT252</name></trkpt>
<trkpt lat="53.450170" lon="05.800581"><ele>8.7</ele><time>2021-02-18T10:41:08Z</time><name>PT253</name></trkpt>
<trkpt lat="53.450183" lon="05.800585"><ele>8.7</ele><time>2021-02-18T10:41:10Z</time><name>PT254</name></trkpt>
<trkpt lat="53.450193" lon="05.800590"><ele>8.7</ele><time>2021-02-18T10:41:11Z</time><name>PT255</name></trkpt>
<trkpt lat="53.450205" lon="05.800596"><ele>8.6</ele><time>2021-02-18T10:41:11Z</time><name>PT256</name></trkpt>
<trkpt lat="53.450217" lon="05.800603"><ele>8.7</ele><time>2021-02-18T10:41:13Z</time><name>PT257</name></trkpt>
<trkpt lat="53.450229" lon="05.800620"><ele>8.9</ele><time>2021-02-18T10:41:14Z</time><name>PT258</name></trkpt>
<trkpt lat="53.450240" lon="05.800638"><ele>9</ele><time>2021-02-18T10:41:14Z</time><name>PT259</name></trkpt>
<trkpt lat="53.450252" lon="05.800648"><ele>9.2</ele><time>2021-02-18T10:41:16Z</time><name>PT260</name></trkpt>
<trkpt lat="53.450266" lon="05.800656"><ele>9.3</ele><time>2021-02-18T10:41:17Z</time><name>PT261</name></trkpt>
<trkpt lat="53.450281" lon="05.800668"><ele>9.2</ele><time>2021-02-18T10:41:17Z</time><name>PT262</name></trkpt>
<trkpt lat="53.450293" lon="05.800679"><ele>9.2</ele><time>2021-02-18T10:41:19Z</time><name>PT263</name></trkpt>
<trkpt lat="53.450307" lon="05.800686"><ele>9.1</ele><time>2021-02-18T10:41:20Z</time><name>PT264</name></trkpt>
<trkpt lat="53.450321" lon="05.800694"><ele>9</ele><time>2021-02-18T10:41:20Z</time><name>PT265</name></trkpt>
<trkpt lat="53.450334" lon="05.800702"><ele>9</ele><time>2021-02-18T10:41:22Z</time><name>PT266</name></trkpt>
<trkpt lat="53.450348" lon="05.800709"><ele>9</ele><time>2021-02-18T10:41:23Z</time><name>PT267</name></trkpt>
<trkpt lat="53.450361" lon="05.800715"><ele>9.1</ele><time>2021-02-18T10:41:23Z</time><name>PT268</name></trkpt>
<trkpt lat="53.450375" lon="05.800719"><ele>9.4</ele><time>2021-02-18T10:41:25Z</time><name>PT269</name></trkpt>
<trkpt lat="53.450388" lon="05.800718"><ele>9.5</ele><time>2021-02-18T10:41:26Z</time><name>PT270</name></trkpt>
<trkpt lat="53.450400" lon="05.800722"><ele>9.6</ele><time>2021-02-18T10:41:26Z</time><name>PT271</name></trkpt>
<trkpt lat="53.450411" lon="05.800727"><ele>9.6</ele><time>2021-02-18T10:41:28Z</time><name>PT272</name></trkpt>
<trkpt lat="53.450422" lon="05.800727"><ele>9.3</ele><time>2021-02-18T10:41:29Z</time><name>PT273</name></trkpt>
<trkpt lat="53.450433" lon="05.800727"><ele>9.4</ele><time>2021-02-18T10:41:29Z</time><name>PT274</name></trkpt>
<trkpt lat="53.450440" lon="05.800732"><ele>9.3</ele><time>2021-02-18T10:41:31Z</time><name>PT275</name></trkpt>
<trkpt lat="53.450450" lon="05.800736"><ele>9.3</ele><time>2021-02-18T10:41:32Z</time><name>PT276</name></trkpt>
<trkpt lat="53.450463" lon="05.800740"><ele>9.2</ele><time>2021-02-18T10:41:32Z</time><name>PT277</name></trkpt>
<trkpt lat="53.450473" lon="05.800743"><ele>9.3</ele><time>2021-02-18T10:41:34Z</time><name>PT278</name></trkpt>
<trkpt lat="53.450483" lon="05.800745"><ele>9.3</ele><time>2021-02-18T10:41:35Z</time><name>PT279</name></trkpt>
<trkpt lat="53.450493" lon="05.800749"><ele>9.3</ele><time>2021-02-18T10:41:35Z</time><name>PT280</name></trkpt>
<trkpt lat="53.450502" lon="05.800754"><ele>9.3</ele><time>2021-02-18T10:41:37Z</time><name>PT281</name></trkpt>
<trkpt lat="53.450513" lon="05.800759"><ele>9.2</ele><time>2021-02-18T10:41:38Z</time><name>PT282</name></trkpt>
<trkpt lat="53.450523" lon="05.800769"><ele>9.1</ele><time>2021-02-18T10:41:38Z</time><name>PT283</name></trkpt>
<trkpt lat="53.450534" lon="05.800778"><ele>8.9</ele><time>2021-02-18T10:41:40Z</time><name>PT284</name></trkpt>
<trkpt lat="53.450544" lon="05.800787"><ele>8.9</ele><time>2021-02-18T10:41:41Z</time><name>PT285</name></trkpt>
<trkpt lat="53.450555" lon="05.800793"><ele>9.1</ele><time>2021-02-18T10:41:41Z</time><name>PT286</name></trkpt>
<trkpt lat="53.450565" lon="05.800796"><ele>9.1</ele><time>2021-02-18T10:41:43Z</time><name>PT287</name></trkpt>
<trkpt lat="53.450576" lon="05.800800"><ele>9.2</ele><time>2021-02-18T10:41:44Z</time><name>PT288</name></trkpt>
<trkpt lat="53.450588" lon="05.800805"><ele>9.2</ele><time>2021-02-18T10:41:44Z</time><name>PT289</name></trkpt>
<trkpt lat="53.450602" lon="05.800810"><ele>8.9</ele><time>2021-02-18T10:41:46Z</time><name>PT290</name></trkpt>
<trkpt lat="53.450614" lon="05.800815"><ele>8.9</ele><time>2021-02-18T10:41:47Z</time><name>PT291</name></trkpt>
<trkpt lat="53.450626" lon="05.800813"><ele>8.9</ele><time>2021-02-18T10:41:47Z</time><name>PT292</name></trkpt>
<trkpt lat="53.450637" lon="05.800817"><ele>8.9</ele><time>2021-02-18T10:41:49Z</time><name>PT293</name></trkpt>
<trkpt lat="53.450649" lon="05.800821"><ele>9</ele><time>2021-02-18T10:41:50Z</time><name>PT294</name></trkpt>
<trkpt lat="53.450659" lon="05.800828"><ele>8.9</ele><time>2021-02-18T10:41:50Z</time><name>PT295</name></trkpt>
<trkpt lat="53.450671" lon="05.800834"><ele>8.8</ele><time>2021-02-18T10:41:52Z</time><name>PT296</name></trkpt>
<trkpt lat="53.450681" lon="05.800838"><ele>8.8</ele><time>2021-02-18T10:41:53Z</time><name>PT297</name></trkpt>
<trkpt lat="53.450693" lon="05.800841"><ele>8.7</ele><time>2021-02-18T10:41:53Z</time><name>PT298</name></trkpt>
<trkpt lat="53.450701" lon="05.800845"><ele>8.9</ele><time>2021-02-18T10:41:55Z</time><name>PT299</name></trkpt>
<trkpt lat="53.450709" lon="05.800848"><ele>9</ele><time>2021-02-18T10:41:56Z</time><name>PT300</name></trkpt>
<trkpt lat="53.450717" lon="05.800853"><ele>9</ele><time>2021-02-18T10:41:56Z</time><name>PT301</name></trkpt>
<trkpt lat="53.450727" lon="05.800857"><ele>9.1</ele><time>2021-02-18T10:41:58Z</time><name>PT302</name></trkpt>
<trkpt lat="53.450738" lon="05.800862"><ele>8.9</ele><time>2021-02-18T10:41:59Z</time><name>PT303</name></trkpt>
<trkpt lat="53.450747" lon="05.800866"><ele>8.9</ele><time>2021-02-18T10:41:59Z</time><name>PT304</name></trkpt>
<trkpt lat="53.450758" lon="05.800870"><ele>9.1</ele><time>2021-02-18T10:42:01Z</time><name>PT305</name></trkpt>
<trkpt lat="53.450767" lon="05.800878"><ele>9.4</ele><time>2021-02-18T10:42:02Z</time><name>PT306</name></trkpt>
<trkpt lat="53.450778" lon="05.800885"><ele>9.5</ele><time>2021-02-18T10:42:02Z</time><name>PT307</name></trkpt>
<trkpt lat="53.450790" lon="05.800891"><ele>9.5</ele><time>2021-02-18T10:42:04Z</time><name>PT308</name></trkpt>
<trkpt lat="53.450801" lon="05.800899"><ele>9.2</ele><time>2021-02-18T10:42:05Z</time><name>PT309</name></trkpt>
<trkpt lat="53.450810" lon="05.800907"><ele>8.9</ele><time>2021-02-18T10:42:05Z</time><name>PT310</name></trkpt>
<trkpt lat="53.450816" lon="05.800908"><ele>8.7</ele><time>2021-02-18T10:42:07Z</time><name>PT311</name></trkpt>
<trkpt lat="53.450823" lon="05.800912"><ele>8.9</ele><time>2021-02-18T10:42:08Z</time><name>PT312</name></trkpt>
<trkpt lat="53.450831" lon="05.800919"><ele>9</ele><time>2021-02-18T10:42:08Z</time><name>PT313</name></trkpt>
<trkpt lat="53.450841" lon="05.800925"><ele>9</ele><time>2021-02-18T10:42:10Z</time><name>PT314</name></trkpt>
<trkpt lat="53.450851" lon="05.800930"><ele>9</ele><time>2021-02-18T10:42:11Z</time><name>PT315</name></trkpt>
<trkpt lat="53.450859" lon="05.800938"><ele>9</ele><time>2021-02-18T10:42:11Z</time><name>PT316</name></trkpt>
<trkpt lat="53.450865" lon="05.800949"><ele>8.9</ele><time>2021-02-18T10:42:13Z</time><name>PT317</name></trkpt>
<trkpt lat="53.450872" lon="05.800959"><ele>9</ele><time>2021-02-18T10:42:14Z</time><name>PT318</name></trkpt>
<trkpt lat="53.450879" lon="05.800974"><ele>9.2</ele><time>2021-02-18T10:42:14Z</time><name>PT319</name></trkpt>
<trkpt lat="53.450886" lon="05.800990"><ele>9.1</ele><time>2021-02-18T10:42:16Z</time><name>PT320</name></trkpt>
<trkpt lat="53.450894" lon="05.801006"><ele>9.1</ele><time>2021-02-18T10:42:17Z</time><name>PT321</name></trkpt>
<trkpt lat="53.450903" lon="05.801021"><ele>8.8</ele><time>2021-02-18T10:42:17Z</time><name>PT322</name></trkpt>
<trkpt lat="53.450910" lon="05.801037"><ele>8.7</ele><time>2021-02-18T10:42:19Z</time><name>PT323</name></trkpt>
<trkpt lat="53.450916" lon="05.801050"><ele>8.7</ele><time>2021-02-18T10:42:20Z</time><name>PT324</name></trkpt>
<trkpt lat="53.450923" lon="05.801062"><ele>8.7</ele><time>2021-02-18T10:42:20Z</time><name>PT325</name></trkpt>
<trkpt lat="53.450929" lon="05.801076"><ele>8.8</ele><time>2021-02-18T10:42:22Z</time><name>PT326</name></trkpt>
<trkpt lat="53.450936" lon="05.801090"><ele>8.9</ele><time>2021-02-18T10:42:23Z</time><name>PT327</name></trkpt>
<trkpt lat="53.450943" lon="05.801100"><ele>8.9</ele><time>2021-02-18T10:42:23Z</time><name>PT328</name></trkpt>
<trkpt lat="53.450948" lon="05.801111"><ele>8.9</ele><time>2021-02-18T10:42:25Z</time><name>PT329</name></trkpt>
<trkpt lat="53.450952" lon="05.801114"><ele>8.8</ele><time>2021-02-18T10:42:26Z</time><name>PT330</name></trkpt>
<trkpt lat="53.450954" lon="05.801115"><ele>8.8</ele><time>2021-02-18T10:42:26Z</time><name>PT331</name></trkpt>
<trkpt lat="53.450959" lon="05.801116"><ele>8.7</ele><time>2021-02-18T10:42:28Z</time><name>PT332</name></trkpt>
<trkpt lat="53.450959" lon="05.801121"><ele>8.8</ele><time>2021-02-18T10:42:31Z</time><name>PT333</name></trkpt>
<trkpt lat="53.450962" lon="05.801124"><ele>8.9</ele><time>2021-02-18T10:42:32Z</time><name>PT334</name></trkpt>
<trkpt lat="53.450962" lon="05.801127"><ele>9</ele><time>2021-02-18T10:42:32Z</time><name>PT335</name></trkpt>
<trkpt lat="53.450972" lon="05.801131"><ele>9.2</ele><time>2021-02-18T10:42:35Z</time><name>PT336</name></trkpt>
<trkpt lat="53.450983" lon="05.801135"><ele>9.2</ele><time>2021-02-18T10:42:35Z</time><name>PT337</name></trkpt>
<trkpt lat="53.450990" lon="05.801147"><ele>9.4</ele><time>2021-02-18T10:42:37Z</time><name>PT338</name></trkpt>
<trkpt lat="53.450997" lon="05.801160"><ele>9.3</ele><time>2021-02-18T10:42:38Z</time><name>PT339</name></trkpt>
<trkpt lat="53.451003" lon="05.801166"><ele>9.3</ele><time>2021-02-18T10:42:38Z</time><name>PT340</name></trkpt>
<trkpt lat="53.451004" lon="05.801174"><ele>9.3</ele><time>2021-02-18T10:42:40Z</time><name>PT341</name></trkpt>
<trkpt lat="53.451002" lon="05.801181"><ele>9.3</ele><time>2021-02-18T10:42:41Z</time><name>PT342</name></trkpt>
<trkpt lat="53.451001" lon="05.801189"><ele>9.2</ele><time>2021-02-18T10:42:41Z</time><name>PT343</name></trkpt>
<trkpt lat="53.451000" lon="05.801196"><ele>8.9</ele><time>2021-02-18T10:42:43Z</time><name>PT344</name></trkpt>
<trkpt lat="53.450998" lon="05.801208"><ele>8.7</ele><time>2021-02-18T10:42:44Z</time><name>PT345</name></trkpt>
<trkpt lat="53.451000" lon="05.801221"><ele>8.6</ele><time>2021-02-18T10:42:44Z</time><name>PT346</name></trkpt>
<trkpt lat="53.451003" lon="05.801232"><ele>8.7</ele><time>2021-02-18T10:42:46Z</time><name>PT347</name></trkpt>
<trkpt lat="53.451008" lon="05.801241"><ele>8.7</ele><time>2021-02-18T10:42:47Z</time><name>PT348</name></trkpt>
<trkpt lat="53.451011" lon="05.801258"><ele>8.9</ele><time>2021-02-18T10:42:47Z</time><name>PT349</name></trkpt>
<trkpt lat="53.451010" lon="05.801269"><ele>9</ele><time>2021-02-18T10:42:49Z</time><name>PT350</name></trkpt>
<trkpt lat="53.451011" lon="05.801282"><ele>9.1</ele><time>2021-02-18T10:42:50Z</time><name>PT351</name></trkpt>
<trkpt lat="53.451015" lon="05.801294"><ele>9.2</ele><time>2021-02-18T10:42:50Z</time><name>PT352</name></trkpt>
<trkpt lat="53.451020" lon="05.801308"><ele>9.1</ele><time>2021-02-18T10:42:52Z</time><name>PT353</name></trkpt>
<trkpt lat="53.451026" lon="05.801324"><ele>8.9</ele><time>2021-02-18T10:42:53Z</time><name>PT354</name></trkpt>
<trkpt lat="53.451027" lon="05.801336"><ele>9.1</ele><time>2021-02-18T10:42:53Z</time><name>PT355</name></trkpt>
<trkpt lat="53.451028" lon="05.801356"><ele>8.9</ele><time>2021-02-18T10:42:55Z</time><name>PT356</name></trkpt>
<trkpt lat="53.451031" lon="05.801379"><ele>8.7</ele><time>2021-02-18T10:42:56Z</time><name>PT357</name></trkpt>
<trkpt lat="53.451031" lon="05.801401"><ele>8.7</ele><time>2021-02-18T10:42:56Z</time><name>PT358</name></trkpt>
<trkpt lat="53.451031" lon="05.801420"><ele>8.9</ele><time>2021-02-18T10:42:58Z</time><name>PT359</name></trkpt>
<trkpt lat="53.451033" lon="05.801442"><ele>9</ele><time>2021-02-18T10:42:59Z</time><name>PT360</name></trkpt>
<trkpt lat="53.451034" lon="05.801461"><ele>9</ele><time>2021-02-18T10:42:59Z</time><name>PT361</name></trkpt>
<trkpt lat="53.451032" lon="05.801478"><ele>9.2</ele><time>2021-02-18T10:43:01Z</time><name>PT362</name></trkpt>
<trkpt lat="53.451034" lon="05.801497"><ele>9.1</ele><time>2021-02-18T10:43:02Z</time><name>PT363</name></trkpt>
<trkpt lat="53.451037" lon="05.801517"><ele>8.9</ele><time>2021-02-18T10:43:02Z</time><name>PT364</name></trkpt>
<trkpt lat="53.451042" lon="05.801536"><ele>8.9</ele><time>2021-02-18T10:43:04Z</time><name>PT365</name></trkpt>
<trkpt lat="53.451045" lon="05.801552"><ele>8.9</ele><time>2021-02-18T10:43:05Z</time><name>PT366</name></trkpt>
<trkpt lat="53.451049" lon="05.801572"><ele>9.1</ele><time>2021-02-18T10:43:05Z</time><name>PT367</name></trkpt>
<trkpt lat="53.451051" lon="05.801589"><ele>9.1</ele><time>2021-02-18T10:43:07Z</time><name>PT368</name></trkpt>
<trkpt lat="53.451052" lon="05.801606"><ele>9.1</ele><time>2021-02-18T10:43:08Z</time><name>PT369</name></trkpt>
<trkpt lat="53.451054" lon="05.801624"><ele>9</ele><time>2021-02-18T10:43:08Z</time><name>PT370</name></trkpt>
<trkpt lat="53.451056" lon="05.801647"><ele>8.9</ele><time>2021-02-18T10:43:10Z</time><name>PT371</name></trkpt>
<trkpt lat="53.451059" lon="05.801669"><ele>8.9</ele><time>2021-02-18T10:43:11Z</time><name>PT372</name></trkpt>
<trkpt lat="53.451061" lon="05.801691"><ele>8.8</ele><time>2021-02-18T10:43:11Z</time><name>PT373</name></trkpt>
<trkpt lat="53.451062" lon="05.801710"><ele>8.8</ele><time>2021-02-18T10:43:13Z</time><name>PT374</name></trkpt>
<trkpt lat="53.451065" lon="05.801727"><ele>8.8</ele><time>2021-02-18T10:43:14Z</time><name>PT375</name></trkpt>
<trkpt lat="53.451067" lon="05.801741"><ele>8.8</ele><time>2021-02-18T10:43:14Z</time><name>PT376</name></trkpt>
<trkpt lat="53.451070" lon="05.801754"><ele>8.8</ele><time>2021-02-18T10:43:16Z</time><name>PT377</name></trkpt>
<trkpt lat="53.451070" lon="05.801767"><ele>8.7</ele><time>2021-02-18T10:43:17Z</time><name>PT378</name></trkpt>
<trkpt lat="53.451073" lon="05.801787"><ele>9</ele><time>2021-02-18T10:43:17Z</time><name>PT379</name></trkpt>
<trkpt lat="53.451074" lon="05.801806"><ele>9</ele><time>2021-02-18T10:43:19Z</time><name>PT380</name></trkpt>
<trkpt lat="53.451075" lon="05.801826"><ele>9.2</ele><time>2021-02-18T10:43:20Z</time><name>PT381</name></trkpt>
<trkpt lat="53.451077" lon="05.801845"><ele>9.2</ele><time>2021-02-18T10:43:20Z</time><name>PT382</name></trkpt>
<trkpt lat="53.451078" lon="05.801861"><ele>9.4</ele><time>2021-02-18T10:43:22Z</time><name>PT383</name></trkpt>
<trkpt lat="53.451080" lon="05.801879"><ele>9.4</ele><time>2021-02-18T10:43:23Z</time><name>PT384</name></trkpt>
<trkpt lat="53.451082" lon="05.801899"><ele>9.5</ele><time>2021-02-18T10:43:23Z</time><name>PT385</name></trkpt>
<trkpt lat="53.451083" lon="05.801917"><ele>9.5</ele><time>2021-02-18T10:43:25Z</time><name>PT386</name></trkpt>
<trkpt lat="53.451084" lon="05.801933"><ele>9.6</ele><time>2021-02-18T10:43:26Z</time><name>PT387</name></trkpt>
<trkpt lat="53.451086" lon="05.801951"><ele>9.5</ele><time>2021-02-18T10:43:26Z</time><name>PT388</name></trkpt>
<trkpt lat="53.451088" lon="05.801969"><ele>9.3</ele><time>2021-02-18T10:43:28Z</time><name>PT389</name></trkpt>
<trkpt lat="53.451091" lon="05.801986"><ele>9.2</ele><time>2021-02-18T10:43:29Z</time><name>PT390</name></trkpt>
<trkpt lat="53.451093" lon="05.802005"><ele>9.2</ele><time>2021-02-18T10:43:29Z</time><name>PT391</name></trkpt>
<trkpt lat="53.451094" lon="05.802025"><ele>9.2</ele><time>2021-02-18T10:43:31Z</time><name>PT392</name></trkpt>
<trkpt lat="53.451095" lon="05.802047"><ele>9.3</ele><time>2021-02-18T10:43:32Z</time><name>PT393</name></trkpt>
<trkpt lat="53.451094" lon="05.802070"><ele>9.3</ele><time>2021-02-18T10:43:32Z</time><name>PT394</name></trkpt>
<trkpt lat="53.451092" lon="05.802090"><ele>9.4</ele><time>2021-02-18T10:43:34Z</time><name>PT395</name></trkpt>
<trkpt lat="53.451091" lon="05.802109"><ele>9.2</ele><time>2021-02-18T10:43:35Z</time><name>PT396</name></trkpt>
<trkpt lat="53.451093" lon="05.802128"><ele>9</ele><time>2021-02-18T10:43:35Z</time><name>PT397</name></trkpt>
<trkpt lat="53.451096" lon="05.802147"><ele>8.9</ele><time>2021-02-18T10:43:37Z</time><name>PT398</name></trkpt>
<trkpt lat="53.451098" lon="05.802167"><ele>8.9</ele><time>2021-02-18T10:43:38Z</time><name>PT399</name></trkpt>
<trkpt lat="53.451099" lon="05.802187"><ele>9</ele><time>2021-02-18T10:43:38Z</time><name>PT400</name></trkpt>
<trkpt lat="53.451100" lon="05.802206"><ele>9.2</ele><time>2021-02-18T10:43:40Z</time><name>PT401</name></trkpt>
<trkpt lat="53.451099" lon="05.802227"><ele>9.2</ele><time>2021-02-18T10:43:41Z</time><name>PT402</name></trkpt>
<trkpt lat="53.451097" lon="05.802244"><ele>9.2</ele><time>2021-02-18T10:43:41Z</time><name>PT403</name></trkpt>
<trkpt lat="53.451098" lon="05.802262"><ele>9.1</ele><time>2021-02-18T10:43:43Z</time><name>PT404</name></trkpt>
<trkpt lat="53.451099" lon="05.802281"><ele>9.4</ele><time>2021-02-18T10:43:44Z</time><name>PT405</name></trkpt>
<trkpt lat="53.451098" lon="05.802298"><ele>9.4</ele><time>2021-02-18T10:43:44Z</time><name>PT406</name></trkpt>
<trkpt lat="53.451098" lon="05.802315"><ele>9.7</ele><time>2021-02-18T10:43:46Z</time><name>PT407</name></trkpt>
<trkpt lat="53.451098" lon="05.802331"><ele>9.7</ele><time>2021-02-18T10:43:47Z</time><name>PT408</name></trkpt>
<trkpt lat="53.451097" lon="05.802349"><ele>9.7</ele><time>2021-02-18T10:43:47Z</time><name>PT409</name></trkpt>
<trkpt lat="53.451097" lon="05.802367"><ele>9.7</ele><time>2021-02-18T10:43:49Z</time><name>PT410</name></trkpt>
<trkpt lat="53.451098" lon="05.802386"><ele>9.7</ele><time>2021-02-18T10:43:50Z</time><name>PT411</name></trkpt>
<trkpt lat="53.451097" lon="05.802405"><ele>9.7</ele><time>2021-02-18T10:43:50Z</time><name>PT412</name></trkpt>
<trkpt lat="53.451096" lon="05.802425"><ele>10</ele><time>2021-02-18T10:43:52Z</time><name>PT413</name></trkpt>
<trkpt lat="53.451096" lon="05.802445"><ele>10</ele><time>2021-02-18T10:43:53Z</time><name>PT414</name></trkpt>
<trkpt lat="53.451095" lon="05.802463"><ele>10</ele><time>2021-02-18T10:43:53Z</time><name>PT415</name></trkpt>
<trkpt lat="53.451095" lon="05.802482"><ele>9.9</ele><time>2021-02-18T10:43:55Z</time><name>PT416</name></trkpt>
<trkpt lat="53.451095" lon="05.802499"><ele>9.7</ele><time>2021-02-18T10:43:56Z</time><name>PT417</name></trkpt>
<trkpt lat="53.451096" lon="05.802515"><ele>9.5</ele><time>2021-02-18T10:43:56Z</time><name>PT418</name></trkpt>
<trkpt lat="53.451095" lon="05.802537"><ele>9.6</ele><time>2021-02-18T10:43:58Z</time><name>PT419</name></trkpt>
<trkpt lat="53.451094" lon="05.802558"><ele>9.4</ele><time>2021-02-18T10:43:59Z</time><name>PT420</name></trkpt>
<trkpt lat="53.451094" lon="05.802576"><ele>9.5</ele><time>2021-02-18T10:43:59Z</time><name>PT421</name></trkpt>
<trkpt lat="53.451093" lon="05.802589"><ele>9.7</ele><time>2021-02-18T10:44:01Z</time><name>PT422</name></trkpt>
<trkpt lat="53.451092" lon="05.802604"><ele>9.7</ele><time>2021-02-18T10:44:02Z</time><name>PT423</name></trkpt>
<trkpt lat="53.451093" lon="05.802623"><ele>9.8</ele><time>2021-02-18T10:44:02Z</time><name>PT424</name></trkpt>
<trkpt lat="53.451092" lon="05.802640"><ele>9.9</ele><time>2021-02-18T10:44:04Z</time><name>PT425</name></trkpt>
<trkpt lat="53.451089" lon="05.802658"><ele>9.7</ele><time>2021-02-18T10:44:05Z</time><name>PT426</name></trkpt>
<trkpt lat="53.451085" lon="05.802674"><ele>9.5</ele><time>2021-02-18T10:44:05Z</time><name>PT427</name></trkpt>
<trkpt lat="53.451083" lon="05.802691"><ele>9.4</ele><time>2021-02-18T10:44:07Z</time><name>PT428</name></trkpt>
<trkpt lat="53.451082" lon="05.802705"><ele>9.5</ele><time>2021-02-18T10:44:08Z</time><name>PT429</name></trkpt>
<trkpt lat="53.451081" lon="05.802722"><ele>9.5</ele><time>2021-02-18T10:44:08Z</time><name>PT430</name></trkpt>
<trkpt lat="53.451080" lon="05.802743"><ele>9.7</ele><time>2021-02-18T10:44:10Z</time><name>PT431</name></trkpt>
<trkpt lat="53.451078" lon="05.802763"><ele>9.8</ele><time>2021-02-18T10:44:11Z</time><name>PT432</name></trkpt>
<trkpt lat="53.451076" lon="05.802781"><ele>9.7</ele><time>2021-02-18T10:44:11Z</time><name>PT433</name></trkpt>
<trkpt lat="53.451074" lon="05.802795"><ele>9.7</ele><time>2021-02-18T10:44:13Z</time><name>PT434</name></trkpt>
<trkpt lat="53.451074" lon="05.802810"><ele>9.5</ele><time>2021-02-18T10:44:14Z</time><name>PT435</name></trkpt>
<trkpt lat="53.451075" lon="05.802829"><ele>9.5</ele><time>2021-02-18T10:44:14Z</time><name>PT436</name></trkpt>
<trkpt lat="53.451078" lon="05.802847"><ele>9.4</ele><time>2021-02-18T10:44:16Z</time><name>PT437</name></trkpt>
<trkpt lat="53.451081" lon="05.802865"><ele>9.4</ele><time>2021-02-18T10:44:17Z</time><name>PT438</name></trkpt>
<trkpt lat="53.451084" lon="05.802887"><ele>9.6</ele><time>2021-02-18T10:44:17Z</time><name>PT439</name></trkpt>
<trkpt lat="53.451086" lon="05.802903"><ele>9.5</ele><time>2021-02-18T10:44:19Z</time><name>PT440</name></trkpt>
<trkpt lat="53.451087" lon="05.802918"><ele>9.3</ele><time>2021-02-18T10:44:20Z</time><name>PT441</name></trkpt>
<trkpt lat="53.451086" lon="05.802932"><ele>9.3</ele><time>2021-02-18T10:44:20Z</time><name>PT442</name></trkpt>
<trkpt lat="53.451087" lon="05.802951"><ele>9.1</ele><time>2021-02-18T10:44:22Z</time><name>PT443</name></trkpt>
<trkpt lat="53.451089" lon="05.802969"><ele>9</ele><time>2021-02-18T10:44:23Z</time><name>PT444</name></trkpt>
<trkpt lat="53.451090" lon="05.802983"><ele>9.2</ele><time>2021-02-18T10:44:23Z</time><name>PT445</name></trkpt>
<trkpt lat="53.451090" lon="05.803002"><ele>8.8</ele><time>2021-02-18T10:44:25Z</time><name>PT446</name></trkpt>
<trkpt lat="53.451092" lon="05.803019"><ele>8.8</ele><time>2021-02-18T10:44:26Z</time><name>PT447</name></trkpt>
<trkpt lat="53.451091" lon="05.803036"><ele>8.7</ele><time>2021-02-18T10:44:26Z</time><name>PT448</name></trkpt>
<trkpt lat="53.451088" lon="05.803055"><ele>8.9</ele><time>2021-02-18T10:44:28Z</time><name>PT449</name></trkpt>
<trkpt lat="53.451087" lon="05.803075"><ele>9.1</ele><time>2021-02-18T10:44:29Z</time><name>PT450</name></trkpt>
<trkpt lat="53.451088" lon="05.803095"><ele>9.1</ele><time>2021-02-18T10:44:29Z</time><name>PT451</name></trkpt>
<trkpt lat="53.451093" lon="05.803109"><ele>9.2</ele><time>2021-02-18T10:44:31Z</time><name>PT452</name></trkpt>
<trkpt lat="53.451097" lon="05.803126"><ele>8.9</ele><time>2021-02-18T10:44:32Z</time><name>PT453</name></trkpt>
<trkpt lat="53.451098" lon="05.803141"><ele>8.9</ele><time>2021-02-18T10:44:32Z</time><name>PT454</name></trkpt>
<trkpt lat="53.451098" lon="05.803153"><ele>9</ele><time>2021-02-18T10:44:34Z</time><name>PT455</name></trkpt>
<trkpt lat="53.451100" lon="05.803168"><ele>9.1</ele><time>2021-02-18T10:44:35Z</time><name>PT456</name></trkpt>
<trkpt lat="53.451104" lon="05.803187"><ele>9.1</ele><time>2021-02-18T10:44:35Z</time><name>PT457</name></trkpt>
<trkpt lat="53.451107" lon="05.803206"><ele>9.2</ele><time>2021-02-18T10:44:37Z</time><name>PT458</name></trkpt>
<trkpt lat="53.451110" lon="05.803224"><ele>9.2</ele><time>2021-02-18T10:44:38Z</time><name>PT459</name></trkpt>
<trkpt lat="53.451111" lon="05.803241"><ele>9.2</ele><time>2021-02-18T10:44:38Z</time><name>PT460</name></trkpt>
<trkpt lat="53.451112" lon="05.803259"><ele>9</ele><time>2021-02-18T10:44:40Z</time><name>PT461</name></trkpt>
<trkpt lat="53.451113" lon="05.803276"><ele>9.1</ele><time>2021-02-18T10:44:41Z</time><name>PT462</name></trkpt>
<trkpt lat="53.451113" lon="05.803293"><ele>9.1</ele><time>2021-02-18T10:44:41Z</time><name>PT463</name></trkpt>
<trkpt lat="53.451115" lon="05.803311"><ele>9.1</ele><time>2021-02-18T10:44:43Z</time><name>PT464</name></trkpt>
<trkpt lat="53.451115" lon="05.803328"><ele>9.1</ele><time>2021-02-18T10:44:44Z</time><name>PT465</name></trkpt>
<trkpt lat="53.451115" lon="05.803344"><ele>9.1</ele><time>2021-02-18T10:44:44Z</time><name>PT466</name></trkpt>
<trkpt lat="53.451115" lon="05.803362"><ele>9</ele><time>2021-02-18T10:44:46Z</time><name>PT467</name></trkpt>
<trkpt lat="53.451116" lon="05.803381"><ele>8.7</ele><time>2021-02-18T10:44:47Z</time><name>PT468</name></trkpt>
<trkpt lat="53.451116" lon="05.803400"><ele>8.9</ele><time>2021-02-18T10:44:47Z</time><name>PT469</name></trkpt>
<trkpt lat="53.451118" lon="05.803419"><ele>8.9</ele><time>2021-02-18T10:44:49Z</time><name>PT470</name></trkpt>
<trkpt lat="53.451120" lon="05.803441"><ele>9</ele><time>2021-02-18T10:44:50Z</time><name>PT471</name></trkpt>
<trkpt lat="53.451122" lon="05.803461"><ele>9</ele><time>2021-02-18T10:44:50Z</time><name>PT472</name></trkpt>
<trkpt lat="53.451123" lon="05.803478"><ele>9.2</ele><time>2021-02-18T10:44:52Z</time><name>PT473</name></trkpt>
<trkpt lat="53.451124" lon="05.803490"><ele>9.2</ele><time>2021-02-18T10:44:53Z</time><name>PT474</name></trkpt>
<trkpt lat="53.451124" lon="05.803503"><ele>9.1</ele><time>2021-02-18T10:44:53Z</time><name>PT475</name></trkpt>
<trkpt lat="53.451125" lon="05.803520"><ele>9</ele><time>2021-02-18T10:44:55Z</time><name>PT476</name></trkpt>
<trkpt lat="53.451126" lon="05.803538"><ele>8.8</ele><time>2021-02-18T10:44:56Z</time><name>PT477</name></trkpt>
<trkpt lat="53.451128" lon="05.803557"><ele>8.7</ele><time>2021-02-18T10:44:56Z</time><name>PT478</name></trkpt>
<trkpt lat="53.451126" lon="05.803577"><ele>8.7</ele><time>2021-02-18T10:44:58Z</time><name>PT479</name></trkpt>
<trkpt lat="53.451124" lon="05.803596"><ele>8.7</ele><time>2021-02-18T10:44:59Z</time><name>PT480</name></trkpt>
<trkpt lat="53.451124" lon="05.803614"><ele>8.7</ele><time>2021-02-18T10:44:59Z</time><name>PT481</name></trkpt>
<trkpt lat="53.451124" lon="05.803632"><ele>8.8</ele><time>2021-02-18T10:45:01Z</time><name>PT482</name></trkpt>
<trkpt lat="53.451125" lon="05.803650"><ele>8.7</ele><time>2021-02-18T10:45:02Z</time><name>PT483</name></trkpt>
<trkpt lat="53.451126" lon="05.803669"><ele>8.9</ele><time>2021-02-18T10:45:02Z</time><name>PT484</name></trkpt>
<trkpt lat="53.451126" lon="05.803689"><ele>8.7</ele><time>2021-02-18T10:45:04Z</time><name>PT485</name></trkpt>
<trkpt lat="53.451128" lon="05.803707"><ele>8.5</ele><time>2021-02-18T10:45:05Z</time><name>PT486</name></trkpt>
<trkpt lat="53.451130" lon="05.803723"><ele>8.6</ele><time>2021-02-18T10:45:05Z</time><name>PT487</name></trkpt>
<trkpt lat="53.451133" lon="05.803739"><ele>8.7</ele><time>2021-02-18T10:45:07Z</time><name>PT488</name></trkpt>
<trkpt lat="53.451136" lon="05.803754"><ele>8.7</ele><time>2021-02-18T10:45:08Z</time><name>PT489</name></trkpt>
<trkpt lat="53.451137" lon="05.803767"><ele>8.7</ele><time>2021-02-18T10:45:08Z</time><name>PT490</name></trkpt>
<trkpt lat="53.451137" lon="05.803780"><ele>8.7</ele><time>2021-02-18T10:45:10Z</time><name>PT491</name></trkpt>
<trkpt lat="53.451137" lon="05.803798"><ele>8.7</ele><time>2021-02-18T10:45:11Z</time><name>PT492</name></trkpt>
<trkpt lat="53.451138" lon="05.803815"><ele>8.7</ele><time>2021-02-18T10:45:11Z</time><name>PT493</name></trkpt>
<trkpt lat="53.451138" lon="05.803833"><ele>8.6</ele><time>2021-02-18T10:45:13Z</time><name>PT494</name></trkpt>
<trkpt lat="53.451136" lon="05.803850"><ele>8.7</ele><time>2021-02-18T10:45:14Z</time><name>PT495</name></trkpt>
<trkpt lat="53.451134" lon="05.803868"><ele>8.6</ele><time>2021-02-18T10:45:14Z</time><name>PT496</name></trkpt>
<trkpt lat="53.451133" lon="05.803885"><ele>8.5</ele><time>2021-02-18T10:45:16Z</time><name>PT497</name></trkpt>
<trkpt lat="53.451132" lon="05.803903"><ele>8.7</ele><time>2021-02-18T10:45:17Z</time><name>PT498</name></trkpt>
<trkpt lat="53.451131" lon="05.803920"><ele>8.6</ele><time>2021-02-18T10:45:17Z</time><name>PT499</name></trkpt>
<trkpt lat="53.451133" lon="05.803936"><ele>8.4</ele><time>2021-02-18T10:45:19Z</time><name>PT500</name></trkpt>
<trkpt lat="53.451133" lon="05.803954"><ele>8.2</ele><time>2021-02-18T10:45:20Z</time><name>PT501</name></trkpt>
<trkpt lat="53.451136" lon="05.803970"><ele>8</ele><time>2021-02-18T10:45:20Z</time><name>PT502</name></trkpt>
<trkpt lat="53.451137" lon="05.803985"><ele>7.8</ele><time>2021-02-18T10:45:22Z</time><name>PT503</name></trkpt>
<trkpt lat="53.451136" lon="05.804003"><ele>7.9</ele><time>2021-02-18T10:45:23Z</time><name>PT504</name></trkpt>
<trkpt lat="53.451136" lon="05.804021"><ele>8.1</ele><time>2021-02-18T10:45:23Z</time><name>PT505</name></trkpt>
<trkpt lat="53.451138" lon="05.804040"><ele>8.2</ele><time>2021-02-18T10:45:25Z</time><name>PT506</name></trkpt>
<trkpt lat="53.451136" lon="05.804058"><ele>8.6</ele><time>2021-02-18T10:45:26Z</time><name>PT507</name></trkpt>
<trkpt lat="53.451135" lon="05.804076"><ele>8.7</ele><time>2021-02-18T10:45:26Z</time><name>PT508</name></trkpt>
<trkpt lat="53.451138" lon="05.804095"><ele>8.7</ele><time>2021-02-18T10:45:28Z</time><name>PT509</name></trkpt>
<trkpt lat="53.451140" lon="05.804114"><ele>9</ele><time>2021-02-18T10:45:29Z</time><name>PT510</name></trkpt>
<trkpt lat="53.451142" lon="05.804132"><ele>9</ele><time>2021-02-18T10:45:29Z</time><name>PT511</name></trkpt>
<trkpt lat="53.451142" lon="05.804152"><ele>8.9</ele><time>2021-02-18T10:45:31Z</time><name>PT512</name></trkpt>
<trkpt lat="53.451144" lon="05.804171"><ele>8.7</ele><time>2021-02-18T10:45:32Z</time><name>PT513</name></trkpt>
<trkpt lat="53.451145" lon="05.804187"><ele>8.9</ele><time>2021-02-18T10:45:32Z</time><name>PT514</name></trkpt>
<trkpt lat="53.451147" lon="05.804202"><ele>8.9</ele><time>2021-02-18T10:45:34Z</time><name>PT515</name></trkpt>
<trkpt lat="53.451145" lon="05.804221"><ele>9.1</ele><time>2021-02-18T10:45:35Z</time><name>PT516</name></trkpt>
<trkpt lat="53.451142" lon="05.804237"><ele>9.1</ele><time>2021-02-18T10:45:35Z</time><name>PT517</name></trkpt>
<trkpt lat="53.451141" lon="05.804254"><ele>9</ele><time>2021-02-18T10:45:37Z</time><name>PT518</name></trkpt>
<trkpt lat="53.451139" lon="05.804278"><ele>9</ele><time>2021-02-18T10:45:38Z</time><name>PT519</name></trkpt>
<trkpt lat="53.451139" lon="05.804298"><ele>9</ele><time>2021-02-18T10:45:38Z</time><name>PT520</name></trkpt>
<trkpt lat="53.451139" lon="05.804318"><ele>9</ele><time>2021-02-18T10:45:40Z</time><name>PT521</name></trkpt>
<trkpt lat="53.451140" lon="05.804338"><ele>8.9</ele><time>2021-02-18T10:45:41Z</time><name>PT522</name></trkpt>
<trkpt lat="53.451144" lon="05.804357"><ele>8.8</ele><time>2021-02-18T10:45:41Z</time><name>PT523</name></trkpt>
<trkpt lat="53.451146" lon="05.804374"><ele>9.1</ele><time>2021-02-18T10:45:43Z</time><name>PT524</name></trkpt>
<trkpt lat="53.451149" lon="05.804397"><ele>9.2</ele><time>2021-02-18T10:45:44Z</time><name>PT525</name></trkpt>
<trkpt lat="53.451151" lon="05.804417"><ele>9.1</ele><time>2021-02-18T10:45:44Z</time><name>PT526</name></trkpt>
<trkpt lat="53.451152" lon="05.804434"><ele>9.2</ele><time>2021-02-18T10:45:46Z</time><name>PT527</name></trkpt>
<trkpt lat="53.451154" lon="05.804452"><ele>8.9</ele><time>2021-02-18T10:45:47Z</time><name>PT528</name></trkpt>
<trkpt lat="53.451154" lon="05.804468"><ele>8.8</ele><time>2021-02-18T10:45:47Z</time><name>PT529</name></trkpt>
<trkpt lat="53.451155" lon="05.804485"><ele>8.9</ele><time>2021-02-18T10:45:49Z</time><name>PT530</name></trkpt>
<trkpt lat="53.451154" lon="05.804503"><ele>8.9</ele><time>2021-02-18T10:45:50Z</time><name>PT531</name></trkpt>
<trkpt lat="53.451152" lon="05.804524"><ele>9.1</ele><time>2021-02-18T10:45:50Z</time><name>PT532</name></trkpt>
<trkpt lat="53.451152" lon="05.804543"><ele>9.2</ele><time>2021-02-18T10:45:52Z</time><name>PT533</name></trkpt>
<trkpt lat="53.451152" lon="05.804561"><ele>9.1</ele><time>2021-02-18T10:45:53Z</time><name>PT534</name></trkpt>
<trkpt lat="53.451153" lon="05.804579"><ele>9</ele><time>2021-02-18T10:45:53Z</time><name>PT535</name></trkpt>
<trkpt lat="53.451154" lon="05.804598"><ele>8.7</ele><time>2021-02-18T10:45:55Z</time><name>PT536</name></trkpt>
<trkpt lat="53.451156" lon="05.804618"><ele>8.8</ele><time>2021-02-18T10:45:56Z</time><name>PT537</name></trkpt>
<trkpt lat="53.451157" lon="05.804638"><ele>9.1</ele><time>2021-02-18T10:45:56Z</time><name>PT538</name></trkpt>
<trkpt lat="53.451158" lon="05.804656"><ele>9</ele><time>2021-02-18T10:45:58Z</time><name>PT539</name></trkpt>
<trkpt lat="53.451161" lon="05.804672"><ele>8.9</ele><time>2021-02-18T10:45:59Z</time><name>PT540</name></trkpt>
<trkpt lat="53.451163" lon="05.804689"><ele>9</ele><time>2021-02-18T10:45:59Z</time><name>PT541</name></trkpt>
<trkpt lat="53.451164" lon="05.804709"><ele>9.1</ele><time>2021-02-18T10:46:01Z</time><name>PT542</name></trkpt>
<trkpt lat="53.451165" lon="05.804727"><ele>9.1</ele><time>2021-02-18T10:46:02Z</time><name>PT543</name></trkpt>
<trkpt lat="53.451166" lon="05.804744"><ele>9.2</ele><time>2021-02-18T10:46:02Z</time><name>PT544</name></trkpt>
<trkpt lat="53.451166" lon="05.804764"><ele>9.2</ele><time>2021-02-18T10:46:04Z</time><name>PT545</name></trkpt>
<trkpt lat="53.451166" lon="05.804781"><ele>9</ele><time>2021-02-18T10:46:05Z</time><name>PT546</name></trkpt>
<trkpt lat="53.451166" lon="05.804796"><ele>9</ele><time>2021-02-18T10:46:05Z</time><name>PT547</name></trkpt>
<trkpt lat="53.451168" lon="05.804813"><ele>9</ele><time>2021-02-18T10:46:07Z</time><name>PT548</name></trkpt>
<trkpt lat="53.451169" lon="05.804831"><ele>9.1</ele><time>2021-02-18T10:46:08Z</time><name>PT549</name></trkpt>
<trkpt lat="53.451171" lon="05.804849"><ele>9</ele><time>2021-02-18T10:46:08Z</time><name>PT550</name></trkpt>
<trkpt lat="53.451171" lon="05.804868"><ele>9.2</ele><time>2021-02-18T10:46:10Z</time><name>PT551</name></trkpt>
<trkpt lat="53.451171" lon="05.804887"><ele>8.9</ele><time>2021-02-18T10:46:11Z</time><name>PT552</name></trkpt>
<trkpt lat="53.451170" lon="05.804908"><ele>8.7</ele><time>2021-02-18T10:46:11Z</time><name>PT553</name></trkpt>
<trkpt lat="53.451170" lon="05.804926"><ele>8.7</ele><time>2021-02-18T10:46:13Z</time><name>PT554</name></trkpt>
<trkpt lat="53.451171" lon="05.804944"><ele>8.9</ele><time>2021-02-18T10:46:14Z</time><name>PT555</name></trkpt>
<trkpt lat="53.451172" lon="05.804962"><ele>9.1</ele><time>2021-02-18T10:46:14Z</time><name>PT556</name></trkpt>
<trkpt lat="53.451175" lon="05.804980"><ele>9.3</ele><time>2021-02-18T10:46:16Z</time><name>PT557</name></trkpt>
<trkpt lat="53.451177" lon="05.804997"><ele>9.6</ele><time>2021-02-18T10:46:17Z</time><name>PT558</name></trkpt>
<trkpt lat="53.451180" lon="05.805017"><ele>9.7</ele><time>2021-02-18T10:46:17Z</time><name>PT559</name></trkpt>
<trkpt lat="53.451181" lon="05.805035"><ele>9.5</ele><time>2021-02-18T10:46:19Z</time><name>PT560</name></trkpt>
<trkpt lat="53.451182" lon="05.805053"><ele>9.4</ele><time>2021-02-18T10:46:20Z</time><name>PT561</name></trkpt>
<trkpt lat="53.451182" lon="05.805069"><ele>9.2</ele><time>2021-02-18T10:46:20Z</time><name>PT562</name></trkpt>
<trkpt lat="53.451183" lon="05.805086"><ele>8.9</ele><time>2021-02-18T10:46:22Z</time><name>PT563</name></trkpt>
<trkpt lat="53.451184" lon="05.805105"><ele>8.8</ele><time>2021-02-18T10:46:23Z</time><name>PT564</name></trkpt>
<trkpt lat="53.451186" lon="05.805125"><ele>8.9</ele><time>2021-02-18T10:46:23Z</time><name>PT565</name></trkpt>
<trkpt lat="53.451186" lon="05.805144"><ele>9.2</ele><time>2021-02-18T10:46:25Z</time><name>PT566</name></trkpt>
<trkpt lat="53.451188" lon="05.805161"><ele>9.3</ele><time>2021-02-18T10:46:26Z</time><name>PT567</name></trkpt>
<trkpt lat="53.451187" lon="05.805179"><ele>9.4</ele><time>2021-02-18T10:46:26Z</time><name>PT568</name></trkpt>
<trkpt lat="53.451193" lon="05.805196"><ele>9.2</ele><time>2021-02-18T10:46:28Z</time><name>PT569</name></trkpt>
<trkpt lat="53.451194" lon="05.805215"><ele>9</ele><time>2021-02-18T10:46:29Z</time><name>PT570</name></trkpt>
<trkpt lat="53.451196" lon="05.805232"><ele>9</ele><time>2021-02-18T10:46:29Z</time><name>PT571</name></trkpt>
<trkpt lat="53.451197" lon="05.805249"><ele>8.9</ele><time>2021-02-18T10:46:31Z</time><name>PT572</name></trkpt>
<trkpt lat="53.451198" lon="05.805266"><ele>8.8</ele><time>2021-02-18T10:46:32Z</time><name>PT573</name></trkpt>
<trkpt lat="53.451199" lon="05.805280"><ele>8.7</ele><time>2021-02-18T10:46:32Z</time><name>PT574</name></trkpt>
<trkpt lat="53.451199" lon="05.805296"><ele>8.6</ele><time>2021-02-18T10:46:34Z</time><name>PT575</name></trkpt>
<trkpt lat="53.451199" lon="05.805312"><ele>8.4</ele><time>2021-02-18T10:46:35Z</time><name>PT576</name></trkpt>
<trkpt lat="53.451200" lon="05.805328"><ele>8.4</ele><time>2021-02-18T10:46:35Z</time><name>PT577</name></trkpt>
<trkpt lat="53.451200" lon="05.805345"><ele>8.6</ele><time>2021-02-18T10:46:37Z</time><name>PT578</name></trkpt>
<trkpt lat="53.451199" lon="05.805361"><ele>8.5</ele><time>2021-02-18T10:46:38Z</time><name>PT579</name></trkpt>
<trkpt lat="53.451200" lon="05.805382"><ele>8.6</ele><time>2021-02-18T10:46:38Z</time><name>PT580</name></trkpt>
<trkpt lat="53.451201" lon="05.805398"><ele>8.7</ele><time>2021-02-18T10:46:40Z</time><name>PT581</name></trkpt>
<trkpt lat="53.451200" lon="05.805417"><ele>8.7</ele><time>2021-02-18T10:46:41Z</time><name>PT582</name></trkpt>
<trkpt lat="53.451199" lon="05.805437"><ele>8.7</ele><time>2021-02-18T10:46:41Z</time><name>PT583</name></trkpt>
<trkpt lat="53.451198" lon="05.805456"><ele>8.8</ele><time>2021-02-18T10:46:43Z</time><name>PT584</name></trkpt>
<trkpt lat="53.451199" lon="05.805477"><ele>8.7</ele><time>2021-02-18T10:46:44Z</time><name>PT585</name></trkpt>
<trkpt lat="53.451198" lon="05.805503"><ele>8.7</ele><time>2021-02-18T10:46:44Z</time><name>PT586</name></trkpt>
<trkpt lat="53.451200" lon="05.805521"><ele>8.9</ele><time>2021-02-18T10:46:46Z</time><name>PT587</name></trkpt>
<trkpt lat="53.451204" lon="05.805535"><ele>8.9</ele><time>2021-02-18T10:46:47Z</time><name>PT588</name></trkpt>
<trkpt lat="53.451206" lon="05.805561"><ele>8.9</ele><time>2021-02-18T10:46:47Z</time><name>PT589</name></trkpt>
<trkpt lat="53.451207" lon="05.805582"><ele>9</ele><time>2021-02-18T10:46:49Z</time><name>PT590</name></trkpt>
<trkpt lat="53.451208" lon="05.805598"><ele>8.8</ele><time>2021-02-18T10:46:50Z</time><name>PT591</name></trkpt>
<trkpt lat="53.451208" lon="05.805614"><ele>8.7</ele><time>2021-02-18T10:46:50Z</time><name>PT592</name></trkpt>
<trkpt lat="53.451210" lon="05.805629"><ele>8.9</ele><time>2021-02-18T10:46:52Z</time><name>PT593</name></trkpt>
<trkpt lat="53.451210" lon="05.805652"><ele>8.8</ele><time>2021-02-18T10:46:53Z</time><name>PT594</name></trkpt>
<trkpt lat="53.451212" lon="05.805672"><ele>8.9</ele><time>2021-02-18T10:46:53Z</time><name>PT595</name></trkpt>
<trkpt lat="53.451211" lon="05.805690"><ele>8.8</ele><time>2021-02-18T10:46:55Z</time><name>PT596</name></trkpt>
<trkpt lat="53.451213" lon="05.805708"><ele>8.8</ele><time>2021-02-18T10:46:56Z</time><name>PT597</name></trkpt>
<trkpt lat="53.451213" lon="05.805729"><ele>8.9</ele><time>2021-02-18T10:46:56Z</time><name>PT598</name></trkpt>
<trkpt lat="53.451217" lon="05.805748"><ele>8.9</ele><time>2021-02-18T10:46:58Z</time><name>PT599</name></trkpt>
<trkpt lat="53.451219" lon="05.805770"><ele>8.7</ele><time>2021-02-18T10:46:59Z</time><name>PT600</name></trkpt>
<trkpt lat="53.451221" lon="05.805789"><ele>8.8</ele><time>2021-02-18T10:46:59Z</time><name>PT601</name></trkpt>
<trkpt lat="53.451221" lon="05.805804"><ele>8.6</ele><time>2021-02-18T10:47:01Z</time><name>PT602</name></trkpt>
<trkpt lat="53.451225" lon="05.805819"><ele>8.6</ele><time>2021-02-18T10:47:02Z</time><name>PT603</name></trkpt>
<trkpt lat="53.451227" lon="05.805833"><ele>8.5</ele><time>2021-02-18T10:47:02Z</time><name>PT604</name></trkpt>
<trkpt lat="53.451230" lon="05.805849"><ele>8.5</ele><time>2021-02-18T10:47:04Z</time><name>PT605</name></trkpt>
<trkpt lat="53.451230" lon="05.805865"><ele>8.6</ele><time>2021-02-18T10:47:05Z</time><name>PT606</name></trkpt>
<trkpt lat="53.451228" lon="05.805889"><ele>8.7</ele><time>2021-02-18T10:47:05Z</time><name>PT607</name></trkpt>
<trkpt lat="53.451228" lon="05.805907"><ele>8.8</ele><time>2021-02-18T10:47:07Z</time><name>PT608</name></trkpt>
<trkpt lat="53.451226" lon="05.805934"><ele>8.9</ele><time>2021-02-18T10:47:08Z</time><name>PT609</name></trkpt>
<trkpt lat="53.451223" lon="05.805959"><ele>8.9</ele><time>2021-02-18T10:47:08Z</time><name>PT610</name></trkpt>
<trkpt lat="53.451222" lon="05.805976"><ele>8.8</ele><time>2021-02-18T10:47:10Z</time><name>PT611</name></trkpt>
<trkpt lat="53.451224" lon="05.805993"><ele>8.8</ele><time>2021-02-18T10:47:11Z</time><name>PT612</name></trkpt>
<trkpt lat="53.451225" lon="05.806013"><ele>8.8</ele><time>2021-02-18T10:47:11Z</time><name>PT613</name></trkpt>
<trkpt lat="53.451228" lon="05.806031"><ele>9</ele><time>2021-02-18T10:47:13Z</time><name>PT614</name></trkpt>
<trkpt lat="53.451231" lon="05.806048"><ele>9.1</ele><time>2021-02-18T10:47:14Z</time><name>PT615</name></trkpt>
<trkpt lat="53.451232" lon="05.806067"><ele>9.3</ele><time>2021-02-18T10:47:14Z</time><name>PT616</name></trkpt>
<trkpt lat="53.451233" lon="05.806088"><ele>9.3</ele><time>2021-02-18T10:47:16Z</time><name>PT617</name></trkpt>
<trkpt lat="53.451234" lon="05.806103"><ele>9.3</ele><time>2021-02-18T10:47:17Z</time><name>PT618</name></trkpt>
<trkpt lat="53.451235" lon="05.806120"><ele>9.2</ele><time>2021-02-18T10:47:17Z</time><name>PT619</name></trkpt>
<trkpt lat="53.451233" lon="05.806138"><ele>8.9</ele><time>2021-02-18T10:47:19Z</time><name>PT620</name></trkpt>
<trkpt lat="53.451232" lon="05.806158"><ele>8.7</ele><time>2021-02-18T10:47:20Z</time><name>PT621</name></trkpt>
<trkpt lat="53.451231" lon="05.806176"><ele>8.7</ele><time>2021-02-18T10:47:20Z</time><name>PT622</name></trkpt>
<trkpt lat="53.451232" lon="05.806194"><ele>8.7</ele><time>2021-02-18T10:47:22Z</time><name>PT623</name></trkpt>
<trkpt lat="53.451233" lon="05.806213"><ele>8.7</ele><time>2021-02-18T10:47:23Z</time><name>PT624</name></trkpt>
<trkpt lat="53.451236" lon="05.806230"><ele>8.6</ele><time>2021-02-18T10:47:23Z</time><name>PT625</name></trkpt>
<trkpt lat="53.451237" lon="05.806250"><ele>8.4</ele><time>2021-02-18T10:47:25Z</time><name>PT626</name></trkpt>
<trkpt lat="53.451239" lon="05.806266"><ele>8.3</ele><time>2021-02-18T10:47:26Z</time><name>PT627</name></trkpt>
<trkpt lat="53.451239" lon="05.806283"><ele>8.2</ele><time>2021-02-18T10:47:26Z</time><name>PT628</name></trkpt>
<trkpt lat="53.451241" lon="05.806299"><ele>8.5</ele><time>2021-02-18T10:47:28Z</time><name>PT629</name></trkpt>
<trkpt lat="53.451241" lon="05.806315"><ele>8.7</ele><time>2021-02-18T10:47:29Z</time><name>PT630</name></trkpt>
<trkpt lat="53.451239" lon="05.806331"><ele>8.7</ele><time>2021-02-18T10:47:29Z</time><name>PT631</name></trkpt>
<trkpt lat="53.451237" lon="05.806348"><ele>8.7</ele><time>2021-02-18T10:47:31Z</time><name>PT632</name></trkpt>
<trkpt lat="53.451236" lon="05.806365"><ele>8.5</ele><time>2021-02-18T10:47:32Z</time><name>PT633</name></trkpt>
<trkpt lat="53.451236" lon="05.806383"><ele>8.3</ele><time>2021-02-18T10:47:32Z</time><name>PT634</name></trkpt>
<trkpt lat="53.451239" lon="05.806401"><ele>8.6</ele><time>2021-02-18T10:47:34Z</time><name>PT635</name></trkpt>
<trkpt lat="53.451241" lon="05.806419"><ele>8.7</ele><time>2021-02-18T10:47:35Z</time><name>PT636</name></trkpt>
<trkpt lat="53.451244" lon="05.806437"><ele>8.8</ele><time>2021-02-18T10:47:35Z</time><name>PT637</name></trkpt>
<trkpt lat="53.451246" lon="05.806452"><ele>8.9</ele><time>2021-02-18T10:47:37Z</time><name>PT638</name></trkpt>
<trkpt lat="53.451247" lon="05.806468"><ele>8.9</ele><time>2021-02-18T10:47:38Z</time><name>PT639</name></trkpt>
<trkpt lat="53.451249" lon="05.806485"><ele>8.7</ele><time>2021-02-18T10:47:38Z</time><name>PT640</name></trkpt>
<trkpt lat="53.451250" lon="05.806503"><ele>9</ele><time>2021-02-18T10:47:40Z</time><name>PT641</name></trkpt>
<trkpt lat="53.451251" lon="05.806519"><ele>9</ele><time>2021-02-18T10:47:41Z</time><name>PT642</name></trkpt>
<trkpt lat="53.451252" lon="05.806538"><ele>9.1</ele><time>2021-02-18T10:47:41Z</time><name>PT643</name></trkpt>
<trkpt lat="53.451250" lon="05.806560"><ele>9.2</ele><time>2021-02-18T10:47:43Z</time><name>PT644</name></trkpt>
<trkpt lat="53.451249" lon="05.806579"><ele>9.2</ele><time>2021-02-18T10:47:44Z</time><name>PT645</name></trkpt>
<trkpt lat="53.451249" lon="05.806598"><ele>9.2</ele><time>2021-02-18T10:47:44Z</time><name>PT646</name></trkpt>
<trkpt lat="53.451250" lon="05.806619"><ele>9.2</ele><time>2021-02-18T10:47:46Z</time><name>PT647</name></trkpt>
<trkpt lat="53.451250" lon="05.806637"><ele>9.1</ele><time>2021-02-18T10:47:47Z</time><name>PT648</name></trkpt>
<trkpt lat="53.451251" lon="05.806653"><ele>8.7</ele><time>2021-02-18T10:47:47Z</time><name>PT649</name></trkpt>
<trkpt lat="53.451253" lon="05.806669"><ele>8.4</ele><time>2021-02-18T10:47:49Z</time><name>PT650</name></trkpt>
<trkpt lat="53.451256" lon="05.806687"><ele>8.3</ele><time>2021-02-18T10:47:50Z</time><name>PT651</name></trkpt>
<trkpt lat="53.451256" lon="05.806707"><ele>8.2</ele><time>2021-02-18T10:47:50Z</time><name>PT652</name></trkpt>
<trkpt lat="53.451255" lon="05.806724"><ele>8.4</ele><time>2021-02-18T10:47:52Z</time><name>PT653</name></trkpt>
<trkpt lat="53.451254" lon="05.806738"><ele>8.5</ele><time>2021-02-18T10:47:53Z</time><name>PT654</name></trkpt>
<trkpt lat="53.451255" lon="05.806755"><ele>8.6</ele><time>2021-02-18T10:47:53Z</time><name>PT655</name></trkpt>
<trkpt lat="53.451256" lon="05.806772"><ele>8.6</ele><time>2021-02-18T10:47:55Z</time><name>PT656</name></trkpt>
<trkpt lat="53.451256" lon="05.806788"><ele>8.7</ele><time>2021-02-18T10:47:56Z</time><name>PT657</name></trkpt>
<trkpt lat="53.451255" lon="05.806805"><ele>8.9</ele><time>2021-02-18T10:47:56Z</time><name>PT658</name></trkpt>
<trkpt lat="53.451254" lon="05.806824"><ele>9.2</ele><time>2021-02-18T10:47:58Z</time><name>PT659</name></trkpt>
<trkpt lat="53.451257" lon="05.806842"><ele>9.3</ele><time>2021-02-18T10:47:59Z</time><name>PT660</name></trkpt>
<trkpt lat="53.451261" lon="05.806861"><ele>9.2</ele><time>2021-02-18T10:47:59Z</time><name>PT661</name></trkpt>
<trkpt lat="53.451266" lon="05.806879"><ele>9.2</ele><time>2021-02-18T10:48:01Z</time><name>PT662</name></trkpt>
<trkpt lat="53.451269" lon="05.806898"><ele>9.2</ele><time>2021-02-18T10:48:02Z</time><name>PT663</name></trkpt>
<trkpt lat="53.451269" lon="05.806917"><ele>9.3</ele><time>2021-02-18T10:48:02Z</time><name>PT664</name></trkpt>
<trkpt lat="53.451269" lon="05.806934"><ele>9.2</ele><time>2021-02-18T10:48:04Z</time><name>PT665</name></trkpt>
<trkpt lat="53.451269" lon="05.806951"><ele>9.2</ele><time>2021-02-18T10:48:05Z</time><name>PT666</name></trkpt>
<trkpt lat="53.451269" lon="05.806970"><ele>9.2</ele><time>2021-02-18T10:48:05Z</time><name>PT667</name></trkpt>
<trkpt lat="53.451270" lon="05.806989"><ele>9.2</ele><time>2021-02-18T10:48:07Z</time><name>PT668</name></trkpt>
<trkpt lat="53.451271" lon="05.807009"><ele>9.2</ele><time>2021-02-18T10:48:08Z</time><name>PT669</name></trkpt>
<trkpt lat="53.451269" lon="05.807027"><ele>9.3</ele><time>2021-02-18T10:48:08Z</time><name>PT670</name></trkpt>
<trkpt lat="53.451268" lon="05.807048"><ele>9.3</ele><time>2021-02-18T10:48:10Z</time><name>PT671</name></trkpt>
<trkpt lat="53.451267" lon="05.807070"><ele>9.3</ele><time>2021-02-18T10:48:11Z</time><name>PT672</name></trkpt>
<trkpt lat="53.451266" lon="05.807093"><ele>9.3</ele><time>2021-02-18T10:48:11Z</time><name>PT673</name></trkpt>
<trkpt lat="53.451266" lon="05.807115"><ele>9.4</ele><time>2021-02-18T10:48:13Z</time><name>PT674</name></trkpt>
<trkpt lat="53.451266" lon="05.807135"><ele>9.3</ele><time>2021-02-18T10:48:14Z</time><name>PT675</name></trkpt>
<trkpt lat="53.451266" lon="05.807158"><ele>9.2</ele><time>2021-02-18T10:48:14Z</time><name>PT676</name></trkpt>
<trkpt lat="53.451268" lon="05.807182"><ele>9</ele><time>2021-02-18T10:48:16Z</time><name>PT677</name></trkpt>
<trkpt lat="53.451269" lon="05.807199"><ele>9.1</ele><time>2021-02-18T10:48:17Z</time><name>PT678</name></trkpt>
<trkpt lat="53.451270" lon="05.807217"><ele>8.9</ele><time>2021-02-18T10:48:17Z</time><name>PT679</name></trkpt>
<trkpt lat="53.451272" lon="05.807237"><ele>9</ele><time>2021-02-18T10:48:19Z</time><name>PT680</name></trkpt>
<trkpt lat="53.451274" lon="05.807256"><ele>9.2</ele><time>2021-02-18T10:48:20Z</time><name>PT681</name></trkpt>
<trkpt lat="53.451274" lon="05.807276"><ele>9</ele><time>2021-02-18T10:48:20Z</time><name>PT682</name></trkpt>
<trkpt lat="53.451275" lon="05.807296"><ele>8.9</ele><time>2021-02-18T10:48:22Z</time><name>PT683</name></trkpt>
<trkpt lat="53.451277" lon="05.807317"><ele>9</ele><time>2021-02-18T10:48:23Z</time><name>PT684</name></trkpt>
<trkpt lat="53.451278" lon="05.807338"><ele>9</ele><time>2021-02-18T10:48:23Z</time><name>PT685</name></trkpt>
<trkpt lat="53.451277" lon="05.807356"><ele>9</ele><time>2021-02-18T10:48:25Z</time><name>PT686</name></trkpt>
<trkpt lat="53.451278" lon="05.807375"><ele>9</ele><time>2021-02-18T10:48:26Z</time><name>PT687</name></trkpt>
<trkpt lat="53.451281" lon="05.807394"><ele>9</ele><time>2021-02-18T10:48:26Z</time><name>PT688</name></trkpt>
<trkpt lat="53.451282" lon="05.807413"><ele>8.9</ele><time>2021-02-18T10:48:28Z</time><name>PT689</name></trkpt>
<trkpt lat="53.451282" lon="05.807431"><ele>9.2</ele><time>2021-02-18T10:48:29Z</time><name>PT690</name></trkpt>
<trkpt lat="53.451281" lon="05.807450"><ele>9.2</ele><time>2021-02-18T10:48:29Z</time><name>PT691</name></trkpt>
<trkpt lat="53.451281" lon="05.807470"><ele>9.3</ele><time>2021-02-18T10:48:31Z</time><name>PT692</name></trkpt>
<trkpt lat="53.451279" lon="05.807489"><ele>9.5</ele><time>2021-02-18T10:48:32Z</time><name>PT693</name></trkpt>
<trkpt lat="53.451278" lon="05.807509"><ele>9.4</ele><time>2021-02-18T10:48:32Z</time><name>PT694</name></trkpt>
<trkpt lat="53.451277" lon="05.807528"><ele>9.1</ele><time>2021-02-18T10:48:34Z</time><name>PT695</name></trkpt>
<trkpt lat="53.451277" lon="05.807552"><ele>8.8</ele><time>2021-02-18T10:48:35Z</time><name>PT696</name></trkpt>
<trkpt lat="53.451278" lon="05.807573"><ele>8.8</ele><time>2021-02-18T10:48:35Z</time><name>PT697</name></trkpt>
<trkpt lat="53.451279" lon="05.807592"><ele>8.8</ele><time>2021-02-18T10:48:37Z</time><name>PT698</name></trkpt>
<trkpt lat="53.451278" lon="05.807615"><ele>8.8</ele><time>2021-02-18T10:48:38Z</time><name>PT699</name></trkpt>
<trkpt lat="53.451276" lon="05.807634"><ele>8.9</ele><time>2021-02-18T10:48:38Z</time><name>PT700</name></trkpt>
<trkpt lat="53.451276" lon="05.807652"><ele>9</ele><time>2021-02-18T10:48:40Z</time><name>PT701</name></trkpt>
<trkpt lat="53.451276" lon="05.807671"><ele>8.8</ele><time>2021-02-18T10:48:41Z</time><name>PT702</name></trkpt>
<trkpt lat="53.451275" lon="05.807692"><ele>8.8</ele><time>2021-02-18T10:48:41Z</time><name>PT703</name></trkpt>
<trkpt lat="53.451276" lon="05.807712"><ele>9</ele><time>2021-02-18T10:48:43Z</time><name>PT704</name></trkpt>
<trkpt lat="53.451276" lon="05.807733"><ele>9.2</ele><time>2021-02-18T10:48:44Z</time><name>PT705</name></trkpt>
<trkpt lat="53.451277" lon="05.807754"><ele>9.2</ele><time>2021-02-18T10:48:44Z</time><name>PT706</name></trkpt>
<trkpt lat="53.451278" lon="05.807775"><ele>9.2</ele><time>2021-02-18T10:48:46Z</time><name>PT707</name></trkpt>
<trkpt lat="53.451279" lon="05.807795"><ele>9</ele><time>2021-02-18T10:48:47Z</time><name>PT708</name></trkpt>
<trkpt lat="53.451282" lon="05.807817"><ele>8.8</ele><time>2021-02-18T10:48:47Z</time><name>PT709</name></trkpt>
<trkpt lat="53.451287" lon="05.807835"><ele>8.8</ele><time>2021-02-18T10:48:49Z</time><name>PT710</name></trkpt>
<trkpt lat="53.451290" lon="05.807857"><ele>8.8</ele><time>2021-02-18T10:48:50Z</time><name>PT711</name></trkpt>
<trkpt lat="53.451295" lon="05.807877"><ele>8.8</ele><time>2021-02-18T10:48:50Z</time><name>PT712</name></trkpt>
<trkpt lat="53.451296" lon="05.807896"><ele>8.9</ele><time>2021-02-18T10:48:52Z</time><name>PT713</name></trkpt>
<trkpt lat="53.451297" lon="05.807916"><ele>8.9</ele><time>2021-02-18T10:48:53Z</time><name>PT714</name></trkpt>
<trkpt lat="53.451298" lon="05.807936"><ele>8.7</ele><time>2021-02-18T10:48:53Z</time><name>PT715</name></trkpt>
<trkpt lat="53.451298" lon="05.807955"><ele>8.9</ele><time>2021-02-18T10:48:55Z</time><name>PT716</name></trkpt>
<trkpt lat="53.451299" lon="05.807973"><ele>8.8</ele><time>2021-02-18T10:48:56Z</time><name>PT717</name></trkpt>
<trkpt lat="53.451300" lon="05.807991"><ele>8.8</ele><time>2021-02-18T10:48:56Z</time><name>PT718</name></trkpt>
<trkpt lat="53.451301" lon="05.808007"><ele>9.1</ele><time>2021-02-18T10:48:58Z</time><name>PT719</name></trkpt>
<trkpt lat="53.451301" lon="05.808024"><ele>9</ele><time>2021-02-18T10:48:59Z</time><name>PT720</name></trkpt>
<trkpt lat="53.451302" lon="05.808039"><ele>9</ele><time>2021-02-18T10:48:59Z</time><name>PT721</name></trkpt>
<trkpt lat="53.451303" lon="05.808055"><ele>8.9</ele><time>2021-02-18T10:49:01Z</time><name>PT722</name></trkpt>
<trkpt lat="53.451301" lon="05.808070"><ele>8.9</ele><time>2021-02-18T10:49:02Z</time><name>PT723</name></trkpt>
<trkpt lat="53.451299" lon="05.808084"><ele>8.9</ele><time>2021-02-18T10:49:02Z</time><name>PT724</name></trkpt>
<trkpt lat="53.451298" lon="05.808101"><ele>8.9</ele><time>2021-02-18T10:49:04Z</time><name>PT725</name></trkpt>
<trkpt lat="53.451299" lon="05.808116"><ele>8.9</ele><time>2021-02-18T10:49:05Z</time><name>PT726</name></trkpt>
<trkpt lat="53.451299" lon="05.808130"><ele>8.7</ele><time>2021-02-18T10:49:05Z</time><name>PT727</name></trkpt>
<trkpt lat="53.451303" lon="05.808144"><ele>8.7</ele><time>2021-02-18T10:49:07Z</time><name>PT728</name></trkpt>
<trkpt lat="53.451304" lon="05.808160"><ele>8.7</ele><time>2021-02-18T10:49:08Z</time><name>PT729</name></trkpt>
<trkpt lat="53.451303" lon="05.808174"><ele>8.7</ele><time>2021-02-18T10:49:08Z</time><name>PT730</name></trkpt>
<trkpt lat="53.451300" lon="05.808190"><ele>8.6</ele><time>2021-02-18T10:49:10Z</time><name>PT731</name></trkpt>
<trkpt lat="53.451298" lon="05.808208"><ele>8.7</ele><time>2021-02-18T10:49:11Z</time><name>PT732</name></trkpt>
<trkpt lat="53.451298" lon="05.808231"><ele>8.7</ele><time>2021-02-18T10:49:11Z</time><name>PT733</name></trkpt>
<trkpt lat="53.451300" lon="05.808251"><ele>8.6</ele><time>2021-02-18T10:49:13Z</time><name>PT734</name></trkpt>
<trkpt lat="53.451301" lon="05.808267"><ele>8.5</ele><time>2021-02-18T10:49:14Z</time><name>PT735</name></trkpt>
<trkpt lat="53.451304" lon="05.808282"><ele>8.7</ele><time>2021-02-18T10:49:14Z</time><name>PT736</name></trkpt>
<trkpt lat="53.451306" lon="05.808297"><ele>8.7</ele><time>2021-02-18T10:49:16Z</time><name>PT737</name></trkpt>
<trkpt lat="53.451305" lon="05.808313"><ele>8.7</ele><time>2021-02-18T10:49:17Z</time><name>PT738</name></trkpt>
<trkpt lat="53.451299" lon="05.808331"><ele>8.7</ele><time>2021-02-18T10:49:17Z</time><name>PT739</name></trkpt>
<trkpt lat="53.451293" lon="05.808347"><ele>8.3</ele><time>2021-02-18T10:49:19Z</time><name>PT740</name></trkpt>
<trkpt lat="53.451287" lon="05.808365"><ele>8.2</ele><time>2021-02-18T10:49:20Z</time><name>PT741</name></trkpt>
<trkpt lat="53.451283" lon="05.808382"><ele>8</ele><time>2021-02-18T10:49:20Z</time><name>PT742</name></trkpt>
<trkpt lat="53.451281" lon="05.808401"><ele>7.9</ele><time>2021-02-18T10:49:22Z</time><name>PT743</name></trkpt>
<trkpt lat="53.451277" lon="05.808421"><ele>8.2</ele><time>2021-02-18T10:49:23Z</time><name>PT744</name></trkpt>
<trkpt lat="53.451274" lon="05.808442"><ele>8.2</ele><time>2021-02-18T10:49:23Z</time><name>PT745</name></trkpt>
<trkpt lat="53.451276" lon="05.808466"><ele>8.7</ele><time>2021-02-18T10:49:25Z</time><name>PT746</name></trkpt>
<trkpt lat="53.451277" lon="05.808486"><ele>9</ele><time>2021-02-18T10:49:26Z</time><name>PT747</name></trkpt>
<trkpt lat="53.451277" lon="05.808503"><ele>9.1</ele><time>2021-02-18T10:49:26Z</time><name>PT748</name></trkpt>
<trkpt lat="53.451278" lon="05.808523"><ele>9.2</ele><time>2021-02-18T10:49:28Z</time><name>PT749</name></trkpt>
<trkpt lat="53.451278" lon="05.808542"><ele>9.3</ele><time>2021-02-18T10:49:29Z</time><name>PT750</name></trkpt>
<trkpt lat="53.451277" lon="05.808562"><ele>9.4</ele><time>2021-02-18T10:49:29Z</time><name>PT751</name></trkpt>
<trkpt lat="53.451276" lon="05.808581"><ele>9.3</ele><time>2021-02-18T10:49:31Z</time><name>PT752</name></trkpt>
<trkpt lat="53.451276" lon="05.808598"><ele>9.2</ele><time>2021-02-18T10:49:32Z</time><name>PT753</name></trkpt>
<trkpt lat="53.451277" lon="05.808614"><ele>9.1</ele><time>2021-02-18T10:49:32Z</time><name>PT754</name></trkpt>
<trkpt lat="53.451274" lon="05.808628"><ele>8.8</ele><time>2021-02-18T10:49:34Z</time><name>PT755</name></trkpt>
<trkpt lat="53.451271" lon="05.808643"><ele>8.9</ele><time>2021-02-18T10:49:35Z</time><name>PT756</name></trkpt>
<trkpt lat="53.451269" lon="05.808658"><ele>8.9</ele><time>2021-02-18T10:49:35Z</time><name>PT757</name></trkpt>
<trkpt lat="53.451268" lon="05.808674"><ele>9</ele><time>2021-02-18T10:49:37Z</time><name>PT758</name></trkpt>
<trkpt lat="53.451267" lon="05.808692"><ele>9.2</ele><time>2021-02-18T10:49:38Z</time><name>PT759</name></trkpt>
<trkpt lat="53.451267" lon="05.808711"><ele>9.3</ele><time>2021-02-18T10:49:38Z</time><name>PT760</name></trkpt>
<trkpt lat="53.451267" lon="05.808725"><ele>9.2</ele><time>2021-02-18T10:49:40Z</time><name>PT761</name></trkpt>
<trkpt lat="53.451267" lon="05.808739"><ele>9.2</ele><time>2021-02-18T10:49:41Z</time><name>PT762</name></trkpt>
<trkpt lat="53.451267" lon="05.808750"><ele>9</ele><time>2021-02-18T10:49:41Z</time><name>PT763</name></trkpt>
<trkpt lat="53.451268" lon="05.808759"><ele>8.8</ele><time>2021-02-18T10:49:43Z</time><name>PT764</name></trkpt>
<trkpt lat="53.451266" lon="05.808771"><ele>8.7</ele><time>2021-02-18T10:49:44Z</time><name>PT765</name></trkpt>
<trkpt lat="53.451274" lon="05.808784"><ele>8.7</ele><time>2021-02-18T10:49:44Z</time><name>PT766</name></trkpt>
<trkpt lat="53.451274" lon="05.808794"><ele>8.7</ele><time>2021-02-18T10:49:46Z</time><name>PT767</name></trkpt>
<trkpt lat="53.451277" lon="05.808800"><ele>8.7</ele><time>2021-02-18T10:49:47Z</time><name>PT768</name></trkpt>
<trkpt lat="53.451282" lon="05.808805"><ele>8.7</ele><time>2021-02-18T10:49:47Z</time><name>PT769</name></trkpt>
<trkpt lat="53.451285" lon="05.808817"><ele>8.9</ele><time>2021-02-18T10:49:49Z</time><name>PT770</name></trkpt>
<trkpt lat="53.451286" lon="05.808832"><ele>9.1</ele><time>2021-02-18T10:49:50Z</time><name>PT771</name></trkpt>
<trkpt lat="53.451286" lon="05.808845"><ele>9.2</ele><time>2021-02-18T10:49:50Z</time><name>PT772</name></trkpt>
<trkpt lat="53.451284" lon="05.808860"><ele>9.5</ele><time>2021-02-18T10:49:52Z</time><name>PT773</name></trkpt>
<trkpt lat="53.451282" lon="05.808874"><ele>9.4</ele><time>2021-02-18T10:49:53Z</time><name>PT774</name></trkpt>
<trkpt lat="53.451282" lon="05.808891"><ele>9.5</ele><time>2021-02-18T10:49:53Z</time><name>PT775</name></trkpt>
<trkpt lat="53.451283" lon="05.808904"><ele>9.6</ele><time>2021-02-18T10:49:55Z</time><name>PT776</name></trkpt>
<trkpt lat="53.451284" lon="05.808919"><ele>9.5</ele><time>2021-02-18T10:49:56Z</time><name>PT777</name></trkpt>
<trkpt lat="53.451284" lon="05.808934"><ele>9.4</ele><time>2021-02-18T10:49:56Z</time><name>PT778</name></trkpt>
<trkpt lat="53.451284" lon="05.808950"><ele>9.5</ele><time>2021-02-18T10:49:58Z</time><name>PT779</name></trkpt>
<trkpt lat="53.451284" lon="05.808963"><ele>9.3</ele><time>2021-02-18T10:49:59Z</time><name>PT780</name></trkpt>
<trkpt lat="53.451285" lon="05.808977"><ele>9.2</ele><time>2021-02-18T10:49:59Z</time><name>PT781</name></trkpt>
<trkpt lat="53.451286" lon="05.808990"><ele>9.4</ele><time>2021-02-18T10:50:01Z</time><name>PT782</name></trkpt>
<trkpt lat="53.451286" lon="05.809006"><ele>9.4</ele><time>2021-02-18T10:50:02Z</time><name>PT783</name></trkpt>
<trkpt lat="53.451285" lon="05.809022"><ele>9.4</ele><time>2021-02-18T10:50:02Z</time><name>PT784</name></trkpt>
<trkpt lat="53.451286" lon="05.809040"><ele>9.3</ele><time>2021-02-18T10:50:04Z</time><name>PT785</name></trkpt>
<trkpt lat="53.451283" lon="05.809056"><ele>9.2</ele><time>2021-02-18T10:50:05Z</time><name>PT786</name></trkpt>
<trkpt lat="53.451281" lon="05.809073"><ele>9.1</ele><time>2021-02-18T10:50:05Z</time><name>PT787</name></trkpt>
<trkpt lat="53.451276" lon="05.809086"><ele>9</ele><time>2021-02-18T10:50:07Z</time><name>PT788</name></trkpt>
<trkpt lat="53.451273" lon="05.809097"><ele>9.1</ele><time>2021-02-18T10:50:08Z</time><name>PT789</name></trkpt>
<trkpt lat="53.451272" lon="05.809102"><ele>9.1</ele><time>2021-02-18T10:50:08Z</time><name>PT790</name></trkpt>
<trkpt lat="53.451272" lon="05.809104"><ele>9</ele><time>2021-02-18T10:50:10Z</time><name>PT791</name></trkpt>
<trkpt lat="53.451272" lon="05.809110"><ele>9.1</ele><time>2021-02-18T10:50:11Z</time><name>PT792</name></trkpt>
<trkpt lat="53.451272" lon="05.809113"><ele>9.2</ele><time>2021-02-18T10:50:11Z</time><name>PT793</name></trkpt>
<trkpt lat="53.451271" lon="05.809115"><ele>9.1</ele><time>2021-02-18T10:50:14Z</time><name>PT794</name></trkpt>
<trkpt lat="53.451270" lon="05.809120"><ele>9.1</ele><time>2021-02-18T10:50:16Z</time><name>PT795</name></trkpt>
<trkpt lat="53.451272" lon="05.809130"><ele>8.8</ele><time>2021-02-18T10:50:17Z</time><name>PT796</name></trkpt>
<trkpt lat="53.451273" lon="05.809144"><ele>8.9</ele><time>2021-02-18T10:50:17Z</time><name>PT797</name></trkpt>
<trkpt lat="53.451275" lon="05.809150"><ele>8.9</ele><time>2021-02-18T10:50:19Z</time><name>PT798</name></trkpt>
<trkpt lat="53.451275" lon="05.809154"><ele>8.9</ele><time>2021-02-18T10:50:20Z</time><name>PT799</name></trkpt>
<trkpt lat="53.451275" lon="05.809157"><ele>9</ele><time>2021-02-18T10:50:20Z</time><name>PT800</name></trkpt>
<trkpt lat="53.451276" lon="05.809168"><ele>9</ele><time>2021-02-18T10:50:22Z</time><name>PT801</name></trkpt>
<trkpt lat="53.451278" lon="05.809180"><ele>9</ele><time>2021-02-18T10:50:23Z</time><name>PT802</name></trkpt>
<trkpt lat="53.451281" lon="05.809189"><ele>9.2</ele><time>2021-02-18T10:50:23Z</time><name>PT803</name></trkpt>
<trkpt lat="53.451278" lon="05.809194"><ele>9.2</ele><time>2021-02-18T10:50:25Z</time><name>PT804</name></trkpt>
<trkpt lat="53.451277" lon="05.809200"><ele>9.3</ele><time>2021-02-18T10:50:26Z</time><name>PT805</name></trkpt>
<trkpt lat="53.451276" lon="05.809205"><ele>9.2</ele><time>2021-02-18T10:50:26Z</time><name>PT806</name></trkpt>
<trkpt lat="53.451277" lon="05.809212"><ele>9.2</ele><time>2021-02-18T10:50:28Z</time><name>PT807</name></trkpt>
<trkpt lat="53.451277" lon="05.809220"><ele>9.2</ele><time>2021-02-18T10:50:29Z</time><name>PT808</name></trkpt>
<trkpt lat="53.451280" lon="05.809229"><ele>9.1</ele><time>2021-02-18T10:50:29Z</time><name>PT809</name></trkpt>
<trkpt lat="53.451280" lon="05.809235"><ele>9.2</ele><time>2021-02-18T10:50:31Z</time><name>PT810</name></trkpt>
<trkpt lat="53.451281" lon="05.809253"><ele>9.2</ele><time>2021-02-18T10:50:44Z</time><name>PT811</name></trkpt>
<trkpt lat="53.451281" lon="05.809267"><ele>9.1</ele><time>2021-02-18T10:50:44Z</time><name>PT812</name></trkpt>
<trkpt lat="53.451281" lon="05.809281"><ele>9.1</ele><time>2021-02-18T10:50:46Z</time><name>PT813</name></trkpt>
<trkpt lat="53.451279" lon="05.809293"><ele>8.7</ele><time>2021-02-18T10:50:47Z</time><name>PT814</name></trkpt>
<trkpt lat="53.451282" lon="05.809306"><ele>8.8</ele><time>2021-02-18T10:50:47Z</time><name>PT815</name></trkpt>
<trkpt lat="53.451286" lon="05.809325"><ele>9.1</ele><time>2021-02-18T10:50:52Z</time><name>PT816</name></trkpt>
<trkpt lat="53.451284" lon="05.809335"><ele>8.7</ele><time>2021-02-18T10:50:53Z</time><name>PT817</name></trkpt>
<trkpt lat="53.451283" lon="05.809345"><ele>8.7</ele><time>2021-02-18T10:50:53Z</time><name>PT818</name></trkpt>
<trkpt lat="53.451281" lon="05.809359"><ele>8.7</ele><time>2021-02-18T10:50:56Z</time><name>PT819</name></trkpt>
<trkpt lat="53.451284" lon="05.809368"><ele>8.8</ele><time>2021-02-18T10:50:56Z</time><name>PT820</name></trkpt>
<trkpt lat="53.451283" lon="05.809383"><ele>9.1</ele><time>2021-02-18T10:50:58Z</time><name>PT821</name></trkpt>
<trkpt lat="53.451285" lon="05.809396"><ele>8.9</ele><time>2021-02-18T10:50:59Z</time><name>PT822</name></trkpt>
<trkpt lat="53.451282" lon="05.809410"><ele>8.9</ele><time>2021-02-18T10:50:59Z</time><name>PT823</name></trkpt>
<trkpt lat="53.451278" lon="05.809420"><ele>8.8</ele><time>2021-02-18T10:51:01Z</time><name>PT824</name></trkpt>
<trkpt lat="53.451277" lon="05.809435"><ele>8.8</ele><time>2021-02-18T10:51:02Z</time><name>PT825</name></trkpt>
<trkpt lat="53.451274" lon="05.809448"><ele>8.9</ele><time>2021-02-18T10:51:02Z</time><name>PT826</name></trkpt>
<trkpt lat="53.451272" lon="05.809462"><ele>8.9</ele><time>2021-02-18T10:51:04Z</time><name>PT827</name></trkpt>
<trkpt lat="53.451272" lon="05.809477"><ele>9.1</ele><time>2021-02-18T10:51:05Z</time><name>PT828</name></trkpt>
<trkpt lat="53.451272" lon="05.809491"><ele>8.9</ele><time>2021-02-18T10:51:05Z</time><name>PT829</name></trkpt>
<trkpt lat="53.451273" lon="05.809503"><ele>8.8</ele><time>2021-02-18T10:51:07Z</time><name>PT830</name></trkpt>
<trkpt lat="53.451269" lon="05.809514"><ele>9</ele><time>2021-02-18T10:51:08Z</time><name>PT831</name></trkpt>
<trkpt lat="53.451269" lon="05.809525"><ele>9</ele><time>2021-02-18T10:51:08Z</time><name>PT832</name></trkpt>
<trkpt lat="53.451270" lon="05.809539"><ele>9.1</ele><time>2021-02-18T10:51:10Z</time><name>PT833</name></trkpt>
<trkpt lat="53.451272" lon="05.809555"><ele>9.3</ele><time>2021-02-18T10:51:11Z</time><name>PT834</name></trkpt>
<trkpt lat="53.451272" lon="05.809570"><ele>9.2</ele><time>2021-02-18T10:51:11Z</time><name>PT835</name></trkpt>
<trkpt lat="53.451273" lon="05.809586"><ele>9.1</ele><time>2021-02-18T10:51:13Z</time><name>PT836</name></trkpt>
<trkpt lat="53.451274" lon="05.809603"><ele>9.2</ele><time>2021-02-18T10:51:14Z</time><name>PT837</name></trkpt>
<trkpt lat="53.451275" lon="05.809617"><ele>9.2</ele><time>2021-02-18T10:51:14Z</time><name>PT838</name></trkpt>
<trkpt lat="53.451276" lon="05.809631"><ele>9.4</ele><time>2021-02-18T10:51:16Z</time><name>PT839</name></trkpt>
<trkpt lat="53.451278" lon="05.809645"><ele>9.7</ele><time>2021-02-18T10:51:17Z</time><name>PT840</name></trkpt>
<trkpt lat="53.451279" lon="05.809661"><ele>9.7</ele><time>2021-02-18T10:51:17Z</time><name>PT841</name></trkpt>
<trkpt lat="53.451280" lon="05.809677"><ele>9.7</ele><time>2021-02-18T10:51:19Z</time><name>PT842</name></trkpt>
<trkpt lat="53.451280" lon="05.809695"><ele>10</ele><time>2021-02-18T10:51:20Z</time><name>PT843</name></trkpt>
<trkpt lat="53.451279" lon="05.809712"><ele>10.2</ele><time>2021-02-18T10:51:20Z</time><name>PT844</name></trkpt>
<trkpt lat="53.451279" lon="05.809727"><ele>10</ele><time>2021-02-18T10:51:22Z</time><name>PT845</name></trkpt>
<trkpt lat="53.451281" lon="05.809740"><ele>10.1</ele><time>2021-02-18T10:51:23Z</time><name>PT846</name></trkpt>
<trkpt lat="53.451284" lon="05.809752"><ele>9.9</ele><time>2021-02-18T10:51:23Z</time><name>PT847</name></trkpt>
<trkpt lat="53.451284" lon="05.809766"><ele>9.7</ele><time>2021-02-18T10:51:25Z</time><name>PT848</name></trkpt>
<trkpt lat="53.451284" lon="05.809780"><ele>9.5</ele><time>2021-02-18T10:51:26Z</time><name>PT849</name></trkpt>
<trkpt lat="53.451284" lon="05.809793"><ele>9.4</ele><time>2021-02-18T10:51:26Z</time><name>PT850</name></trkpt>
<trkpt lat="53.451284" lon="05.809805"><ele>9.5</ele><time>2021-02-18T10:51:28Z</time><name>PT851</name></trkpt>
<trkpt lat="53.451284" lon="05.809820"><ele>9.4</ele><time>2021-02-18T10:51:29Z</time><name>PT852</name></trkpt>
<trkpt lat="53.451284" lon="05.809833"><ele>9.6</ele><time>2021-02-18T10:51:29Z</time><name>PT853</name></trkpt>
<trkpt lat="53.451284" lon="05.809846"><ele>9.9</ele><time>2021-02-18T10:51:31Z</time><name>PT854</name></trkpt>
<trkpt lat="53.451285" lon="05.809859"><ele>9.8</ele><time>2021-02-18T10:51:32Z</time><name>PT855</name></trkpt>
<trkpt lat="53.451286" lon="05.809876"><ele>9.8</ele><time>2021-02-18T10:51:32Z</time><name>PT856</name></trkpt>
<trkpt lat="53.451284" lon="05.809891"><ele>9.7</ele><time>2021-02-18T10:51:34Z</time><name>PT857</name></trkpt>
<trkpt lat="53.451283" lon="05.809904"><ele>9.4</ele><time>2021-02-18T10:51:35Z</time><name>PT858</name></trkpt>
<trkpt lat="53.451283" lon="05.809917"><ele>9.3</ele><time>2021-02-18T10:51:35Z</time><name>PT859</name></trkpt>
<trkpt lat="53.451283" lon="05.809931"><ele>9.3</ele><time>2021-02-18T10:51:37Z</time><name>PT860</name></trkpt>
<trkpt lat="53.451282" lon="05.809942"><ele>9.4</ele><time>2021-02-18T10:51:38Z</time><name>PT861</name></trkpt>
<trkpt lat="53.451281" lon="05.809955"><ele>9.6</ele><time>2021-02-18T10:51:38Z</time><name>PT862</name></trkpt>
<trkpt lat="53.451277" lon="05.809967"><ele>10</ele><time>2021-02-18T10:51:40Z</time><name>PT863</name></trkpt>
<trkpt lat="53.451275" lon="05.809979"><ele>10.1</ele><time>2021-02-18T10:51:41Z</time><name>PT864</name></trkpt>
<trkpt lat="53.451275" lon="05.809990"><ele>10</ele><time>2021-02-18T10:51:41Z</time><name>PT865</name></trkpt>
<trkpt lat="53.451277" lon="05.810006"><ele>9.8</ele><time>2021-02-18T10:51:43Z</time><name>PT866</name></trkpt>
<trkpt lat="53.451278" lon="05.810018"><ele>9.5</ele><time>2021-02-18T10:51:44Z</time><name>PT867</name></trkpt>
<trkpt lat="53.451278" lon="05.810031"><ele>9.2</ele><time>2021-02-18T10:51:44Z</time><name>PT868</name></trkpt>
<trkpt lat="53.451279" lon="05.810043"><ele>9.1</ele><time>2021-02-18T10:51:46Z</time><name>PT869</name></trkpt>
<trkpt lat="53.451284" lon="05.810060"><ele>9.2</ele><time>2021-02-18T10:51:47Z</time><name>PT870</name></trkpt>
<trkpt lat="53.451286" lon="05.810074"><ele>9.2</ele><time>2021-02-18T10:51:47Z</time><name>PT871</name></trkpt>
<trkpt lat="53.451288" lon="05.810087"><ele>9.5</ele><time>2021-02-18T10:51:49Z</time><name>PT872</name></trkpt>
<trkpt lat="53.451288" lon="05.810100"><ele>9.5</ele><time>2021-02-18T10:51:50Z</time><name>PT873</name></trkpt>
<trkpt lat="53.451288" lon="05.810114"><ele>9.5</ele><time>2021-02-18T10:51:50Z</time><name>PT874</name></trkpt>
<trkpt lat="53.451292" lon="05.810126"><ele>9.2</ele><time>2021-02-18T10:51:52Z</time><name>PT875</name></trkpt>
<trkpt lat="53.451297" lon="05.810132"><ele>9</ele><time>2021-02-18T10:51:53Z</time><name>PT876</name></trkpt>
<trkpt lat="53.451302" lon="05.810143"><ele>9</ele><time>2021-02-18T10:51:53Z</time><name>PT877</name></trkpt>
<trkpt lat="53.451306" lon="05.810157"><ele>8.9</ele><time>2021-02-18T10:51:55Z</time><name>PT878</name></trkpt>
<trkpt lat="53.451310" lon="05.810169"><ele>9.2</ele><time>2021-02-18T10:51:56Z</time><name>PT879</name></trkpt>
<trkpt lat="53.451312" lon="05.810186"><ele>9.2</ele><time>2021-02-18T10:51:56Z</time><name>PT880</name></trkpt>
<trkpt lat="53.451314" lon="05.810204"><ele>9.2</ele><time>2021-02-18T10:51:58Z</time><name>PT881</name></trkpt>
<trkpt lat="53.451318" lon="05.810223"><ele>9.3</ele><time>2021-02-18T10:51:59Z</time><name>PT882</name></trkpt>
<trkpt lat="53.451319" lon="05.810237"><ele>9.3</ele><time>2021-02-18T10:51:59Z</time><name>PT883</name></trkpt>
<trkpt lat="53.451321" lon="05.810253"><ele>9.4</ele><time>2021-02-18T10:52:01Z</time><name>PT884</name></trkpt>
<trkpt lat="53.451322" lon="05.810269"><ele>9.4</ele><time>2021-02-18T10:52:02Z</time><name>PT885</name></trkpt>
<trkpt lat="53.451322" lon="05.810286"><ele>9.3</ele><time>2021-02-18T10:52:02Z</time><name>PT886</name></trkpt>
<trkpt lat="53.451322" lon="05.810301"><ele>9.3</ele><time>2021-02-18T10:52:04Z</time><name>PT887</name></trkpt>
<trkpt lat="53.451321" lon="05.810320"><ele>9.2</ele><time>2021-02-18T10:52:05Z</time><name>PT888</name></trkpt>
<trkpt lat="53.451321" lon="05.810336"><ele>9.3</ele><time>2021-02-18T10:52:05Z</time><name>PT889</name></trkpt>
<trkpt lat="53.451324" lon="05.810354"><ele>9.5</ele><time>2021-02-18T10:52:07Z</time><name>PT890</name></trkpt>
<trkpt lat="53.451327" lon="05.810373"><ele>9.5</ele><time>2021-02-18T10:52:08Z</time><name>PT891</name></trkpt>
<trkpt lat="53.451334" lon="05.810389"><ele>9.5</ele><time>2021-02-18T10:52:08Z</time><name>PT892</name></trkpt>
<trkpt lat="53.451338" lon="05.810407"><ele>9.2</ele><time>2021-02-18T10:52:10Z</time><name>PT893</name></trkpt>
<trkpt lat="53.451341" lon="05.810423"><ele>9.1</ele><time>2021-02-18T10:52:11Z</time><name>PT894</name></trkpt>
<trkpt lat="53.451345" lon="05.810440"><ele>9</ele><time>2021-02-18T10:52:11Z</time><name>PT895</name></trkpt>
<trkpt lat="53.451345" lon="05.810455"><ele>8.8</ele><time>2021-02-18T10:52:13Z</time><name>PT896</name></trkpt>
<trkpt lat="53.451342" lon="05.810470"><ele>9.2</ele><time>2021-02-18T10:52:14Z</time><name>PT897</name></trkpt>
<trkpt lat="53.451341" lon="05.810488"><ele>9.2</ele><time>2021-02-18T10:52:14Z</time><name>PT898</name></trkpt>
<trkpt lat="53.451341" lon="05.810506"><ele>9.2</ele><time>2021-02-18T10:52:16Z</time><name>PT899</name></trkpt>
<trkpt lat="53.451341" lon="05.810525"><ele>9.1</ele><time>2021-02-18T10:52:17Z</time><name>PT900</name></trkpt>
<trkpt lat="53.451340" lon="05.810543"><ele>8.8</ele><time>2021-02-18T10:52:17Z</time><name>PT901</name></trkpt>
<trkpt lat="53.451341" lon="05.810559"><ele>8.8</ele><time>2021-02-18T10:52:19Z</time><name>PT902</name></trkpt>
<trkpt lat="53.451344" lon="05.810579"><ele>9.2</ele><time>2021-02-18T10:52:20Z</time><name>PT903</name></trkpt>
<trkpt lat="53.451342" lon="05.810593"><ele>9.1</ele><time>2021-02-18T10:52:20Z</time><name>PT904</name></trkpt>
<trkpt lat="53.451342" lon="05.810609"><ele>9.3</ele><time>2021-02-18T10:52:22Z</time><name>PT905</name></trkpt>
<trkpt lat="53.451341" lon="05.810625"><ele>9.2</ele><time>2021-02-18T10:52:23Z</time><name>PT906</name></trkpt>
<trkpt lat="53.451342" lon="05.810642"><ele>9.3</ele><time>2021-02-18T10:52:23Z</time><name>PT907</name></trkpt>
<trkpt lat="53.451342" lon="05.810661"><ele>9.2</ele><time>2021-02-18T10:52:25Z</time><name>PT908</name></trkpt>
<trkpt lat="53.451342" lon="05.810680"><ele>9.3</ele><time>2021-02-18T10:52:26Z</time><name>PT909</name></trkpt>
<trkpt lat="53.451342" lon="05.810699"><ele>9.1</ele><time>2021-02-18T10:52:26Z</time><name>PT910</name></trkpt>
<trkpt lat="53.451343" lon="05.810717"><ele>8.9</ele><time>2021-02-18T10:52:28Z</time><name>PT911</name></trkpt>
<trkpt lat="53.451345" lon="05.810734"><ele>8.9</ele><time>2021-02-18T10:52:29Z</time><name>PT912</name></trkpt>
<trkpt lat="53.451348" lon="05.810752"><ele>8.7</ele><time>2021-02-18T10:52:29Z</time><name>PT913</name></trkpt>
<trkpt lat="53.451352" lon="05.810769"><ele>8.9</ele><time>2021-02-18T10:52:31Z</time><name>PT914</name></trkpt>
<trkpt lat="53.451356" lon="05.810783"><ele>8.9</ele><time>2021-02-18T10:52:32Z</time><name>PT915</name></trkpt>
<trkpt lat="53.451359" lon="05.810798"><ele>8.7</ele><time>2021-02-18T10:52:32Z</time><name>PT916</name></trkpt>
<trkpt lat="53.451359" lon="05.810815"><ele>8.8</ele><time>2021-02-18T10:52:34Z</time><name>PT917</name></trkpt>
<trkpt lat="53.451359" lon="05.810830"><ele>8.7</ele><time>2021-02-18T10:52:35Z</time><name>PT918</name></trkpt>
<trkpt lat="53.451362" lon="05.810843"><ele>8.7</ele><time>2021-02-18T10:52:35Z</time><name>PT919</name></trkpt>
<trkpt lat="53.451364" lon="05.810860"><ele>8.7</ele><time>2021-02-18T10:52:37Z</time><name>PT920</name></trkpt>
<trkpt lat="53.451364" lon="05.810879"><ele>8.7</ele><time>2021-02-18T10:52:38Z</time><name>PT921</name></trkpt>
<trkpt lat="53.451365" lon="05.810899"><ele>8.5</ele><time>2021-02-18T10:52:38Z</time><name>PT922</name></trkpt>
<trkpt lat="53.451365" lon="05.810918"><ele>8.7</ele><time>2021-02-18T10:52:40Z</time><name>PT923</name></trkpt>
<trkpt lat="53.451368" lon="05.810936"><ele>8.8</ele><time>2021-02-18T10:52:41Z</time><name>PT924</name></trkpt>
<trkpt lat="53.451363" lon="05.810949"><ele>9</ele><time>2021-02-18T10:52:41Z</time><name>PT925</name></trkpt>
<trkpt lat="53.451368" lon="05.810967"><ele>9.2</ele><time>2021-02-18T10:52:43Z</time><name>PT926</name></trkpt>
<trkpt lat="53.451370" lon="05.810983"><ele>9.4</ele><time>2021-02-18T10:52:44Z</time><name>PT927</name></trkpt>
<trkpt lat="53.451372" lon="05.811000"><ele>9.4</ele><time>2021-02-18T10:52:44Z</time><name>PT928</name></trkpt>
<trkpt lat="53.451372" lon="05.811017"><ele>9.2</ele><time>2021-02-18T10:52:46Z</time><name>PT929</name></trkpt>
<trkpt lat="53.451373" lon="05.811035"><ele>9.3</ele><time>2021-02-18T10:52:47Z</time><name>PT930</name></trkpt>
<trkpt lat="53.451371" lon="05.811049"><ele>9.5</ele><time>2021-02-18T10:52:47Z</time><name>PT931</name></trkpt>
<trkpt lat="53.451372" lon="05.811067"><ele>9.6</ele><time>2021-02-18T10:52:49Z</time><name>PT932</name></trkpt>
<trkpt lat="53.451372" lon="05.811085"><ele>9.6</ele><time>2021-02-18T10:52:50Z</time><name>PT933</name></trkpt>
<trkpt lat="53.451376" lon="05.811104"><ele>9.5</ele><time>2021-02-18T10:52:50Z</time><name>PT934</name></trkpt>
<trkpt lat="53.451375" lon="05.811124"><ele>9.2</ele><time>2021-02-18T10:52:52Z</time><name>PT935</name></trkpt>
<trkpt lat="53.451376" lon="05.811142"><ele>9</ele><time>2021-02-18T10:52:53Z</time><name>PT936</name></trkpt>
<trkpt lat="53.451377" lon="05.811157"><ele>9</ele><time>2021-02-18T10:52:53Z</time><name>PT937</name></trkpt>
<trkpt lat="53.451379" lon="05.811172"><ele>9.1</ele><time>2021-02-18T10:52:55Z</time><name>PT938</name></trkpt>
<trkpt lat="53.451384" lon="05.811184"><ele>9.1</ele><time>2021-02-18T10:52:56Z</time><name>PT939</name></trkpt>
<trkpt lat="53.451386" lon="05.811201"><ele>9.1</ele><time>2021-02-18T10:52:56Z</time><name>PT940</name></trkpt>
<trkpt lat="53.451392" lon="05.811211"><ele>9</ele><time>2021-02-18T10:52:58Z</time><name>PT941</name></trkpt>
<trkpt lat="53.451398" lon="05.811218"><ele>8.7</ele><time>2021-02-18T10:52:59Z</time><name>PT942</name></trkpt>
<trkpt lat="53.451401" lon="05.811226"><ele>8.8</ele><time>2021-02-18T10:52:59Z</time><name>PT943</name></trkpt>
<trkpt lat="53.451403" lon="05.811239"><ele>9</ele><time>2021-02-18T10:53:01Z</time><name>PT944</name></trkpt>
<trkpt lat="53.451403" lon="05.811252"><ele>9.2</ele><time>2021-02-18T10:53:02Z</time><name>PT945</name></trkpt>
<trkpt lat="53.451402" lon="05.811268"><ele>9.2</ele><time>2021-02-18T10:53:02Z</time><name>PT946</name></trkpt>
<trkpt lat="53.451401" lon="05.811281"><ele>9.3</ele><time>2021-02-18T10:53:04Z</time><name>PT947</name></trkpt>
<trkpt lat="53.451402" lon="05.811293"><ele>9.1</ele><time>2021-02-18T10:53:05Z</time><name>PT948</name></trkpt>
<trkpt lat="53.451402" lon="05.811307"><ele>9</ele><time>2021-02-18T10:53:05Z</time><name>PT949</name></trkpt>
<trkpt lat="53.451399" lon="05.811322"><ele>8.9</ele><time>2021-02-18T10:53:07Z</time><name>PT950</name></trkpt>
<trkpt lat="53.451395" lon="05.811335"><ele>8.7</ele><time>2021-02-18T10:53:08Z</time><name>PT951</name></trkpt>
<trkpt lat="53.451395" lon="05.811350"><ele>8.6</ele><time>2021-02-18T10:53:08Z</time><name>PT952</name></trkpt>
<trkpt lat="53.451394" lon="05.811367"><ele>8.7</ele><time>2021-02-18T10:53:10Z</time><name>PT953</name></trkpt>
<trkpt lat="53.451396" lon="05.811385"><ele>8.7</ele><time>2021-02-18T10:53:11Z</time><name>PT954</name></trkpt>
<trkpt lat="53.451397" lon="05.811400"><ele>8.7</ele><time>2021-02-18T10:53:11Z</time><name>PT955</name></trkpt>
<trkpt lat="53.451397" lon="05.811415"><ele>9</ele><time>2021-02-18T10:53:13Z</time><name>PT956</name></trkpt>
<trkpt lat="53.451399" lon="05.811429"><ele>9.2</ele><time>2021-02-18T10:53:14Z</time><name>PT957</name></trkpt>
<trkpt lat="53.451400" lon="05.811445"><ele>9.2</ele><time>2021-02-18T10:53:14Z</time><name>PT958</name></trkpt>
<trkpt lat="53.451401" lon="05.811462"><ele>9.2</ele><time>2021-02-18T10:53:16Z</time><name>PT959</name></trkpt>
<trkpt lat="53.451402" lon="05.811480"><ele>9.2</ele><time>2021-02-18T10:53:17Z</time><name>PT960</name></trkpt>
<trkpt lat="53.451408" lon="05.811495"><ele>9.2</ele><time>2021-02-18T10:53:17Z</time><name>PT961</name></trkpt>
<trkpt lat="53.451411" lon="05.811512"><ele>9</ele><time>2021-02-18T10:53:19Z</time><name>PT962</name></trkpt>
<trkpt lat="53.451412" lon="05.811529"><ele>9</ele><time>2021-02-18T10:53:20Z</time><name>PT963</name></trkpt>
<trkpt lat="53.451413" lon="05.811544"><ele>8.7</ele><time>2021-02-18T10:53:20Z</time><name>PT964</name></trkpt>
<trkpt lat="53.451414" lon="05.811561"><ele>8.5</ele><time>2021-02-18T10:53:22Z</time><name>PT965</name></trkpt>
<trkpt lat="53.451415" lon="05.811576"><ele>8.6</ele><time>2021-02-18T10:53:23Z</time><name>PT966</name></trkpt>
<trkpt lat="53.451412" lon="05.811594"><ele>8.7</ele><time>2021-02-18T10:53:23Z</time><name>PT967</name></trkpt>
<trkpt lat="53.451412" lon="05.811612"><ele>8.9</ele><time>2021-02-18T10:53:25Z</time><name>PT968</name></trkpt>
<trkpt lat="53.451410" lon="05.811632"><ele>8.8</ele><time>2021-02-18T10:53:26Z</time><name>PT969</name></trkpt>
<trkpt lat="53.451409" lon="05.811651"><ele>8.8</ele><time>2021-02-18T10:53:26Z</time><name>PT970</name></trkpt>
<trkpt lat="53.451407" lon="05.811671"><ele>8.9</ele><time>2021-02-18T10:53:28Z</time><name>PT971</name></trkpt>
<trkpt lat="53.451406" lon="05.811691"><ele>8.9</ele><time>2021-02-18T10:53:29Z</time><name>PT972</name></trkpt>
<trkpt lat="53.451407" lon="05.811710"><ele>9</ele><time>2021-02-18T10:53:29Z</time><name>PT973</name></trkpt>
<trkpt lat="53.451408" lon="05.811730"><ele>9.1</ele><time>2021-02-18T10:53:31Z</time><name>PT974</name></trkpt>
<trkpt lat="53.451408" lon="05.811747"><ele>9.2</ele><time>2021-02-18T10:53:32Z</time><name>PT975</name></trkpt>
<trkpt lat="53.451408" lon="05.811763"><ele>9.2</ele><time>2021-02-18T10:53:32Z</time><name>PT976</name></trkpt>
<trkpt lat="53.451409" lon="05.811780"><ele>8.7</ele><time>2021-02-18T10:53:34Z</time><name>PT977</name></trkpt>
<trkpt lat="53.451407" lon="05.811793"><ele>8.6</ele><time>2021-02-18T10:53:35Z</time><name>PT978</name></trkpt>
<trkpt lat="53.451407" lon="05.811808"><ele>8.5</ele><time>2021-02-18T10:53:35Z</time><name>PT979</name></trkpt>
<trkpt lat="53.451408" lon="05.811828"><ele>8.3</ele><time>2021-02-18T10:53:37Z</time><name>PT980</name></trkpt>
<trkpt lat="53.451408" lon="05.811845"><ele>8.5</ele><time>2021-02-18T10:53:38Z</time><name>PT981</name></trkpt>
<trkpt lat="53.451405" lon="05.811858"><ele>8.3</ele><time>2021-02-18T10:53:38Z</time><name>PT982</name></trkpt>
<trkpt lat="53.451402" lon="05.811874"><ele>8</ele><time>2021-02-18T10:53:40Z</time><name>PT983</name></trkpt>
<trkpt lat="53.451404" lon="05.811889"><ele>7.8</ele><time>2021-02-18T10:53:41Z</time><name>PT984</name></trkpt>
<trkpt lat="53.451405" lon="05.811904"><ele>7.7</ele><time>2021-02-18T10:53:41Z</time><name>PT985</name></trkpt>
<trkpt lat="53.451407" lon="05.811918"><ele>7.7</ele><time>2021-02-18T10:53:43Z</time><name>PT986</name></trkpt>
<trkpt lat="53.451408" lon="05.811935"><ele>7.7</ele><time>2021-02-18T10:53:44Z</time><name>PT987</name></trkpt>
<trkpt lat="53.451407" lon="05.811956"><ele>7.8</ele><time>2021-02-18T10:53:44Z</time><name>PT988</name></trkpt>
<trkpt lat="53.451407" lon="05.811976"><ele>7.7</ele><time>2021-02-18T10:53:46Z</time><name>PT989</name></trkpt>
<trkpt lat="53.451408" lon="05.812000"><ele>7.8</ele><time>2021-02-18T10:53:47Z</time><name>PT990</name></trkpt>
<trkpt lat="53.451413" lon="05.812025"><ele>8</ele><time>2021-02-18T10:53:47Z</time><name>PT991</name></trkpt>
<trkpt lat="53.451416" lon="05.812040"><ele>8.2</ele><time>2021-02-18T10:53:49Z</time><name>PT992</name></trkpt>
<trkpt lat="53.451419" lon="05.812057"><ele>8.7</ele><time>2021-02-18T10:53:50Z</time><name>PT993</name></trkpt>
<trkpt lat="53.451420" lon="05.812076"><ele>8.7</ele><time>2021-02-18T10:53:50Z</time><name>PT994</name></trkpt>
<trkpt lat="53.451420" lon="05.812093"><ele>8.7</ele><time>2021-02-18T10:53:52Z</time><name>PT995</name></trkpt>
<trkpt lat="53.451421" lon="05.812111"><ele>8.8</ele><time>2021-02-18T10:53:53Z</time><name>PT996</name></trkpt>
<trkpt lat="53.451420" lon="05.812131"><ele>8.7</ele><time>2021-02-18T10:53:53Z</time><name>PT997</name></trkpt>
<trkpt lat="53.451420" lon="05.812149"><ele>8.7</ele><time>2021-02-18T10:53:55Z</time><name>PT998</name></trkpt>
<trkpt lat="53.451421" lon="05.812168"><ele>8.7</ele><time>2021-02-18T10:53:56Z</time><name>PT999</name></trkpt>
<trkpt lat="53.451422" lon="05.812186"><ele>8.7</ele><time>2021-02-18T10:53:56Z</time><name>PT1000</name></trkpt>
<trkpt lat="53.451422" lon="05.812204"><ele>8.8</ele><time>2021-02-18T10:53:58Z</time><name>PT1001</name></trkpt>
<trkpt lat="53.451423" lon="05.812222"><ele>9</ele><time>2021-02-18T10:53:59Z</time><name>PT1002</name></trkpt>
<trkpt lat="53.451424" lon="05.812237"><ele>9.2</ele><time>2021-02-18T10:53:59Z</time><name>PT1003</name></trkpt>
<trkpt lat="53.451425" lon="05.812253"><ele>9.1</ele><time>2021-02-18T10:54:01Z</time><name>PT1004</name></trkpt>
<trkpt lat="53.451425" lon="05.812268"><ele>9.1</ele><time>2021-02-18T10:54:02Z</time><name>PT1005</name></trkpt>
<trkpt lat="53.451425" lon="05.812286"><ele>9.1</ele><time>2021-02-18T10:54:02Z</time><name>PT1006</name></trkpt>
<trkpt lat="53.451423" lon="05.812306"><ele>9.2</ele><time>2021-02-18T10:54:04Z</time><name>PT1007</name></trkpt>
<trkpt lat="53.451421" lon="05.812324"><ele>9.3</ele><time>2021-02-18T10:54:05Z</time><name>PT1008</name></trkpt>
<trkpt lat="53.451421" lon="05.812344"><ele>9.3</ele><time>2021-02-18T10:54:05Z</time><name>PT1009</name></trkpt>
<trkpt lat="53.451423" lon="05.812364"><ele>9.2</ele><time>2021-02-18T10:54:07Z</time><name>PT1010</name></trkpt>
<trkpt lat="53.451424" lon="05.812383"><ele>9</ele><time>2021-02-18T10:54:08Z</time><name>PT1011</name></trkpt>
<trkpt lat="53.451423" lon="05.812398"><ele>9</ele><time>2021-02-18T10:54:08Z</time><name>PT1012</name></trkpt>
<trkpt lat="53.451421" lon="05.812416"><ele>9.1</ele><time>2021-02-18T10:54:10Z</time><name>PT1013</name></trkpt>
<trkpt lat="53.451420" lon="05.812435"><ele>9.4</ele><time>2021-02-18T10:54:11Z</time><name>PT1014</name></trkpt>
<trkpt lat="53.451419" lon="05.812454"><ele>9.7</ele><time>2021-02-18T10:54:11Z</time><name>PT1015</name></trkpt>
<trkpt lat="53.451418" lon="05.812474"><ele>9.4</ele><time>2021-02-18T10:54:13Z</time><name>PT1016</name></trkpt>
<trkpt lat="53.451419" lon="05.812492"><ele>9.2</ele><time>2021-02-18T10:54:14Z</time><name>PT1017</name></trkpt>
<trkpt lat="53.451421" lon="05.812510"><ele>9.2</ele><time>2021-02-18T10:54:14Z</time><name>PT1018</name></trkpt>
<trkpt lat="53.451423" lon="05.812526"><ele>9</ele><time>2021-02-18T10:54:16Z</time><name>PT1019</name></trkpt>
<trkpt lat="53.451424" lon="05.812544"><ele>8.8</ele><time>2021-02-18T10:54:17Z</time><name>PT1020</name></trkpt>
<trkpt lat="53.451424" lon="05.812561"><ele>8.7</ele><time>2021-02-18T10:54:17Z</time><name>PT1021</name></trkpt>
<trkpt lat="53.451426" lon="05.812578"><ele>8.7</ele><time>2021-02-18T10:54:19Z</time><name>PT1022</name></trkpt>
<trkpt lat="53.451425" lon="05.812596"><ele>8.7</ele><time>2021-02-18T10:54:20Z</time><name>PT1023</name></trkpt>
<trkpt lat="53.451424" lon="05.812617"><ele>9</ele><time>2021-02-18T10:54:20Z</time><name>PT1024</name></trkpt>
<trkpt lat="53.451423" lon="05.812638"><ele>9.2</ele><time>2021-02-18T10:54:22Z</time><name>PT1025</name></trkpt>
<trkpt lat="53.451423" lon="05.812655"><ele>9.3</ele><time>2021-02-18T10:54:23Z</time><name>PT1026</name></trkpt>
<trkpt lat="53.451423" lon="05.812671"><ele>9.3</ele><time>2021-02-18T10:54:23Z</time><name>PT1027</name></trkpt>
<trkpt lat="53.451423" lon="05.812689"><ele>9.2</ele><time>2021-02-18T10:54:25Z</time><name>PT1028</name></trkpt>
<trkpt lat="53.451423" lon="05.812704"><ele>9.4</ele><time>2021-02-18T10:54:26Z</time><name>PT1029</name></trkpt>
<trkpt lat="53.451422" lon="05.812723"><ele>9.5</ele><time>2021-02-18T10:54:26Z</time><name>PT1030</name></trkpt>
<trkpt lat="53.451422" lon="05.812743"><ele>9.4</ele><time>2021-02-18T10:54:28Z</time><name>PT1031</name></trkpt>
<trkpt lat="53.451422" lon="05.812761"><ele>9.3</ele><time>2021-02-18T10:54:29Z</time><name>PT1032</name></trkpt>
<trkpt lat="53.451422" lon="05.812778"><ele>9.2</ele><time>2021-02-18T10:54:29Z</time><name>PT1033</name></trkpt>
<trkpt lat="53.451424" lon="05.812796"><ele>9.2</ele><time>2021-02-18T10:54:31Z</time><name>PT1034</name></trkpt>
<trkpt lat="53.451424" lon="05.812813"><ele>9.1</ele><time>2021-02-18T10:54:32Z</time><name>PT1035</name></trkpt>
<trkpt lat="53.451424" lon="05.812833"><ele>9.2</ele><time>2021-02-18T10:54:32Z</time><name>PT1036</name></trkpt>
<trkpt lat="53.451424" lon="05.812850"><ele>9.2</ele><time>2021-02-18T10:54:34Z</time><name>PT1037</name></trkpt>
<trkpt lat="53.451423" lon="05.812867"><ele>9.2</ele><time>2021-02-18T10:54:35Z</time><name>PT1038</name></trkpt>
<trkpt lat="53.451423" lon="05.812884"><ele>9.2</ele><time>2021-02-18T10:54:35Z</time><name>PT1039</name></trkpt>
<trkpt lat="53.451422" lon="05.812901"><ele>9.5</ele><time>2021-02-18T10:54:37Z</time><name>PT1040</name></trkpt>
<trkpt lat="53.451420" lon="05.812920"><ele>9.5</ele><time>2021-02-18T10:54:38Z</time><name>PT1041</name></trkpt>
<trkpt lat="53.451420" lon="05.812939"><ele>9.4</ele><time>2021-02-18T10:54:38Z</time><name>PT1042</name></trkpt>
<trkpt lat="53.451420" lon="05.812957"><ele>9.4</ele><time>2021-02-18T10:54:40Z</time><name>PT1043</name></trkpt>
<trkpt lat="53.451422" lon="05.812976"><ele>9.2</ele><time>2021-02-18T10:54:41Z</time><name>PT1044</name></trkpt>
<trkpt lat="53.451424" lon="05.812992"><ele>9.2</ele><time>2021-02-18T10:54:41Z</time><name>PT1045</name></trkpt>
<trkpt lat="53.451429" lon="05.813006"><ele>9.2</ele><time>2021-02-18T10:54:43Z</time><name>PT1046</name></trkpt>
<trkpt lat="53.451432" lon="05.813021"><ele>9.3</ele><time>2021-02-18T10:54:44Z</time><name>PT1047</name></trkpt>
<trkpt lat="53.451432" lon="05.813038"><ele>9.4</ele><time>2021-02-18T10:54:44Z</time><name>PT1048</name></trkpt>
<trkpt lat="53.451431" lon="05.813056"><ele>9.4</ele><time>2021-02-18T10:54:46Z</time><name>PT1049</name></trkpt>
<trkpt lat="53.451432" lon="05.813078"><ele>9.6</ele><time>2021-02-18T10:54:47Z</time><name>PT1050</name></trkpt>
<trkpt lat="53.451435" lon="05.813099"><ele>9.4</ele><time>2021-02-18T10:54:47Z</time><name>PT1051</name></trkpt>
<trkpt lat="53.451438" lon="05.813118"><ele>9.5</ele><time>2021-02-18T10:54:49Z</time><name>PT1052</name></trkpt>
<trkpt lat="53.451438" lon="05.813138"><ele>9.6</ele><time>2021-02-18T10:54:50Z</time><name>PT1053</name></trkpt>
<trkpt lat="53.451437" lon="05.813159"><ele>9.6</ele><time>2021-02-18T10:54:50Z</time><name>PT1054</name></trkpt>
<trkpt lat="53.451437" lon="05.813181"><ele>9.6</ele><time>2021-02-18T10:54:52Z</time><name>PT1055</name></trkpt>
<trkpt lat="53.451439" lon="05.813199"><ele>9.7</ele><time>2021-02-18T10:54:53Z</time><name>PT1056</name></trkpt>
<trkpt lat="53.451435" lon="05.813221"><ele>9.5</ele><time>2021-02-18T10:54:53Z</time><name>PT1057</name></trkpt>
<trkpt lat="53.451433" lon="05.813242"><ele>9.3</ele><time>2021-02-18T10:54:55Z</time><name>PT1058</name></trkpt>
<trkpt lat="53.451432" lon="05.813261"><ele>9.3</ele><time>2021-02-18T10:54:56Z</time><name>PT1059</name></trkpt>
<trkpt lat="53.451430" lon="05.813280"><ele>9.4</ele><time>2021-02-18T10:54:56Z</time><name>PT1060</name></trkpt>
<trkpt lat="53.451432" lon="05.813300"><ele>9.5</ele><time>2021-02-18T10:54:58Z</time><name>PT1061</name></trkpt>
<trkpt lat="53.451433" lon="05.813321"><ele>9.9</ele><time>2021-02-18T10:54:59Z</time><name>PT1062</name></trkpt>
<trkpt lat="53.451432" lon="05.813341"><ele>9.9</ele><time>2021-02-18T10:54:59Z</time><name>PT1063</name></trkpt>
<trkpt lat="53.451433" lon="05.813365"><ele>9.7</ele><time>2021-02-18T10:55:01Z</time><name>PT1064</name></trkpt>
<trkpt lat="53.451433" lon="05.813391"><ele>9.5</ele><time>2021-02-18T10:55:02Z</time><name>PT1065</name></trkpt>
<trkpt lat="53.451430" lon="05.813417"><ele>9.5</ele><time>2021-02-18T10:55:02Z</time><name>PT1066</name></trkpt>
<trkpt lat="53.451428" lon="05.813442"><ele>9.6</ele><time>2021-02-18T10:55:04Z</time><name>PT1067</name></trkpt>
<trkpt lat="53.451428" lon="05.813464"><ele>9.4</ele><time>2021-02-18T10:55:05Z</time><name>PT1068</name></trkpt>
<trkpt lat="53.451428" lon="05.813483"><ele>9.7</ele><time>2021-02-18T10:55:05Z</time><name>PT1069</name></trkpt>
<trkpt lat="53.451426" lon="05.813502"><ele>9.7</ele><time>2021-02-18T10:55:07Z</time><name>PT1070</name></trkpt>
<trkpt lat="53.451425" lon="05.813523"><ele>9.5</ele><time>2021-02-18T10:55:08Z</time><name>PT1071</name></trkpt>
<trkpt lat="53.451425" lon="05.813543"><ele>9.5</ele><time>2021-02-18T10:55:08Z</time><name>PT1072</name></trkpt>
<trkpt lat="53.451426" lon="05.813566"><ele>9.3</ele><time>2021-02-18T10:55:10Z</time><name>PT1073</name></trkpt>
<trkpt lat="53.451427" lon="05.813591"><ele>9.2</ele><time>2021-02-18T10:55:11Z</time><name>PT1074</name></trkpt>
<trkpt lat="53.451427" lon="05.813613"><ele>9.1</ele><time>2021-02-18T10:55:11Z</time><name>PT1075</name></trkpt>
<trkpt lat="53.451426" lon="05.813634"><ele>9.1</ele><time>2021-02-18T10:55:13Z</time><name>PT1076</name></trkpt>
<trkpt lat="53.451424" lon="05.813654"><ele>9.2</ele><time>2021-02-18T10:55:14Z</time><name>PT1077</name></trkpt>
<trkpt lat="53.451423" lon="05.813675"><ele>9.2</ele><time>2021-02-18T10:55:14Z</time><name>PT1078</name></trkpt>
<trkpt lat="53.451421" lon="05.813693"><ele>9.2</ele><time>2021-02-18T10:55:16Z</time><name>PT1079</name></trkpt>
<trkpt lat="53.451419" lon="05.813714"><ele>9.2</ele><time>2021-02-18T10:55:17Z</time><name>PT1080</name></trkpt>
<trkpt lat="53.451418" lon="05.813733"><ele>9.4</ele><time>2021-02-18T10:55:17Z</time><name>PT1081</name></trkpt>
<trkpt lat="53.451414" lon="05.813751"><ele>9.2</ele><time>2021-02-18T10:55:19Z</time><name>PT1082</name></trkpt>
<trkpt lat="53.451413" lon="05.813770"><ele>9.2</ele><time>2021-02-18T10:55:20Z</time><name>PT1083</name></trkpt>
<trkpt lat="53.451413" lon="05.813789"><ele>9.1</ele><time>2021-02-18T10:55:20Z</time><name>PT1084</name></trkpt>
<trkpt lat="53.451410" lon="05.813808"><ele>9</ele><time>2021-02-18T10:55:22Z</time><name>PT1085</name></trkpt>
<trkpt lat="53.451406" lon="05.813825"><ele>8.9</ele><time>2021-02-18T10:55:23Z</time><name>PT1086</name></trkpt>
<trkpt lat="53.451405" lon="05.813846"><ele>9</ele><time>2021-02-18T10:55:23Z</time><name>PT1087</name></trkpt>
<trkpt lat="53.451403" lon="05.813866"><ele>9.1</ele><time>2021-02-18T10:55:25Z</time><name>PT1088</name></trkpt>
<trkpt lat="53.451403" lon="05.813887"><ele>9.2</ele><time>2021-02-18T10:55:26Z</time><name>PT1089</name></trkpt>
<trkpt lat="53.451402" lon="05.813906"><ele>9.3</ele><time>2021-02-18T10:55:26Z</time><name>PT1090</name></trkpt>
<trkpt lat="53.451402" lon="05.813928"><ele>9.1</ele><time>2021-02-18T10:55:28Z</time><name>PT1091</name></trkpt>
<trkpt lat="53.451401" lon="05.813948"><ele>9</ele><time>2021-02-18T10:55:29Z</time><name>PT1092</name></trkpt>
<trkpt lat="53.451399" lon="05.813969"><ele>8.9</ele><time>2021-02-18T10:55:29Z</time><name>PT1093</name></trkpt>
<trkpt lat="53.451398" lon="05.813987"><ele>8.7</ele><time>2021-02-18T10:55:31Z</time><name>PT1094</name></trkpt>
<trkpt lat="53.451396" lon="05.814005"><ele>8.8</ele><time>2021-02-18T10:55:32Z</time><name>PT1095</name></trkpt>
<trkpt lat="53.451394" lon="05.814022"><ele>8.8</ele><time>2021-02-18T10:55:32Z</time><name>PT1096</name></trkpt>
<trkpt lat="53.451391" lon="05.814039"><ele>9.2</ele><time>2021-02-18T10:55:34Z</time><name>PT1097</name></trkpt>
<trkpt lat="53.451387" lon="05.814060"><ele>9.5</ele><time>2021-02-18T10:55:35Z</time><name>PT1098</name></trkpt>
<trkpt lat="53.451384" lon="05.814081"><ele>9.4</ele><time>2021-02-18T10:55:35Z</time><name>PT1099</name></trkpt>
<trkpt lat="53.451381" lon="05.814102"><ele>9.3</ele><time>2021-02-18T10:55:37Z</time><name>PT1100</name></trkpt>
<trkpt lat="53.451377" lon="05.814121"><ele>9.3</ele><time>2021-02-18T10:55:38Z</time><name>PT1101</name></trkpt>
<trkpt lat="53.451376" lon="05.814139"><ele>9.5</ele><time>2021-02-18T10:55:38Z</time><name>PT1102</name></trkpt>
<trkpt lat="53.451375" lon="05.814157"><ele>9.7</ele><time>2021-02-18T10:55:40Z</time><name>PT1103</name></trkpt>
<trkpt lat="53.451371" lon="05.814170"><ele>9.9</ele><time>2021-02-18T10:55:41Z</time><name>PT1104</name></trkpt>
<trkpt lat="53.451365" lon="05.814184"><ele>10.2</ele><time>2021-02-18T10:55:41Z</time><name>PT1105</name></trkpt>
<trkpt lat="53.451363" lon="05.814201"><ele>10</ele><time>2021-02-18T10:55:43Z</time><name>PT1106</name></trkpt>
<trkpt lat="53.451362" lon="05.814220"><ele>10</ele><time>2021-02-18T10:55:44Z</time><name>PT1107</name></trkpt>
<trkpt lat="53.451361" lon="05.814237"><ele>10.1</ele><time>2021-02-18T10:55:44Z</time><name>PT1108</name></trkpt>
<trkpt lat="53.451360" lon="05.814253"><ele>10</ele><time>2021-02-18T10:55:46Z</time><name>PT1109</name></trkpt>
<trkpt lat="53.451358" lon="05.814268"><ele>9.8</ele><time>2021-02-18T10:55:47Z</time><name>PT1110</name></trkpt>
<trkpt lat="53.451356" lon="05.814283"><ele>9.9</ele><time>2021-02-18T10:55:47Z</time><name>PT1111</name></trkpt>
<trkpt lat="53.451353" lon="05.814296"><ele>9.8</ele><time>2021-02-18T10:55:49Z</time><name>PT1112</name></trkpt>
<trkpt lat="53.451350" lon="05.814316"><ele>9.8</ele><time>2021-02-18T10:55:50Z</time><name>PT1113</name></trkpt>
<trkpt lat="53.451348" lon="05.814333"><ele>10</ele><time>2021-02-18T10:55:50Z</time><name>PT1114</name></trkpt>
<trkpt lat="53.451346" lon="05.814350"><ele>9.8</ele><time>2021-02-18T10:55:52Z</time><name>PT1115</name></trkpt>
<trkpt lat="53.451345" lon="05.814366"><ele>9.8</ele><time>2021-02-18T10:55:53Z</time><name>PT1116</name></trkpt>
<trkpt lat="53.451345" lon="05.814386"><ele>9.7</ele><time>2021-02-18T10:55:53Z</time><name>PT1117</name></trkpt>
<trkpt lat="53.451343" lon="05.814403"><ele>9.5</ele><time>2021-02-18T10:55:55Z</time><name>PT1118</name></trkpt>
<trkpt lat="53.451343" lon="05.814422"><ele>9.7</ele><time>2021-02-18T10:55:56Z</time><name>PT1119</name></trkpt>
<trkpt lat="53.451342" lon="05.814439"><ele>9.8</ele><time>2021-02-18T10:55:56Z</time><name>PT1120</name></trkpt>
<trkpt lat="53.451341" lon="05.814457"><ele>9.5</ele><time>2021-02-18T10:55:58Z</time><name>PT1121</name></trkpt>
<trkpt lat="53.451340" lon="05.814473"><ele>9.2</ele><time>2021-02-18T10:55:59Z</time><name>PT1122</name></trkpt>
<trkpt lat="53.451340" lon="05.814487"><ele>9.1</ele><time>2021-02-18T10:55:59Z</time><name>PT1123</name></trkpt>
<trkpt lat="53.451338" lon="05.814502"><ele>8.8</ele><time>2021-02-18T10:56:01Z</time><name>PT1124</name></trkpt>
<trkpt lat="53.451334" lon="05.814519"><ele>8.7</ele><time>2021-02-18T10:56:02Z</time><name>PT1125</name></trkpt>
<trkpt lat="53.451329" lon="05.814535"><ele>8.9</ele><time>2021-02-18T10:56:02Z</time><name>PT1126</name></trkpt>
<trkpt lat="53.451323" lon="05.814550"><ele>8.9</ele><time>2021-02-18T10:56:04Z</time><name>PT1127</name></trkpt>
<trkpt lat="53.451319" lon="05.814564"><ele>9.2</ele><time>2021-02-18T10:56:05Z</time><name>PT1128</name></trkpt>
<trkpt lat="53.451318" lon="05.814580"><ele>9.4</ele><time>2021-02-18T10:56:05Z</time><name>PT1129</name></trkpt>
<trkpt lat="53.451318" lon="05.814598"><ele>10</ele><time>2021-02-18T10:56:07Z</time><name>PT1130</name></trkpt>
<trkpt lat="53.451316" lon="05.814616"><ele>10.3</ele><time>2021-02-18T10:56:08Z</time><name>PT1131</name></trkpt>
<trkpt lat="53.451316" lon="05.814631"><ele>10.6</ele><time>2021-02-18T10:56:08Z</time><name>PT1132</name></trkpt>
<trkpt lat="53.451314" lon="05.814647"><ele>10.6</ele><time>2021-02-18T10:56:10Z</time><name>PT1133</name></trkpt>
<trkpt lat="53.451310" lon="05.814663"><ele>10.7</ele><time>2021-02-18T10:56:11Z</time><name>PT1134</name></trkpt>
<trkpt lat="53.451306" lon="05.814683"><ele>10.8</ele><time>2021-02-18T10:56:11Z</time><name>PT1135</name></trkpt>
<trkpt lat="53.451306" lon="05.814701"><ele>10.3</ele><time>2021-02-18T10:56:13Z</time><name>PT1136</name></trkpt>
<trkpt lat="53.451304" lon="05.814718"><ele>10</ele><time>2021-02-18T10:56:14Z</time><name>PT1137</name></trkpt>
<trkpt lat="53.451303" lon="05.814734"><ele>9.7</ele><time>2021-02-18T10:56:14Z</time><name>PT1138</name></trkpt>
<trkpt lat="53.451301" lon="05.814752"><ele>9.4</ele><time>2021-02-18T10:56:16Z</time><name>PT1139</name></trkpt>
<trkpt lat="53.451298" lon="05.814769"><ele>9.6</ele><time>2021-02-18T10:56:17Z</time><name>PT1140</name></trkpt>
<trkpt lat="53.451293" lon="05.814785"><ele>9.6</ele><time>2021-02-18T10:56:17Z</time><name>PT1141</name></trkpt>
<trkpt lat="53.451290" lon="05.814804"><ele>9.5</ele><time>2021-02-18T10:56:19Z</time><name>PT1142</name></trkpt>
<trkpt lat="53.451286" lon="05.814822"><ele>9.4</ele><time>2021-02-18T10:56:20Z</time><name>PT1143</name></trkpt>
<trkpt lat="53.451287" lon="05.814840"><ele>9.4</ele><time>2021-02-18T10:56:20Z</time><name>PT1144</name></trkpt>
<trkpt lat="53.451283" lon="05.814856"><ele>9.3</ele><time>2021-02-18T10:56:22Z</time><name>PT1145</name></trkpt>
<trkpt lat="53.451280" lon="05.814873"><ele>9.2</ele><time>2021-02-18T10:56:23Z</time><name>PT1146</name></trkpt>
<trkpt lat="53.451277" lon="05.814889"><ele>9.1</ele><time>2021-02-18T10:56:23Z</time><name>PT1147</name></trkpt>
<trkpt lat="53.451274" lon="05.814905"><ele>8.9</ele><time>2021-02-18T10:56:25Z</time><name>PT1148</name></trkpt>
<trkpt lat="53.451271" lon="05.814922"><ele>9</ele><time>2021-02-18T10:56:26Z</time><name>PT1149</name></trkpt>
<trkpt lat="53.451269" lon="05.814941"><ele>9.2</ele><time>2021-02-18T10:56:26Z</time><name>PT1150</name></trkpt>
<trkpt lat="53.451268" lon="05.814961"><ele>9.5</ele><time>2021-02-18T10:56:28Z</time><name>PT1151</name></trkpt>
<trkpt lat="53.451263" lon="05.814977"><ele>9.5</ele><time>2021-02-18T10:56:29Z</time><name>PT1152</name></trkpt>
<trkpt lat="53.451262" lon="05.814993"><ele>9.5</ele><time>2021-02-18T10:56:29Z</time><name>PT1153</name></trkpt>
<trkpt lat="53.451260" lon="05.815009"><ele>9.7</ele><time>2021-02-18T10:56:31Z</time><name>PT1154</name></trkpt>
<trkpt lat="53.451256" lon="05.815026"><ele>9.5</ele><time>2021-02-18T10:56:32Z</time><name>PT1155</name></trkpt>
<trkpt lat="53.451250" lon="05.815042"><ele>9.3</ele><time>2021-02-18T10:56:32Z</time><name>PT1156</name></trkpt>
<trkpt lat="53.451248" lon="05.815059"><ele>9.2</ele><time>2021-02-18T10:56:34Z</time><name>PT1157</name></trkpt>
<trkpt lat="53.451244" lon="05.815077"><ele>9.2</ele><time>2021-02-18T10:56:35Z</time><name>PT1158</name></trkpt>
<trkpt lat="53.451240" lon="05.815094"><ele>8.9</ele><time>2021-02-18T10:56:35Z</time><name>PT1159</name></trkpt>
<trkpt lat="53.451237" lon="05.815109"><ele>8.9</ele><time>2021-02-18T10:56:37Z</time><name>PT1160</name></trkpt>
<trkpt lat="53.451234" lon="05.815123"><ele>8.7</ele><time>2021-02-18T10:56:38Z</time><name>PT1161</name></trkpt>
<trkpt lat="53.451233" lon="05.815140"><ele>8.7</ele><time>2021-02-18T10:56:38Z</time><name>PT1162</name></trkpt>
<trkpt lat="53.451231" lon="05.815158"><ele>8.9</ele><time>2021-02-18T10:56:40Z</time><name>PT1163</name></trkpt>
<trkpt lat="53.451229" lon="05.815179"><ele>9.2</ele><time>2021-02-18T10:56:41Z</time><name>PT1164</name></trkpt>
<trkpt lat="53.451226" lon="05.815196"><ele>9.3</ele><time>2021-02-18T10:56:41Z</time><name>PT1165</name></trkpt>
<trkpt lat="53.451228" lon="05.815210"><ele>9.5</ele><time>2021-02-18T10:56:43Z</time><name>PT1166</name></trkpt>
<trkpt lat="53.451229" lon="05.815226"><ele>9.7</ele><time>2021-02-18T10:56:44Z</time><name>PT1167</name></trkpt>
<trkpt lat="53.451231" lon="05.815240"><ele>9.7</ele><time>2021-02-18T10:56:44Z</time><name>PT1168</name></trkpt>
<trkpt lat="53.451232" lon="05.815257"><ele>9.6</ele><time>2021-02-18T10:56:46Z</time><name>PT1169</name></trkpt>
<trkpt lat="53.451232" lon="05.815273"><ele>9.4</ele><time>2021-02-18T10:56:47Z</time><name>PT1170</name></trkpt>
<trkpt lat="53.451232" lon="05.815289"><ele>9.3</ele><time>2021-02-18T10:56:47Z</time><name>PT1171</name></trkpt>
<trkpt lat="53.451231" lon="05.815306"><ele>9.4</ele><time>2021-02-18T10:56:49Z</time><name>PT1172</name></trkpt>
<trkpt lat="53.451229" lon="05.815326"><ele>9.4</ele><time>2021-02-18T10:56:50Z</time><name>PT1173</name></trkpt>
<trkpt lat="53.451227" lon="05.815347"><ele>9.3</ele><time>2021-02-18T10:56:50Z</time><name>PT1174</name></trkpt>
<trkpt lat="53.451225" lon="05.815364"><ele>9.2</ele><time>2021-02-18T10:56:52Z</time><name>PT1175</name></trkpt>
<trkpt lat="53.451224" lon="05.815379"><ele>9.1</ele><time>2021-02-18T10:56:53Z</time><name>PT1176</name></trkpt>
<trkpt lat="53.451225" lon="05.815395"><ele>9.1</ele><time>2021-02-18T10:56:53Z</time><name>PT1177</name></trkpt>
<trkpt lat="53.451229" lon="05.815413"><ele>9.2</ele><time>2021-02-18T10:56:55Z</time><name>PT1178</name></trkpt>
<trkpt lat="53.451227" lon="05.815429"><ele>9.3</ele><time>2021-02-18T10:56:56Z</time><name>PT1179</name></trkpt>
<trkpt lat="53.451226" lon="05.815446"><ele>9.3</ele><time>2021-02-18T10:56:56Z</time><name>PT1180</name></trkpt>
<trkpt lat="53.451224" lon="05.815460"><ele>9.2</ele><time>2021-02-18T10:56:58Z</time><name>PT1181</name></trkpt>
<trkpt lat="53.451222" lon="05.815478"><ele>9.2</ele><time>2021-02-18T10:56:59Z</time><name>PT1182</name></trkpt>
<trkpt lat="53.451219" lon="05.815496"><ele>9.2</ele><time>2021-02-18T10:56:59Z</time><name>PT1183</name></trkpt>
<trkpt lat="53.451218" lon="05.815512"><ele>9.2</ele><time>2021-02-18T10:57:01Z</time><name>PT1184</name></trkpt>
<trkpt lat="53.451218" lon="05.815531"><ele>9.3</ele><time>2021-02-18T10:57:02Z</time><name>PT1185</name></trkpt>
<trkpt lat="53.451216" lon="05.815548"><ele>9.2</ele><time>2021-02-18T10:57:02Z</time><name>PT1186</name></trkpt>
<trkpt lat="53.451218" lon="05.815561"><ele>9.3</ele><time>2021-02-18T10:57:04Z</time><name>PT1187</name></trkpt>
<trkpt lat="53.451220" lon="05.815577"><ele>9.1</ele><time>2021-02-18T10:57:05Z</time><name>PT1188</name></trkpt>
<trkpt lat="53.451222" lon="05.815593"><ele>9</ele><time>2021-02-18T10:57:05Z</time><name>PT1189</name></trkpt>
<trkpt lat="53.451222" lon="05.815610"><ele>8.8</ele><time>2021-02-18T10:57:07Z</time><name>PT1190</name></trkpt>
<trkpt lat="53.451221" lon="05.815625"><ele>8.7</ele><time>2021-02-18T10:57:08Z</time><name>PT1191</name></trkpt>
<trkpt lat="53.451221" lon="05.815639"><ele>8.7</ele><time>2021-02-18T10:57:08Z</time><name>PT1192</name></trkpt>
<trkpt lat="53.451219" lon="05.815655"><ele>8.8</ele><time>2021-02-18T10:57:10Z</time><name>PT1193</name></trkpt>
<trkpt lat="53.451217" lon="05.815674"><ele>8.8</ele><time>2021-02-18T10:57:11Z</time><name>PT1194</name></trkpt>
<trkpt lat="53.451216" lon="05.815689"><ele>8.9</ele><time>2021-02-18T10:57:11Z</time><name>PT1195</name></trkpt>
<trkpt lat="53.451213" lon="05.815708"><ele>8.9</ele><time>2021-02-18T10:57:13Z</time><name>PT1196</name></trkpt>
<trkpt lat="53.451209" lon="05.815724"><ele>8.8</ele><time>2021-02-18T10:57:14Z</time><name>PT1197</name></trkpt>
<trkpt lat="53.451209" lon="05.815741"><ele>9</ele><time>2021-02-18T10:57:14Z</time><name>PT1198</name></trkpt>
<trkpt lat="53.451209" lon="05.815758"><ele>9.2</ele><time>2021-02-18T10:57:16Z</time><name>PT1199</name></trkpt>
<trkpt lat="53.451208" lon="05.815775"><ele>9.2</ele><time>2021-02-18T10:57:17Z</time><name>PT1200</name></trkpt>
<trkpt lat="53.451207" lon="05.815792"><ele>9.1</ele><time>2021-02-18T10:57:17Z</time><name>PT1201</name></trkpt>
<trkpt lat="53.451206" lon="05.815810"><ele>9</ele><time>2021-02-18T10:57:19Z</time><name>PT1202</name></trkpt>
<trkpt lat="53.451204" lon="05.815826"><ele>8.8</ele><time>2021-02-18T10:57:20Z</time><name>PT1203</name></trkpt>
<trkpt lat="53.451199" lon="05.815845"><ele>8.7</ele><time>2021-02-18T10:57:20Z</time><name>PT1204</name></trkpt>
<trkpt lat="53.451195" lon="05.815864"><ele>8.7</ele><time>2021-02-18T10:57:22Z</time><name>PT1205</name></trkpt>
<trkpt lat="53.451195" lon="05.815882"><ele>8.8</ele><time>2021-02-18T10:57:23Z</time><name>PT1206</name></trkpt>
<trkpt lat="53.451192" lon="05.815900"><ele>9.1</ele><time>2021-02-18T10:57:23Z</time><name>PT1207</name></trkpt>
<trkpt lat="53.451189" lon="05.815919"><ele>9.2</ele><time>2021-02-18T10:57:25Z</time><name>PT1208</name></trkpt>
<trkpt lat="53.451188" lon="05.815936"><ele>9.4</ele><time>2021-02-18T10:57:26Z</time><name>PT1209</name></trkpt>
<trkpt lat="53.451186" lon="05.815952"><ele>9.4</ele><time>2021-02-18T10:57:26Z</time><name>PT1210</name></trkpt>
<trkpt lat="53.451185" lon="05.815969"><ele>9.3</ele><time>2021-02-18T10:57:28Z</time><name>PT1211</name></trkpt>
<trkpt lat="53.451183" lon="05.815983"><ele>9.2</ele><time>2021-02-18T10:57:29Z</time><name>PT1212</name></trkpt>
<trkpt lat="53.451180" lon="05.815999"><ele>9.4</ele><time>2021-02-18T10:57:29Z</time><name>PT1213</name></trkpt>
<trkpt lat="53.451178" lon="05.816017"><ele>9.5</ele><time>2021-02-18T10:57:31Z</time><name>PT1214</name></trkpt>
<trkpt lat="53.451176" lon="05.816028"><ele>9.6</ele><time>2021-02-18T10:57:32Z</time><name>PT1215</name></trkpt>
<trkpt lat="53.451176" lon="05.816034"><ele>9.6</ele><time>2021-02-18T10:57:32Z</time><name>PT1216</name></trkpt>
<trkpt lat="53.451176" lon="05.816039"><ele>9.7</ele><time>2021-02-18T10:57:34Z</time><name>PT1217</name></trkpt>
<trkpt lat="53.451177" lon="05.816047"><ele>9.7</ele><time>2021-02-18T10:57:35Z</time><name>PT1218</name></trkpt>
<trkpt lat="53.451177" lon="05.816054"><ele>9.4</ele><time>2021-02-18T10:57:35Z</time><name>PT1219</name></trkpt>
<trkpt lat="53.451177" lon="05.816057"><ele>9.2</ele><time>2021-02-18T10:57:37Z</time><name>PT1220</name></trkpt>
<trkpt lat="53.451175" lon="05.816058"><ele>8.7</ele><time>2021-02-18T10:57:38Z</time><name>PT1221</name></trkpt>
<trkpt lat="53.451168" lon="05.816059"><ele>8.6</ele><time>2021-02-18T10:57:38Z</time><name>PT1222</name></trkpt>
<trkpt lat="53.451159" lon="05.816063"><ele>8.2</ele><time>2021-02-18T10:57:40Z</time><name>PT1223</name></trkpt>
<trkpt lat="53.451149" lon="05.816067"><ele>8</ele><time>2021-02-18T10:57:41Z</time><name>PT1224</name></trkpt>
<trkpt lat="53.451141" lon="05.816069"><ele>7.8</ele><time>2021-02-18T10:57:41Z</time><name>PT1225</name></trkpt>
<trkpt lat="53.451133" lon="05.816066"><ele>7.4</ele><time>2021-02-18T10:57:43Z</time><name>PT1226</name></trkpt>
<trkpt lat="53.451126" lon="05.816068"><ele>7.4</ele><time>2021-02-18T10:57:44Z</time><name>PT1227</name></trkpt>
<trkpt lat="53.451121" lon="05.816080"><ele>7.3</ele><time>2021-02-18T10:57:44Z</time><name>PT1228</name></trkpt>
<trkpt lat="53.451114" lon="05.816083"><ele>7.2</ele><time>2021-02-18T10:57:46Z</time><name>PT1229</name></trkpt>
<trkpt lat="53.451107" lon="05.816085"><ele>7.4</ele><time>2021-02-18T10:57:47Z</time><name>PT1230</name></trkpt>
<trkpt lat="53.451101" lon="05.816090"><ele>7.5</ele><time>2021-02-18T10:57:47Z</time><name>PT1231</name></trkpt>
<trkpt lat="53.451097" lon="05.816099"><ele>7.7</ele><time>2021-02-18T10:57:49Z</time><name>PT1232</name></trkpt>
<trkpt lat="53.451092" lon="05.816105"><ele>8</ele><time>2021-02-18T10:57:50Z</time><name>PT1233</name></trkpt>
<trkpt lat="53.451090" lon="05.816114"><ele>8.2</ele><time>2021-02-18T10:57:50Z</time><name>PT1234</name></trkpt>
<trkpt lat="53.451086" lon="05.816120"><ele>8.7</ele><time>2021-02-18T10:57:52Z</time><name>PT1235</name></trkpt>
<trkpt lat="53.451084" lon="05.816131"><ele>9.1</ele><time>2021-02-18T10:57:53Z</time><name>PT1236</name></trkpt>
<trkpt lat="53.451081" lon="05.816142"><ele>9.2</ele><time>2021-02-18T10:57:53Z</time><name>PT1237</name></trkpt>
<trkpt lat="53.451077" lon="05.816153"><ele>9.2</ele><time>2021-02-18T10:57:55Z</time><name>PT1238</name></trkpt>
<trkpt lat="53.451075" lon="05.816166"><ele>9.1</ele><time>2021-02-18T10:57:56Z</time><name>PT1239</name></trkpt>
<trkpt lat="53.451071" lon="05.816176"><ele>9.1</ele><time>2021-02-18T10:57:56Z</time><name>PT1240</name></trkpt>
<trkpt lat="53.451069" lon="05.816190"><ele>9.1</ele><time>2021-02-18T10:57:58Z</time><name>PT1241</name></trkpt>
<trkpt lat="53.451066" lon="05.816201"><ele>9.1</ele><time>2021-02-18T10:57:59Z</time><name>PT1242</name></trkpt>
<trkpt lat="53.451062" lon="05.816211"><ele>9.2</ele><time>2021-02-18T10:57:59Z</time><name>PT1243</name></trkpt>
<trkpt lat="53.451063" lon="05.816220"><ele>9.2</ele><time>2021-02-18T10:58:01Z</time><name>PT1244</name></trkpt>
<trkpt lat="53.451061" lon="05.816229"><ele>9.2</ele><time>2021-02-18T10:58:02Z</time><name>PT1245</name></trkpt>
<trkpt lat="53.451059" lon="05.816237"><ele>9.5</ele><time>2021-02-18T10:58:02Z</time><name>PT1246</name></trkpt>
<trkpt lat="53.451056" lon="05.816243"><ele>9.4</ele><time>2021-02-18T10:58:04Z</time><name>PT1247</name></trkpt>
<trkpt lat="53.451053" lon="05.816252"><ele>9.2</ele><time>2021-02-18T10:58:05Z</time><name>PT1248</name></trkpt>
<trkpt lat="53.451051" lon="05.816264"><ele>9.2</ele><time>2021-02-18T10:58:05Z</time><name>PT1249</name></trkpt>
<trkpt lat="53.451052" lon="05.816277"><ele>9.2</ele><time>2021-02-18T10:58:07Z</time><name>PT1250</name></trkpt>
<trkpt lat="53.451051" lon="05.816288"><ele>9.5</ele><time>2021-02-18T10:58:08Z</time><name>PT1251</name></trkpt>
<trkpt lat="53.451049" lon="05.816302"><ele>9.5</ele><time>2021-02-18T10:58:08Z</time><name>PT1252</name></trkpt>
<trkpt lat="53.451047" lon="05.816314"><ele>9.3</ele><time>2021-02-18T10:58:10Z</time><name>PT1253</name></trkpt>
<trkpt lat="53.451048" lon="05.816326"><ele>9.3</ele><time>2021-02-18T10:58:11Z</time><name>PT1254</name></trkpt>
<trkpt lat="53.451046" lon="05.816336"><ele>9.3</ele><time>2021-02-18T10:58:11Z</time><name>PT1255</name></trkpt>
<trkpt lat="53.451043" lon="05.816348"><ele>9.2</ele><time>2021-02-18T10:58:13Z</time><name>PT1256</name></trkpt>
<trkpt lat="53.451043" lon="05.816361"><ele>9.2</ele><time>2021-02-18T10:58:14Z</time><name>PT1257</name></trkpt>
<trkpt lat="53.451040" lon="05.816370"><ele>9.2</ele><time>2021-02-18T10:58:14Z</time><name>PT1258</name></trkpt>
<trkpt lat="53.451039" lon="05.816377"><ele>9.1</ele><time>2021-02-18T10:58:16Z</time><name>PT1259</name></trkpt>
<trkpt lat="53.451038" lon="05.816386"><ele>9.2</ele><time>2021-02-18T10:58:17Z</time><name>PT1260</name></trkpt>
<trkpt lat="53.451034" lon="05.816396"><ele>9.3</ele><time>2021-02-18T10:58:17Z</time><name>PT1261</name></trkpt>
<trkpt lat="53.451033" lon="05.816407"><ele>9.4</ele><time>2021-02-18T10:58:19Z</time><name>PT1262</name></trkpt>
<trkpt lat="53.451032" lon="05.816414"><ele>9.4</ele><time>2021-02-18T10:58:20Z</time><name>PT1263</name></trkpt>
<trkpt lat="53.451030" lon="05.816424"><ele>9.3</ele><time>2021-02-18T10:58:20Z</time><name>PT1264</name></trkpt>
<trkpt lat="53.451030" lon="05.816438"><ele>9.1</ele><time>2021-02-18T10:58:22Z</time><name>PT1265</name></trkpt>
<trkpt lat="53.451027" lon="05.816448"><ele>9.1</ele><time>2021-02-18T10:58:23Z</time><name>PT1266</name></trkpt>
<trkpt lat="53.451025" lon="05.816460"><ele>9.1</ele><time>2021-02-18T10:58:23Z</time><name>PT1267</name></trkpt>
<trkpt lat="53.451025" lon="05.816473"><ele>9</ele><time>2021-02-18T10:58:25Z</time><name>PT1268</name></trkpt>
<trkpt lat="53.451025" lon="05.816488"><ele>9.1</ele><time>2021-02-18T10:58:26Z</time><name>PT1269</name></trkpt>
<trkpt lat="53.451024" lon="05.816506"><ele>9.2</ele><time>2021-02-18T10:58:26Z</time><name>PT1270</name></trkpt>
<trkpt lat="53.451021" lon="05.816520"><ele>9.1</ele><time>2021-02-18T10:58:28Z</time><name>PT1271</name></trkpt>
<trkpt lat="53.451018" lon="05.816534"><ele>9.2</ele><time>2021-02-18T10:58:29Z</time><name>PT1272</name></trkpt>
<trkpt lat="53.451016" lon="05.816548"><ele>9.3</ele><time>2021-02-18T10:58:29Z</time><name>PT1273</name></trkpt>
<trkpt lat="53.451016" lon="05.816561"><ele>9.3</ele><time>2021-02-18T10:58:31Z</time><name>PT1274</name></trkpt>
<trkpt lat="53.451017" lon="05.816578"><ele>9.6</ele><time>2021-02-18T10:58:32Z</time><name>PT1275</name></trkpt>
<trkpt lat="53.451018" lon="05.816591"><ele>9.7</ele><time>2021-02-18T10:58:32Z</time><name>PT1276</name></trkpt>
<trkpt lat="53.451017" lon="05.816607"><ele>9.9</ele><time>2021-02-18T10:58:34Z</time><name>PT1277</name></trkpt>
<trkpt lat="53.451014" lon="05.816622"><ele>9.9</ele><time>2021-02-18T10:58:35Z</time><name>PT1278</name></trkpt>
<trkpt lat="53.451011" lon="05.816639"><ele>10.1</ele><time>2021-02-18T10:58:35Z</time><name>PT1279</name></trkpt>
<trkpt lat="53.451010" lon="05.816648"><ele>10.2</ele><time>2021-02-18T10:58:37Z</time><name>PT1280</name></trkpt>
<trkpt lat="53.451010" lon="05.816663"><ele>10</ele><time>2021-02-18T10:58:38Z</time><name>PT1281</name></trkpt>
<trkpt lat="53.451010" lon="05.816677"><ele>9.8</ele><time>2021-02-18T10:58:38Z</time><name>PT1282</name></trkpt>
<trkpt lat="53.451009" lon="05.816694"><ele>9.6</ele><time>2021-02-18T10:58:40Z</time><name>PT1283</name></trkpt>
<trkpt lat="53.451010" lon="05.816707"><ele>9.5</ele><time>2021-02-18T10:58:41Z</time><name>PT1284</name></trkpt>
<trkpt lat="53.451009" lon="05.816722"><ele>9.5</ele><time>2021-02-18T10:58:41Z</time><name>PT1285</name></trkpt>
<trkpt lat="53.451008" lon="05.816736"><ele>9.2</ele><time>2021-02-18T10:58:43Z</time><name>PT1286</name></trkpt>
<trkpt lat="53.451008" lon="05.816752"><ele>9.5</ele><time>2021-02-18T10:58:44Z</time><name>PT1287</name></trkpt>
<trkpt lat="53.451011" lon="05.816762"><ele>9.4</ele><time>2021-02-18T10:58:44Z</time><name>PT1288</name></trkpt>
<trkpt lat="53.451014" lon="05.816772"><ele>9.3</ele><time>2021-02-18T10:58:46Z</time><name>PT1289</name></trkpt>
<trkpt lat="53.451013" lon="05.816784"><ele>9.7</ele><time>2021-02-18T10:58:47Z</time><name>PT1290</name></trkpt>
<trkpt lat="53.451012" lon="05.816799"><ele>9.7</ele><time>2021-02-18T10:58:47Z</time><name>PT1291</name></trkpt>
<trkpt lat="53.451012" lon="05.816813"><ele>9.6</ele><time>2021-02-18T10:58:49Z</time><name>PT1292</name></trkpt>
<trkpt lat="53.451012" lon="05.816829"><ele>9.8</ele><time>2021-02-18T10:58:50Z</time><name>PT1293</name></trkpt>
<trkpt lat="53.451011" lon="05.816845"><ele>9.9</ele><time>2021-02-18T10:58:50Z</time><name>PT1294</name></trkpt>
<trkpt lat="53.451011" lon="05.816860"><ele>10.1</ele><time>2021-02-18T10:58:52Z</time><name>PT1295</name></trkpt>
<trkpt lat="53.451010" lon="05.816873"><ele>10.2</ele><time>2021-02-18T10:58:53Z</time><name>PT1296</name></trkpt>
<trkpt lat="53.451007" lon="05.816887"><ele>10.2</ele><time>2021-02-18T10:58:53Z</time><name>PT1297</name></trkpt>
<trkpt lat="53.451003" lon="05.816904"><ele>10.2</ele><time>2021-02-18T10:58:55Z</time><name>PT1298</name></trkpt>
<trkpt lat="53.451001" lon="05.816920"><ele>9.9</ele><time>2021-02-18T10:58:56Z</time><name>PT1299</name></trkpt>
<trkpt lat="53.450997" lon="05.816938"><ele>9.6</ele><time>2021-02-18T10:58:56Z</time><name>PT1300</name></trkpt>
<trkpt lat="53.450993" lon="05.816955"><ele>9.5</ele><time>2021-02-18T10:58:58Z</time><name>PT1301</name></trkpt>
<trkpt lat="53.450989" lon="05.816975"><ele>9.5</ele><time>2021-02-18T10:58:59Z</time><name>PT1302</name></trkpt>
<trkpt lat="53.450988" lon="05.816996"><ele>9.5</ele><time>2021-02-18T10:58:59Z</time><name>PT1303</name></trkpt>
<trkpt lat="53.450987" lon="05.817012"><ele>9.6</ele><time>2021-02-18T10:59:01Z</time><name>PT1304</name></trkpt>
<trkpt lat="53.450987" lon="05.817029"><ele>9.4</ele><time>2021-02-18T10:59:02Z</time><name>PT1305</name></trkpt>
<trkpt lat="53.450986" lon="05.817048"><ele>9.2</ele><time>2021-02-18T10:59:02Z</time><name>PT1306</name></trkpt>
<trkpt lat="53.450982" lon="05.817060"><ele>9.2</ele><time>2021-02-18T10:59:04Z</time><name>PT1307</name></trkpt>
<trkpt lat="53.450982" lon="05.817077"><ele>9.2</ele><time>2021-02-18T10:59:05Z</time><name>PT1308</name></trkpt>
<trkpt lat="53.450981" lon="05.817094"><ele>9.3</ele><time>2021-02-18T10:59:05Z</time><name>PT1309</name></trkpt>
<trkpt lat="53.450980" lon="05.817113"><ele>9.5</ele><time>2021-02-18T10:59:07Z</time><name>PT1310</name></trkpt>
<trkpt lat="53.450982" lon="05.817131"><ele>9.7</ele><time>2021-02-18T10:59:08Z</time><name>PT1311</name></trkpt>
<trkpt lat="53.450984" lon="05.817148"><ele>9.4</ele><time>2021-02-18T10:59:08Z</time><name>PT1312</name></trkpt>
<trkpt lat="53.450984" lon="05.817166"><ele>9.5</ele><time>2021-02-18T10:59:10Z</time><name>PT1313</name></trkpt>
<trkpt lat="53.450984" lon="05.817186"><ele>9.7</ele><time>2021-02-18T10:59:11Z</time><name>PT1314</name></trkpt>
<trkpt lat="53.450983" lon="05.817203"><ele>9.6</ele><time>2021-02-18T10:59:11Z</time><name>PT1315</name></trkpt>
<trkpt lat="53.450986" lon="05.817220"><ele>9.7</ele><time>2021-02-18T10:59:13Z</time><name>PT1316</name></trkpt>
<trkpt lat="53.450988" lon="05.817235"><ele>9.5</ele><time>2021-02-18T10:59:14Z</time><name>PT1317</name></trkpt>
<trkpt lat="53.450989" lon="05.817250"><ele>9.3</ele><time>2021-02-18T10:59:14Z</time><name>PT1318</name></trkpt>
<trkpt lat="53.450989" lon="05.817265"><ele>9.2</ele><time>2021-02-18T10:59:16Z</time><name>PT1319</name></trkpt>
<trkpt lat="53.450988" lon="05.817277"><ele>8.9</ele><time>2021-02-18T10:59:17Z</time><name>PT1320</name></trkpt>
<trkpt lat="53.450986" lon="05.817289"><ele>9.1</ele><time>2021-02-18T10:59:17Z</time><name>PT1321</name></trkpt>
<trkpt lat="53.450983" lon="05.817306"><ele>9</ele><time>2021-02-18T10:59:19Z</time><name>PT1322</name></trkpt>
<trkpt lat="53.450984" lon="05.817323"><ele>9</ele><time>2021-02-18T10:59:20Z</time><name>PT1323</name></trkpt>
<trkpt lat="53.450983" lon="05.817337"><ele>9.1</ele><time>2021-02-18T10:59:20Z</time><name>PT1324</name></trkpt>
<trkpt lat="53.450981" lon="05.817355"><ele>9</ele><time>2021-02-18T10:59:22Z</time><name>PT1325</name></trkpt>
<trkpt lat="53.450981" lon="05.817371"><ele>9.1</ele><time>2021-02-18T10:59:23Z</time><name>PT1326</name></trkpt>
<trkpt lat="53.450980" lon="05.817390"><ele>9.2</ele><time>2021-02-18T10:59:23Z</time><name>PT1327</name></trkpt>
<trkpt lat="53.450978" lon="05.817409"><ele>9.2</ele><time>2021-02-18T10:59:25Z</time><name>PT1328</name></trkpt>
<trkpt lat="53.450976" lon="05.817424"><ele>9.2</ele><time>2021-02-18T10:59:26Z</time><name>PT1329</name></trkpt>
<trkpt lat="53.450974" lon="05.817440"><ele>9.2</ele><time>2021-02-18T10:59:26Z</time><name>PT1330</name></trkpt>
<trkpt lat="53.450971" lon="05.817457"><ele>9.2</ele><time>2021-02-18T10:59:28Z</time><name>PT1331</name></trkpt>
<trkpt lat="53.450968" lon="05.817474"><ele>9.1</ele><time>2021-02-18T10:59:29Z</time><name>PT1332</name></trkpt>
<trkpt lat="53.450965" lon="05.817491"><ele>9.1</ele><time>2021-02-18T10:59:29Z</time><name>PT1333</name></trkpt>
<trkpt lat="53.450965" lon="05.817509"><ele>9</ele><time>2021-02-18T10:59:31Z</time><name>PT1334</name></trkpt>
<trkpt lat="53.450965" lon="05.817525"><ele>9.1</ele><time>2021-02-18T10:59:32Z</time><name>PT1335</name></trkpt>
<trkpt lat="53.450965" lon="05.817541"><ele>9.2</ele><time>2021-02-18T10:59:32Z</time><name>PT1336</name></trkpt>
<trkpt lat="53.450965" lon="05.817560"><ele>9.3</ele><time>2021-02-18T10:59:34Z</time><name>PT1337</name></trkpt>
<trkpt lat="53.450965" lon="05.817576"><ele>9.5</ele><time>2021-02-18T10:59:35Z</time><name>PT1338</name></trkpt>
<trkpt lat="53.450964" lon="05.817592"><ele>9.3</ele><time>2021-02-18T10:59:35Z</time><name>PT1339</name></trkpt>
<trkpt lat="53.450960" lon="05.817605"><ele>9.2</ele><time>2021-02-18T10:59:37Z</time><name>PT1340</name></trkpt>
<trkpt lat="53.450957" lon="05.817619"><ele>9</ele><time>2021-02-18T10:59:38Z</time><name>PT1341</name></trkpt>
<trkpt lat="53.450956" lon="05.817635"><ele>8.8</ele><time>2021-02-18T10:59:38Z</time><name>PT1342</name></trkpt>
<trkpt lat="53.450956" lon="05.817651"><ele>8.8</ele><time>2021-02-18T10:59:40Z</time><name>PT1343</name></trkpt>
<trkpt lat="53.450956" lon="05.817668"><ele>8.7</ele><time>2021-02-18T10:59:41Z</time><name>PT1344</name></trkpt>
<trkpt lat="53.450955" lon="05.817685"><ele>8.7</ele><time>2021-02-18T10:59:41Z</time><name>PT1345</name></trkpt>
<trkpt lat="53.450955" lon="05.817701"><ele>8.7</ele><time>2021-02-18T10:59:43Z</time><name>PT1346</name></trkpt>
<trkpt lat="53.450953" lon="05.817716"><ele>8.5</ele><time>2021-02-18T10:59:44Z</time><name>PT1347</name></trkpt>
<trkpt lat="53.450952" lon="05.817732"><ele>8.4</ele><time>2021-02-18T10:59:44Z</time><name>PT1348</name></trkpt>
<trkpt lat="53.450952" lon="05.817750"><ele>8.5</ele><time>2021-02-18T10:59:46Z</time><name>PT1349</name></trkpt>
<trkpt lat="53.450952" lon="05.817766"><ele>8.7</ele><time>2021-02-18T10:59:47Z</time><name>PT1350</name></trkpt>
<trkpt lat="53.450953" lon="05.817781"><ele>9</ele><time>2021-02-18T10:59:47Z</time><name>PT1351</name></trkpt>
<trkpt lat="53.450955" lon="05.817795"><ele>9.1</ele><time>2021-02-18T10:59:49Z</time><name>PT1352</name></trkpt>
<trkpt lat="53.450960" lon="05.817806"><ele>9.1</ele><time>2021-02-18T10:59:50Z</time><name>PT1353</name></trkpt>
<trkpt lat="53.450961" lon="05.817814"><ele>9.1</ele><time>2021-02-18T10:59:50Z</time><name>PT1354</name></trkpt>
<trkpt lat="53.450963" lon="05.817820"><ele>9.1</ele><time>2021-02-18T10:59:52Z</time><name>PT1355</name></trkpt>
<trkpt lat="53.450963" lon="05.817832"><ele>9.1</ele><time>2021-02-18T10:59:53Z</time><name>PT1356</name></trkpt>
<trkpt lat="53.450965" lon="05.817842"><ele>9</ele><time>2021-02-18T10:59:53Z</time><name>PT1357</name></trkpt>
<trkpt lat="53.450970" lon="05.817854"><ele>9</ele><time>2021-02-18T10:59:55Z</time><name>PT1358</name></trkpt>
<trkpt lat="53.450974" lon="05.817863"><ele>9.1</ele><time>2021-02-18T10:59:56Z</time><name>PT1359</name></trkpt>
<trkpt lat="53.450977" lon="05.817871"><ele>8.9</ele><time>2021-02-18T10:59:56Z</time><name>PT1360</name></trkpt>
<trkpt lat="53.450982" lon="05.817880"><ele>8.9</ele><time>2021-02-18T10:59:58Z</time><name>PT1361</name></trkpt>
<trkpt lat="53.450988" lon="05.817888"><ele>9</ele><time>2021-02-18T10:59:59Z</time><name>PT1362</name></trkpt>
<trkpt lat="53.450994" lon="05.817896"><ele>9.1</ele><time>2021-02-18T10:59:59Z</time><name>PT1363</name></trkpt>
<trkpt lat="53.450997" lon="05.817905"><ele>9.2</ele><time>2021-02-18T11:00:01Z</time><name>PT1364</name></trkpt>
<trkpt lat="53.451004" lon="05.817917"><ele>9.3</ele><time>2021-02-18T11:00:02Z</time><name>PT1365</name></trkpt>
<trkpt lat="53.451009" lon="05.817927"><ele>9.2</ele><time>2021-02-18T11:00:02Z</time><name>PT1366</name></trkpt>
<trkpt lat="53.451013" lon="05.817931"><ele>9.2</ele><time>2021-02-18T11:00:04Z</time><name>PT1367</name></trkpt>
<trkpt lat="53.451017" lon="05.817935"><ele>9.1</ele><time>2021-02-18T11:00:05Z</time><name>PT1368</name></trkpt>
<trkpt lat="53.451022" lon="05.817940"><ele>9.2</ele><time>2021-02-18T11:00:05Z</time><name>PT1369</name></trkpt>
<trkpt lat="53.451024" lon="05.817942"><ele>10.1</ele><time>2021-02-18T11:00:14Z</time><name>PT1370</name></trkpt>
<trkpt lat="53.451028" lon="05.817944"><ele>10.1</ele><time>2021-02-18T11:00:16Z</time><name>PT1371</name></trkpt>
<trkpt lat="53.451030" lon="05.817946"><ele>10.1</ele><time>2021-02-18T11:00:17Z</time><name>PT1372</name></trkpt>
<trkpt lat="53.451030" lon="05.817950"><ele>10</ele><time>2021-02-18T11:00:17Z</time><name>PT1373</name></trkpt>
<trkpt lat="53.451030" lon="05.817952"><ele>9.7</ele><time>2021-02-18T11:00:19Z</time><name>PT1374</name></trkpt>
<trkpt lat="53.451032" lon="05.817952"><ele>9.7</ele><time>2021-02-18T11:00:22Z</time><name>PT1375</name></trkpt>
<trkpt lat="53.451045" lon="05.817949"><ele>9.7</ele><time>2021-02-18T11:00:23Z</time><name>PT1376</name></trkpt>
<trkpt lat="53.451058" lon="05.817943"><ele>9.6</ele><time>2021-02-18T11:00:23Z</time><name>PT1377</name></trkpt>
<trkpt lat="53.451070" lon="05.817937"><ele>9.4</ele><time>2021-02-18T11:00:25Z</time><name>PT1378</name></trkpt>
<trkpt lat="53.451080" lon="05.817936"><ele>9.4</ele><time>2021-02-18T11:00:26Z</time><name>PT1379</name></trkpt>
<trkpt lat="53.451092" lon="05.817937"><ele>9.4</ele><time>2021-02-18T11:00:26Z</time><name>PT1380</name></trkpt>
<trkpt lat="53.451105" lon="05.817933"><ele>9.9</ele><time>2021-02-18T11:00:28Z</time><name>PT1381</name></trkpt>
<trkpt lat="53.451118" lon="05.817930"><ele>10.2</ele><time>2021-02-18T11:00:29Z</time><name>PT1382</name></trkpt>
<trkpt lat="53.451129" lon="05.817928"><ele>10.3</ele><time>2021-02-18T11:00:29Z</time><name>PT1383</name></trkpt>
<trkpt lat="53.451140" lon="05.817924"><ele>10.3</ele><time>2021-02-18T11:00:31Z</time><name>PT1384</name></trkpt>
<trkpt lat="53.451152" lon="05.817919"><ele>10.1</ele><time>2021-02-18T11:00:32Z</time><name>PT1385</name></trkpt>
<trkpt lat="53.451162" lon="05.817914"><ele>10.1</ele><time>2021-02-18T11:00:32Z</time><name>PT1386</name></trkpt>
<trkpt lat="53.451173" lon="05.817907"><ele>10.1</ele><time>2021-02-18T11:00:34Z</time><name>PT1387</name></trkpt>
<trkpt lat="53.451185" lon="05.817898"><ele>10.3</ele><time>2021-02-18T11:00:35Z</time><name>PT1388</name></trkpt>
<trkpt lat="53.451197" lon="05.817890"><ele>10.2</ele><time>2021-02-18T11:00:35Z</time><name>PT1389</name></trkpt>
<trkpt lat="53.451206" lon="05.817885"><ele>10.5</ele><time>2021-02-18T11:00:37Z</time><name>PT1390</name></trkpt>
<trkpt lat="53.451216" lon="05.817877"><ele>10.5</ele><time>2021-02-18T11:00:38Z</time><name>PT1391</name></trkpt>
<trkpt lat="53.451232" lon="05.817869"><ele>10.5</ele><time>2021-02-18T11:00:38Z</time><name>PT1392</name></trkpt>
<trkpt lat="53.451246" lon="05.817862"><ele>10.5</ele><time>2021-02-18T11:00:40Z</time><name>PT1393</name></trkpt>
<trkpt lat="53.451260" lon="05.817855"><ele>10.2</ele><time>2021-02-18T11:00:41Z</time><name>PT1394</name></trkpt>
<trkpt lat="53.451273" lon="05.817848"><ele>10.2</ele><time>2021-02-18T11:00:41Z</time><name>PT1395</name></trkpt>
<trkpt lat="53.451285" lon="05.817843"><ele>10.3</ele><time>2021-02-18T11:00:43Z</time><name>PT1396</name></trkpt>
<trkpt lat="53.451297" lon="05.817837"><ele>10.2</ele><time>2021-02-18T11:00:44Z</time><name>PT1397</name></trkpt>
<trkpt lat="53.451308" lon="05.817831"><ele>10.2</ele><time>2021-02-18T11:00:44Z</time><name>PT1398</name></trkpt>
<trkpt lat="53.451321" lon="05.817822"><ele>10.2</ele><time>2021-02-18T11:00:46Z</time><name>PT1399</name></trkpt>
<trkpt lat="53.451331" lon="05.817812"><ele>10.1</ele><time>2021-02-18T11:00:47Z</time><name>PT1400</name></trkpt>
<trkpt lat="53.451343" lon="05.817808"><ele>9.9</ele><time>2021-02-18T11:00:47Z</time><name>PT1401</name></trkpt>
<trkpt lat="53.451356" lon="05.817803"><ele>10.2</ele><time>2021-02-18T11:00:49Z</time><name>PT1402</name></trkpt>
<trkpt lat="53.451370" lon="05.817797"><ele>10.2</ele><time>2021-02-18T11:00:50Z</time><name>PT1403</name></trkpt>
<trkpt lat="53.451382" lon="05.817790"><ele>10.2</ele><time>2021-02-18T11:00:50Z</time><name>PT1404</name></trkpt>
<trkpt lat="53.451396" lon="05.817783"><ele>10.3</ele><time>2021-02-18T11:00:52Z</time><name>PT1405</name></trkpt>
<trkpt lat="53.451406" lon="05.817776"><ele>10.6</ele><time>2021-02-18T11:00:53Z</time><name>PT1406</name></trkpt>
<trkpt lat="53.451417" lon="05.817768"><ele>10.7</ele><time>2021-02-18T11:00:53Z</time><name>PT1407</name></trkpt>
<trkpt lat="53.451429" lon="05.817763"><ele>10.7</ele><time>2021-02-18T11:00:55Z</time><name>PT1408</name></trkpt>
<trkpt lat="53.451440" lon="05.817759"><ele>10.6</ele><time>2021-02-18T11:00:56Z</time><name>PT1409</name></trkpt>
<trkpt lat="53.451449" lon="05.817753"><ele>10.6</ele><time>2021-02-18T11:00:56Z</time><name>PT1410</name></trkpt>
<trkpt lat="53.451460" lon="05.817748"><ele>10.6</ele><time>2021-02-18T11:00:58Z</time><name>PT1411</name></trkpt>
<trkpt lat="53.451470" lon="05.817746"><ele>10.4</ele><time>2021-02-18T11:00:59Z</time><name>PT1412</name></trkpt>
<trkpt lat="53.451480" lon="05.817744"><ele>10.4</ele><time>2021-02-18T11:00:59Z</time><name>PT1413</name></trkpt>
<trkpt lat="53.451489" lon="05.817740"><ele>10.6</ele><time>2021-02-18T11:01:01Z</time><name>PT1414</name></trkpt>
<trkpt lat="53.451501" lon="05.817737"><ele>10.3</ele><time>2021-02-18T11:01:02Z</time><name>PT1415</name></trkpt>
<trkpt lat="53.451513" lon="05.817733"><ele>10.5</ele><time>2021-02-18T11:01:02Z</time><name>PT1416</name></trkpt>
<trkpt lat="53.451525" lon="05.817731"><ele>10.4</ele><time>2021-02-18T11:01:04Z</time><name>PT1417</name></trkpt>
<trkpt lat="53.451537" lon="05.817727"><ele>10.4</ele><time>2021-02-18T11:01:05Z</time><name>PT1418</name></trkpt>
<trkpt lat="53.451550" lon="05.817721"><ele>10.3</ele><time>2021-02-18T11:01:05Z</time><name>PT1419</name></trkpt>
<trkpt lat="53.451563" lon="05.817716"><ele>10.4</ele><time>2021-02-18T11:01:07Z</time><name>PT1420</name></trkpt>
<trkpt lat="53.451578" lon="05.817711"><ele>10.6</ele><time>2021-02-18T11:01:08Z</time><name>PT1421</name></trkpt>
<trkpt lat="53.451591" lon="05.817707"><ele>10.6</ele><time>2021-02-18T11:01:08Z</time><name>PT1422</name></trkpt>
<trkpt lat="53.451606" lon="05.817703"><ele>10.7</ele><time>2021-02-18T11:01:10Z</time><name>PT1423</name></trkpt>
<trkpt lat="53.451620" lon="05.817698"><ele>10.7</ele><time>2021-02-18T11:01:11Z</time><name>PT1424</name></trkpt>
<trkpt lat="53.451634" lon="05.817691"><ele>10.7</ele><time>2021-02-18T11:01:11Z</time><name>PT1425</name></trkpt>
<trkpt lat="53.451647" lon="05.817684"><ele>10.6</ele><time>2021-02-18T11:01:13Z</time><name>PT1426</name></trkpt>
<trkpt lat="53.451660" lon="05.817680"><ele>10.6</ele><time>2021-02-18T11:01:14Z</time><name>PT1427</name></trkpt>
<trkpt lat="53.451674" lon="05.817673"><ele>10.6</ele><time>2021-02-18T11:01:14Z</time><name>PT1428</name></trkpt>
<trkpt lat="53.451687" lon="05.817668"><ele>10.7</ele><time>2021-02-18T11:01:16Z</time><name>PT1429</name></trkpt>
<trkpt lat="53.451698" lon="05.817661"><ele>10.8</ele><time>2021-02-18T11:01:17Z</time><name>PT1430</name></trkpt>
<trkpt lat="53.451712" lon="05.817657"><ele>10.7</ele><time>2021-02-18T11:01:17Z</time><name>PT1431</name></trkpt>
<trkpt lat="53.451727" lon="05.817650"><ele>10.7</ele><time>2021-02-18T11:01:19Z</time><name>PT1432</name></trkpt>
<trkpt lat="53.451741" lon="05.817646"><ele>10.6</ele><time>2021-02-18T11:01:20Z</time><name>PT1433</name></trkpt>
<trkpt lat="53.451752" lon="05.817640"><ele>10.4</ele><time>2021-02-18T11:01:20Z</time><name>PT1434</name></trkpt>
<trkpt lat="53.451762" lon="05.817635"><ele>10.4</ele><time>2021-02-18T11:01:22Z</time><name>PT1435</name></trkpt>
<trkpt lat="53.451772" lon="05.817628"><ele>10.5</ele><time>2021-02-18T11:01:23Z</time><name>PT1436</name></trkpt>
<trkpt lat="53.451783" lon="05.817619"><ele>10.3</ele><time>2021-02-18T11:01:23Z</time><name>PT1437</name></trkpt>
<trkpt lat="53.451795" lon="05.817613"><ele>10.4</ele><time>2021-02-18T11:01:25Z</time><name>PT1438</name></trkpt>
<trkpt lat="53.451806" lon="05.817606"><ele>10.2</ele><time>2021-02-18T11:01:26Z</time><name>PT1439</name></trkpt>
<trkpt lat="53.451818" lon="05.817598"><ele>10.2</ele><time>2021-02-18T11:01:26Z</time><name>PT1440</name></trkpt>
<trkpt lat="53.451829" lon="05.817592"><ele>10.2</ele><time>2021-02-18T11:01:28Z</time><name>PT1441</name></trkpt>
<trkpt lat="53.451840" lon="05.817584"><ele>10.2</ele><time>2021-02-18T11:01:29Z</time><name>PT1442</name></trkpt>
<trkpt lat="53.451851" lon="05.817576"><ele>10</ele><time>2021-02-18T11:01:29Z</time><name>PT1443</name></trkpt>
<trkpt lat="53.451862" lon="05.817568"><ele>10</ele><time>2021-02-18T11:01:31Z</time><name>PT1444</name></trkpt>
<trkpt lat="53.451871" lon="05.817561"><ele>10</ele><time>2021-02-18T11:01:32Z</time><name>PT1445</name></trkpt>
<trkpt lat="53.451881" lon="05.817555"><ele>10.1</ele><time>2021-02-18T11:01:32Z</time><name>PT1446</name></trkpt>
<trkpt lat="53.451891" lon="05.817552"><ele>10.2</ele><time>2021-02-18T11:01:34Z</time><name>PT1447</name></trkpt>
<trkpt lat="53.451901" lon="05.817546"><ele>10.5</ele><time>2021-02-18T11:01:35Z</time><name>PT1448</name></trkpt>
<trkpt lat="53.451911" lon="05.817542"><ele>10.5</ele><time>2021-02-18T11:01:35Z</time><name>PT1449</name></trkpt>
<trkpt lat="53.451923" lon="05.817540"><ele>10.7</ele><time>2021-02-18T11:01:37Z</time><name>PT1450</name></trkpt>
<trkpt lat="53.451936" lon="05.817535"><ele>10.7</ele><time>2021-02-18T11:01:38Z</time><name>PT1451</name></trkpt>
<trkpt lat="53.451950" lon="05.817530"><ele>10.7</ele><time>2021-02-18T11:01:38Z</time><name>PT1452</name></trkpt>
<trkpt lat="53.451964" lon="05.817524"><ele>10.8</ele><time>2021-02-18T11:01:40Z</time><name>PT1453</name></trkpt>
<trkpt lat="53.451976" lon="05.817521"><ele>10.6</ele><time>2021-02-18T11:01:41Z</time><name>PT1454</name></trkpt>
<trkpt lat="53.451989" lon="05.817516"><ele>10.7</ele><time>2021-02-18T11:01:41Z</time><name>PT1455</name></trkpt>
<trkpt lat="53.452001" lon="05.817509"><ele>10.7</ele><time>2021-02-18T11:01:43Z</time><name>PT1456</name></trkpt>
<trkpt lat="53.452012" lon="05.817501"><ele>10.5</ele><time>2021-02-18T11:01:44Z</time><name>PT1457</name></trkpt>
<trkpt lat="53.452023" lon="05.817494"><ele>10.6</ele><time>2021-02-18T11:01:44Z</time><name>PT1458</name></trkpt>
<trkpt lat="53.452036" lon="05.817486"><ele>10.6</ele><time>2021-02-18T11:01:46Z</time><name>PT1459</name></trkpt>
<trkpt lat="53.452048" lon="05.817478"><ele>10.6</ele><time>2021-02-18T11:01:47Z</time><name>PT1460</name></trkpt>
<trkpt lat="53.452059" lon="05.817470"><ele>10.6</ele><time>2021-02-18T11:01:47Z</time><name>PT1461</name></trkpt>
<trkpt lat="53.452071" lon="05.817463"><ele>10.6</ele><time>2021-02-18T11:01:49Z</time><name>PT1462</name></trkpt>
<trkpt lat="53.452085" lon="05.817454"><ele>10.3</ele><time>2021-02-18T11:01:50Z</time><name>PT1463</name></trkpt>
<trkpt lat="53.452097" lon="05.817446"><ele>10.3</ele><time>2021-02-18T11:01:50Z</time><name>PT1464</name></trkpt>
<trkpt lat="53.452108" lon="05.817440"><ele>10.4</ele><time>2021-02-18T11:01:52Z</time><name>PT1465</name></trkpt>
<trkpt lat="53.452118" lon="05.817436"><ele>10.5</ele><time>2021-02-18T11:01:53Z</time><name>PT1466</name></trkpt>
<trkpt lat="53.452128" lon="05.817432"><ele>10.6</ele><time>2021-02-18T11:01:53Z</time><name>PT1467</name></trkpt>
<trkpt lat="53.452140" lon="05.817428"><ele>10.7</ele><time>2021-02-18T11:01:55Z</time><name>PT1468</name></trkpt>
<trkpt lat="53.452151" lon="05.817425"><ele>10.6</ele><time>2021-02-18T11:01:56Z</time><name>PT1469</name></trkpt>
<trkpt lat="53.452163" lon="05.817423"><ele>10.6</ele><time>2021-02-18T11:01:56Z</time><name>PT1470</name></trkpt>
<trkpt lat="53.452175" lon="05.817416"><ele>10.6</ele><time>2021-02-18T11:01:58Z</time><name>PT1471</name></trkpt>
<trkpt lat="53.452188" lon="05.817410"><ele>10.2</ele><time>2021-02-18T11:01:59Z</time><name>PT1472</name></trkpt>
<trkpt lat="53.452199" lon="05.817404"><ele>10.1</ele><time>2021-02-18T11:01:59Z</time><name>PT1473</name></trkpt>
<trkpt lat="53.452211" lon="05.817399"><ele>10.2</ele><time>2021-02-18T11:02:01Z</time><name>PT1474</name></trkpt>
<trkpt lat="53.452223" lon="05.817393"><ele>10.2</ele><time>2021-02-18T11:02:02Z</time><name>PT1475</name></trkpt>
<trkpt lat="53.452234" lon="05.817385"><ele>10.3</ele><time>2021-02-18T11:02:02Z</time><name>PT1476</name></trkpt>
<trkpt lat="53.452244" lon="05.817381"><ele>10.5</ele><time>2021-02-18T11:02:04Z</time><name>PT1477</name></trkpt>
<trkpt lat="53.452255" lon="05.817373"><ele>10.5</ele><time>2021-02-18T11:02:05Z</time><name>PT1478</name></trkpt>
<trkpt lat="53.452265" lon="05.817366"><ele>10.4</ele><time>2021-02-18T11:02:05Z</time><name>PT1479</name></trkpt>
<trkpt lat="53.452276" lon="05.817360"><ele>10.5</ele><time>2021-02-18T11:02:07Z</time><name>PT1480</name></trkpt>
<trkpt lat="53.452283" lon="05.817362"><ele>10.6</ele><time>2021-02-18T11:02:08Z</time><name>PT1481</name></trkpt>
<trkpt lat="53.452295" lon="05.817357"><ele>10.6</ele><time>2021-02-18T11:02:08Z</time><name>PT1482</name></trkpt>
<trkpt lat="53.452308" lon="05.817351"><ele>10.6</ele><time>2021-02-18T11:02:10Z</time><name>PT1483</name></trkpt>
<trkpt lat="53.452320" lon="05.817347"><ele>10.4</ele><time>2021-02-18T11:02:11Z</time><name>PT1484</name></trkpt>
<trkpt lat="53.452333" lon="05.817343"><ele>10.3</ele><time>2021-02-18T11:02:11Z</time><name>PT1485</name></trkpt>
<trkpt lat="53.452346" lon="05.817337"><ele>10.3</ele><time>2021-02-18T11:02:13Z</time><name>PT1486</name></trkpt>
<trkpt lat="53.452358" lon="05.817332"><ele>10.5</ele><time>2021-02-18T11:02:14Z</time><name>PT1487</name></trkpt>
<trkpt lat="53.452370" lon="05.817327"><ele>10.7</ele><time>2021-02-18T11:02:14Z</time><name>PT1488</name></trkpt>
<trkpt lat="53.452384" lon="05.817320"><ele>10.8</ele><time>2021-02-18T11:02:16Z</time><name>PT1489</name></trkpt>
<trkpt lat="53.452395" lon="05.817317"><ele>11.1</ele><time>2021-02-18T11:02:17Z</time><name>PT1490</name></trkpt>
<trkpt lat="53.452407" lon="05.817312"><ele>11.1</ele><time>2021-02-18T11:02:17Z</time><name>PT1491</name></trkpt>
<trkpt lat="53.452418" lon="05.817305"><ele>10.8</ele><time>2021-02-18T11:02:19Z</time><name>PT1492</name></trkpt>
<trkpt lat="53.452430" lon="05.817299"><ele>10.7</ele><time>2021-02-18T11:02:20Z</time><name>PT1493</name></trkpt>
<trkpt lat="53.452443" lon="05.817292"><ele>10.7</ele><time>2021-02-18T11:02:20Z</time><name>PT1494</name></trkpt>
<trkpt lat="53.452454" lon="05.817285"><ele>10.5</ele><time>2021-02-18T11:02:22Z</time><name>PT1495</name></trkpt>
<trkpt lat="53.452467" lon="05.817277"><ele>10.5</ele><time>2021-02-18T11:02:23Z</time><name>PT1496</name></trkpt>
<trkpt lat="53.452482" lon="05.817267"><ele>10.5</ele><time>2021-02-18T11:02:23Z</time><name>PT1497</name></trkpt>
<trkpt lat="53.452493" lon="05.817259"><ele>10.7</ele><time>2021-02-18T11:02:25Z</time><name>PT1498</name></trkpt>
<trkpt lat="53.452505" lon="05.817251"><ele>10.7</ele><time>2021-02-18T11:02:26Z</time><name>PT1499</name></trkpt>
<trkpt lat="53.452515" lon="05.817243"><ele>10.7</ele><time>2021-02-18T11:02:26Z</time><name>PT1500</name></trkpt>
<trkpt lat="53.452524" lon="05.817238"><ele>10.7</ele><time>2021-02-18T11:02:28Z</time><name>PT1501</name></trkpt>
<trkpt lat="53.452533" lon="05.817232"><ele>10.7</ele><time>2021-02-18T11:02:29Z</time><name>PT1502</name></trkpt>
<trkpt lat="53.452543" lon="05.817226"><ele>10.6</ele><time>2021-02-18T11:02:29Z</time><name>PT1503</name></trkpt>
<trkpt lat="53.452554" lon="05.817220"><ele>10.7</ele><time>2021-02-18T11:02:31Z</time><name>PT1504</name></trkpt>
<trkpt lat="53.452566" lon="05.817216"><ele>10.7</ele><time>2021-02-18T11:02:32Z</time><name>PT1505</name></trkpt>
<trkpt lat="53.452577" lon="05.817212"><ele>10.7</ele><time>2021-02-18T11:02:32Z</time><name>PT1506</name></trkpt>
<trkpt lat="53.452590" lon="05.817207"><ele>11.1</ele><time>2021-02-18T11:02:34Z</time><name>PT1507</name></trkpt>
<trkpt lat="53.452603" lon="05.817201"><ele>10.9</ele><time>2021-02-18T11:02:35Z</time><name>PT1508</name></trkpt>
<trkpt lat="53.452616" lon="05.817194"><ele>10.8</ele><time>2021-02-18T11:02:35Z</time><name>PT1509</name></trkpt>
<trkpt lat="53.452629" lon="05.817187"><ele>10.8</ele><time>2021-02-18T11:02:37Z</time><name>PT1510</name></trkpt>
<trkpt lat="53.452643" lon="05.817183"><ele>10.7</ele><time>2021-02-18T11:02:38Z</time><name>PT1511</name></trkpt>
<trkpt lat="53.452659" lon="05.817177"><ele>10.7</ele><time>2021-02-18T11:02:38Z</time><name>PT1512</name></trkpt>
<trkpt lat="53.452671" lon="05.817171"><ele>10.7</ele><time>2021-02-18T11:02:40Z</time><name>PT1513</name></trkpt>
<trkpt lat="53.452684" lon="05.817166"><ele>10.5</ele><time>2021-02-18T11:02:41Z</time><name>PT1514</name></trkpt>
<trkpt lat="53.452696" lon="05.817162"><ele>10.4</ele><time>2021-02-18T11:02:41Z</time><name>PT1515</name></trkpt>
<trkpt lat="53.452708" lon="05.817158"><ele>10.4</ele><time>2021-02-18T11:02:43Z</time><name>PT1516</name></trkpt>
<trkpt lat="53.452718" lon="05.817152"><ele>10.4</ele><time>2021-02-18T11:02:44Z</time><name>PT1517</name></trkpt>
<trkpt lat="53.452729" lon="05.817146"><ele>10.4</ele><time>2021-02-18T11:02:44Z</time><name>PT1518</name></trkpt>
<trkpt lat="53.452741" lon="05.817139"><ele>10.6</ele><time>2021-02-18T11:02:46Z</time><name>PT1519</name></trkpt>
<trkpt lat="53.452751" lon="05.817132"><ele>10.7</ele><time>2021-02-18T11:02:47Z</time><name>PT1520</name></trkpt>
<trkpt lat="53.452763" lon="05.817124"><ele>10.7</ele><time>2021-02-18T11:02:47Z</time><name>PT1521</name></trkpt>
<trkpt lat="53.452774" lon="05.817116"><ele>10.8</ele><time>2021-02-18T11:02:49Z</time><name>PT1522</name></trkpt>
<trkpt lat="53.452783" lon="05.817109"><ele>10.9</ele><time>2021-02-18T11:02:50Z</time><name>PT1523</name></trkpt>
<trkpt lat="53.452794" lon="05.817102"><ele>10.9</ele><time>2021-02-18T11:02:50Z</time><name>PT1524</name></trkpt>
<trkpt lat="53.452804" lon="05.817098"><ele>10.7</ele><time>2021-02-18T11:02:52Z</time><name>PT1525</name></trkpt>
<trkpt lat="53.452814" lon="05.817094"><ele>10.8</ele><time>2021-02-18T11:02:53Z</time><name>PT1526</name></trkpt>
<trkpt lat="53.452825" lon="05.817090"><ele>10.7</ele><time>2021-02-18T11:02:53Z</time><name>PT1527</name></trkpt>
<trkpt lat="53.452839" lon="05.817084"><ele>10.6</ele><time>2021-02-18T11:02:55Z</time><name>PT1528</name></trkpt>
<trkpt lat="53.452851" lon="05.817080"><ele>10.7</ele><time>2021-02-18T11:02:56Z</time><name>PT1529</name></trkpt>
<trkpt lat="53.452864" lon="05.817077"><ele>10.6</ele><time>2021-02-18T11:02:56Z</time><name>PT1530</name></trkpt>
<trkpt lat="53.452874" lon="05.817073"><ele>10.7</ele><time>2021-02-18T11:02:58Z</time><name>PT1531</name></trkpt>
<trkpt lat="53.452884" lon="05.817068"><ele>10.7</ele><time>2021-02-18T11:02:59Z</time><name>PT1532</name></trkpt>
<trkpt lat="53.452893" lon="05.817061"><ele>10.8</ele><time>2021-02-18T11:02:59Z</time><name>PT1533</name></trkpt>
<trkpt lat="53.452902" lon="05.817054"><ele>10.8</ele><time>2021-02-18T11:03:01Z</time><name>PT1534</name></trkpt>
<trkpt lat="53.452912" lon="05.817047"><ele>10.7</ele><time>2021-02-18T11:03:02Z</time><name>PT1535</name></trkpt>
<trkpt lat="53.452923" lon="05.817039"><ele>10.7</ele><time>2021-02-18T11:03:02Z</time><name>PT1536</name></trkpt>
<trkpt lat="53.452935" lon="05.817032"><ele>10.9</ele><time>2021-02-18T11:03:04Z</time><name>PT1537</name></trkpt>
<trkpt lat="53.452948" lon="05.817024"><ele>11</ele><time>2021-02-18T11:03:05Z</time><name>PT1538</name></trkpt>
<trkpt lat="53.452960" lon="05.817014"><ele>10.9</ele><time>2021-02-18T11:03:05Z</time><name>PT1539</name></trkpt>
<trkpt lat="53.452969" lon="05.817007"><ele>10.9</ele><time>2021-02-18T11:03:07Z</time><name>PT1540</name></trkpt>
<trkpt lat="53.452979" lon="05.817003"><ele>10.8</ele><time>2021-02-18T11:03:08Z</time><name>PT1541</name></trkpt>
<trkpt lat="53.452986" lon="05.816996"><ele>10.8</ele><time>2021-02-18T11:03:08Z</time><name>PT1542</name></trkpt>
<trkpt lat="53.452994" lon="05.816992"><ele>10.8</ele><time>2021-02-18T11:03:10Z</time><name>PT1543</name></trkpt>
<trkpt lat="53.453004" lon="05.816986"><ele>10.7</ele><time>2021-02-18T11:03:11Z</time><name>PT1544</name></trkpt>
<trkpt lat="53.453014" lon="05.816983"><ele>10.8</ele><time>2021-02-18T11:03:11Z</time><name>PT1545</name></trkpt>
<trkpt lat="53.453024" lon="05.816980"><ele>10.8</ele><time>2021-02-18T11:03:13Z</time><name>PT1546</name></trkpt>
<trkpt lat="53.453034" lon="05.816976"><ele>10.8</ele><time>2021-02-18T11:03:14Z</time><name>PT1547</name></trkpt>
<trkpt lat="53.453045" lon="05.816971"><ele>10.9</ele><time>2021-02-18T11:03:14Z</time><name>PT1548</name></trkpt>
<trkpt lat="53.453054" lon="05.816967"><ele>11.1</ele><time>2021-02-18T11:03:16Z</time><name>PT1549</name></trkpt>
<trkpt lat="53.453067" lon="05.816960"><ele>10.9</ele><time>2021-02-18T11:03:17Z</time><name>PT1550</name></trkpt>
<trkpt lat="53.453079" lon="05.816952"><ele>10.8</ele><time>2021-02-18T11:03:17Z</time><name>PT1551</name></trkpt>
<trkpt lat="53.453090" lon="05.816945"><ele>10.8</ele><time>2021-02-18T11:03:19Z</time><name>PT1552</name></trkpt>
<trkpt lat="53.453101" lon="05.816939"><ele>10.7</ele><time>2021-02-18T11:03:20Z</time><name>PT1553</name></trkpt>
<trkpt lat="53.453113" lon="05.816933"><ele>10.7</ele><time>2021-02-18T11:03:20Z</time><name>PT1554</name></trkpt>
<trkpt lat="53.453123" lon="05.816928"><ele>10.7</ele><time>2021-02-18T11:03:22Z</time><name>PT1555</name></trkpt>
<trkpt lat="53.453134" lon="05.816922"><ele>10.8</ele><time>2021-02-18T11:03:23Z</time><name>PT1556</name></trkpt>
<trkpt lat="53.453142" lon="05.816916"><ele>10.8</ele><time>2021-02-18T11:03:23Z</time><name>PT1557</name></trkpt>
<trkpt lat="53.453150" lon="05.816912"><ele>11</ele><time>2021-02-18T11:03:25Z</time><name>PT1558</name></trkpt>
<trkpt lat="53.453160" lon="05.816908"><ele>11.2</ele><time>2021-02-18T11:03:26Z</time><name>PT1559</name></trkpt>
<trkpt lat="53.453170" lon="05.816906"><ele>11</ele><time>2021-02-18T11:03:26Z</time><name>PT1560</name></trkpt>
<trkpt lat="53.453183" lon="05.816903"><ele>11</ele><time>2021-02-18T11:03:28Z</time><name>PT1561</name></trkpt>
<trkpt lat="53.453194" lon="05.816903"><ele>11</ele><time>2021-02-18T11:03:29Z</time><name>PT1562</name></trkpt>
<trkpt lat="53.453204" lon="05.816900"><ele>11.1</ele><time>2021-02-18T11:03:29Z</time><name>PT1563</name></trkpt>
<trkpt lat="53.453213" lon="05.816894"><ele>11.2</ele><time>2021-02-18T11:03:31Z</time><name>PT1564</name></trkpt>
<trkpt lat="53.453224" lon="05.816887"><ele>11.2</ele><time>2021-02-18T11:03:32Z</time><name>PT1565</name></trkpt>
<trkpt lat="53.453237" lon="05.816879"><ele>11.4</ele><time>2021-02-18T11:03:32Z</time><name>PT1566</name></trkpt>
<trkpt lat="53.453247" lon="05.816874"><ele>11.5</ele><time>2021-02-18T11:03:34Z</time><name>PT1567</name></trkpt>
<trkpt lat="53.453259" lon="05.816865"><ele>11.2</ele><time>2021-02-18T11:03:35Z</time><name>PT1568</name></trkpt>
<trkpt lat="53.453265" lon="05.816859"><ele>11.2</ele><time>2021-02-18T11:03:35Z</time><name>PT1569</name></trkpt>
<trkpt lat="53.453274" lon="05.816855"><ele>11.1</ele><time>2021-02-18T11:03:37Z</time><name>PT1570</name></trkpt>
<trkpt lat="53.453285" lon="05.816850"><ele>11.1</ele><time>2021-02-18T11:03:38Z</time><name>PT1571</name></trkpt>
<trkpt lat="53.453298" lon="05.816844"><ele>11.2</ele><time>2021-02-18T11:03:38Z</time><name>PT1572</name></trkpt>
<trkpt lat="53.453312" lon="05.816838"><ele>11.3</ele><time>2021-02-18T11:03:40Z</time><name>PT1573</name></trkpt>
<trkpt lat="53.453324" lon="05.816834"><ele>11.4</ele><time>2021-02-18T11:03:41Z</time><name>PT1574</name></trkpt>
<trkpt lat="53.453337" lon="05.816829"><ele>11.4</ele><time>2021-02-18T11:03:41Z</time><name>PT1575</name></trkpt>
<trkpt lat="53.453348" lon="05.816825"><ele>11.3</ele><time>2021-02-18T11:03:43Z</time><name>PT1576</name></trkpt>
<trkpt lat="53.453360" lon="05.816818"><ele>11.2</ele><time>2021-02-18T11:03:44Z</time><name>PT1577</name></trkpt>
<trkpt lat="53.453371" lon="05.816812"><ele>11.2</ele><time>2021-02-18T11:03:44Z</time><name>PT1578</name></trkpt>
<trkpt lat="53.453383" lon="05.816806"><ele>11.1</ele><time>2021-02-18T11:03:46Z</time><name>PT1579</name></trkpt>
<trkpt lat="53.453392" lon="05.816797"><ele>10.7</ele><time>2021-02-18T11:03:47Z</time><name>PT1580</name></trkpt>
<trkpt lat="53.453400" lon="05.816788"><ele>10.8</ele><time>2021-02-18T11:03:47Z</time><name>PT1581</name></trkpt>
<trkpt lat="53.453410" lon="05.816779"><ele>10.9</ele><time>2021-02-18T11:03:49Z</time><name>PT1582</name></trkpt>
<trkpt lat="53.453418" lon="05.816774"><ele>10.8</ele><time>2021-02-18T11:03:50Z</time><name>PT1583</name></trkpt>
<trkpt lat="53.453427" lon="05.816775"><ele>10.9</ele><time>2021-02-18T11:03:50Z</time><name>PT1584</name></trkpt>
<trkpt lat="53.453440" lon="05.816777"><ele>11.1</ele><time>2021-02-18T11:03:52Z</time><name>PT1585</name></trkpt>
<trkpt lat="53.453450" lon="05.816783"><ele>10.8</ele><time>2021-02-18T11:03:53Z</time><name>PT1586</name></trkpt>
<trkpt lat="53.453461" lon="05.816785"><ele>10.8</ele><time>2021-02-18T11:03:53Z</time><name>PT1587</name></trkpt>
<trkpt lat="53.453471" lon="05.816787"><ele>10.6</ele><time>2021-02-18T11:03:55Z</time><name>PT1588</name></trkpt>
<trkpt lat="53.453480" lon="05.816787"><ele>10.5</ele><time>2021-02-18T11:03:56Z</time><name>PT1589</name></trkpt>
<trkpt lat="53.453491" lon="05.816788"><ele>10.6</ele><time>2021-02-18T11:03:56Z</time><name>PT1590</name></trkpt>
<trkpt lat="53.453500" lon="05.816789"><ele>10.7</ele><time>2021-02-18T11:03:58Z</time><name>PT1591</name></trkpt>
<trkpt lat="53.453511" lon="05.816794"><ele>10.9</ele><time>2021-02-18T11:03:59Z</time><name>PT1592</name></trkpt>
<trkpt lat="53.453523" lon="05.816802"><ele>10.8</ele><time>2021-02-18T11:03:59Z</time><name>PT1593</name></trkpt>
<trkpt lat="53.453534" lon="05.816810"><ele>10.8</ele><time>2021-02-18T11:04:01Z</time><name>PT1594</name></trkpt>
<trkpt lat="53.453541" lon="05.816815"><ele>10.7</ele><time>2021-02-18T11:04:02Z</time><name>PT1595</name></trkpt>
<trkpt lat="53.453544" lon="05.816816"><ele>10.7</ele><time>2021-02-18T11:04:02Z</time><name>PT1596</name></trkpt>
<trkpt lat="53.453548" lon="05.816819"><ele>10.9</ele><time>2021-02-18T11:04:04Z</time><name>PT1597</name></trkpt>
<trkpt lat="53.453554" lon="05.816826"><ele>10.9</ele><time>2021-02-18T11:04:05Z</time><name>PT1598</name></trkpt>
<trkpt lat="53.453559" lon="05.816835"><ele>11.1</ele><time>2021-02-18T11:04:05Z</time><name>PT1599</name></trkpt>
<trkpt lat="53.453565" lon="05.816847"><ele>10.9</ele><time>2021-02-18T11:04:07Z</time><name>PT1600</name></trkpt>
<trkpt lat="53.453575" lon="05.816860"><ele>10.9</ele><time>2021-02-18T11:04:08Z</time><name>PT1601</name></trkpt>
<trkpt lat="53.453583" lon="05.816875"><ele>11</ele><time>2021-02-18T11:04:08Z</time><name>PT1602</name></trkpt>
<trkpt lat="53.453590" lon="05.816892"><ele>11</ele><time>2021-02-18T11:04:10Z</time><name>PT1603</name></trkpt>
<trkpt lat="53.453595" lon="05.816909"><ele>11.2</ele><time>2021-02-18T11:04:11Z</time><name>PT1604</name></trkpt>
<trkpt lat="53.453598" lon="05.816925"><ele>11.2</ele><time>2021-02-18T11:04:11Z</time><name>PT1605</name></trkpt>
<trkpt lat="53.453599" lon="05.816940"><ele>11.4</ele><time>2021-02-18T11:04:13Z</time><name>PT1606</name></trkpt>
<trkpt lat="53.453596" lon="05.816953"><ele>11.4</ele><time>2021-02-18T11:04:14Z</time><name>PT1607</name></trkpt>
<trkpt lat="53.453594" lon="05.816968"><ele>11.4</ele><time>2021-02-18T11:04:14Z</time><name>PT1608</name></trkpt>
<trkpt lat="53.453595" lon="05.816985"><ele>11.3</ele><time>2021-02-18T11:04:16Z</time><name>PT1609</name></trkpt>
<trkpt lat="53.453593" lon="05.817004"><ele>11.2</ele><time>2021-02-18T11:04:17Z</time><name>PT1610</name></trkpt>
<trkpt lat="53.453593" lon="05.817022"><ele>11.3</ele><time>2021-02-18T11:04:17Z</time><name>PT1611</name></trkpt>
<trkpt lat="53.453592" lon="05.817039"><ele>11.2</ele><time>2021-02-18T11:04:19Z</time><name>PT1612</name></trkpt>
<trkpt lat="53.453589" lon="05.817059"><ele>11.2</ele><time>2021-02-18T11:04:20Z</time><name>PT1613</name></trkpt>
<trkpt lat="53.453588" lon="05.817078"><ele>11.2</ele><time>2021-02-18T11:04:20Z</time><name>PT1614</name></trkpt>
<trkpt lat="53.453589" lon="05.817098"><ele>11.3</ele><time>2021-02-18T11:04:22Z</time><name>PT1615</name></trkpt>
<trkpt lat="53.453589" lon="05.817117"><ele>11.5</ele><time>2021-02-18T11:04:23Z</time><name>PT1616</name></trkpt>
<trkpt lat="53.453589" lon="05.817136"><ele>11.7</ele><time>2021-02-18T11:04:23Z</time><name>PT1617</name></trkpt>
<trkpt lat="53.453588" lon="05.817155"><ele>11.7</ele><time>2021-02-18T11:04:25Z</time><name>PT1618</name></trkpt>
<trkpt lat="53.453587" lon="05.817173"><ele>11.8</ele><time>2021-02-18T11:04:26Z</time><name>PT1619</name></trkpt>
<trkpt lat="53.453585" lon="05.817191"><ele>11.9</ele><time>2021-02-18T11:04:26Z</time><name>PT1620</name></trkpt>
<trkpt lat="53.453584" lon="05.817208"><ele>11.7</ele><time>2021-02-18T11:04:28Z</time><name>PT1621</name></trkpt>
<trkpt lat="53.453583" lon="05.817224"><ele>11.5</ele><time>2021-02-18T11:04:29Z</time><name>PT1622</name></trkpt>
<trkpt lat="53.453582" lon="05.817241"><ele>11.4</ele><time>2021-02-18T11:04:29Z</time><name>PT1623</name></trkpt>
<trkpt lat="53.453581" lon="05.817257"><ele>11.5</ele><time>2021-02-18T11:04:31Z</time><name>PT1624</name></trkpt>
<trkpt lat="53.453581" lon="05.817276"><ele>11.6</ele><time>2021-02-18T11:04:32Z</time><name>PT1625</name></trkpt>
<trkpt lat="53.453581" lon="05.817294"><ele>11.5</ele><time>2021-02-18T11:04:32Z</time><name>PT1626</name></trkpt>
<trkpt lat="53.453580" lon="05.817310"><ele>11.3</ele><time>2021-02-18T11:04:34Z</time><name>PT1627</name></trkpt>
<trkpt lat="53.453579" lon="05.817327"><ele>11.2</ele><time>2021-02-18T11:04:35Z</time><name>PT1628</name></trkpt>
<trkpt lat="53.453577" lon="05.817344"><ele>11.2</ele><time>2021-02-18T11:04:35Z</time><name>PT1629</name></trkpt>
<trkpt lat="53.453575" lon="05.817361"><ele>11.2</ele><time>2021-02-18T11:04:37Z</time><name>PT1630</name></trkpt>
<trkpt lat="53.453572" lon="05.817380"><ele>11.2</ele><time>2021-02-18T11:04:38Z</time><name>PT1631</name></trkpt>
<trkpt lat="53.453569" lon="05.817400"><ele>11.2</ele><time>2021-02-18T11:04:38Z</time><name>PT1632</name></trkpt>
<trkpt lat="53.453566" lon="05.817422"><ele>11.3</ele><time>2021-02-18T11:04:40Z</time><name>PT1633</name></trkpt>
<trkpt lat="53.453564" lon="05.817445"><ele>11.5</ele><time>2021-02-18T11:04:41Z</time><name>PT1634</name></trkpt>
<trkpt lat="53.453562" lon="05.817466"><ele>11.4</ele><time>2021-02-18T11:04:41Z</time><name>PT1635</name></trkpt>
<trkpt lat="53.453561" lon="05.817484"><ele>11.7</ele><time>2021-02-18T11:04:43Z</time><name>PT1636</name></trkpt>
<trkpt lat="53.453557" lon="05.817503"><ele>11.7</ele><time>2021-02-18T11:04:44Z</time><name>PT1637</name></trkpt>
<trkpt lat="53.453555" lon="05.817522"><ele>11.7</ele><time>2021-02-18T11:04:44Z</time><name>PT1638</name></trkpt>
<trkpt lat="53.453553" lon="05.817541"><ele>11.9</ele><time>2021-02-18T11:04:46Z</time><name>PT1639</name></trkpt>
<trkpt lat="53.453552" lon="05.817562"><ele>11.7</ele><time>2021-02-18T11:04:47Z</time><name>PT1640</name></trkpt>
<trkpt lat="53.453552" lon="05.817582"><ele>11.7</ele><time>2021-02-18T11:04:47Z</time><name>PT1641</name></trkpt>
<trkpt lat="53.453552" lon="05.817600"><ele>11.7</ele><time>2021-02-18T11:04:49Z</time><name>PT1642</name></trkpt>
<trkpt lat="53.453551" lon="05.817618"><ele>11.3</ele><time>2021-02-18T11:04:50Z</time><name>PT1643</name></trkpt>
<trkpt lat="53.453547" lon="05.817635"><ele>11.2</ele><time>2021-02-18T11:04:50Z</time><name>PT1644</name></trkpt>
<trkpt lat="53.453544" lon="05.817652"><ele>11</ele><time>2021-02-18T11:04:52Z</time><name>PT1645</name></trkpt>
<trkpt lat="53.453541" lon="05.817670"><ele>10.8</ele><time>2021-02-18T11:04:53Z</time><name>PT1646</name></trkpt>
<trkpt lat="53.453539" lon="05.817689"><ele>10.9</ele><time>2021-02-18T11:04:53Z</time><name>PT1647</name></trkpt>
<trkpt lat="53.453536" lon="05.817709"><ele>10.9</ele><time>2021-02-18T11:04:55Z</time><name>PT1648</name></trkpt>
<trkpt lat="53.453533" lon="05.817733"><ele>11</ele><time>2021-02-18T11:04:56Z</time><name>PT1649</name></trkpt>
<trkpt lat="53.453530" lon="05.817756"><ele>11</ele><time>2021-02-18T11:04:56Z</time><name>PT1650</name></trkpt>
<trkpt lat="53.453527" lon="05.817778"><ele>11.1</ele><time>2021-02-18T11:04:58Z</time><name>PT1651</name></trkpt>
<trkpt lat="53.453525" lon="05.817801"><ele>11.1</ele><time>2021-02-18T11:04:59Z</time><name>PT1652</name></trkpt>
<trkpt lat="53.453523" lon="05.817825"><ele>11</ele><time>2021-02-18T11:04:59Z</time><name>PT1653</name></trkpt>
<trkpt lat="53.453521" lon="05.817847"><ele>11.3</ele><time>2021-02-18T11:05:01Z</time><name>PT1654</name></trkpt>
<trkpt lat="53.453520" lon="05.817871"><ele>11.5</ele><time>2021-02-18T11:05:02Z</time><name>PT1655</name></trkpt>
<trkpt lat="53.453519" lon="05.817894"><ele>11.6</ele><time>2021-02-18T11:05:02Z</time><name>PT1656</name></trkpt>
<trkpt lat="53.453517" lon="05.817916"><ele>11.7</ele><time>2021-02-18T11:05:04Z</time><name>PT1657</name></trkpt>
<trkpt lat="53.453516" lon="05.817938"><ele>11.6</ele><time>2021-02-18T11:05:05Z</time><name>PT1658</name></trkpt>
<trkpt lat="53.453514" lon="05.817958"><ele>11.6</ele><time>2021-02-18T11:05:05Z</time><name>PT1659</name></trkpt>
<trkpt lat="53.453513" lon="05.817978"><ele>11.8</ele><time>2021-02-18T11:05:07Z</time><name>PT1660</name></trkpt>
<trkpt lat="53.453513" lon="05.817998"><ele>11.9</ele><time>2021-02-18T11:05:08Z</time><name>PT1661</name></trkpt>
<trkpt lat="53.453512" lon="05.818016"><ele>12</ele><time>2021-02-18T11:05:08Z</time><name>PT1662</name></trkpt>
<trkpt lat="53.453512" lon="05.818032"><ele>11.9</ele><time>2021-02-18T11:05:10Z</time><name>PT1663</name></trkpt>
<trkpt lat="53.453511" lon="05.818049"><ele>11.7</ele><time>2021-02-18T11:05:11Z</time><name>PT1664</name></trkpt>
<trkpt lat="53.453510" lon="05.818066"><ele>11.7</ele><time>2021-02-18T11:05:11Z</time><name>PT1665</name></trkpt>
<trkpt lat="53.453507" lon="05.818082"><ele>11.7</ele><time>2021-02-18T11:05:13Z</time><name>PT1666</name></trkpt>
<trkpt lat="53.453504" lon="05.818100"><ele>11.6</ele><time>2021-02-18T11:05:14Z</time><name>PT1667</name></trkpt>
<trkpt lat="53.453501" lon="05.818120"><ele>11.6</ele><time>2021-02-18T11:05:14Z</time><name>PT1668</name></trkpt>
<trkpt lat="53.453498" lon="05.818142"><ele>11.7</ele><time>2021-02-18T11:05:16Z</time><name>PT1669</name></trkpt>
<trkpt lat="53.453496" lon="05.818163"><ele>11.6</ele><time>2021-02-18T11:05:17Z</time><name>PT1670</name></trkpt>
<trkpt lat="53.453493" lon="05.818180"><ele>11.5</ele><time>2021-02-18T11:05:17Z</time><name>PT1671</name></trkpt>
<trkpt lat="53.453491" lon="05.818201"><ele>11.7</ele><time>2021-02-18T11:05:19Z</time><name>PT1672</name></trkpt>
<trkpt lat="53.453488" lon="05.818220"><ele>11.9</ele><time>2021-02-18T11:05:20Z</time><name>PT1673</name></trkpt>
<trkpt lat="53.453486" lon="05.818240"><ele>11.7</ele><time>2021-02-18T11:05:20Z</time><name>PT1674</name></trkpt>
<trkpt lat="53.453483" lon="05.818261"><ele>11.7</ele><time>2021-02-18T11:05:22Z</time><name>PT1675</name></trkpt>
<trkpt lat="53.453480" lon="05.818284"><ele>11.7</ele><time>2021-02-18T11:05:23Z</time><name>PT1676</name></trkpt>
<trkpt lat="53.453477" lon="05.818305"><ele>11.6</ele><time>2021-02-18T11:05:23Z</time><name>PT1677</name></trkpt>
<trkpt lat="53.453475" lon="05.818326"><ele>11.6</ele><time>2021-02-18T11:05:25Z</time><name>PT1678</name></trkpt>
<trkpt lat="53.453473" lon="05.818348"><ele>11.5</ele><time>2021-02-18T11:05:26Z</time><name>PT1679</name></trkpt>
<trkpt lat="53.453471" lon="05.818369"><ele>11.5</ele><time>2021-02-18T11:05:26Z</time><name>PT1680</name></trkpt>
<trkpt lat="53.453471" lon="05.818391"><ele>11.7</ele><time>2021-02-18T11:05:28Z</time><name>PT1681</name></trkpt>
<trkpt lat="53.453470" lon="05.818413"><ele>11.8</ele><time>2021-02-18T11:05:29Z</time><name>PT1682</name></trkpt>
<trkpt lat="53.453469" lon="05.818434"><ele>11.9</ele><time>2021-02-18T11:05:29Z</time><name>PT1683</name></trkpt>
<trkpt lat="53.453469" lon="05.818458"><ele>12.2</ele><time>2021-02-18T11:05:31Z</time><name>PT1684</name></trkpt>
<trkpt lat="53.453469" lon="05.818478"><ele>12.2</ele><time>2021-02-18T11:05:32Z</time><name>PT1685</name></trkpt>
<trkpt lat="53.453469" lon="05.818496"><ele>12.2</ele><time>2021-02-18T11:05:32Z</time><name>PT1686</name></trkpt>
<trkpt lat="53.453468" lon="05.818517"><ele>12.4</ele><time>2021-02-18T11:05:34Z</time><name>PT1687</name></trkpt>
<trkpt lat="53.453467" lon="05.818537"><ele>12.5</ele><time>2021-02-18T11:05:35Z</time><name>PT1688</name></trkpt>
<trkpt lat="53.453467" lon="05.818555"><ele>12.6</ele><time>2021-02-18T11:05:35Z</time><name>PT1689</name></trkpt>
<trkpt lat="53.453467" lon="05.818567"><ele>12.6</ele><time>2021-02-18T11:05:37Z</time><name>PT1690</name></trkpt>
<trkpt lat="53.453467" lon="05.818582"><ele>12.5</ele><time>2021-02-18T11:05:38Z</time><name>PT1691</name></trkpt>
<trkpt lat="53.453464" lon="05.818598"><ele>12.3</ele><time>2021-02-18T11:05:38Z</time><name>PT1692</name></trkpt>
<trkpt lat="53.453463" lon="05.818615"><ele>12.3</ele><time>2021-02-18T11:05:40Z</time><name>PT1693</name></trkpt>
<trkpt lat="53.453459" lon="05.818633"><ele>12.3</ele><time>2021-02-18T11:05:41Z</time><name>PT1694</name></trkpt>
<trkpt lat="53.453456" lon="05.818651"><ele>12.4</ele><time>2021-02-18T11:05:41Z</time><name>PT1695</name></trkpt>
<trkpt lat="53.453453" lon="05.818672"><ele>12.4</ele><time>2021-02-18T11:05:43Z</time><name>PT1696</name></trkpt>
<trkpt lat="53.453451" lon="05.818693"><ele>12.2</ele><time>2021-02-18T11:05:44Z</time><name>PT1697</name></trkpt>
<trkpt lat="53.453450" lon="05.818713"><ele>12.2</ele><time>2021-02-18T11:05:44Z</time><name>PT1698</name></trkpt>
<trkpt lat="53.453447" lon="05.818733"><ele>12.2</ele><time>2021-02-18T11:05:46Z</time><name>PT1699</name></trkpt>
<trkpt lat="53.453443" lon="05.818752"><ele>12.2</ele><time>2021-02-18T11:05:47Z</time><name>PT1700</name></trkpt>
<trkpt lat="53.453440" lon="05.818770"><ele>12.2</ele><time>2021-02-18T11:05:47Z</time><name>PT1701</name></trkpt>
<trkpt lat="53.453438" lon="05.818790"><ele>12.2</ele><time>2021-02-18T11:05:49Z</time><name>PT1702</name></trkpt>
<trkpt lat="53.453436" lon="05.818809"><ele>12</ele><time>2021-02-18T11:05:50Z</time><name>PT1703</name></trkpt>
<trkpt lat="53.453434" lon="05.818833"><ele>11.7</ele><time>2021-02-18T11:05:50Z</time><name>PT1704</name></trkpt>
<trkpt lat="53.453434" lon="05.818857"><ele>11.7</ele><time>2021-02-18T11:05:52Z</time><name>PT1705</name></trkpt>
<trkpt lat="53.453433" lon="05.818878"><ele>11.4</ele><time>2021-02-18T11:05:53Z</time><name>PT1706</name></trkpt>
<trkpt lat="53.453431" lon="05.818898"><ele>11.2</ele><time>2021-02-18T11:05:53Z</time><name>PT1707</name></trkpt>
<trkpt lat="53.453430" lon="05.818918"><ele>11.4</ele><time>2021-02-18T11:05:55Z</time><name>PT1708</name></trkpt>
<trkpt lat="53.453429" lon="05.818937"><ele>11.4</ele><time>2021-02-18T11:05:56Z</time><name>PT1709</name></trkpt>
<trkpt lat="53.453428" lon="05.818957"><ele>11.4</ele><time>2021-02-18T11:05:56Z</time><name>PT1710</name></trkpt>
<trkpt lat="53.453428" lon="05.818975"><ele>11.7</ele><time>2021-02-18T11:05:58Z</time><name>PT1711</name></trkpt>
<trkpt lat="53.453428" lon="05.818993"><ele>11.9</ele><time>2021-02-18T11:05:59Z</time><name>PT1712</name></trkpt>
<trkpt lat="53.453426" lon="05.819010"><ele>12</ele><time>2021-02-18T11:05:59Z</time><name>PT1713</name></trkpt>
<trkpt lat="53.453423" lon="05.819027"><ele>12.1</ele><time>2021-02-18T11:06:01Z</time><name>PT1714</name></trkpt>
<trkpt lat="53.453420" lon="05.819044"><ele>12.1</ele><time>2021-02-18T11:06:02Z</time><name>PT1715</name></trkpt>
<trkpt lat="53.453420" lon="05.819063"><ele>12.1</ele><time>2021-02-18T11:06:02Z</time><name>PT1716</name></trkpt>
<trkpt lat="53.453417" lon="05.819083"><ele>12</ele><time>2021-02-18T11:06:04Z</time><name>PT1717</name></trkpt>
<trkpt lat="53.453415" lon="05.819105"><ele>11.9</ele><time>2021-02-18T11:06:05Z</time><name>PT1718</name></trkpt>
<trkpt lat="53.453416" lon="05.819128"><ele>11.9</ele><time>2021-02-18T11:06:05Z</time><name>PT1719</name></trkpt>
<trkpt lat="53.453414" lon="05.819151"><ele>11.9</ele><time>2021-02-18T11:06:07Z</time><name>PT1720</name></trkpt>
<trkpt lat="53.453413" lon="05.819173"><ele>11.7</ele><time>2021-02-18T11:06:08Z</time><name>PT1721</name></trkpt>
<trkpt lat="53.453413" lon="05.819195"><ele>11.8</ele><time>2021-02-18T11:06:08Z</time><name>PT1722</name></trkpt>
<trkpt lat="53.453411" lon="05.819216"><ele>11.9</ele><time>2021-02-18T11:06:10Z</time><name>PT1723</name></trkpt>
<trkpt lat="53.453409" lon="05.819237"><ele>12.1</ele><time>2021-02-18T11:06:11Z</time><name>PT1724</name></trkpt>
<trkpt lat="53.453407" lon="05.819259"><ele>12.2</ele><time>2021-02-18T11:06:11Z</time><name>PT1725</name></trkpt>
<trkpt lat="53.453405" lon="05.819281"><ele>12.2</ele><time>2021-02-18T11:06:13Z</time><name>PT1726</name></trkpt>
<trkpt lat="53.453402" lon="05.819301"><ele>12.2</ele><time>2021-02-18T11:06:14Z</time><name>PT1727</name></trkpt>
<trkpt lat="53.453402" lon="05.819322"><ele>12.2</ele><time>2021-02-18T11:06:14Z</time><name>PT1728</name></trkpt>
<trkpt lat="53.453399" lon="05.819342"><ele>12</ele><time>2021-02-18T11:06:16Z</time><name>PT1729</name></trkpt>
<trkpt lat="53.453398" lon="05.819364"><ele>12.1</ele><time>2021-02-18T11:06:17Z</time><name>PT1730</name></trkpt>
<trkpt lat="53.453396" lon="05.819386"><ele>11.9</ele><time>2021-02-18T11:06:17Z</time><name>PT1731</name></trkpt>
<trkpt lat="53.453395" lon="05.819406"><ele>11.7</ele><time>2021-02-18T11:06:19Z</time><name>PT1732</name></trkpt>
<trkpt lat="53.453396" lon="05.819424"><ele>11.6</ele><time>2021-02-18T11:06:20Z</time><name>PT1733</name></trkpt>
<trkpt lat="53.453396" lon="05.819444"><ele>11.7</ele><time>2021-02-18T11:06:20Z</time><name>PT1734</name></trkpt>
<trkpt lat="53.453395" lon="05.819464"><ele>11.6</ele><time>2021-02-18T11:06:22Z</time><name>PT1735</name></trkpt>
<trkpt lat="53.453393" lon="05.819482"><ele>11.8</ele><time>2021-02-18T11:06:23Z</time><name>PT1736</name></trkpt>
<trkpt lat="53.453390" lon="05.819497"><ele>11.8</ele><time>2021-02-18T11:06:23Z</time><name>PT1737</name></trkpt>
<trkpt lat="53.453388" lon="05.819513"><ele>12</ele><time>2021-02-18T11:06:25Z</time><name>PT1738</name></trkpt>
<trkpt lat="53.453386" lon="05.819529"><ele>12.6</ele><time>2021-02-18T11:06:26Z</time><name>PT1739</name></trkpt>
<trkpt lat="53.453384" lon="05.819534"><ele>12.3</ele><time>2021-02-18T11:06:26Z</time><name>PT1740</name></trkpt>
<trkpt lat="53.453386" lon="05.819542"><ele>11.8</ele><time>2021-02-18T11:06:28Z</time><name>PT1741</name></trkpt>
<trkpt lat="53.453384" lon="05.819552"><ele>10.7</ele><time>2021-02-18T11:06:29Z</time><name>PT1742</name></trkpt>
<trkpt lat="53.453384" lon="05.819557"><ele>9.9</ele><time>2021-02-18T11:06:29Z</time><name>PT1743</name></trkpt>
<trkpt lat="53.453380" lon="05.819557"><ele>9.3</ele><time>2021-02-18T11:06:32Z</time><name>PT1744</name></trkpt>
<trkpt lat="53.453380" lon="05.819568"><ele>9.6</ele><time>2021-02-18T11:06:34Z</time><name>PT1745</name></trkpt>
<trkpt lat="53.453376" lon="05.819575"><ele>10.1</ele><time>2021-02-18T11:06:35Z</time><name>PT1746</name></trkpt>
<trkpt lat="53.453376" lon="05.819581"><ele>10.2</ele><time>2021-02-18T11:06:35Z</time><name>PT1747</name></trkpt>
<trkpt lat="53.453375" lon="05.819591"><ele>10.8</ele><time>2021-02-18T11:06:37Z</time><name>PT1748</name></trkpt>
<trkpt lat="53.453374" lon="05.819608"><ele>11.6</ele><time>2021-02-18T11:06:38Z</time><name>PT1749</name></trkpt>
<trkpt lat="53.453375" lon="05.819628"><ele>11.8</ele><time>2021-02-18T11:06:38Z</time><name>PT1750</name></trkpt>
<trkpt lat="53.453376" lon="05.819648"><ele>12.2</ele><time>2021-02-18T11:06:40Z</time><name>PT1751</name></trkpt>
<trkpt lat="53.453377" lon="05.819668"><ele>12.4</ele><time>2021-02-18T11:06:41Z</time><name>PT1752</name></trkpt>
<trkpt lat="53.453379" lon="05.819686"><ele>12.4</ele><time>2021-02-18T11:06:41Z</time><name>PT1753</name></trkpt>
<trkpt lat="53.453379" lon="05.819702"><ele>12.5</ele><time>2021-02-18T11:06:43Z</time><name>PT1754</name></trkpt>
<trkpt lat="53.453377" lon="05.819717"><ele>12.3</ele><time>2021-02-18T11:06:44Z</time><name>PT1755</name></trkpt>
<trkpt lat="53.453376" lon="05.819733"><ele>12.3</ele><time>2021-02-18T11:06:44Z</time><name>PT1756</name></trkpt>
<trkpt lat="53.453375" lon="05.819750"><ele>12.2</ele><time>2021-02-18T11:06:46Z</time><name>PT1757</name></trkpt>
<trkpt lat="53.453374" lon="05.819755"><ele>11.5</ele><time>2021-02-18T11:06:47Z</time><name>PT1758</name></trkpt>
<trkpt lat="53.453375" lon="05.819759"><ele>11.1</ele><time>2021-02-18T11:06:47Z</time><name>PT1759</name></trkpt>
<trkpt lat="53.453376" lon="05.819767"><ele>10.9</ele><time>2021-02-18T11:06:49Z</time><name>PT1760</name></trkpt>
<trkpt lat="53.453377" lon="05.819780"><ele>11.2</ele><time>2021-02-18T11:06:50Z</time><name>PT1761</name></trkpt>
<trkpt lat="53.453378" lon="05.819799"><ele>11.5</ele><time>2021-02-18T11:06:50Z</time><name>PT1762</name></trkpt>
<trkpt lat="53.453379" lon="05.819809"><ele>12.2</ele><time>2021-02-18T11:06:52Z</time><name>PT1763</name></trkpt>
<trkpt lat="53.453378" lon="05.819815"><ele>12.4</ele><time>2021-02-18T11:06:53Z</time><name>PT1764</name></trkpt>
<trkpt lat="53.453380" lon="05.819815"><ele>12.3</ele><time>2021-02-18T11:06:53Z</time><name>PT1765</name></trkpt>
<trkpt lat="53.453384" lon="05.819820"><ele>12.2</ele><time>2021-02-18T11:06:55Z</time><name>PT1766</name></trkpt>
<trkpt lat="53.453388" lon="05.819836"><ele>12.3</ele><time>2021-02-18T11:06:56Z</time><name>PT1767</name></trkpt>
<trkpt lat="53.453393" lon="05.819855"><ele>12.3</ele><time>2021-02-18T11:06:56Z</time><name>PT1768</name></trkpt>
<trkpt lat="53.453398" lon="05.819873"><ele>12.2</ele><time>2021-02-18T11:06:58Z</time><name>PT1769</name></trkpt>
<trkpt lat="53.453402" lon="05.819894"><ele>12.1</ele><time>2021-02-18T11:06:59Z</time><name>PT1770</name></trkpt>
<trkpt lat="53.453407" lon="05.819910"><ele>12.2</ele><time>2021-02-18T11:06:59Z</time><name>PT1771</name></trkpt>
<trkpt lat="53.453406" lon="05.819913"><ele>12.2</ele><time>2021-02-18T11:07:01Z</time><name>PT1772</name></trkpt>
<trkpt lat="53.453405" lon="05.819910"><ele>12.2</ele><time>2021-02-18T11:07:02Z</time><name>PT1773</name></trkpt>
<trkpt lat="53.453402" lon="05.819912"><ele>12.3</ele><time>2021-02-18T11:07:02Z</time><name>PT1774</name></trkpt>
<trkpt lat="53.453403" lon="05.819913"><ele>12.4</ele><time>2021-02-18T11:07:04Z</time><name>PT1775</name></trkpt>
<trkpt lat="53.453401" lon="05.819908"><ele>12.2</ele><time>2021-02-18T11:07:14Z</time><name>PT1776</name></trkpt>
<trkpt lat="53.453398" lon="05.819908"><ele>12.3</ele><time>2021-02-18T11:07:14Z</time><name>PT1777</name></trkpt>
<trkpt lat="53.453398" lon="05.819907"><ele>12.4</ele><time>2021-02-18T11:07:16Z</time><name>PT1778</name></trkpt>
<trkpt lat="53.453398" lon="05.819908"><ele>12.4</ele><time>2021-02-18T11:07:17Z</time><name>PT1779</name></trkpt>
<trkpt lat="53.453399" lon="05.819915"><ele>12.9</ele><time>2021-02-18T11:07:32Z</time><name>PT1780</name></trkpt>
<trkpt lat="53.453404" lon="05.819932"><ele>13</ele><time>2021-02-18T11:07:32Z</time><name>PT1781</name></trkpt>
<trkpt lat="53.453410" lon="05.819950"><ele>13.1</ele><time>2021-02-18T11:07:34Z</time><name>PT1782</name></trkpt>
<trkpt lat="53.453419" lon="05.819960"><ele>13</ele><time>2021-02-18T11:07:35Z</time><name>PT1783</name></trkpt>
<trkpt lat="53.453427" lon="05.819976"><ele>13</ele><time>2021-02-18T11:07:35Z</time><name>PT1784</name></trkpt>
<trkpt lat="53.453434" lon="05.819992"><ele>12.9</ele><time>2021-02-18T11:07:37Z</time><name>PT1785</name></trkpt>
<trkpt lat="53.453441" lon="05.820006"><ele>12.8</ele><time>2021-02-18T11:07:38Z</time><name>PT1786</name></trkpt>
<trkpt lat="53.453448" lon="05.820020"><ele>12.7</ele><time>2021-02-18T11:07:38Z</time><name>PT1787</name></trkpt>
<trkpt lat="53.453455" lon="05.820034"><ele>12.3</ele><time>2021-02-18T11:07:40Z</time><name>PT1788</name></trkpt>
<trkpt lat="53.453463" lon="05.820047"><ele>12.1</ele><time>2021-02-18T11:07:41Z</time><name>PT1789</name></trkpt>
<trkpt lat="53.453471" lon="05.820059"><ele>12.1</ele><time>2021-02-18T11:07:41Z</time><name>PT1790</name></trkpt>
<trkpt lat="53.453479" lon="05.820073"><ele>11.7</ele><time>2021-02-18T11:07:43Z</time><name>PT1791</name></trkpt>
<trkpt lat="53.453488" lon="05.820086"><ele>11.7</ele><time>2021-02-18T11:07:44Z</time><name>PT1792</name></trkpt>
<trkpt lat="53.453496" lon="05.820098"><ele>11.7</ele><time>2021-02-18T11:07:44Z</time><name>PT1793</name></trkpt>
<trkpt lat="53.453503" lon="05.820109"><ele>11.5</ele><time>2021-02-18T11:07:46Z</time><name>PT1794</name></trkpt>
<trkpt lat="53.453512" lon="05.820120"><ele>11.4</ele><time>2021-02-18T11:07:47Z</time><name>PT1795</name></trkpt>
<trkpt lat="53.453520" lon="05.820132"><ele>11.4</ele><time>2021-02-18T11:07:47Z</time><name>PT1796</name></trkpt>
<trkpt lat="53.453529" lon="05.820144"><ele>11.4</ele><time>2021-02-18T11:07:49Z</time><name>PT1797</name></trkpt>
<trkpt lat="53.453539" lon="05.820156"><ele>11.8</ele><time>2021-02-18T11:07:50Z</time><name>PT1798</name></trkpt>
<trkpt lat="53.453546" lon="05.820168"><ele>11.8</ele><time>2021-02-18T11:07:50Z</time><name>PT1799</name></trkpt>
<trkpt lat="53.453553" lon="05.820180"><ele>12.1</ele><time>2021-02-18T11:07:52Z</time><name>PT1800</name></trkpt>
<trkpt lat="53.453562" lon="05.820193"><ele>12.2</ele><time>2021-02-18T11:07:53Z</time><name>PT1801</name></trkpt>
<trkpt lat="53.453571" lon="05.820208"><ele>12.2</ele><time>2021-02-18T11:07:53Z</time><name>PT1802</name></trkpt>
<trkpt lat="53.453581" lon="05.820222"><ele>11.9</ele><time>2021-02-18T11:07:55Z</time><name>PT1803</name></trkpt>
<trkpt lat="53.453590" lon="05.820234"><ele>11.7</ele><time>2021-02-18T11:07:56Z</time><name>PT1804</name></trkpt>
<trkpt lat="53.453598" lon="05.820248"><ele>11.3</ele><time>2021-02-18T11:07:56Z</time><name>PT1805</name></trkpt>
<trkpt lat="53.453608" lon="05.820263"><ele>11.3</ele><time>2021-02-18T11:07:58Z</time><name>PT1806</name></trkpt>
<trkpt lat="53.453618" lon="05.820278"><ele>11.4</ele><time>2021-02-18T11:07:59Z</time><name>PT1807</name></trkpt>
<trkpt lat="53.453627" lon="05.820293"><ele>11.4</ele><time>2021-02-18T11:07:59Z</time><name>PT1808</name></trkpt>
<trkpt lat="53.453635" lon="05.820308"><ele>11.3</ele><time>2021-02-18T11:08:01Z</time><name>PT1809</name></trkpt>
<trkpt lat="53.453643" lon="05.820322"><ele>11.3</ele><time>2021-02-18T11:08:02Z</time><name>PT1810</name></trkpt>
<trkpt lat="53.453653" lon="05.820336"><ele>11.2</ele><time>2021-02-18T11:08:02Z</time><name>PT1811</name></trkpt>
<trkpt lat="53.453662" lon="05.820346"><ele>11.3</ele><time>2021-02-18T11:08:04Z</time><name>PT1812</name></trkpt>
<trkpt lat="53.453671" lon="05.820356"><ele>11.3</ele><time>2021-02-18T11:08:05Z</time><name>PT1813</name></trkpt>
<trkpt lat="53.453681" lon="05.820368"><ele>11.5</ele><time>2021-02-18T11:08:05Z</time><name>PT1814</name></trkpt>
<trkpt lat="53.453691" lon="05.820381"><ele>11.6</ele><time>2021-02-18T11:08:07Z</time><name>PT1815</name></trkpt>
<trkpt lat="53.453698" lon="05.820395"><ele>11.4</ele><time>2021-02-18T11:08:08Z</time><name>PT1816</name></trkpt>
<trkpt lat="53.453707" lon="05.820409"><ele>11.5</ele><time>2021-02-18T11:08:08Z</time><name>PT1817</name></trkpt>
<trkpt lat="53.453715" lon="05.820422"><ele>11.5</ele><time>2021-02-18T11:08:10Z</time><name>PT1818</name></trkpt>
<trkpt lat="53.453725" lon="05.820434"><ele>11.4</ele><time>2021-02-18T11:08:11Z</time><name>PT1819</name></trkpt>
<trkpt lat="53.453735" lon="05.820447"><ele>11.3</ele><time>2021-02-18T11:08:11Z</time><name>PT1820</name></trkpt>
<trkpt lat="53.453745" lon="05.820458"><ele>11.5</ele><time>2021-02-18T11:08:13Z</time><name>PT1821</name></trkpt>
<trkpt lat="53.453754" lon="05.820468"><ele>11.7</ele><time>2021-02-18T11:08:14Z</time><name>PT1822</name></trkpt>
<trkpt lat="53.453764" lon="05.820478"><ele>11.6</ele><time>2021-02-18T11:08:14Z</time><name>PT1823</name></trkpt>
<trkpt lat="53.453772" lon="05.820488"><ele>11.6</ele><time>2021-02-18T11:08:16Z</time><name>PT1824</name></trkpt>
<trkpt lat="53.453779" lon="05.820500"><ele>11.4</ele><time>2021-02-18T11:08:17Z</time><name>PT1825</name></trkpt>
<trkpt lat="53.453787" lon="05.820514"><ele>11.5</ele><time>2021-02-18T11:08:17Z</time><name>PT1826</name></trkpt>
<trkpt lat="53.453795" lon="05.820526"><ele>11.5</ele><time>2021-02-18T11:08:19Z</time><name>PT1827</name></trkpt>
<trkpt lat="53.453804" lon="05.820537"><ele>11.5</ele><time>2021-02-18T11:08:20Z</time><name>PT1828</name></trkpt>
<trkpt lat="53.453814" lon="05.820551"><ele>11.6</ele><time>2021-02-18T11:08:20Z</time><name>PT1829</name></trkpt>
<trkpt lat="53.453824" lon="05.820562"><ele>11.5</ele><time>2021-02-18T11:08:22Z</time><name>PT1830</name></trkpt>
<trkpt lat="53.453835" lon="05.820575"><ele>11.3</ele><time>2021-02-18T11:08:23Z</time><name>PT1831</name></trkpt>
<trkpt lat="53.453844" lon="05.820586"><ele>11.3</ele><time>2021-02-18T11:08:23Z</time><name>PT1832</name></trkpt>
<trkpt lat="53.453854" lon="05.820599"><ele>11.5</ele><time>2021-02-18T11:08:25Z</time><name>PT1833</name></trkpt>
<trkpt lat="53.453864" lon="05.820611"><ele>11.6</ele><time>2021-02-18T11:08:26Z</time><name>PT1834</name></trkpt>
<trkpt lat="53.453873" lon="05.820620"><ele>11.7</ele><time>2021-02-18T11:08:26Z</time><name>PT1835</name></trkpt>
<trkpt lat="53.453881" lon="05.820632"><ele>11.7</ele><time>2021-02-18T11:08:28Z</time><name>PT1836</name></trkpt>
<trkpt lat="53.453891" lon="05.820646"><ele>11.7</ele><time>2021-02-18T11:08:29Z</time><name>PT1837</name></trkpt>
<trkpt lat="53.453900" lon="05.820660"><ele>11.7</ele><time>2021-02-18T11:08:29Z</time><name>PT1838</name></trkpt>
<trkpt lat="53.453909" lon="05.820674"><ele>11.9</ele><time>2021-02-18T11:08:31Z</time><name>PT1839</name></trkpt>
<trkpt lat="53.453918" lon="05.820690"><ele>11.7</ele><time>2021-02-18T11:08:32Z</time><name>PT1840</name></trkpt>
<trkpt lat="53.453924" lon="05.820703"><ele>11.8</ele><time>2021-02-18T11:08:32Z</time><name>PT1841</name></trkpt>
<trkpt lat="53.453932" lon="05.820716"><ele>11.7</ele><time>2021-02-18T11:08:34Z</time><name>PT1842</name></trkpt>
<trkpt lat="53.453940" lon="05.820729"><ele>11.7</ele><time>2021-02-18T11:08:35Z</time><name>PT1843</name></trkpt>
<trkpt lat="53.453949" lon="05.820740"><ele>11.7</ele><time>2021-02-18T11:08:35Z</time><name>PT1844</name></trkpt>
<trkpt lat="53.453961" lon="05.820755"><ele>11.7</ele><time>2021-02-18T11:08:37Z</time><name>PT1845</name></trkpt>
<trkpt lat="53.453970" lon="05.820769"><ele>11.7</ele><time>2021-02-18T11:08:38Z</time><name>PT1846</name></trkpt>
<trkpt lat="53.453979" lon="05.820783"><ele>11.8</ele><time>2021-02-18T11:08:38Z</time><name>PT1847</name></trkpt>
<trkpt lat="53.453989" lon="05.820796"><ele>12</ele><time>2021-02-18T11:08:40Z</time><name>PT1848</name></trkpt>
<trkpt lat="53.454000" lon="05.820809"><ele>12.1</ele><time>2021-02-18T11:08:41Z</time><name>PT1849</name></trkpt>
<trkpt lat="53.454009" lon="05.820822"><ele>12</ele><time>2021-02-18T11:08:41Z</time><name>PT1850</name></trkpt>
<trkpt lat="53.454020" lon="05.820838"><ele>12.1</ele><time>2021-02-18T11:08:43Z</time><name>PT1851</name></trkpt>
<trkpt lat="53.454028" lon="05.820852"><ele>11.9</ele><time>2021-02-18T11:08:44Z</time><name>PT1852</name></trkpt>
<trkpt lat="53.454036" lon="05.820867"><ele>12.1</ele><time>2021-02-18T11:08:44Z</time><name>PT1853</name></trkpt>
<trkpt lat="53.454045" lon="05.820882"><ele>12</ele><time>2021-02-18T11:08:46Z</time><name>PT1854</name></trkpt>
<trkpt lat="53.454053" lon="05.820897"><ele>11.8</ele><time>2021-02-18T11:08:47Z</time><name>PT1855</name></trkpt>
<trkpt lat="53.454061" lon="05.820911"><ele>11.8</ele><time>2021-02-18T11:08:47Z</time><name>PT1856</name></trkpt>
<trkpt lat="53.454071" lon="05.820924"><ele>11.7</ele><time>2021-02-18T11:08:49Z</time><name>PT1857</name></trkpt>
<trkpt lat="53.454078" lon="05.820936"><ele>11.7</ele><time>2021-02-18T11:08:50Z</time><name>PT1858</name></trkpt>
<trkpt lat="53.454086" lon="05.820948"><ele>11.8</ele><time>2021-02-18T11:08:50Z</time><name>PT1859</name></trkpt>
<trkpt lat="53.454094" lon="05.820962"><ele>11.7</ele><time>2021-02-18T11:08:52Z</time><name>PT1860</name></trkpt>
<trkpt lat="53.454103" lon="05.820975"><ele>11.5</ele><time>2021-02-18T11:08:53Z</time><name>PT1861</name></trkpt>
<trkpt lat="53.454111" lon="05.820988"><ele>11.3</ele><time>2021-02-18T11:08:53Z</time><name>PT1862</name></trkpt>
<trkpt lat="53.454119" lon="05.820999"><ele>11.4</ele><time>2021-02-18T11:08:55Z</time><name>PT1863</name></trkpt>
<trkpt lat="53.454130" lon="05.821010"><ele>11.3</ele><time>2021-02-18T11:08:56Z</time><name>PT1864</name></trkpt>
<trkpt lat="53.454139" lon="05.821020"><ele>11.2</ele><time>2021-02-18T11:08:56Z</time><name>PT1865</name></trkpt>
<trkpt lat="53.454146" lon="05.821031"><ele>11.2</ele><time>2021-02-18T11:08:58Z</time><name>PT1866</name></trkpt>
<trkpt lat="53.454157" lon="05.821041"><ele>11.1</ele><time>2021-02-18T11:08:59Z</time><name>PT1867</name></trkpt>
<trkpt lat="53.454166" lon="05.821052"><ele>11.1</ele><time>2021-02-18T11:08:59Z</time><name>PT1868</name></trkpt>
<trkpt lat="53.454173" lon="05.821067"><ele>11.2</ele><time>2021-02-18T11:09:01Z</time><name>PT1869</name></trkpt>
<trkpt lat="53.454181" lon="05.821082"><ele>11.2</ele><time>2021-02-18T11:09:02Z</time><name>PT1870</name></trkpt>
<trkpt lat="53.454189" lon="05.821096"><ele>11.3</ele><time>2021-02-18T11:09:02Z</time><name>PT1871</name></trkpt>
<trkpt lat="53.454197" lon="05.821110"><ele>11.6</ele><time>2021-02-18T11:09:04Z</time><name>PT1872</name></trkpt>
<trkpt lat="53.454205" lon="05.821123"><ele>11.7</ele><time>2021-02-18T11:09:05Z</time><name>PT1873</name></trkpt>
<trkpt lat="53.454215" lon="05.821137"><ele>11.8</ele><time>2021-02-18T11:09:05Z</time><name>PT1874</name></trkpt>
<trkpt lat="53.454222" lon="05.821147"><ele>11.8</ele><time>2021-02-18T11:09:07Z</time><name>PT1875</name></trkpt>
<trkpt lat="53.454232" lon="05.821160"><ele>11.7</ele><time>2021-02-18T11:09:08Z</time><name>PT1876</name></trkpt>
<trkpt lat="53.454244" lon="05.821177"><ele>11.7</ele><time>2021-02-18T11:09:08Z</time><name>PT1877</name></trkpt>
<trkpt lat="53.454252" lon="05.821191"><ele>11.6</ele><time>2021-02-18T11:09:10Z</time><name>PT1878</name></trkpt>
<trkpt lat="53.454263" lon="05.821202"><ele>11.7</ele><time>2021-02-18T11:09:11Z</time><name>PT1879</name></trkpt>
<trkpt lat="53.454271" lon="05.821215"><ele>11.7</ele><time>2021-02-18T11:09:11Z</time><name>PT1880</name></trkpt>
<trkpt lat="53.454281" lon="05.821227"><ele>11.8</ele><time>2021-02-18T11:09:13Z</time><name>PT1881</name></trkpt>
<trkpt lat="53.454290" lon="05.821241"><ele>12</ele><time>2021-02-18T11:09:14Z</time><name>PT1882</name></trkpt>
<trkpt lat="53.454300" lon="05.821256"><ele>12.1</ele><time>2021-02-18T11:09:14Z</time><name>PT1883</name></trkpt>
<trkpt lat="53.454309" lon="05.821270"><ele>12.2</ele><time>2021-02-18T11:09:16Z</time><name>PT1884</name></trkpt>
<trkpt lat="53.454320" lon="05.821283"><ele>12.1</ele><time>2021-02-18T11:09:17Z</time><name>PT1885</name></trkpt>
<trkpt lat="53.454330" lon="05.821297"><ele>12.1</ele><time>2021-02-18T11:09:17Z</time><name>PT1886</name></trkpt>
<trkpt lat="53.454338" lon="05.821313"><ele>12.1</ele><time>2021-02-18T11:09:19Z</time><name>PT1887</name></trkpt>
<trkpt lat="53.454346" lon="05.821328"><ele>12.1</ele><time>2021-02-18T11:09:20Z</time><name>PT1888</name></trkpt>
<trkpt lat="53.454354" lon="05.821345"><ele>12.1</ele><time>2021-02-18T11:09:20Z</time><name>PT1889</name></trkpt>
<trkpt lat="53.454363" lon="05.821363"><ele>12.1</ele><time>2021-02-18T11:09:22Z</time><name>PT1890</name></trkpt>
<trkpt lat="53.454373" lon="05.821378"><ele>12.2</ele><time>2021-02-18T11:09:23Z</time><name>PT1891</name></trkpt>
<trkpt lat="53.454382" lon="05.821392"><ele>12.2</ele><time>2021-02-18T11:09:23Z</time><name>PT1892</name></trkpt>
<trkpt lat="53.454392" lon="05.821407"><ele>12.2</ele><time>2021-02-18T11:09:25Z</time><name>PT1893</name></trkpt>
<trkpt lat="53.454402" lon="05.821423"><ele>12.1</ele><time>2021-02-18T11:09:26Z</time><name>PT1894</name></trkpt>
<trkpt lat="53.454413" lon="05.821437"><ele>11.8</ele><time>2021-02-18T11:09:26Z</time><name>PT1895</name></trkpt>
<trkpt lat="53.454423" lon="05.821450"><ele>11.6</ele><time>2021-02-18T11:09:28Z</time><name>PT1896</name></trkpt>
<trkpt lat="53.454432" lon="05.821464"><ele>11.7</ele><time>2021-02-18T11:09:29Z</time><name>PT1897</name></trkpt>
<trkpt lat="53.454441" lon="05.821479"><ele>11.7</ele><time>2021-02-18T11:09:29Z</time><name>PT1898</name></trkpt>
<trkpt lat="53.454452" lon="05.821493"><ele>12</ele><time>2021-02-18T11:09:31Z</time><name>PT1899</name></trkpt>
<trkpt lat="53.454461" lon="05.821508"><ele>12.2</ele><time>2021-02-18T11:09:32Z</time><name>PT1900</name></trkpt>
<trkpt lat="53.454470" lon="05.821521"><ele>12.2</ele><time>2021-02-18T11:09:32Z</time><name>PT1901</name></trkpt>
<trkpt lat="53.454479" lon="05.821533"><ele>12.2</ele><time>2021-02-18T11:09:34Z</time><name>PT1902</name></trkpt>
<trkpt lat="53.454491" lon="05.821545"><ele>12.3</ele><time>2021-02-18T11:09:35Z</time><name>PT1903</name></trkpt>
<trkpt lat="53.454500" lon="05.821558"><ele>12.2</ele><time>2021-02-18T11:09:35Z</time><name>PT1904</name></trkpt>
<trkpt lat="53.454507" lon="05.821568"><ele>12.2</ele><time>2021-02-18T11:09:37Z</time><name>PT1905</name></trkpt>
<trkpt lat="53.454515" lon="05.821581"><ele>12</ele><time>2021-02-18T11:09:38Z</time><name>PT1906</name></trkpt>
<trkpt lat="53.454524" lon="05.821596"><ele>12</ele><time>2021-02-18T11:09:38Z</time><name>PT1907</name></trkpt>
<trkpt lat="53.454531" lon="05.821609"><ele>12</ele><time>2021-02-18T11:09:40Z</time><name>PT1908</name></trkpt>
<trkpt lat="53.454541" lon="05.821625"><ele>12.1</ele><time>2021-02-18T11:09:41Z</time><name>PT1909</name></trkpt>
<trkpt lat="53.454550" lon="05.821641"><ele>12.1</ele><time>2021-02-18T11:09:41Z</time><name>PT1910</name></trkpt>
<trkpt lat="53.454558" lon="05.821656"><ele>12.2</ele><time>2021-02-18T11:09:43Z</time><name>PT1911</name></trkpt>
<trkpt lat="53.454566" lon="05.821667"><ele>12.3</ele><time>2021-02-18T11:09:44Z</time><name>PT1912</name></trkpt>
<trkpt lat="53.454575" lon="05.821678"><ele>12.2</ele><time>2021-02-18T11:09:44Z</time><name>PT1913</name></trkpt>
<trkpt lat="53.454584" lon="05.821691"><ele>12.6</ele><time>2021-02-18T11:09:46Z</time><name>PT1914</name></trkpt>
<trkpt lat="53.454594" lon="05.821704"><ele>12.4</ele><time>2021-02-18T11:09:47Z</time><name>PT1915</name></trkpt>
<trkpt lat="53.454603" lon="05.821717"><ele>12.3</ele><time>2021-02-18T11:09:47Z</time><name>PT1916</name></trkpt>
<trkpt lat="53.454611" lon="05.821729"><ele>12.3</ele><time>2021-02-18T11:09:49Z</time><name>PT1917</name></trkpt>
<trkpt lat="53.454619" lon="05.821741"><ele>11.9</ele><time>2021-02-18T11:09:50Z</time><name>PT1918</name></trkpt>
<trkpt lat="53.454628" lon="05.821754"><ele>11.8</ele><time>2021-02-18T11:09:50Z</time><name>PT1919</name></trkpt>
<trkpt lat="53.454636" lon="05.821765"><ele>11.7</ele><time>2021-02-18T11:09:52Z</time><name>PT1920</name></trkpt>
<trkpt lat="53.454646" lon="05.821780"><ele>11.8</ele><time>2021-02-18T11:09:53Z</time><name>PT1921</name></trkpt>
<trkpt lat="53.454656" lon="05.821794"><ele>11.9</ele><time>2021-02-18T11:09:53Z</time><name>PT1922</name></trkpt>
<trkpt lat="53.454665" lon="05.821807"><ele>11.9</ele><time>2021-02-18T11:09:55Z</time><name>PT1923</name></trkpt>
<trkpt lat="53.454675" lon="05.821822"><ele>12.2</ele><time>2021-02-18T11:09:56Z</time><name>PT1924</name></trkpt>
<trkpt lat="53.454684" lon="05.821839"><ele>12.3</ele><time>2021-02-18T11:09:56Z</time><name>PT1925</name></trkpt>
<trkpt lat="53.454693" lon="05.821855"><ele>12.2</ele><time>2021-02-18T11:09:58Z</time><name>PT1926</name></trkpt>
<trkpt lat="53.454701" lon="05.821869"><ele>12.2</ele><time>2021-02-18T11:09:59Z</time><name>PT1927</name></trkpt>
<trkpt lat="53.454709" lon="05.821882"><ele>12.1</ele><time>2021-02-18T11:09:59Z</time><name>PT1928</name></trkpt>
<trkpt lat="53.454718" lon="05.821896"><ele>11.9</ele><time>2021-02-18T11:10:01Z</time><name>PT1929</name></trkpt>
<trkpt lat="53.454728" lon="05.821909"><ele>11.9</ele><time>2021-02-18T11:10:02Z</time><name>PT1930</name></trkpt>
<trkpt lat="53.454737" lon="05.821924"><ele>12.1</ele><time>2021-02-18T11:10:02Z</time><name>PT1931</name></trkpt>
<trkpt lat="53.454747" lon="05.821937"><ele>12.2</ele><time>2021-02-18T11:10:04Z</time><name>PT1932</name></trkpt>
<trkpt lat="53.454756" lon="05.821948"><ele>12.3</ele><time>2021-02-18T11:10:05Z</time><name>PT1933</name></trkpt>
<trkpt lat="53.454768" lon="05.821957"><ele>12.2</ele><time>2021-02-18T11:10:05Z</time><name>PT1934</name></trkpt>
<trkpt lat="53.454774" lon="05.821970"><ele>12.2</ele><time>2021-02-18T11:10:07Z</time><name>PT1935</name></trkpt>
<trkpt lat="53.454782" lon="05.821986"><ele>12.5</ele><time>2021-02-18T11:10:08Z</time><name>PT1936</name></trkpt>
<trkpt lat="53.454790" lon="05.822000"><ele>12.6</ele><time>2021-02-18T11:10:08Z</time><name>PT1937</name></trkpt>
<trkpt lat="53.454799" lon="05.822011"><ele>12.7</ele><time>2021-02-18T11:10:10Z</time><name>PT1938</name></trkpt>
<trkpt lat="53.454807" lon="05.822025"><ele>12.7</ele><time>2021-02-18T11:10:11Z</time><name>PT1939</name></trkpt>
<trkpt lat="53.454815" lon="05.822039"><ele>12.5</ele><time>2021-02-18T11:10:11Z</time><name>PT1940</name></trkpt>
<trkpt lat="53.454823" lon="05.822052"><ele>12.4</ele><time>2021-02-18T11:10:13Z</time><name>PT1941</name></trkpt>
<trkpt lat="53.454832" lon="05.822066"><ele>12.2</ele><time>2021-02-18T11:10:14Z</time><name>PT1942</name></trkpt>
<trkpt lat="53.454837" lon="05.822077"><ele>12.2</ele><time>2021-02-18T11:10:14Z</time><name>PT1943</name></trkpt>
<trkpt lat="53.454845" lon="05.822088"><ele>12.2</ele><time>2021-02-18T11:10:16Z</time><name>PT1944</name></trkpt>
<trkpt lat="53.454852" lon="05.822101"><ele>12.3</ele><time>2021-02-18T11:10:17Z</time><name>PT1945</name></trkpt>
<trkpt lat="53.454861" lon="05.822116"><ele>12.2</ele><time>2021-02-18T11:10:17Z</time><name>PT1946</name></trkpt>
<trkpt lat="53.454870" lon="05.822132"><ele>12.2</ele><time>2021-02-18T11:10:19Z</time><name>PT1947</name></trkpt>
<trkpt lat="53.454879" lon="05.822147"><ele>12.2</ele><time>2021-02-18T11:10:20Z</time><name>PT1948</name></trkpt>
<trkpt lat="53.454888" lon="05.822161"><ele>12.2</ele><time>2021-02-18T11:10:20Z</time><name>PT1949</name></trkpt>
<trkpt lat="53.454897" lon="05.822175"><ele>12</ele><time>2021-02-18T11:10:22Z</time><name>PT1950</name></trkpt>
<trkpt lat="53.454906" lon="05.822189"><ele>12</ele><time>2021-02-18T11:10:23Z</time><name>PT1951</name></trkpt>
<trkpt lat="53.454915" lon="05.822202"><ele>12</ele><time>2021-02-18T11:10:23Z</time><name>PT1952</name></trkpt>
<trkpt lat="53.454925" lon="05.822216"><ele>11.8</ele><time>2021-02-18T11:10:25Z</time><name>PT1953</name></trkpt>
<trkpt lat="53.454934" lon="05.822230"><ele>11.9</ele><time>2021-02-18T11:10:26Z</time><name>PT1954</name></trkpt>
<trkpt lat="53.454943" lon="05.822241"><ele>12</ele><time>2021-02-18T11:10:26Z</time><name>PT1955</name></trkpt>
<trkpt lat="53.454950" lon="05.822251"><ele>12</ele><time>2021-02-18T11:10:28Z</time><name>PT1956</name></trkpt>
<trkpt lat="53.454957" lon="05.822264"><ele>12.2</ele><time>2021-02-18T11:10:29Z</time><name>PT1957</name></trkpt>
<trkpt lat="53.454965" lon="05.822279"><ele>12.2</ele><time>2021-02-18T11:10:29Z</time><name>PT1958</name></trkpt>
<trkpt lat="53.454973" lon="05.822293"><ele>12.2</ele><time>2021-02-18T11:10:31Z</time><name>PT1959</name></trkpt>
<trkpt lat="53.454981" lon="05.822309"><ele>12.2</ele><time>2021-02-18T11:10:32Z</time><name>PT1960</name></trkpt>
<trkpt lat="53.454989" lon="05.822325"><ele>12.2</ele><time>2021-02-18T11:10:32Z</time><name>PT1961</name></trkpt>
<trkpt lat="53.454997" lon="05.822341"><ele>12.3</ele><time>2021-02-18T11:10:34Z</time><name>PT1962</name></trkpt>
<trkpt lat="53.455007" lon="05.822357"><ele>12.4</ele><time>2021-02-18T11:10:35Z</time><name>PT1963</name></trkpt>
<trkpt lat="53.455013" lon="05.822371"><ele>12.5</ele><time>2021-02-18T11:10:35Z</time><name>PT1964</name></trkpt>
<trkpt lat="53.455020" lon="05.822385"><ele>12.5</ele><time>2021-02-18T11:10:37Z</time><name>PT1965</name></trkpt>
<trkpt lat="53.455029" lon="05.822397"><ele>12.5</ele><time>2021-02-18T11:10:38Z</time><name>PT1966</name></trkpt>
<trkpt lat="53.455038" lon="05.822410"><ele>12.6</ele><time>2021-02-18T11:10:38Z</time><name>PT1967</name></trkpt>
<trkpt lat="53.455049" lon="05.822422"><ele>12.5</ele><time>2021-02-18T11:10:40Z</time><name>PT1968</name></trkpt>
<trkpt lat="53.455058" lon="05.822432"><ele>12.4</ele><time>2021-02-18T11:10:41Z</time><name>PT1969</name></trkpt>
<trkpt lat="53.455065" lon="05.822444"><ele>12.4</ele><time>2021-02-18T11:10:41Z</time><name>PT1970</name></trkpt>
<trkpt lat="53.455073" lon="05.822455"><ele>12.4</ele><time>2021-02-18T11:10:43Z</time><name>PT1971</name></trkpt>
<trkpt lat="53.455081" lon="05.822467"><ele>12.6</ele><time>2021-02-18T11:10:44Z</time><name>PT1972</name></trkpt>
<trkpt lat="53.455088" lon="05.822479"><ele>12.7</ele><time>2021-02-18T11:10:44Z</time><name>PT1973</name></trkpt>
<trkpt lat="53.455097" lon="05.822493"><ele>12.4</ele><time>2021-02-18T11:10:46Z</time><name>PT1974</name></trkpt>
<trkpt lat="53.455107" lon="05.822507"><ele>12.5</ele><time>2021-02-18T11:10:47Z</time><name>PT1975</name></trkpt>
<trkpt lat="53.455116" lon="05.822523"><ele>12.5</ele><time>2021-02-18T11:10:47Z</time><name>PT1976</name></trkpt>
<trkpt lat="53.455123" lon="05.822535"><ele>12.3</ele><time>2021-02-18T11:10:49Z</time><name>PT1977</name></trkpt>
<trkpt lat="53.455131" lon="05.822549"><ele>12.3</ele><time>2021-02-18T11:10:50Z</time><name>PT1978</name></trkpt>
<trkpt lat="53.455139" lon="05.822563"><ele>12.4</ele><time>2021-02-18T11:10:50Z</time><name>PT1979</name></trkpt>
<trkpt lat="53.455148" lon="05.822577"><ele>12.3</ele><time>2021-02-18T11:10:52Z</time><name>PT1980</name></trkpt>
<trkpt lat="53.455157" lon="05.822588"><ele>12.3</ele><time>2021-02-18T11:10:53Z</time><name>PT1981</name></trkpt>
<trkpt lat="53.455165" lon="05.822600"><ele>12.4</ele><time>2021-02-18T11:10:53Z</time><name>PT1982</name></trkpt>
<trkpt lat="53.455174" lon="05.822613"><ele>12.5</ele><time>2021-02-18T11:10:55Z</time><name>PT1983</name></trkpt>
<trkpt lat="53.455182" lon="05.822626"><ele>12.6</ele><time>2021-02-18T11:10:56Z</time><name>PT1984</name></trkpt>
<trkpt lat="53.455190" lon="05.822640"><ele>12.4</ele><time>2021-02-18T11:10:56Z</time><name>PT1985</name></trkpt>
<trkpt lat="53.455199" lon="05.822653"><ele>12.4</ele><time>2021-02-18T11:10:58Z</time><name>PT1986</name></trkpt>
<trkpt lat="53.455207" lon="05.822666"><ele>12.3</ele><time>2021-02-18T11:10:59Z</time><name>PT1987</name></trkpt>
<trkpt lat="53.455216" lon="05.822682"><ele>12.3</ele><time>2021-02-18T11:10:59Z</time><name>PT1988</name></trkpt>
<trkpt lat="53.455225" lon="05.822699"><ele>12.3</ele><time>2021-02-18T11:11:01Z</time><name>PT1989</name></trkpt>
<trkpt lat="53.455235" lon="05.822716"><ele>12.4</ele><time>2021-02-18T11:11:02Z</time><name>PT1990</name></trkpt>
<trkpt lat="53.455243" lon="05.822731"><ele>12.6</ele><time>2021-02-18T11:11:02Z</time><name>PT1991</name></trkpt>
<trkpt lat="53.455249" lon="05.822747"><ele>12.7</ele><time>2021-02-18T11:11:04Z</time><name>PT1992</name></trkpt>
<trkpt lat="53.455258" lon="05.822763"><ele>12.8</ele><time>2021-02-18T11:11:05Z</time><name>PT1993</name></trkpt>
<trkpt lat="53.455266" lon="05.822778"><ele>12.7</ele><time>2021-02-18T11:11:05Z</time><name>PT1994</name></trkpt>
<trkpt lat="53.455273" lon="05.822793"><ele>12.7</ele><time>2021-02-18T11:11:07Z</time><name>PT1995</name></trkpt>
<trkpt lat="53.455281" lon="05.822806"><ele>12.8</ele><time>2021-02-18T11:11:08Z</time><name>PT1996</name></trkpt>
<trkpt lat="53.455290" lon="05.822820"><ele>12.7</ele><time>2021-02-18T11:11:08Z</time><name>PT1997</name></trkpt>
<trkpt lat="53.455298" lon="05.822831"><ele>12.8</ele><time>2021-02-18T11:11:10Z</time><name>PT1998</name></trkpt>
<trkpt lat="53.455308" lon="05.822843"><ele>12.7</ele><time>2021-02-18T11:11:11Z</time><name>PT1999</name></trkpt>
<trkpt lat="53.455316" lon="05.822855"><ele>12.7</ele><time>2021-02-18T11:11:11Z</time><name>PT2000</name></trkpt>
<trkpt lat="53.455325" lon="05.822868"><ele>12.7</ele><time>2021-02-18T11:11:13Z</time><name>PT2001</name></trkpt>
<trkpt lat="53.455335" lon="05.822883"><ele>12.7</ele><time>2021-02-18T11:11:14Z</time><name>PT2002</name></trkpt>
<trkpt lat="53.455342" lon="05.822895"><ele>12.7</ele><time>2021-02-18T11:11:14Z</time><name>PT2003</name></trkpt>
<trkpt lat="53.455347" lon="05.822908"><ele>12.8</ele><time>2021-02-18T11:11:16Z</time><name>PT2004</name></trkpt>
<trkpt lat="53.455354" lon="05.822925"><ele>12.7</ele><time>2021-02-18T11:11:17Z</time><name>PT2005</name></trkpt>
<trkpt lat="53.455363" lon="05.822945"><ele>12.4</ele><time>2021-02-18T11:11:17Z</time><name>PT2006</name></trkpt>
<trkpt lat="53.455371" lon="05.822964"><ele>12.4</ele><time>2021-02-18T11:11:19Z</time><name>PT2007</name></trkpt>
<trkpt lat="53.455377" lon="05.822984"><ele>12.4</ele><time>2021-02-18T11:11:20Z</time><name>PT2008</name></trkpt>
<trkpt lat="53.455382" lon="05.823005"><ele>12.5</ele><time>2021-02-18T11:11:20Z</time><name>PT2009</name></trkpt>
<trkpt lat="53.455387" lon="05.823025"><ele>12.5</ele><time>2021-02-18T11:11:22Z</time><name>PT2010</name></trkpt>
<trkpt lat="53.455392" lon="05.823044"><ele>12.4</ele><time>2021-02-18T11:11:23Z</time><name>PT2011</name></trkpt>
<trkpt lat="53.455396" lon="05.823062"><ele>12.2</ele><time>2021-02-18T11:11:23Z</time><name>PT2012</name></trkpt>
<trkpt lat="53.455400" lon="05.823080"><ele>12.3</ele><time>2021-02-18T11:11:25Z</time><name>PT2013</name></trkpt>
<trkpt lat="53.455404" lon="05.823098"><ele>12.3</ele><time>2021-02-18T11:11:26Z</time><name>PT2014</name></trkpt>
<trkpt lat="53.455409" lon="05.823117"><ele>12.2</ele><time>2021-02-18T11:11:26Z</time><name>PT2015</name></trkpt>
<trkpt lat="53.455414" lon="05.823136"><ele>12.4</ele><time>2021-02-18T11:11:28Z</time><name>PT2016</name></trkpt>
<trkpt lat="53.455419" lon="05.823155"><ele>12.1</ele><time>2021-02-18T11:11:29Z</time><name>PT2017</name></trkpt>
<trkpt lat="53.455423" lon="05.823172"><ele>12.1</ele><time>2021-02-18T11:11:29Z</time><name>PT2018</name></trkpt>
<trkpt lat="53.455427" lon="05.823187"><ele>12</ele><time>2021-02-18T11:11:31Z</time><name>PT2019</name></trkpt>
<trkpt lat="53.455431" lon="05.823204"><ele>11.9</ele><time>2021-02-18T11:11:32Z</time><name>PT2020</name></trkpt>
<trkpt lat="53.455434" lon="05.823221"><ele>12</ele><time>2021-02-18T11:11:32Z</time><name>PT2021</name></trkpt>
<trkpt lat="53.455439" lon="05.823242"><ele>11.7</ele><time>2021-02-18T11:11:34Z</time><name>PT2022</name></trkpt>
<trkpt lat="53.455443" lon="05.823262"><ele>11.7</ele><time>2021-02-18T11:11:35Z</time><name>PT2023</name></trkpt>
<trkpt lat="53.455447" lon="05.823285"><ele>11.7</ele><time>2021-02-18T11:11:35Z</time><name>PT2024</name></trkpt>
<trkpt lat="53.455452" lon="05.823310"><ele>11.8</ele><time>2021-02-18T11:11:37Z</time><name>PT2025</name></trkpt>
<trkpt lat="53.455455" lon="05.823330"><ele>11.8</ele><time>2021-02-18T11:11:38Z</time><name>PT2026</name></trkpt>
<trkpt lat="53.455459" lon="05.823350"><ele>11.9</ele><time>2021-02-18T11:11:38Z</time><name>PT2027</name></trkpt>
<trkpt lat="53.455464" lon="05.823369"><ele>12.2</ele><time>2021-02-18T11:11:40Z</time><name>PT2028</name></trkpt>
<trkpt lat="53.455469" lon="05.823390"><ele>12.2</ele><time>2021-02-18T11:11:41Z</time><name>PT2029</name></trkpt>
<trkpt lat="53.455473" lon="05.823407"><ele>12.1</ele><time>2021-02-18T11:11:41Z</time><name>PT2030</name></trkpt>
<trkpt lat="53.455478" lon="05.823426"><ele>12.2</ele><time>2021-02-18T11:11:43Z</time><name>PT2031</name></trkpt>
<trkpt lat="53.455483" lon="05.823445"><ele>12.1</ele><time>2021-02-18T11:11:44Z</time><name>PT2032</name></trkpt>
<trkpt lat="53.455488" lon="05.823463"><ele>12</ele><time>2021-02-18T11:11:44Z</time><name>PT2033</name></trkpt>
<trkpt lat="53.455491" lon="05.823479"><ele>12.3</ele><time>2021-02-18T11:11:46Z</time><name>PT2034</name></trkpt>
<trkpt lat="53.455496" lon="05.823495"><ele>12.5</ele><time>2021-02-18T11:11:47Z</time><name>PT2035</name></trkpt>
<trkpt lat="53.455499" lon="05.823512"><ele>12.3</ele><time>2021-02-18T11:11:47Z</time><name>PT2036</name></trkpt>
<trkpt lat="53.455504" lon="05.823529"><ele>12.3</ele><time>2021-02-18T11:11:49Z</time><name>PT2037</name></trkpt>
<trkpt lat="53.455506" lon="05.823547"><ele>12.1</ele><time>2021-02-18T11:11:50Z</time><name>PT2038</name></trkpt>
<trkpt lat="53.455510" lon="05.823568"><ele>12.1</ele><time>2021-02-18T11:11:50Z</time><name>PT2039</name></trkpt>
<trkpt lat="53.455513" lon="05.823588"><ele>12</ele><time>2021-02-18T11:11:52Z</time><name>PT2040</name></trkpt>
<trkpt lat="53.455515" lon="05.823608"><ele>12</ele><time>2021-02-18T11:11:53Z</time><name>PT2041</name></trkpt>
<trkpt lat="53.455520" lon="05.823628"><ele>12</ele><time>2021-02-18T11:11:53Z</time><name>PT2042</name></trkpt>
<trkpt lat="53.455523" lon="05.823648"><ele>12</ele><time>2021-02-18T11:11:55Z</time><name>PT2043</name></trkpt>
<trkpt lat="53.455527" lon="05.823669"><ele>12.4</ele><time>2021-02-18T11:11:56Z</time><name>PT2044</name></trkpt>
<trkpt lat="53.455530" lon="05.823689"><ele>12.6</ele><time>2021-02-18T11:11:56Z</time><name>PT2045</name></trkpt>
<trkpt lat="53.455532" lon="05.823708"><ele>12.8</ele><time>2021-02-18T11:11:58Z</time><name>PT2046</name></trkpt>
<trkpt lat="53.455535" lon="05.823725"><ele>12.8</ele><time>2021-02-18T11:11:59Z</time><name>PT2047</name></trkpt>
<trkpt lat="53.455538" lon="05.823744"><ele>13</ele><time>2021-02-18T11:11:59Z</time><name>PT2048</name></trkpt>
<trkpt lat="53.455541" lon="05.823761"><ele>12.9</ele><time>2021-02-18T11:12:01Z</time><name>PT2049</name></trkpt>
<trkpt lat="53.455545" lon="05.823779"><ele>13.1</ele><time>2021-02-18T11:12:02Z</time><name>PT2050</name></trkpt>
<trkpt lat="53.455549" lon="05.823797"><ele>13.1</ele><time>2021-02-18T11:12:02Z</time><name>PT2051</name></trkpt>
<trkpt lat="53.455552" lon="05.823815"><ele>13.1</ele><time>2021-02-18T11:12:04Z</time><name>PT2052</name></trkpt>
<trkpt lat="53.455555" lon="05.823834"><ele>13.2</ele><time>2021-02-18T11:12:05Z</time><name>PT2053</name></trkpt>
<trkpt lat="53.455560" lon="05.823852"><ele>13.2</ele><time>2021-02-18T11:12:05Z</time><name>PT2054</name></trkpt>
<trkpt lat="53.455563" lon="05.823869"><ele>13.2</ele><time>2021-02-18T11:12:07Z</time><name>PT2055</name></trkpt>
<trkpt lat="53.455567" lon="05.823888"><ele>13.2</ele><time>2021-02-18T11:12:08Z</time><name>PT2056</name></trkpt>
<trkpt lat="53.455571" lon="05.823906"><ele>13.2</ele><time>2021-02-18T11:12:08Z</time><name>PT2057</name></trkpt>
<trkpt lat="53.455576" lon="05.823926"><ele>13.2</ele><time>2021-02-18T11:12:10Z</time><name>PT2058</name></trkpt>
<trkpt lat="53.455580" lon="05.823944"><ele>13.4</ele><time>2021-02-18T11:12:11Z</time><name>PT2059</name></trkpt>
<trkpt lat="53.455585" lon="05.823963"><ele>13.4</ele><time>2021-02-18T11:12:11Z</time><name>PT2060</name></trkpt>
<trkpt lat="53.455590" lon="05.823982"><ele>13.5</ele><time>2021-02-18T11:12:13Z</time><name>PT2061</name></trkpt>
<trkpt lat="53.455594" lon="05.823998"><ele>13.7</ele><time>2021-02-18T11:12:14Z</time><name>PT2062</name></trkpt>
<trkpt lat="53.455598" lon="05.824016"><ele>13.8</ele><time>2021-02-18T11:12:14Z</time><name>PT2063</name></trkpt>
<trkpt lat="53.455602" lon="05.824035"><ele>13.7</ele><time>2021-02-18T11:12:16Z</time><name>PT2064</name></trkpt>
<trkpt lat="53.455607" lon="05.824055"><ele>13.8</ele><time>2021-02-18T11:12:17Z</time><name>PT2065</name></trkpt>
<trkpt lat="53.455610" lon="05.824073"><ele>13.8</ele><time>2021-02-18T11:12:17Z</time><name>PT2066</name></trkpt>
<trkpt lat="53.455613" lon="05.824092"><ele>13.6</ele><time>2021-02-18T11:12:19Z</time><name>PT2067</name></trkpt>
<trkpt lat="53.455616" lon="05.824113"><ele>13.5</ele><time>2021-02-18T11:12:20Z</time><name>PT2068</name></trkpt>
<trkpt lat="53.455620" lon="05.824136"><ele>13.4</ele><time>2021-02-18T11:12:20Z</time><name>PT2069</name></trkpt>
<trkpt lat="53.455624" lon="05.824156"><ele>13.3</ele><time>2021-02-18T11:12:22Z</time><name>PT2070</name></trkpt>
<trkpt lat="53.455628" lon="05.824176"><ele>13.4</ele><time>2021-02-18T11:12:23Z</time><name>PT2071</name></trkpt>
<trkpt lat="53.455633" lon="05.824196"><ele>13.6</ele><time>2021-02-18T11:12:23Z</time><name>PT2072</name></trkpt>
<trkpt lat="53.455637" lon="05.824214"><ele>13.6</ele><time>2021-02-18T11:12:25Z</time><name>PT2073</name></trkpt>
<trkpt lat="53.455643" lon="05.824232"><ele>13.5</ele><time>2021-02-18T11:12:26Z</time><name>PT2074</name></trkpt>
<trkpt lat="53.455647" lon="05.824251"><ele>13.5</ele><time>2021-02-18T11:12:26Z</time><name>PT2075</name></trkpt>
<trkpt lat="53.455652" lon="05.824270"><ele>13.2</ele><time>2021-02-18T11:12:28Z</time><name>PT2076</name></trkpt>
<trkpt lat="53.455656" lon="05.824288"><ele>13.1</ele><time>2021-02-18T11:12:29Z</time><name>PT2077</name></trkpt>
<trkpt lat="53.455661" lon="05.824306"><ele>13.2</ele><time>2021-02-18T11:12:29Z</time><name>PT2078</name></trkpt>
<trkpt lat="53.455666" lon="05.824324"><ele>13.1</ele><time>2021-02-18T11:12:31Z</time><name>PT2079</name></trkpt>
<trkpt lat="53.455669" lon="05.824342"><ele>13</ele><time>2021-02-18T11:12:32Z</time><name>PT2080</name></trkpt>
<trkpt lat="53.455673" lon="05.824361"><ele>13.1</ele><time>2021-02-18T11:12:32Z</time><name>PT2081</name></trkpt>
<trkpt lat="53.455676" lon="05.824382"><ele>13.1</ele><time>2021-02-18T11:12:34Z</time><name>PT2082</name></trkpt>
<trkpt lat="53.455679" lon="05.824403"><ele>12.9</ele><time>2021-02-18T11:12:35Z</time><name>PT2083</name></trkpt>
<trkpt lat="53.455683" lon="05.824422"><ele>12.8</ele><time>2021-02-18T11:12:35Z</time><name>PT2084</name></trkpt>
<trkpt lat="53.455686" lon="05.824442"><ele>12.8</ele><time>2021-02-18T11:12:37Z</time><name>PT2085</name></trkpt>
<trkpt lat="53.455690" lon="05.824462"><ele>12.6</ele><time>2021-02-18T11:12:38Z</time><name>PT2086</name></trkpt>
<trkpt lat="53.455693" lon="05.824481"><ele>12.5</ele><time>2021-02-18T11:12:38Z</time><name>PT2087</name></trkpt>
<trkpt lat="53.455698" lon="05.824500"><ele>12.3</ele><time>2021-02-18T11:12:40Z</time><name>PT2088</name></trkpt>
<trkpt lat="53.455703" lon="05.824520"><ele>12.2</ele><time>2021-02-18T11:12:41Z</time><name>PT2089</name></trkpt>
<trkpt lat="53.455708" lon="05.824537"><ele>12</ele><time>2021-02-18T11:12:41Z</time><name>PT2090</name></trkpt>
<trkpt lat="53.455712" lon="05.824552"><ele>12.1</ele><time>2021-02-18T11:12:43Z</time><name>PT2091</name></trkpt>
<trkpt lat="53.455715" lon="05.824569"><ele>11.9</ele><time>2021-02-18T11:12:44Z</time><name>PT2092</name></trkpt>
<trkpt lat="53.455720" lon="05.824587"><ele>11.8</ele><time>2021-02-18T11:12:44Z</time><name>PT2093</name></trkpt>
<trkpt lat="53.455723" lon="05.824606"><ele>12</ele><time>2021-02-18T11:12:46Z</time><name>PT2094</name></trkpt>
<trkpt lat="53.455726" lon="05.824626"><ele>12</ele><time>2021-02-18T11:12:47Z</time><name>PT2095</name></trkpt>
<trkpt lat="53.455729" lon="05.824646"><ele>12.2</ele><time>2021-02-18T11:12:47Z</time><name>PT2096</name></trkpt>
<trkpt lat="53.455732" lon="05.824664"><ele>12.5</ele><time>2021-02-18T11:12:49Z</time><name>PT2097</name></trkpt>
<trkpt lat="53.455735" lon="05.824682"><ele>12.6</ele><time>2021-02-18T11:12:50Z</time><name>PT2098</name></trkpt>
<trkpt lat="53.455740" lon="05.824700"><ele>12.7</ele><time>2021-02-18T11:12:50Z</time><name>PT2099</name></trkpt>
<trkpt lat="53.455744" lon="05.824719"><ele>12.5</ele><time>2021-02-18T11:12:52Z</time><name>PT2100</name></trkpt>
<trkpt lat="53.455748" lon="05.824738"><ele>12.3</ele><time>2021-02-18T11:12:53Z</time><name>PT2101</name></trkpt>
<trkpt lat="53.455753" lon="05.824755"><ele>12.3</ele><time>2021-02-18T11:12:53Z</time><name>PT2102</name></trkpt>
<trkpt lat="53.455758" lon="05.824773"><ele>12.2</ele><time>2021-02-18T11:12:55Z</time><name>PT2103</name></trkpt>
<trkpt lat="53.455763" lon="05.824792"><ele>12.1</ele><time>2021-02-18T11:12:56Z</time><name>PT2104</name></trkpt>
<trkpt lat="53.455766" lon="05.824812"><ele>12</ele><time>2021-02-18T11:12:56Z</time><name>PT2105</name></trkpt>
<trkpt lat="53.455770" lon="05.824832"><ele>12</ele><time>2021-02-18T11:12:58Z</time><name>PT2106</name></trkpt>
<trkpt lat="53.455774" lon="05.824853"><ele>12.1</ele><time>2021-02-18T11:12:59Z</time><name>PT2107</name></trkpt>
<trkpt lat="53.455777" lon="05.824873"><ele>12.2</ele><time>2021-02-18T11:12:59Z</time><name>PT2108</name></trkpt>
<trkpt lat="53.455780" lon="05.824892"><ele>12.3</ele><time>2021-02-18T11:13:01Z</time><name>PT2109</name></trkpt>
<trkpt lat="53.455783" lon="05.824912"><ele>12.3</ele><time>2021-02-18T11:13:02Z</time><name>PT2110</name></trkpt>
<trkpt lat="53.455787" lon="05.824931"><ele>12.3</ele><time>2021-02-18T11:13:02Z</time><name>PT2111</name></trkpt>
<trkpt lat="53.455791" lon="05.824951"><ele>12.1</ele><time>2021-02-18T11:13:04Z</time><name>PT2112</name></trkpt>
<trkpt lat="53.455795" lon="05.824970"><ele>11.9</ele><time>2021-02-18T11:13:05Z</time><name>PT2113</name></trkpt>
<trkpt lat="53.455799" lon="05.824990"><ele>12</ele><time>2021-02-18T11:13:05Z</time><name>PT2114</name></trkpt>
<trkpt lat="53.455803" lon="05.825008"><ele>11.8</ele><time>2021-02-18T11:13:07Z</time><name>PT2115</name></trkpt>
<trkpt lat="53.455808" lon="05.825023"><ele>11.9</ele><time>2021-02-18T11:13:08Z</time><name>PT2116</name></trkpt>
<trkpt lat="53.455813" lon="05.825040"><ele>11.8</ele><time>2021-02-18T11:13:08Z</time><name>PT2117</name></trkpt>
<trkpt lat="53.455817" lon="05.825059"><ele>11.7</ele><time>2021-02-18T11:13:10Z</time><name>PT2118</name></trkpt>
<trkpt lat="53.455822" lon="05.825079"><ele>12</ele><time>2021-02-18T11:13:11Z</time><name>PT2119</name></trkpt>
<trkpt lat="53.455825" lon="05.825097"><ele>12</ele><time>2021-02-18T11:13:11Z</time><name>PT2120</name></trkpt>
<trkpt lat="53.455828" lon="05.825116"><ele>12.2</ele><time>2021-02-18T11:13:13Z</time><name>PT2121</name></trkpt>
<trkpt lat="53.455831" lon="05.825134"><ele>12.3</ele><time>2021-02-18T11:13:14Z</time><name>PT2122</name></trkpt>
<trkpt lat="53.455833" lon="05.825152"><ele>12.4</ele><time>2021-02-18T11:13:14Z</time><name>PT2123</name></trkpt>
<trkpt lat="53.455837" lon="05.825173"><ele>12.3</ele><time>2021-02-18T11:13:16Z</time><name>PT2124</name></trkpt>
<trkpt lat="53.455841" lon="05.825192"><ele>12.2</ele><time>2021-02-18T11:13:17Z</time><name>PT2125</name></trkpt>
<trkpt lat="53.455844" lon="05.825210"><ele>12.2</ele><time>2021-02-18T11:13:17Z</time><name>PT2126</name></trkpt>
<trkpt lat="53.455848" lon="05.825229"><ele>12.2</ele><time>2021-02-18T11:13:19Z</time><name>PT2127</name></trkpt>
<trkpt lat="53.455851" lon="05.825247"><ele>12.2</ele><time>2021-02-18T11:13:20Z</time><name>PT2128</name></trkpt>
<trkpt lat="53.455855" lon="05.825265"><ele>12</ele><time>2021-02-18T11:13:20Z</time><name>PT2129</name></trkpt>
<trkpt lat="53.455860" lon="05.825284"><ele>12</ele><time>2021-02-18T11:13:22Z</time><name>PT2130</name></trkpt>
<trkpt lat="53.455864" lon="05.825303"><ele>11.9</ele><time>2021-02-18T11:13:23Z</time><name>PT2131</name></trkpt>
<trkpt lat="53.455868" lon="05.825323"><ele>11.9</ele><time>2021-02-18T11:13:23Z</time><name>PT2132</name></trkpt>
<trkpt lat="53.455872" lon="05.825342"><ele>11.9</ele><time>2021-02-18T11:13:25Z</time><name>PT2133</name></trkpt>
<trkpt lat="53.455877" lon="05.825359"><ele>12</ele><time>2021-02-18T11:13:26Z</time><name>PT2134</name></trkpt>
<trkpt lat="53.455881" lon="05.825377"><ele>12.2</ele><time>2021-02-18T11:13:26Z</time><name>PT2135</name></trkpt>
<trkpt lat="53.455886" lon="05.825396"><ele>12</ele><time>2021-02-18T11:13:28Z</time><name>PT2136</name></trkpt>
<trkpt lat="53.455892" lon="05.825415"><ele>12</ele><time>2021-02-18T11:13:29Z</time><name>PT2137</name></trkpt>
<trkpt lat="53.455897" lon="05.825434"><ele>12.1</ele><time>2021-02-18T11:13:29Z</time><name>PT2138</name></trkpt>
<trkpt lat="53.455902" lon="05.825453"><ele>12</ele><time>2021-02-18T11:13:31Z</time><name>PT2139</name></trkpt>
<trkpt lat="53.455907" lon="05.825471"><ele>12.2</ele><time>2021-02-18T11:13:32Z</time><name>PT2140</name></trkpt>
<trkpt lat="53.455910" lon="05.825487"><ele>12.3</ele><time>2021-02-18T11:13:32Z</time><name>PT2141</name></trkpt>
<trkpt lat="53.455915" lon="05.825503"><ele>12.3</ele><time>2021-02-18T11:13:34Z</time><name>PT2142</name></trkpt>
<trkpt lat="53.455919" lon="05.825520"><ele>12.2</ele><time>2021-02-18T11:13:35Z</time><name>PT2143</name></trkpt>
<trkpt lat="53.455923" lon="05.825539"><ele>12.2</ele><time>2021-02-18T11:13:35Z</time><name>PT2144</name></trkpt>
<trkpt lat="53.455927" lon="05.825556"><ele>12.2</ele><time>2021-02-18T11:13:37Z</time><name>PT2145</name></trkpt>
<trkpt lat="53.455929" lon="05.825574"><ele>12.1</ele><time>2021-02-18T11:13:38Z</time><name>PT2146</name></trkpt>
<trkpt lat="53.455931" lon="05.825591"><ele>12.2</ele><time>2021-02-18T11:13:38Z</time><name>PT2147</name></trkpt>
<trkpt lat="53.455935" lon="05.825609"><ele>12</ele><time>2021-02-18T11:13:40Z</time><name>PT2148</name></trkpt>
<trkpt lat="53.455939" lon="05.825628"><ele>12</ele><time>2021-02-18T11:13:41Z</time><name>PT2149</name></trkpt>
<trkpt lat="53.455943" lon="05.825648"><ele>11.9</ele><time>2021-02-18T11:13:41Z</time><name>PT2150</name></trkpt>
<trkpt lat="53.455946" lon="05.825666"><ele>12</ele><time>2021-02-18T11:13:43Z</time><name>PT2151</name></trkpt>
<trkpt lat="53.455949" lon="05.825686"><ele>12.2</ele><time>2021-02-18T11:13:44Z</time><name>PT2152</name></trkpt>
<trkpt lat="53.455952" lon="05.825706"><ele>12.2</ele><time>2021-02-18T11:13:44Z</time><name>PT2153</name></trkpt>
<trkpt lat="53.455956" lon="05.825725"><ele>12.2</ele><time>2021-02-18T11:13:46Z</time><name>PT2154</name></trkpt>
<trkpt lat="53.455960" lon="05.825745"><ele>12.1</ele><time>2021-02-18T11:13:47Z</time><name>PT2155</name></trkpt>
<trkpt lat="53.455965" lon="05.825765"><ele>11.9</ele><time>2021-02-18T11:13:47Z</time><name>PT2156</name></trkpt>
<trkpt lat="53.455969" lon="05.825785"><ele>11.7</ele><time>2021-02-18T11:13:49Z</time><name>PT2157</name></trkpt>
<trkpt lat="53.455974" lon="05.825805"><ele>11.8</ele><time>2021-02-18T11:13:50Z</time><name>PT2158</name></trkpt>
<trkpt lat="53.455979" lon="05.825825"><ele>11.8</ele><time>2021-02-18T11:13:50Z</time><name>PT2159</name></trkpt>
<trkpt lat="53.455984" lon="05.825844"><ele>11.7</ele><time>2021-02-18T11:13:52Z</time><name>PT2160</name></trkpt>
<trkpt lat="53.455989" lon="05.825862"><ele>11.7</ele><time>2021-02-18T11:13:53Z</time><name>PT2161</name></trkpt>
<trkpt lat="53.455995" lon="05.825882"><ele>11.7</ele><time>2021-02-18T11:13:53Z</time><name>PT2162</name></trkpt>
<trkpt lat="53.456001" lon="05.825901"><ele>11.8</ele><time>2021-02-18T11:13:55Z</time><name>PT2163</name></trkpt>
<trkpt lat="53.456005" lon="05.825921"><ele>11.8</ele><time>2021-02-18T11:13:56Z</time><name>PT2164</name></trkpt>
<trkpt lat="53.456010" lon="05.825940"><ele>12</ele><time>2021-02-18T11:13:56Z</time><name>PT2165</name></trkpt>
<trkpt lat="53.456014" lon="05.825959"><ele>12.1</ele><time>2021-02-18T11:13:58Z</time><name>PT2166</name></trkpt>
<trkpt lat="53.456018" lon="05.825977"><ele>12.2</ele><time>2021-02-18T11:13:59Z</time><name>PT2167</name></trkpt>
<trkpt lat="53.456022" lon="05.825993"><ele>12.2</ele><time>2021-02-18T11:13:59Z</time><name>PT2168</name></trkpt>
<trkpt lat="53.456027" lon="05.826010"><ele>12.2</ele><time>2021-02-18T11:14:01Z</time><name>PT2169</name></trkpt>
<trkpt lat="53.456030" lon="05.826027"><ele>12.2</ele><time>2021-02-18T11:14:02Z</time><name>PT2170</name></trkpt>
<trkpt lat="53.456034" lon="05.826044"><ele>12.2</ele><time>2021-02-18T11:14:02Z</time><name>PT2171</name></trkpt>
<trkpt lat="53.456038" lon="05.826061"><ele>12.2</ele><time>2021-02-18T11:14:04Z</time><name>PT2172</name></trkpt>
<trkpt lat="53.456042" lon="05.826078"><ele>12.5</ele><time>2021-02-18T11:14:05Z</time><name>PT2173</name></trkpt>
<trkpt lat="53.456045" lon="05.826096"><ele>12.4</ele><time>2021-02-18T11:14:05Z</time><name>PT2174</name></trkpt>
<trkpt lat="53.456049" lon="05.826114"><ele>12.4</ele><time>2021-02-18T11:14:07Z</time><name>PT2175</name></trkpt>
<trkpt lat="53.456051" lon="05.826131"><ele>12.6</ele><time>2021-02-18T11:14:08Z</time><name>PT2176</name></trkpt>
<trkpt lat="53.456055" lon="05.826149"><ele>12.5</ele><time>2021-02-18T11:14:08Z</time><name>PT2177</name></trkpt>
<trkpt lat="53.456058" lon="05.826168"><ele>12.3</ele><time>2021-02-18T11:14:10Z</time><name>PT2178</name></trkpt>
<trkpt lat="53.456061" lon="05.826188"><ele>12.2</ele><time>2021-02-18T11:14:11Z</time><name>PT2179</name></trkpt>
<trkpt lat="53.456065" lon="05.826208"><ele>12.2</ele><time>2021-02-18T11:14:11Z</time><name>PT2180</name></trkpt>
<trkpt lat="53.456068" lon="05.826229"><ele>12.1</ele><time>2021-02-18T11:14:13Z</time><name>PT2181</name></trkpt>
<trkpt lat="53.456072" lon="05.826249"><ele>12</ele><time>2021-02-18T11:14:14Z</time><name>PT2182</name></trkpt>
<trkpt lat="53.456075" lon="05.826268"><ele>11.8</ele><time>2021-02-18T11:14:14Z</time><name>PT2183</name></trkpt>
<trkpt lat="53.456079" lon="05.826286"><ele>11.6</ele><time>2021-02-18T11:14:16Z</time><name>PT2184</name></trkpt>
<trkpt lat="53.456082" lon="05.826306"><ele>11.8</ele><time>2021-02-18T11:14:17Z</time><name>PT2185</name></trkpt>
<trkpt lat="53.456087" lon="05.826326"><ele>12</ele><time>2021-02-18T11:14:17Z</time><name>PT2186</name></trkpt>
<trkpt lat="53.456092" lon="05.826345"><ele>12.1</ele><time>2021-02-18T11:14:19Z</time><name>PT2187</name></trkpt>
<trkpt lat="53.456097" lon="05.826363"><ele>12.2</ele><time>2021-02-18T11:14:20Z</time><name>PT2188</name></trkpt>
<trkpt lat="53.456102" lon="05.826382"><ele>12.4</ele><time>2021-02-18T11:14:20Z</time><name>PT2189</name></trkpt>
<trkpt lat="53.456107" lon="05.826400"><ele>12.3</ele><time>2021-02-18T11:14:22Z</time><name>PT2190</name></trkpt>
<trkpt lat="53.456113" lon="05.826417"><ele>12.3</ele><time>2021-02-18T11:14:23Z</time><name>PT2191</name></trkpt>
<trkpt lat="53.456117" lon="05.826433"><ele>12.2</ele><time>2021-02-18T11:14:23Z</time><name>PT2192</name></trkpt>
<trkpt lat="53.456121" lon="05.826449"><ele>12.2</ele><time>2021-02-18T11:14:25Z</time><name>PT2193</name></trkpt>
<trkpt lat="53.456124" lon="05.826466"><ele>12.3</ele><time>2021-02-18T11:14:26Z</time><name>PT2194</name></trkpt>
<trkpt lat="53.456129" lon="05.826484"><ele>12.2</ele><time>2021-02-18T11:14:26Z</time><name>PT2195</name></trkpt>
<trkpt lat="53.456132" lon="05.826504"><ele>12.2</ele><time>2021-02-18T11:14:28Z</time><name>PT2196</name></trkpt>
<trkpt lat="53.456137" lon="05.826526"><ele>12.2</ele><time>2021-02-18T11:14:29Z</time><name>PT2197</name></trkpt>
<trkpt lat="53.456140" lon="05.826546"><ele>12.2</ele><time>2021-02-18T11:14:29Z</time><name>PT2198</name></trkpt>
<trkpt lat="53.456143" lon="05.826564"><ele>12.2</ele><time>2021-02-18T11:14:31Z</time><name>PT2199</name></trkpt>
<trkpt lat="53.456147" lon="05.826584"><ele>12.3</ele><time>2021-02-18T11:14:32Z</time><name>PT2200</name></trkpt>
<trkpt lat="53.456152" lon="05.826604"><ele>12.4</ele><time>2021-02-18T11:14:32Z</time><name>PT2201</name></trkpt>
<trkpt lat="53.456157" lon="05.826625"><ele>12.4</ele><time>2021-02-18T11:14:34Z</time><name>PT2202</name></trkpt>
<trkpt lat="53.456161" lon="05.826643"><ele>12.5</ele><time>2021-02-18T11:14:35Z</time><name>PT2203</name></trkpt>
<trkpt lat="53.456167" lon="05.826662"><ele>12.3</ele><time>2021-02-18T11:14:35Z</time><name>PT2204</name></trkpt>
<trkpt lat="53.456172" lon="05.826681"><ele>12.3</ele><time>2021-02-18T11:14:37Z</time><name>PT2205</name></trkpt>
<trkpt lat="53.456177" lon="05.826698"><ele>12.2</ele><time>2021-02-18T11:14:38Z</time><name>PT2206</name></trkpt>
<trkpt lat="53.456183" lon="05.826716"><ele>12.2</ele><time>2021-02-18T11:14:38Z</time><name>PT2207</name></trkpt>
<trkpt lat="53.456188" lon="05.826732"><ele>12.2</ele><time>2021-02-18T11:14:40Z</time><name>PT2208</name></trkpt>
<trkpt lat="53.456193" lon="05.826748"><ele>12.2</ele><time>2021-02-18T11:14:41Z</time><name>PT2209</name></trkpt>
<trkpt lat="53.456196" lon="05.826764"><ele>12.2</ele><time>2021-02-18T11:14:41Z</time><name>PT2210</name></trkpt>
<trkpt lat="53.456200" lon="05.826781"><ele>12.2</ele><time>2021-02-18T11:14:43Z</time><name>PT2211</name></trkpt>
<trkpt lat="53.456204" lon="05.826798"><ele>12.3</ele><time>2021-02-18T11:14:44Z</time><name>PT2212</name></trkpt>
<trkpt lat="53.456209" lon="05.826815"><ele>12.2</ele><time>2021-02-18T11:14:44Z</time><name>PT2213</name></trkpt>
<trkpt lat="53.456212" lon="05.826832"><ele>12.1</ele><time>2021-02-18T11:14:46Z</time><name>PT2214</name></trkpt>
<trkpt lat="53.456216" lon="05.826850"><ele>12.1</ele><time>2021-02-18T11:14:47Z</time><name>PT2215</name></trkpt>
<trkpt lat="53.456221" lon="05.826869"><ele>12</ele><time>2021-02-18T11:14:47Z</time><name>PT2216</name></trkpt>
<trkpt lat="53.456225" lon="05.826887"><ele>12</ele><time>2021-02-18T11:14:49Z</time><name>PT2217</name></trkpt>
<trkpt lat="53.456230" lon="05.826905"><ele>12.1</ele><time>2021-02-18T11:14:50Z</time><name>PT2218</name></trkpt>
<trkpt lat="53.456235" lon="05.826921"><ele>12</ele><time>2021-02-18T11:14:50Z</time><name>PT2219</name></trkpt>
<trkpt lat="53.456237" lon="05.826927"><ele>12.1</ele><time>2021-02-18T11:14:52Z</time><name>PT2220</name></trkpt>
<trkpt lat="53.456238" lon="05.826928"><ele>12</ele><time>2021-02-18T11:14:53Z</time><name>PT2221</name></trkpt>
<trkpt lat="53.456238" lon="05.826929"><ele>12.1</ele><time>2021-02-18T11:14:53Z</time><name>PT2222</name></trkpt>
<trkpt lat="53.456238" lon="05.826929"><ele>12.3</ele><time>2021-02-18T11:14:55Z</time><name>PT2223</name></trkpt>
<trkpt lat="53.456239" lon="05.826934"><ele>12.4</ele><time>2021-02-18T11:14:58Z</time><name>PT2224</name></trkpt>
<trkpt lat="53.456245" lon="05.826949"><ele>12.5</ele><time>2021-02-18T11:14:59Z</time><name>PT2225</name></trkpt>
<trkpt lat="53.456252" lon="05.826967"><ele>12.5</ele><time>2021-02-18T11:14:59Z</time><name>PT2226</name></trkpt>
<trkpt lat="53.456259" lon="05.826980"><ele>12.7</ele><time>2021-02-18T11:15:01Z</time><name>PT2227</name></trkpt>
<trkpt lat="53.456267" lon="05.826995"><ele>12.9</ele><time>2021-02-18T11:15:02Z</time><name>PT2228</name></trkpt>
<trkpt lat="53.456275" lon="05.827011"><ele>12.8</ele><time>2021-02-18T11:15:02Z</time><name>PT2229</name></trkpt>
<trkpt lat="53.456284" lon="05.827026"><ele>12.8</ele><time>2021-02-18T11:15:04Z</time><name>PT2230</name></trkpt>
<trkpt lat="53.456293" lon="05.827041"><ele>12.9</ele><time>2021-02-18T11:15:05Z</time><name>PT2231</name></trkpt>
<trkpt lat="53.456302" lon="05.827056"><ele>12.7</ele><time>2021-02-18T11:15:05Z</time><name>PT2232</name></trkpt>
<trkpt lat="53.456311" lon="05.827072"><ele>12.7</ele><time>2021-02-18T11:15:07Z</time><name>PT2233</name></trkpt>
<trkpt lat="53.456321" lon="05.827087"><ele>12.4</ele><time>2021-02-18T11:15:08Z</time><name>PT2234</name></trkpt>
<trkpt lat="53.456331" lon="05.827103"><ele>12.3</ele><time>2021-02-18T11:15:08Z</time><name>PT2235</name></trkpt>
<trkpt lat="53.456340" lon="05.827118"><ele>12.4</ele><time>2021-02-18T11:15:10Z</time><name>PT2236</name></trkpt>
<trkpt lat="53.456350" lon="05.827130"><ele>12.3</ele><time>2021-02-18T11:15:11Z</time><name>PT2237</name></trkpt>
<trkpt lat="53.456359" lon="05.827141"><ele>12.3</ele><time>2021-02-18T11:15:11Z</time><name>PT2238</name></trkpt>
<trkpt lat="53.456367" lon="05.827153"><ele>12.2</ele><time>2021-02-18T11:15:13Z</time><name>PT2239</name></trkpt>
<trkpt lat="53.456375" lon="05.827166"><ele>12.2</ele><time>2021-02-18T11:15:14Z</time><name>PT2240</name></trkpt>
<trkpt lat="53.456382" lon="05.827180"><ele>12.2</ele><time>2021-02-18T11:15:14Z</time><name>PT2241</name></trkpt>
<trkpt lat="53.456391" lon="05.827193"><ele>12.2</ele><time>2021-02-18T11:15:16Z</time><name>PT2242</name></trkpt>
<trkpt lat="53.456400" lon="05.827207"><ele>12.4</ele><time>2021-02-18T11:15:17Z</time><name>PT2243</name></trkpt>
<trkpt lat="53.456409" lon="05.827225"><ele>12.4</ele><time>2021-02-18T11:15:17Z</time><name>PT2244</name></trkpt>
<trkpt lat="53.456419" lon="05.827242"><ele>12.4</ele><time>2021-02-18T11:15:19Z</time><name>PT2245</name></trkpt>
<trkpt lat="53.456429" lon="05.827257"><ele>12.5</ele><time>2021-02-18T11:15:20Z</time><name>PT2246</name></trkpt>
<trkpt lat="53.456439" lon="05.827271"><ele>12.5</ele><time>2021-02-18T11:15:20Z</time><name>PT2247</name></trkpt>
<trkpt lat="53.456448" lon="05.827285"><ele>12.5</ele><time>2021-02-18T11:15:22Z</time><name>PT2248</name></trkpt>
<trkpt lat="53.456457" lon="05.827299"><ele>12.5</ele><time>2021-02-18T11:15:23Z</time><name>PT2249</name></trkpt>
<trkpt lat="53.456468" lon="05.827314"><ele>12.6</ele><time>2021-02-18T11:15:23Z</time><name>PT2250</name></trkpt>
<trkpt lat="53.456475" lon="05.827328"><ele>12.7</ele><time>2021-02-18T11:15:25Z</time><name>PT2251</name></trkpt>
<trkpt lat="53.456482" lon="05.827340"><ele>12.8</ele><time>2021-02-18T11:15:26Z</time><name>PT2252</name></trkpt>
<trkpt lat="53.456490" lon="05.827354"><ele>13</ele><time>2021-02-18T11:15:26Z</time><name>PT2253</name></trkpt>
<trkpt lat="53.456497" lon="05.827369"><ele>13.1</ele><time>2021-02-18T11:15:28Z</time><name>PT2254</name></trkpt>
<trkpt lat="53.456505" lon="05.827384"><ele>12.8</ele><time>2021-02-18T11:15:29Z</time><name>PT2255</name></trkpt>
<trkpt lat="53.456513" lon="05.827400"><ele>12.7</ele><time>2021-02-18T11:15:29Z</time><name>PT2256</name></trkpt>
<trkpt lat="53.456516" lon="05.827407"><ele>12.5</ele><time>2021-02-18T11:15:31Z</time><name>PT2257</name></trkpt>
<trkpt lat="53.456519" lon="05.827409"><ele>12.5</ele><time>2021-02-18T11:15:32Z</time><name>PT2258</name></trkpt>
<trkpt lat="53.456519" lon="05.827409"><ele>12.5</ele><time>2021-02-18T11:15:32Z</time><name>PT2259</name></trkpt>
<trkpt lat="53.456519" lon="05.827410"><ele>12.5</ele><time>2021-02-18T11:15:34Z</time><name>PT2260</name></trkpt>
<trkpt lat="53.456520" lon="05.827411"><ele>12.6</ele><time>2021-02-18T11:15:35Z</time><name>PT2261</name></trkpt>
<trkpt lat="53.456523" lon="05.827420"><ele>12.7</ele><time>2021-02-18T11:15:38Z</time><name>PT2262</name></trkpt>
<trkpt lat="53.456528" lon="05.827437"><ele>12.7</ele><time>2021-02-18T11:15:40Z</time><name>PT2263</name></trkpt>
<trkpt lat="53.456534" lon="05.827453"><ele>12.4</ele><time>2021-02-18T11:15:41Z</time><name>PT2264</name></trkpt>
<trkpt lat="53.456541" lon="05.827468"><ele>12.6</ele><time>2021-02-18T11:15:41Z</time><name>PT2265</name></trkpt>
<trkpt lat="53.456549" lon="05.827483"><ele>12.6</ele><time>2021-02-18T11:15:43Z</time><name>PT2266</name></trkpt>
<trkpt lat="53.456558" lon="05.827498"><ele>12.4</ele><time>2021-02-18T11:15:44Z</time><name>PT2267</name></trkpt>
<trkpt lat="53.456566" lon="05.827513"><ele>12.4</ele><time>2021-02-18T11:15:44Z</time><name>PT2268</name></trkpt>
<trkpt lat="53.456573" lon="05.827526"><ele>12.5</ele><time>2021-02-18T11:15:46Z</time><name>PT2269</name></trkpt>
<trkpt lat="53.456579" lon="05.827541"><ele>12.5</ele><time>2021-02-18T11:15:47Z</time><name>PT2270</name></trkpt>
<trkpt lat="53.456585" lon="05.827557"><ele>12.6</ele><time>2021-02-18T11:15:47Z</time><name>PT2271</name></trkpt>
<trkpt lat="53.456593" lon="05.827575"><ele>12.7</ele><time>2021-02-18T11:15:49Z</time><name>PT2272</name></trkpt>
<trkpt lat="53.456600" lon="05.827593"><ele>12.7</ele><time>2021-02-18T11:15:50Z</time><name>PT2273</name></trkpt>
<trkpt lat="53.456606" lon="05.827611"><ele>12.7</ele><time>2021-02-18T11:15:50Z</time><name>PT2274</name></trkpt>
<trkpt lat="53.456611" lon="05.827626"><ele>12.7</ele><time>2021-02-18T11:15:52Z</time><name>PT2275</name></trkpt>
<trkpt lat="53.456619" lon="05.827642"><ele>12.6</ele><time>2021-02-18T11:15:53Z</time><name>PT2276</name></trkpt>
<trkpt lat="53.456626" lon="05.827659"><ele>12.4</ele><time>2021-02-18T11:15:53Z</time><name>PT2277</name></trkpt>
<trkpt lat="53.456634" lon="05.827674"><ele>12.3</ele><time>2021-02-18T11:15:55Z</time><name>PT2278</name></trkpt>
<trkpt lat="53.456639" lon="05.827688"><ele>12.2</ele><time>2021-02-18T11:15:56Z</time><name>PT2279</name></trkpt>
<trkpt lat="53.456638" lon="05.827694"><ele>12.2</ele><time>2021-02-18T11:15:56Z</time><name>PT2280</name></trkpt>
<trkpt lat="53.456636" lon="05.827703"><ele>12.2</ele><time>2021-02-18T11:15:58Z</time><name>PT2281</name></trkpt>
<trkpt lat="53.456635" lon="05.827717"><ele>12.1</ele><time>2021-02-18T11:15:59Z</time><name>PT2282</name></trkpt>
<trkpt lat="53.456635" lon="05.827729"><ele>12.2</ele><time>2021-02-18T11:15:59Z</time><name>PT2283</name></trkpt>
<trkpt lat="53.456634" lon="05.827742"><ele>12.3</ele><time>2021-02-18T11:16:00Z</time><name>PT2284</name></trkpt>
<trkpt lat="53.456635" lon="05.827753"><ele>12.7</ele><time>2021-02-18T11:16:02Z</time><name>PT2285</name></trkpt>
<trkpt lat="53.456641" lon="05.827764"><ele>13</ele><time>2021-02-18T11:16:02Z</time><name>PT2286</name></trkpt>
<trkpt lat="53.456646" lon="05.827777"><ele>13.2</ele><time>2021-02-18T11:16:04Z</time><name>PT2287</name></trkpt>
<trkpt lat="53.456652" lon="05.827789"><ele>13.3</ele><time>2021-02-18T11:16:05Z</time><name>PT2288</name></trkpt>
<trkpt lat="53.456655" lon="05.827799"><ele>13.2</ele><time>2021-02-18T11:16:05Z</time><name>PT2289</name></trkpt>
<trkpt lat="53.456660" lon="05.827812"><ele>13</ele><time>2021-02-18T11:16:06Z</time><name>PT2290</name></trkpt>
<trkpt lat="53.456665" lon="05.827826"><ele>12.7</ele><time>2021-02-18T11:16:08Z</time><name>PT2291</name></trkpt>
<trkpt lat="53.456671" lon="05.827841"><ele>12.7</ele><time>2021-02-18T11:16:08Z</time><name>PT2292</name></trkpt>
<trkpt lat="53.456675" lon="05.827853"><ele>12.5</ele><time>2021-02-18T11:16:10Z</time><name>PT2293</name></trkpt>
<trkpt lat="53.456674" lon="05.827856"><ele>12.3</ele><time>2021-02-18T11:16:11Z</time><name>PT2294</name></trkpt>
<trkpt lat="53.456677" lon="05.827858"><ele>12.4</ele><time>2021-02-18T11:16:11Z</time><name>PT2295</name></trkpt>
<trkpt lat="53.456679" lon="05.827859"><ele>12.6</ele><time>2021-02-18T11:16:13Z</time><name>PT2296</name></trkpt>
<trkpt lat="53.456681" lon="05.827867"><ele>12.7</ele><time>2021-02-18T11:16:14Z</time><name>PT2297</name></trkpt>
<trkpt lat="53.456685" lon="05.827881"><ele>12.7</ele><time>2021-02-18T11:16:14Z</time><name>PT2298</name></trkpt>
<trkpt lat="53.456689" lon="05.827891"><ele>12.8</ele><time>2021-02-18T11:16:16Z</time><name>PT2299</name></trkpt>
<trkpt lat="53.456692" lon="05.827899"><ele>12.6</ele><time>2021-02-18T11:16:17Z</time><name>PT2300</name></trkpt>
<trkpt lat="53.456696" lon="05.827906"><ele>12.5</ele><time>2021-02-18T11:16:17Z</time><name>PT2301</name></trkpt>
<trkpt lat="53.456701" lon="05.827910"><ele>12.3</ele><time>2021-02-18T11:16:19Z</time><name>PT2302</name></trkpt>
<trkpt lat="53.456707" lon="05.827920"><ele>12.2</ele><time>2021-02-18T11:16:20Z</time><name>PT2303</name></trkpt>
<trkpt lat="53.456711" lon="05.827931"><ele>12.1</ele><time>2021-02-18T11:16:20Z</time><name>PT2304</name></trkpt>
<trkpt lat="53.456716" lon="05.827946"><ele>12.2</ele><time>2021-02-18T11:16:21Z</time><name>PT2305</name></trkpt>
<trkpt lat="53.456721" lon="05.827962"><ele>12.2</ele><time>2021-02-18T11:16:23Z</time><name>PT2306</name></trkpt>
<trkpt lat="53.456725" lon="05.827976"><ele>12.2</ele><time>2021-02-18T11:16:23Z</time><name>PT2307</name></trkpt>
<trkpt lat="53.456729" lon="05.827992"><ele>12.5</ele><time>2021-02-18T11:16:25Z</time><name>PT2308</name></trkpt>
<trkpt lat="53.456733" lon="05.828007"><ele>12.7</ele><time>2021-02-18T11:16:26Z</time><name>PT2309</name></trkpt>
<trkpt lat="53.456738" lon="05.828022"><ele>12.7</ele><time>2021-02-18T11:16:26Z</time><name>PT2310</name></trkpt>
<trkpt lat="53.456743" lon="05.828039"><ele>12.6</ele><time>2021-02-18T11:16:28Z</time><name>PT2311</name></trkpt>
<trkpt lat="53.456748" lon="05.828057"><ele>12.4</ele><time>2021-02-18T11:16:29Z</time><name>PT2312</name></trkpt>
<trkpt lat="53.456754" lon="05.828074"><ele>12.2</ele><time>2021-02-18T11:16:29Z</time><name>PT2313</name></trkpt>
<trkpt lat="53.456760" lon="05.828088"><ele>12.2</ele><time>2021-02-18T11:16:31Z</time><name>PT2314</name></trkpt>
<trkpt lat="53.456766" lon="05.828103"><ele>12.4</ele><time>2021-02-18T11:16:32Z</time><name>PT2315</name></trkpt>
<trkpt lat="53.456773" lon="05.828116"><ele>12.5</ele><time>2021-02-18T11:16:32Z</time><name>PT2316</name></trkpt>
<trkpt lat="53.456778" lon="05.828127"><ele>12.6</ele><time>2021-02-18T11:16:34Z</time><name>PT2317</name></trkpt>
<trkpt lat="53.456783" lon="05.828139"><ele>12.7</ele><time>2021-02-18T11:16:35Z</time><name>PT2318</name></trkpt>
<trkpt lat="53.456789" lon="05.828155"><ele>12.7</ele><time>2021-02-18T11:16:35Z</time><name>PT2319</name></trkpt>
<trkpt lat="53.456794" lon="05.828170"><ele>12.7</ele><time>2021-02-18T11:16:37Z</time><name>PT2320</name></trkpt>
<trkpt lat="53.456799" lon="05.828185"><ele>12.6</ele><time>2021-02-18T11:16:38Z</time><name>PT2321</name></trkpt>
<trkpt lat="53.456805" lon="05.828201"><ele>12.5</ele><time>2021-02-18T11:16:38Z</time><name>PT2322</name></trkpt>
<trkpt lat="53.456812" lon="05.828214"><ele>12.5</ele><time>2021-02-18T11:16:40Z</time><name>PT2323</name></trkpt>
<trkpt lat="53.456821" lon="05.828229"><ele>12.5</ele><time>2021-02-18T11:16:41Z</time><name>PT2324</name></trkpt>
<trkpt lat="53.456828" lon="05.828246"><ele>12.6</ele><time>2021-02-18T11:16:41Z</time><name>PT2325</name></trkpt>
<trkpt lat="53.456836" lon="05.828262"><ele>12.8</ele><time>2021-02-18T11:16:43Z</time><name>PT2326</name></trkpt>
<trkpt lat="53.456842" lon="05.828277"><ele>12.9</ele><time>2021-02-18T11:16:44Z</time><name>PT2327</name></trkpt>
<trkpt lat="53.456848" lon="05.828291"><ele>13</ele><time>2021-02-18T11:16:44Z</time><name>PT2328</name></trkpt>
<trkpt lat="53.456853" lon="05.828307"><ele>13</ele><time>2021-02-18T11:16:46Z</time><name>PT2329</name></trkpt>
<trkpt lat="53.456858" lon="05.828323"><ele>12.8</ele><time>2021-02-18T11:16:47Z</time><name>PT2330</name></trkpt>
<trkpt lat="53.456864" lon="05.828340"><ele>13.1</ele><time>2021-02-18T11:16:47Z</time><name>PT2331</name></trkpt>
<trkpt lat="53.456871" lon="05.828357"><ele>13.2</ele><time>2021-02-18T11:16:49Z</time><name>PT2332</name></trkpt>
<trkpt lat="53.456876" lon="05.828373"><ele>13.4</ele><time>2021-02-18T11:16:50Z</time><name>PT2333</name></trkpt>
<trkpt lat="53.456881" lon="05.828388"><ele>13.5</ele><time>2021-02-18T11:16:50Z</time><name>PT2334</name></trkpt>
<trkpt lat="53.456888" lon="05.828402"><ele>13.2</ele><time>2021-02-18T11:16:52Z</time><name>PT2335</name></trkpt>
<trkpt lat="53.456894" lon="05.828417"><ele>13.3</ele><time>2021-02-18T11:16:53Z</time><name>PT2336</name></trkpt>
<trkpt lat="53.456900" lon="05.828430"><ele>13.5</ele><time>2021-02-18T11:16:53Z</time><name>PT2337</name></trkpt>
<trkpt lat="53.456906" lon="05.828444"><ele>13.2</ele><time>2021-02-18T11:16:55Z</time><name>PT2338</name></trkpt>
<trkpt lat="53.456914" lon="05.828461"><ele>13.4</ele><time>2021-02-18T11:16:56Z</time><name>PT2339</name></trkpt>
<trkpt lat="53.456921" lon="05.828479"><ele>13.5</ele><time>2021-02-18T11:16:56Z</time><name>PT2340</name></trkpt>
<trkpt lat="53.456928" lon="05.828494"><ele>13.5</ele><time>2021-02-18T11:16:58Z</time><name>PT2341</name></trkpt>
<trkpt lat="53.456935" lon="05.828507"><ele>13.7</ele><time>2021-02-18T11:16:59Z</time><name>PT2342</name></trkpt>
<trkpt lat="53.456942" lon="05.828519"><ele>13.8</ele><time>2021-02-18T11:16:59Z</time><name>PT2343</name></trkpt>
<trkpt lat="53.456949" lon="05.828531"><ele>13.7</ele><time>2021-02-18T11:17:01Z</time><name>PT2344</name></trkpt>
<trkpt lat="53.456955" lon="05.828542"><ele>13.8</ele><time>2021-02-18T11:17:02Z</time><name>PT2345</name></trkpt>
<trkpt lat="53.456960" lon="05.828552"><ele>13.8</ele><time>2021-02-18T11:17:02Z</time><name>PT2346</name></trkpt>
<trkpt lat="53.456966" lon="05.828568"><ele>14</ele><time>2021-02-18T11:17:04Z</time><name>PT2347</name></trkpt>
<trkpt lat="53.456972" lon="05.828583"><ele>14.2</ele><time>2021-02-18T11:17:05Z</time><name>PT2348</name></trkpt>
<trkpt lat="53.456979" lon="05.828595"><ele>14.2</ele><time>2021-02-18T11:17:05Z</time><name>PT2349</name></trkpt>
<trkpt lat="53.456987" lon="05.828608"><ele>14.2</ele><time>2021-02-18T11:17:07Z</time><name>PT2350</name></trkpt>
<trkpt lat="53.456993" lon="05.828619"><ele>14.3</ele><time>2021-02-18T11:17:08Z</time><name>PT2351</name></trkpt>
<trkpt lat="53.457000" lon="05.828633"><ele>14.5</ele><time>2021-02-18T11:17:08Z</time><name>PT2352</name></trkpt>
<trkpt lat="53.457008" lon="05.828646"><ele>14.3</ele><time>2021-02-18T11:17:10Z</time><name>PT2353</name></trkpt>
<trkpt lat="53.457015" lon="05.828661"><ele>14.5</ele><time>2021-02-18T11:17:11Z</time><name>PT2354</name></trkpt>
<trkpt lat="53.457021" lon="05.828676"><ele>14.6</ele><time>2021-02-18T11:17:11Z</time><name>PT2355</name></trkpt>
<trkpt lat="53.457027" lon="05.828689"><ele>14.6</ele><time>2021-02-18T11:17:13Z</time><name>PT2356</name></trkpt>
<trkpt lat="53.457036" lon="05.828701"><ele>14.7</ele><time>2021-02-18T11:17:14Z</time><name>PT2357</name></trkpt>
<trkpt lat="53.457045" lon="05.828715"><ele>14.6</ele><time>2021-02-18T11:17:14Z</time><name>PT2358</name></trkpt>
<trkpt lat="53.457053" lon="05.828727"><ele>14.4</ele><time>2021-02-18T11:17:16Z</time><name>PT2359</name></trkpt>
<trkpt lat="53.457060" lon="05.828737"><ele>14.1</ele><time>2021-02-18T11:17:17Z</time><name>PT2360</name></trkpt>
<trkpt lat="53.457071" lon="05.828750"><ele>13.9</ele><time>2021-02-18T11:17:17Z</time><name>PT2361</name></trkpt>
<trkpt lat="53.457079" lon="05.828765"><ele>14</ele><time>2021-02-18T11:17:19Z</time><name>PT2362</name></trkpt>
<trkpt lat="53.457086" lon="05.828780"><ele>14.2</ele><time>2021-02-18T11:17:20Z</time><name>PT2363</name></trkpt>
<trkpt lat="53.457093" lon="05.828792"><ele>14.4</ele><time>2021-02-18T11:17:20Z</time><name>PT2364</name></trkpt>
<trkpt lat="53.457099" lon="05.828806"><ele>14.4</ele><time>2021-02-18T11:17:22Z</time><name>PT2365</name></trkpt>
<trkpt lat="53.457102" lon="05.828819"><ele>14.3</ele><time>2021-02-18T11:17:23Z</time><name>PT2366</name></trkpt>
<trkpt lat="53.457106" lon="05.828829"><ele>14.2</ele><time>2021-02-18T11:17:23Z</time><name>PT2367</name></trkpt>
<trkpt lat="53.457106" lon="05.828843"><ele>14.2</ele><time>2021-02-18T11:17:25Z</time><name>PT2368</name></trkpt>
<trkpt lat="53.457107" lon="05.828857"><ele>14.6</ele><time>2021-02-18T11:17:26Z</time><name>PT2369</name></trkpt>
<trkpt lat="53.457110" lon="05.828867"><ele>14.7</ele><time>2021-02-18T11:17:26Z</time><name>PT2370</name></trkpt>
<trkpt lat="53.457112" lon="05.828875"><ele>14.7</ele><time>2021-02-18T11:17:28Z</time><name>PT2371</name></trkpt>
<trkpt lat="53.457115" lon="05.828884"><ele>14.6</ele><time>2021-02-18T11:17:29Z</time><name>PT2372</name></trkpt>
<trkpt lat="53.457118" lon="05.828892"><ele>14.6</ele><time>2021-02-18T11:17:29Z</time><name>PT2373</name></trkpt>
<trkpt lat="53.457120" lon="05.828899"><ele>14.6</ele><time>2021-02-18T11:17:31Z</time><name>PT2374</name></trkpt>
<trkpt lat="53.457122" lon="05.828908"><ele>14.6</ele><time>2021-02-18T11:17:32Z</time><name>PT2375</name></trkpt>
<trkpt lat="53.457127" lon="05.828918"><ele>14.5</ele><time>2021-02-18T11:17:32Z</time><name>PT2376</name></trkpt>
<trkpt lat="53.457130" lon="05.828926"><ele>14.5</ele><time>2021-02-18T11:17:34Z</time><name>PT2377</name></trkpt>
<trkpt lat="53.457131" lon="05.828936"><ele>14.5</ele><time>2021-02-18T11:17:35Z</time><name>PT2378</name></trkpt>
<trkpt lat="53.457133" lon="05.828945"><ele>14.5</ele><time>2021-02-18T11:17:35Z</time><name>PT2379</name></trkpt>
<trkpt lat="53.457134" lon="05.828952"><ele>14.6</ele><time>2021-02-18T11:17:37Z</time><name>PT2380</name></trkpt>
<trkpt lat="53.457136" lon="05.828959"><ele>14.9</ele><time>2021-02-18T11:17:38Z</time><name>PT2381</name></trkpt>
<trkpt lat="53.457138" lon="05.828966"><ele>14.9</ele><time>2021-02-18T11:17:38Z</time><name>PT2382</name></trkpt>
<trkpt lat="53.457138" lon="05.828970"><ele>15.1</ele><time>2021-02-18T11:17:40Z</time><name>PT2383</name></trkpt>
<trkpt lat="53.457138" lon="05.828975"><ele>14.8</ele><time>2021-02-18T11:17:41Z</time><name>PT2384</name></trkpt>
<trkpt lat="53.457140" lon="05.828982"><ele>14.6</ele><time>2021-02-18T11:17:41Z</time><name>PT2385</name></trkpt>
<trkpt lat="53.457142" lon="05.828988"><ele>14.3</ele><time>2021-02-18T11:17:43Z</time><name>PT2386</name></trkpt>
<trkpt lat="53.457148" lon="05.828998"><ele>13.8</ele><time>2021-02-18T11:17:49Z</time><name>PT2387</name></trkpt>
<trkpt lat="53.457149" lon="05.828999"><ele>13.6</ele><time>2021-02-18T11:17:50Z</time><name>PT2388</name></trkpt>
<trkpt lat="53.457149" lon="05.829004"><ele>13.6</ele><time>2021-02-18T11:17:50Z</time><name>PT2389</name></trkpt>
<trkpt lat="53.457150" lon="05.829009"><ele>13.5</ele><time>2021-02-18T11:17:51Z</time><name>PT2390</name></trkpt>
<trkpt lat="53.457151" lon="05.829013"><ele>13.7</ele><time>2021-02-18T11:18:05Z</time><name>PT2391</name></trkpt>
<trkpt lat="53.457150" lon="05.829019"><ele>14</ele><time>2021-02-18T11:18:06Z</time><name>PT2392</name></trkpt>
<trkpt lat="53.457152" lon="05.829027"><ele>14.1</ele><time>2021-02-18T11:18:08Z</time><name>PT2393</name></trkpt>
<trkpt lat="53.457157" lon="05.829034"><ele>14.1</ele><time>2021-02-18T11:18:08Z</time><name>PT2394</name></trkpt>
<trkpt lat="53.457165" lon="05.829043"><ele>13.9</ele><time>2021-02-18T11:18:10Z</time><name>PT2395</name></trkpt>
<trkpt lat="53.457173" lon="05.829052"><ele>13.8</ele><time>2021-02-18T11:18:11Z</time><name>PT2396</name></trkpt>
<trkpt lat="53.457179" lon="05.829064"><ele>13.9</ele><time>2021-02-18T11:18:11Z</time><name>PT2397</name></trkpt>
<trkpt lat="53.457187" lon="05.829074"><ele>13.7</ele><time>2021-02-18T11:18:13Z</time><name>PT2398</name></trkpt>
<trkpt lat="53.457194" lon="05.829085"><ele>13.8</ele><time>2021-02-18T11:18:14Z</time><name>PT2399</name></trkpt>
<trkpt lat="53.457202" lon="05.829098"><ele>13.9</ele><time>2021-02-18T11:18:14Z</time><name>PT2400</name></trkpt>
<trkpt lat="53.457210" lon="05.829109"><ele>13.9</ele><time>2021-02-18T11:18:16Z</time><name>PT2401</name></trkpt>
<trkpt lat="53.457218" lon="05.829116"><ele>14.1</ele><time>2021-02-18T11:18:17Z</time><name>PT2402</name></trkpt>
<trkpt lat="53.457229" lon="05.829126"><ele>14.2</ele><time>2021-02-18T11:18:17Z</time><name>PT2403</name></trkpt>
<trkpt lat="53.457240" lon="05.829131"><ele>14.5</ele><time>2021-02-18T11:18:19Z</time><name>PT2404</name></trkpt>
<trkpt lat="53.457250" lon="05.829138"><ele>14.8</ele><time>2021-02-18T11:18:20Z</time><name>PT2405</name></trkpt>
<trkpt lat="53.457249" lon="05.829141"><ele>14.8</ele><time>2021-02-18T11:18:20Z</time><name>PT2406</name></trkpt>
<trkpt lat="53.457251" lon="05.829142"><ele>14.9</ele><time>2021-02-18T11:18:22Z</time><name>PT2407</name></trkpt>
<trkpt lat="53.457258" lon="05.829144"><ele>14.8</ele><time>2021-02-18T11:18:23Z</time><name>PT2408</name></trkpt>
<trkpt lat="53.457267" lon="05.829146"><ele>14.9</ele><time>2021-02-18T11:18:23Z</time><name>PT2409</name></trkpt>
<trkpt lat="53.457277" lon="05.829151"><ele>14.7</ele><time>2021-02-18T11:18:24Z</time><name>PT2410</name></trkpt>
<trkpt lat="53.457284" lon="05.829155"><ele>14.8</ele><time>2021-02-18T11:18:26Z</time><name>PT2411</name></trkpt>
<trkpt lat="53.457296" lon="05.829160"><ele>15</ele><time>2021-02-18T11:18:26Z</time><name>PT2412</name></trkpt>
<trkpt lat="53.457307" lon="05.829164"><ele>14.9</ele><time>2021-02-18T11:18:28Z</time><name>PT2413</name></trkpt>
<trkpt lat="53.457316" lon="05.829170"><ele>15.2</ele><time>2021-02-18T11:18:29Z</time><name>PT2414</name></trkpt>
<trkpt lat="53.457323" lon="05.829175"><ele>15.2</ele><time>2021-02-18T11:18:29Z</time><name>PT2415</name></trkpt>
<trkpt lat="53.457332" lon="05.829181"><ele>15.4</ele><time>2021-02-18T11:18:31Z</time><name>PT2416</name></trkpt>
<trkpt lat="53.457341" lon="05.829186"><ele>15.4</ele><time>2021-02-18T11:18:32Z</time><name>PT2417</name></trkpt>
<trkpt lat="53.457351" lon="05.829193"><ele>15.4</ele><time>2021-02-18T11:18:32Z</time><name>PT2418</name></trkpt>
<trkpt lat="53.457361" lon="05.829198"><ele>15.2</ele><time>2021-02-18T11:18:34Z</time><name>PT2419</name></trkpt>
<trkpt lat="53.457370" lon="05.829201"><ele>15.2</ele><time>2021-02-18T11:18:35Z</time><name>PT2420</name></trkpt>
<trkpt lat="53.457381" lon="05.829202"><ele>15.2</ele><time>2021-02-18T11:18:35Z</time><name>PT2421</name></trkpt>
<trkpt lat="53.457390" lon="05.829204"><ele>15.1</ele><time>2021-02-18T11:18:37Z</time><name>PT2422</name></trkpt>
<trkpt lat="53.457400" lon="05.829208"><ele>15.1</ele><time>2021-02-18T11:18:38Z</time><name>PT2423</name></trkpt>
<trkpt lat="53.457412" lon="05.829215"><ele>15.1</ele><time>2021-02-18T11:18:38Z</time><name>PT2424</name></trkpt>
<trkpt lat="53.457421" lon="05.829222"><ele>15.1</ele><time>2021-02-18T11:18:40Z</time><name>PT2425</name></trkpt>
<trkpt lat="53.457432" lon="05.829230"><ele>15.1</ele><time>2021-02-18T11:18:41Z</time><name>PT2426</name></trkpt>
<trkpt lat="53.457441" lon="05.829239"><ele>15.1</ele><time>2021-02-18T11:18:41Z</time><name>PT2427</name></trkpt>
<trkpt lat="53.457449" lon="05.829246"><ele>15</ele><time>2021-02-18T11:18:43Z</time><name>PT2428</name></trkpt>
<trkpt lat="53.457457" lon="05.829255"><ele>15</ele><time>2021-02-18T11:18:44Z</time><name>PT2429</name></trkpt>
<trkpt lat="53.457466" lon="05.829265"><ele>15</ele><time>2021-02-18T11:18:44Z</time><name>PT2430</name></trkpt>
<trkpt lat="53.457474" lon="05.829276"><ele>15.1</ele><time>2021-02-18T11:18:46Z</time><name>PT2431</name></trkpt>
<trkpt lat="53.457483" lon="05.829289"><ele>15.4</ele><time>2021-02-18T11:18:47Z</time><name>PT2432</name></trkpt>
<trkpt lat="53.457491" lon="05.829300"><ele>15.4</ele><time>2021-02-18T11:18:47Z</time><name>PT2433</name></trkpt>
<trkpt lat="53.457499" lon="05.829309"><ele>15.5</ele><time>2021-02-18T11:18:49Z</time><name>PT2434</name></trkpt>
<trkpt lat="53.457507" lon="05.829319"><ele>15.7</ele><time>2021-02-18T11:18:50Z</time><name>PT2435</name></trkpt>
<trkpt lat="53.457513" lon="05.829328"><ele>15.6</ele><time>2021-02-18T11:18:50Z</time><name>PT2436</name></trkpt>
<trkpt lat="53.457520" lon="05.829339"><ele>15.7</ele><time>2021-02-18T11:18:52Z</time><name>PT2437</name></trkpt>
<trkpt lat="53.457529" lon="05.829351"><ele>16</ele><time>2021-02-18T11:18:53Z</time><name>PT2438</name></trkpt>
<trkpt lat="53.457538" lon="05.829361"><ele>16</ele><time>2021-02-18T11:18:53Z</time><name>PT2439</name></trkpt>
<trkpt lat="53.457546" lon="05.829371"><ele>15.8</ele><time>2021-02-18T11:18:55Z</time><name>PT2440</name></trkpt>
<trkpt lat="53.457554" lon="05.829381"><ele>15.7</ele><time>2021-02-18T11:18:56Z</time><name>PT2441</name></trkpt>
<trkpt lat="53.457561" lon="05.829391"><ele>15.7</ele><time>2021-02-18T11:18:56Z</time><name>PT2442</name></trkpt>
<trkpt lat="53.457568" lon="05.829401"><ele>15.6</ele><time>2021-02-18T11:18:58Z</time><name>PT2443</name></trkpt>
<trkpt lat="53.457575" lon="05.829409"><ele>15.4</ele><time>2021-02-18T11:18:59Z</time><name>PT2444</name></trkpt>
<trkpt lat="53.457582" lon="05.829415"><ele>15.6</ele><time>2021-02-18T11:18:59Z</time><name>PT2445</name></trkpt>
<trkpt lat="53.457589" lon="05.829422"><ele>15.8</ele><time>2021-02-18T11:19:01Z</time><name>PT2446</name></trkpt>
<trkpt lat="53.457595" lon="05.829431"><ele>16</ele><time>2021-02-18T11:19:02Z</time><name>PT2447</name></trkpt>
<trkpt lat="53.457601" lon="05.829442"><ele>16</ele><time>2021-02-18T11:19:02Z</time><name>PT2448</name></trkpt>
<trkpt lat="53.457607" lon="05.829450"><ele>16</ele><time>2021-02-18T11:19:04Z</time><name>PT2449</name></trkpt>
<trkpt lat="53.457613" lon="05.829458"><ele>15.7</ele><time>2021-02-18T11:19:05Z</time><name>PT2450</name></trkpt>
<trkpt lat="53.457618" lon="05.829465"><ele>15.7</ele><time>2021-02-18T11:19:05Z</time><name>PT2451</name></trkpt>
<trkpt lat="53.457625" lon="05.829475"><ele>15.5</ele><time>2021-02-18T11:19:07Z</time><name>PT2452</name></trkpt>
<trkpt lat="53.457630" lon="05.829487"><ele>15.4</ele><time>2021-02-18T11:19:08Z</time><name>PT2453</name></trkpt>
<trkpt lat="53.457636" lon="05.829496"><ele>15.4</ele><time>2021-02-18T11:19:08Z</time><name>PT2454</name></trkpt>
<trkpt lat="53.457643" lon="05.829508"><ele>15.1</ele><time>2021-02-18T11:19:09Z</time><name>PT2455</name></trkpt>
<trkpt lat="53.457650" lon="05.829522"><ele>15.1</ele><time>2021-02-18T11:19:11Z</time><name>PT2456</name></trkpt>
<trkpt lat="53.457657" lon="05.829535"><ele>15.1</ele><time>2021-02-18T11:19:11Z</time><name>PT2457</name></trkpt>
<trkpt lat="53.457663" lon="05.829540"><ele>14.9</ele><time>2021-02-18T11:19:13Z</time><name>PT2458</name></trkpt>
<trkpt lat="53.457670" lon="05.829547"><ele>14.8</ele><time>2021-02-18T11:19:14Z</time><name>PT2459</name></trkpt>
<trkpt lat="53.457677" lon="05.829554"><ele>15</ele><time>2021-02-18T11:19:14Z</time><name>PT2460</name></trkpt>
<trkpt lat="53.457683" lon="05.829564"><ele>15</ele><time>2021-02-18T11:19:16Z</time><name>PT2461</name></trkpt>
<trkpt lat="53.457690" lon="05.829577"><ele>15</ele><time>2021-02-18T11:19:17Z</time><name>PT2462</name></trkpt>
<trkpt lat="53.457697" lon="05.829590"><ele>15</ele><time>2021-02-18T11:19:17Z</time><name>PT2463</name></trkpt>
<trkpt lat="53.457703" lon="05.829601"><ele>14.9</ele><time>2021-02-18T11:19:19Z</time><name>PT2464</name></trkpt>
<trkpt lat="53.457709" lon="05.829611"><ele>14.8</ele><time>2021-02-18T11:19:20Z</time><name>PT2465</name></trkpt>
<trkpt lat="53.457716" lon="05.829623"><ele>14.7</ele><time>2021-02-18T11:19:20Z</time><name>PT2466</name></trkpt>
<trkpt lat="53.457725" lon="05.829636"><ele>14.6</ele><time>2021-02-18T11:19:22Z</time><name>PT2467</name></trkpt>
<trkpt lat="53.457733" lon="05.829647"><ele>14.6</ele><time>2021-02-18T11:19:23Z</time><name>PT2468</name></trkpt>
<trkpt lat="53.457742" lon="05.829660"><ele>14.6</ele><time>2021-02-18T11:19:23Z</time><name>PT2469</name></trkpt>
<trkpt lat="53.457751" lon="05.829675"><ele>14.5</ele><time>2021-02-18T11:19:25Z</time><name>PT2470</name></trkpt>
<trkpt lat="53.457758" lon="05.829690"><ele>14.6</ele><time>2021-02-18T11:19:26Z</time><name>PT2471</name></trkpt>
<trkpt lat="53.457765" lon="05.829703"><ele>14.6</ele><time>2021-02-18T11:19:26Z</time><name>PT2472</name></trkpt>
<trkpt lat="53.457771" lon="05.829715"><ele>14.6</ele><time>2021-02-18T11:19:28Z</time><name>PT2473</name></trkpt>
<trkpt lat="53.457776" lon="05.829727"><ele>14.7</ele><time>2021-02-18T11:19:29Z</time><name>PT2474</name></trkpt>
<trkpt lat="53.457777" lon="05.829736"><ele>14.6</ele><time>2021-02-18T11:19:29Z</time><name>PT2475</name></trkpt>
<trkpt lat="53.457776" lon="05.829736"><ele>14.5</ele><time>2021-02-18T11:19:31Z</time><name>PT2476</name></trkpt>
<trkpt lat="53.457777" lon="05.829735"><ele>14.5</ele><time>2021-02-18T11:19:32Z</time><name>PT2477</name></trkpt>
<trkpt lat="53.457777" lon="05.829734"><ele>14.6</ele><time>2021-02-18T11:19:32Z</time><name>PT2478</name></trkpt>
<trkpt lat="53.457778" lon="05.829735"><ele>14.1</ele><time>2021-02-18T11:19:34Z</time><name>PT2479</name></trkpt>
<trkpt lat="53.457782" lon="05.829742"><ele>14.1</ele><time>2021-02-18T11:19:35Z</time><name>PT2480</name></trkpt>
<trkpt lat="53.457790" lon="05.829757"><ele>14.1</ele><time>2021-02-18T11:19:36Z</time><name>PT2481</name></trkpt>
<trkpt lat="53.457798" lon="05.829773"><ele>14.1</ele><time>2021-02-18T11:19:38Z</time><name>PT2482</name></trkpt>
<trkpt lat="53.457807" lon="05.829790"><ele>14.1</ele><time>2021-02-18T11:19:38Z</time><name>PT2483</name></trkpt>
<trkpt lat="53.457816" lon="05.829802"><ele>14.1</ele><time>2021-02-18T11:19:40Z</time><name>PT2484</name></trkpt>
<trkpt lat="53.457824" lon="05.829812"><ele>14.4</ele><time>2021-02-18T11:19:41Z</time><name>PT2485</name></trkpt>
<trkpt lat="53.457834" lon="05.829825"><ele>14.5</ele><time>2021-02-18T11:19:41Z</time><name>PT2486</name></trkpt>
<trkpt lat="53.457842" lon="05.829836"><ele>14.6</ele><time>2021-02-18T11:19:43Z</time><name>PT2487</name></trkpt>
<trkpt lat="53.457849" lon="05.829851"><ele>14.7</ele><time>2021-02-18T11:19:44Z</time><name>PT2488</name></trkpt>
<trkpt lat="53.457858" lon="05.829868"><ele>14.6</ele><time>2021-02-18T11:19:44Z</time><name>PT2489</name></trkpt>
<trkpt lat="53.457864" lon="05.829877"><ele>14.6</ele><time>2021-02-18T11:19:45Z</time><name>PT2490</name></trkpt>
<trkpt lat="53.457869" lon="05.829884"><ele>14.6</ele><time>2021-02-18T11:19:47Z</time><name>PT2491</name></trkpt>
<trkpt lat="53.457870" lon="05.829888"><ele>14.6</ele><time>2021-02-18T11:19:47Z</time><name>PT2492</name></trkpt>
<trkpt lat="53.457872" lon="05.829890"><ele>14.6</ele><time>2021-02-18T11:19:49Z</time><name>PT2493</name></trkpt>
<trkpt lat="53.457874" lon="05.829890"><ele>14.6</ele><time>2021-02-18T11:19:50Z</time><name>PT2494</name></trkpt>
<trkpt lat="53.457875" lon="05.829889"><ele>14.7</ele><time>2021-02-18T11:19:50Z</time><name>PT2495</name></trkpt>
<trkpt lat="53.457876" lon="05.829894"><ele>14.7</ele><time>2021-02-18T11:19:56Z</time><name>PT2496</name></trkpt>
<trkpt lat="53.457884" lon="05.829908"><ele>14.7</ele><time>2021-02-18T11:19:58Z</time><name>PT2497</name></trkpt>
<trkpt lat="53.457891" lon="05.829918"><ele>14.6</ele><time>2021-02-18T11:19:59Z</time><name>PT2498</name></trkpt>
<trkpt lat="53.457897" lon="05.829935"><ele>14.6</ele><time>2021-02-18T11:19:59Z</time><name>PT2499</name></trkpt>
<trkpt lat="53.457901" lon="05.829954"><ele>14.7</ele><time>2021-02-18T11:20:01Z</time><name>PT2500</name></trkpt>
<trkpt lat="53.457906" lon="05.829972"><ele>14.7</ele><time>2021-02-18T11:20:02Z</time><name>PT2501</name></trkpt>
<trkpt lat="53.457911" lon="05.829988"><ele>14.6</ele><time>2021-02-18T11:20:02Z</time><name>PT2502</name></trkpt>
<trkpt lat="53.457916" lon="05.830000"><ele>14.5</ele><time>2021-02-18T11:20:04Z</time><name>PT2503</name></trkpt>
<trkpt lat="53.457921" lon="05.830015"><ele>14.4</ele><time>2021-02-18T11:20:05Z</time><name>PT2504</name></trkpt>
<trkpt lat="53.457929" lon="05.830026"><ele>14.4</ele><time>2021-02-18T11:20:05Z</time><name>PT2505</name></trkpt>
<trkpt lat="53.457937" lon="05.830039"><ele>14.2</ele><time>2021-02-18T11:20:07Z</time><name>PT2506</name></trkpt>
<trkpt lat="53.457946" lon="05.830052"><ele>14.3</ele><time>2021-02-18T11:20:08Z</time><name>PT2507</name></trkpt>
<trkpt lat="53.457953" lon="05.830064"><ele>14.2</ele><time>2021-02-18T11:20:08Z</time><name>PT2508</name></trkpt>
<trkpt lat="53.457959" lon="05.830077"><ele>14.5</ele><time>2021-02-18T11:20:10Z</time><name>PT2509</name></trkpt>
<trkpt lat="53.457966" lon="05.830091"><ele>14.7</ele><time>2021-02-18T11:20:11Z</time><name>PT2510</name></trkpt>
<trkpt lat="53.457971" lon="05.830101"><ele>14.8</ele><time>2021-02-18T11:20:11Z</time><name>PT2511</name></trkpt>
<trkpt lat="53.457978" lon="05.830111"><ele>14.6</ele><time>2021-02-18T11:20:13Z</time><name>PT2512</name></trkpt>
<trkpt lat="53.457984" lon="05.830122"><ele>14.5</ele><time>2021-02-18T11:20:14Z</time><name>PT2513</name></trkpt>
<trkpt lat="53.457990" lon="05.830132"><ele>14.3</ele><time>2021-02-18T11:20:14Z</time><name>PT2514</name></trkpt>
<trkpt lat="53.457993" lon="05.830138"><ele>14.5</ele><time>2021-02-18T11:20:15Z</time><name>PT2515</name></trkpt>
<trkpt lat="53.457997" lon="05.830137"><ele>14.6</ele><time>2021-02-18T11:20:17Z</time><name>PT2516</name></trkpt>
<trkpt lat="53.458001" lon="05.830134"><ele>14.6</ele><time>2021-02-18T11:20:17Z</time><name>PT2517</name></trkpt>
<trkpt lat="53.458002" lon="05.830133"><ele>14.9</ele><time>2021-02-18T11:20:19Z</time><name>PT2518</name></trkpt>
<trkpt lat="53.457999" lon="05.830133"><ele>14.9</ele><time>2021-02-18T11:20:20Z</time><name>PT2519</name></trkpt>
<trkpt lat="53.457998" lon="05.830133"><ele>14.8</ele><time>2021-02-18T11:20:20Z</time><name>PT2520</name></trkpt>
<trkpt lat="53.457998" lon="05.830134"><ele>14.9</ele><time>2021-02-18T11:20:22Z</time><name>PT2521</name></trkpt>
<trkpt lat="53.458001" lon="05.830146"><ele>14.5</ele><time>2021-02-18T11:20:29Z</time><name>PT2522</name></trkpt>
<trkpt lat="53.458010" lon="05.830167"><ele>14.6</ele><time>2021-02-18T11:20:29Z</time><name>PT2523</name></trkpt>
<trkpt lat="53.458018" lon="05.830184"><ele>14.6</ele><time>2021-02-18T11:20:31Z</time><name>PT2524</name></trkpt>
<trkpt lat="53.458025" lon="05.830197"><ele>14.6</ele><time>2021-02-18T11:20:32Z</time><name>PT2525</name></trkpt>
<trkpt lat="53.458031" lon="05.830210"><ele>14.6</ele><time>2021-02-18T11:20:32Z</time><name>PT2526</name></trkpt>
<trkpt lat="53.458037" lon="05.830224"><ele>14.6</ele><time>2021-02-18T11:20:34Z</time><name>PT2527</name></trkpt>
<trkpt lat="53.458041" lon="05.830235"><ele>14.7</ele><time>2021-02-18T11:20:35Z</time><name>PT2528</name></trkpt>
<trkpt lat="53.458044" lon="05.830244"><ele>14.6</ele><time>2021-02-18T11:20:35Z</time><name>PT2529</name></trkpt>
<trkpt lat="53.458045" lon="05.830243"><ele>14.6</ele><time>2021-02-18T11:20:37Z</time><name>PT2530</name></trkpt>
<trkpt lat="53.458047" lon="05.830244"><ele>14.6</ele><time>2021-02-18T11:20:38Z</time><name>PT2531</name></trkpt>
<trkpt lat="53.458050" lon="05.830242"><ele>14.2</ele><time>2021-02-18T11:20:44Z</time><name>PT2532</name></trkpt>
<trkpt lat="53.458055" lon="05.830252"><ele>14.4</ele><time>2021-02-18T11:20:44Z</time><name>PT2533</name></trkpt>
<trkpt lat="53.458061" lon="05.830266"><ele>14.5</ele><time>2021-02-18T11:20:45Z</time><name>PT2534</name></trkpt>
<trkpt lat="53.458067" lon="05.830279"><ele>14.6</ele><time>2021-02-18T11:20:47Z</time><name>PT2535</name></trkpt>
<trkpt lat="53.458072" lon="05.830298"><ele>14.6</ele><time>2021-02-18T11:20:47Z</time><name>PT2536</name></trkpt>
<trkpt lat="53.458077" lon="05.830314"><ele>14.5</ele><time>2021-02-18T11:20:49Z</time><name>PT2537</name></trkpt>
<trkpt lat="53.458084" lon="05.830328"><ele>14.4</ele><time>2021-02-18T11:20:50Z</time><name>PT2538</name></trkpt>
<trkpt lat="53.458091" lon="05.830343"><ele>14.3</ele><time>2021-02-18T11:20:50Z</time><name>PT2539</name></trkpt>
<trkpt lat="53.458097" lon="05.830358"><ele>14.3</ele><time>2021-02-18T11:20:52Z</time><name>PT2540</name></trkpt>
<trkpt lat="53.458103" lon="05.830372"><ele>14.2</ele><time>2021-02-18T11:20:53Z</time><name>PT2541</name></trkpt>
<trkpt lat="53.458107" lon="05.830386"><ele>14.1</ele><time>2021-02-18T11:20:53Z</time><name>PT2542</name></trkpt>
<trkpt lat="53.458111" lon="05.830401"><ele>14.1</ele><time>2021-02-18T11:20:54Z</time><name>PT2543</name></trkpt>
<trkpt lat="53.458115" lon="05.830418"><ele>14.1</ele><time>2021-02-18T11:20:56Z</time><name>PT2544</name></trkpt>
<trkpt lat="53.458119" lon="05.830437"><ele>14.1</ele><time>2021-02-18T11:20:56Z</time><name>PT2545</name></trkpt>
<trkpt lat="53.458123" lon="05.830456"><ele>14</ele><time>2021-02-18T11:20:58Z</time><name>PT2546</name></trkpt>
<trkpt lat="53.458127" lon="05.830472"><ele>14.2</ele><time>2021-02-18T11:20:59Z</time><name>PT2547</name></trkpt>
<trkpt lat="53.458133" lon="05.830487"><ele>14.1</ele><time>2021-02-18T11:20:59Z</time><name>PT2548</name></trkpt>
<trkpt lat="53.458139" lon="05.830500"><ele>14.1</ele><time>2021-02-18T11:21:01Z</time><name>PT2549</name></trkpt>
<trkpt lat="53.458144" lon="05.830510"><ele>14.1</ele><time>2021-02-18T11:21:02Z</time><name>PT2550</name></trkpt>
<trkpt lat="53.458144" lon="05.830511"><ele>14</ele><time>2021-02-18T11:21:02Z</time><name>PT2551</name></trkpt>
<trkpt lat="53.458143" lon="05.830509"><ele>13.8</ele><time>2021-02-18T11:21:04Z</time><name>PT2552</name></trkpt>
<trkpt lat="53.458144" lon="05.830511"><ele>13.6</ele><time>2021-02-18T11:21:05Z</time><name>PT2553</name></trkpt>
<trkpt lat="53.458145" lon="05.830515"><ele>13.8</ele><time>2021-02-18T11:21:08Z</time><name>PT2554</name></trkpt>
<trkpt lat="53.458149" lon="05.830529"><ele>13.6</ele><time>2021-02-18T11:21:10Z</time><name>PT2555</name></trkpt>
<trkpt lat="53.458152" lon="05.830544"><ele>13.6</ele><time>2021-02-18T11:21:11Z</time><name>PT2556</name></trkpt>
<trkpt lat="53.458157" lon="05.830555"><ele>13.7</ele><time>2021-02-18T11:21:11Z</time><name>PT2557</name></trkpt>
<trkpt lat="53.458159" lon="05.830558"><ele>13.9</ele><time>2021-02-18T11:21:13Z</time><name>PT2558</name></trkpt>
<trkpt lat="53.458160" lon="05.830560"><ele>14.1</ele><time>2021-02-18T11:21:14Z</time><name>PT2559</name></trkpt>
<trkpt lat="53.458161" lon="05.830561"><ele>14.1</ele><time>2021-02-18T11:21:14Z</time><name>PT2560</name></trkpt>
<trkpt lat="53.458160" lon="05.830565"><ele>14.1</ele><time>2021-02-18T11:21:20Z</time><name>PT2561</name></trkpt>
<trkpt lat="53.458164" lon="05.830567"><ele>14</ele><time>2021-02-18T11:21:22Z</time><name>PT2562</name></trkpt>
<trkpt lat="53.458166" lon="05.830568"><ele>13.9</ele><time>2021-02-18T11:21:23Z</time><name>PT2563</name></trkpt>
<trkpt lat="53.458169" lon="05.830584"><ele>13.9</ele><time>2021-02-18T11:21:26Z</time><name>PT2564</name></trkpt>
<trkpt lat="53.458173" lon="05.830601"><ele>14.1</ele><time>2021-02-18T11:21:26Z</time><name>PT2565</name></trkpt>
<trkpt lat="53.458178" lon="05.830618"><ele>14.1</ele><time>2021-02-18T11:21:27Z</time><name>PT2566</name></trkpt>
<trkpt lat="53.458184" lon="05.830634"><ele>13.9</ele><time>2021-02-18T11:21:29Z</time><name>PT2567</name></trkpt>
<trkpt lat="53.458189" lon="05.830649"><ele>14</ele><time>2021-02-18T11:21:29Z</time><name>PT2568</name></trkpt>
<trkpt lat="53.458195" lon="05.830663"><ele>13.9</ele><time>2021-02-18T11:21:31Z</time><name>PT2569</name></trkpt>
<trkpt lat="53.458201" lon="05.830676"><ele>13.7</ele><time>2021-02-18T11:21:32Z</time><name>PT2570</name></trkpt>
<trkpt lat="53.458206" lon="05.830689"><ele>13.7</ele><time>2021-02-18T11:21:32Z</time><name>PT2571</name></trkpt>
<trkpt lat="53.458208" lon="05.830704"><ele>13.8</ele><time>2021-02-18T11:21:33Z</time><name>PT2572</name></trkpt>
<trkpt lat="53.458213" lon="05.830718"><ele>13.9</ele><time>2021-02-18T11:21:35Z</time><name>PT2573</name></trkpt>
<trkpt lat="53.458218" lon="05.830726"><ele>13.9</ele><time>2021-02-18T11:21:35Z</time><name>PT2574</name></trkpt>
<trkpt lat="53.458224" lon="05.830729"><ele>13.9</ele><time>2021-02-18T11:21:36Z</time><name>PT2575</name></trkpt>
<trkpt lat="53.458227" lon="05.830734"><ele>14.1</ele><time>2021-02-18T11:21:38Z</time><name>PT2576</name></trkpt>
<trkpt lat="53.458233" lon="05.830742"><ele>13.9</ele><time>2021-02-18T11:21:38Z</time><name>PT2577</name></trkpt>
<trkpt lat="53.458241" lon="05.830754"><ele>14.1</ele><time>2021-02-18T11:21:39Z</time><name>PT2578</name></trkpt>
<trkpt lat="53.458246" lon="05.830767"><ele>14.3</ele><time>2021-02-18T11:21:41Z</time><name>PT2579</name></trkpt>
<trkpt lat="53.458251" lon="05.830779"><ele>14.6</ele><time>2021-02-18T11:21:41Z</time><name>PT2580</name></trkpt>
<trkpt lat="53.458255" lon="05.830792"><ele>14.7</ele><time>2021-02-18T11:21:42Z</time><name>PT2581</name></trkpt>
<trkpt lat="53.458257" lon="05.830809"><ele>15</ele><time>2021-02-18T11:21:44Z</time><name>PT2582</name></trkpt>
<trkpt lat="53.458263" lon="05.830819"><ele>15.2</ele><time>2021-02-18T11:21:44Z</time><name>PT2583</name></trkpt>
<trkpt lat="53.458270" lon="05.830837"><ele>15.1</ele><time>2021-02-18T11:21:46Z</time><name>PT2584</name></trkpt>
<trkpt lat="53.458276" lon="05.830853"><ele>15.1</ele><time>2021-02-18T11:21:47Z</time><name>PT2585</name></trkpt>
<trkpt lat="53.458284" lon="05.830870"><ele>15.1</ele><time>2021-02-18T11:21:47Z</time><name>PT2586</name></trkpt>
<trkpt lat="53.458289" lon="05.830886"><ele>14.8</ele><time>2021-02-18T11:21:49Z</time><name>PT2587</name></trkpt>
<trkpt lat="53.458293" lon="05.830903"><ele>14.8</ele><time>2021-02-18T11:21:50Z</time><name>PT2588</name></trkpt>
<trkpt lat="53.458296" lon="05.830918"><ele>14.7</ele><time>2021-02-18T11:21:50Z</time><name>PT2589</name></trkpt>
<trkpt lat="53.458301" lon="05.830931"><ele>14.5</ele><time>2021-02-18T11:21:51Z</time><name>PT2590</name></trkpt>
<trkpt lat="53.458307" lon="05.830942"><ele>14.4</ele><time>2021-02-18T11:21:53Z</time><name>PT2591</name></trkpt>
<trkpt lat="53.458310" lon="05.830952"><ele>14.5</ele><time>2021-02-18T11:21:53Z</time><name>PT2592</name></trkpt>
<trkpt lat="53.458315" lon="05.830964"><ele>14.6</ele><time>2021-02-18T11:21:54Z</time><name>PT2593</name></trkpt>
<trkpt lat="53.458320" lon="05.830978"><ele>14.7</ele><time>2021-02-18T11:21:56Z</time><name>PT2594</name></trkpt>
<trkpt lat="53.458324" lon="05.830993"><ele>14.8</ele><time>2021-02-18T11:21:56Z</time><name>PT2595</name></trkpt>
<trkpt lat="53.458330" lon="05.831012"><ele>14.8</ele><time>2021-02-18T11:21:58Z</time><name>PT2596</name></trkpt>
<trkpt lat="53.458336" lon="05.831030"><ele>14.8</ele><time>2021-02-18T11:21:59Z</time><name>PT2597</name></trkpt>
<trkpt lat="53.458340" lon="05.831044"><ele>14.7</ele><time>2021-02-18T11:21:59Z</time><name>PT2598</name></trkpt>
<trkpt lat="53.458345" lon="05.831059"><ele>14.6</ele><time>2021-02-18T11:22:01Z</time><name>PT2599</name></trkpt>
<trkpt lat="53.458351" lon="05.831074"><ele>14.6</ele><time>2021-02-18T11:22:02Z</time><name>PT2600</name></trkpt>
<trkpt lat="53.458357" lon="05.831090"><ele>14.5</ele><time>2021-02-18T11:22:02Z</time><name>PT2601</name></trkpt>
<trkpt lat="53.458360" lon="05.831103"><ele>14.5</ele><time>2021-02-18T11:22:03Z</time><name>PT2602</name></trkpt>
<trkpt lat="53.458363" lon="05.831117"><ele>14.3</ele><time>2021-02-18T11:22:05Z</time><name>PT2603</name></trkpt>
<trkpt lat="53.458366" lon="05.831134"><ele>14.2</ele><time>2021-02-18T11:22:05Z</time><name>PT2604</name></trkpt>
<trkpt lat="53.458368" lon="05.831148"><ele>14.1</ele><time>2021-02-18T11:22:06Z</time><name>PT2605</name></trkpt>
<trkpt lat="53.458371" lon="05.831164"><ele>14.1</ele><time>2021-02-18T11:22:08Z</time><name>PT2606</name></trkpt>
<trkpt lat="53.458373" lon="05.831184"><ele>14.1</ele><time>2021-02-18T11:22:08Z</time><name>PT2607</name></trkpt>
<trkpt lat="53.458373" lon="05.831202"><ele>14</ele><time>2021-02-18T11:22:09Z</time><name>PT2608</name></trkpt>
<trkpt lat="53.458372" lon="05.831220"><ele>13.9</ele><time>2021-02-18T11:22:11Z</time><name>PT2609</name></trkpt>
<trkpt lat="53.458370" lon="05.831239"><ele>13.8</ele><time>2021-02-18T11:22:11Z</time><name>PT2610</name></trkpt>
<trkpt lat="53.458369" lon="05.831259"><ele>13.6</ele><time>2021-02-18T11:22:12Z</time><name>PT2611</name></trkpt>
<trkpt lat="53.458370" lon="05.831277"><ele>13.8</ele><time>2021-02-18T11:22:14Z</time><name>PT2612</name></trkpt>
<trkpt lat="53.458373" lon="05.831295"><ele>13.9</ele><time>2021-02-18T11:22:14Z</time><name>PT2613</name></trkpt>
<trkpt lat="53.458375" lon="05.831311"><ele>14.1</ele><time>2021-02-18T11:22:16Z</time><name>PT2614</name></trkpt>
<trkpt lat="53.458378" lon="05.831327"><ele>14.3</ele><time>2021-02-18T11:22:17Z</time><name>PT2615</name></trkpt>
<trkpt lat="53.458379" lon="05.831341"><ele>14.1</ele><time>2021-02-18T11:22:17Z</time><name>PT2616</name></trkpt>
<trkpt lat="53.458381" lon="05.831356"><ele>14.2</ele><time>2021-02-18T11:22:18Z</time><name>PT2617</name></trkpt>
<trkpt lat="53.458383" lon="05.831375"><ele>13.9</ele><time>2021-02-18T11:22:20Z</time><name>PT2618</name></trkpt>
<trkpt lat="53.458386" lon="05.831394"><ele>13.9</ele><time>2021-02-18T11:22:20Z</time><name>PT2619</name></trkpt>
<trkpt lat="53.458389" lon="05.831412"><ele>13.7</ele><time>2021-02-18T11:22:22Z</time><name>PT2620</name></trkpt>
<trkpt lat="53.458390" lon="05.831429"><ele>13.7</ele><time>2021-02-18T11:22:23Z</time><name>PT2621</name></trkpt>
<trkpt lat="53.458393" lon="05.831445"><ele>13.7</ele><time>2021-02-18T11:22:23Z</time><name>PT2622</name></trkpt>
<trkpt lat="53.458397" lon="05.831461"><ele>13.8</ele><time>2021-02-18T11:22:25Z</time><name>PT2623</name></trkpt>
<trkpt lat="53.458401" lon="05.831479"><ele>13.9</ele><time>2021-02-18T11:22:26Z</time><name>PT2624</name></trkpt>
<trkpt lat="53.458405" lon="05.831497"><ele>14.1</ele><time>2021-02-18T11:22:26Z</time><name>PT2625</name></trkpt>
<trkpt lat="53.458409" lon="05.831513"><ele>14.1</ele><time>2021-02-18T11:22:28Z</time><name>PT2626</name></trkpt>
<trkpt lat="53.458413" lon="05.831528"><ele>14.1</ele><time>2021-02-18T11:22:29Z</time><name>PT2627</name></trkpt>
<trkpt lat="53.458417" lon="05.831545"><ele>14.1</ele><time>2021-02-18T11:22:29Z</time><name>PT2628</name></trkpt>
<trkpt lat="53.458421" lon="05.831559"><ele>13.9</ele><time>2021-02-18T11:22:31Z</time><name>PT2629</name></trkpt>
<trkpt lat="53.458423" lon="05.831575"><ele>13.9</ele><time>2021-02-18T11:22:32Z</time><name>PT2630</name></trkpt>
<trkpt lat="53.458426" lon="05.831590"><ele>13.8</ele><time>2021-02-18T11:22:32Z</time><name>PT2631</name></trkpt>
<trkpt lat="53.458431" lon="05.831608"><ele>13.8</ele><time>2021-02-18T11:22:33Z</time><name>PT2632</name></trkpt>
<trkpt lat="53.458434" lon="05.831623"><ele>13.6</ele><time>2021-02-18T11:22:35Z</time><name>PT2633</name></trkpt>
<trkpt lat="53.458439" lon="05.831638"><ele>13.6</ele><time>2021-02-18T11:22:35Z</time><name>PT2634</name></trkpt>
<trkpt lat="53.458443" lon="05.831656"><ele>13.6</ele><time>2021-02-18T11:22:36Z</time><name>PT2635</name></trkpt>
<trkpt lat="53.458448" lon="05.831672"><ele>13.7</ele><time>2021-02-18T11:22:38Z</time><name>PT2636</name></trkpt>
<trkpt lat="53.458453" lon="05.831686"><ele>13.7</ele><time>2021-02-18T11:22:38Z</time><name>PT2637</name></trkpt>
<trkpt lat="53.458457" lon="05.831701"><ele>13.6</ele><time>2021-02-18T11:22:40Z</time><name>PT2638</name></trkpt>
<trkpt lat="53.458462" lon="05.831718"><ele>13.7</ele><time>2021-02-18T11:22:41Z</time><name>PT2639</name></trkpt>
<trkpt lat="53.458467" lon="05.831733"><ele>13.6</ele><time>2021-02-18T11:22:41Z</time><name>PT2640</name></trkpt>
<trkpt lat="53.458471" lon="05.831749"><ele>13.7</ele><time>2021-02-18T11:22:43Z</time><name>PT2641</name></trkpt>
<trkpt lat="53.458475" lon="05.831764"><ele>14</ele><time>2021-02-18T11:22:44Z</time><name>PT2642</name></trkpt>
<trkpt lat="53.458479" lon="05.831779"><ele>14</ele><time>2021-02-18T11:22:44Z</time><name>PT2643</name></trkpt>
<trkpt lat="53.458483" lon="05.831795"><ele>14.1</ele><time>2021-02-18T11:22:45Z</time><name>PT2644</name></trkpt>
<trkpt lat="53.458487" lon="05.831806"><ele>14.1</ele><time>2021-02-18T11:22:47Z</time><name>PT2645</name></trkpt>
<trkpt lat="53.458490" lon="05.831810"><ele>14.1</ele><time>2021-02-18T11:22:47Z</time><name>PT2646</name></trkpt>
<trkpt lat="53.458490" lon="05.831813"><ele>14</ele><time>2021-02-18T11:22:49Z</time><name>PT2647</name></trkpt>
<trkpt lat="53.458492" lon="05.831821"><ele>14.1</ele><time>2021-02-18T11:22:50Z</time><name>PT2648</name></trkpt>
<trkpt lat="53.458497" lon="05.831832"><ele>14</ele><time>2021-02-18T11:22:50Z</time><name>PT2649</name></trkpt>
<trkpt lat="53.458504" lon="05.831843"><ele>14.1</ele><time>2021-02-18T11:22:52Z</time><name>PT2650</name></trkpt>
<trkpt lat="53.458509" lon="05.831858"><ele>14.1</ele><time>2021-02-18T11:22:53Z</time><name>PT2651</name></trkpt>
<trkpt lat="53.458515" lon="05.831870"><ele>14.1</ele><time>2021-02-18T11:22:53Z</time><name>PT2652</name></trkpt>
<trkpt lat="53.458519" lon="05.831883"><ele>14.1</ele><time>2021-02-18T11:22:54Z</time><name>PT2653</name></trkpt>
<trkpt lat="53.458526" lon="05.831897"><ele>14.1</ele><time>2021-02-18T11:22:56Z</time><name>PT2654</name></trkpt>
<trkpt lat="53.458534" lon="05.831912"><ele>14.1</ele><time>2021-02-18T11:22:56Z</time><name>PT2655</name></trkpt>
<trkpt lat="53.458540" lon="05.831923"><ele>14.1</ele><time>2021-02-18T11:22:57Z</time><name>PT2656</name></trkpt>
<trkpt lat="53.458547" lon="05.831935"><ele>14.1</ele><time>2021-02-18T11:22:59Z</time><name>PT2657</name></trkpt>
<trkpt lat="53.458556" lon="05.831947"><ele>14.1</ele><time>2021-02-18T11:22:59Z</time><name>PT2658</name></trkpt>
<trkpt lat="53.458565" lon="05.831957"><ele>14.2</ele><time>2021-02-18T11:23:00Z</time><name>PT2659</name></trkpt>
<trkpt lat="53.458573" lon="05.831966"><ele>14.2</ele><time>2021-02-18T11:23:02Z</time><name>PT2660</name></trkpt>
<trkpt lat="53.458582" lon="05.831977"><ele>14.3</ele><time>2021-02-18T11:23:02Z</time><name>PT2661</name></trkpt>
<trkpt lat="53.458593" lon="05.831987"><ele>14.4</ele><time>2021-02-18T11:23:03Z</time><name>PT2662</name></trkpt>
<trkpt lat="53.458602" lon="05.831998"><ele>14.2</ele><time>2021-02-18T11:23:05Z</time><name>PT2663</name></trkpt>
<trkpt lat="53.458611" lon="05.832007"><ele>14.3</ele><time>2021-02-18T11:23:05Z</time><name>PT2664</name></trkpt>
<trkpt lat="53.458618" lon="05.832016"><ele>14.2</ele><time>2021-02-18T11:23:06Z</time><name>PT2665</name></trkpt>
<trkpt lat="53.458625" lon="05.832023"><ele>14</ele><time>2021-02-18T11:23:08Z</time><name>PT2666</name></trkpt>
<trkpt lat="53.458632" lon="05.832034"><ele>13.8</ele><time>2021-02-18T11:23:08Z</time><name>PT2667</name></trkpt>
<trkpt lat="53.458638" lon="05.832047"><ele>13.6</ele><time>2021-02-18T11:23:09Z</time><name>PT2668</name></trkpt>
<trkpt lat="53.458645" lon="05.832060"><ele>13.6</ele><time>2021-02-18T11:23:11Z</time><name>PT2669</name></trkpt>
<trkpt lat="53.458653" lon="05.832074"><ele>13.7</ele><time>2021-02-18T11:23:11Z</time><name>PT2670</name></trkpt>
<trkpt lat="53.458662" lon="05.832086"><ele>14</ele><time>2021-02-18T11:23:13Z</time><name>PT2671</name></trkpt>
<trkpt lat="53.458671" lon="05.832097"><ele>14.2</ele><time>2021-02-18T11:23:14Z</time><name>PT2672</name></trkpt>
<trkpt lat="53.458679" lon="05.832108"><ele>14.3</ele><time>2021-02-18T11:23:14Z</time><name>PT2673</name></trkpt>
<trkpt lat="53.458686" lon="05.832117"><ele>14.3</ele><time>2021-02-18T11:23:15Z</time><name>PT2674</name></trkpt>
<trkpt lat="53.458694" lon="05.832128"><ele>14.2</ele><time>2021-02-18T11:23:17Z</time><name>PT2675</name></trkpt>
<trkpt lat="53.458701" lon="05.832138"><ele>14.3</ele><time>2021-02-18T11:23:17Z</time><name>PT2676</name></trkpt>
<trkpt lat="53.458708" lon="05.832151"><ele>14.2</ele><time>2021-02-18T11:23:19Z</time><name>PT2677</name></trkpt>
<trkpt lat="53.458714" lon="05.832164"><ele>14.2</ele><time>2021-02-18T11:23:20Z</time><name>PT2678</name></trkpt>
<trkpt lat="53.458723" lon="05.832178"><ele>14.2</ele><time>2021-02-18T11:23:20Z</time><name>PT2679</name></trkpt>
<trkpt lat="53.458732" lon="05.832194"><ele>14.1</ele><time>2021-02-18T11:23:22Z</time><name>PT2680</name></trkpt>
<trkpt lat="53.458738" lon="05.832207"><ele>14</ele><time>2021-02-18T11:23:23Z</time><name>PT2681</name></trkpt>
<trkpt lat="53.458746" lon="05.832220"><ele>13.8</ele><time>2021-02-18T11:23:23Z</time><name>PT2682</name></trkpt>
<trkpt lat="53.458755" lon="05.832235"><ele>14.1</ele><time>2021-02-18T11:23:24Z</time><name>PT2683</name></trkpt>
<trkpt lat="53.458763" lon="05.832248"><ele>14.1</ele><time>2021-02-18T11:23:26Z</time><name>PT2684</name></trkpt>
<trkpt lat="53.458772" lon="05.832260"><ele>14.1</ele><time>2021-02-18T11:23:26Z</time><name>PT2685</name></trkpt>
<trkpt lat="53.458782" lon="05.832271"><ele>14.2</ele><time>2021-02-18T11:23:27Z</time><name>PT2686</name></trkpt>
<trkpt lat="53.458792" lon="05.832285"><ele>14</ele><time>2021-02-18T11:23:29Z</time><name>PT2687</name></trkpt>
<trkpt lat="53.458800" lon="05.832298"><ele>13.9</ele><time>2021-02-18T11:23:29Z</time><name>PT2688</name></trkpt>
<trkpt lat="53.458809" lon="05.832311"><ele>14.1</ele><time>2021-02-18T11:23:31Z</time><name>PT2689</name></trkpt>
<trkpt lat="53.458817" lon="05.832324"><ele>14.1</ele><time>2021-02-18T11:23:32Z</time><name>PT2690</name></trkpt>
<trkpt lat="53.458825" lon="05.832336"><ele>14.1</ele><time>2021-02-18T11:23:32Z</time><name>PT2691</name></trkpt>
<trkpt lat="53.458833" lon="05.832347"><ele>14.3</ele><time>2021-02-18T11:23:34Z</time><name>PT2692</name></trkpt>
<trkpt lat="53.458841" lon="05.832356"><ele>14.4</ele><time>2021-02-18T11:23:35Z</time><name>PT2693</name></trkpt>
<trkpt lat="53.458850" lon="05.832368"><ele>14.4</ele><time>2021-02-18T11:23:35Z</time><name>PT2694</name></trkpt>
<trkpt lat="53.458858" lon="05.832379"><ele>14.6</ele><time>2021-02-18T11:23:36Z</time><name>PT2695</name></trkpt>
<trkpt lat="53.458867" lon="05.832390"><ele>14.7</ele><time>2021-02-18T11:23:38Z</time><name>PT2696</name></trkpt>
<trkpt lat="53.458875" lon="05.832399"><ele>14.8</ele><time>2021-02-18T11:23:38Z</time><name>PT2697</name></trkpt>
<trkpt lat="53.458884" lon="05.832410"><ele>14.7</ele><time>2021-02-18T11:23:39Z</time><name>PT2698</name></trkpt>
<trkpt lat="53.458893" lon="05.832419"><ele>14.6</ele><time>2021-02-18T11:23:41Z</time><name>PT2699</name></trkpt>
<trkpt lat="53.458901" lon="05.832429"><ele>14.6</ele><time>2021-02-18T11:23:41Z</time><name>PT2700</name></trkpt>
<trkpt lat="53.458909" lon="05.832437"><ele>14.5</ele><time>2021-02-18T11:23:42Z</time><name>PT2701</name></trkpt>
<trkpt lat="53.458918" lon="05.832446"><ele>14.5</ele><time>2021-02-18T11:23:44Z</time><name>PT2702</name></trkpt>
<trkpt lat="53.458926" lon="05.832451"><ele>14.5</ele><time>2021-02-18T11:23:44Z</time><name>PT2703</name></trkpt>
<trkpt lat="53.458936" lon="05.832457"><ele>14.6</ele><time>2021-02-18T11:23:45Z</time><name>PT2704</name></trkpt>
<trkpt lat="53.458945" lon="05.832463"><ele>14.8</ele><time>2021-02-18T11:23:47Z</time><name>PT2705</name></trkpt>
<trkpt lat="53.458956" lon="05.832471"><ele>14.9</ele><time>2021-02-18T11:23:47Z</time><name>PT2706</name></trkpt>
<trkpt lat="53.458965" lon="05.832479"><ele>15</ele><time>2021-02-18T11:23:48Z</time><name>PT2707</name></trkpt>
<trkpt lat="53.458972" lon="05.832483"><ele>15</ele><time>2021-02-18T11:23:50Z</time><name>PT2708</name></trkpt>
<trkpt lat="53.458981" lon="05.832488"><ele>15</ele><time>2021-02-18T11:23:50Z</time><name>PT2709</name></trkpt>
<trkpt lat="53.458989" lon="05.832493"><ele>15.1</ele><time>2021-02-18T11:23:51Z</time><name>PT2710</name></trkpt>
<trkpt lat="53.458998" lon="05.832500"><ele>15.3</ele><time>2021-02-18T11:23:53Z</time><name>PT2711</name></trkpt>
<trkpt lat="53.459007" lon="05.832507"><ele>15.1</ele><time>2021-02-18T11:23:53Z</time><name>PT2712</name></trkpt>
<trkpt lat="53.459017" lon="05.832514"><ele>15.2</ele><time>2021-02-18T11:23:54Z</time><name>PT2713</name></trkpt>
<trkpt lat="53.459028" lon="05.832520"><ele>15.2</ele><time>2021-02-18T11:23:56Z</time><name>PT2714</name></trkpt>
<trkpt lat="53.459037" lon="05.832528"><ele>15.3</ele><time>2021-02-18T11:23:56Z</time><name>PT2715</name></trkpt>
<trkpt lat="53.459046" lon="05.832535"><ele>15.3</ele><time>2021-02-18T11:23:57Z</time><name>PT2716</name></trkpt>
<trkpt lat="53.459056" lon="05.832543"><ele>15.3</ele><time>2021-02-18T11:23:59Z</time><name>PT2717</name></trkpt>
<trkpt lat="53.459065" lon="05.832549"><ele>15.3</ele><time>2021-02-18T11:23:59Z</time><name>PT2718</name></trkpt>
<trkpt lat="53.459075" lon="05.832553"><ele>15.2</ele><time>2021-02-18T11:24:00Z</time><name>PT2719</name></trkpt>
<trkpt lat="53.459088" lon="05.832557"><ele>15.3</ele><time>2021-02-18T11:24:02Z</time><name>PT2720</name></trkpt>
<trkpt lat="53.459098" lon="05.832559"><ele>15.2</ele><time>2021-02-18T11:24:02Z</time><name>PT2721</name></trkpt>
<trkpt lat="53.459107" lon="05.832561"><ele>15.1</ele><time>2021-02-18T11:24:03Z</time><name>PT2722</name></trkpt>
<trkpt lat="53.459116" lon="05.832564"><ele>15.1</ele><time>2021-02-18T11:24:05Z</time><name>PT2723</name></trkpt>
<trkpt lat="53.459126" lon="05.832567"><ele>15.1</ele><time>2021-02-18T11:24:05Z</time><name>PT2724</name></trkpt>
<trkpt lat="53.459136" lon="05.832572"><ele>15.2</ele><time>2021-02-18T11:24:06Z</time><name>PT2725</name></trkpt>
<trkpt lat="53.459148" lon="05.832578"><ele>15.3</ele><time>2021-02-18T11:24:08Z</time><name>PT2726</name></trkpt>
<trkpt lat="53.459158" lon="05.832584"><ele>15.3</ele><time>2021-02-18T11:24:08Z</time><name>PT2727</name></trkpt>
<trkpt lat="53.459170" lon="05.832588"><ele>15.3</ele><time>2021-02-18T11:24:09Z</time><name>PT2728</name></trkpt>
<trkpt lat="53.459181" lon="05.832595"><ele>15.1</ele><time>2021-02-18T11:24:11Z</time><name>PT2729</name></trkpt>
<trkpt lat="53.459193" lon="05.832602"><ele>15</ele><time>2021-02-18T11:24:11Z</time><name>PT2730</name></trkpt>
<trkpt lat="53.459205" lon="05.832608"><ele>14.7</ele><time>2021-02-18T11:24:13Z</time><name>PT2731</name></trkpt>
<trkpt lat="53.459214" lon="05.832613"><ele>14.6</ele><time>2021-02-18T11:24:14Z</time><name>PT2732</name></trkpt>
<trkpt lat="53.459223" lon="05.832616"><ele>14.6</ele><time>2021-02-18T11:24:14Z</time><name>PT2733</name></trkpt>
<trkpt lat="53.459235" lon="05.832618"><ele>14.8</ele><time>2021-02-18T11:24:15Z</time><name>PT2734</name></trkpt>
<trkpt lat="53.459246" lon="05.832622"><ele>14.8</ele><time>2021-02-18T11:24:17Z</time><name>PT2735</name></trkpt>
<trkpt lat="53.459255" lon="05.832626"><ele>14.8</ele><time>2021-02-18T11:24:17Z</time><name>PT2736</name></trkpt>
<trkpt lat="53.459265" lon="05.832628"><ele>14.9</ele><time>2021-02-18T11:24:18Z</time><name>PT2737</name></trkpt>
<trkpt lat="53.459275" lon="05.832630"><ele>14.7</ele><time>2021-02-18T11:24:20Z</time><name>PT2738</name></trkpt>
<trkpt lat="53.459285" lon="05.832633"><ele>14.6</ele><time>2021-02-18T11:24:20Z</time><name>PT2739</name></trkpt>
<trkpt lat="53.459294" lon="05.832638"><ele>14.7</ele><time>2021-02-18T11:24:22Z</time><name>PT2740</name></trkpt>
<trkpt lat="53.459303" lon="05.832643"><ele>14.6</ele><time>2021-02-18T11:24:23Z</time><name>PT2741</name></trkpt>
<trkpt lat="53.459316" lon="05.832649"><ele>14.6</ele><time>2021-02-18T11:24:23Z</time><name>PT2742</name></trkpt>
<trkpt lat="53.459328" lon="05.832655"><ele>14.8</ele><time>2021-02-18T11:24:24Z</time><name>PT2743</name></trkpt>
<trkpt lat="53.459339" lon="05.832663"><ele>14.8</ele><time>2021-02-18T11:24:26Z</time><name>PT2744</name></trkpt>
<trkpt lat="53.459350" lon="05.832670"><ele>14.6</ele><time>2021-02-18T11:24:26Z</time><name>PT2745</name></trkpt>
<trkpt lat="53.459363" lon="05.832679"><ele>14.7</ele><time>2021-02-18T11:24:27Z</time><name>PT2746</name></trkpt>
<trkpt lat="53.459374" lon="05.832685"><ele>14.6</ele><time>2021-02-18T11:24:29Z</time><name>PT2747</name></trkpt>
<trkpt lat="53.459384" lon="05.832690"><ele>14.5</ele><time>2021-02-18T11:24:29Z</time><name>PT2748</name></trkpt>
<trkpt lat="53.459396" lon="05.832698"><ele>14.3</ele><time>2021-02-18T11:24:30Z</time><name>PT2749</name></trkpt>
<trkpt lat="53.459406" lon="05.832704"><ele>13.9</ele><time>2021-02-18T11:24:32Z</time><name>PT2750</name></trkpt>
<trkpt lat="53.459416" lon="05.832712"><ele>13.7</ele><time>2021-02-18T11:24:32Z</time><name>PT2751</name></trkpt>
<trkpt lat="53.459427" lon="05.832721"><ele>13.4</ele><time>2021-02-18T11:24:34Z</time><name>PT2752</name></trkpt>
<trkpt lat="53.459437" lon="05.832727"><ele>13.6</ele><time>2021-02-18T11:24:35Z</time><name>PT2753</name></trkpt>
<trkpt lat="53.459448" lon="05.832732"><ele>13.6</ele><time>2021-02-18T11:24:35Z</time><name>PT2754</name></trkpt>
<trkpt lat="53.459459" lon="05.832739"><ele>13.6</ele><time>2021-02-18T11:24:36Z</time><name>PT2755</name></trkpt>
<trkpt lat="53.459472" lon="05.832745"><ele>13.8</ele><time>2021-02-18T11:24:38Z</time><name>PT2756</name></trkpt>
<trkpt lat="53.459483" lon="05.832753"><ele>13.8</ele><time>2021-02-18T11:24:38Z</time><name>PT2757</name></trkpt>
<trkpt lat="53.459495" lon="05.832758"><ele>13.6</ele><time>2021-02-18T11:24:39Z</time><name>PT2758</name></trkpt>
<trkpt lat="53.459506" lon="05.832764"><ele>13.4</ele><time>2021-02-18T11:24:41Z</time><name>PT2759</name></trkpt>
<trkpt lat="53.459516" lon="05.832771"><ele>13.3</ele><time>2021-02-18T11:24:41Z</time><name>PT2760</name></trkpt>
<trkpt lat="53.459526" lon="05.832778"><ele>13.2</ele><time>2021-02-18T11:24:42Z</time><name>PT2761</name></trkpt>
<trkpt lat="53.459536" lon="05.832783"><ele>13.2</ele><time>2021-02-18T11:24:44Z</time><name>PT2762</name></trkpt>
<trkpt lat="53.459545" lon="05.832791"><ele>13.4</ele><time>2021-02-18T11:24:44Z</time><name>PT2763</name></trkpt>
<trkpt lat="53.459556" lon="05.832802"><ele>13.2</ele><time>2021-02-18T11:24:45Z</time><name>PT2764</name></trkpt>
<trkpt lat="53.459567" lon="05.832812"><ele>13.3</ele><time>2021-02-18T11:24:47Z</time><name>PT2765</name></trkpt>
<trkpt lat="53.459576" lon="05.832824"><ele>13.4</ele><time>2021-02-18T11:24:47Z</time><name>PT2766</name></trkpt>
<trkpt lat="53.459585" lon="05.832837"><ele>13.3</ele><time>2021-02-18T11:24:48Z</time><name>PT2767</name></trkpt>
<trkpt lat="53.459596" lon="05.832850"><ele>13.6</ele><time>2021-02-18T11:24:50Z</time><name>PT2768</name></trkpt>
<trkpt lat="53.459606" lon="05.832858"><ele>13.6</ele><time>2021-02-18T11:24:50Z</time><name>PT2769</name></trkpt>
<trkpt lat="53.459617" lon="05.832867"><ele>13.5</ele><time>2021-02-18T11:24:51Z</time><name>PT2770</name></trkpt>
<trkpt lat="53.459630" lon="05.832874"><ele>13.5</ele><time>2021-02-18T11:24:53Z</time><name>PT2771</name></trkpt>
<trkpt lat="53.459639" lon="05.832881"><ele>13.4</ele><time>2021-02-18T11:24:53Z</time><name>PT2772</name></trkpt>
<trkpt lat="53.459648" lon="05.832889"><ele>13.4</ele><time>2021-02-18T11:24:54Z</time><name>PT2773</name></trkpt>
<trkpt lat="53.459656" lon="05.832897"><ele>13.3</ele><time>2021-02-18T11:24:56Z</time><name>PT2774</name></trkpt>
<trkpt lat="53.459655" lon="05.832899"><ele>13.4</ele><time>2021-02-18T11:24:56Z</time><name>PT2775</name></trkpt>
<trkpt lat="53.459654" lon="05.832898"><ele>13.3</ele><time>2021-02-18T11:24:58Z</time><name>PT2776</name></trkpt>
<trkpt lat="53.459655" lon="05.832897"><ele>13.2</ele><time>2021-02-18T11:24:59Z</time><name>PT2777</name></trkpt>
<trkpt lat="53.459657" lon="05.832898"><ele>13.3</ele><time>2021-02-18T11:24:59Z</time><name>PT2778</name></trkpt>
<trkpt lat="53.459658" lon="05.832899"><ele>13.2</ele><time>2021-02-18T11:25:00Z</time><name>PT2779</name></trkpt>
<trkpt lat="53.459660" lon="05.832898"><ele>13.3</ele><time>2021-02-18T11:25:02Z</time><name>PT2780</name></trkpt>
<trkpt lat="53.459668" lon="05.832903"><ele>13.4</ele><time>2021-02-18T11:25:03Z</time><name>PT2781</name></trkpt>
<trkpt lat="53.459678" lon="05.832908"><ele>13.4</ele><time>2021-02-18T11:25:05Z</time><name>PT2782</name></trkpt>
<trkpt lat="53.459686" lon="05.832914"><ele>13.2</ele><time>2021-02-18T11:25:05Z</time><name>PT2783</name></trkpt>
<trkpt lat="53.459694" lon="05.832923"><ele>13.3</ele><time>2021-02-18T11:25:07Z</time><name>PT2784</name></trkpt>
<trkpt lat="53.459702" lon="05.832932"><ele>13.4</ele><time>2021-02-18T11:25:08Z</time><name>PT2785</name></trkpt>
<trkpt lat="53.459712" lon="05.832943"><ele>13.6</ele><time>2021-02-18T11:25:08Z</time><name>PT2786</name></trkpt>
<trkpt lat="53.459722" lon="05.832957"><ele>13.4</ele><time>2021-02-18T11:25:10Z</time><name>PT2787</name></trkpt>
<trkpt lat="53.459732" lon="05.832964"><ele>13.2</ele><time>2021-02-18T11:25:11Z</time><name>PT2788</name></trkpt>
<trkpt lat="53.459741" lon="05.832966"><ele>13.3</ele><time>2021-02-18T11:25:11Z</time><name>PT2789</name></trkpt>
<trkpt lat="53.459751" lon="05.832972"><ele>13.1</ele><time>2021-02-18T11:25:12Z</time><name>PT2790</name></trkpt>
<trkpt lat="53.459762" lon="05.832982"><ele>13.2</ele><time>2021-02-18T11:25:14Z</time><name>PT2791</name></trkpt>
<trkpt lat="53.459771" lon="05.832989"><ele>13.1</ele><time>2021-02-18T11:25:14Z</time><name>PT2792</name></trkpt>
<trkpt lat="53.459780" lon="05.832997"><ele>13.1</ele><time>2021-02-18T11:25:15Z</time><name>PT2793</name></trkpt>
<trkpt lat="53.459789" lon="05.833001"><ele>13.1</ele><time>2021-02-18T11:25:17Z</time><name>PT2794</name></trkpt>
<trkpt lat="53.459799" lon="05.833006"><ele>13.1</ele><time>2021-02-18T11:25:17Z</time><name>PT2795</name></trkpt>
<trkpt lat="53.459809" lon="05.833014"><ele>13.1</ele><time>2021-02-18T11:25:18Z</time><name>PT2796</name></trkpt>
<trkpt lat="53.459818" lon="05.833023"><ele>13.1</ele><time>2021-02-18T11:25:20Z</time><name>PT2797</name></trkpt>
<trkpt lat="53.459828" lon="05.833030"><ele>13</ele><time>2021-02-18T11:25:20Z</time><name>PT2798</name></trkpt>
<trkpt lat="53.459837" lon="05.833036"><ele>12.7</ele><time>2021-02-18T11:25:22Z</time><name>PT2799</name></trkpt>
<trkpt lat="53.459845" lon="05.833043"><ele>12.9</ele><time>2021-02-18T11:25:23Z</time><name>PT2800</name></trkpt>
<trkpt lat="53.459847" lon="05.833048"><ele>12.9</ele><time>2021-02-18T11:25:23Z</time><name>PT2801</name></trkpt>
<trkpt lat="53.459848" lon="05.833050"><ele>13.2</ele><time>2021-02-18T11:25:25Z</time><name>PT2802</name></trkpt>
<trkpt lat="53.459850" lon="05.833050"><ele>13.3</ele><time>2021-02-18T11:25:26Z</time><name>PT2803</name></trkpt>
<trkpt lat="53.459852" lon="05.833056"><ele>13.4</ele><time>2021-02-18T11:25:27Z</time><name>PT2804</name></trkpt>
<trkpt lat="53.459861" lon="05.833068"><ele>13.4</ele><time>2021-02-18T11:25:29Z</time><name>PT2805</name></trkpt>
<trkpt lat="53.459870" lon="05.833078"><ele>13.3</ele><time>2021-02-18T11:25:29Z</time><name>PT2806</name></trkpt>
<trkpt lat="53.459880" lon="05.833088"><ele>13.2</ele><time>2021-02-18T11:25:30Z</time><name>PT2807</name></trkpt>
<trkpt lat="53.459889" lon="05.833097"><ele>13.2</ele><time>2021-02-18T11:25:32Z</time><name>PT2808</name></trkpt>
<trkpt lat="53.459899" lon="05.833102"><ele>13.1</ele><time>2021-02-18T11:25:32Z</time><name>PT2809</name></trkpt>
<trkpt lat="53.459910" lon="05.833109"><ele>13.2</ele><time>2021-02-18T11:25:33Z</time><name>PT2810</name></trkpt>
<trkpt lat="53.459919" lon="05.833118"><ele>13.2</ele><time>2021-02-18T11:25:35Z</time><name>PT2811</name></trkpt>
<trkpt lat="53.459928" lon="05.833127"><ele>13.2</ele><time>2021-02-18T11:25:35Z</time><name>PT2812</name></trkpt>
<trkpt lat="53.459934" lon="05.833132"><ele>13.2</ele><time>2021-02-18T11:25:37Z</time><name>PT2813</name></trkpt>
<trkpt lat="53.459936" lon="05.833136"><ele>13.1</ele><time>2021-02-18T11:25:38Z</time><name>PT2814</name></trkpt>
<trkpt lat="53.459939" lon="05.833137"><ele>12.9</ele><time>2021-02-18T11:25:38Z</time><name>PT2815</name></trkpt>
<trkpt lat="53.459942" lon="05.833141"><ele>12.7</ele><time>2021-02-18T11:25:39Z</time><name>PT2816</name></trkpt>
<trkpt lat="53.459948" lon="05.833147"><ele>12.6</ele><time>2021-02-18T11:25:41Z</time><name>PT2817</name></trkpt>
<trkpt lat="53.459957" lon="05.833157"><ele>12.6</ele><time>2021-02-18T11:25:41Z</time><name>PT2818</name></trkpt>
<trkpt lat="53.459967" lon="05.833166"><ele>12.7</ele><time>2021-02-18T11:25:42Z</time><name>PT2819</name></trkpt>
<trkpt lat="53.459976" lon="05.833173"><ele>12.8</ele><time>2021-02-18T11:25:44Z</time><name>PT2820</name></trkpt>
<trkpt lat="53.459987" lon="05.833182"><ele>12.9</ele><time>2021-02-18T11:25:44Z</time><name>PT2821</name></trkpt>
<trkpt lat="53.459996" lon="05.833191"><ele>12.9</ele><time>2021-02-18T11:25:45Z</time><name>PT2822</name></trkpt>
<trkpt lat="53.460003" lon="05.833198"><ele>12.9</ele><time>2021-02-18T11:25:47Z</time><name>PT2823</name></trkpt>
<trkpt lat="53.460013" lon="05.833204"><ele>12.7</ele><time>2021-02-18T11:25:47Z</time><name>PT2824</name></trkpt>
<trkpt lat="53.460020" lon="05.833208"><ele>12.7</ele><time>2021-02-18T11:25:48Z</time><name>PT2825</name></trkpt>
<trkpt lat="53.460028" lon="05.833216"><ele>12.7</ele><time>2021-02-18T11:25:50Z</time><name>PT2826</name></trkpt>
<trkpt lat="53.460034" lon="05.833224"><ele>12.7</ele><time>2021-02-18T11:25:50Z</time><name>PT2827</name></trkpt>
<trkpt lat="53.460041" lon="05.833230"><ele>12.7</ele><time>2021-02-18T11:25:51Z</time><name>PT2828</name></trkpt>
<trkpt lat="53.460049" lon="05.833236"><ele>12.7</ele><time>2021-02-18T11:25:53Z</time><name>PT2829</name></trkpt>
<trkpt lat="53.460058" lon="05.833241"><ele>12.8</ele><time>2021-02-18T11:25:53Z</time><name>PT2830</name></trkpt>
<trkpt lat="53.460065" lon="05.833245"><ele>12.9</ele><time>2021-02-18T11:25:54Z</time><name>PT2831</name></trkpt>
<trkpt lat="53.460072" lon="05.833253"><ele>13</ele><time>2021-02-18T11:25:56Z</time><name>PT2832</name></trkpt>
<trkpt lat="53.460079" lon="05.833260"><ele>13.1</ele><time>2021-02-18T11:25:56Z</time><name>PT2833</name></trkpt>
<trkpt lat="53.460086" lon="05.833267"><ele>13.2</ele><time>2021-02-18T11:25:57Z</time><name>PT2834</name></trkpt>
<trkpt lat="53.460089" lon="05.833272"><ele>13.1</ele><time>2021-02-18T11:25:59Z</time><name>PT2835</name></trkpt>
<trkpt lat="53.460096" lon="05.833282"><ele>13.2</ele><time>2021-02-18T11:25:59Z</time><name>PT2836</name></trkpt>
<trkpt lat="53.460102" lon="05.833291"><ele>13.2</ele><time>2021-02-18T11:26:00Z</time><name>PT2837</name></trkpt>
<trkpt lat="53.460109" lon="05.833301"><ele>13.2</ele><time>2021-02-18T11:26:02Z</time><name>PT2838</name></trkpt>
<trkpt lat="53.460115" lon="05.833309"><ele>13.2</ele><time>2021-02-18T11:26:02Z</time><name>PT2839</name></trkpt>
<trkpt lat="53.460121" lon="05.833318"><ele>13.2</ele><time>2021-02-18T11:26:03Z</time><name>PT2840</name></trkpt>
<trkpt lat="53.460127" lon="05.833329"><ele>13.1</ele><time>2021-02-18T11:26:05Z</time><name>PT2841</name></trkpt>
<trkpt lat="53.460135" lon="05.833342"><ele>13</ele><time>2021-02-18T11:26:05Z</time><name>PT2842</name></trkpt>
<trkpt lat="53.460142" lon="05.833355"><ele>12.9</ele><time>2021-02-18T11:26:06Z</time><name>PT2843</name></trkpt>
<trkpt lat="53.460148" lon="05.833367"><ele>12.7</ele><time>2021-02-18T11:26:08Z</time><name>PT2844</name></trkpt>
<trkpt lat="53.460155" lon="05.833381"><ele>12.7</ele><time>2021-02-18T11:26:08Z</time><name>PT2845</name></trkpt>
<trkpt lat="53.460160" lon="05.833392"><ele>12.8</ele><time>2021-02-18T11:26:09Z</time><name>PT2846</name></trkpt>
<trkpt lat="53.460166" lon="05.833401"><ele>12.8</ele><time>2021-02-18T11:26:11Z</time><name>PT2847</name></trkpt>
<trkpt lat="53.460172" lon="05.833413"><ele>12.9</ele><time>2021-02-18T11:26:11Z</time><name>PT2848</name></trkpt>
<trkpt lat="53.460179" lon="05.833426"><ele>13</ele><time>2021-02-18T11:26:12Z</time><name>PT2849</name></trkpt>
<trkpt lat="53.460186" lon="05.833442"><ele>12.9</ele><time>2021-02-18T11:26:14Z</time><name>PT2850</name></trkpt>
<trkpt lat="53.460192" lon="05.833461"><ele>13</ele><time>2021-02-18T11:26:14Z</time><name>PT2851</name></trkpt>
<trkpt lat="53.460198" lon="05.833477"><ele>12.8</ele><time>2021-02-18T11:26:15Z</time><name>PT2852</name></trkpt>
<trkpt lat="53.460204" lon="05.833494"><ele>12.7</ele><time>2021-02-18T11:26:17Z</time><name>PT2853</name></trkpt>
<trkpt lat="53.460209" lon="05.833509"><ele>12.7</ele><time>2021-02-18T11:26:17Z</time><name>PT2854</name></trkpt>
<trkpt lat="53.460215" lon="05.833522"><ele>12.7</ele><time>2021-02-18T11:26:18Z</time><name>PT2855</name></trkpt>
<trkpt lat="53.460221" lon="05.833534"><ele>12.6</ele><time>2021-02-18T11:26:20Z</time><name>PT2856</name></trkpt>
<trkpt lat="53.460228" lon="05.833547"><ele>12.5</ele><time>2021-02-18T11:26:20Z</time><name>PT2857</name></trkpt>
<trkpt lat="53.460234" lon="05.833562"><ele>12.5</ele><time>2021-02-18T11:26:21Z</time><name>PT2858</name></trkpt>
<trkpt lat="53.460240" lon="05.833577"><ele>12.7</ele><time>2021-02-18T11:26:23Z</time><name>PT2859</name></trkpt>
<trkpt lat="53.460247" lon="05.833592"><ele>12.7</ele><time>2021-02-18T11:26:23Z</time><name>PT2860</name></trkpt>
<trkpt lat="53.460255" lon="05.833606"><ele>12.8</ele><time>2021-02-18T11:26:24Z</time><name>PT2861</name></trkpt>
<trkpt lat="53.460263" lon="05.833619"><ele>12.9</ele><time>2021-02-18T11:26:26Z</time><name>PT2862</name></trkpt>
<trkpt lat="53.460270" lon="05.833631"><ele>12.8</ele><time>2021-02-18T11:26:26Z</time><name>PT2863</name></trkpt>
<trkpt lat="53.460276" lon="05.833642"><ele>12.9</ele><time>2021-02-18T11:26:28Z</time><name>PT2864</name></trkpt>
<trkpt lat="53.460281" lon="05.833654"><ele>13.1</ele><time>2021-02-18T11:26:29Z</time><name>PT2865</name></trkpt>
<trkpt lat="53.460286" lon="05.833665"><ele>13</ele><time>2021-02-18T11:26:29Z</time><name>PT2866</name></trkpt>
<trkpt lat="53.460293" lon="05.833676"><ele>13.1</ele><time>2021-02-18T11:26:30Z</time><name>PT2867</name></trkpt>
<trkpt lat="53.460300" lon="05.833688"><ele>13.1</ele><time>2021-02-18T11:26:32Z</time><name>PT2868</name></trkpt>
<trkpt lat="53.460307" lon="05.833701"><ele>12.9</ele><time>2021-02-18T11:26:32Z</time><name>PT2869</name></trkpt>
<trkpt lat="53.460314" lon="05.833713"><ele>13.1</ele><time>2021-02-18T11:26:34Z</time><name>PT2870</name></trkpt>
<trkpt lat="53.460322" lon="05.833721"><ele>13.1</ele><time>2021-02-18T11:26:35Z</time><name>PT2871</name></trkpt>
<trkpt lat="53.460331" lon="05.833730"><ele>13</ele><time>2021-02-18T11:26:35Z</time><name>PT2872</name></trkpt>
<trkpt lat="53.460338" lon="05.833736"><ele>12.9</ele><time>2021-02-18T11:26:36Z</time><name>PT2873</name></trkpt>
<trkpt lat="53.460345" lon="05.833743"><ele>12.9</ele><time>2021-02-18T11:26:38Z</time><name>PT2874</name></trkpt>
<trkpt lat="53.460352" lon="05.833754"><ele>12.7</ele><time>2021-02-18T11:26:38Z</time><name>PT2875</name></trkpt>
<trkpt lat="53.460359" lon="05.833763"><ele>12.7</ele><time>2021-02-18T11:26:40Z</time><name>PT2876</name></trkpt>
<trkpt lat="53.460367" lon="05.833772"><ele>12.7</ele><time>2021-02-18T11:26:41Z</time><name>PT2877</name></trkpt>
<trkpt lat="53.460376" lon="05.833780"><ele>12.6</ele><time>2021-02-18T11:26:41Z</time><name>PT2878</name></trkpt>
<trkpt lat="53.460385" lon="05.833787"><ele>12.7</ele><time>2021-02-18T11:26:42Z</time><name>PT2879</name></trkpt>
<trkpt lat="53.460393" lon="05.833793"><ele>12.7</ele><time>2021-02-18T11:26:44Z</time><name>PT2880</name></trkpt>
<trkpt lat="53.460401" lon="05.833799"><ele>12.5</ele><time>2021-02-18T11:26:44Z</time><name>PT2881</name></trkpt>
<trkpt lat="53.460410" lon="05.833809"><ele>12.5</ele><time>2021-02-18T11:26:45Z</time><name>PT2882</name></trkpt>
<trkpt lat="53.460418" lon="05.833815"><ele>12.6</ele><time>2021-02-18T11:26:47Z</time><name>PT2883</name></trkpt>
<trkpt lat="53.460427" lon="05.833818"><ele>12.5</ele><time>2021-02-18T11:26:47Z</time><name>PT2884</name></trkpt>
<trkpt lat="53.460434" lon="05.833825"><ele>12.5</ele><time>2021-02-18T11:26:48Z</time><name>PT2885</name></trkpt>
<trkpt lat="53.460440" lon="05.833830"><ele>12.6</ele><time>2021-02-18T11:26:50Z</time><name>PT2886</name></trkpt>
<trkpt lat="53.460446" lon="05.833834"><ele>12.5</ele><time>2021-02-18T11:26:50Z</time><name>PT2887</name></trkpt>
<trkpt lat="53.460454" lon="05.833842"><ele>12.3</ele><time>2021-02-18T11:26:51Z</time><name>PT2888</name></trkpt>
<trkpt lat="53.460461" lon="05.833849"><ele>12.3</ele><time>2021-02-18T11:26:53Z</time><name>PT2889</name></trkpt>
<trkpt lat="53.460470" lon="05.833857"><ele>12.3</ele><time>2021-02-18T11:26:53Z</time><name>PT2890</name></trkpt>
<trkpt lat="53.460478" lon="05.833862"><ele>12.3</ele><time>2021-02-18T11:26:54Z</time><name>PT2891</name></trkpt>
<trkpt lat="53.460486" lon="05.833867"><ele>12.3</ele><time>2021-02-18T11:26:56Z</time><name>PT2892</name></trkpt>
<trkpt lat="53.460495" lon="05.833875"><ele>12.3</ele><time>2021-02-18T11:26:56Z</time><name>PT2893</name></trkpt>
<trkpt lat="53.460503" lon="05.833884"><ele>12.5</ele><time>2021-02-18T11:26:57Z</time><name>PT2894</name></trkpt>
<trkpt lat="53.460511" lon="05.833892"><ele>12.7</ele><time>2021-02-18T11:26:59Z</time><name>PT2895</name></trkpt>
<trkpt lat="53.460520" lon="05.833899"><ele>12.6</ele><time>2021-02-18T11:26:59Z</time><name>PT2896</name></trkpt>
<trkpt lat="53.460529" lon="05.833904"><ele>12.7</ele><time>2021-02-18T11:27:00Z</time><name>PT2897</name></trkpt>
<trkpt lat="53.460538" lon="05.833909"><ele>12.7</ele><time>2021-02-18T11:27:02Z</time><name>PT2898</name></trkpt>
<trkpt lat="53.460548" lon="05.833915"><ele>12.7</ele><time>2021-02-18T11:27:02Z</time><name>PT2899</name></trkpt>
<trkpt lat="53.460554" lon="05.833921"><ele>12.8</ele><time>2021-02-18T11:27:04Z</time><name>PT2900</name></trkpt>
<trkpt lat="53.460561" lon="05.833925"><ele>12.8</ele><time>2021-02-18T11:27:05Z</time><name>PT2901</name></trkpt>
<trkpt lat="53.460570" lon="05.833929"><ele>12.7</ele><time>2021-02-18T11:27:05Z</time><name>PT2902</name></trkpt>
<trkpt lat="53.460578" lon="05.833940"><ele>12.7</ele><time>2021-02-18T11:27:06Z</time><name>PT2903</name></trkpt>
<trkpt lat="53.460586" lon="05.833949"><ele>12.8</ele><time>2021-02-18T11:27:08Z</time><name>PT2904</name></trkpt>
<trkpt lat="53.460593" lon="05.833957"><ele>12.8</ele><time>2021-02-18T11:27:08Z</time><name>PT2905</name></trkpt>
<trkpt lat="53.460601" lon="05.833964"><ele>12.9</ele><time>2021-02-18T11:27:09Z</time><name>PT2906</name></trkpt>
<trkpt lat="53.460609" lon="05.833972"><ele>12.9</ele><time>2021-02-18T11:27:11Z</time><name>PT2907</name></trkpt>
<trkpt lat="53.460617" lon="05.833978"><ele>12.8</ele><time>2021-02-18T11:27:11Z</time><name>PT2908</name></trkpt>
<trkpt lat="53.460624" lon="05.833984"><ele>12.7</ele><time>2021-02-18T11:27:12Z</time><name>PT2909</name></trkpt>
<trkpt lat="53.460633" lon="05.833993"><ele>12.7</ele><time>2021-02-18T11:27:14Z</time><name>PT2910</name></trkpt>
<trkpt lat="53.460641" lon="05.834002"><ele>12.8</ele><time>2021-02-18T11:27:14Z</time><name>PT2911</name></trkpt>
<trkpt lat="53.460648" lon="05.834013"><ele>13</ele><time>2021-02-18T11:27:15Z</time><name>PT2912</name></trkpt>
<trkpt lat="53.460657" lon="05.834024"><ele>13.1</ele><time>2021-02-18T11:27:17Z</time><name>PT2913</name></trkpt>
<trkpt lat="53.460666" lon="05.834032"><ele>13.1</ele><time>2021-02-18T11:27:17Z</time><name>PT2914</name></trkpt>
<trkpt lat="53.460673" lon="05.834039"><ele>13.2</ele><time>2021-02-18T11:27:18Z</time><name>PT2915</name></trkpt>
<trkpt lat="53.460681" lon="05.834047"><ele>13.2</ele><time>2021-02-18T11:27:20Z</time><name>PT2916</name></trkpt>
<trkpt lat="53.460687" lon="05.834055"><ele>13.2</ele><time>2021-02-18T11:27:20Z</time><name>PT2917</name></trkpt>
<trkpt lat="53.460694" lon="05.834065"><ele>13.3</ele><time>2021-02-18T11:27:21Z</time><name>PT2918</name></trkpt>
<trkpt lat="53.460700" lon="05.834073"><ele>13.6</ele><time>2021-02-18T11:27:23Z</time><name>PT2919</name></trkpt>
<trkpt lat="53.460706" lon="05.834083"><ele>13.5</ele><time>2021-02-18T11:27:23Z</time><name>PT2920</name></trkpt>
<trkpt lat="53.460713" lon="05.834093"><ele>13.5</ele><time>2021-02-18T11:27:24Z</time><name>PT2921</name></trkpt>
<trkpt lat="53.460718" lon="05.834104"><ele>13.5</ele><time>2021-02-18T11:27:26Z</time><name>PT2922</name></trkpt>
<trkpt lat="53.460725" lon="05.834116"><ele>13.5</ele><time>2021-02-18T11:27:26Z</time><name>PT2923</name></trkpt>
<trkpt lat="53.460733" lon="05.834127"><ele>13.4</ele><time>2021-02-18T11:27:27Z</time><name>PT2924</name></trkpt>
<trkpt lat="53.460739" lon="05.834136"><ele>13.6</ele><time>2021-02-18T11:27:29Z</time><name>PT2925</name></trkpt>
<trkpt lat="53.460743" lon="05.834146"><ele>13.6</ele><time>2021-02-18T11:27:29Z</time><name>PT2926</name></trkpt>
<trkpt lat="53.460749" lon="05.834157"><ele>13.8</ele><time>2021-02-18T11:27:31Z</time><name>PT2927</name></trkpt>
<trkpt lat="53.460755" lon="05.834168"><ele>14</ele><time>2021-02-18T11:27:32Z</time><name>PT2928</name></trkpt>
<trkpt lat="53.460762" lon="05.834180"><ele>14.1</ele><time>2021-02-18T11:27:32Z</time><name>PT2929</name></trkpt>
<trkpt lat="53.460769" lon="05.834189"><ele>14</ele><time>2021-02-18T11:27:33Z</time><name>PT2930</name></trkpt>
<trkpt lat="53.460775" lon="05.834196"><ele>13.9</ele><time>2021-02-18T11:27:35Z</time><name>PT2931</name></trkpt>
<trkpt lat="53.460781" lon="05.834204"><ele>13.9</ele><time>2021-02-18T11:27:35Z</time><name>PT2932</name></trkpt>
<trkpt lat="53.460787" lon="05.834213"><ele>14</ele><time>2021-02-18T11:27:36Z</time><name>PT2933</name></trkpt>
<trkpt lat="53.460792" lon="05.834224"><ele>14.1</ele><time>2021-02-18T11:27:38Z</time><name>PT2934</name></trkpt>
<trkpt lat="53.460797" lon="05.834235"><ele>14.2</ele><time>2021-02-18T11:27:38Z</time><name>PT2935</name></trkpt>
<trkpt lat="53.460802" lon="05.834246"><ele>14.3</ele><time>2021-02-18T11:27:39Z</time><name>PT2936</name></trkpt>
<trkpt lat="53.460809" lon="05.834252"><ele>14.6</ele><time>2021-02-18T11:27:41Z</time><name>PT2937</name></trkpt>
<trkpt lat="53.460815" lon="05.834256"><ele>14.6</ele><time>2021-02-18T11:27:41Z</time><name>PT2938</name></trkpt>
<trkpt lat="53.460820" lon="05.834264"><ele>14.8</ele><time>2021-02-18T11:27:43Z</time><name>PT2939</name></trkpt>
<trkpt lat="53.460827" lon="05.834277"><ele>15.1</ele><time>2021-02-18T11:27:44Z</time><name>PT2940</name></trkpt>
<trkpt lat="53.460833" lon="05.834288"><ele>15.1</ele><time>2021-02-18T11:27:44Z</time><name>PT2941</name></trkpt>
<trkpt lat="53.460840" lon="05.834302"><ele>15.1</ele><time>2021-02-18T11:27:45Z</time><name>PT2942</name></trkpt>
<trkpt lat="53.460844" lon="05.834314"><ele>15.2</ele><time>2021-02-18T11:27:47Z</time><name>PT2943</name></trkpt>
<trkpt lat="53.460846" lon="05.834322"><ele>15.2</ele><time>2021-02-18T11:27:47Z</time><name>PT2944</name></trkpt>
<trkpt lat="53.460849" lon="05.834333"><ele>15.5</ele><time>2021-02-18T11:27:48Z</time><name>PT2945</name></trkpt>
<trkpt lat="53.460850" lon="05.834346"><ele>15.6</ele><time>2021-02-18T11:27:50Z</time><name>PT2946</name></trkpt>
<trkpt lat="53.460850" lon="05.834358"><ele>15.6</ele><time>2021-02-18T11:27:50Z</time><name>PT2947</name></trkpt>
<trkpt lat="53.460849" lon="05.834373"><ele>15.5</ele><time>2021-02-18T11:27:51Z</time><name>PT2948</name></trkpt>
<trkpt lat="53.460848" lon="05.834386"><ele>15.3</ele><time>2021-02-18T11:27:53Z</time><name>PT2949</name></trkpt>
<trkpt lat="53.460849" lon="05.834399"><ele>15.3</ele><time>2021-02-18T11:27:53Z</time><name>PT2950</name></trkpt>
<trkpt lat="53.460850" lon="05.834413"><ele>15.3</ele><time>2021-02-18T11:27:54Z</time><name>PT2951</name></trkpt>
<trkpt lat="53.460852" lon="05.834424"><ele>15.2</ele><time>2021-02-18T11:27:56Z</time><name>PT2952</name></trkpt>
<trkpt lat="53.460852" lon="05.834436"><ele>15.2</ele><time>2021-02-18T11:27:56Z</time><name>PT2953</name></trkpt>
<trkpt lat="53.460854" lon="05.834447"><ele>15.2</ele><time>2021-02-18T11:27:57Z</time><name>PT2954</name></trkpt>
<trkpt lat="53.460856" lon="05.834459"><ele>15</ele><time>2021-02-18T11:27:59Z</time><name>PT2955</name></trkpt>
<trkpt lat="53.460859" lon="05.834470"><ele>14.8</ele><time>2021-02-18T11:27:59Z</time><name>PT2956</name></trkpt>
<trkpt lat="53.460858" lon="05.834480"><ele>14.6</ele><time>2021-02-18T11:28:00Z</time><name>PT2957</name></trkpt>
<trkpt lat="53.460858" lon="05.834489"><ele>14.2</ele><time>2021-02-18T11:28:02Z</time><name>PT2958</name></trkpt>
<trkpt lat="53.460861" lon="05.834495"><ele>14</ele><time>2021-02-18T11:28:02Z</time><name>PT2959</name></trkpt>
<trkpt lat="53.460862" lon="05.834498"><ele>14.1</ele><time>2021-02-18T11:28:03Z</time><name>PT2960</name></trkpt>
<trkpt lat="53.460862" lon="05.834500"><ele>14.2</ele><time>2021-02-18T11:28:05Z</time><name>PT2961</name></trkpt>
<trkpt lat="53.460862" lon="05.834501"><ele>14.2</ele><time>2021-02-18T11:28:05Z</time><name>PT2962</name></trkpt>
<trkpt lat="53.460864" lon="05.834503"><ele>14.5</ele><time>2021-02-18T11:28:17Z</time><name>PT2963</name></trkpt>
<trkpt lat="53.460864" lon="05.834506"><ele>14.4</ele><time>2021-02-18T11:28:18Z</time><name>PT2964</name></trkpt>
<trkpt lat="53.460865" lon="05.834506"><ele>14.3</ele><time>2021-02-18T11:28:20Z</time><name>PT2965</name></trkpt>
<trkpt lat="53.460866" lon="05.834515"><ele>14.5</ele><time>2021-02-18T11:28:29Z</time><name>PT2966</name></trkpt>
<trkpt lat="53.460868" lon="05.834534"><ele>14.4</ele><time>2021-02-18T11:28:29Z</time><name>PT2967</name></trkpt>
<trkpt lat="53.460869" lon="05.834553"><ele>14.4</ele><time>2021-02-18T11:28:30Z</time><name>PT2968</name></trkpt>
<trkpt lat="53.460871" lon="05.834569"><ele>14.3</ele><time>2021-02-18T11:28:32Z</time><name>PT2969</name></trkpt>
<trkpt lat="53.460874" lon="05.834589"><ele>14.3</ele><time>2021-02-18T11:28:32Z</time><name>PT2970</name></trkpt>
<trkpt lat="53.460877" lon="05.834615"><ele>14.2</ele><time>2021-02-18T11:28:34Z</time><name>PT2971</name></trkpt>
<trkpt lat="53.460880" lon="05.834634"><ele>14.1</ele><time>2021-02-18T11:28:35Z</time><name>PT2972</name></trkpt>
<trkpt lat="53.460884" lon="05.834649"><ele>14.1</ele><time>2021-02-18T11:28:35Z</time><name>PT2973</name></trkpt>
<trkpt lat="53.460889" lon="05.834665"><ele>14.3</ele><time>2021-02-18T11:28:36Z</time><name>PT2974</name></trkpt>
<trkpt lat="53.460894" lon="05.834683"><ele>14.1</ele><time>2021-02-18T11:28:38Z</time><name>PT2975</name></trkpt>
<trkpt lat="53.460898" lon="05.834700"><ele>14.1</ele><time>2021-02-18T11:28:38Z</time><name>PT2976</name></trkpt>
<trkpt lat="53.460902" lon="05.834719"><ele>14</ele><time>2021-02-18T11:28:39Z</time><name>PT2977</name></trkpt>
<trkpt lat="53.460907" lon="05.834735"><ele>13.9</ele><time>2021-02-18T11:28:41Z</time><name>PT2978</name></trkpt>
<trkpt lat="53.460911" lon="05.834755"><ele>14</ele><time>2021-02-18T11:28:41Z</time><name>PT2979</name></trkpt>
<trkpt lat="53.460917" lon="05.834774"><ele>14.1</ele><time>2021-02-18T11:28:42Z</time><name>PT2980</name></trkpt>
<trkpt lat="53.460918" lon="05.834788"><ele>14.1</ele><time>2021-02-18T11:28:44Z</time><name>PT2981</name></trkpt>
<trkpt lat="53.460919" lon="05.834809"><ele>14</ele><time>2021-02-18T11:28:44Z</time><name>PT2982</name></trkpt>
<trkpt lat="53.460921" lon="05.834829"><ele>14.1</ele><time>2021-02-18T11:28:46Z</time><name>PT2983</name></trkpt>
<trkpt lat="53.460927" lon="05.834852"><ele>14</ele><time>2021-02-18T11:28:47Z</time><name>PT2984</name></trkpt>
<trkpt lat="53.460931" lon="05.834875"><ele>14.1</ele><time>2021-02-18T11:28:47Z</time><name>PT2985</name></trkpt>
<trkpt lat="53.460934" lon="05.834894"><ele>14.3</ele><time>2021-02-18T11:28:48Z</time><name>PT2986</name></trkpt>
<trkpt lat="53.460935" lon="05.834915"><ele>14.4</ele><time>2021-02-18T11:28:50Z</time><name>PT2987</name></trkpt>
<trkpt lat="53.460938" lon="05.834936"><ele>14.5</ele><time>2021-02-18T11:28:50Z</time><name>PT2988</name></trkpt>
<trkpt lat="53.460940" lon="05.834959"><ele>14.4</ele><time>2021-02-18T11:28:51Z</time><name>PT2989</name></trkpt>
<trkpt lat="53.460942" lon="05.834979"><ele>14.1</ele><time>2021-02-18T11:28:53Z</time><name>PT2990</name></trkpt>
<trkpt lat="53.460945" lon="05.834998"><ele>14.1</ele><time>2021-02-18T11:28:53Z</time><name>PT2991</name></trkpt>
<trkpt lat="53.460949" lon="05.835015"><ele>14.1</ele><time>2021-02-18T11:28:54Z</time><name>PT2992</name></trkpt>
<trkpt lat="53.460952" lon="05.835033"><ele>14.1</ele><time>2021-02-18T11:28:56Z</time><name>PT2993</name></trkpt>
<trkpt lat="53.460957" lon="05.835053"><ele>14.2</ele><time>2021-02-18T11:28:56Z</time><name>PT2994</name></trkpt>
<trkpt lat="53.460960" lon="05.835072"><ele>14.4</ele><time>2021-02-18T11:28:57Z</time><name>PT2995</name></trkpt>
<trkpt lat="53.460962" lon="05.835090"><ele>14.4</ele><time>2021-02-18T11:28:59Z</time><name>PT2996</name></trkpt>
<trkpt lat="53.460965" lon="05.835107"><ele>14.5</ele><time>2021-02-18T11:28:59Z</time><name>PT2997</name></trkpt>
<trkpt lat="53.460967" lon="05.835125"><ele>14.6</ele><time>2021-02-18T11:29:00Z</time><name>PT2998</name></trkpt>
<trkpt lat="53.460969" lon="05.835143"><ele>14.5</ele><time>2021-02-18T11:29:02Z</time><name>PT2999</name></trkpt>
<trkpt lat="53.460970" lon="05.835162"><ele>14.4</ele><time>2021-02-18T11:29:02Z</time><name>PT3000</name></trkpt>
<trkpt lat="53.460973" lon="05.835174"><ele>14.4</ele><time>2021-02-18T11:29:03Z</time><name>PT3001</name></trkpt>
<trkpt lat="53.460975" lon="05.835191"><ele>14.2</ele><time>2021-02-18T11:29:05Z</time><name>PT3002</name></trkpt>
<trkpt lat="53.460975" lon="05.835210"><ele>14.1</ele><time>2021-02-18T11:29:05Z</time><name>PT3003</name></trkpt>
<trkpt lat="53.460976" lon="05.835230"><ele>14.1</ele><time>2021-02-18T11:29:06Z</time><name>PT3004</name></trkpt>
<trkpt lat="53.460977" lon="05.835249"><ele>14</ele><time>2021-02-18T11:29:08Z</time><name>PT3005</name></trkpt>
<trkpt lat="53.460977" lon="05.835269"><ele>14.1</ele><time>2021-02-18T11:29:08Z</time><name>PT3006</name></trkpt>
<trkpt lat="53.460978" lon="05.835288"><ele>14.1</ele><time>2021-02-18T11:29:09Z</time><name>PT3007</name></trkpt>
<trkpt lat="53.460978" lon="05.835307"><ele>14.1</ele><time>2021-02-18T11:29:11Z</time><name>PT3008</name></trkpt>
<trkpt lat="53.460978" lon="05.835328"><ele>14.1</ele><time>2021-02-18T11:29:11Z</time><name>PT3009</name></trkpt>
<trkpt lat="53.460981" lon="05.835350"><ele>14.1</ele><time>2021-02-18T11:29:12Z</time><name>PT3010</name></trkpt>
<trkpt lat="53.460984" lon="05.835370"><ele>14.1</ele><time>2021-02-18T11:29:14Z</time><name>PT3011</name></trkpt>
<trkpt lat="53.460988" lon="05.835390"><ele>14</ele><time>2021-02-18T11:29:14Z</time><name>PT3012</name></trkpt>
<trkpt lat="53.460990" lon="05.835408"><ele>14.1</ele><time>2021-02-18T11:29:15Z</time><name>PT3013</name></trkpt>
<trkpt lat="53.460990" lon="05.835425"><ele>14.4</ele><time>2021-02-18T11:29:17Z</time><name>PT3014</name></trkpt>
<trkpt lat="53.460991" lon="05.835445"><ele>14.3</ele><time>2021-02-18T11:29:17Z</time><name>PT3015</name></trkpt>
<trkpt lat="53.460991" lon="05.835462"><ele>14.4</ele><time>2021-02-18T11:29:18Z</time><name>PT3016</name></trkpt>
<trkpt lat="53.460992" lon="05.835482"><ele>14.3</ele><time>2021-02-18T11:29:20Z</time><name>PT3017</name></trkpt>
<trkpt lat="53.460991" lon="05.835504"><ele>14.2</ele><time>2021-02-18T11:29:20Z</time><name>PT3018</name></trkpt>
<trkpt lat="53.460988" lon="05.835528"><ele>14.2</ele><time>2021-02-18T11:29:21Z</time><name>PT3019</name></trkpt>
<trkpt lat="53.460987" lon="05.835550"><ele>14.2</ele><time>2021-02-18T11:29:23Z</time><name>PT3020</name></trkpt>
<trkpt lat="53.460988" lon="05.835573"><ele>14.2</ele><time>2021-02-18T11:29:23Z</time><name>PT3021</name></trkpt>
<trkpt lat="53.460988" lon="05.835594"><ele>14.1</ele><time>2021-02-18T11:29:24Z</time><name>PT3022</name></trkpt>
<trkpt lat="53.460989" lon="05.835613"><ele>14.4</ele><time>2021-02-18T11:29:26Z</time><name>PT3023</name></trkpt>
<trkpt lat="53.460989" lon="05.835633"><ele>14.3</ele><time>2021-02-18T11:29:26Z</time><name>PT3024</name></trkpt>
<trkpt lat="53.460991" lon="05.835655"><ele>14.4</ele><time>2021-02-18T11:29:27Z</time><name>PT3025</name></trkpt>
<trkpt lat="53.460992" lon="05.835676"><ele>14.3</ele><time>2021-02-18T11:29:29Z</time><name>PT3026</name></trkpt>
<trkpt lat="53.460995" lon="05.835695"><ele>14.2</ele><time>2021-02-18T11:29:29Z</time><name>PT3027</name></trkpt>
<trkpt lat="53.460996" lon="05.835715"><ele>14.2</ele><time>2021-02-18T11:29:30Z</time><name>PT3028</name></trkpt>
<trkpt lat="53.460997" lon="05.835731"><ele>14.2</ele><time>2021-02-18T11:29:32Z</time><name>PT3029</name></trkpt>
<trkpt lat="53.460997" lon="05.835741"><ele>14.3</ele><time>2021-02-18T11:29:32Z</time><name>PT3030</name></trkpt>
<trkpt lat="53.460996" lon="05.835748"><ele>14.3</ele><time>2021-02-18T11:29:33Z</time><name>PT3031</name></trkpt>
<trkpt lat="53.460996" lon="05.835757"><ele>14.3</ele><time>2021-02-18T11:29:35Z</time><name>PT3032</name></trkpt>
<trkpt lat="53.460996" lon="05.835772"><ele>14.2</ele><time>2021-02-18T11:29:35Z</time><name>PT3033</name></trkpt>
<trkpt lat="53.460996" lon="05.835786"><ele>14.1</ele><time>2021-02-18T11:29:36Z</time><name>PT3034</name></trkpt>
<trkpt lat="53.460995" lon="05.835803"><ele>14.1</ele><time>2021-02-18T11:29:38Z</time><name>PT3035</name></trkpt>
<trkpt lat="53.460994" lon="05.835822"><ele>14.2</ele><time>2021-02-18T11:29:38Z</time><name>PT3036</name></trkpt>
<trkpt lat="53.460995" lon="05.835847"><ele>14.2</ele><time>2021-02-18T11:29:39Z</time><name>PT3037</name></trkpt>
<trkpt lat="53.460996" lon="05.835867"><ele>14</ele><time>2021-02-18T11:29:41Z</time><name>PT3038</name></trkpt>
<trkpt lat="53.460996" lon="05.835887"><ele>14.1</ele><time>2021-02-18T11:29:41Z</time><name>PT3039</name></trkpt>
<trkpt lat="53.460998" lon="05.835910"><ele>14.1</ele><time>2021-02-18T11:29:42Z</time><name>PT3040</name></trkpt>
<trkpt lat="53.460999" lon="05.835933"><ele>13.9</ele><time>2021-02-18T11:29:44Z</time><name>PT3041</name></trkpt>
<trkpt lat="53.460999" lon="05.835955"><ele>14</ele><time>2021-02-18T11:29:44Z</time><name>PT3042</name></trkpt>
<trkpt lat="53.460997" lon="05.835973"><ele>14</ele><time>2021-02-18T11:29:45Z</time><name>PT3043</name></trkpt>
<trkpt lat="53.460995" lon="05.835991"><ele>13.7</ele><time>2021-02-18T11:29:47Z</time><name>PT3044</name></trkpt>
<trkpt lat="53.460995" lon="05.836007"><ele>13.7</ele><time>2021-02-18T11:29:47Z</time><name>PT3045</name></trkpt>
<trkpt lat="53.460996" lon="05.836023"><ele>13.7</ele><time>2021-02-18T11:29:49Z</time><name>PT3046</name></trkpt>
<trkpt lat="53.460995" lon="05.836040"><ele>13.6</ele><time>2021-02-18T11:29:50Z</time><name>PT3047</name></trkpt>
<trkpt lat="53.460993" lon="05.836055"><ele>13.5</ele><time>2021-02-18T11:29:50Z</time><name>PT3048</name></trkpt>
<trkpt lat="53.460992" lon="05.836073"><ele>13.6</ele><time>2021-02-18T11:29:51Z</time><name>PT3049</name></trkpt>
<trkpt lat="53.460993" lon="05.836095"><ele>13.4</ele><time>2021-02-18T11:29:53Z</time><name>PT3050</name></trkpt>
<trkpt lat="53.460996" lon="05.836116"><ele>13.5</ele><time>2021-02-18T11:29:53Z</time><name>PT3051</name></trkpt>
<trkpt lat="53.460998" lon="05.836137"><ele>13.9</ele><time>2021-02-18T11:29:54Z</time><name>PT3052</name></trkpt>
<trkpt lat="53.460998" lon="05.836156"><ele>14.1</ele><time>2021-02-18T11:29:56Z</time><name>PT3053</name></trkpt>
<trkpt lat="53.460998" lon="05.836173"><ele>14.1</ele><time>2021-02-18T11:29:56Z</time><name>PT3054</name></trkpt>
<trkpt lat="53.460998" lon="05.836192"><ele>14.1</ele><time>2021-02-18T11:29:57Z</time><name>PT3055</name></trkpt>
<trkpt lat="53.460997" lon="05.836209"><ele>13.9</ele><time>2021-02-18T11:29:59Z</time><name>PT3056</name></trkpt>
<trkpt lat="53.460998" lon="05.836228"><ele>13.7</ele><time>2021-02-18T11:29:59Z</time><name>PT3057</name></trkpt>
<trkpt lat="53.460998" lon="05.836247"><ele>14</ele><time>2021-02-18T11:30:00Z</time><name>PT3058</name></trkpt>
<trkpt lat="53.460998" lon="05.836266"><ele>14.1</ele><time>2021-02-18T11:30:02Z</time><name>PT3059</name></trkpt>
<trkpt lat="53.460996" lon="05.836281"><ele>14.1</ele><time>2021-02-18T11:30:02Z</time><name>PT3060</name></trkpt>
<trkpt lat="53.460998" lon="05.836297"><ele>14.2</ele><time>2021-02-18T11:30:03Z</time><name>PT3061</name></trkpt>
<trkpt lat="53.461000" lon="05.836311"><ele>14.2</ele><time>2021-02-18T11:30:05Z</time><name>PT3062</name></trkpt>
<trkpt lat="53.460999" lon="05.836325"><ele>14.1</ele><time>2021-02-18T11:30:05Z</time><name>PT3063</name></trkpt>
<trkpt lat="53.460994" lon="05.836337"><ele>13.9</ele><time>2021-02-18T11:30:06Z</time><name>PT3064</name></trkpt>
<trkpt lat="53.460989" lon="05.836348"><ele>13.6</ele><time>2021-02-18T11:30:08Z</time><name>PT3065</name></trkpt>
<trkpt lat="53.460985" lon="05.836358"><ele>13.2</ele><time>2021-02-18T11:30:08Z</time><name>PT3066</name></trkpt>
<trkpt lat="53.460982" lon="05.836363"><ele>13.1</ele><time>2021-02-18T11:30:09Z</time><name>PT3067</name></trkpt>
<trkpt lat="53.460984" lon="05.836369"><ele>13.2</ele><time>2021-02-18T11:30:11Z</time><name>PT3068</name></trkpt>
<trkpt lat="53.460988" lon="05.836379"><ele>13.2</ele><time>2021-02-18T11:30:11Z</time><name>PT3069</name></trkpt>
<trkpt lat="53.460991" lon="05.836393"><ele>13.3</ele><time>2021-02-18T11:30:12Z</time><name>PT3070</name></trkpt>
<trkpt lat="53.460992" lon="05.836405"><ele>13.5</ele><time>2021-02-18T11:30:14Z</time><name>PT3071</name></trkpt>
<trkpt lat="53.460992" lon="05.836416"><ele>13.5</ele><time>2021-02-18T11:30:14Z</time><name>PT3072</name></trkpt>
<trkpt lat="53.460993" lon="05.836432"><ele>13.8</ele><time>2021-02-18T11:30:15Z</time><name>PT3073</name></trkpt>
<trkpt lat="53.460992" lon="05.836447"><ele>13.8</ele><time>2021-02-18T11:30:17Z</time><name>PT3074</name></trkpt>
<trkpt lat="53.460992" lon="05.836461"><ele>13.9</ele><time>2021-02-18T11:30:17Z</time><name>PT3075</name></trkpt>
<trkpt lat="53.460989" lon="05.836472"><ele>13.8</ele><time>2021-02-18T11:30:18Z</time><name>PT3076</name></trkpt>
<trkpt lat="53.460983" lon="05.836483"><ele>13.6</ele><time>2021-02-18T11:30:20Z</time><name>PT3077</name></trkpt>
<trkpt lat="53.460977" lon="05.836492"><ele>13.4</ele><time>2021-02-18T11:30:20Z</time><name>PT3078</name></trkpt>
<trkpt lat="53.460976" lon="05.836496"><ele>13.4</ele><time>2021-02-18T11:30:21Z</time><name>PT3079</name></trkpt>
<trkpt lat="53.460976" lon="05.836498"><ele>13.2</ele><time>2021-02-18T11:30:23Z</time><name>PT3080</name></trkpt>
<trkpt lat="53.460977" lon="05.836498"><ele>13.2</ele><time>2021-02-18T11:30:23Z</time><name>PT3081</name></trkpt>
<trkpt lat="53.460976" lon="05.836498"><ele>13.2</ele><time>2021-02-18T11:30:24Z</time><name>PT3082</name></trkpt>
<trkpt lat="53.460972" lon="05.836500"><ele>12.7</ele><time>2021-02-18T11:30:33Z</time><name>PT3083</name></trkpt>
<trkpt lat="53.460970" lon="05.836501"><ele>12.8</ele><time>2021-02-18T11:30:35Z</time><name>PT3084</name></trkpt>
<trkpt lat="53.460968" lon="05.836497"><ele>13</ele><time>2021-02-18T11:30:35Z</time><name>PT3085</name></trkpt>
<trkpt lat="53.460967" lon="05.836498"><ele>12.8</ele><time>2021-02-18T11:30:36Z</time><name>PT3086</name></trkpt>
<trkpt lat="53.460968" lon="05.836502"><ele>12.7</ele><time>2021-02-18T11:30:44Z</time><name>PT3087</name></trkpt>
<trkpt lat="53.460962" lon="05.836502"><ele>12.3</ele><time>2021-02-18T11:30:44Z</time><name>PT3088</name></trkpt>
<trkpt lat="53.460958" lon="05.836506"><ele>12</ele><time>2021-02-18T11:30:45Z</time><name>PT3089</name></trkpt>
<trkpt lat="53.460953" lon="05.836508"><ele>12.2</ele><time>2021-02-18T11:30:47Z</time><name>PT3090</name></trkpt>
<trkpt lat="53.460948" lon="05.836509"><ele>12.2</ele><time>2021-02-18T11:30:47Z</time><name>PT3091</name></trkpt>
<trkpt lat="53.460941" lon="05.836508"><ele>11.9</ele><time>2021-02-18T11:30:48Z</time><name>PT3092</name></trkpt>
<trkpt lat="53.460937" lon="05.836512"><ele>11.9</ele><time>2021-02-18T11:30:50Z</time><name>PT3093</name></trkpt>
<trkpt lat="53.460933" lon="05.836509"><ele>11.7</ele><time>2021-02-18T11:30:50Z</time><name>PT3094</name></trkpt>
<trkpt lat="53.460931" lon="05.836506"><ele>11.6</ele><time>2021-02-18T11:30:51Z</time><name>PT3095</name></trkpt>
<trkpt lat="53.460930" lon="05.836506"><ele>11.7</ele><time>2021-02-18T11:30:53Z</time><name>PT3096</name></trkpt>
<trkpt lat="53.460929" lon="05.836507"><ele>11.9</ele><time>2021-02-18T11:30:53Z</time><name>PT3097</name></trkpt>
<trkpt lat="53.460928" lon="05.836510"><ele>12.2</ele><time>2021-02-18T11:30:54Z</time><name>PT3098</name></trkpt>
<trkpt lat="53.460928" lon="05.836511"><ele>13.7</ele><time>2021-02-18T11:31:14Z</time><name>PT3099</name></trkpt>
<trkpt lat="53.460927" lon="05.836516"><ele>13.7</ele><time>2021-02-18T11:31:14Z</time><name>PT3100</name></trkpt>
<trkpt lat="53.460928" lon="05.836530"><ele>13.3</ele><time>2021-02-18T11:31:26Z</time><name>PT3101</name></trkpt>
<trkpt lat="53.460930" lon="05.836538"><ele>13.3</ele><time>2021-02-18T11:31:27Z</time><name>PT3102</name></trkpt>
<trkpt lat="53.460930" lon="05.836543"><ele>13.6</ele><time>2021-02-18T11:31:29Z</time><name>PT3103</name></trkpt>
<trkpt lat="53.460931" lon="05.836544"><ele>13.7</ele><time>2021-02-18T11:31:29Z</time><name>PT3104</name></trkpt>
<trkpt lat="53.460933" lon="05.836544"><ele>13.7</ele><time>2021-02-18T11:31:30Z</time><name>PT3105</name></trkpt>
<trkpt lat="53.460933" lon="05.836543"><ele>13.6</ele><time>2021-02-18T11:31:32Z</time><name>PT3106</name></trkpt>
<trkpt lat="53.460933" lon="05.836542"><ele>13.6</ele><time>2021-02-18T11:31:32Z</time><name>PT3107</name></trkpt>
<trkpt lat="53.460932" lon="05.836542"><ele>13.3</ele><time>2021-02-18T11:31:33Z</time><name>PT3108</name></trkpt>
<trkpt lat="53.460932" lon="05.836549"><ele>13.6</ele><time>2021-02-18T11:31:44Z</time><name>PT3109</name></trkpt>
<trkpt lat="53.460931" lon="05.836563"><ele>13.6</ele><time>2021-02-18T11:31:44Z</time><name>PT3110</name></trkpt>
<trkpt lat="53.460933" lon="05.836578"><ele>13.4</ele><time>2021-02-18T11:31:45Z</time><name>PT3111</name></trkpt>
<trkpt lat="53.460933" lon="05.836591"><ele>13.4</ele><time>2021-02-18T11:31:47Z</time><name>PT3112</name></trkpt>
<trkpt lat="53.460935" lon="05.836608"><ele>13.4</ele><time>2021-02-18T11:31:47Z</time><name>PT3113</name></trkpt>
<trkpt lat="53.460936" lon="05.836624"><ele>13.4</ele><time>2021-02-18T11:31:48Z</time><name>PT3114</name></trkpt>
<trkpt lat="53.460938" lon="05.836641"><ele>13.6</ele><time>2021-02-18T11:31:50Z</time><name>PT3115</name></trkpt>
<trkpt lat="53.460941" lon="05.836656"><ele>13.6</ele><time>2021-02-18T11:31:50Z</time><name>PT3116</name></trkpt>
<trkpt lat="53.460945" lon="05.836673"><ele>13.6</ele><time>2021-02-18T11:31:51Z</time><name>PT3117</name></trkpt>
<trkpt lat="53.460947" lon="05.836689"><ele>13.6</ele><time>2021-02-18T11:31:53Z</time><name>PT3118</name></trkpt>
<trkpt lat="53.460945" lon="05.836709"><ele>13.5</ele><time>2021-02-18T11:31:53Z</time><name>PT3119</name></trkpt>
<trkpt lat="53.460944" lon="05.836730"><ele>13.5</ele><time>2021-02-18T11:31:54Z</time><name>PT3120</name></trkpt>
<trkpt lat="53.460942" lon="05.836749"><ele>13.5</ele><time>2021-02-18T11:31:56Z</time><name>PT3121</name></trkpt>
<trkpt lat="53.460942" lon="05.836766"><ele>13.4</ele><time>2021-02-18T11:31:56Z</time><name>PT3122</name></trkpt>
<trkpt lat="53.460942" lon="05.836783"><ele>13.5</ele><time>2021-02-18T11:31:57Z</time><name>PT3123</name></trkpt>
<trkpt lat="53.460944" lon="05.836801"><ele>13.5</ele><time>2021-02-18T11:31:59Z</time><name>PT3124</name></trkpt>
<trkpt lat="53.460946" lon="05.836819"><ele>13.4</ele><time>2021-02-18T11:31:59Z</time><name>PT3125</name></trkpt>
<trkpt lat="53.460948" lon="05.836836"><ele>13.3</ele><time>2021-02-18T11:32:00Z</time><name>PT3126</name></trkpt>
<trkpt lat="53.460950" lon="05.836856"><ele>13.6</ele><time>2021-02-18T11:32:02Z</time><name>PT3127</name></trkpt>
<trkpt lat="53.460953" lon="05.836876"><ele>13.6</ele><time>2021-02-18T11:32:02Z</time><name>PT3128</name></trkpt>
<trkpt lat="53.460954" lon="05.836896"><ele>13.6</ele><time>2021-02-18T11:32:03Z</time><name>PT3129</name></trkpt>
<trkpt lat="53.460956" lon="05.836913"><ele>13.5</ele><time>2021-02-18T11:32:05Z</time><name>PT3130</name></trkpt>
<trkpt lat="53.460957" lon="05.836931"><ele>13.6</ele><time>2021-02-18T11:32:05Z</time><name>PT3131</name></trkpt>
<trkpt lat="53.460957" lon="05.836949"><ele>13.5</ele><time>2021-02-18T11:32:06Z</time><name>PT3132</name></trkpt>
<trkpt lat="53.460958" lon="05.836967"><ele>13.7</ele><time>2021-02-18T11:32:08Z</time><name>PT3133</name></trkpt>
<trkpt lat="53.460959" lon="05.836986"><ele>13.8</ele><time>2021-02-18T11:32:08Z</time><name>PT3134</name></trkpt>
<trkpt lat="53.460958" lon="05.837006"><ele>13.7</ele><time>2021-02-18T11:32:09Z</time><name>PT3135</name></trkpt>
<trkpt lat="53.460956" lon="05.837027"><ele>13.8</ele><time>2021-02-18T11:32:11Z</time><name>PT3136</name></trkpt>
<trkpt lat="53.460955" lon="05.837048"><ele>13.6</ele><time>2021-02-18T11:32:11Z</time><name>PT3137</name></trkpt>
<trkpt lat="53.460953" lon="05.837068"><ele>13.3</ele><time>2021-02-18T11:32:12Z</time><name>PT3138</name></trkpt>
<trkpt lat="53.460954" lon="05.837084"><ele>13.3</ele><time>2021-02-18T11:32:14Z</time><name>PT3139</name></trkpt>
<trkpt lat="53.460956" lon="05.837101"><ele>13.4</ele><time>2021-02-18T11:32:14Z</time><name>PT3140</name></trkpt>
<trkpt lat="53.460958" lon="05.837120"><ele>13.6</ele><time>2021-02-18T11:32:15Z</time><name>PT3141</name></trkpt>
<trkpt lat="53.460961" lon="05.837138"><ele>13.6</ele><time>2021-02-18T11:32:17Z</time><name>PT3142</name></trkpt>
<trkpt lat="53.460962" lon="05.837156"><ele>13.8</ele><time>2021-02-18T11:32:17Z</time><name>PT3143</name></trkpt>
<trkpt lat="53.460964" lon="05.837174"><ele>13.6</ele><time>2021-02-18T11:32:18Z</time><name>PT3144</name></trkpt>
<trkpt lat="53.460966" lon="05.837191"><ele>13.3</ele><time>2021-02-18T11:32:20Z</time><name>PT3145</name></trkpt>
<trkpt lat="53.460967" lon="05.837209"><ele>13.2</ele><time>2021-02-18T11:32:20Z</time><name>PT3146</name></trkpt>
<trkpt lat="53.460968" lon="05.837230"><ele>13.1</ele><time>2021-02-18T11:32:21Z</time><name>PT3147</name></trkpt>
<trkpt lat="53.460970" lon="05.837249"><ele>13</ele><time>2021-02-18T11:32:23Z</time><name>PT3148</name></trkpt>
<trkpt lat="53.460971" lon="05.837268"><ele>13</ele><time>2021-02-18T11:32:23Z</time><name>PT3149</name></trkpt>
<trkpt lat="53.460972" lon="05.837289"><ele>13.3</ele><time>2021-02-18T11:32:24Z</time><name>PT3150</name></trkpt>
<trkpt lat="53.460972" lon="05.837307"><ele>13.6</ele><time>2021-02-18T11:32:26Z</time><name>PT3151</name></trkpt>
<trkpt lat="53.460971" lon="05.837327"><ele>13.7</ele><time>2021-02-18T11:32:26Z</time><name>PT3152</name></trkpt>
<trkpt lat="53.460972" lon="05.837345"><ele>13.9</ele><time>2021-02-18T11:32:27Z</time><name>PT3153</name></trkpt>
<trkpt lat="53.460974" lon="05.837363"><ele>13.7</ele><time>2021-02-18T11:32:29Z</time><name>PT3154</name></trkpt>
<trkpt lat="53.460975" lon="05.837379"><ele>13.5</ele><time>2021-02-18T11:32:29Z</time><name>PT3155</name></trkpt>
<trkpt lat="53.460977" lon="05.837395"><ele>13.2</ele><time>2021-02-18T11:32:30Z</time><name>PT3156</name></trkpt>
<trkpt lat="53.460980" lon="05.837411"><ele>13</ele><time>2021-02-18T11:32:32Z</time><name>PT3157</name></trkpt>
<trkpt lat="53.460982" lon="05.837423"><ele>12.9</ele><time>2021-02-18T11:32:32Z</time><name>PT3158</name></trkpt>
<trkpt lat="53.460982" lon="05.837433"><ele>13</ele><time>2021-02-18T11:32:33Z</time><name>PT3159</name></trkpt>
<trkpt lat="53.460981" lon="05.837441"><ele>13</ele><time>2021-02-18T11:32:35Z</time><name>PT3160</name></trkpt>
<trkpt lat="53.460980" lon="05.837447"><ele>13</ele><time>2021-02-18T11:32:35Z</time><name>PT3161</name></trkpt>
<trkpt lat="53.460978" lon="05.837480"><ele>13.2</ele><time>2021-02-18T11:32:44Z</time><name>PT3162</name></trkpt>
<trkpt lat="53.460979" lon="05.837515"><ele>13.2</ele><time>2021-02-18T11:32:44Z</time><name>PT3163</name></trkpt>
<trkpt lat="53.460981" lon="05.837538"><ele>13.2</ele><time>2021-02-18T11:32:45Z</time><name>PT3164</name></trkpt>
<trkpt lat="53.460985" lon="05.837561"><ele>13.2</ele><time>2021-02-18T11:32:47Z</time><name>PT3165</name></trkpt>
<trkpt lat="53.460987" lon="05.837589"><ele>13.2</ele><time>2021-02-18T11:32:47Z</time><name>PT3166</name></trkpt>
<trkpt lat="53.460992" lon="05.837615"><ele>13.2</ele><time>2021-02-18T11:32:48Z</time><name>PT3167</name></trkpt>
<trkpt lat="53.460995" lon="05.837639"><ele>13.2</ele><time>2021-02-18T11:32:50Z</time><name>PT3168</name></trkpt>
<trkpt lat="53.460997" lon="05.837665"><ele>13.2</ele><time>2021-02-18T11:32:50Z</time><name>PT3169</name></trkpt>
<trkpt lat="53.460998" lon="05.837686"><ele>13</ele><time>2021-02-18T11:32:51Z</time><name>PT3170</name></trkpt>
<trkpt lat="53.460996" lon="05.837712"><ele>13.1</ele><time>2021-02-18T11:32:53Z</time><name>PT3171</name></trkpt>
<trkpt lat="53.460994" lon="05.837732"><ele>13.2</ele><time>2021-02-18T11:32:53Z</time><name>PT3172</name></trkpt>
<trkpt lat="53.460995" lon="05.837748"><ele>13.2</ele><time>2021-02-18T11:32:54Z</time><name>PT3173</name></trkpt>
<trkpt lat="53.460992" lon="05.837780"><ele>13.2</ele><time>2021-02-18T11:32:56Z</time><name>PT3174</name></trkpt>
<trkpt lat="53.460989" lon="05.837801"><ele>13.3</ele><time>2021-02-18T11:32:56Z</time><name>PT3175</name></trkpt>
<trkpt lat="53.460987" lon="05.837820"><ele>13.2</ele><time>2021-02-18T11:32:58Z</time><name>PT3176</name></trkpt>
<trkpt lat="53.460987" lon="05.837838"><ele>13.2</ele><time>2021-02-18T11:32:59Z</time><name>PT3177</name></trkpt>
<trkpt lat="53.460990" lon="05.837856"><ele>13.2</ele><time>2021-02-18T11:32:59Z</time><name>PT3178</name></trkpt>
<trkpt lat="53.460990" lon="05.837869"><ele>13</ele><time>2021-02-18T11:33:00Z</time><name>PT3179</name></trkpt>
<trkpt lat="53.460989" lon="05.837883"><ele>13.2</ele><time>2021-02-18T11:33:02Z</time><name>PT3180</name></trkpt>
<trkpt lat="53.460987" lon="05.837898"><ele>13.2</ele><time>2021-02-18T11:33:02Z</time><name>PT3181</name></trkpt>
<trkpt lat="53.460986" lon="05.837911"><ele>12.9</ele><time>2021-02-18T11:33:04Z</time><name>PT3182</name></trkpt>
<trkpt lat="53.460986" lon="05.837924"><ele>12.7</ele><time>2021-02-18T11:33:05Z</time><name>PT3183</name></trkpt>
<trkpt lat="53.460988" lon="05.837938"><ele>13</ele><time>2021-02-18T11:33:05Z</time><name>PT3184</name></trkpt>
<trkpt lat="53.460990" lon="05.837951"><ele>13.2</ele><time>2021-02-18T11:33:06Z</time><name>PT3185</name></trkpt>
<trkpt lat="53.460991" lon="05.837965"><ele>13</ele><time>2021-02-18T11:33:08Z</time><name>PT3186</name></trkpt>
<trkpt lat="53.460991" lon="05.837979"><ele>13.1</ele><time>2021-02-18T11:33:08Z</time><name>PT3187</name></trkpt>
<trkpt lat="53.460991" lon="05.837994"><ele>13.1</ele><time>2021-02-18T11:33:09Z</time><name>PT3188</name></trkpt>
<trkpt lat="53.460992" lon="05.838009"><ele>13.1</ele><time>2021-02-18T11:33:11Z</time><name>PT3189</name></trkpt>
<trkpt lat="53.460995" lon="05.838024"><ele>13.1</ele><time>2021-02-18T11:33:11Z</time><name>PT3190</name></trkpt>
<trkpt lat="53.460997" lon="05.838038"><ele>13.2</ele><time>2021-02-18T11:33:12Z</time><name>PT3191</name></trkpt>
<trkpt lat="53.460997" lon="05.838054"><ele>13.1</ele><time>2021-02-18T11:33:14Z</time><name>PT3192</name></trkpt>
<trkpt lat="53.460997" lon="05.838071"><ele>13</ele><time>2021-02-18T11:33:14Z</time><name>PT3193</name></trkpt>
<trkpt lat="53.460996" lon="05.838089"><ele>12.8</ele><time>2021-02-18T11:33:15Z</time><name>PT3194</name></trkpt>
<trkpt lat="53.460996" lon="05.838107"><ele>12.7</ele><time>2021-02-18T11:33:17Z</time><name>PT3195</name></trkpt>
<trkpt lat="53.460994" lon="05.838124"><ele>12.7</ele><time>2021-02-18T11:33:17Z</time><name>PT3196</name></trkpt>
<trkpt lat="53.460994" lon="05.838141"><ele>13.1</ele><time>2021-02-18T11:33:18Z</time><name>PT3197</name></trkpt>
<trkpt lat="53.460997" lon="05.838159"><ele>13.3</ele><time>2021-02-18T11:33:20Z</time><name>PT3198</name></trkpt>
<trkpt lat="53.461001" lon="05.838181"><ele>13.6</ele><time>2021-02-18T11:33:20Z</time><name>PT3199</name></trkpt>
<trkpt lat="53.461003" lon="05.838203"><ele>13.5</ele><time>2021-02-18T11:33:21Z</time><name>PT3200</name></trkpt>
<trkpt lat="53.461004" lon="05.838223"><ele>13.2</ele><time>2021-02-18T11:33:23Z</time><name>PT3201</name></trkpt>
<trkpt lat="53.461004" lon="05.838243"><ele>13.1</ele><time>2021-02-18T11:33:23Z</time><name>PT3202</name></trkpt>
<trkpt lat="53.461002" lon="05.838261"><ele>13</ele><time>2021-02-18T11:33:24Z</time><name>PT3203</name></trkpt>
<trkpt lat="53.461003" lon="05.838280"><ele>13.2</ele><time>2021-02-18T11:33:26Z</time><name>PT3204</name></trkpt>
<trkpt lat="53.461004" lon="05.838300"><ele>13.2</ele><time>2021-02-18T11:33:26Z</time><name>PT3205</name></trkpt>
<trkpt lat="53.461005" lon="05.838318"><ele>13.2</ele><time>2021-02-18T11:33:27Z</time><name>PT3206</name></trkpt>
<trkpt lat="53.461007" lon="05.838336"><ele>13.1</ele><time>2021-02-18T11:33:29Z</time><name>PT3207</name></trkpt>
<trkpt lat="53.461008" lon="05.838352"><ele>13.2</ele><time>2021-02-18T11:33:29Z</time><name>PT3208</name></trkpt>
<trkpt lat="53.461012" lon="05.838370"><ele>13</ele><time>2021-02-18T11:33:30Z</time><name>PT3209</name></trkpt>
<trkpt lat="53.461014" lon="05.838391"><ele>13.2</ele><time>2021-02-18T11:33:32Z</time><name>PT3210</name></trkpt>
<trkpt lat="53.461012" lon="05.838409"><ele>13.2</ele><time>2021-02-18T11:33:32Z</time><name>PT3211</name></trkpt>
<trkpt lat="53.461012" lon="05.838427"><ele>12.9</ele><time>2021-02-18T11:33:33Z</time><name>PT3212</name></trkpt>
<trkpt lat="53.461011" lon="05.838447"><ele>12.9</ele><time>2021-02-18T11:33:35Z</time><name>PT3213</name></trkpt>
<trkpt lat="53.461011" lon="05.838467"><ele>12.7</ele><time>2021-02-18T11:33:35Z</time><name>PT3214</name></trkpt>
<trkpt lat="53.461013" lon="05.838488"><ele>12.8</ele><time>2021-02-18T11:33:36Z</time><name>PT3215</name></trkpt>
<trkpt lat="53.461014" lon="05.838505"><ele>12.8</ele><time>2021-02-18T11:33:38Z</time><name>PT3216</name></trkpt>
<trkpt lat="53.461015" lon="05.838522"><ele>13</ele><time>2021-02-18T11:33:38Z</time><name>PT3217</name></trkpt>
<trkpt lat="53.461017" lon="05.838541"><ele>13</ele><time>2021-02-18T11:33:39Z</time><name>PT3218</name></trkpt>
<trkpt lat="53.461018" lon="05.838562"><ele>13.2</ele><time>2021-02-18T11:33:41Z</time><name>PT3219</name></trkpt>
<trkpt lat="53.461019" lon="05.838583"><ele>13.2</ele><time>2021-02-18T11:33:41Z</time><name>PT3220</name></trkpt>
<trkpt lat="53.461020" lon="05.838603"><ele>13.2</ele><time>2021-02-18T11:33:42Z</time><name>PT3221</name></trkpt>
<trkpt lat="53.461020" lon="05.838621"><ele>13.4</ele><time>2021-02-18T11:33:44Z</time><name>PT3222</name></trkpt>
<trkpt lat="53.461020" lon="05.838636"><ele>13.6</ele><time>2021-02-18T11:33:44Z</time><name>PT3223</name></trkpt>
<trkpt lat="53.461020" lon="05.838650"><ele>13.4</ele><time>2021-02-18T11:33:45Z</time><name>PT3224</name></trkpt>
<trkpt lat="53.461019" lon="05.838667"><ele>13.4</ele><time>2021-02-18T11:33:47Z</time><name>PT3225</name></trkpt>
<trkpt lat="53.461018" lon="05.838682"><ele>13.5</ele><time>2021-02-18T11:33:47Z</time><name>PT3226</name></trkpt>
<trkpt lat="53.461019" lon="05.838702"><ele>13.1</ele><time>2021-02-18T11:33:49Z</time><name>PT3227</name></trkpt>
<trkpt lat="53.461019" lon="05.838723"><ele>13</ele><time>2021-02-18T11:33:50Z</time><name>PT3228</name></trkpt>
<trkpt lat="53.461019" lon="05.838742"><ele>12.7</ele><time>2021-02-18T11:33:50Z</time><name>PT3229</name></trkpt>
<trkpt lat="53.461020" lon="05.838762"><ele>12.7</ele><time>2021-02-18T11:33:51Z</time><name>PT3230</name></trkpt>
<trkpt lat="53.461022" lon="05.838781"><ele>12.7</ele><time>2021-02-18T11:33:53Z</time><name>PT3231</name></trkpt>
<trkpt lat="53.461023" lon="05.838800"><ele>12.7</ele><time>2021-02-18T11:33:53Z</time><name>PT3232</name></trkpt>
<trkpt lat="53.461025" lon="05.838819"><ele>13</ele><time>2021-02-18T11:33:54Z</time><name>PT3233</name></trkpt>
<trkpt lat="53.461027" lon="05.838838"><ele>13.2</ele><time>2021-02-18T11:33:56Z</time><name>PT3234</name></trkpt>
<trkpt lat="53.461028" lon="05.838855"><ele>13.2</ele><time>2021-02-18T11:33:56Z</time><name>PT3235</name></trkpt>
<trkpt lat="53.461029" lon="05.838871"><ele>13.2</ele><time>2021-02-18T11:33:57Z</time><name>PT3236</name></trkpt>
<trkpt lat="53.461029" lon="05.838885"><ele>13.1</ele><time>2021-02-18T11:33:59Z</time><name>PT3237</name></trkpt>
<trkpt lat="53.461030" lon="05.838904"><ele>13</ele><time>2021-02-18T11:33:59Z</time><name>PT3238</name></trkpt>
<trkpt lat="53.461029" lon="05.838925"><ele>12.7</ele><time>2021-02-18T11:34:00Z</time><name>PT3239</name></trkpt>
<trkpt lat="53.461030" lon="05.838945"><ele>12.8</ele><time>2021-02-18T11:34:02Z</time><name>PT3240</name></trkpt>
<trkpt lat="53.461031" lon="05.838964"><ele>12.9</ele><time>2021-02-18T11:34:02Z</time><name>PT3241</name></trkpt>
<trkpt lat="53.461031" lon="05.838980"><ele>12.9</ele><time>2021-02-18T11:34:03Z</time><name>PT3242</name></trkpt>
<trkpt lat="53.461032" lon="05.838999"><ele>13.1</ele><time>2021-02-18T11:34:05Z</time><name>PT3243</name></trkpt>
<trkpt lat="53.461033" lon="05.839019"><ele>13.1</ele><time>2021-02-18T11:34:05Z</time><name>PT3244</name></trkpt>
<trkpt lat="53.461034" lon="05.839039"><ele>13.1</ele><time>2021-02-18T11:34:06Z</time><name>PT3245</name></trkpt>
<trkpt lat="53.461038" lon="05.839058"><ele>13.2</ele><time>2021-02-18T11:34:08Z</time><name>PT3246</name></trkpt>
<trkpt lat="53.461039" lon="05.839078"><ele>13.2</ele><time>2021-02-18T11:34:08Z</time><name>PT3247</name></trkpt>
<trkpt lat="53.461041" lon="05.839098"><ele>13.2</ele><time>2021-02-18T11:34:09Z</time><name>PT3248</name></trkpt>
<trkpt lat="53.461044" lon="05.839113"><ele>13.3</ele><time>2021-02-18T11:34:11Z</time><name>PT3249</name></trkpt>
<trkpt lat="53.461045" lon="05.839129"><ele>13.3</ele><time>2021-02-18T11:34:11Z</time><name>PT3250</name></trkpt>
<trkpt lat="53.461047" lon="05.839146"><ele>13.3</ele><time>2021-02-18T11:34:12Z</time><name>PT3251</name></trkpt>
<trkpt lat="53.461048" lon="05.839164"><ele>13.4</ele><time>2021-02-18T11:34:14Z</time><name>PT3252</name></trkpt>
<trkpt lat="53.461050" lon="05.839182"><ele>13.5</ele><time>2021-02-18T11:34:14Z</time><name>PT3253</name></trkpt>
<trkpt lat="53.461052" lon="05.839201"><ele>13.4</ele><time>2021-02-18T11:34:15Z</time><name>PT3254</name></trkpt>
<trkpt lat="53.461055" lon="05.839222"><ele>13.6</ele><time>2021-02-18T11:34:17Z</time><name>PT3255</name></trkpt>
<trkpt lat="53.461055" lon="05.839242"><ele>13.6</ele><time>2021-02-18T11:34:17Z</time><name>PT3256</name></trkpt>
<trkpt lat="53.461056" lon="05.839260"><ele>13.6</ele><time>2021-02-18T11:34:18Z</time><name>PT3257</name></trkpt>
<trkpt lat="53.461058" lon="05.839277"><ele>13.5</ele><time>2021-02-18T11:34:20Z</time><name>PT3258</name></trkpt>
<trkpt lat="53.461059" lon="05.839294"><ele>13.5</ele><time>2021-02-18T11:34:20Z</time><name>PT3259</name></trkpt>
<trkpt lat="53.461061" lon="05.839312"><ele>13.5</ele><time>2021-02-18T11:34:21Z</time><name>PT3260</name></trkpt>
<trkpt lat="53.461060" lon="05.839332"><ele>13.6</ele><time>2021-02-18T11:34:23Z</time><name>PT3261</name></trkpt>
<trkpt lat="53.461062" lon="05.839349"><ele>13.6</ele><time>2021-02-18T11:34:23Z</time><name>PT3262</name></trkpt>
<trkpt lat="53.461064" lon="05.839367"><ele>13.7</ele><time>2021-02-18T11:34:25Z</time><name>PT3263</name></trkpt>
<trkpt lat="53.461066" lon="05.839388"><ele>13.6</ele><time>2021-02-18T11:34:26Z</time><name>PT3264</name></trkpt>
<trkpt lat="53.461067" lon="05.839408"><ele>13.7</ele><time>2021-02-18T11:34:26Z</time><name>PT3265</name></trkpt>
<trkpt lat="53.461070" lon="05.839427"><ele>13.6</ele><time>2021-02-18T11:34:27Z</time><name>PT3266</name></trkpt>
<trkpt lat="53.461070" lon="05.839446"><ele>13.6</ele><time>2021-02-18T11:34:29Z</time><name>PT3267</name></trkpt>
<trkpt lat="53.461070" lon="05.839463"><ele>13.7</ele><time>2021-02-18T11:34:29Z</time><name>PT3268</name></trkpt>
<trkpt lat="53.461069" lon="05.839481"><ele>13.5</ele><time>2021-02-18T11:34:30Z</time><name>PT3269</name></trkpt>
<trkpt lat="53.461065" lon="05.839495"><ele>13.3</ele><time>2021-02-18T11:34:32Z</time><name>PT3270</name></trkpt>
<trkpt lat="53.461066" lon="05.839511"><ele>13.4</ele><time>2021-02-18T11:34:32Z</time><name>PT3271</name></trkpt>
<trkpt lat="53.461066" lon="05.839528"><ele>13.5</ele><time>2021-02-18T11:34:33Z</time><name>PT3272</name></trkpt>
<trkpt lat="53.461065" lon="05.839547"><ele>13.4</ele><time>2021-02-18T11:34:35Z</time><name>PT3273</name></trkpt>
<trkpt lat="53.461064" lon="05.839564"><ele>13.6</ele><time>2021-02-18T11:34:35Z</time><name>PT3274</name></trkpt>
<trkpt lat="53.461065" lon="05.839582"><ele>13.3</ele><time>2021-02-18T11:34:36Z</time><name>PT3275</name></trkpt>
<trkpt lat="53.461066" lon="05.839602"><ele>13.2</ele><time>2021-02-18T11:34:38Z</time><name>PT3276</name></trkpt>
<trkpt lat="53.461067" lon="05.839619"><ele>13.2</ele><time>2021-02-18T11:34:38Z</time><name>PT3277</name></trkpt>
<trkpt lat="53.461067" lon="05.839635"><ele>13.2</ele><time>2021-02-18T11:34:39Z</time><name>PT3278</name></trkpt>
<trkpt lat="53.461066" lon="05.839651"><ele>13.5</ele><time>2021-02-18T11:34:41Z</time><name>PT3279</name></trkpt>
<trkpt lat="53.461065" lon="05.839668"><ele>13.4</ele><time>2021-02-18T11:34:41Z</time><name>PT3280</name></trkpt>
<trkpt lat="53.461064" lon="05.839689"><ele>13.2</ele><time>2021-02-18T11:34:42Z</time><name>PT3281</name></trkpt>
<trkpt lat="53.461064" lon="05.839710"><ele>13.2</ele><time>2021-02-18T11:34:44Z</time><name>PT3282</name></trkpt>
<trkpt lat="53.461064" lon="05.839730"><ele>13.4</ele><time>2021-02-18T11:34:44Z</time><name>PT3283</name></trkpt>
<trkpt lat="53.461065" lon="05.839748"><ele>13.6</ele><time>2021-02-18T11:34:45Z</time><name>PT3284</name></trkpt>
<trkpt lat="53.461064" lon="05.839767"><ele>13.8</ele><time>2021-02-18T11:34:47Z</time><name>PT3285</name></trkpt>
<trkpt lat="53.461064" lon="05.839786"><ele>13.9</ele><time>2021-02-18T11:34:47Z</time><name>PT3286</name></trkpt>
<trkpt lat="53.461064" lon="05.839805"><ele>13.8</ele><time>2021-02-18T11:34:48Z</time><name>PT3287</name></trkpt>
<trkpt lat="53.461065" lon="05.839822"><ele>13.6</ele><time>2021-02-18T11:34:50Z</time><name>PT3288</name></trkpt>
<trkpt lat="53.461067" lon="05.839841"><ele>13.6</ele><time>2021-02-18T11:34:50Z</time><name>PT3289</name></trkpt>
<trkpt lat="53.461066" lon="05.839859"><ele>13.6</ele><time>2021-02-18T11:34:52Z</time><name>PT3290</name></trkpt>
<trkpt lat="53.461065" lon="05.839878"><ele>13.4</ele><time>2021-02-18T11:34:53Z</time><name>PT3291</name></trkpt>
<trkpt lat="53.461066" lon="05.839898"><ele>13.4</ele><time>2021-02-18T11:34:53Z</time><name>PT3292</name></trkpt>
<trkpt lat="53.461066" lon="05.839918"><ele>13.2</ele><time>2021-02-18T11:34:54Z</time><name>PT3293</name></trkpt>
<trkpt lat="53.461067" lon="05.839936"><ele>13.2</ele><time>2021-02-18T11:34:56Z</time><name>PT3294</name></trkpt>
<trkpt lat="53.461069" lon="05.839956"><ele>13.3</ele><time>2021-02-18T11:34:56Z</time><name>PT3295</name></trkpt>
<trkpt lat="53.461069" lon="05.839975"><ele>13.2</ele><time>2021-02-18T11:34:57Z</time><name>PT3296</name></trkpt>
<trkpt lat="53.461071" lon="05.839994"><ele>13.2</ele><time>2021-02-18T11:34:59Z</time><name>PT3297</name></trkpt>
<trkpt lat="53.461073" lon="05.840015"><ele>13.2</ele><time>2021-02-18T11:34:59Z</time><name>PT3298</name></trkpt>
<trkpt lat="53.461075" lon="05.840032"><ele>13.3</ele><time>2021-02-18T11:35:00Z</time><name>PT3299</name></trkpt>
<trkpt lat="53.461077" lon="05.840049"><ele>13.6</ele><time>2021-02-18T11:35:02Z</time><name>PT3300</name></trkpt>
<trkpt lat="53.461077" lon="05.840067"><ele>13.9</ele><time>2021-02-18T11:35:02Z</time><name>PT3301</name></trkpt>
<trkpt lat="53.461077" lon="05.840084"><ele>14</ele><time>2021-02-18T11:35:03Z</time><name>PT3302</name></trkpt>
<trkpt lat="53.461076" lon="05.840103"><ele>13.8</ele><time>2021-02-18T11:35:05Z</time><name>PT3303</name></trkpt>
<trkpt lat="53.461076" lon="05.840122"><ele>13.8</ele><time>2021-02-18T11:35:05Z</time><name>PT3304</name></trkpt>
<trkpt lat="53.461077" lon="05.840141"><ele>13.7</ele><time>2021-02-18T11:35:06Z</time><name>PT3305</name></trkpt>
<trkpt lat="53.461076" lon="05.840159"><ele>13.7</ele><time>2021-02-18T11:35:08Z</time><name>PT3306</name></trkpt>
<trkpt lat="53.461078" lon="05.840178"><ele>13.6</ele><time>2021-02-18T11:35:08Z</time><name>PT3307</name></trkpt>
<trkpt lat="53.461080" lon="05.840199"><ele>13.6</ele><time>2021-02-18T11:35:09Z</time><name>PT3308</name></trkpt>
<trkpt lat="53.461082" lon="05.840217"><ele>13.6</ele><time>2021-02-18T11:35:11Z</time><name>PT3309</name></trkpt>
<trkpt lat="53.461082" lon="05.840234"><ele>13.6</ele><time>2021-02-18T11:35:11Z</time><name>PT3310</name></trkpt>
<trkpt lat="53.461082" lon="05.840250"><ele>13.6</ele><time>2021-02-18T11:35:12Z</time><name>PT3311</name></trkpt>
<trkpt lat="53.461082" lon="05.840269"><ele>13.5</ele><time>2021-02-18T11:35:14Z</time><name>PT3312</name></trkpt>
<trkpt lat="53.461080" lon="05.840290"><ele>13.5</ele><time>2021-02-18T11:35:14Z</time><name>PT3313</name></trkpt>
<trkpt lat="53.461080" lon="05.840308"><ele>13.5</ele><time>2021-02-18T11:35:15Z</time><name>PT3314</name></trkpt>
<trkpt lat="53.461082" lon="05.840325"><ele>13.5</ele><time>2021-02-18T11:35:17Z</time><name>PT3315</name></trkpt>
<trkpt lat="53.461085" lon="05.840343"><ele>13.4</ele><time>2021-02-18T11:35:17Z</time><name>PT3316</name></trkpt>
<trkpt lat="53.461085" lon="05.840361"><ele>13.4</ele><time>2021-02-18T11:35:18Z</time><name>PT3317</name></trkpt>
<trkpt lat="53.461088" lon="05.840377"><ele>13.4</ele><time>2021-02-18T11:35:20Z</time><name>PT3318</name></trkpt>
<trkpt lat="53.461091" lon="05.840395"><ele>13.3</ele><time>2021-02-18T11:35:20Z</time><name>PT3319</name></trkpt>
<trkpt lat="53.461089" lon="05.840411"><ele>13.2</ele><time>2021-02-18T11:35:21Z</time><name>PT3320</name></trkpt>
<trkpt lat="53.461090" lon="05.840426"><ele>13.3</ele><time>2021-02-18T11:35:23Z</time><name>PT3321</name></trkpt>
<trkpt lat="53.461089" lon="05.840442"><ele>13.5</ele><time>2021-02-18T11:35:23Z</time><name>PT3322</name></trkpt>
<trkpt lat="53.461089" lon="05.840460"><ele>13.6</ele><time>2021-02-18T11:35:24Z</time><name>PT3323</name></trkpt>
<trkpt lat="53.461089" lon="05.840477"><ele>13.7</ele><time>2021-02-18T11:35:26Z</time><name>PT3324</name></trkpt>
<trkpt lat="53.461088" lon="05.840495"><ele>13.8</ele><time>2021-02-18T11:35:26Z</time><name>PT3325</name></trkpt>
<trkpt lat="53.461088" lon="05.840515"><ele>13.6</ele><time>2021-02-18T11:35:27Z</time><name>PT3326</name></trkpt>
<trkpt lat="53.461089" lon="05.840537"><ele>13.5</ele><time>2021-02-18T11:35:29Z</time><name>PT3327</name></trkpt>
<trkpt lat="53.461091" lon="05.840556"><ele>13.3</ele><time>2021-02-18T11:35:29Z</time><name>PT3328</name></trkpt>
<trkpt lat="53.461092" lon="05.840575"><ele>13</ele><time>2021-02-18T11:35:30Z</time><name>PT3329</name></trkpt>
<trkpt lat="53.461092" lon="05.840590"><ele>12.8</ele><time>2021-02-18T11:35:32Z</time><name>PT3330</name></trkpt>
<trkpt lat="53.461092" lon="05.840608"><ele>12.9</ele><time>2021-02-18T11:35:32Z</time><name>PT3331</name></trkpt>
<trkpt lat="53.461092" lon="05.840627"><ele>12.8</ele><time>2021-02-18T11:35:33Z</time><name>PT3332</name></trkpt>
<trkpt lat="53.461092" lon="05.840648"><ele>13.2</ele><time>2021-02-18T11:35:35Z</time><name>PT3333</name></trkpt>
<trkpt lat="53.461091" lon="05.840665"><ele>13.3</ele><time>2021-02-18T11:35:35Z</time><name>PT3334</name></trkpt>
<trkpt lat="53.461091" lon="05.840680"><ele>13.5</ele><time>2021-02-18T11:35:36Z</time><name>PT3335</name></trkpt>
<trkpt lat="53.461091" lon="05.840698"><ele>13.6</ele><time>2021-02-18T11:35:38Z</time><name>PT3336</name></trkpt>
<trkpt lat="53.461091" lon="05.840718"><ele>13.6</ele><time>2021-02-18T11:35:38Z</time><name>PT3337</name></trkpt>
<trkpt lat="53.461090" lon="05.840735"><ele>13.6</ele><time>2021-02-18T11:35:39Z</time><name>PT3338</name></trkpt>
<trkpt lat="53.461089" lon="05.840750"><ele>13.6</ele><time>2021-02-18T11:35:41Z</time><name>PT3339</name></trkpt>
<trkpt lat="53.461089" lon="05.840765"><ele>13.6</ele><time>2021-02-18T11:35:41Z</time><name>PT3340</name></trkpt>
<trkpt lat="53.461089" lon="05.840784"><ele>13.3</ele><time>2021-02-18T11:35:42Z</time><name>PT3341</name></trkpt>
<trkpt lat="53.461090" lon="05.840807"><ele>13.2</ele><time>2021-02-18T11:35:44Z</time><name>PT3342</name></trkpt>
<trkpt lat="53.461090" lon="05.840828"><ele>13.1</ele><time>2021-02-18T11:35:44Z</time><name>PT3343</name></trkpt>
<trkpt lat="53.461090" lon="05.840846"><ele>12.9</ele><time>2021-02-18T11:35:45Z</time><name>PT3344</name></trkpt>
<trkpt lat="53.461091" lon="05.840864"><ele>13</ele><time>2021-02-18T11:35:47Z</time><name>PT3345</name></trkpt>
<trkpt lat="53.461091" lon="05.840881"><ele>13.3</ele><time>2021-02-18T11:35:47Z</time><name>PT3346</name></trkpt>
<trkpt lat="53.461092" lon="05.840900"><ele>13.6</ele><time>2021-02-18T11:35:48Z</time><name>PT3347</name></trkpt>
<trkpt lat="53.461093" lon="05.840920"><ele>13.6</ele><time>2021-02-18T11:35:50Z</time><name>PT3348</name></trkpt>
<trkpt lat="53.461094" lon="05.840938"><ele>13.9</ele><time>2021-02-18T11:35:50Z</time><name>PT3349</name></trkpt>
<trkpt lat="53.461095" lon="05.840956"><ele>13.8</ele><time>2021-02-18T11:35:51Z</time><name>PT3350</name></trkpt>
<trkpt lat="53.461094" lon="05.840973"><ele>13.8</ele><time>2021-02-18T11:35:53Z</time><name>PT3351</name></trkpt>
<trkpt lat="53.461093" lon="05.840991"><ele>13.7</ele><time>2021-02-18T11:35:53Z</time><name>PT3352</name></trkpt>
<trkpt lat="53.461092" lon="05.841011"><ele>13.7</ele><time>2021-02-18T11:35:54Z</time><name>PT3353</name></trkpt>
<trkpt lat="53.461092" lon="05.841029"><ele>13.7</ele><time>2021-02-18T11:35:56Z</time><name>PT3354</name></trkpt>
<trkpt lat="53.461093" lon="05.841047"><ele>13.8</ele><time>2021-02-18T11:35:56Z</time><name>PT3355</name></trkpt>
<trkpt lat="53.461094" lon="05.841066"><ele>13.6</ele><time>2021-02-18T11:35:57Z</time><name>PT3356</name></trkpt>
<trkpt lat="53.461095" lon="05.841083"><ele>13.5</ele><time>2021-02-18T11:35:59Z</time><name>PT3357</name></trkpt>
<trkpt lat="53.461096" lon="05.841100"><ele>13.4</ele><time>2021-02-18T11:35:59Z</time><name>PT3358</name></trkpt>
<trkpt lat="53.461098" lon="05.841118"><ele>13.5</ele><time>2021-02-18T11:36:00Z</time><name>PT3359</name></trkpt>
<trkpt lat="53.461099" lon="05.841136"><ele>13.5</ele><time>2021-02-18T11:36:02Z</time><name>PT3360</name></trkpt>
<trkpt lat="53.461099" lon="05.841154"><ele>13.6</ele><time>2021-02-18T11:36:02Z</time><name>PT3361</name></trkpt>
<trkpt lat="53.461099" lon="05.841172"><ele>13.4</ele><time>2021-02-18T11:36:03Z</time><name>PT3362</name></trkpt>
<trkpt lat="53.461098" lon="05.841190"><ele>13.4</ele><time>2021-02-18T11:36:05Z</time><name>PT3363</name></trkpt>
<trkpt lat="53.461097" lon="05.841208"><ele>13.5</ele><time>2021-02-18T11:36:05Z</time><name>PT3364</name></trkpt>
<trkpt lat="53.461099" lon="05.841228"><ele>13.4</ele><time>2021-02-18T11:36:06Z</time><name>PT3365</name></trkpt>
<trkpt lat="53.461098" lon="05.841246"><ele>13.5</ele><time>2021-02-18T11:36:08Z</time><name>PT3366</name></trkpt>
<trkpt lat="53.461100" lon="05.841266"><ele>13.2</ele><time>2021-02-18T11:36:08Z</time><name>PT3367</name></trkpt>
<trkpt lat="53.461101" lon="05.841287"><ele>13</ele><time>2021-02-18T11:36:09Z</time><name>PT3368</name></trkpt>
<trkpt lat="53.461105" lon="05.841307"><ele>13.1</ele><time>2021-02-18T11:36:11Z</time><name>PT3369</name></trkpt>
<trkpt lat="53.461105" lon="05.841324"><ele>13.2</ele><time>2021-02-18T11:36:11Z</time><name>PT3370</name></trkpt>
<trkpt lat="53.461108" lon="05.841343"><ele>13.3</ele><time>2021-02-18T11:36:12Z</time><name>PT3371</name></trkpt>
<trkpt lat="53.461107" lon="05.841360"><ele>13.5</ele><time>2021-02-18T11:36:14Z</time><name>PT3372</name></trkpt>
<trkpt lat="53.461106" lon="05.841380"><ele>13.5</ele><time>2021-02-18T11:36:14Z</time><name>PT3373</name></trkpt>
<trkpt lat="53.461107" lon="05.841402"><ele>13.5</ele><time>2021-02-18T11:36:15Z</time><name>PT3374</name></trkpt>
<trkpt lat="53.461107" lon="05.841426"><ele>13.3</ele><time>2021-02-18T11:36:17Z</time><name>PT3375</name></trkpt>
<trkpt lat="53.461107" lon="05.841445"><ele>13.3</ele><time>2021-02-18T11:36:17Z</time><name>PT3376</name></trkpt>
<trkpt lat="53.461109" lon="05.841465"><ele>13.2</ele><time>2021-02-18T11:36:18Z</time><name>PT3377</name></trkpt>
<trkpt lat="53.461110" lon="05.841483"><ele>13.2</ele><time>2021-02-18T11:36:20Z</time><name>PT3378</name></trkpt>
<trkpt lat="53.461110" lon="05.841502"><ele>13.1</ele><time>2021-02-18T11:36:20Z</time><name>PT3379</name></trkpt>
<trkpt lat="53.461110" lon="05.841521"><ele>13.2</ele><time>2021-02-18T11:36:21Z</time><name>PT3380</name></trkpt>
<trkpt lat="53.461109" lon="05.841541"><ele>13.3</ele><time>2021-02-18T11:36:23Z</time><name>PT3381</name></trkpt>
<trkpt lat="53.461110" lon="05.841562"><ele>13.2</ele><time>2021-02-18T11:36:23Z</time><name>PT3382</name></trkpt>
<trkpt lat="53.461112" lon="05.841583"><ele>13.2</ele><time>2021-02-18T11:36:24Z</time><name>PT3383</name></trkpt>
<trkpt lat="53.461113" lon="05.841601"><ele>13.3</ele><time>2021-02-18T11:36:26Z</time><name>PT3384</name></trkpt>
<trkpt lat="53.461115" lon="05.841620"><ele>13.2</ele><time>2021-02-18T11:36:26Z</time><name>PT3385</name></trkpt>
<trkpt lat="53.461117" lon="05.841639"><ele>13.4</ele><time>2021-02-18T11:36:27Z</time><name>PT3386</name></trkpt>
<trkpt lat="53.461118" lon="05.841659"><ele>13.5</ele><time>2021-02-18T11:36:29Z</time><name>PT3387</name></trkpt>
<trkpt lat="53.461120" lon="05.841674"><ele>13.6</ele><time>2021-02-18T11:36:29Z</time><name>PT3388</name></trkpt>
<trkpt lat="53.461125" lon="05.841692"><ele>13.9</ele><time>2021-02-18T11:36:30Z</time><name>PT3389</name></trkpt>
<trkpt lat="53.461127" lon="05.841711"><ele>13.9</ele><time>2021-02-18T11:36:32Z</time><name>PT3390</name></trkpt>
<trkpt lat="53.461127" lon="05.841727"><ele>13.8</ele><time>2021-02-18T11:36:32Z</time><name>PT3391</name></trkpt>
<trkpt lat="53.461127" lon="05.841744"><ele>13.6</ele><time>2021-02-18T11:36:33Z</time><name>PT3392</name></trkpt>
<trkpt lat="53.461127" lon="05.841765"><ele>13.5</ele><time>2021-02-18T11:36:35Z</time><name>PT3393</name></trkpt>
<trkpt lat="53.461129" lon="05.841786"><ele>13.4</ele><time>2021-02-18T11:36:35Z</time><name>PT3394</name></trkpt>
<trkpt lat="53.461129" lon="05.841804"><ele>13.3</ele><time>2021-02-18T11:36:37Z</time><name>PT3395</name></trkpt>
<trkpt lat="53.461130" lon="05.841821"><ele>13.3</ele><time>2021-02-18T11:36:38Z</time><name>PT3396</name></trkpt>
<trkpt lat="53.461132" lon="05.841843"><ele>13.3</ele><time>2021-02-18T11:36:38Z</time><name>PT3397</name></trkpt>
<trkpt lat="53.461133" lon="05.841860"><ele>13.2</ele><time>2021-02-18T11:36:39Z</time><name>PT3398</name></trkpt>
<trkpt lat="53.461134" lon="05.841878"><ele>13.4</ele><time>2021-02-18T11:36:41Z</time><name>PT3399</name></trkpt>
<trkpt lat="53.461135" lon="05.841899"><ele>13.3</ele><time>2021-02-18T11:36:41Z</time><name>PT3400</name></trkpt>
<trkpt lat="53.461136" lon="05.841918"><ele>13.3</ele><time>2021-02-18T11:36:43Z</time><name>PT3401</name></trkpt>
<trkpt lat="53.461138" lon="05.841935"><ele>13.4</ele><time>2021-02-18T11:36:44Z</time><name>PT3402</name></trkpt>
<trkpt lat="53.461139" lon="05.841952"><ele>13.3</ele><time>2021-02-18T11:36:44Z</time><name>PT3403</name></trkpt>
<trkpt lat="53.461140" lon="05.841968"><ele>13.3</ele><time>2021-02-18T11:36:45Z</time><name>PT3404</name></trkpt>
<trkpt lat="53.461140" lon="05.841981"><ele>13.5</ele><time>2021-02-18T11:36:47Z</time><name>PT3405</name></trkpt>
<trkpt lat="53.461139" lon="05.841998"><ele>13.6</ele><time>2021-02-18T11:36:47Z</time><name>PT3406</name></trkpt>
<trkpt lat="53.461140" lon="05.842018"><ele>13.7</ele><time>2021-02-18T11:36:48Z</time><name>PT3407</name></trkpt>
<trkpt lat="53.461141" lon="05.842036"><ele>13.7</ele><time>2021-02-18T11:36:50Z</time><name>PT3408</name></trkpt>
<trkpt lat="53.461140" lon="05.842054"><ele>13.6</ele><time>2021-02-18T11:36:50Z</time><name>PT3409</name></trkpt>
<trkpt lat="53.461140" lon="05.842070"><ele>13.5</ele><time>2021-02-18T11:36:52Z</time><name>PT3410</name></trkpt>
<trkpt lat="53.461140" lon="05.842088"><ele>13.3</ele><time>2021-02-18T11:36:53Z</time><name>PT3411</name></trkpt>
<trkpt lat="53.461141" lon="05.842109"><ele>13.3</ele><time>2021-02-18T11:36:53Z</time><name>PT3412</name></trkpt>
<trkpt lat="53.461142" lon="05.842126"><ele>13.1</ele><time>2021-02-18T11:36:54Z</time><name>PT3413</name></trkpt>
<trkpt lat="53.461143" lon="05.842141"><ele>13</ele><time>2021-02-18T11:36:56Z</time><name>PT3414</name></trkpt>
<trkpt lat="53.461144" lon="05.842160"><ele>13.1</ele><time>2021-02-18T11:36:56Z</time><name>PT3415</name></trkpt>
<trkpt lat="53.461146" lon="05.842178"><ele>13.2</ele><time>2021-02-18T11:36:57Z</time><name>PT3416</name></trkpt>
<trkpt lat="53.461149" lon="05.842196"><ele>13.3</ele><time>2021-02-18T11:36:59Z</time><name>PT3417</name></trkpt>
<trkpt lat="53.461153" lon="05.842215"><ele>13.5</ele><time>2021-02-18T11:36:59Z</time><name>PT3418</name></trkpt>
<trkpt lat="53.461155" lon="05.842232"><ele>13.6</ele><time>2021-02-18T11:37:00Z</time><name>PT3419</name></trkpt>
<trkpt lat="53.461156" lon="05.842250"><ele>13.6</ele><time>2021-02-18T11:37:02Z</time><name>PT3420</name></trkpt>
<trkpt lat="53.461156" lon="05.842268"><ele>13.7</ele><time>2021-02-18T11:37:02Z</time><name>PT3421</name></trkpt>
<trkpt lat="53.461156" lon="05.842287"><ele>13.7</ele><time>2021-02-18T11:37:03Z</time><name>PT3422</name></trkpt>
<trkpt lat="53.461156" lon="05.842308"><ele>13.8</ele><time>2021-02-18T11:37:05Z</time><name>PT3423</name></trkpt>
<trkpt lat="53.461156" lon="05.842327"><ele>13.8</ele><time>2021-02-18T11:37:05Z</time><name>PT3424</name></trkpt>
<trkpt lat="53.461156" lon="05.842346"><ele>13.8</ele><time>2021-02-18T11:37:06Z</time><name>PT3425</name></trkpt>
<trkpt lat="53.461155" lon="05.842364"><ele>13.7</ele><time>2021-02-18T11:37:08Z</time><name>PT3426</name></trkpt>
<trkpt lat="53.461154" lon="05.842383"><ele>13.6</ele><time>2021-02-18T11:37:08Z</time><name>PT3427</name></trkpt>
<trkpt lat="53.461154" lon="05.842401"><ele>13.6</ele><time>2021-02-18T11:37:09Z</time><name>PT3428</name></trkpt>
<trkpt lat="53.461153" lon="05.842419"><ele>13.4</ele><time>2021-02-18T11:37:11Z</time><name>PT3429</name></trkpt>
<trkpt lat="53.461153" lon="05.842436"><ele>13.4</ele><time>2021-02-18T11:37:11Z</time><name>PT3430</name></trkpt>
<trkpt lat="53.461153" lon="05.842455"><ele>13.4</ele><time>2021-02-18T11:37:12Z</time><name>PT3431</name></trkpt>
<trkpt lat="53.461153" lon="05.842473"><ele>13.2</ele><time>2021-02-18T11:37:14Z</time><name>PT3432</name></trkpt>
<trkpt lat="53.461154" lon="05.842491"><ele>13.3</ele><time>2021-02-18T11:37:14Z</time><name>PT3433</name></trkpt>
<trkpt lat="53.461156" lon="05.842507"><ele>13.6</ele><time>2021-02-18T11:37:15Z</time><name>PT3434</name></trkpt>
<trkpt lat="53.461158" lon="05.842524"><ele>13.5</ele><time>2021-02-18T11:37:17Z</time><name>PT3435</name></trkpt>
<trkpt lat="53.461158" lon="05.842540"><ele>13.5</ele><time>2021-02-18T11:37:17Z</time><name>PT3436</name></trkpt>
<trkpt lat="53.461157" lon="05.842558"><ele>13.6</ele><time>2021-02-18T11:37:18Z</time><name>PT3437</name></trkpt>
<trkpt lat="53.461158" lon="05.842575"><ele>13.4</ele><time>2021-02-18T11:37:20Z</time><name>PT3438</name></trkpt>
<trkpt lat="53.461161" lon="05.842594"><ele>13.5</ele><time>2021-02-18T11:37:20Z</time><name>PT3439</name></trkpt>
<trkpt lat="53.461162" lon="05.842613"><ele>13.6</ele><time>2021-02-18T11:37:21Z</time><name>PT3440</name></trkpt>
<trkpt lat="53.461162" lon="05.842632"><ele>13.6</ele><time>2021-02-18T11:37:23Z</time><name>PT3441</name></trkpt>
<trkpt lat="53.461163" lon="05.842650"><ele>13.6</ele><time>2021-02-18T11:37:23Z</time><name>PT3442</name></trkpt>
<trkpt lat="53.461164" lon="05.842668"><ele>13.6</ele><time>2021-02-18T11:37:24Z</time><name>PT3443</name></trkpt>
<trkpt lat="53.461165" lon="05.842688"><ele>13.7</ele><time>2021-02-18T11:37:26Z</time><name>PT3444</name></trkpt>
<trkpt lat="53.461166" lon="05.842706"><ele>13.6</ele><time>2021-02-18T11:37:26Z</time><name>PT3445</name></trkpt>
<trkpt lat="53.461166" lon="05.842724"><ele>13.9</ele><time>2021-02-18T11:37:27Z</time><name>PT3446</name></trkpt>
<trkpt lat="53.461165" lon="05.842739"><ele>13.9</ele><time>2021-02-18T11:37:29Z</time><name>PT3447</name></trkpt>
<trkpt lat="53.461165" lon="05.842755"><ele>14</ele><time>2021-02-18T11:37:29Z</time><name>PT3448</name></trkpt>
<trkpt lat="53.461164" lon="05.842771"><ele>14.1</ele><time>2021-02-18T11:37:30Z</time><name>PT3449</name></trkpt>
<trkpt lat="53.461163" lon="05.842788"><ele>14.1</ele><time>2021-02-18T11:37:32Z</time><name>PT3450</name></trkpt>
<trkpt lat="53.461163" lon="05.842805"><ele>14.1</ele><time>2021-02-18T11:37:32Z</time><name>PT3451</name></trkpt>
<trkpt lat="53.461163" lon="05.842822"><ele>14.1</ele><time>2021-02-18T11:37:33Z</time><name>PT3452</name></trkpt>
<trkpt lat="53.461164" lon="05.842842"><ele>14.1</ele><time>2021-02-18T11:37:35Z</time><name>PT3453</name></trkpt>
<trkpt lat="53.461166" lon="05.842863"><ele>13.9</ele><time>2021-02-18T11:37:35Z</time><name>PT3454</name></trkpt>
<trkpt lat="53.461167" lon="05.842880"><ele>14.1</ele><time>2021-02-18T11:37:36Z</time><name>PT3455</name></trkpt>
<trkpt lat="53.461167" lon="05.842895"><ele>14</ele><time>2021-02-18T11:37:38Z</time><name>PT3456</name></trkpt>
<trkpt lat="53.461165" lon="05.842912"><ele>13.9</ele><time>2021-02-18T11:37:38Z</time><name>PT3457</name></trkpt>
<trkpt lat="53.461163" lon="05.842929"><ele>13.9</ele><time>2021-02-18T11:37:39Z</time><name>PT3458</name></trkpt>
<trkpt lat="53.461160" lon="05.842947"><ele>13.8</ele><time>2021-02-18T11:37:41Z</time><name>PT3459</name></trkpt>
<trkpt lat="53.461157" lon="05.842964"><ele>13.8</ele><time>2021-02-18T11:37:41Z</time><name>PT3460</name></trkpt>
<trkpt lat="53.461157" lon="05.842983"><ele>13.8</ele><time>2021-02-18T11:37:42Z</time><name>PT3461</name></trkpt>
<trkpt lat="53.461156" lon="05.843002"><ele>13.7</ele><time>2021-02-18T11:37:44Z</time><name>PT3462</name></trkpt>
<trkpt lat="53.461156" lon="05.843022"><ele>13.7</ele><time>2021-02-18T11:37:44Z</time><name>PT3463</name></trkpt>
<trkpt lat="53.461155" lon="05.843044"><ele>13.6</ele><time>2021-02-18T11:37:45Z</time><name>PT3464</name></trkpt>
<trkpt lat="53.461155" lon="05.843064"><ele>13.6</ele><time>2021-02-18T11:37:47Z</time><name>PT3465</name></trkpt>
<trkpt lat="53.461157" lon="05.843082"><ele>13.6</ele><time>2021-02-18T11:37:47Z</time><name>PT3466</name></trkpt>
<trkpt lat="53.461158" lon="05.843097"><ele>13.8</ele><time>2021-02-18T11:37:48Z</time><name>PT3467</name></trkpt>
<trkpt lat="53.461158" lon="05.843112"><ele>13.9</ele><time>2021-02-18T11:37:50Z</time><name>PT3468</name></trkpt>
<trkpt lat="53.461157" lon="05.843129"><ele>13.6</ele><time>2021-02-18T11:37:50Z</time><name>PT3469</name></trkpt>
<trkpt lat="53.461155" lon="05.843146"><ele>13.6</ele><time>2021-02-18T11:37:51Z</time><name>PT3470</name></trkpt>
<trkpt lat="53.461152" lon="05.843160"><ele>13.8</ele><time>2021-02-18T11:37:53Z</time><name>PT3471</name></trkpt>
<trkpt lat="53.461150" lon="05.843176"><ele>13.8</ele><time>2021-02-18T11:37:53Z</time><name>PT3472</name></trkpt>
<trkpt lat="53.461150" lon="05.843192"><ele>14.1</ele><time>2021-02-18T11:37:54Z</time><name>PT3473</name></trkpt>
<trkpt lat="53.461150" lon="05.843208"><ele>14.2</ele><time>2021-02-18T11:37:56Z</time><name>PT3474</name></trkpt>
<trkpt lat="53.461151" lon="05.843230"><ele>14.2</ele><time>2021-02-18T11:37:56Z</time><name>PT3475</name></trkpt>
<trkpt lat="53.461153" lon="05.843250"><ele>14.2</ele><time>2021-02-18T11:37:57Z</time><name>PT3476</name></trkpt>
<trkpt lat="53.461154" lon="05.843267"><ele>14</ele><time>2021-02-18T11:37:59Z</time><name>PT3477</name></trkpt>
<trkpt lat="53.461154" lon="05.843281"><ele>14</ele><time>2021-02-18T11:37:59Z</time><name>PT3478</name></trkpt>
<trkpt lat="53.461153" lon="05.843296"><ele>13.8</ele><time>2021-02-18T11:38:00Z</time><name>PT3479</name></trkpt>
<trkpt lat="53.461151" lon="05.843313"><ele>13.6</ele><time>2021-02-18T11:38:02Z</time><name>PT3480</name></trkpt>
<trkpt lat="53.461150" lon="05.843333"><ele>13.7</ele><time>2021-02-18T11:38:02Z</time><name>PT3481</name></trkpt>
<trkpt lat="53.461148" lon="05.843353"><ele>14</ele><time>2021-02-18T11:38:03Z</time><name>PT3482</name></trkpt>
<trkpt lat="53.461144" lon="05.843372"><ele>14</ele><time>2021-02-18T11:38:05Z</time><name>PT3483</name></trkpt>
<trkpt lat="53.461142" lon="05.843386"><ele>14.1</ele><time>2021-02-18T11:38:05Z</time><name>PT3484</name></trkpt>
<trkpt lat="53.461140" lon="05.843400"><ele>14.1</ele><time>2021-02-18T11:38:06Z</time><name>PT3485</name></trkpt>
<trkpt lat="53.461140" lon="05.843416"><ele>13.9</ele><time>2021-02-18T11:38:08Z</time><name>PT3486</name></trkpt>
<trkpt lat="53.461142" lon="05.843434"><ele>13.8</ele><time>2021-02-18T11:38:08Z</time><name>PT3487</name></trkpt>
<trkpt lat="53.461141" lon="05.843450"><ele>13.9</ele><time>2021-02-18T11:38:09Z</time><name>PT3488</name></trkpt>
<trkpt lat="53.461141" lon="05.843469"><ele>14</ele><time>2021-02-18T11:38:11Z</time><name>PT3489</name></trkpt>
<trkpt lat="53.461141" lon="05.843487"><ele>14.1</ele><time>2021-02-18T11:38:11Z</time><name>PT3490</name></trkpt>
<trkpt lat="53.461140" lon="05.843504"><ele>14.2</ele><time>2021-02-18T11:38:12Z</time><name>PT3491</name></trkpt>
<trkpt lat="53.461140" lon="05.843520"><ele>14.4</ele><time>2021-02-18T11:38:14Z</time><name>PT3492</name></trkpt>
<trkpt lat="53.461142" lon="05.843538"><ele>14.3</ele><time>2021-02-18T11:38:14Z</time><name>PT3493</name></trkpt>
<trkpt lat="53.461142" lon="05.843557"><ele>14.2</ele><time>2021-02-18T11:38:15Z</time><name>PT3494</name></trkpt>
<trkpt lat="53.461142" lon="05.843577"><ele>14.1</ele><time>2021-02-18T11:38:17Z</time><name>PT3495</name></trkpt>
<trkpt lat="53.461143" lon="05.843593"><ele>14</ele><time>2021-02-18T11:38:17Z</time><name>PT3496</name></trkpt>
<trkpt lat="53.461144" lon="05.843610"><ele>13.7</ele><time>2021-02-18T11:38:18Z</time><name>PT3497</name></trkpt>
<trkpt lat="53.461143" lon="05.843628"><ele>13.8</ele><time>2021-02-18T11:38:20Z</time><name>PT3498</name></trkpt>
<trkpt lat="53.461140" lon="05.843646"><ele>13.7</ele><time>2021-02-18T11:38:20Z</time><name>PT3499</name></trkpt>
<trkpt lat="53.461139" lon="05.843665"><ele>13.7</ele><time>2021-02-18T11:38:21Z</time><name>PT3500</name></trkpt>
<trkpt lat="53.461137" lon="05.843685"><ele>14</ele><time>2021-02-18T11:38:23Z</time><name>PT3501</name></trkpt>
<trkpt lat="53.461136" lon="05.843704"><ele>14</ele><time>2021-02-18T11:38:23Z</time><name>PT3502</name></trkpt>
<trkpt lat="53.461136" lon="05.843722"><ele>14.1</ele><time>2021-02-18T11:38:24Z</time><name>PT3503</name></trkpt>
<trkpt lat="53.461135" lon="05.843738"><ele>14.4</ele><time>2021-02-18T11:38:26Z</time><name>PT3504</name></trkpt>
<trkpt lat="53.461136" lon="05.843757"><ele>14.4</ele><time>2021-02-18T11:38:26Z</time><name>PT3505</name></trkpt>
<trkpt lat="53.461136" lon="05.843775"><ele>14.4</ele><time>2021-02-18T11:38:27Z</time><name>PT3506</name></trkpt>
<trkpt lat="53.461134" lon="05.843789"><ele>14.3</ele><time>2021-02-18T11:38:29Z</time><name>PT3507</name></trkpt>
<trkpt lat="53.461132" lon="05.843804"><ele>14.3</ele><time>2021-02-18T11:38:29Z</time><name>PT3508</name></trkpt>
<trkpt lat="53.461130" lon="05.843819"><ele>14</ele><time>2021-02-18T11:38:30Z</time><name>PT3509</name></trkpt>
<trkpt lat="53.461130" lon="05.843838"><ele>14</ele><time>2021-02-18T11:38:32Z</time><name>PT3510</name></trkpt>
<trkpt lat="53.461128" lon="05.843857"><ele>14</ele><time>2021-02-18T11:38:32Z</time><name>PT3511</name></trkpt>
<trkpt lat="53.461129" lon="05.843876"><ele>14.1</ele><time>2021-02-18T11:38:33Z</time><name>PT3512</name></trkpt>
<trkpt lat="53.461128" lon="05.843895"><ele>14.4</ele><time>2021-02-18T11:38:35Z</time><name>PT3513</name></trkpt>
<trkpt lat="53.461128" lon="05.843913"><ele>14.3</ele><time>2021-02-18T11:38:35Z</time><name>PT3514</name></trkpt>
<trkpt lat="53.461127" lon="05.843929"><ele>14.4</ele><time>2021-02-18T11:38:36Z</time><name>PT3515</name></trkpt>
<trkpt lat="53.461125" lon="05.843944"><ele>14.2</ele><time>2021-02-18T11:38:38Z</time><name>PT3516</name></trkpt>
<trkpt lat="53.461123" lon="05.843966"><ele>14.1</ele><time>2021-02-18T11:38:38Z</time><name>PT3517</name></trkpt>
<trkpt lat="53.461123" lon="05.843984"><ele>14.1</ele><time>2021-02-18T11:38:39Z</time><name>PT3518</name></trkpt>
<trkpt lat="53.461124" lon="05.844003"><ele>13.9</ele><time>2021-02-18T11:38:41Z</time><name>PT3519</name></trkpt>
<trkpt lat="53.461122" lon="05.844022"><ele>13.9</ele><time>2021-02-18T11:38:41Z</time><name>PT3520</name></trkpt>
<trkpt lat="53.461121" lon="05.844042"><ele>14</ele><time>2021-02-18T11:38:42Z</time><name>PT3521</name></trkpt>
<trkpt lat="53.461119" lon="05.844058"><ele>14</ele><time>2021-02-18T11:38:44Z</time><name>PT3522</name></trkpt>
<trkpt lat="53.461119" lon="05.844072"><ele>14.1</ele><time>2021-02-18T11:38:44Z</time><name>PT3523</name></trkpt>
<trkpt lat="53.461118" lon="05.844087"><ele>14.2</ele><time>2021-02-18T11:38:45Z</time><name>PT3524</name></trkpt>
<trkpt lat="53.461117" lon="05.844107"><ele>14.3</ele><time>2021-02-18T11:38:47Z</time><name>PT3525</name></trkpt>
<trkpt lat="53.461117" lon="05.844127"><ele>14.6</ele><time>2021-02-18T11:38:47Z</time><name>PT3526</name></trkpt>
<trkpt lat="53.461117" lon="05.844144"><ele>14.6</ele><time>2021-02-18T11:38:49Z</time><name>PT3527</name></trkpt>
<trkpt lat="53.461118" lon="05.844163"><ele>14.6</ele><time>2021-02-18T11:38:50Z</time><name>PT3528</name></trkpt>
<trkpt lat="53.461119" lon="05.844180"><ele>14.6</ele><time>2021-02-18T11:38:50Z</time><name>PT3529</name></trkpt>
<trkpt lat="53.461117" lon="05.844194"><ele>14.3</ele><time>2021-02-18T11:38:51Z</time><name>PT3530</name></trkpt>
<trkpt lat="53.461118" lon="05.844214"><ele>14.3</ele><time>2021-02-18T11:38:53Z</time><name>PT3531</name></trkpt>
<trkpt lat="53.461118" lon="05.844231"><ele>14.3</ele><time>2021-02-18T11:38:53Z</time><name>PT3532</name></trkpt>
<trkpt lat="53.461117" lon="05.844250"><ele>14.3</ele><time>2021-02-18T11:38:54Z</time><name>PT3533</name></trkpt>
<trkpt lat="53.461116" lon="05.844270"><ele>14.6</ele><time>2021-02-18T11:38:56Z</time><name>PT3534</name></trkpt>
<trkpt lat="53.461114" lon="05.844284"><ele>14.4</ele><time>2021-02-18T11:38:56Z</time><name>PT3535</name></trkpt>
<trkpt lat="53.461113" lon="05.844302"><ele>14.5</ele><time>2021-02-18T11:38:57Z</time><name>PT3536</name></trkpt>
<trkpt lat="53.461111" lon="05.844322"><ele>14.6</ele><time>2021-02-18T11:38:59Z</time><name>PT3537</name></trkpt>
<trkpt lat="53.461110" lon="05.844345"><ele>14.6</ele><time>2021-02-18T11:38:59Z</time><name>PT3538</name></trkpt>
<trkpt lat="53.461109" lon="05.844365"><ele>14.5</ele><time>2021-02-18T11:39:00Z</time><name>PT3539</name></trkpt>
<trkpt lat="53.461109" lon="05.844381"><ele>14.6</ele><time>2021-02-18T11:39:02Z</time><name>PT3540</name></trkpt>
<trkpt lat="53.461110" lon="05.844399"><ele>14.6</ele><time>2021-02-18T11:39:02Z</time><name>PT3541</name></trkpt>
<trkpt lat="53.461111" lon="05.844418"><ele>14.5</ele><time>2021-02-18T11:39:03Z</time><name>PT3542</name></trkpt>
<trkpt lat="53.461113" lon="05.844439"><ele>14.6</ele><time>2021-02-18T11:39:05Z</time><name>PT3543</name></trkpt>
<trkpt lat="53.461113" lon="05.844458"><ele>14.5</ele><time>2021-02-18T11:39:05Z</time><name>PT3544</name></trkpt>
<trkpt lat="53.461116" lon="05.844473"><ele>14.4</ele><time>2021-02-18T11:39:06Z</time><name>PT3545</name></trkpt>
<trkpt lat="53.461117" lon="05.844489"><ele>14.2</ele><time>2021-02-18T11:39:08Z</time><name>PT3546</name></trkpt>
<trkpt lat="53.461118" lon="05.844506"><ele>14.1</ele><time>2021-02-18T11:39:08Z</time><name>PT3547</name></trkpt>
<trkpt lat="53.461118" lon="05.844523"><ele>13.9</ele><time>2021-02-18T11:39:09Z</time><name>PT3548</name></trkpt>
<trkpt lat="53.461118" lon="05.844536"><ele>14</ele><time>2021-02-18T11:39:11Z</time><name>PT3549</name></trkpt>
<trkpt lat="53.461115" lon="05.844549"><ele>14</ele><time>2021-02-18T11:39:11Z</time><name>PT3550</name></trkpt>
<trkpt lat="53.461111" lon="05.844566"><ele>13.8</ele><time>2021-02-18T11:39:12Z</time><name>PT3551</name></trkpt>
<trkpt lat="53.461109" lon="05.844585"><ele>13.8</ele><time>2021-02-18T11:39:14Z</time><name>PT3552</name></trkpt>
<trkpt lat="53.461108" lon="05.844602"><ele>13.8</ele><time>2021-02-18T11:39:14Z</time><name>PT3553</name></trkpt>
<trkpt lat="53.461109" lon="05.844617"><ele>13.8</ele><time>2021-02-18T11:39:15Z</time><name>PT3554</name></trkpt>
<trkpt lat="53.461110" lon="05.844631"><ele>13.9</ele><time>2021-02-18T11:39:17Z</time><name>PT3555</name></trkpt>
<trkpt lat="53.461109" lon="05.844645"><ele>13.9</ele><time>2021-02-18T11:39:17Z</time><name>PT3556</name></trkpt>
<trkpt lat="53.461107" lon="05.844662"><ele>13.7</ele><time>2021-02-18T11:39:18Z</time><name>PT3557</name></trkpt>
<trkpt lat="53.461104" lon="05.844680"><ele>13.6</ele><time>2021-02-18T11:39:20Z</time><name>PT3558</name></trkpt>
<trkpt lat="53.461104" lon="05.844698"><ele>13.7</ele><time>2021-02-18T11:39:20Z</time><name>PT3559</name></trkpt>
<trkpt lat="53.461102" lon="05.844717"><ele>13.9</ele><time>2021-02-18T11:39:22Z</time><name>PT3560</name></trkpt>
<trkpt lat="53.461102" lon="05.844736"><ele>14.1</ele><time>2021-02-18T11:39:23Z</time><name>PT3561</name></trkpt>
<trkpt lat="53.461104" lon="05.844756"><ele>14.1</ele><time>2021-02-18T11:39:23Z</time><name>PT3562</name></trkpt>
<trkpt lat="53.461106" lon="05.844777"><ele>14.3</ele><time>2021-02-18T11:39:24Z</time><name>PT3563</name></trkpt>
<trkpt lat="53.461108" lon="05.844797"><ele>14</ele><time>2021-02-18T11:39:26Z</time><name>PT3564</name></trkpt>
<trkpt lat="53.461109" lon="05.844814"><ele>14</ele><time>2021-02-18T11:39:26Z</time><name>PT3565</name></trkpt>
<trkpt lat="53.461109" lon="05.844829"><ele>14</ele><time>2021-02-18T11:39:27Z</time><name>PT3566</name></trkpt>
<trkpt lat="53.461108" lon="05.844848"><ele>13.9</ele><time>2021-02-18T11:39:29Z</time><name>PT3567</name></trkpt>
<trkpt lat="53.461108" lon="05.844864"><ele>13.9</ele><time>2021-02-18T11:39:29Z</time><name>PT3568</name></trkpt>
<trkpt lat="53.461108" lon="05.844879"><ele>14</ele><time>2021-02-18T11:39:30Z</time><name>PT3569</name></trkpt>
<trkpt lat="53.461107" lon="05.844897"><ele>14</ele><time>2021-02-18T11:39:32Z</time><name>PT3570</name></trkpt>
<trkpt lat="53.461105" lon="05.844918"><ele>14</ele><time>2021-02-18T11:39:32Z</time><name>PT3571</name></trkpt>
<trkpt lat="53.461103" lon="05.844936"><ele>14</ele><time>2021-02-18T11:39:33Z</time><name>PT3572</name></trkpt>
<trkpt lat="53.461103" lon="05.844954"><ele>14</ele><time>2021-02-18T11:39:35Z</time><name>PT3573</name></trkpt>
<trkpt lat="53.461102" lon="05.844973"><ele>14.1</ele><time>2021-02-18T11:39:35Z</time><name>PT3574</name></trkpt>
<trkpt lat="53.461102" lon="05.844991"><ele>14.1</ele><time>2021-02-18T11:39:36Z</time><name>PT3575</name></trkpt>
<trkpt lat="53.461103" lon="05.845009"><ele>14.3</ele><time>2021-02-18T11:39:38Z</time><name>PT3576</name></trkpt>
<trkpt lat="53.461102" lon="05.845026"><ele>14.5</ele><time>2021-02-18T11:39:38Z</time><name>PT3577</name></trkpt>
<trkpt lat="53.461103" lon="05.845046"><ele>14.6</ele><time>2021-02-18T11:39:39Z</time><name>PT3578</name></trkpt>
<trkpt lat="53.461104" lon="05.845063"><ele>14.7</ele><time>2021-02-18T11:39:41Z</time><name>PT3579</name></trkpt>
<trkpt lat="53.461104" lon="05.845081"><ele>14.6</ele><time>2021-02-18T11:39:41Z</time><name>PT3580</name></trkpt>
<trkpt lat="53.461103" lon="05.845097"><ele>14.7</ele><time>2021-02-18T11:39:42Z</time><name>PT3581</name></trkpt>
<trkpt lat="53.461102" lon="05.845114"><ele>14.6</ele><time>2021-02-18T11:39:44Z</time><name>PT3582</name></trkpt>
<trkpt lat="53.461100" lon="05.845135"><ele>14.6</ele><time>2021-02-18T11:39:44Z</time><name>PT3583</name></trkpt>
<trkpt lat="53.461100" lon="05.845154"><ele>14.3</ele><time>2021-02-18T11:39:45Z</time><name>PT3584</name></trkpt>
<trkpt lat="53.461100" lon="05.845172"><ele>14.2</ele><time>2021-02-18T11:39:47Z</time><name>PT3585</name></trkpt>
<trkpt lat="53.461099" lon="05.845192"><ele>14.2</ele><time>2021-02-18T11:39:47Z</time><name>PT3586</name></trkpt>
<trkpt lat="53.461098" lon="05.845212"><ele>14.2</ele><time>2021-02-18T11:39:48Z</time><name>PT3587</name></trkpt>
<trkpt lat="53.461098" lon="05.845232"><ele>14.2</ele><time>2021-02-18T11:39:50Z</time><name>PT3588</name></trkpt>
<trkpt lat="53.461099" lon="05.845251"><ele>14.1</ele><time>2021-02-18T11:39:50Z</time><name>PT3589</name></trkpt>
<trkpt lat="53.461098" lon="05.845269"><ele>14.1</ele><time>2021-02-18T11:39:51Z</time><name>PT3590</name></trkpt>
<trkpt lat="53.461094" lon="05.845285"><ele>13.9</ele><time>2021-02-18T11:39:53Z</time><name>PT3591</name></trkpt>
<trkpt lat="53.461094" lon="05.845302"><ele>14</ele><time>2021-02-18T11:39:53Z</time><name>PT3592</name></trkpt>
<trkpt lat="53.461094" lon="05.845315"><ele>14.1</ele><time>2021-02-18T11:39:54Z</time><name>PT3593</name></trkpt>
<trkpt lat="53.461092" lon="05.845332"><ele>14.1</ele><time>2021-02-18T11:39:56Z</time><name>PT3594</name></trkpt>
<trkpt lat="53.461090" lon="05.845350"><ele>14.1</ele><time>2021-02-18T11:39:56Z</time><name>PT3595</name></trkpt>
<trkpt lat="53.461088" lon="05.845371"><ele>14.2</ele><time>2021-02-18T11:39:57Z</time><name>PT3596</name></trkpt>
<trkpt lat="53.461086" lon="05.845389"><ele>14.1</ele><time>2021-02-18T11:39:59Z</time><name>PT3597</name></trkpt>
<trkpt lat="53.461086" lon="05.845408"><ele>14.1</ele><time>2021-02-18T11:39:59Z</time><name>PT3598</name></trkpt>
<trkpt lat="53.461086" lon="05.845425"><ele>14.1</ele><time>2021-02-18T11:40:00Z</time><name>PT3599</name></trkpt>
<trkpt lat="53.461087" lon="05.845444"><ele>14.1</ele><time>2021-02-18T11:40:02Z</time><name>PT3600</name></trkpt>
<trkpt lat="53.461087" lon="05.845463"><ele>14.1</ele><time>2021-02-18T11:40:02Z</time><name>PT3601</name></trkpt>
<trkpt lat="53.461088" lon="05.845484"><ele>14.1</ele><time>2021-02-18T11:40:03Z</time><name>PT3602</name></trkpt>
<trkpt lat="53.461089" lon="05.845501"><ele>14.2</ele><time>2021-02-18T11:40:05Z</time><name>PT3603</name></trkpt>
<trkpt lat="53.461089" lon="05.845519"><ele>14.2</ele><time>2021-02-18T11:40:05Z</time><name>PT3604</name></trkpt>
<trkpt lat="53.461088" lon="05.845536"><ele>14.1</ele><time>2021-02-18T11:40:06Z</time><name>PT3605</name></trkpt>
<trkpt lat="53.461087" lon="05.845553"><ele>14.3</ele><time>2021-02-18T11:40:08Z</time><name>PT3606</name></trkpt>
<trkpt lat="53.461085" lon="05.845571"><ele>14.3</ele><time>2021-02-18T11:40:08Z</time><name>PT3607</name></trkpt>
<trkpt lat="53.461084" lon="05.845588"><ele>14.1</ele><time>2021-02-18T11:40:09Z</time><name>PT3608</name></trkpt>
<trkpt lat="53.461082" lon="05.845606"><ele>14.1</ele><time>2021-02-18T11:40:11Z</time><name>PT3609</name></trkpt>
<trkpt lat="53.461081" lon="05.845626"><ele>14</ele><time>2021-02-18T11:40:11Z</time><name>PT3610</name></trkpt>
<trkpt lat="53.461081" lon="05.845645"><ele>13.9</ele><time>2021-02-18T11:40:12Z</time><name>PT3611</name></trkpt>
<trkpt lat="53.461081" lon="05.845664"><ele>14.1</ele><time>2021-02-18T11:40:14Z</time><name>PT3612</name></trkpt>
<trkpt lat="53.461080" lon="05.845682"><ele>14.1</ele><time>2021-02-18T11:40:14Z</time><name>PT3613</name></trkpt>
<trkpt lat="53.461080" lon="05.845700"><ele>14.2</ele><time>2021-02-18T11:40:15Z</time><name>PT3614</name></trkpt>
<trkpt lat="53.461078" lon="05.845719"><ele>14.1</ele><time>2021-02-18T11:40:17Z</time><name>PT3615</name></trkpt>
<trkpt lat="53.461078" lon="05.845739"><ele>14</ele><time>2021-02-18T11:40:17Z</time><name>PT3616</name></trkpt>
<trkpt lat="53.461077" lon="05.845757"><ele>13.8</ele><time>2021-02-18T11:40:18Z</time><name>PT3617</name></trkpt>
<trkpt lat="53.461078" lon="05.845776"><ele>13.7</ele><time>2021-02-18T11:40:20Z</time><name>PT3618</name></trkpt>
<trkpt lat="53.461078" lon="05.845794"><ele>13.9</ele><time>2021-02-18T11:40:20Z</time><name>PT3619</name></trkpt>
<trkpt lat="53.461078" lon="05.845809"><ele>14</ele><time>2021-02-18T11:40:21Z</time><name>PT3620</name></trkpt>
<trkpt lat="53.461078" lon="05.845827"><ele>14.1</ele><time>2021-02-18T11:40:23Z</time><name>PT3621</name></trkpt>
<trkpt lat="53.461076" lon="05.845847"><ele>14.2</ele><time>2021-02-18T11:40:23Z</time><name>PT3622</name></trkpt>
<trkpt lat="53.461075" lon="05.845868"><ele>14.1</ele><time>2021-02-18T11:40:24Z</time><name>PT3623</name></trkpt>
<trkpt lat="53.461073" lon="05.845890"><ele>14</ele><time>2021-02-18T11:40:26Z</time><name>PT3624</name></trkpt>
<trkpt lat="53.461072" lon="05.845910"><ele>13.9</ele><time>2021-02-18T11:40:26Z</time><name>PT3625</name></trkpt>
<trkpt lat="53.461070" lon="05.845928"><ele>13.7</ele><time>2021-02-18T11:40:27Z</time><name>PT3626</name></trkpt>
<trkpt lat="53.461070" lon="05.845946"><ele>13.9</ele><time>2021-02-18T11:40:29Z</time><name>PT3627</name></trkpt>
<trkpt lat="53.461070" lon="05.845965"><ele>13.9</ele><time>2021-02-18T11:40:29Z</time><name>PT3628</name></trkpt>
<trkpt lat="53.461070" lon="05.845983"><ele>14</ele><time>2021-02-18T11:40:30Z</time><name>PT3629</name></trkpt>
<trkpt lat="53.461070" lon="05.846000"><ele>14.2</ele><time>2021-02-18T11:40:32Z</time><name>PT3630</name></trkpt>
<trkpt lat="53.461070" lon="05.846017"><ele>14.4</ele><time>2021-02-18T11:40:32Z</time><name>PT3631</name></trkpt>
<trkpt lat="53.461069" lon="05.846034"><ele>14.3</ele><time>2021-02-18T11:40:33Z</time><name>PT3632</name></trkpt>
<trkpt lat="53.461069" lon="05.846047"><ele>14.2</ele><time>2021-02-18T11:40:35Z</time><name>PT3633</name></trkpt>
<trkpt lat="53.461068" lon="05.846064"><ele>14.3</ele><time>2021-02-18T11:40:35Z</time><name>PT3634</name></trkpt>
<trkpt lat="53.461068" lon="05.846082"><ele>13.9</ele><time>2021-02-18T11:40:36Z</time><name>PT3635</name></trkpt>
<trkpt lat="53.461068" lon="05.846101"><ele>14</ele><time>2021-02-18T11:40:38Z</time><name>PT3636</name></trkpt>
<trkpt lat="53.461067" lon="05.846118"><ele>14.1</ele><time>2021-02-18T11:40:38Z</time><name>PT3637</name></trkpt>
<trkpt lat="53.461066" lon="05.846136"><ele>14.2</ele><time>2021-02-18T11:40:39Z</time><name>PT3638</name></trkpt>
<trkpt lat="53.461065" lon="05.846153"><ele>14.5</ele><time>2021-02-18T11:40:41Z</time><name>PT3639</name></trkpt>
<trkpt lat="53.461065" lon="05.846171"><ele>14.5</ele><time>2021-02-18T11:40:41Z</time><name>PT3640</name></trkpt>
<trkpt lat="53.461065" lon="05.846190"><ele>14.5</ele><time>2021-02-18T11:40:42Z</time><name>PT3641</name></trkpt>
<trkpt lat="53.461066" lon="05.846208"><ele>14.3</ele><time>2021-02-18T11:40:44Z</time><name>PT3642</name></trkpt>
<trkpt lat="53.461067" lon="05.846227"><ele>14.3</ele><time>2021-02-18T11:40:44Z</time><name>PT3643</name></trkpt>
<trkpt lat="53.461069" lon="05.846246"><ele>14.1</ele><time>2021-02-18T11:40:45Z</time><name>PT3644</name></trkpt>
<trkpt lat="53.461070" lon="05.846261"><ele>14.1</ele><time>2021-02-18T11:40:47Z</time><name>PT3645</name></trkpt>
<trkpt lat="53.461070" lon="05.846274"><ele>14.1</ele><time>2021-02-18T11:40:47Z</time><name>PT3646</name></trkpt>
<trkpt lat="53.461070" lon="05.846289"><ele>14</ele><time>2021-02-18T11:40:48Z</time><name>PT3647</name></trkpt>
<trkpt lat="53.461068" lon="05.846307"><ele>14.1</ele><time>2021-02-18T11:40:50Z</time><name>PT3648</name></trkpt>
<trkpt lat="53.461069" lon="05.846323"><ele>14.2</ele><time>2021-02-18T11:40:50Z</time><name>PT3649</name></trkpt>
<trkpt lat="53.461068" lon="05.846341"><ele>14.2</ele><time>2021-02-18T11:40:51Z</time><name>PT3650</name></trkpt>
<trkpt lat="53.461067" lon="05.846358"><ele>14.3</ele><time>2021-02-18T11:40:53Z</time><name>PT3651</name></trkpt>
<trkpt lat="53.461066" lon="05.846377"><ele>14.2</ele><time>2021-02-18T11:40:53Z</time><name>PT3652</name></trkpt>
<trkpt lat="53.461064" lon="05.846397"><ele>14.1</ele><time>2021-02-18T11:40:54Z</time><name>PT3653</name></trkpt>
<trkpt lat="53.461063" lon="05.846417"><ele>14.1</ele><time>2021-02-18T11:40:56Z</time><name>PT3654</name></trkpt>
<trkpt lat="53.461063" lon="05.846436"><ele>14.1</ele><time>2021-02-18T11:40:56Z</time><name>PT3655</name></trkpt>
<trkpt lat="53.461063" lon="05.846452"><ele>14.3</ele><time>2021-02-18T11:40:57Z</time><name>PT3656</name></trkpt>
<trkpt lat="53.461063" lon="05.846470"><ele>14.4</ele><time>2021-02-18T11:40:59Z</time><name>PT3657</name></trkpt>
<trkpt lat="53.461063" lon="05.846490"><ele>14.6</ele><time>2021-02-18T11:40:59Z</time><name>PT3658</name></trkpt>
<trkpt lat="53.461063" lon="05.846509"><ele>14.6</ele><time>2021-02-18T11:41:00Z</time><name>PT3659</name></trkpt>
<trkpt lat="53.461064" lon="05.846528"><ele>14.6</ele><time>2021-02-18T11:41:02Z</time><name>PT3660</name></trkpt>
<trkpt lat="53.461064" lon="05.846546"><ele>14.6</ele><time>2021-02-18T11:41:02Z</time><name>PT3661</name></trkpt>
<trkpt lat="53.461064" lon="05.846562"><ele>14.6</ele><time>2021-02-18T11:41:03Z</time><name>PT3662</name></trkpt>
<trkpt lat="53.461066" lon="05.846580"><ele>14.7</ele><time>2021-02-18T11:41:05Z</time><name>PT3663</name></trkpt>
<trkpt lat="53.461067" lon="05.846595"><ele>14.8</ele><time>2021-02-18T11:41:05Z</time><name>PT3664</name></trkpt>
<trkpt lat="53.461066" lon="05.846610"><ele>14.6</ele><time>2021-02-18T11:41:06Z</time><name>PT3665</name></trkpt>
<trkpt lat="53.461064" lon="05.846625"><ele>14.6</ele><time>2021-02-18T11:41:08Z</time><name>PT3666</name></trkpt>
<trkpt lat="53.461059" lon="05.846635"><ele>14.6</ele><time>2021-02-18T11:41:08Z</time><name>PT3667</name></trkpt>
<trkpt lat="53.461056" lon="05.846651"><ele>14.5</ele><time>2021-02-18T11:41:09Z</time><name>PT3668</name></trkpt>
<trkpt lat="53.461055" lon="05.846670"><ele>14.6</ele><time>2021-02-18T11:41:11Z</time><name>PT3669</name></trkpt>
<trkpt lat="53.461053" lon="05.846690"><ele>14.6</ele><time>2021-02-18T11:41:11Z</time><name>PT3670</name></trkpt>
<trkpt lat="53.461051" lon="05.846707"><ele>14.4</ele><time>2021-02-18T11:41:12Z</time><name>PT3671</name></trkpt>
<trkpt lat="53.461052" lon="05.846725"><ele>14.3</ele><time>2021-02-18T11:41:14Z</time><name>PT3672</name></trkpt>
<trkpt lat="53.461053" lon="05.846745"><ele>14.4</ele><time>2021-02-18T11:41:14Z</time><name>PT3673</name></trkpt>
<trkpt lat="53.461054" lon="05.846763"><ele>14.3</ele><time>2021-02-18T11:41:15Z</time><name>PT3674</name></trkpt>
<trkpt lat="53.461055" lon="05.846778"><ele>14.4</ele><time>2021-02-18T11:41:17Z</time><name>PT3675</name></trkpt>
<trkpt lat="53.461054" lon="05.846795"><ele>14.4</ele><time>2021-02-18T11:41:17Z</time><name>PT3676</name></trkpt>
<trkpt lat="53.461053" lon="05.846814"><ele>14.5</ele><time>2021-02-18T11:41:18Z</time><name>PT3677</name></trkpt>
<trkpt lat="53.461050" lon="05.846832"><ele>14.6</ele><time>2021-02-18T11:41:20Z</time><name>PT3678</name></trkpt>
<trkpt lat="53.461050" lon="05.846850"><ele>14.6</ele><time>2021-02-18T11:41:20Z</time><name>PT3679</name></trkpt>
<trkpt lat="53.461050" lon="05.846870"><ele>14.7</ele><time>2021-02-18T11:41:21Z</time><name>PT3680</name></trkpt>
<trkpt lat="53.461049" lon="05.846891"><ele>14.6</ele><time>2021-02-18T11:41:23Z</time><name>PT3681</name></trkpt>
<trkpt lat="53.461050" lon="05.846911"><ele>14.5</ele><time>2021-02-18T11:41:23Z</time><name>PT3682</name></trkpt>
<trkpt lat="53.461050" lon="05.846931"><ele>14.6</ele><time>2021-02-18T11:41:24Z</time><name>PT3683</name></trkpt>
<trkpt lat="53.461051" lon="05.846950"><ele>14.8</ele><time>2021-02-18T11:41:26Z</time><name>PT3684</name></trkpt>
<trkpt lat="53.461051" lon="05.846969"><ele>14.8</ele><time>2021-02-18T11:41:26Z</time><name>PT3685</name></trkpt>
<trkpt lat="53.461052" lon="05.846987"><ele>15.1</ele><time>2021-02-18T11:41:27Z</time><name>PT3686</name></trkpt>
<trkpt lat="53.461053" lon="05.846999"><ele>14.9</ele><time>2021-02-18T11:41:29Z</time><name>PT3687</name></trkpt>
<trkpt lat="53.461052" lon="05.847015"><ele>15</ele><time>2021-02-18T11:41:29Z</time><name>PT3688</name></trkpt>
<trkpt lat="53.461050" lon="05.847033"><ele>14.9</ele><time>2021-02-18T11:41:30Z</time><name>PT3689</name></trkpt>
<trkpt lat="53.461049" lon="05.847052"><ele>15</ele><time>2021-02-18T11:41:32Z</time><name>PT3690</name></trkpt>
<trkpt lat="53.461051" lon="05.847073"><ele>15</ele><time>2021-02-18T11:41:32Z</time><name>PT3691</name></trkpt>
<trkpt lat="53.461050" lon="05.847093"><ele>15</ele><time>2021-02-18T11:41:33Z</time><name>PT3692</name></trkpt>
<trkpt lat="53.461049" lon="05.847111"><ele>14.8</ele><time>2021-02-18T11:41:35Z</time><name>PT3693</name></trkpt>
<trkpt lat="53.461050" lon="05.847128"><ele>14.7</ele><time>2021-02-18T11:41:35Z</time><name>PT3694</name></trkpt>
<trkpt lat="53.461051" lon="05.847145"><ele>14.8</ele><time>2021-02-18T11:41:36Z</time><name>PT3695</name></trkpt>
<trkpt lat="53.461052" lon="05.847161"><ele>14.6</ele><time>2021-02-18T11:41:38Z</time><name>PT3696</name></trkpt>
<trkpt lat="53.461048" lon="05.847174"><ele>14.7</ele><time>2021-02-18T11:41:38Z</time><name>PT3697</name></trkpt>
<trkpt lat="53.461046" lon="05.847191"><ele>14.5</ele><time>2021-02-18T11:41:39Z</time><name>PT3698</name></trkpt>
<trkpt lat="53.461046" lon="05.847208"><ele>14.5</ele><time>2021-02-18T11:41:41Z</time><name>PT3699</name></trkpt>
<trkpt lat="53.461046" lon="05.847226"><ele>14.4</ele><time>2021-02-18T11:41:41Z</time><name>PT3700</name></trkpt>
<trkpt lat="53.461046" lon="05.847243"><ele>14.5</ele><time>2021-02-18T11:41:42Z</time><name>PT3701</name></trkpt>
<trkpt lat="53.461046" lon="05.847260"><ele>14.5</ele><time>2021-02-18T11:41:44Z</time><name>PT3702</name></trkpt>
<trkpt lat="53.461045" lon="05.847278"><ele>14.6</ele><time>2021-02-18T11:41:44Z</time><name>PT3703</name></trkpt>
<trkpt lat="53.461044" lon="05.847296"><ele>14.6</ele><time>2021-02-18T11:41:46Z</time><name>PT3704</name></trkpt>
<trkpt lat="53.461046" lon="05.847312"><ele>14.4</ele><time>2021-02-18T11:41:47Z</time><name>PT3705</name></trkpt>
<trkpt lat="53.461047" lon="05.847329"><ele>14.6</ele><time>2021-02-18T11:41:47Z</time><name>PT3706</name></trkpt>
<trkpt lat="53.461047" lon="05.847347"><ele>14.6</ele><time>2021-02-18T11:41:48Z</time><name>PT3707</name></trkpt>
<trkpt lat="53.461047" lon="05.847365"><ele>14.8</ele><time>2021-02-18T11:41:50Z</time><name>PT3708</name></trkpt>
<trkpt lat="53.461045" lon="05.847385"><ele>14.9</ele><time>2021-02-18T11:41:50Z</time><name>PT3709</name></trkpt>
<trkpt lat="53.461044" lon="05.847406"><ele>15</ele><time>2021-02-18T11:41:51Z</time><name>PT3710</name></trkpt>
<trkpt lat="53.461043" lon="05.847426"><ele>14.9</ele><time>2021-02-18T11:41:53Z</time><name>PT3711</name></trkpt>
<trkpt lat="53.461042" lon="05.847445"><ele>14.8</ele><time>2021-02-18T11:41:53Z</time><name>PT3712</name></trkpt>
<trkpt lat="53.461040" lon="05.847464"><ele>14.6</ele><time>2021-02-18T11:41:54Z</time><name>PT3713</name></trkpt>
<trkpt lat="53.461039" lon="05.847483"><ele>14.6</ele><time>2021-02-18T11:41:56Z</time><name>PT3714</name></trkpt>
<trkpt lat="53.461040" lon="05.847501"><ele>14.6</ele><time>2021-02-18T11:41:56Z</time><name>PT3715</name></trkpt>
<trkpt lat="53.461042" lon="05.847517"><ele>14.7</ele><time>2021-02-18T11:41:57Z</time><name>PT3716</name></trkpt>
<trkpt lat="53.461043" lon="05.847533"><ele>14.7</ele><time>2021-02-18T11:41:59Z</time><name>PT3717</name></trkpt>
<trkpt lat="53.461042" lon="05.847548"><ele>14.7</ele><time>2021-02-18T11:41:59Z</time><name>PT3718</name></trkpt>
<trkpt lat="53.461041" lon="05.847566"><ele>14.7</ele><time>2021-02-18T11:42:00Z</time><name>PT3719</name></trkpt>
<trkpt lat="53.461041" lon="05.847583"><ele>14.7</ele><time>2021-02-18T11:42:02Z</time><name>PT3720</name></trkpt>
<trkpt lat="53.461040" lon="05.847600"><ele>14.7</ele><time>2021-02-18T11:42:02Z</time><name>PT3721</name></trkpt>
<trkpt lat="53.461039" lon="05.847618"><ele>14.7</ele><time>2021-02-18T11:42:03Z</time><name>PT3722</name></trkpt>
<trkpt lat="53.461038" lon="05.847634"><ele>14.9</ele><time>2021-02-18T11:42:05Z</time><name>PT3723</name></trkpt>
<trkpt lat="53.461039" lon="05.847652"><ele>15.1</ele><time>2021-02-18T11:42:05Z</time><name>PT3724</name></trkpt>
<trkpt lat="53.461038" lon="05.847664"><ele>15</ele><time>2021-02-18T11:42:06Z</time><name>PT3725</name></trkpt>
<trkpt lat="53.461039" lon="05.847684"><ele>15.1</ele><time>2021-02-18T11:42:08Z</time><name>PT3726</name></trkpt>
<trkpt lat="53.461038" lon="05.847699"><ele>15.1</ele><time>2021-02-18T11:42:08Z</time><name>PT3727</name></trkpt>
<trkpt lat="53.461037" lon="05.847720"><ele>15.1</ele><time>2021-02-18T11:42:09Z</time><name>PT3728</name></trkpt>
<trkpt lat="53.461037" lon="05.847737"><ele>15.1</ele><time>2021-02-18T11:42:11Z</time><name>PT3729</name></trkpt>
<trkpt lat="53.461039" lon="05.847751"><ele>15</ele><time>2021-02-18T11:42:11Z</time><name>PT3730</name></trkpt>
<trkpt lat="53.461041" lon="05.847765"><ele>14.8</ele><time>2021-02-18T11:42:12Z</time><name>PT3731</name></trkpt>
<trkpt lat="53.461041" lon="05.847781"><ele>14.6</ele><time>2021-02-18T11:42:14Z</time><name>PT3732</name></trkpt>
<trkpt lat="53.461040" lon="05.847795"><ele>14.4</ele><time>2021-02-18T11:42:14Z</time><name>PT3733</name></trkpt>
<trkpt lat="53.461037" lon="05.847810"><ele>14.4</ele><time>2021-02-18T11:42:15Z</time><name>PT3734</name></trkpt>
<trkpt lat="53.461037" lon="05.847822"><ele>14.6</ele><time>2021-02-18T11:42:17Z</time><name>PT3735</name></trkpt>
<trkpt lat="53.461039" lon="05.847840"><ele>14.7</ele><time>2021-02-18T11:42:17Z</time><name>PT3736</name></trkpt>
<trkpt lat="53.461040" lon="05.847858"><ele>14.9</ele><time>2021-02-18T11:42:18Z</time><name>PT3737</name></trkpt>
<trkpt lat="53.461042" lon="05.847873"><ele>14.9</ele><time>2021-02-18T11:42:20Z</time><name>PT3738</name></trkpt>
<trkpt lat="53.461042" lon="05.847890"><ele>14.8</ele><time>2021-02-18T11:42:20Z</time><name>PT3739</name></trkpt>
<trkpt lat="53.461041" lon="05.847905"><ele>14.6</ele><time>2021-02-18T11:42:21Z</time><name>PT3740</name></trkpt>
<trkpt lat="53.461040" lon="05.847923"><ele>14.7</ele><time>2021-02-18T11:42:23Z</time><name>PT3741</name></trkpt>
<trkpt lat="53.461039" lon="05.847941"><ele>14.8</ele><time>2021-02-18T11:42:23Z</time><name>PT3742</name></trkpt>
<trkpt lat="53.461038" lon="05.847960"><ele>14.9</ele><time>2021-02-18T11:42:24Z</time><name>PT3743</name></trkpt>
<trkpt lat="53.461039" lon="05.847977"><ele>15.1</ele><time>2021-02-18T11:42:26Z</time><name>PT3744</name></trkpt>
<trkpt lat="53.461039" lon="05.847994"><ele>15.1</ele><time>2021-02-18T11:42:26Z</time><name>PT3745</name></trkpt>
<trkpt lat="53.461040" lon="05.848011"><ele>15.1</ele><time>2021-02-18T11:42:27Z</time><name>PT3746</name></trkpt>
<trkpt lat="53.461039" lon="05.848028"><ele>14.9</ele><time>2021-02-18T11:42:29Z</time><name>PT3747</name></trkpt>
<trkpt lat="53.461036" lon="05.848046"><ele>15</ele><time>2021-02-18T11:42:29Z</time><name>PT3748</name></trkpt>
<trkpt lat="53.461035" lon="05.848062"><ele>14.7</ele><time>2021-02-18T11:42:30Z</time><name>PT3749</name></trkpt>
<trkpt lat="53.461032" lon="05.848076"><ele>14.6</ele><time>2021-02-18T11:42:32Z</time><name>PT3750</name></trkpt>
<trkpt lat="53.461029" lon="05.848083"><ele>14.4</ele><time>2021-02-18T11:42:32Z</time><name>PT3751</name></trkpt>
<trkpt lat="53.461032" lon="05.848083"><ele>14.1</ele><time>2021-02-18T11:42:33Z</time><name>PT3752</name></trkpt>
<trkpt lat="53.461030" lon="05.848086"><ele>14</ele><time>2021-02-18T11:42:35Z</time><name>PT3753</name></trkpt>
<trkpt lat="53.461030" lon="05.848088"><ele>13.7</ele><time>2021-02-18T11:42:35Z</time><name>PT3754</name></trkpt>
<trkpt lat="53.461032" lon="05.848100"><ele>14.1</ele><time>2021-02-18T11:42:38Z</time><name>PT3755</name></trkpt>
<trkpt lat="53.461033" lon="05.848118"><ele>14.3</ele><time>2021-02-18T11:42:38Z</time><name>PT3756</name></trkpt>
<trkpt lat="53.461035" lon="05.848136"><ele>14.7</ele><time>2021-02-18T11:42:39Z</time><name>PT3757</name></trkpt>
<trkpt lat="53.461036" lon="05.848150"><ele>14.9</ele><time>2021-02-18T11:42:41Z</time><name>PT3758</name></trkpt>
<trkpt lat="53.461035" lon="05.848164"><ele>15</ele><time>2021-02-18T11:42:41Z</time><name>PT3759</name></trkpt>
<trkpt lat="53.461035" lon="05.848184"><ele>15</ele><time>2021-02-18T11:42:42Z</time><name>PT3760</name></trkpt>
<trkpt lat="53.461036" lon="05.848202"><ele>14.8</ele><time>2021-02-18T11:42:44Z</time><name>PT3761</name></trkpt>
<trkpt lat="53.461031" lon="05.848222"><ele>14.7</ele><time>2021-02-18T11:42:44Z</time><name>PT3762</name></trkpt>
<trkpt lat="53.461031" lon="05.848242"><ele>14.9</ele><time>2021-02-18T11:42:45Z</time><name>PT3763</name></trkpt>
<trkpt lat="53.461030" lon="05.848262"><ele>14.9</ele><time>2021-02-18T11:42:47Z</time><name>PT3764</name></trkpt>
<trkpt lat="53.461030" lon="05.848284"><ele>14.8</ele><time>2021-02-18T11:42:47Z</time><name>PT3765</name></trkpt>
<trkpt lat="53.461030" lon="05.848302"><ele>14.6</ele><time>2021-02-18T11:42:48Z</time><name>PT3766</name></trkpt>
<trkpt lat="53.461030" lon="05.848318"><ele>14.7</ele><time>2021-02-18T11:42:50Z</time><name>PT3767</name></trkpt>
<trkpt lat="53.461033" lon="05.848338"><ele>14.8</ele><time>2021-02-18T11:42:50Z</time><name>PT3768</name></trkpt>
<trkpt lat="53.461029" lon="05.848354"><ele>14.8</ele><time>2021-02-18T11:42:52Z</time><name>PT3769</name></trkpt>
<trkpt lat="53.461030" lon="05.848371"><ele>15.1</ele><time>2021-02-18T11:42:53Z</time><name>PT3770</name></trkpt>
<trkpt lat="53.461026" lon="05.848386"><ele>15.1</ele><time>2021-02-18T11:42:53Z</time><name>PT3771</name></trkpt>
<trkpt lat="53.461024" lon="05.848403"><ele>14.7</ele><time>2021-02-18T11:42:54Z</time><name>PT3772</name></trkpt>
<trkpt lat="53.461023" lon="05.848420"><ele>14.6</ele><time>2021-02-18T11:42:56Z</time><name>PT3773</name></trkpt>
<trkpt lat="53.461023" lon="05.848438"><ele>14.6</ele><time>2021-02-18T11:42:56Z</time><name>PT3774</name></trkpt>
<trkpt lat="53.461023" lon="05.848455"><ele>14.4</ele><time>2021-02-18T11:42:57Z</time><name>PT3775</name></trkpt>
<trkpt lat="53.461022" lon="05.848474"><ele>14.5</ele><time>2021-02-18T11:42:59Z</time><name>PT3776</name></trkpt>
<trkpt lat="53.461023" lon="05.848492"><ele>14.6</ele><time>2021-02-18T11:42:59Z</time><name>PT3777</name></trkpt>
<trkpt lat="53.461024" lon="05.848507"><ele>14.6</ele><time>2021-02-18T11:43:00Z</time><name>PT3778</name></trkpt>
<trkpt lat="53.461025" lon="05.848517"><ele>14.6</ele><time>2021-02-18T11:43:02Z</time><name>PT3779</name></trkpt>
<trkpt lat="53.461022" lon="05.848527"><ele>14.8</ele><time>2021-02-18T11:43:02Z</time><name>PT3780</name></trkpt>
<trkpt lat="53.461021" lon="05.848544"><ele>14.9</ele><time>2021-02-18T11:43:03Z</time><name>PT3781</name></trkpt>
<trkpt lat="53.461018" lon="05.848558"><ele>15</ele><time>2021-02-18T11:43:05Z</time><name>PT3782</name></trkpt>
<trkpt lat="53.461019" lon="05.848574"><ele>15</ele><time>2021-02-18T11:43:05Z</time><name>PT3783</name></trkpt>
<trkpt lat="53.461020" lon="05.848593"><ele>14.9</ele><time>2021-02-18T11:43:06Z</time><name>PT3784</name></trkpt>
<trkpt lat="53.461022" lon="05.848612"><ele>14.9</ele><time>2021-02-18T11:43:08Z</time><name>PT3785</name></trkpt>
<trkpt lat="53.461017" lon="05.848621"><ele>14.7</ele><time>2021-02-18T11:43:08Z</time><name>PT3786</name></trkpt>
<trkpt lat="53.461016" lon="05.848624"><ele>14.4</ele><time>2021-02-18T11:43:09Z</time><name>PT3787</name></trkpt>
<trkpt lat="53.461020" lon="05.848624"><ele>14.3</ele><time>2021-02-18T11:43:11Z</time><name>PT3788</name></trkpt>
<trkpt lat="53.461019" lon="05.848631"><ele>14.1</ele><time>2021-02-18T11:43:11Z</time><name>PT3789</name></trkpt>
<trkpt lat="53.461019" lon="05.848644"><ele>14.1</ele><time>2021-02-18T11:43:12Z</time><name>PT3790</name></trkpt>
<trkpt lat="53.461018" lon="05.848659"><ele>14.5</ele><time>2021-02-18T11:43:14Z</time><name>PT3791</name></trkpt>
<trkpt lat="53.461020" lon="05.848673"><ele>14.7</ele><time>2021-02-18T11:43:14Z</time><name>PT3792</name></trkpt>
<trkpt lat="53.461018" lon="05.848683"><ele>14.8</ele><time>2021-02-18T11:43:15Z</time><name>PT3793</name></trkpt>
<trkpt lat="53.461018" lon="05.848687"><ele>14.6</ele><time>2021-02-18T11:43:17Z</time><name>PT3794</name></trkpt>
<trkpt lat="53.461018" lon="05.848693"><ele>14.5</ele><time>2021-02-18T11:43:17Z</time><name>PT3795</name></trkpt>
<trkpt lat="53.461017" lon="05.848704"><ele>14.2</ele><time>2021-02-18T11:43:18Z</time><name>PT3796</name></trkpt>
<trkpt lat="53.461018" lon="05.848722"><ele>14.4</ele><time>2021-02-18T11:43:20Z</time><name>PT3797</name></trkpt>
<trkpt lat="53.461017" lon="05.848740"><ele>14.5</ele><time>2021-02-18T11:43:20Z</time><name>PT3798</name></trkpt>
<trkpt lat="53.461016" lon="05.848758"><ele>15</ele><time>2021-02-18T11:43:21Z</time><name>PT3799</name></trkpt>
<trkpt lat="53.461014" lon="05.848778"><ele>15.1</ele><time>2021-02-18T11:43:23Z</time><name>PT3800</name></trkpt>
<trkpt lat="53.461016" lon="05.848798"><ele>15.1</ele><time>2021-02-18T11:43:23Z</time><name>PT3801</name></trkpt>
<trkpt lat="53.461019" lon="05.848817"><ele>15.1</ele><time>2021-02-18T11:43:24Z</time><name>PT3802</name></trkpt>
<trkpt lat="53.461022" lon="05.848834"><ele>14.8</ele><time>2021-02-18T11:43:26Z</time><name>PT3803</name></trkpt>
<trkpt lat="53.461023" lon="05.848852"><ele>14.8</ele><time>2021-02-18T11:43:26Z</time><name>PT3804</name></trkpt>
<trkpt lat="53.461022" lon="05.848868"><ele>14.8</ele><time>2021-02-18T11:43:27Z</time><name>PT3805</name></trkpt>
<trkpt lat="53.461019" lon="05.848886"><ele>14.9</ele><time>2021-02-18T11:43:29Z</time><name>PT3806</name></trkpt>
<trkpt lat="53.461018" lon="05.848905"><ele>15</ele><time>2021-02-18T11:43:29Z</time><name>PT3807</name></trkpt>
<trkpt lat="53.461018" lon="05.848926"><ele>15.1</ele><time>2021-02-18T11:43:30Z</time><name>PT3808</name></trkpt>
<trkpt lat="53.461018" lon="05.848946"><ele>15.2</ele><time>2021-02-18T11:43:32Z</time><name>PT3809</name></trkpt>
<trkpt lat="53.461017" lon="05.848965"><ele>15.2</ele><time>2021-02-18T11:43:32Z</time><name>PT3810</name></trkpt>
<trkpt lat="53.461015" lon="05.848986"><ele>15.1</ele><time>2021-02-18T11:43:33Z</time><name>PT3811</name></trkpt>
<trkpt lat="53.461015" lon="05.849005"><ele>14.8</ele><time>2021-02-18T11:43:35Z</time><name>PT3812</name></trkpt>
<trkpt lat="53.461013" lon="05.849021"><ele>14.8</ele><time>2021-02-18T11:43:35Z</time><name>PT3813</name></trkpt>
<trkpt lat="53.461013" lon="05.849043"><ele>14.6</ele><time>2021-02-18T11:43:36Z</time><name>PT3814</name></trkpt>
<trkpt lat="53.461013" lon="05.849065"><ele>14.6</ele><time>2021-02-18T11:43:38Z</time><name>PT3815</name></trkpt>
<trkpt lat="53.461012" lon="05.849084"><ele>14.4</ele><time>2021-02-18T11:43:38Z</time><name>PT3816</name></trkpt>
<trkpt lat="53.461012" lon="05.849102"><ele>14.3</ele><time>2021-02-18T11:43:39Z</time><name>PT3817</name></trkpt>
<trkpt lat="53.461013" lon="05.849121"><ele>14.2</ele><time>2021-02-18T11:43:41Z</time><name>PT3818</name></trkpt>
<trkpt lat="53.461014" lon="05.849136"><ele>14.4</ele><time>2021-02-18T11:43:41Z</time><name>PT3819</name></trkpt>
<trkpt lat="53.461015" lon="05.849154"><ele>14.6</ele><time>2021-02-18T11:43:42Z</time><name>PT3820</name></trkpt>
<trkpt lat="53.461017" lon="05.849172"><ele>14.5</ele><time>2021-02-18T11:43:44Z</time><name>PT3821</name></trkpt>
<trkpt lat="53.461017" lon="05.849191"><ele>14.6</ele><time>2021-02-18T11:43:44Z</time><name>PT3822</name></trkpt>
<trkpt lat="53.461015" lon="05.849209"><ele>14.6</ele><time>2021-02-18T11:43:45Z</time><name>PT3823</name></trkpt>
<trkpt lat="53.461013" lon="05.849226"><ele>14.7</ele><time>2021-02-18T11:43:47Z</time><name>PT3824</name></trkpt>
<trkpt lat="53.461013" lon="05.849241"><ele>14.6</ele><time>2021-02-18T11:43:47Z</time><name>PT3825</name></trkpt>
<trkpt lat="53.461012" lon="05.849256"><ele>14.4</ele><time>2021-02-18T11:43:48Z</time><name>PT3826</name></trkpt>
<trkpt lat="53.461012" lon="05.849267"><ele>14.1</ele><time>2021-02-18T11:43:50Z</time><name>PT3827</name></trkpt>
<trkpt lat="53.461012" lon="05.849277"><ele>13.9</ele><time>2021-02-18T11:43:50Z</time><name>PT3828</name></trkpt>
<trkpt lat="53.461011" lon="05.849287"><ele>13.4</ele><time>2021-02-18T11:43:51Z</time><name>PT3829</name></trkpt>
<trkpt lat="53.461009" lon="05.849296"><ele>13.3</ele><time>2021-02-18T11:43:53Z</time><name>PT3830</name></trkpt>
<trkpt lat="53.461007" lon="05.849311"><ele>13.5</ele><time>2021-02-18T11:43:53Z</time><name>PT3831</name></trkpt>
<trkpt lat="53.461007" lon="05.849327"><ele>13.6</ele><time>2021-02-18T11:43:54Z</time><name>PT3832</name></trkpt>
<trkpt lat="53.461008" lon="05.849344"><ele>14.1</ele><time>2021-02-18T11:43:56Z</time><name>PT3833</name></trkpt>
<trkpt lat="53.461008" lon="05.849363"><ele>14.4</ele><time>2021-02-18T11:43:56Z</time><name>PT3834</name></trkpt>
<trkpt lat="53.461011" lon="05.849381"><ele>14.6</ele><time>2021-02-18T11:43:57Z</time><name>PT3835</name></trkpt>
<trkpt lat="53.461013" lon="05.849400"><ele>14.6</ele><time>2021-02-18T11:43:59Z</time><name>PT3836</name></trkpt>
<trkpt lat="53.461015" lon="05.849413"><ele>14.6</ele><time>2021-02-18T11:43:59Z</time><name>PT3837</name></trkpt>
<trkpt lat="53.461018" lon="05.849429"><ele>14.6</ele><time>2021-02-18T11:44:00Z</time><name>PT3838</name></trkpt>
<trkpt lat="53.461020" lon="05.849443"><ele>14.5</ele><time>2021-02-18T11:44:02Z</time><name>PT3839</name></trkpt>
<trkpt lat="53.461022" lon="05.849457"><ele>14.3</ele><time>2021-02-18T11:44:02Z</time><name>PT3840</name></trkpt>
<trkpt lat="53.461022" lon="05.849472"><ele>14.3</ele><time>2021-02-18T11:44:03Z</time><name>PT3841</name></trkpt>
<trkpt lat="53.461024" lon="05.849488"><ele>14.1</ele><time>2021-02-18T11:44:05Z</time><name>PT3842</name></trkpt>
<trkpt lat="53.461022" lon="05.849507"><ele>14.1</ele><time>2021-02-18T11:44:05Z</time><name>PT3843</name></trkpt>
<trkpt lat="53.461021" lon="05.849531"><ele>13.8</ele><time>2021-02-18T11:44:06Z</time><name>PT3844</name></trkpt>
<trkpt lat="53.461022" lon="05.849558"><ele>13.8</ele><time>2021-02-18T11:44:08Z</time><name>PT3845</name></trkpt>
<trkpt lat="53.461020" lon="05.849579"><ele>14</ele><time>2021-02-18T11:44:08Z</time><name>PT3846</name></trkpt>
<trkpt lat="53.461019" lon="05.849595"><ele>14.1</ele><time>2021-02-18T11:44:09Z</time><name>PT3847</name></trkpt>
<trkpt lat="53.461019" lon="05.849615"><ele>14.6</ele><time>2021-02-18T11:44:11Z</time><name>PT3848</name></trkpt>
<trkpt lat="53.461019" lon="05.849634"><ele>14.5</ele><time>2021-02-18T11:44:11Z</time><name>PT3849</name></trkpt>
<trkpt lat="53.461016" lon="05.849651"><ele>14.4</ele><time>2021-02-18T11:44:12Z</time><name>PT3850</name></trkpt>
<trkpt lat="53.461015" lon="05.849669"><ele>14.2</ele><time>2021-02-18T11:44:14Z</time><name>PT3851</name></trkpt>
<trkpt lat="53.461014" lon="05.849688"><ele>14.1</ele><time>2021-02-18T11:44:14Z</time><name>PT3852</name></trkpt>
<trkpt lat="53.461015" lon="05.849704"><ele>14</ele><time>2021-02-18T11:44:15Z</time><name>PT3853</name></trkpt>
<trkpt lat="53.461017" lon="05.849719"><ele>14.1</ele><time>2021-02-18T11:44:17Z</time><name>PT3854</name></trkpt>
<trkpt lat="53.461018" lon="05.849735"><ele>14.1</ele><time>2021-02-18T11:44:17Z</time><name>PT3855</name></trkpt>
<trkpt lat="53.461017" lon="05.849753"><ele>14.3</ele><time>2021-02-18T11:44:18Z</time><name>PT3856</name></trkpt>
<trkpt lat="53.461017" lon="05.849770"><ele>14.6</ele><time>2021-02-18T11:44:20Z</time><name>PT3857</name></trkpt>
<trkpt lat="53.461015" lon="05.849789"><ele>14.6</ele><time>2021-02-18T11:44:20Z</time><name>PT3858</name></trkpt>
<trkpt lat="53.461014" lon="05.849809"><ele>14.8</ele><time>2021-02-18T11:44:21Z</time><name>PT3859</name></trkpt>
<trkpt lat="53.461009" lon="05.849824"><ele>14.8</ele><time>2021-02-18T11:44:23Z</time><name>PT3860</name></trkpt>
<trkpt lat="53.461005" lon="05.849840"><ele>14.6</ele><time>2021-02-18T11:44:23Z</time><name>PT3861</name></trkpt>
<trkpt lat="53.461003" lon="05.849856"><ele>14.6</ele><time>2021-02-18T11:44:24Z</time><name>PT3862</name></trkpt>
<trkpt lat="53.461002" lon="05.849870"><ele>14.4</ele><time>2021-02-18T11:44:26Z</time><name>PT3863</name></trkpt>
<trkpt lat="53.461003" lon="05.849884"><ele>14.3</ele><time>2021-02-18T11:44:26Z</time><name>PT3864</name></trkpt>
<trkpt lat="53.461004" lon="05.849901"><ele>14.5</ele><time>2021-02-18T11:44:27Z</time><name>PT3865</name></trkpt>
<trkpt lat="53.461003" lon="05.849919"><ele>14.6</ele><time>2021-02-18T11:44:29Z</time><name>PT3866</name></trkpt>
<trkpt lat="53.461001" lon="05.849936"><ele>14.7</ele><time>2021-02-18T11:44:29Z</time><name>PT3867</name></trkpt>
<trkpt lat="53.461004" lon="05.849953"><ele>14.9</ele><time>2021-02-18T11:44:30Z</time><name>PT3868</name></trkpt>
<trkpt lat="53.461003" lon="05.849973"><ele>14.6</ele><time>2021-02-18T11:44:32Z</time><name>PT3869</name></trkpt>
<trkpt lat="53.461001" lon="05.849992"><ele>14.8</ele><time>2021-02-18T11:44:32Z</time><name>PT3870</name></trkpt>
<trkpt lat="53.461002" lon="05.850012"><ele>14.7</ele><time>2021-02-18T11:44:33Z</time><name>PT3871</name></trkpt>
<trkpt lat="53.461004" lon="05.850029"><ele>14.4</ele><time>2021-02-18T11:44:35Z</time><name>PT3872</name></trkpt>
<trkpt lat="53.461008" lon="05.850044"><ele>14.5</ele><time>2021-02-18T11:44:35Z</time><name>PT3873</name></trkpt>
<trkpt lat="53.461007" lon="05.850058"><ele>14.4</ele><time>2021-02-18T11:44:36Z</time><name>PT3874</name></trkpt>
<trkpt lat="53.461007" lon="05.850074"><ele>14.3</ele><time>2021-02-18T11:44:38Z</time><name>PT3875</name></trkpt>
<trkpt lat="53.461007" lon="05.850093"><ele>14.3</ele><time>2021-02-18T11:44:38Z</time><name>PT3876</name></trkpt>
<trkpt lat="53.461009" lon="05.850112"><ele>14.3</ele><time>2021-02-18T11:44:39Z</time><name>PT3877</name></trkpt>
<trkpt lat="53.461007" lon="05.850131"><ele>14.3</ele><time>2021-02-18T11:44:41Z</time><name>PT3878</name></trkpt>
<trkpt lat="53.461004" lon="05.850151"><ele>14.3</ele><time>2021-02-18T11:44:41Z</time><name>PT3879</name></trkpt>
<trkpt lat="53.461002" lon="05.850168"><ele>14.4</ele><time>2021-02-18T11:44:42Z</time><name>PT3880</name></trkpt>
<trkpt lat="53.461003" lon="05.850186"><ele>14.6</ele><time>2021-02-18T11:44:44Z</time><name>PT3881</name></trkpt>
<trkpt lat="53.461004" lon="05.850204"><ele>14.5</ele><time>2021-02-18T11:44:44Z</time><name>PT3882</name></trkpt>
<trkpt lat="53.461005" lon="05.850222"><ele>14.4</ele><time>2021-02-18T11:44:45Z</time><name>PT3883</name></trkpt>
<trkpt lat="53.461006" lon="05.850241"><ele>14.5</ele><time>2021-02-18T11:44:47Z</time><name>PT3884</name></trkpt>
<trkpt lat="53.461006" lon="05.850260"><ele>14.6</ele><time>2021-02-18T11:44:47Z</time><name>PT3885</name></trkpt>
<trkpt lat="53.461011" lon="05.850279"><ele>14.6</ele><time>2021-02-18T11:44:48Z</time><name>PT3886</name></trkpt>
<trkpt lat="53.461013" lon="05.850296"><ele>14.8</ele><time>2021-02-18T11:44:50Z</time><name>PT3887</name></trkpt>
<trkpt lat="53.461012" lon="05.850314"><ele>15</ele><time>2021-02-18T11:44:50Z</time><name>PT3888</name></trkpt>
<trkpt lat="53.461011" lon="05.850329"><ele>14.7</ele><time>2021-02-18T11:44:51Z</time><name>PT3889</name></trkpt>
<trkpt lat="53.461010" lon="05.850344"><ele>14.5</ele><time>2021-02-18T11:44:53Z</time><name>PT3890</name></trkpt>
<trkpt lat="53.461010" lon="05.850361"><ele>14.4</ele><time>2021-02-18T11:44:53Z</time><name>PT3891</name></trkpt>
<trkpt lat="53.461008" lon="05.850379"><ele>14.2</ele><time>2021-02-18T11:44:54Z</time><name>PT3892</name></trkpt>
<trkpt lat="53.461006" lon="05.850397"><ele>14.2</ele><time>2021-02-18T11:44:56Z</time><name>PT3893</name></trkpt>
<trkpt lat="53.461005" lon="05.850415"><ele>14.4</ele><time>2021-02-18T11:44:56Z</time><name>PT3894</name></trkpt>
<trkpt lat="53.461004" lon="05.850431"><ele>14.6</ele><time>2021-02-18T11:44:57Z</time><name>PT3895</name></trkpt>
<trkpt lat="53.461004" lon="05.850449"><ele>14.5</ele><time>2021-02-18T11:44:59Z</time><name>PT3896</name></trkpt>
<trkpt lat="53.461004" lon="05.850469"><ele>14.6</ele><time>2021-02-18T11:44:59Z</time><name>PT3897</name></trkpt>
<trkpt lat="53.461003" lon="05.850486"><ele>14.5</ele><time>2021-02-18T11:45:00Z</time><name>PT3898</name></trkpt>
<trkpt lat="53.461003" lon="05.850503"><ele>14.4</ele><time>2021-02-18T11:45:02Z</time><name>PT3899</name></trkpt>
<trkpt lat="53.461005" lon="05.850521"><ele>14.3</ele><time>2021-02-18T11:45:02Z</time><name>PT3900</name></trkpt>
<trkpt lat="53.461006" lon="05.850539"><ele>14.5</ele><time>2021-02-18T11:45:03Z</time><name>PT3901</name></trkpt>
<trkpt lat="53.461007" lon="05.850556"><ele>14.6</ele><time>2021-02-18T11:45:05Z</time><name>PT3902</name></trkpt>
<trkpt lat="53.461005" lon="05.850572"><ele>14.5</ele><time>2021-02-18T11:45:05Z</time><name>PT3903</name></trkpt>
<trkpt lat="53.461005" lon="05.850588"><ele>14.4</ele><time>2021-02-18T11:45:06Z</time><name>PT3904</name></trkpt>
<trkpt lat="53.461004" lon="05.850603"><ele>14.2</ele><time>2021-02-18T11:45:08Z</time><name>PT3905</name></trkpt>
<trkpt lat="53.461004" lon="05.850618"><ele>14.2</ele><time>2021-02-18T11:45:08Z</time><name>PT3906</name></trkpt>
<trkpt lat="53.461001" lon="05.850633"><ele>14.1</ele><time>2021-02-18T11:45:09Z</time><name>PT3907</name></trkpt>
<trkpt lat="53.460995" lon="05.850649"><ele>14.1</ele><time>2021-02-18T11:45:11Z</time><name>PT3908</name></trkpt>
<trkpt lat="53.460992" lon="05.850666"><ele>14.1</ele><time>2021-02-18T11:45:11Z</time><name>PT3909</name></trkpt>
<trkpt lat="53.460993" lon="05.850682"><ele>14.1</ele><time>2021-02-18T11:45:12Z</time><name>PT3910</name></trkpt>
<trkpt lat="53.460993" lon="05.850700"><ele>14.3</ele><time>2021-02-18T11:45:14Z</time><name>PT3911</name></trkpt>
<trkpt lat="53.460994" lon="05.850718"><ele>14.4</ele><time>2021-02-18T11:45:14Z</time><name>PT3912</name></trkpt>
<trkpt lat="53.460996" lon="05.850735"><ele>14.4</ele><time>2021-02-18T11:45:15Z</time><name>PT3913</name></trkpt>
<trkpt lat="53.460997" lon="05.850754"><ele>14.4</ele><time>2021-02-18T11:45:17Z</time><name>PT3914</name></trkpt>
<trkpt lat="53.460998" lon="05.850774"><ele>14.3</ele><time>2021-02-18T11:45:17Z</time><name>PT3915</name></trkpt>
<trkpt lat="53.460998" lon="05.850793"><ele>14.5</ele><time>2021-02-18T11:45:18Z</time><name>PT3916</name></trkpt>
<trkpt lat="53.461001" lon="05.850813"><ele>14.6</ele><time>2021-02-18T11:45:20Z</time><name>PT3917</name></trkpt>
<trkpt lat="53.461005" lon="05.850834"><ele>14.7</ele><time>2021-02-18T11:45:20Z</time><name>PT3918</name></trkpt>
<trkpt lat="53.461005" lon="05.850854"><ele>14.9</ele><time>2021-02-18T11:45:21Z</time><name>PT3919</name></trkpt>
<trkpt lat="53.461004" lon="05.850872"><ele>14.9</ele><time>2021-02-18T11:45:23Z</time><name>PT3920</name></trkpt>
<trkpt lat="53.461006" lon="05.850891"><ele>14.8</ele><time>2021-02-18T11:45:23Z</time><name>PT3921</name></trkpt>
<trkpt lat="53.461005" lon="05.850909"><ele>14.8</ele><time>2021-02-18T11:45:24Z</time><name>PT3922</name></trkpt>
<trkpt lat="53.461002" lon="05.850924"><ele>14.6</ele><time>2021-02-18T11:45:26Z</time><name>PT3923</name></trkpt>
<trkpt lat="53.460998" lon="05.850939"><ele>14.6</ele><time>2021-02-18T11:45:26Z</time><name>PT3924</name></trkpt>
<trkpt lat="53.460996" lon="05.850954"><ele>14.5</ele><time>2021-02-18T11:45:27Z</time><name>PT3925</name></trkpt>
<trkpt lat="53.460994" lon="05.850971"><ele>14.3</ele><time>2021-02-18T11:45:29Z</time><name>PT3926</name></trkpt>
<trkpt lat="53.460992" lon="05.850989"><ele>14.4</ele><time>2021-02-18T11:45:29Z</time><name>PT3927</name></trkpt>
<trkpt lat="53.460990" lon="05.851008"><ele>14.4</ele><time>2021-02-18T11:45:30Z</time><name>PT3928</name></trkpt>
<trkpt lat="53.460989" lon="05.851025"><ele>14.6</ele><time>2021-02-18T11:45:32Z</time><name>PT3929</name></trkpt>
<trkpt lat="53.460987" lon="05.851043"><ele>14.6</ele><time>2021-02-18T11:45:32Z</time><name>PT3930</name></trkpt>
<trkpt lat="53.460987" lon="05.851061"><ele>14.6</ele><time>2021-02-18T11:45:33Z</time><name>PT3931</name></trkpt>
<trkpt lat="53.460986" lon="05.851079"><ele>14.4</ele><time>2021-02-18T11:45:35Z</time><name>PT3932</name></trkpt>
<trkpt lat="53.460986" lon="05.851098"><ele>14.4</ele><time>2021-02-18T11:45:35Z</time><name>PT3933</name></trkpt>
<trkpt lat="53.460987" lon="05.851116"><ele>14.5</ele><time>2021-02-18T11:45:36Z</time><name>PT3934</name></trkpt>
<trkpt lat="53.460987" lon="05.851134"><ele>14.3</ele><time>2021-02-18T11:45:38Z</time><name>PT3935</name></trkpt>
<trkpt lat="53.460987" lon="05.851152"><ele>14.3</ele><time>2021-02-18T11:45:38Z</time><name>PT3936</name></trkpt>
<trkpt lat="53.460986" lon="05.851170"><ele>14.4</ele><time>2021-02-18T11:45:39Z</time><name>PT3937</name></trkpt>
<trkpt lat="53.460988" lon="05.851187"><ele>14.4</ele><time>2021-02-18T11:45:41Z</time><name>PT3938</name></trkpt>
<trkpt lat="53.460987" lon="05.851204"><ele>14.3</ele><time>2021-02-18T11:45:41Z</time><name>PT3939</name></trkpt>
<trkpt lat="53.460985" lon="05.851221"><ele>14.4</ele><time>2021-02-18T11:45:42Z</time><name>PT3940</name></trkpt>
<trkpt lat="53.460983" lon="05.851237"><ele>14.5</ele><time>2021-02-18T11:45:44Z</time><name>PT3941</name></trkpt>
<trkpt lat="53.460981" lon="05.851255"><ele>14.6</ele><time>2021-02-18T11:45:44Z</time><name>PT3942</name></trkpt>
<trkpt lat="53.460980" lon="05.851272"><ele>14.7</ele><time>2021-02-18T11:45:45Z</time><name>PT3943</name></trkpt>
<trkpt lat="53.460979" lon="05.851291"><ele>14.7</ele><time>2021-02-18T11:45:47Z</time><name>PT3944</name></trkpt>
<trkpt lat="53.460977" lon="05.851310"><ele>14.8</ele><time>2021-02-18T11:45:47Z</time><name>PT3945</name></trkpt>
<trkpt lat="53.460975" lon="05.851329"><ele>14.6</ele><time>2021-02-18T11:45:48Z</time><name>PT3946</name></trkpt>
<trkpt lat="53.460974" lon="05.851349"><ele>14.6</ele><time>2021-02-18T11:45:50Z</time><name>PT3947</name></trkpt>
<trkpt lat="53.460973" lon="05.851369"><ele>14.5</ele><time>2021-02-18T11:45:50Z</time><name>PT3948</name></trkpt>
<trkpt lat="53.460971" lon="05.851389"><ele>14.2</ele><time>2021-02-18T11:45:51Z</time><name>PT3949</name></trkpt>
<trkpt lat="53.460970" lon="05.851413"><ele>14.3</ele><time>2021-02-18T11:45:53Z</time><name>PT3950</name></trkpt>
<trkpt lat="53.460971" lon="05.851432"><ele>14.4</ele><time>2021-02-18T11:45:53Z</time><name>PT3951</name></trkpt>
<trkpt lat="53.460971" lon="05.851450"><ele>14.5</ele><time>2021-02-18T11:45:54Z</time><name>PT3952</name></trkpt>
<trkpt lat="53.460971" lon="05.851469"><ele>14.7</ele><time>2021-02-18T11:45:56Z</time><name>PT3953</name></trkpt>
<trkpt lat="53.460971" lon="05.851489"><ele>14.6</ele><time>2021-02-18T11:45:56Z</time><name>PT3954</name></trkpt>
<trkpt lat="53.460973" lon="05.851509"><ele>14.5</ele><time>2021-02-18T11:45:57Z</time><name>PT3955</name></trkpt>
<trkpt lat="53.460974" lon="05.851528"><ele>14.4</ele><time>2021-02-18T11:45:59Z</time><name>PT3956</name></trkpt>
<trkpt lat="53.460975" lon="05.851545"><ele>14.4</ele><time>2021-02-18T11:45:59Z</time><name>PT3957</name></trkpt>
<trkpt lat="53.460977" lon="05.851561"><ele>14.5</ele><time>2021-02-18T11:46:00Z</time><name>PT3958</name></trkpt>
<trkpt lat="53.460978" lon="05.851576"><ele>14.5</ele><time>2021-02-18T11:46:02Z</time><name>PT3959</name></trkpt>
<trkpt lat="53.460978" lon="05.851595"><ele>14.5</ele><time>2021-02-18T11:46:02Z</time><name>PT3960</name></trkpt>
<trkpt lat="53.460977" lon="05.851612"><ele>14.4</ele><time>2021-02-18T11:46:03Z</time><name>PT3961</name></trkpt>
<trkpt lat="53.460976" lon="05.851633"><ele>14.4</ele><time>2021-02-18T11:46:05Z</time><name>PT3962</name></trkpt>
<trkpt lat="53.460973" lon="05.851652"><ele>14.7</ele><time>2021-02-18T11:46:05Z</time><name>PT3963</name></trkpt>
<trkpt lat="53.460972" lon="05.851668"><ele>14.9</ele><time>2021-02-18T11:46:06Z</time><name>PT3964</name></trkpt>
<trkpt lat="53.460970" lon="05.851686"><ele>15.2</ele><time>2021-02-18T11:46:08Z</time><name>PT3965</name></trkpt>
<trkpt lat="53.460971" lon="05.851705"><ele>15.3</ele><time>2021-02-18T11:46:08Z</time><name>PT3966</name></trkpt>
<trkpt lat="53.460971" lon="05.851724"><ele>15.4</ele><time>2021-02-18T11:46:10Z</time><name>PT3967</name></trkpt>
<trkpt lat="53.460970" lon="05.851742"><ele>15.1</ele><time>2021-02-18T11:46:11Z</time><name>PT3968</name></trkpt>
<trkpt lat="53.460968" lon="05.851759"><ele>14.8</ele><time>2021-02-18T11:46:11Z</time><name>PT3969</name></trkpt>
<trkpt lat="53.460966" lon="05.851778"><ele>14.6</ele><time>2021-02-18T11:46:12Z</time><name>PT3970</name></trkpt>
<trkpt lat="53.460966" lon="05.851797"><ele>14.6</ele><time>2021-02-18T11:46:14Z</time><name>PT3971</name></trkpt>
<trkpt lat="53.460965" lon="05.851817"><ele>14.5</ele><time>2021-02-18T11:46:14Z</time><name>PT3972</name></trkpt>
<trkpt lat="53.460965" lon="05.851835"><ele>14.7</ele><time>2021-02-18T11:46:15Z</time><name>PT3973</name></trkpt>
<trkpt lat="53.460965" lon="05.851855"><ele>14.9</ele><time>2021-02-18T11:46:17Z</time><name>PT3974</name></trkpt>
<trkpt lat="53.460963" lon="05.851875"><ele>14.9</ele><time>2021-02-18T11:46:17Z</time><name>PT3975</name></trkpt>
<trkpt lat="53.460964" lon="05.851893"><ele>14.7</ele><time>2021-02-18T11:46:18Z</time><name>PT3976</name></trkpt>
<trkpt lat="53.460964" lon="05.851911"><ele>14.7</ele><time>2021-02-18T11:46:20Z</time><name>PT3977</name></trkpt>
<trkpt lat="53.460966" lon="05.851930"><ele>14.6</ele><time>2021-02-18T11:46:20Z</time><name>PT3978</name></trkpt>
<trkpt lat="53.460967" lon="05.851949"><ele>14.6</ele><time>2021-02-18T11:46:21Z</time><name>PT3979</name></trkpt>
<trkpt lat="53.460968" lon="05.851967"><ele>14.5</ele><time>2021-02-18T11:46:23Z</time><name>PT3980</name></trkpt>
<trkpt lat="53.460966" lon="05.851987"><ele>14.2</ele><time>2021-02-18T11:46:23Z</time><name>PT3981</name></trkpt>
<trkpt lat="53.460965" lon="05.852007"><ele>14.1</ele><time>2021-02-18T11:46:24Z</time><name>PT3982</name></trkpt>
<trkpt lat="53.460963" lon="05.852029"><ele>14.2</ele><time>2021-02-18T11:46:26Z</time><name>PT3983</name></trkpt>
<trkpt lat="53.460961" lon="05.852050"><ele>14.3</ele><time>2021-02-18T11:46:26Z</time><name>PT3984</name></trkpt>
<trkpt lat="53.460958" lon="05.852069"><ele>14.5</ele><time>2021-02-18T11:46:27Z</time><name>PT3985</name></trkpt>
<trkpt lat="53.460957" lon="05.852088"><ele>14.8</ele><time>2021-02-18T11:46:29Z</time><name>PT3986</name></trkpt>
<trkpt lat="53.460956" lon="05.852109"><ele>14.8</ele><time>2021-02-18T11:46:29Z</time><name>PT3987</name></trkpt>
<trkpt lat="53.460955" lon="05.852128"><ele>14.9</ele><time>2021-02-18T11:46:30Z</time><name>PT3988</name></trkpt>
<trkpt lat="53.460954" lon="05.852148"><ele>15</ele><time>2021-02-18T11:46:32Z</time><name>PT3989</name></trkpt>
<trkpt lat="53.460954" lon="05.852167"><ele>15.1</ele><time>2021-02-18T11:46:32Z</time><name>PT3990</name></trkpt>
<trkpt lat="53.460955" lon="05.852192"><ele>15</ele><time>2021-02-18T11:46:33Z</time><name>PT3991</name></trkpt>
<trkpt lat="53.460957" lon="05.852216"><ele>14.8</ele><time>2021-02-18T11:46:35Z</time><name>PT3992</name></trkpt>
<trkpt lat="53.460958" lon="05.852236"><ele>14.6</ele><time>2021-02-18T11:46:35Z</time><name>PT3993</name></trkpt>
<trkpt lat="53.460958" lon="05.852253"><ele>14.5</ele><time>2021-02-18T11:46:36Z</time><name>PT3994</name></trkpt>
<trkpt lat="53.460958" lon="05.852273"><ele>14.4</ele><time>2021-02-18T11:46:38Z</time><name>PT3995</name></trkpt>
<trkpt lat="53.460957" lon="05.852288"><ele>14.6</ele><time>2021-02-18T11:46:38Z</time><name>PT3996</name></trkpt>
<trkpt lat="53.460956" lon="05.852303"><ele>14.5</ele><time>2021-02-18T11:46:39Z</time><name>PT3997</name></trkpt>
<trkpt lat="53.460954" lon="05.852319"><ele>14.5</ele><time>2021-02-18T11:46:41Z</time><name>PT3998</name></trkpt>
<trkpt lat="53.460952" lon="05.852337"><ele>14.6</ele><time>2021-02-18T11:46:41Z</time><name>PT3999</name></trkpt>
<trkpt lat="53.460952" lon="05.852356"><ele>14.6</ele><time>2021-02-18T11:46:42Z</time><name>PT4000</name></trkpt>
<trkpt lat="53.460954" lon="05.852375"><ele>14.8</ele><time>2021-02-18T11:46:44Z</time><name>PT4001</name></trkpt>
<trkpt lat="53.460953" lon="05.852392"><ele>14.8</ele><time>2021-02-18T11:46:44Z</time><name>PT4002</name></trkpt>
<trkpt lat="53.460953" lon="05.852409"><ele>14.9</ele><time>2021-02-18T11:46:45Z</time><name>PT4003</name></trkpt>
<trkpt lat="53.460952" lon="05.852425"><ele>14.8</ele><time>2021-02-18T11:46:47Z</time><name>PT4004</name></trkpt>
<trkpt lat="53.460952" lon="05.852443"><ele>14.6</ele><time>2021-02-18T11:46:47Z</time><name>PT4005</name></trkpt>
<trkpt lat="53.460952" lon="05.852462"><ele>14.6</ele><time>2021-02-18T11:46:48Z</time><name>PT4006</name></trkpt>
<trkpt lat="53.460951" lon="05.852482"><ele>14.7</ele><time>2021-02-18T11:46:50Z</time><name>PT4007</name></trkpt>
<trkpt lat="53.460952" lon="05.852501"><ele>14.7</ele><time>2021-02-18T11:46:50Z</time><name>PT4008</name></trkpt>
<trkpt lat="53.460952" lon="05.852518"><ele>15</ele><time>2021-02-18T11:46:51Z</time><name>PT4009</name></trkpt>
<trkpt lat="53.460952" lon="05.852536"><ele>15.1</ele><time>2021-02-18T11:46:53Z</time><name>PT4010</name></trkpt>
<trkpt lat="53.460953" lon="05.852554"><ele>14.9</ele><time>2021-02-18T11:46:53Z</time><name>PT4011</name></trkpt>
<trkpt lat="53.460953" lon="05.852570"><ele>15.1</ele><time>2021-02-18T11:46:54Z</time><name>PT4012</name></trkpt>
<trkpt lat="53.460955" lon="05.852586"><ele>15.1</ele><time>2021-02-18T11:46:56Z</time><name>PT4013</name></trkpt>
<trkpt lat="53.460954" lon="05.852600"><ele>15.1</ele><time>2021-02-18T11:46:56Z</time><name>PT4014</name></trkpt>
<trkpt lat="53.460953" lon="05.852617"><ele>15.2</ele><time>2021-02-18T11:46:57Z</time><name>PT4015</name></trkpt>
<trkpt lat="53.460952" lon="05.852634"><ele>15.1</ele><time>2021-02-18T11:46:59Z</time><name>PT4016</name></trkpt>
<trkpt lat="53.460952" lon="05.852651"><ele>15</ele><time>2021-02-18T11:46:59Z</time><name>PT4017</name></trkpt>
<trkpt lat="53.460951" lon="05.852668"><ele>15.1</ele><time>2021-02-18T11:47:00Z</time><name>PT4018</name></trkpt>
<trkpt lat="53.460951" lon="05.852688"><ele>15</ele><time>2021-02-18T11:47:02Z</time><name>PT4019</name></trkpt>
<trkpt lat="53.460950" lon="05.852707"><ele>15.1</ele><time>2021-02-18T11:47:02Z</time><name>PT4020</name></trkpt>
<trkpt lat="53.460949" lon="05.852726"><ele>15.1</ele><time>2021-02-18T11:47:03Z</time><name>PT4021</name></trkpt>
<trkpt lat="53.460949" lon="05.852745"><ele>15.1</ele><time>2021-02-18T11:47:05Z</time><name>PT4022</name></trkpt>
<trkpt lat="53.460947" lon="05.852764"><ele>14.9</ele><time>2021-02-18T11:47:05Z</time><name>PT4023</name></trkpt>
<trkpt lat="53.460946" lon="05.852783"><ele>14.6</ele><time>2021-02-18T11:47:06Z</time><name>PT4024</name></trkpt>
<trkpt lat="53.460946" lon="05.852803"><ele>14.6</ele><time>2021-02-18T11:47:08Z</time><name>PT4025</name></trkpt>
<trkpt lat="53.460944" lon="05.852822"><ele>14.6</ele><time>2021-02-18T11:47:08Z</time><name>PT4026</name></trkpt>
<trkpt lat="53.460944" lon="05.852842"><ele>14.6</ele><time>2021-02-18T11:47:09Z</time><name>PT4027</name></trkpt>
<trkpt lat="53.460944" lon="05.852860"><ele>14.7</ele><time>2021-02-18T11:47:11Z</time><name>PT4028</name></trkpt>
<trkpt lat="53.460945" lon="05.852875"><ele>14.8</ele><time>2021-02-18T11:47:11Z</time><name>PT4029</name></trkpt>
<trkpt lat="53.460945" lon="05.852892"><ele>14.9</ele><time>2021-02-18T11:47:12Z</time><name>PT4030</name></trkpt>
<trkpt lat="53.460946" lon="05.852908"><ele>15</ele><time>2021-02-18T11:47:14Z</time><name>PT4031</name></trkpt>
<trkpt lat="53.460946" lon="05.852927"><ele>15</ele><time>2021-02-18T11:47:14Z</time><name>PT4032</name></trkpt>
<trkpt lat="53.460947" lon="05.852942"><ele>14.9</ele><time>2021-02-18T11:47:15Z</time><name>PT4033</name></trkpt>
<trkpt lat="53.460947" lon="05.852958"><ele>15</ele><time>2021-02-18T11:47:17Z</time><name>PT4034</name></trkpt>
<trkpt lat="53.460946" lon="05.852975"><ele>14.8</ele><time>2021-02-18T11:47:17Z</time><name>PT4035</name></trkpt>
<trkpt lat="53.460944" lon="05.852992"><ele>14.9</ele><time>2021-02-18T11:47:18Z</time><name>PT4036</name></trkpt>
<trkpt lat="53.460941" lon="05.853006"><ele>14.9</ele><time>2021-02-18T11:47:20Z</time><name>PT4037</name></trkpt>
<trkpt lat="53.460940" lon="05.853025"><ele>15</ele><time>2021-02-18T11:47:20Z</time><name>PT4038</name></trkpt>
<trkpt lat="53.460941" lon="05.853043"><ele>15.2</ele><time>2021-02-18T11:47:21Z</time><name>PT4039</name></trkpt>
<trkpt lat="53.460940" lon="05.853057"><ele>15.3</ele><time>2021-02-18T11:47:23Z</time><name>PT4040</name></trkpt>
<trkpt lat="53.460940" lon="05.853072"><ele>15.3</ele><time>2021-02-18T11:47:23Z</time><name>PT4041</name></trkpt>
<trkpt lat="53.460941" lon="05.853090"><ele>15.2</ele><time>2021-02-18T11:47:24Z</time><name>PT4042</name></trkpt>
<trkpt lat="53.460940" lon="05.853109"><ele>15</ele><time>2021-02-18T11:47:26Z</time><name>PT4043</name></trkpt>
<trkpt lat="53.460940" lon="05.853127"><ele>15.1</ele><time>2021-02-18T11:47:26Z</time><name>PT4044</name></trkpt>
<trkpt lat="53.460941" lon="05.853145"><ele>15.1</ele><time>2021-02-18T11:47:27Z</time><name>PT4045</name></trkpt>
<trkpt lat="53.460941" lon="05.853161"><ele>15.2</ele><time>2021-02-18T11:47:29Z</time><name>PT4046</name></trkpt>
<trkpt lat="53.460941" lon="05.853178"><ele>15.1</ele><time>2021-02-18T11:47:29Z</time><name>PT4047</name></trkpt>
<trkpt lat="53.460942" lon="05.853197"><ele>15.1</ele><time>2021-02-18T11:47:30Z</time><name>PT4048</name></trkpt>
<trkpt lat="53.460944" lon="05.853215"><ele>15.1</ele><time>2021-02-18T11:47:32Z</time><name>PT4049</name></trkpt>
<trkpt lat="53.460946" lon="05.853233"><ele>14.9</ele><time>2021-02-18T11:47:32Z</time><name>PT4050</name></trkpt>
<trkpt lat="53.460947" lon="05.853247"><ele>15.1</ele><time>2021-02-18T11:47:33Z</time><name>PT4051</name></trkpt>
<trkpt lat="53.460946" lon="05.853261"><ele>15.1</ele><time>2021-02-18T11:47:35Z</time><name>PT4052</name></trkpt>
<trkpt lat="53.460946" lon="05.853279"><ele>15.1</ele><time>2021-02-18T11:47:35Z</time><name>PT4053</name></trkpt>
<trkpt lat="53.460946" lon="05.853297"><ele>15</ele><time>2021-02-18T11:47:36Z</time><name>PT4054</name></trkpt>
<trkpt lat="53.460947" lon="05.853315"><ele>15</ele><time>2021-02-18T11:47:38Z</time><name>PT4055</name></trkpt>
<trkpt lat="53.460946" lon="05.853334"><ele>15.1</ele><time>2021-02-18T11:47:38Z</time><name>PT4056</name></trkpt>
<trkpt lat="53.460945" lon="05.853354"><ele>15.2</ele><time>2021-02-18T11:47:39Z</time><name>PT4057</name></trkpt>
<trkpt lat="53.460943" lon="05.853376"><ele>15.5</ele><time>2021-02-18T11:47:41Z</time><name>PT4058</name></trkpt>
<trkpt lat="53.460943" lon="05.853397"><ele>15.4</ele><time>2021-02-18T11:47:41Z</time><name>PT4059</name></trkpt>
<trkpt lat="53.460942" lon="05.853413"><ele>15.1</ele><time>2021-02-18T11:47:42Z</time><name>PT4060</name></trkpt>
<trkpt lat="53.460941" lon="05.853429"><ele>15.1</ele><time>2021-02-18T11:47:44Z</time><name>PT4061</name></trkpt>
<trkpt lat="53.460941" lon="05.853447"><ele>14.8</ele><time>2021-02-18T11:47:44Z</time><name>PT4062</name></trkpt>
<trkpt lat="53.460941" lon="05.853465"><ele>14.8</ele><time>2021-02-18T11:47:45Z</time><name>PT4063</name></trkpt>
<trkpt lat="53.460940" lon="05.853481"><ele>15</ele><time>2021-02-18T11:47:47Z</time><name>PT4064</name></trkpt>
<trkpt lat="53.460940" lon="05.853502"><ele>14.9</ele><time>2021-02-18T11:47:47Z</time><name>PT4065</name></trkpt>
<trkpt lat="53.460940" lon="05.853520"><ele>15</ele><time>2021-02-18T11:47:48Z</time><name>PT4066</name></trkpt>
<trkpt lat="53.460943" lon="05.853537"><ele>15</ele><time>2021-02-18T11:47:50Z</time><name>PT4067</name></trkpt>
<trkpt lat="53.460942" lon="05.853553"><ele>15</ele><time>2021-02-18T11:47:50Z</time><name>PT4068</name></trkpt>
<trkpt lat="53.460940" lon="05.853571"><ele>15.1</ele><time>2021-02-18T11:47:51Z</time><name>PT4069</name></trkpt>
<trkpt lat="53.460938" lon="05.853588"><ele>15.1</ele><time>2021-02-18T11:47:53Z</time><name>PT4070</name></trkpt>
<trkpt lat="53.460937" lon="05.853603"><ele>14.9</ele><time>2021-02-18T11:47:53Z</time><name>PT4071</name></trkpt>
<trkpt lat="53.460936" lon="05.853620"><ele>14.9</ele><time>2021-02-18T11:47:54Z</time><name>PT4072</name></trkpt>
<trkpt lat="53.460935" lon="05.853635"><ele>14.9</ele><time>2021-02-18T11:47:56Z</time><name>PT4073</name></trkpt>
<trkpt lat="53.460933" lon="05.853650"><ele>15</ele><time>2021-02-18T11:47:56Z</time><name>PT4074</name></trkpt>
<trkpt lat="53.460932" lon="05.853669"><ele>15.1</ele><time>2021-02-18T11:47:57Z</time><name>PT4075</name></trkpt>
<trkpt lat="53.460932" lon="05.853689"><ele>15.1</ele><time>2021-02-18T11:47:59Z</time><name>PT4076</name></trkpt>
<trkpt lat="53.460934" lon="05.853706"><ele>15.3</ele><time>2021-02-18T11:47:59Z</time><name>PT4077</name></trkpt>
<trkpt lat="53.460934" lon="05.853724"><ele>15.5</ele><time>2021-02-18T11:48:00Z</time><name>PT4078</name></trkpt>
<trkpt lat="53.460935" lon="05.853740"><ele>15.7</ele><time>2021-02-18T11:48:02Z</time><name>PT4079</name></trkpt>
<trkpt lat="53.460935" lon="05.853756"><ele>15.7</ele><time>2021-02-18T11:48:02Z</time><name>PT4080</name></trkpt>
<trkpt lat="53.460934" lon="05.853773"><ele>15.6</ele><time>2021-02-18T11:48:03Z</time><name>PT4081</name></trkpt>
<trkpt lat="53.460934" lon="05.853790"><ele>15.3</ele><time>2021-02-18T11:48:05Z</time><name>PT4082</name></trkpt>
<trkpt lat="53.460933" lon="05.853807"><ele>15.1</ele><time>2021-02-18T11:48:05Z</time><name>PT4083</name></trkpt>
<trkpt lat="53.460932" lon="05.853826"><ele>15.3</ele><time>2021-02-18T11:48:06Z</time><name>PT4084</name></trkpt>
<trkpt lat="53.460931" lon="05.853846"><ele>15.6</ele><time>2021-02-18T11:48:08Z</time><name>PT4085</name></trkpt>
<trkpt lat="53.460929" lon="05.853865"><ele>15.6</ele><time>2021-02-18T11:48:08Z</time><name>PT4086</name></trkpt>
<trkpt lat="53.460927" lon="05.853883"><ele>15.7</ele><time>2021-02-18T11:48:09Z</time><name>PT4087</name></trkpt>
<trkpt lat="53.460926" lon="05.853903"><ele>15.7</ele><time>2021-02-18T11:48:11Z</time><name>PT4088</name></trkpt>
<trkpt lat="53.460925" lon="05.853922"><ele>15.5</ele><time>2021-02-18T11:48:11Z</time><name>PT4089</name></trkpt>
<trkpt lat="53.460924" lon="05.853941"><ele>15.2</ele><time>2021-02-18T11:48:12Z</time><name>PT4090</name></trkpt>
<trkpt lat="53.460923" lon="05.853962"><ele>15.1</ele><time>2021-02-18T11:48:14Z</time><name>PT4091</name></trkpt>
<trkpt lat="53.460922" lon="05.853981"><ele>14.8</ele><time>2021-02-18T11:48:14Z</time><name>PT4092</name></trkpt>
<trkpt lat="53.460922" lon="05.854000"><ele>14.8</ele><time>2021-02-18T11:48:15Z</time><name>PT4093</name></trkpt>
<trkpt lat="53.460923" lon="05.854019"><ele>14.8</ele><time>2021-02-18T11:48:17Z</time><name>PT4094</name></trkpt>
<trkpt lat="53.460923" lon="05.854039"><ele>14.9</ele><time>2021-02-18T11:48:17Z</time><name>PT4095</name></trkpt>
<trkpt lat="53.460922" lon="05.854059"><ele>15.1</ele><time>2021-02-18T11:48:18Z</time><name>PT4096</name></trkpt>
<trkpt lat="53.460921" lon="05.854081"><ele>15.1</ele><time>2021-02-18T11:48:20Z</time><name>PT4097</name></trkpt>
<trkpt lat="53.460920" lon="05.854101"><ele>15</ele><time>2021-02-18T11:48:20Z</time><name>PT4098</name></trkpt>
<trkpt lat="53.460920" lon="05.854122"><ele>15</ele><time>2021-02-18T11:48:21Z</time><name>PT4099</name></trkpt>
<trkpt lat="53.460920" lon="05.854141"><ele>15</ele><time>2021-02-18T11:48:23Z</time><name>PT4100</name></trkpt>
<trkpt lat="53.460921" lon="05.854162"><ele>15.1</ele><time>2021-02-18T11:48:23Z</time><name>PT4101</name></trkpt>
<trkpt lat="53.460921" lon="05.854181"><ele>15.2</ele><time>2021-02-18T11:48:24Z</time><name>PT4102</name></trkpt>
<trkpt lat="53.460921" lon="05.854201"><ele>15.3</ele><time>2021-02-18T11:48:26Z</time><name>PT4103</name></trkpt>
<trkpt lat="53.460921" lon="05.854223"><ele>15.3</ele><time>2021-02-18T11:48:26Z</time><name>PT4104</name></trkpt>
<trkpt lat="53.460922" lon="05.854247"><ele>15.3</ele><time>2021-02-18T11:48:27Z</time><name>PT4105</name></trkpt>
<trkpt lat="53.460921" lon="05.854270"><ele>15.2</ele><time>2021-02-18T11:48:29Z</time><name>PT4106</name></trkpt>
<trkpt lat="53.460920" lon="05.854291"><ele>15.1</ele><time>2021-02-18T11:48:29Z</time><name>PT4107</name></trkpt>
<trkpt lat="53.460920" lon="05.854309"><ele>15</ele><time>2021-02-18T11:48:30Z</time><name>PT4108</name></trkpt>
<trkpt lat="53.460919" lon="05.854324"><ele>15.4</ele><time>2021-02-18T11:48:32Z</time><name>PT4109</name></trkpt>
<trkpt lat="53.460920" lon="05.854342"><ele>15.5</ele><time>2021-02-18T11:48:32Z</time><name>PT4110</name></trkpt>
<trkpt lat="53.460919" lon="05.854360"><ele>15.6</ele><time>2021-02-18T11:48:33Z</time><name>PT4111</name></trkpt>
<trkpt lat="53.460919" lon="05.854376"><ele>16</ele><time>2021-02-18T11:48:35Z</time><name>PT4112</name></trkpt>
<trkpt lat="53.460918" lon="05.854392"><ele>15.9</ele><time>2021-02-18T11:48:35Z</time><name>PT4113</name></trkpt>
<trkpt lat="53.460918" lon="05.854409"><ele>16</ele><time>2021-02-18T11:48:36Z</time><name>PT4114</name></trkpt>
<trkpt lat="53.460916" lon="05.854426"><ele>15.7</ele><time>2021-02-18T11:48:38Z</time><name>PT4115</name></trkpt>
<trkpt lat="53.460915" lon="05.854444"><ele>15.7</ele><time>2021-02-18T11:48:38Z</time><name>PT4116</name></trkpt>
<trkpt lat="53.460914" lon="05.854461"><ele>15.6</ele><time>2021-02-18T11:48:39Z</time><name>PT4117</name></trkpt>
<trkpt lat="53.460913" lon="05.854479"><ele>15.4</ele><time>2021-02-18T11:48:41Z</time><name>PT4118</name></trkpt>
<trkpt lat="53.460912" lon="05.854498"><ele>15.2</ele><time>2021-02-18T11:48:41Z</time><name>PT4119</name></trkpt>
<trkpt lat="53.460912" lon="05.854517"><ele>15.1</ele><time>2021-02-18T11:48:42Z</time><name>PT4120</name></trkpt>
<trkpt lat="53.460913" lon="05.854536"><ele>15.2</ele><time>2021-02-18T11:48:44Z</time><name>PT4121</name></trkpt>
<trkpt lat="53.460913" lon="05.854553"><ele>15.3</ele><time>2021-02-18T11:48:44Z</time><name>PT4122</name></trkpt>
<trkpt lat="53.460913" lon="05.854572"><ele>15.5</ele><time>2021-02-18T11:48:45Z</time><name>PT4123</name></trkpt>
<trkpt lat="53.460913" lon="05.854591"><ele>15.6</ele><time>2021-02-18T11:48:47Z</time><name>PT4124</name></trkpt>
<trkpt lat="53.460915" lon="05.854609"><ele>15.5</ele><time>2021-02-18T11:48:47Z</time><name>PT4125</name></trkpt>
<trkpt lat="53.460916" lon="05.854627"><ele>15.6</ele><time>2021-02-18T11:48:48Z</time><name>PT4126</name></trkpt>
<trkpt lat="53.460916" lon="05.854643"><ele>15.3</ele><time>2021-02-18T11:48:50Z</time><name>PT4127</name></trkpt>
<trkpt lat="53.460916" lon="05.854659"><ele>15.2</ele><time>2021-02-18T11:48:50Z</time><name>PT4128</name></trkpt>
<trkpt lat="53.460917" lon="05.854676"><ele>15.3</ele><time>2021-02-18T11:48:51Z</time><name>PT4129</name></trkpt>
<trkpt lat="53.460916" lon="05.854692"><ele>15.3</ele><time>2021-02-18T11:48:53Z</time><name>PT4130</name></trkpt>
<trkpt lat="53.460913" lon="05.854700"><ele>15.1</ele><time>2021-02-18T11:48:53Z</time><name>PT4131</name></trkpt>
<trkpt lat="53.460912" lon="05.854702"><ele>14.7</ele><time>2021-02-18T11:48:54Z</time><name>PT4132</name></trkpt>
<trkpt lat="53.460911" lon="05.854704"><ele>14.3</ele><time>2021-02-18T11:48:56Z</time><name>PT4133</name></trkpt>
<trkpt lat="53.460909" lon="05.854708"><ele>14.1</ele><time>2021-02-18T11:48:56Z</time><name>PT4134</name></trkpt>
<trkpt lat="53.460910" lon="05.854719"><ele>14.5</ele><time>2021-02-18T11:48:57Z</time><name>PT4135</name></trkpt>
<trkpt lat="53.460909" lon="05.854734"><ele>14.8</ele><time>2021-02-18T11:48:59Z</time><name>PT4136</name></trkpt>
<trkpt lat="53.460908" lon="05.854749"><ele>14.8</ele><time>2021-02-18T11:48:59Z</time><name>PT4137</name></trkpt>
<trkpt lat="53.460907" lon="05.854764"><ele>15.1</ele><time>2021-02-18T11:49:00Z</time><name>PT4138</name></trkpt>
<trkpt lat="53.460905" lon="05.854779"><ele>14.8</ele><time>2021-02-18T11:49:02Z</time><name>PT4139</name></trkpt>
<trkpt lat="53.460902" lon="05.854793"><ele>14.8</ele><time>2021-02-18T11:49:02Z</time><name>PT4140</name></trkpt>
<trkpt lat="53.460901" lon="05.854807"><ele>14.8</ele><time>2021-02-18T11:49:03Z</time><name>PT4141</name></trkpt>
<trkpt lat="53.460901" lon="05.854822"><ele>14.7</ele><time>2021-02-18T11:49:05Z</time><name>PT4142</name></trkpt>
<trkpt lat="53.460901" lon="05.854835"><ele>14.7</ele><time>2021-02-18T11:49:05Z</time><name>PT4143</name></trkpt>
<trkpt lat="53.460903" lon="05.854847"><ele>14.5</ele><time>2021-02-18T11:49:06Z</time><name>PT4144</name></trkpt>
<trkpt lat="53.460901" lon="05.854865"><ele>14.1</ele><time>2021-02-18T11:49:08Z</time><name>PT4145</name></trkpt>
<trkpt lat="53.460898" lon="05.854884"><ele>14.1</ele><time>2021-02-18T11:49:08Z</time><name>PT4146</name></trkpt>
<trkpt lat="53.460897" lon="05.854903"><ele>14</ele><time>2021-02-18T11:49:09Z</time><name>PT4147</name></trkpt>
<trkpt lat="53.460896" lon="05.854924"><ele>14.5</ele><time>2021-02-18T11:49:11Z</time><name>PT4148</name></trkpt>
<trkpt lat="53.460895" lon="05.854943"><ele>14.7</ele><time>2021-02-18T11:49:11Z</time><name>PT4149</name></trkpt>
<trkpt lat="53.460893" lon="05.854962"><ele>15.1</ele><time>2021-02-18T11:49:12Z</time><name>PT4150</name></trkpt>
<trkpt lat="53.460892" lon="05.854981"><ele>15.5</ele><time>2021-02-18T11:49:14Z</time><name>PT4151</name></trkpt>
<trkpt lat="53.460893" lon="05.854999"><ele>15.2</ele><time>2021-02-18T11:49:14Z</time><name>PT4152</name></trkpt>
<trkpt lat="53.460893" lon="05.855015"><ele>15.2</ele><time>2021-02-18T11:49:15Z</time><name>PT4153</name></trkpt>
<trkpt lat="53.460892" lon="05.855029"><ele>15.1</ele><time>2021-02-18T11:49:17Z</time><name>PT4154</name></trkpt>
<trkpt lat="53.460891" lon="05.855046"><ele>14.9</ele><time>2021-02-18T11:49:17Z</time><name>PT4155</name></trkpt>
<trkpt lat="53.460886" lon="05.855058"><ele>15.1</ele><time>2021-02-18T11:49:18Z</time><name>PT4156</name></trkpt>
<trkpt lat="53.460882" lon="05.855072"><ele>15.1</ele><time>2021-02-18T11:49:20Z</time><name>PT4157</name></trkpt>
<trkpt lat="53.460881" lon="05.855086"><ele>15.1</ele><time>2021-02-18T11:49:20Z</time><name>PT4158</name></trkpt>
<trkpt lat="53.460880" lon="05.855103"><ele>15.2</ele><time>2021-02-18T11:49:21Z</time><name>PT4159</name></trkpt>
<trkpt lat="53.460880" lon="05.855124"><ele>15.2</ele><time>2021-02-18T11:49:23Z</time><name>PT4160</name></trkpt>
<trkpt lat="53.460880" lon="05.855144"><ele>15.2</ele><time>2021-02-18T11:49:23Z</time><name>PT4161</name></trkpt>
<trkpt lat="53.460879" lon="05.855163"><ele>15.4</ele><time>2021-02-18T11:49:24Z</time><name>PT4162</name></trkpt>
<trkpt lat="53.460879" lon="05.855180"><ele>15.6</ele><time>2021-02-18T11:49:26Z</time><name>PT4163</name></trkpt>
<trkpt lat="53.460879" lon="05.855197"><ele>15.6</ele><time>2021-02-18T11:49:26Z</time><name>PT4164</name></trkpt>
<trkpt lat="53.460878" lon="05.855216"><ele>15.8</ele><time>2021-02-18T11:49:27Z</time><name>PT4165</name></trkpt>
<trkpt lat="53.460876" lon="05.855234"><ele>15.6</ele><time>2021-02-18T11:49:29Z</time><name>PT4166</name></trkpt>
<trkpt lat="53.460875" lon="05.855254"><ele>15.4</ele><time>2021-02-18T11:49:29Z</time><name>PT4167</name></trkpt>
<trkpt lat="53.460874" lon="05.855273"><ele>15.2</ele><time>2021-02-18T11:49:30Z</time><name>PT4168</name></trkpt>
<trkpt lat="53.460875" lon="05.855290"><ele>14.9</ele><time>2021-02-18T11:49:32Z</time><name>PT4169</name></trkpt>
<trkpt lat="53.460875" lon="05.855308"><ele>14.9</ele><time>2021-02-18T11:49:32Z</time><name>PT4170</name></trkpt>
<trkpt lat="53.460874" lon="05.855327"><ele>15.1</ele><time>2021-02-18T11:49:33Z</time><name>PT4171</name></trkpt>
<trkpt lat="53.460874" lon="05.855347"><ele>15.1</ele><time>2021-02-18T11:49:35Z</time><name>PT4172</name></trkpt>
<trkpt lat="53.460874" lon="05.855365"><ele>15.3</ele><time>2021-02-18T11:49:35Z</time><name>PT4173</name></trkpt>
<trkpt lat="53.460874" lon="05.855383"><ele>15.5</ele><time>2021-02-18T11:49:36Z</time><name>PT4174</name></trkpt>
<trkpt lat="53.460875" lon="05.855400"><ele>15.6</ele><time>2021-02-18T11:49:38Z</time><name>PT4175</name></trkpt>
<trkpt lat="53.460876" lon="05.855416"><ele>15.6</ele><time>2021-02-18T11:49:38Z</time><name>PT4176</name></trkpt>
<trkpt lat="53.460875" lon="05.855432"><ele>15.6</ele><time>2021-02-18T11:49:39Z</time><name>PT4177</name></trkpt>
<trkpt lat="53.460870" lon="05.855444"><ele>15.5</ele><time>2021-02-18T11:49:41Z</time><name>PT4178</name></trkpt>
<trkpt lat="53.460872" lon="05.855459"><ele>15.4</ele><time>2021-02-18T11:49:41Z</time><name>PT4179</name></trkpt>
<trkpt lat="53.460873" lon="05.855477"><ele>15.3</ele><time>2021-02-18T11:49:42Z</time><name>PT4180</name></trkpt>
<trkpt lat="53.460873" lon="05.855497"><ele>15.3</ele><time>2021-02-18T11:49:44Z</time><name>PT4181</name></trkpt>
<trkpt lat="53.460873" lon="05.855514"><ele>15.4</ele><time>2021-02-18T11:49:44Z</time><name>PT4182</name></trkpt>
<trkpt lat="53.460873" lon="05.855533"><ele>15.3</ele><time>2021-02-18T11:49:45Z</time><name>PT4183</name></trkpt>
<trkpt lat="53.460874" lon="05.855550"><ele>15.5</ele><time>2021-02-18T11:49:47Z</time><name>PT4184</name></trkpt>
<trkpt lat="53.460876" lon="05.855567"><ele>15.6</ele><time>2021-02-18T11:49:47Z</time><name>PT4185</name></trkpt>
<trkpt lat="53.460875" lon="05.855583"><ele>15.4</ele><time>2021-02-18T11:49:48Z</time><name>PT4186</name></trkpt>
<trkpt lat="53.460873" lon="05.855599"><ele>15.5</ele><time>2021-02-18T11:49:50Z</time><name>PT4187</name></trkpt>
<trkpt lat="53.460873" lon="05.855617"><ele>15.6</ele><time>2021-02-18T11:49:50Z</time><name>PT4188</name></trkpt>
<trkpt lat="53.460872" lon="05.855630"><ele>15.5</ele><time>2021-02-18T11:49:51Z</time><name>PT4189</name></trkpt>
<trkpt lat="53.460872" lon="05.855636"><ele>15.6</ele><time>2021-02-18T11:49:53Z</time><name>PT4190</name></trkpt>
<trkpt lat="53.460871" lon="05.855644"><ele>15.5</ele><time>2021-02-18T11:49:53Z</time><name>PT4191</name></trkpt>
<trkpt lat="53.460872" lon="05.855642"><ele>15.4</ele><time>2021-02-18T11:49:54Z</time><name>PT4192</name></trkpt>
<trkpt lat="53.460873" lon="05.855643"><ele>15.4</ele><time>2021-02-18T11:49:56Z</time><name>PT4193</name></trkpt>
<trkpt lat="53.460874" lon="05.855646"><ele>15.2</ele><time>2021-02-18T11:49:56Z</time><name>PT4194</name></trkpt>
<trkpt lat="53.460875" lon="05.855651"><ele>14.7</ele><time>2021-02-18T11:50:02Z</time><name>PT4195</name></trkpt>
<trkpt lat="53.460876" lon="05.855657"><ele>15.1</ele><time>2021-02-18T11:50:02Z</time><name>PT4196</name></trkpt>
<trkpt lat="53.460877" lon="05.855673"><ele>15.6</ele><time>2021-02-18T11:50:03Z</time><name>PT4197</name></trkpt>
<trkpt lat="53.460879" lon="05.855691"><ele>16</ele><time>2021-02-18T11:50:05Z</time><name>PT4198</name></trkpt>
<trkpt lat="53.460879" lon="05.855711"><ele>16</ele><time>2021-02-18T11:50:05Z</time><name>PT4199</name></trkpt>
<trkpt lat="53.460880" lon="05.855725"><ele>16</ele><time>2021-02-18T11:50:06Z</time><name>PT4200</name></trkpt>
<trkpt lat="53.460881" lon="05.855741"><ele>15.9</ele><time>2021-02-18T11:50:08Z</time><name>PT4201</name></trkpt>
<trkpt lat="53.460879" lon="05.855756"><ele>15.8</ele><time>2021-02-18T11:50:08Z</time><name>PT4202</name></trkpt>
<trkpt lat="53.460880" lon="05.855773"><ele>15.8</ele><time>2021-02-18T11:50:09Z</time><name>PT4203</name></trkpt>
<trkpt lat="53.460882" lon="05.855787"><ele>15.8</ele><time>2021-02-18T11:50:11Z</time><name>PT4204</name></trkpt>
<trkpt lat="53.460884" lon="05.855799"><ele>15.9</ele><time>2021-02-18T11:50:11Z</time><name>PT4205</name></trkpt>
<trkpt lat="53.460884" lon="05.855809"><ele>16</ele><time>2021-02-18T11:50:12Z</time><name>PT4206</name></trkpt>
<trkpt lat="53.460885" lon="05.855819"><ele>16.1</ele><time>2021-02-18T11:50:14Z</time><name>PT4207</name></trkpt>
<trkpt lat="53.460888" lon="05.855827"><ele>16.2</ele><time>2021-02-18T11:50:14Z</time><name>PT4208</name></trkpt>
<trkpt lat="53.460891" lon="05.855840"><ele>16</ele><time>2021-02-18T11:50:15Z</time><name>PT4209</name></trkpt>
<trkpt lat="53.460894" lon="05.855852"><ele>15.9</ele><time>2021-02-18T11:50:17Z</time><name>PT4210</name></trkpt>
<trkpt lat="53.460895" lon="05.855864"><ele>15.8</ele><time>2021-02-18T11:50:17Z</time><name>PT4211</name></trkpt>
<trkpt lat="53.460891" lon="05.855866"><ele>15.6</ele><time>2021-02-18T11:50:18Z</time><name>PT4212</name></trkpt>
<trkpt lat="53.460890" lon="05.855865"><ele>15.1</ele><time>2021-02-18T11:50:20Z</time><name>PT4213</name></trkpt>
<trkpt lat="53.460889" lon="05.855865"><ele>14.7</ele><time>2021-02-18T11:50:20Z</time><name>PT4214</name></trkpt>
<trkpt lat="53.460892" lon="05.855867"><ele>14.1</ele><time>2021-02-18T11:50:21Z</time><name>PT4215</name></trkpt>
<trkpt lat="53.460893" lon="05.855870"><ele>14.1</ele><time>2021-02-18T11:50:23Z</time><name>PT4216</name></trkpt>
<trkpt lat="53.460894" lon="05.855878"><ele>14.3</ele><time>2021-02-18T11:50:23Z</time><name>PT4217</name></trkpt>
<trkpt lat="53.460898" lon="05.855887"><ele>15</ele><time>2021-02-18T11:50:24Z</time><name>PT4218</name></trkpt>
<trkpt lat="53.460901" lon="05.855896"><ele>15.5</ele><time>2021-02-18T11:50:26Z</time><name>PT4219</name></trkpt>
<trkpt lat="53.460906" lon="05.855906"><ele>15.6</ele><time>2021-02-18T11:50:26Z</time><name>PT4220</name></trkpt>
<trkpt lat="53.460911" lon="05.855918"><ele>15.7</ele><time>2021-02-18T11:50:27Z</time><name>PT4221</name></trkpt>
<trkpt lat="53.460915" lon="05.855931"><ele>16.1</ele><time>2021-02-18T11:50:29Z</time><name>PT4222</name></trkpt>
<trkpt lat="53.460920" lon="05.855943"><ele>16.2</ele><time>2021-02-18T11:50:29Z</time><name>PT4223</name></trkpt>
<trkpt lat="53.460923" lon="05.855955"><ele>16.6</ele><time>2021-02-18T11:50:30Z</time><name>PT4224</name></trkpt>
<trkpt lat="53.460925" lon="05.855968"><ele>16.8</ele><time>2021-02-18T11:50:32Z</time><name>PT4225</name></trkpt>
<trkpt lat="53.460929" lon="05.855981"><ele>16.7</ele><time>2021-02-18T11:50:32Z</time><name>PT4226</name></trkpt>
<trkpt lat="53.460934" lon="05.855993"><ele>16.7</ele><time>2021-02-18T11:50:33Z</time><name>PT4227</name></trkpt>
<trkpt lat="53.460939" lon="05.856007"><ele>16.6</ele><time>2021-02-18T11:50:35Z</time><name>PT4228</name></trkpt>
<trkpt lat="53.460942" lon="05.856024"><ele>16.7</ele><time>2021-02-18T11:50:35Z</time><name>PT4229</name></trkpt>
<trkpt lat="53.460947" lon="05.856042"><ele>16.6</ele><time>2021-02-18T11:50:36Z</time><name>PT4230</name></trkpt>
<trkpt lat="53.460951" lon="05.856056"><ele>16.7</ele><time>2021-02-18T11:50:38Z</time><name>PT4231</name></trkpt>
<trkpt lat="53.460952" lon="05.856075"><ele>16.6</ele><time>2021-02-18T11:50:38Z</time><name>PT4232</name></trkpt>
<trkpt lat="53.460952" lon="05.856095"><ele>16.6</ele><time>2021-02-18T11:50:39Z</time><name>PT4233</name></trkpt>
<trkpt lat="53.460951" lon="05.856115"><ele>16.8</ele><time>2021-02-18T11:50:41Z</time><name>PT4234</name></trkpt>
<trkpt lat="53.460949" lon="05.856134"><ele>16.9</ele><time>2021-02-18T11:50:41Z</time><name>PT4235</name></trkpt>
<trkpt lat="53.460948" lon="05.856152"><ele>16.8</ele><time>2021-02-18T11:50:42Z</time><name>PT4236</name></trkpt>
<trkpt lat="53.460947" lon="05.856171"><ele>16.6</ele><time>2021-02-18T11:50:44Z</time><name>PT4237</name></trkpt>
<trkpt lat="53.460948" lon="05.856191"><ele>16.6</ele><time>2021-02-18T11:50:44Z</time><name>PT4238</name></trkpt>
<trkpt lat="53.460946" lon="05.856209"><ele>16.5</ele><time>2021-02-18T11:50:45Z</time><name>PT4239</name></trkpt>
<trkpt lat="53.460945" lon="05.856226"><ele>16.6</ele><time>2021-02-18T11:50:47Z</time><name>PT4240</name></trkpt>
<trkpt lat="53.460943" lon="05.856245"><ele>16.7</ele><time>2021-02-18T11:50:47Z</time><name>PT4241</name></trkpt>
<trkpt lat="53.460943" lon="05.856263"><ele>17.1</ele><time>2021-02-18T11:50:48Z</time><name>PT4242</name></trkpt>
<trkpt lat="53.460942" lon="05.856274"><ele>17.1</ele><time>2021-02-18T11:50:50Z</time><name>PT4243</name></trkpt>
<trkpt lat="53.460943" lon="05.856276"><ele>16.9</ele><time>2021-02-18T11:50:50Z</time><name>PT4244</name></trkpt>
<trkpt lat="53.460945" lon="05.856276"><ele>16.6</ele><time>2021-02-18T11:50:51Z</time><name>PT4245</name></trkpt>
<trkpt lat="53.460945" lon="05.856278"><ele>16.3</ele><time>2021-02-18T11:50:53Z</time><name>PT4246</name></trkpt>
<trkpt lat="53.460949" lon="05.856299"><ele>16.8</ele><time>2021-02-18T11:51:00Z</time><name>PT4247</name></trkpt>
<trkpt lat="53.460950" lon="05.856328"><ele>16.8</ele><time>2021-02-18T11:51:02Z</time><name>PT4248</name></trkpt>
<trkpt lat="53.460949" lon="05.856347"><ele>16.6</ele><time>2021-02-18T11:51:02Z</time><name>PT4249</name></trkpt>
<trkpt lat="53.460948" lon="05.856369"><ele>16.8</ele><time>2021-02-18T11:51:03Z</time><name>PT4250</name></trkpt>
<trkpt lat="53.460948" lon="05.856389"><ele>16.7</ele><time>2021-02-18T11:51:05Z</time><name>PT4251</name></trkpt>
<trkpt lat="53.460950" lon="05.856409"><ele>16.9</ele><time>2021-02-18T11:51:05Z</time><name>PT4252</name></trkpt>
<trkpt lat="53.460955" lon="05.856428"><ele>17.1</ele><time>2021-02-18T11:51:06Z</time><name>PT4253</name></trkpt>
<trkpt lat="53.460958" lon="05.856445"><ele>17.1</ele><time>2021-02-18T11:51:08Z</time><name>PT4254</name></trkpt>
<trkpt lat="53.460957" lon="05.856468"><ele>17.1</ele><time>2021-02-18T11:51:08Z</time><name>PT4255</name></trkpt>
<trkpt lat="53.460955" lon="05.856490"><ele>17</ele><time>2021-02-18T11:51:09Z</time><name>PT4256</name></trkpt>
<trkpt lat="53.460953" lon="05.856515"><ele>16.8</ele><time>2021-02-18T11:51:11Z</time><name>PT4257</name></trkpt>
<trkpt lat="53.460953" lon="05.856535"><ele>16.8</ele><time>2021-02-18T11:51:11Z</time><name>PT4258</name></trkpt>
<trkpt lat="53.460951" lon="05.856555"><ele>16.6</ele><time>2021-02-18T11:51:12Z</time><name>PT4259</name></trkpt>
<trkpt lat="53.460953" lon="05.856574"><ele>16.6</ele><time>2021-02-18T11:51:14Z</time><name>PT4260</name></trkpt>
<trkpt lat="53.460954" lon="05.856593"><ele>16.7</ele><time>2021-02-18T11:51:14Z</time><name>PT4261</name></trkpt>
<trkpt lat="53.460956" lon="05.856612"><ele>16.7</ele><time>2021-02-18T11:51:15Z</time><name>PT4262</name></trkpt>
<trkpt lat="53.460954" lon="05.856626"><ele>16.9</ele><time>2021-02-18T11:51:17Z</time><name>PT4263</name></trkpt>
<trkpt lat="53.460952" lon="05.856629"><ele>16.6</ele><time>2021-02-18T11:51:17Z</time><name>PT4264</name></trkpt>
<trkpt lat="53.460954" lon="05.856636"><ele>16.4</ele><time>2021-02-18T11:51:18Z</time><name>PT4265</name></trkpt>
<trkpt lat="53.460955" lon="05.856636"><ele>16.3</ele><time>2021-02-18T11:51:20Z</time><name>PT4266</name></trkpt>
<trkpt lat="53.460954" lon="05.856646"><ele>16.6</ele><time>2021-02-18T11:51:21Z</time><name>PT4267</name></trkpt>
<trkpt lat="53.460955" lon="05.856661"><ele>17.2</ele><time>2021-02-18T11:51:23Z</time><name>PT4268</name></trkpt>
<trkpt lat="53.460957" lon="05.856676"><ele>17.4</ele><time>2021-02-18T11:51:23Z</time><name>PT4269</name></trkpt>
<trkpt lat="53.460956" lon="05.856690"><ele>17.5</ele><time>2021-02-18T11:51:24Z</time><name>PT4270</name></trkpt>
<trkpt lat="53.460957" lon="05.856705"><ele>17.6</ele><time>2021-02-18T11:51:26Z</time><name>PT4271</name></trkpt>
<trkpt lat="53.460961" lon="05.856715"><ele>17.6</ele><time>2021-02-18T11:51:26Z</time><name>PT4272</name></trkpt>
<trkpt lat="53.460961" lon="05.856731"><ele>17.6</ele><time>2021-02-18T11:51:27Z</time><name>PT4273</name></trkpt>
<trkpt lat="53.460961" lon="05.856742"><ele>17.7</ele><time>2021-02-18T11:51:29Z</time><name>PT4274</name></trkpt>
<trkpt lat="53.460962" lon="05.856756"><ele>17.7</ele><time>2021-02-18T11:51:29Z</time><name>PT4275</name></trkpt>
<trkpt lat="53.460962" lon="05.856770"><ele>17.7</ele><time>2021-02-18T11:51:30Z</time><name>PT4276</name></trkpt>
<trkpt lat="53.460961" lon="05.856787"><ele>17.7</ele><time>2021-02-18T11:51:32Z</time><name>PT4277</name></trkpt>
<trkpt lat="53.460958" lon="05.856805"><ele>17.6</ele><time>2021-02-18T11:51:32Z</time><name>PT4278</name></trkpt>
<trkpt lat="53.460961" lon="05.856823"><ele>17.3</ele><time>2021-02-18T11:51:33Z</time><name>PT4279</name></trkpt>
<trkpt lat="53.460963" lon="05.856842"><ele>17.2</ele><time>2021-02-18T11:51:35Z</time><name>PT4280</name></trkpt>
<trkpt lat="53.460965" lon="05.856860"><ele>17.3</ele><time>2021-02-18T11:51:35Z</time><name>PT4281</name></trkpt>
<trkpt lat="53.460967" lon="05.856873"><ele>17.5</ele><time>2021-02-18T11:51:36Z</time><name>PT4282</name></trkpt>
<trkpt lat="53.460967" lon="05.856886"><ele>17.7</ele><time>2021-02-18T11:51:38Z</time><name>PT4283</name></trkpt>
<trkpt lat="53.460967" lon="05.856901"><ele>17.9</ele><time>2021-02-18T11:51:38Z</time><name>PT4284</name></trkpt>
<trkpt lat="53.460967" lon="05.856919"><ele>18</ele><time>2021-02-18T11:51:39Z</time><name>PT4285</name></trkpt>
<trkpt lat="53.460967" lon="05.856936"><ele>18.1</ele><time>2021-02-18T11:51:41Z</time><name>PT4286</name></trkpt>
<trkpt lat="53.460968" lon="05.856952"><ele>18.3</ele><time>2021-02-18T11:51:41Z</time><name>PT4287</name></trkpt>
<trkpt lat="53.460968" lon="05.856966"><ele>18.3</ele><time>2021-02-18T11:51:42Z</time><name>PT4288</name></trkpt>
<trkpt lat="53.460969" lon="05.856983"><ele>18.5</ele><time>2021-02-18T11:51:44Z</time><name>PT4289</name></trkpt>
<trkpt lat="53.460973" lon="05.857000"><ele>18.3</ele><time>2021-02-18T11:51:44Z</time><name>PT4290</name></trkpt>
<trkpt lat="53.460975" lon="05.857015"><ele>18.3</ele><time>2021-02-18T11:51:45Z</time><name>PT4291</name></trkpt>
<trkpt lat="53.460977" lon="05.857033"><ele>18.2</ele><time>2021-02-18T11:51:47Z</time><name>PT4292</name></trkpt>
<trkpt lat="53.460975" lon="05.857051"><ele>18.2</ele><time>2021-02-18T11:51:47Z</time><name>PT4293</name></trkpt>
<trkpt lat="53.460974" lon="05.857069"><ele>18</ele><time>2021-02-18T11:51:48Z</time><name>PT4294</name></trkpt>
<trkpt lat="53.460974" lon="05.857088"><ele>18.1</ele><time>2021-02-18T11:51:50Z</time><name>PT4295</name></trkpt>
<trkpt lat="53.460975" lon="05.857110"><ele>18.1</ele><time>2021-02-18T11:51:50Z</time><name>PT4296</name></trkpt>
<trkpt lat="53.460974" lon="05.857129"><ele>17.9</ele><time>2021-02-18T11:51:51Z</time><name>PT4297</name></trkpt>
<trkpt lat="53.460973" lon="05.857147"><ele>18</ele><time>2021-02-18T11:51:53Z</time><name>PT4298</name></trkpt>
<trkpt lat="53.460973" lon="05.857164"><ele>18.1</ele><time>2021-02-18T11:51:53Z</time><name>PT4299</name></trkpt>
<trkpt lat="53.460973" lon="05.857183"><ele>18.1</ele><time>2021-02-18T11:51:54Z</time><name>PT4300</name></trkpt>
<trkpt lat="53.460973" lon="05.857197"><ele>18.1</ele><time>2021-02-18T11:51:56Z</time><name>PT4301</name></trkpt>
<trkpt lat="53.460969" lon="05.857199"><ele>18.1</ele><time>2021-02-18T11:51:56Z</time><name>PT4302</name></trkpt>
<trkpt lat="53.460968" lon="05.857209"><ele>17.9</ele><time>2021-02-18T11:51:57Z</time><name>PT4303</name></trkpt>
<trkpt lat="53.460969" lon="05.857221"><ele>17.7</ele><time>2021-02-18T11:51:59Z</time><name>PT4304</name></trkpt>
<trkpt lat="53.460969" lon="05.857235"><ele>17.6</ele><time>2021-02-18T11:51:59Z</time><name>PT4305</name></trkpt>
<trkpt lat="53.460970" lon="05.857252"><ele>17.6</ele><time>2021-02-18T11:52:00Z</time><name>PT4306</name></trkpt>
<trkpt lat="53.460975" lon="05.857271"><ele>17.6</ele><time>2021-02-18T11:52:02Z</time><name>PT4307</name></trkpt>
<trkpt lat="53.460976" lon="05.857283"><ele>17.6</ele><time>2021-02-18T11:52:02Z</time><name>PT4308</name></trkpt>
<trkpt lat="53.460978" lon="05.857291"><ele>17.5</ele><time>2021-02-18T11:52:03Z</time><name>PT4309</name></trkpt>
<trkpt lat="53.460978" lon="05.857291"><ele>17.3</ele><time>2021-02-18T11:52:05Z</time><name>PT4310</name></trkpt>
<trkpt lat="53.460978" lon="05.857291"><ele>17.4</ele><time>2021-02-18T11:52:05Z</time><name>PT4311</name></trkpt>
<trkpt lat="53.460979" lon="05.857296"><ele>17.5</ele><time>2021-02-18T11:52:06Z</time><name>PT4312</name></trkpt>
<trkpt lat="53.460980" lon="05.857307"><ele>17.6</ele><time>2021-02-18T11:52:08Z</time><name>PT4313</name></trkpt>
<trkpt lat="53.460981" lon="05.857320"><ele>17.4</ele><time>2021-02-18T11:52:08Z</time><name>PT4314</name></trkpt>
<trkpt lat="53.460981" lon="05.857334"><ele>17.3</ele><time>2021-02-18T11:52:09Z</time><name>PT4315</name></trkpt>
<trkpt lat="53.460981" lon="05.857353"><ele>17.1</ele><time>2021-02-18T11:52:11Z</time><name>PT4316</name></trkpt>
<trkpt lat="53.460981" lon="05.857372"><ele>17.1</ele><time>2021-02-18T11:52:11Z</time><name>PT4317</name></trkpt>
<trkpt lat="53.460981" lon="05.857390"><ele>17.2</ele><time>2021-02-18T11:52:12Z</time><name>PT4318</name></trkpt>
<trkpt lat="53.460981" lon="05.857409"><ele>17.1</ele><time>2021-02-18T11:52:14Z</time><name>PT4319</name></trkpt>
<trkpt lat="53.460982" lon="05.857427"><ele>17</ele><time>2021-02-18T11:52:14Z</time><name>PT4320</name></trkpt>
<trkpt lat="53.460983" lon="05.857443"><ele>17</ele><time>2021-02-18T11:52:15Z</time><name>PT4321</name></trkpt>
<trkpt lat="53.460985" lon="05.857461"><ele>16.8</ele><time>2021-02-18T11:52:17Z</time><name>PT4322</name></trkpt>
<trkpt lat="53.460986" lon="05.857472"><ele>16.8</ele><time>2021-02-18T11:52:17Z</time><name>PT4323</name></trkpt>
<trkpt lat="53.460987" lon="05.857476"><ele>16.6</ele><time>2021-02-18T11:52:18Z</time><name>PT4324</name></trkpt>
<trkpt lat="53.460988" lon="05.857477"><ele>16.7</ele><time>2021-02-18T11:52:20Z</time><name>PT4325</name></trkpt>
<trkpt lat="53.460989" lon="05.857478"><ele>16.6</ele><time>2021-02-18T11:52:20Z</time><name>PT4326</name></trkpt>
<trkpt lat="53.460989" lon="05.857493"><ele>16.9</ele><time>2021-02-18T11:52:32Z</time><name>PT4327</name></trkpt>
<trkpt lat="53.460989" lon="05.857514"><ele>16.9</ele><time>2021-02-18T11:52:32Z</time><name>PT4328</name></trkpt>
<trkpt lat="53.460990" lon="05.857534"><ele>16.6</ele><time>2021-02-18T11:52:33Z</time><name>PT4329</name></trkpt>
<trkpt lat="53.460989" lon="05.857553"><ele>16.6</ele><time>2021-02-18T11:52:35Z</time><name>PT4330</name></trkpt>
<trkpt lat="53.460993" lon="05.857575"><ele>16.6</ele><time>2021-02-18T11:52:35Z</time><name>PT4331</name></trkpt>
<trkpt lat="53.460996" lon="05.857595"><ele>16.5</ele><time>2021-02-18T11:52:36Z</time><name>PT4332</name></trkpt>
<trkpt lat="53.460998" lon="05.857615"><ele>16.5</ele><time>2021-02-18T11:52:38Z</time><name>PT4333</name></trkpt>
<trkpt lat="53.461000" lon="05.857634"><ele>16.5</ele><time>2021-02-18T11:52:38Z</time><name>PT4334</name></trkpt>
<trkpt lat="53.461002" lon="05.857653"><ele>16.4</ele><time>2021-02-18T11:52:39Z</time><name>PT4335</name></trkpt>
<trkpt lat="53.461003" lon="05.857673"><ele>16.4</ele><time>2021-02-18T11:52:41Z</time><name>PT4336</name></trkpt>
<trkpt lat="53.461004" lon="05.857692"><ele>16.3</ele><time>2021-02-18T11:52:41Z</time><name>PT4337</name></trkpt>
<trkpt lat="53.461003" lon="05.857708"><ele>16.1</ele><time>2021-02-18T11:52:42Z</time><name>PT4338</name></trkpt>
<trkpt lat="53.461000" lon="05.857720"><ele>16</ele><time>2021-02-18T11:52:44Z</time><name>PT4339</name></trkpt>
<trkpt lat="53.460998" lon="05.857731"><ele>15.9</ele><time>2021-02-18T11:52:44Z</time><name>PT4340</name></trkpt>
<trkpt lat="53.460999" lon="05.857746"><ele>16.1</ele><time>2021-02-18T11:52:45Z</time><name>PT4341</name></trkpt>
<trkpt lat="53.461001" lon="05.857763"><ele>16.6</ele><time>2021-02-18T11:52:47Z</time><name>PT4342</name></trkpt>
<trkpt lat="53.461000" lon="05.857780"><ele>16.7</ele><time>2021-02-18T11:52:47Z</time><name>PT4343</name></trkpt>
<trkpt lat="53.461000" lon="05.857799"><ele>16.8</ele><time>2021-02-18T11:52:48Z</time><name>PT4344</name></trkpt>
<trkpt lat="53.460999" lon="05.857817"><ele>16.7</ele><time>2021-02-18T11:52:50Z</time><name>PT4345</name></trkpt>
<trkpt lat="53.460999" lon="05.857836"><ele>16.6</ele><time>2021-02-18T11:52:50Z</time><name>PT4346</name></trkpt>
<trkpt lat="53.461001" lon="05.857855"><ele>16.3</ele><time>2021-02-18T11:52:51Z</time><name>PT4347</name></trkpt>
<trkpt lat="53.461003" lon="05.857875"><ele>16.3</ele><time>2021-02-18T11:52:53Z</time><name>PT4348</name></trkpt>
<trkpt lat="53.461005" lon="05.857896"><ele>16.2</ele><time>2021-02-18T11:52:53Z</time><name>PT4349</name></trkpt>
<trkpt lat="53.461009" lon="05.857913"><ele>16.5</ele><time>2021-02-18T11:52:54Z</time><name>PT4350</name></trkpt>
<trkpt lat="53.461011" lon="05.857932"><ele>16.6</ele><time>2021-02-18T11:52:56Z</time><name>PT4351</name></trkpt>
<trkpt lat="53.461012" lon="05.857951"><ele>16.6</ele><time>2021-02-18T11:52:56Z</time><name>PT4352</name></trkpt>
<trkpt lat="53.461012" lon="05.857972"><ele>16.6</ele><time>2021-02-18T11:52:57Z</time><name>PT4353</name></trkpt>
<trkpt lat="53.461012" lon="05.857993"><ele>16.5</ele><time>2021-02-18T11:52:59Z</time><name>PT4354</name></trkpt>
<trkpt lat="53.461010" lon="05.858013"><ele>16.3</ele><time>2021-02-18T11:52:59Z</time><name>PT4355</name></trkpt>
<trkpt lat="53.461010" lon="05.858034"><ele>16.4</ele><time>2021-02-18T11:53:00Z</time><name>PT4356</name></trkpt>
<trkpt lat="53.461011" lon="05.858055"><ele>16.6</ele><time>2021-02-18T11:53:02Z</time><name>PT4357</name></trkpt>
<trkpt lat="53.461012" lon="05.858075"><ele>16.6</ele><time>2021-02-18T11:53:02Z</time><name>PT4358</name></trkpt>
<trkpt lat="53.461012" lon="05.858097"><ele>16.5</ele><time>2021-02-18T11:53:03Z</time><name>PT4359</name></trkpt>
<trkpt lat="53.461013" lon="05.858118"><ele>16.3</ele><time>2021-02-18T11:53:05Z</time><name>PT4360</name></trkpt>
<trkpt lat="53.461015" lon="05.858135"><ele>16.3</ele><time>2021-02-18T11:53:05Z</time><name>PT4361</name></trkpt>
<trkpt lat="53.461017" lon="05.858152"><ele>16.4</ele><time>2021-02-18T11:53:06Z</time><name>PT4362</name></trkpt>
<trkpt lat="53.461018" lon="05.858170"><ele>16.3</ele><time>2021-02-18T11:53:08Z</time><name>PT4363</name></trkpt>
<trkpt lat="53.461017" lon="05.858192"><ele>16.3</ele><time>2021-02-18T11:53:08Z</time><name>PT4364</name></trkpt>
<trkpt lat="53.461016" lon="05.858214"><ele>16.6</ele><time>2021-02-18T11:53:09Z</time><name>PT4365</name></trkpt>
<trkpt lat="53.461017" lon="05.858237"><ele>16.4</ele><time>2021-02-18T11:53:11Z</time><name>PT4366</name></trkpt>
<trkpt lat="53.461016" lon="05.858257"><ele>16.5</ele><time>2021-02-18T11:53:11Z</time><name>PT4367</name></trkpt>
<trkpt lat="53.461015" lon="05.858276"><ele>16.6</ele><time>2021-02-18T11:53:12Z</time><name>PT4368</name></trkpt>
<trkpt lat="53.461013" lon="05.858296"><ele>16.6</ele><time>2021-02-18T11:53:14Z</time><name>PT4369</name></trkpt>
<trkpt lat="53.461011" lon="05.858316"><ele>16.6</ele><time>2021-02-18T11:53:14Z</time><name>PT4370</name></trkpt>
<trkpt lat="53.461006" lon="05.858337"><ele>16.4</ele><time>2021-02-18T11:53:15Z</time><name>PT4371</name></trkpt>
<trkpt lat="53.461005" lon="05.858356"><ele>16.2</ele><time>2021-02-18T11:53:17Z</time><name>PT4372</name></trkpt>
<trkpt lat="53.461002" lon="05.858376"><ele>16.2</ele><time>2021-02-18T11:53:17Z</time><name>PT4373</name></trkpt>
<trkpt lat="53.460996" lon="05.858399"><ele>16.3</ele><time>2021-02-18T11:53:18Z</time><name>PT4374</name></trkpt>
<trkpt lat="53.460996" lon="05.858421"><ele>16.5</ele><time>2021-02-18T11:53:20Z</time><name>PT4375</name></trkpt>
<trkpt lat="53.460995" lon="05.858443"><ele>16.5</ele><time>2021-02-18T11:53:20Z</time><name>PT4376</name></trkpt>
<trkpt lat="53.460992" lon="05.858465"><ele>16.5</ele><time>2021-02-18T11:53:21Z</time><name>PT4377</name></trkpt>
<trkpt lat="53.460990" lon="05.858486"><ele>16.6</ele><time>2021-02-18T11:53:23Z</time><name>PT4378</name></trkpt>
<trkpt lat="53.460991" lon="05.858505"><ele>16.6</ele><time>2021-02-18T11:53:23Z</time><name>PT4379</name></trkpt>
<trkpt lat="53.460994" lon="05.858527"><ele>16.7</ele><time>2021-02-18T11:53:24Z</time><name>PT4380</name></trkpt>
<trkpt lat="53.460995" lon="05.858548"><ele>16.6</ele><time>2021-02-18T11:53:26Z</time><name>PT4381</name></trkpt>
<trkpt lat="53.460995" lon="05.858569"><ele>16.6</ele><time>2021-02-18T11:53:26Z</time><name>PT4382</name></trkpt>
<trkpt lat="53.460995" lon="05.858589"><ele>16.2</ele><time>2021-02-18T11:53:27Z</time><name>PT4383</name></trkpt>
<trkpt lat="53.460996" lon="05.858609"><ele>16.3</ele><time>2021-02-18T11:53:29Z</time><name>PT4384</name></trkpt>
<trkpt lat="53.461000" lon="05.858627"><ele>16.4</ele><time>2021-02-18T11:53:29Z</time><name>PT4385</name></trkpt>
<trkpt lat="53.461005" lon="05.858645"><ele>16.3</ele><time>2021-02-18T11:53:30Z</time><name>PT4386</name></trkpt>
<trkpt lat="53.461004" lon="05.858662"><ele>16.6</ele><time>2021-02-18T11:53:32Z</time><name>PT4387</name></trkpt>
<trkpt lat="53.461004" lon="05.858680"><ele>16.6</ele><time>2021-02-18T11:53:32Z</time><name>PT4388</name></trkpt>
<trkpt lat="53.461003" lon="05.858700"><ele>16.5</ele><time>2021-02-18T11:53:33Z</time><name>PT4389</name></trkpt>
<trkpt lat="53.461001" lon="05.858720"><ele>16.7</ele><time>2021-02-18T11:53:35Z</time><name>PT4390</name></trkpt>
<trkpt lat="53.461000" lon="05.858741"><ele>16.6</ele><time>2021-02-18T11:53:35Z</time><name>PT4391</name></trkpt>
<trkpt lat="53.461000" lon="05.858764"><ele>16.6</ele><time>2021-02-18T11:53:36Z</time><name>PT4392</name></trkpt>
<trkpt lat="53.460999" lon="05.858784"><ele>16.7</ele><time>2021-02-18T11:53:38Z</time><name>PT4393</name></trkpt>
<trkpt lat="53.460997" lon="05.858803"><ele>16.6</ele><time>2021-02-18T11:53:38Z</time><name>PT4394</name></trkpt>
<trkpt lat="53.460995" lon="05.858824"><ele>16.6</ele><time>2021-02-18T11:53:39Z</time><name>PT4395</name></trkpt>
<trkpt lat="53.460993" lon="05.858843"><ele>16.7</ele><time>2021-02-18T11:53:41Z</time><name>PT4396</name></trkpt>
<trkpt lat="53.460991" lon="05.858862"><ele>16.7</ele><time>2021-02-18T11:53:41Z</time><name>PT4397</name></trkpt>
<trkpt lat="53.460991" lon="05.858881"><ele>16.7</ele><time>2021-02-18T11:53:42Z</time><name>PT4398</name></trkpt>
<trkpt lat="53.460992" lon="05.858900"><ele>16.6</ele><time>2021-02-18T11:53:44Z</time><name>PT4399</name></trkpt>
<trkpt lat="53.460992" lon="05.858920"><ele>16.7</ele><time>2021-02-18T11:53:44Z</time><name>PT4400</name></trkpt>
<trkpt lat="53.460994" lon="05.858941"><ele>16.9</ele><time>2021-02-18T11:53:45Z</time><name>PT4401</name></trkpt>
<trkpt lat="53.460995" lon="05.858962"><ele>16.9</ele><time>2021-02-18T11:53:47Z</time><name>PT4402</name></trkpt>
<trkpt lat="53.460994" lon="05.858981"><ele>16.9</ele><time>2021-02-18T11:53:47Z</time><name>PT4403</name></trkpt>
<trkpt lat="53.460992" lon="05.859000"><ele>17</ele><time>2021-02-18T11:53:48Z</time><name>PT4404</name></trkpt>
<trkpt lat="53.460992" lon="05.859019"><ele>16.9</ele><time>2021-02-18T11:53:50Z</time><name>PT4405</name></trkpt>
<trkpt lat="53.460992" lon="05.859040"><ele>17.1</ele><time>2021-02-18T11:53:50Z</time><name>PT4406</name></trkpt>
<trkpt lat="53.460991" lon="05.859061"><ele>17.3</ele><time>2021-02-18T11:53:51Z</time><name>PT4407</name></trkpt>
<trkpt lat="53.460990" lon="05.859082"><ele>17.3</ele><time>2021-02-18T11:53:53Z</time><name>PT4408</name></trkpt>
<trkpt lat="53.460987" lon="05.859100"><ele>17.3</ele><time>2021-02-18T11:53:53Z</time><name>PT4409</name></trkpt>
<trkpt lat="53.460986" lon="05.859118"><ele>17.1</ele><time>2021-02-18T11:53:54Z</time><name>PT4410</name></trkpt>
<trkpt lat="53.460986" lon="05.859138"><ele>16.9</ele><time>2021-02-18T11:53:56Z</time><name>PT4411</name></trkpt>
<trkpt lat="53.460985" lon="05.859160"><ele>16.8</ele><time>2021-02-18T11:53:56Z</time><name>PT4412</name></trkpt>
<trkpt lat="53.460983" lon="05.859183"><ele>16.9</ele><time>2021-02-18T11:53:57Z</time><name>PT4413</name></trkpt>
<trkpt lat="53.460981" lon="05.859205"><ele>16.6</ele><time>2021-02-18T11:53:59Z</time><name>PT4414</name></trkpt>
<trkpt lat="53.460981" lon="05.859228"><ele>16.8</ele><time>2021-02-18T11:53:59Z</time><name>PT4415</name></trkpt>
<trkpt lat="53.460979" lon="05.859249"><ele>16.9</ele><time>2021-02-18T11:54:00Z</time><name>PT4416</name></trkpt>
<trkpt lat="53.460978" lon="05.859271"><ele>17</ele><time>2021-02-18T11:54:02Z</time><name>PT4417</name></trkpt>
<trkpt lat="53.460976" lon="05.859290"><ele>17.1</ele><time>2021-02-18T11:54:02Z</time><name>PT4418</name></trkpt>
<trkpt lat="53.460973" lon="05.859314"><ele>16.9</ele><time>2021-02-18T11:54:03Z</time><name>PT4419</name></trkpt>
<trkpt lat="53.460969" lon="05.859334"><ele>16.9</ele><time>2021-02-18T11:54:05Z</time><name>PT4420</name></trkpt>
<trkpt lat="53.460966" lon="05.859354"><ele>16.6</ele><time>2021-02-18T11:54:05Z</time><name>PT4421</name></trkpt>
<trkpt lat="53.460964" lon="05.859374"><ele>16.4</ele><time>2021-02-18T11:54:06Z</time><name>PT4422</name></trkpt>
<trkpt lat="53.460961" lon="05.859393"><ele>16.3</ele><time>2021-02-18T11:54:08Z</time><name>PT4423</name></trkpt>
<trkpt lat="53.460959" lon="05.859416"><ele>16.4</ele><time>2021-02-18T11:54:08Z</time><name>PT4424</name></trkpt>
<trkpt lat="53.460960" lon="05.859435"><ele>16.6</ele><time>2021-02-18T11:54:09Z</time><name>PT4425</name></trkpt>
<trkpt lat="53.460963" lon="05.859454"><ele>16.9</ele><time>2021-02-18T11:54:11Z</time><name>PT4426</name></trkpt>
<trkpt lat="53.460965" lon="05.859474"><ele>17.1</ele><time>2021-02-18T11:54:11Z</time><name>PT4427</name></trkpt>
<trkpt lat="53.460968" lon="05.859494"><ele>17.1</ele><time>2021-02-18T11:54:12Z</time><name>PT4428</name></trkpt>
<trkpt lat="53.460968" lon="05.859517"><ele>17.1</ele><time>2021-02-18T11:54:14Z</time><name>PT4429</name></trkpt>
<trkpt lat="53.460967" lon="05.859536"><ele>17.1</ele><time>2021-02-18T11:54:14Z</time><name>PT4430</name></trkpt>
<trkpt lat="53.460967" lon="05.859557"><ele>17.1</ele><time>2021-02-18T11:54:15Z</time><name>PT4431</name></trkpt>
<trkpt lat="53.460968" lon="05.859579"><ele>17</ele><time>2021-02-18T11:54:17Z</time><name>PT4432</name></trkpt>
<trkpt lat="53.460968" lon="05.859600"><ele>17.1</ele><time>2021-02-18T11:54:17Z</time><name>PT4433</name></trkpt>
<trkpt lat="53.460969" lon="05.859620"><ele>17.1</ele><time>2021-02-18T11:54:18Z</time><name>PT4434</name></trkpt>
<trkpt lat="53.460972" lon="05.859640"><ele>17.2</ele><time>2021-02-18T11:54:20Z</time><name>PT4435</name></trkpt>
<trkpt lat="53.460973" lon="05.859660"><ele>17.3</ele><time>2021-02-18T11:54:20Z</time><name>PT4436</name></trkpt>
<trkpt lat="53.460973" lon="05.859677"><ele>17</ele><time>2021-02-18T11:54:21Z</time><name>PT4437</name></trkpt>
<trkpt lat="53.460974" lon="05.859695"><ele>17.1</ele><time>2021-02-18T11:54:23Z</time><name>PT4438</name></trkpt>
<trkpt lat="53.460976" lon="05.859713"><ele>17</ele><time>2021-02-18T11:54:23Z</time><name>PT4439</name></trkpt>
<trkpt lat="53.460977" lon="05.859734"><ele>17</ele><time>2021-02-18T11:54:24Z</time><name>PT4440</name></trkpt>
<trkpt lat="53.460976" lon="05.859752"><ele>17</ele><time>2021-02-18T11:54:26Z</time><name>PT4441</name></trkpt>
<trkpt lat="53.460977" lon="05.859766"><ele>16.9</ele><time>2021-02-18T11:54:26Z</time><name>PT4442</name></trkpt>
<trkpt lat="53.460975" lon="05.859784"><ele>16.8</ele><time>2021-02-18T11:54:27Z</time><name>PT4443</name></trkpt>
<trkpt lat="53.460971" lon="05.859802"><ele>16.9</ele><time>2021-02-18T11:54:29Z</time><name>PT4444</name></trkpt>
<trkpt lat="53.460969" lon="05.859819"><ele>17</ele><time>2021-02-18T11:54:29Z</time><name>PT4445</name></trkpt>
<trkpt lat="53.460969" lon="05.859838"><ele>17.2</ele><time>2021-02-18T11:54:30Z</time><name>PT4446</name></trkpt>
<trkpt lat="53.460970" lon="05.859854"><ele>17.1</ele><time>2021-02-18T11:54:32Z</time><name>PT4447</name></trkpt>
<trkpt lat="53.460970" lon="05.859870"><ele>17.1</ele><time>2021-02-18T11:54:32Z</time><name>PT4448</name></trkpt>
<trkpt lat="53.460970" lon="05.859887"><ele>17.1</ele><time>2021-02-18T11:54:33Z</time><name>PT4449</name></trkpt>
<trkpt lat="53.460969" lon="05.859905"><ele>16.8</ele><time>2021-02-18T11:54:35Z</time><name>PT4450</name></trkpt>
<trkpt lat="53.460969" lon="05.859929"><ele>16.9</ele><time>2021-02-18T11:54:35Z</time><name>PT4451</name></trkpt>
<trkpt lat="53.460969" lon="05.859949"><ele>17</ele><time>2021-02-18T11:54:36Z</time><name>PT4452</name></trkpt>
<trkpt lat="53.460968" lon="05.859970"><ele>17.1</ele><time>2021-02-18T11:54:38Z</time><name>PT4453</name></trkpt>
<trkpt lat="53.460969" lon="05.859995"><ele>17.1</ele><time>2021-02-18T11:54:38Z</time><name>PT4454</name></trkpt>
<trkpt lat="53.460970" lon="05.860018"><ele>17.2</ele><time>2021-02-18T11:54:39Z</time><name>PT4455</name></trkpt>
<trkpt lat="53.460968" lon="05.860038"><ele>17.3</ele><time>2021-02-18T11:54:41Z</time><name>PT4456</name></trkpt>
<trkpt lat="53.460970" lon="05.860057"><ele>17.4</ele><time>2021-02-18T11:54:41Z</time><name>PT4457</name></trkpt>
<trkpt lat="53.460968" lon="05.860076"><ele>17.6</ele><time>2021-02-18T11:54:42Z</time><name>PT4458</name></trkpt>
<trkpt lat="53.460971" lon="05.860092"><ele>17.6</ele><time>2021-02-18T11:54:44Z</time><name>PT4459</name></trkpt>
<trkpt lat="53.460973" lon="05.860113"><ele>17.6</ele><time>2021-02-18T11:54:44Z</time><name>PT4460</name></trkpt>
<trkpt lat="53.460974" lon="05.860131"><ele>17.6</ele><time>2021-02-18T11:54:45Z</time><name>PT4461</name></trkpt>
<trkpt lat="53.460976" lon="05.860151"><ele>17.1</ele><time>2021-02-18T11:54:47Z</time><name>PT4462</name></trkpt>
<trkpt lat="53.460977" lon="05.860171"><ele>17.1</ele><time>2021-02-18T11:54:47Z</time><name>PT4463</name></trkpt>
<trkpt lat="53.460978" lon="05.860190"><ele>17.1</ele><time>2021-02-18T11:54:48Z</time><name>PT4464</name></trkpt>
<trkpt lat="53.460975" lon="05.860208"><ele>17</ele><time>2021-02-18T11:54:50Z</time><name>PT4465</name></trkpt>
<trkpt lat="53.460974" lon="05.860226"><ele>17.1</ele><time>2021-02-18T11:54:50Z</time><name>PT4466</name></trkpt>
<trkpt lat="53.460974" lon="05.860244"><ele>17.2</ele><time>2021-02-18T11:54:51Z</time><name>PT4467</name></trkpt>
<trkpt lat="53.460975" lon="05.860264"><ele>17.3</ele><time>2021-02-18T11:54:53Z</time><name>PT4468</name></trkpt>
<trkpt lat="53.460973" lon="05.860283"><ele>17.3</ele><time>2021-02-18T11:54:53Z</time><name>PT4469</name></trkpt>
<trkpt lat="53.460972" lon="05.860303"><ele>17.3</ele><time>2021-02-18T11:54:54Z</time><name>PT4470</name></trkpt>
<trkpt lat="53.460971" lon="05.860323"><ele>17.2</ele><time>2021-02-18T11:54:56Z</time><name>PT4471</name></trkpt>
<trkpt lat="53.460970" lon="05.860343"><ele>17.1</ele><time>2021-02-18T11:54:56Z</time><name>PT4472</name></trkpt>
<trkpt lat="53.460969" lon="05.860365"><ele>17</ele><time>2021-02-18T11:54:57Z</time><name>PT4473</name></trkpt>
<trkpt lat="53.460969" lon="05.860387"><ele>17.1</ele><time>2021-02-18T11:54:59Z</time><name>PT4474</name></trkpt>
<trkpt lat="53.460968" lon="05.860408"><ele>17.1</ele><time>2021-02-18T11:54:59Z</time><name>PT4475</name></trkpt>
<trkpt lat="53.460967" lon="05.860429"><ele>17.1</ele><time>2021-02-18T11:55:00Z</time><name>PT4476</name></trkpt>
<trkpt lat="53.460965" lon="05.860451"><ele>17.2</ele><time>2021-02-18T11:55:02Z</time><name>PT4477</name></trkpt>
<trkpt lat="53.460964" lon="05.860472"><ele>17.1</ele><time>2021-02-18T11:55:02Z</time><name>PT4478</name></trkpt>
<trkpt lat="53.460963" lon="05.860493"><ele>17.3</ele><time>2021-02-18T11:55:03Z</time><name>PT4479</name></trkpt>
<trkpt lat="53.460962" lon="05.860516"><ele>17.2</ele><time>2021-02-18T11:55:05Z</time><name>PT4480</name></trkpt>
<trkpt lat="53.460962" lon="05.860540"><ele>17.4</ele><time>2021-02-18T11:55:05Z</time><name>PT4481</name></trkpt>
<trkpt lat="53.460959" lon="05.860571"><ele>17.6</ele><time>2021-02-18T11:55:06Z</time><name>PT4482</name></trkpt>
<trkpt lat="53.460957" lon="05.860595"><ele>17.6</ele><time>2021-02-18T11:55:08Z</time><name>PT4483</name></trkpt>
<trkpt lat="53.460956" lon="05.860618"><ele>17.6</ele><time>2021-02-18T11:55:08Z</time><name>PT4484</name></trkpt>
<trkpt lat="53.460955" lon="05.860640"><ele>17.7</ele><time>2021-02-18T11:55:09Z</time><name>PT4485</name></trkpt>
<trkpt lat="53.460953" lon="05.860661"><ele>17.6</ele><time>2021-02-18T11:55:11Z</time><name>PT4486</name></trkpt>
<trkpt lat="53.460950" lon="05.860682"><ele>17.6</ele><time>2021-02-18T11:55:11Z</time><name>PT4487</name></trkpt>
<trkpt lat="53.460948" lon="05.860704"><ele>17.6</ele><time>2021-02-18T11:55:12Z</time><name>PT4488</name></trkpt>
<trkpt lat="53.460945" lon="05.860726"><ele>17.6</ele><time>2021-02-18T11:55:14Z</time><name>PT4489</name></trkpt>
<trkpt lat="53.460942" lon="05.860745"><ele>17.6</ele><time>2021-02-18T11:55:14Z</time><name>PT4490</name></trkpt>
<trkpt lat="53.460940" lon="05.860765"><ele>17.7</ele><time>2021-02-18T11:55:15Z</time><name>PT4491</name></trkpt>
<trkpt lat="53.460940" lon="05.860786"><ele>17.6</ele><time>2021-02-18T11:55:17Z</time><name>PT4492</name></trkpt>
<trkpt lat="53.460940" lon="05.860806"><ele>17.6</ele><time>2021-02-18T11:55:17Z</time><name>PT4493</name></trkpt>
<trkpt lat="53.460938" lon="05.860828"><ele>17.5</ele><time>2021-02-18T11:55:18Z</time><name>PT4494</name></trkpt>
<trkpt lat="53.460937" lon="05.860850"><ele>17.5</ele><time>2021-02-18T11:55:20Z</time><name>PT4495</name></trkpt>
<trkpt lat="53.460936" lon="05.860867"><ele>17.4</ele><time>2021-02-18T11:55:20Z</time><name>PT4496</name></trkpt>
<trkpt lat="53.460936" lon="05.860885"><ele>17.4</ele><time>2021-02-18T11:55:21Z</time><name>PT4497</name></trkpt>
<trkpt lat="53.460937" lon="05.860906"><ele>17.4</ele><time>2021-02-18T11:55:23Z</time><name>PT4498</name></trkpt>
<trkpt lat="53.460936" lon="05.860928"><ele>17.2</ele><time>2021-02-18T11:55:23Z</time><name>PT4499</name></trkpt>
<trkpt lat="53.460936" lon="05.860951"><ele>17.1</ele><time>2021-02-18T11:55:24Z</time><name>PT4500</name></trkpt>
<trkpt lat="53.460935" lon="05.860971"><ele>17.1</ele><time>2021-02-18T11:55:26Z</time><name>PT4501</name></trkpt>
<trkpt lat="53.460932" lon="05.860992"><ele>17.2</ele><time>2021-02-18T11:55:26Z</time><name>PT4502</name></trkpt>
<trkpt lat="53.460932" lon="05.861013"><ele>17.2</ele><time>2021-02-18T11:55:27Z</time><name>PT4503</name></trkpt>
<trkpt lat="53.460934" lon="05.861037"><ele>17.2</ele><time>2021-02-18T11:55:29Z</time><name>PT4504</name></trkpt>
<trkpt lat="53.460933" lon="05.861058"><ele>17.2</ele><time>2021-02-18T11:55:29Z</time><name>PT4505</name></trkpt>
<trkpt lat="53.460933" lon="05.861076"><ele>17.1</ele><time>2021-02-18T11:55:30Z</time><name>PT4506</name></trkpt>
<trkpt lat="53.460933" lon="05.861096"><ele>17.3</ele><time>2021-02-18T11:55:32Z</time><name>PT4507</name></trkpt>
<trkpt lat="53.460934" lon="05.861114"><ele>17.1</ele><time>2021-02-18T11:55:32Z</time><name>PT4508</name></trkpt>
<trkpt lat="53.460933" lon="05.861132"><ele>17</ele><time>2021-02-18T11:55:33Z</time><name>PT4509</name></trkpt>
<trkpt lat="53.460935" lon="05.861152"><ele>17.1</ele><time>2021-02-18T11:55:35Z</time><name>PT4510</name></trkpt>
<trkpt lat="53.460935" lon="05.861168"><ele>17.2</ele><time>2021-02-18T11:55:35Z</time><name>PT4511</name></trkpt>
<trkpt lat="53.460935" lon="05.861184"><ele>17.1</ele><time>2021-02-18T11:55:36Z</time><name>PT4512</name></trkpt>
<trkpt lat="53.460936" lon="05.861201"><ele>17.3</ele><time>2021-02-18T11:55:38Z</time><name>PT4513</name></trkpt>
<trkpt lat="53.460938" lon="05.861220"><ele>17.2</ele><time>2021-02-18T11:55:38Z</time><name>PT4514</name></trkpt>
<trkpt lat="53.460937" lon="05.861240"><ele>17.1</ele><time>2021-02-18T11:55:39Z</time><name>PT4515</name></trkpt>
<trkpt lat="53.460937" lon="05.861257"><ele>17.1</ele><time>2021-02-18T11:55:41Z</time><name>PT4516</name></trkpt>
<trkpt lat="53.460935" lon="05.861275"><ele>17.2</ele><time>2021-02-18T11:55:41Z</time><name>PT4517</name></trkpt>
<trkpt lat="53.460935" lon="05.861296"><ele>17.5</ele><time>2021-02-18T11:55:43Z</time><name>PT4518</name></trkpt>
<trkpt lat="53.460934" lon="05.861317"><ele>17.6</ele><time>2021-02-18T11:55:44Z</time><name>PT4519</name></trkpt>
<trkpt lat="53.460934" lon="05.861339"><ele>17.6</ele><time>2021-02-18T11:55:44Z</time><name>PT4520</name></trkpt>
<trkpt lat="53.460935" lon="05.861358"><ele>17.5</ele><time>2021-02-18T11:55:45Z</time><name>PT4521</name></trkpt>
<trkpt lat="53.460934" lon="05.861378"><ele>17.4</ele><time>2021-02-18T11:55:47Z</time><name>PT4522</name></trkpt>
<trkpt lat="53.460933" lon="05.861398"><ele>17.3</ele><time>2021-02-18T11:55:47Z</time><name>PT4523</name></trkpt>
<trkpt lat="53.460932" lon="05.861419"><ele>17.4</ele><time>2021-02-18T11:55:49Z</time><name>PT4524</name></trkpt>
<trkpt lat="53.460933" lon="05.861442"><ele>17.5</ele><time>2021-02-18T11:55:50Z</time><name>PT4525</name></trkpt>
<trkpt lat="53.460933" lon="05.861462"><ele>17.7</ele><time>2021-02-18T11:55:50Z</time><name>PT4526</name></trkpt>
<trkpt lat="53.460933" lon="05.861484"><ele>17.6</ele><time>2021-02-18T11:55:51Z</time><name>PT4527</name></trkpt>
<trkpt lat="53.460933" lon="05.861505"><ele>17.6</ele><time>2021-02-18T11:55:53Z</time><name>PT4528</name></trkpt>
<trkpt lat="53.460931" lon="05.861522"><ele>17.5</ele><time>2021-02-18T11:55:53Z</time><name>PT4529</name></trkpt>
<trkpt lat="53.460929" lon="05.861545"><ele>17.3</ele><time>2021-02-18T11:55:54Z</time><name>PT4530</name></trkpt>
<trkpt lat="53.460929" lon="05.861566"><ele>17.4</ele><time>2021-02-18T11:55:56Z</time><name>PT4531</name></trkpt>
<trkpt lat="53.460931" lon="05.861584"><ele>17.3</ele><time>2021-02-18T11:55:56Z</time><name>PT4532</name></trkpt>
<trkpt lat="53.460933" lon="05.861606"><ele>17.4</ele><time>2021-02-18T11:55:57Z</time><name>PT4533</name></trkpt>
<trkpt lat="53.460934" lon="05.861627"><ele>17.6</ele><time>2021-02-18T11:55:59Z</time><name>PT4534</name></trkpt>
<trkpt lat="53.460933" lon="05.861645"><ele>17.3</ele><time>2021-02-18T11:55:59Z</time><name>PT4535</name></trkpt>
<trkpt lat="53.460932" lon="05.861661"><ele>17.5</ele><time>2021-02-18T11:56:00Z</time><name>PT4536</name></trkpt>
<trkpt lat="53.460931" lon="05.861680"><ele>17.7</ele><time>2021-02-18T11:56:02Z</time><name>PT4537</name></trkpt>
<trkpt lat="53.460929" lon="05.861697"><ele>17.7</ele><time>2021-02-18T11:56:02Z</time><name>PT4538</name></trkpt>
<trkpt lat="53.460928" lon="05.861715"><ele>17.7</ele><time>2021-02-18T11:56:03Z</time><name>PT4539</name></trkpt>
<trkpt lat="53.460927" lon="05.861733"><ele>17.6</ele><time>2021-02-18T11:56:05Z</time><name>PT4540</name></trkpt>
<trkpt lat="53.460926" lon="05.861753"><ele>17.5</ele><time>2021-02-18T11:56:05Z</time><name>PT4541</name></trkpt>
<trkpt lat="53.460925" lon="05.861772"><ele>17.2</ele><time>2021-02-18T11:56:06Z</time><name>PT4542</name></trkpt>
<trkpt lat="53.460923" lon="05.861791"><ele>17.3</ele><time>2021-02-18T11:56:08Z</time><name>PT4543</name></trkpt>
<trkpt lat="53.460922" lon="05.861812"><ele>17.3</ele><time>2021-02-18T11:56:08Z</time><name>PT4544</name></trkpt>
<trkpt lat="53.460922" lon="05.861833"><ele>17.4</ele><time>2021-02-18T11:56:09Z</time><name>PT4545</name></trkpt>
<trkpt lat="53.460920" lon="05.861856"><ele>17.3</ele><time>2021-02-18T11:56:11Z</time><name>PT4546</name></trkpt>
<trkpt lat="53.460919" lon="05.861878"><ele>17.5</ele><time>2021-02-18T11:56:11Z</time><name>PT4547</name></trkpt>
<trkpt lat="53.460918" lon="05.861899"><ele>17.6</ele><time>2021-02-18T11:56:12Z</time><name>PT4548</name></trkpt>
<trkpt lat="53.460914" lon="05.861921"><ele>17.6</ele><time>2021-02-18T11:56:14Z</time><name>PT4549</name></trkpt>
<trkpt lat="53.460911" lon="05.861943"><ele>17.6</ele><time>2021-02-18T11:56:14Z</time><name>PT4550</name></trkpt>
<trkpt lat="53.460910" lon="05.861963"><ele>17.8</ele><time>2021-02-18T11:56:15Z</time><name>PT4551</name></trkpt>
<trkpt lat="53.460907" lon="05.861984"><ele>17.8</ele><time>2021-02-18T11:56:17Z</time><name>PT4552</name></trkpt>
<trkpt lat="53.460907" lon="05.862005"><ele>17.8</ele><time>2021-02-18T11:56:17Z</time><name>PT4553</name></trkpt>
<trkpt lat="53.460906" lon="05.862025"><ele>17.7</ele><time>2021-02-18T11:56:18Z</time><name>PT4554</name></trkpt>
<trkpt lat="53.460906" lon="05.862048"><ele>17.6</ele><time>2021-02-18T11:56:20Z</time><name>PT4555</name></trkpt>
<trkpt lat="53.460907" lon="05.862071"><ele>17.6</ele><time>2021-02-18T11:56:20Z</time><name>PT4556</name></trkpt>
<trkpt lat="53.460909" lon="05.862092"><ele>17.5</ele><time>2021-02-18T11:56:21Z</time><name>PT4557</name></trkpt>
<trkpt lat="53.460910" lon="05.862114"><ele>17.5</ele><time>2021-02-18T11:56:23Z</time><name>PT4558</name></trkpt>
<trkpt lat="53.460911" lon="05.862134"><ele>17.6</ele><time>2021-02-18T11:56:23Z</time><name>PT4559</name></trkpt>
<trkpt lat="53.460910" lon="05.862153"><ele>17.6</ele><time>2021-02-18T11:56:24Z</time><name>PT4560</name></trkpt>
<trkpt lat="53.460911" lon="05.862172"><ele>17.6</ele><time>2021-02-18T11:56:26Z</time><name>PT4561</name></trkpt>
<trkpt lat="53.460910" lon="05.862188"><ele>17.6</ele><time>2021-02-18T11:56:26Z</time><name>PT4562</name></trkpt>
<trkpt lat="53.460911" lon="05.862208"><ele>17.7</ele><time>2021-02-18T11:56:27Z</time><name>PT4563</name></trkpt>
<trkpt lat="53.460912" lon="05.862228"><ele>17.6</ele><time>2021-02-18T11:56:29Z</time><name>PT4564</name></trkpt>
<trkpt lat="53.460913" lon="05.862250"><ele>17.8</ele><time>2021-02-18T11:56:29Z</time><name>PT4565</name></trkpt>
<trkpt lat="53.460913" lon="05.862273"><ele>18</ele><time>2021-02-18T11:56:30Z</time><name>PT4566</name></trkpt>
<trkpt lat="53.460913" lon="05.862292"><ele>18.1</ele><time>2021-02-18T11:56:32Z</time><name>PT4567</name></trkpt>
<trkpt lat="53.460914" lon="05.862314"><ele>18.1</ele><time>2021-02-18T11:56:32Z</time><name>PT4568</name></trkpt>
<trkpt lat="53.460913" lon="05.862335"><ele>18</ele><time>2021-02-18T11:56:33Z</time><name>PT4569</name></trkpt>
<trkpt lat="53.460912" lon="05.862355"><ele>17.8</ele><time>2021-02-18T11:56:35Z</time><name>PT4570</name></trkpt>
<trkpt lat="53.460910" lon="05.862371"><ele>17.6</ele><time>2021-02-18T11:56:35Z</time><name>PT4571</name></trkpt>
<trkpt lat="53.460910" lon="05.862391"><ele>17.5</ele><time>2021-02-18T11:56:36Z</time><name>PT4572</name></trkpt>
<trkpt lat="53.460908" lon="05.862407"><ele>17.6</ele><time>2021-02-18T11:56:38Z</time><name>PT4573</name></trkpt>
<trkpt lat="53.460906" lon="05.862426"><ele>17.5</ele><time>2021-02-18T11:56:38Z</time><name>PT4574</name></trkpt>
<trkpt lat="53.460904" lon="05.862444"><ele>17.5</ele><time>2021-02-18T11:56:39Z</time><name>PT4575</name></trkpt>
<trkpt lat="53.460901" lon="05.862462"><ele>17.6</ele><time>2021-02-18T11:56:41Z</time><name>PT4576</name></trkpt>
<trkpt lat="53.460900" lon="05.862482"><ele>17.7</ele><time>2021-02-18T11:56:41Z</time><name>PT4577</name></trkpt>
<trkpt lat="53.460899" lon="05.862500"><ele>17.7</ele><time>2021-02-18T11:56:42Z</time><name>PT4578</name></trkpt>
<trkpt lat="53.460898" lon="05.862521"><ele>17.9</ele><time>2021-02-18T11:56:44Z</time><name>PT4579</name></trkpt>
<trkpt lat="53.460897" lon="05.862541"><ele>17.7</ele><time>2021-02-18T11:56:44Z</time><name>PT4580</name></trkpt>
<trkpt lat="53.460898" lon="05.862563"><ele>17.6</ele><time>2021-02-18T11:56:45Z</time><name>PT4581</name></trkpt>
<trkpt lat="53.460898" lon="05.862583"><ele>17.6</ele><time>2021-02-18T11:56:47Z</time><name>PT4582</name></trkpt>
<trkpt lat="53.460898" lon="05.862603"><ele>17.6</ele><time>2021-02-18T11:56:47Z</time><name>PT4583</name></trkpt>
<trkpt lat="53.460899" lon="05.862624"><ele>17.4</ele><time>2021-02-18T11:56:48Z</time><name>PT4584</name></trkpt>
<trkpt lat="53.460899" lon="05.862643"><ele>17.4</ele><time>2021-02-18T11:56:50Z</time><name>PT4585</name></trkpt>
<trkpt lat="53.460899" lon="05.862662"><ele>17.5</ele><time>2021-02-18T11:56:50Z</time><name>PT4586</name></trkpt>
<trkpt lat="53.460899" lon="05.862682"><ele>17.6</ele><time>2021-02-18T11:56:51Z</time><name>PT4587</name></trkpt>
<trkpt lat="53.460899" lon="05.862703"><ele>17.7</ele><time>2021-02-18T11:56:53Z</time><name>PT4588</name></trkpt>
<trkpt lat="53.460899" lon="05.862725"><ele>17.8</ele><time>2021-02-18T11:56:53Z</time><name>PT4589</name></trkpt>
<trkpt lat="53.460901" lon="05.862746"><ele>18</ele><time>2021-02-18T11:56:54Z</time><name>PT4590</name></trkpt>
<trkpt lat="53.460902" lon="05.862766"><ele>17.9</ele><time>2021-02-18T11:56:56Z</time><name>PT4591</name></trkpt>
<trkpt lat="53.460902" lon="05.862785"><ele>17.7</ele><time>2021-02-18T11:56:56Z</time><name>PT4592</name></trkpt>
<trkpt lat="53.460902" lon="05.862803"><ele>17.8</ele><time>2021-02-18T11:56:57Z</time><name>PT4593</name></trkpt>
<trkpt lat="53.460902" lon="05.862818"><ele>17.7</ele><time>2021-02-18T11:56:59Z</time><name>PT4594</name></trkpt>
<trkpt lat="53.460903" lon="05.862837"><ele>17.9</ele><time>2021-02-18T11:56:59Z</time><name>PT4595</name></trkpt>
<trkpt lat="53.460902" lon="05.862856"><ele>18.1</ele><time>2021-02-18T11:57:00Z</time><name>PT4596</name></trkpt>
<trkpt lat="53.460903" lon="05.862876"><ele>18.2</ele><time>2021-02-18T11:57:02Z</time><name>PT4597</name></trkpt>
<trkpt lat="53.460902" lon="05.862895"><ele>18.2</ele><time>2021-02-18T11:57:02Z</time><name>PT4598</name></trkpt>
<trkpt lat="53.460900" lon="05.862913"><ele>18.1</ele><time>2021-02-18T11:57:03Z</time><name>PT4599</name></trkpt>
<trkpt lat="53.460898" lon="05.862934"><ele>18.1</ele><time>2021-02-18T11:57:05Z</time><name>PT4600</name></trkpt>
<trkpt lat="53.460898" lon="05.862956"><ele>18</ele><time>2021-02-18T11:57:05Z</time><name>PT4601</name></trkpt>
<trkpt lat="53.460896" lon="05.862976"><ele>18</ele><time>2021-02-18T11:57:06Z</time><name>PT4602</name></trkpt>
<trkpt lat="53.460895" lon="05.862995"><ele>17.9</ele><time>2021-02-18T11:57:08Z</time><name>PT4603</name></trkpt>
<trkpt lat="53.460896" lon="05.863015"><ele>17.9</ele><time>2021-02-18T11:57:08Z</time><name>PT4604</name></trkpt>
<trkpt lat="53.460895" lon="05.863038"><ele>17.7</ele><time>2021-02-18T11:57:09Z</time><name>PT4605</name></trkpt>
<trkpt lat="53.460897" lon="05.863059"><ele>17.6</ele><time>2021-02-18T11:57:11Z</time><name>PT4606</name></trkpt>
<trkpt lat="53.460897" lon="05.863081"><ele>17.6</ele><time>2021-02-18T11:57:11Z</time><name>PT4607</name></trkpt>
<trkpt lat="53.460900" lon="05.863101"><ele>17.7</ele><time>2021-02-18T11:57:12Z</time><name>PT4608</name></trkpt>
<trkpt lat="53.460900" lon="05.863119"><ele>17.9</ele><time>2021-02-18T11:57:14Z</time><name>PT4609</name></trkpt>
<trkpt lat="53.460900" lon="05.863136"><ele>18</ele><time>2021-02-18T11:57:14Z</time><name>PT4610</name></trkpt>
<trkpt lat="53.460902" lon="05.863153"><ele>18.2</ele><time>2021-02-18T11:57:15Z</time><name>PT4611</name></trkpt>
<trkpt lat="53.460902" lon="05.863172"><ele>18.2</ele><time>2021-02-18T11:57:17Z</time><name>PT4612</name></trkpt>
<trkpt lat="53.460901" lon="05.863191"><ele>18.2</ele><time>2021-02-18T11:57:17Z</time><name>PT4613</name></trkpt>
<trkpt lat="53.460899" lon="05.863212"><ele>18.3</ele><time>2021-02-18T11:57:18Z</time><name>PT4614</name></trkpt>
<trkpt lat="53.460896" lon="05.863230"><ele>18.3</ele><time>2021-02-18T11:57:20Z</time><name>PT4615</name></trkpt>
<trkpt lat="53.460893" lon="05.863250"><ele>18.2</ele><time>2021-02-18T11:57:20Z</time><name>PT4616</name></trkpt>
<trkpt lat="53.460891" lon="05.863270"><ele>17.8</ele><time>2021-02-18T11:57:21Z</time><name>PT4617</name></trkpt>
<trkpt lat="53.460890" lon="05.863289"><ele>17.7</ele><time>2021-02-18T11:57:23Z</time><name>PT4618</name></trkpt>
<trkpt lat="53.460889" lon="05.863312"><ele>17.6</ele><time>2021-02-18T11:57:23Z</time><name>PT4619</name></trkpt>
<trkpt lat="53.460890" lon="05.863331"><ele>17.6</ele><time>2021-02-18T11:57:24Z</time><name>PT4620</name></trkpt>
<trkpt lat="53.460890" lon="05.863350"><ele>17.7</ele><time>2021-02-18T11:57:26Z</time><name>PT4621</name></trkpt>
<trkpt lat="53.460886" lon="05.863367"><ele>17.8</ele><time>2021-02-18T11:57:26Z</time><name>PT4622</name></trkpt>
<trkpt lat="53.460887" lon="05.863386"><ele>17.9</ele><time>2021-02-18T11:57:27Z</time><name>PT4623</name></trkpt>
<trkpt lat="53.460893" lon="05.863405"><ele>18.1</ele><time>2021-02-18T11:57:29Z</time><name>PT4624</name></trkpt>
<trkpt lat="53.460895" lon="05.863422"><ele>18</ele><time>2021-02-18T11:57:29Z</time><name>PT4625</name></trkpt>
<trkpt lat="53.460895" lon="05.863443"><ele>18.1</ele><time>2021-02-18T11:57:30Z</time><name>PT4626</name></trkpt>
<trkpt lat="53.460896" lon="05.863462"><ele>18.2</ele><time>2021-02-18T11:57:32Z</time><name>PT4627</name></trkpt>
<trkpt lat="53.460898" lon="05.863482"><ele>18.2</ele><time>2021-02-18T11:57:32Z</time><name>PT4628</name></trkpt>
<trkpt lat="53.460900" lon="05.863500"><ele>18.1</ele><time>2021-02-18T11:57:33Z</time><name>PT4629</name></trkpt>
<trkpt lat="53.460899" lon="05.863520"><ele>17.8</ele><time>2021-02-18T11:57:35Z</time><name>PT4630</name></trkpt>
<trkpt lat="53.460896" lon="05.863539"><ele>18</ele><time>2021-02-18T11:57:35Z</time><name>PT4631</name></trkpt>
<trkpt lat="53.460893" lon="05.863560"><ele>18.1</ele><time>2021-02-18T11:57:36Z</time><name>PT4632</name></trkpt>
<trkpt lat="53.460893" lon="05.863579"><ele>18.2</ele><time>2021-02-18T11:57:38Z</time><name>PT4633</name></trkpt>
<trkpt lat="53.460892" lon="05.863599"><ele>18.3</ele><time>2021-02-18T11:57:38Z</time><name>PT4634</name></trkpt>
<trkpt lat="53.460892" lon="05.863618"><ele>18.2</ele><time>2021-02-18T11:57:39Z</time><name>PT4635</name></trkpt>
<trkpt lat="53.460892" lon="05.863636"><ele>18.2</ele><time>2021-02-18T11:57:41Z</time><name>PT4636</name></trkpt>
<trkpt lat="53.460891" lon="05.863656"><ele>18.1</ele><time>2021-02-18T11:57:41Z</time><name>PT4637</name></trkpt>
<trkpt lat="53.460891" lon="05.863674"><ele>18.2</ele><time>2021-02-18T11:57:42Z</time><name>PT4638</name></trkpt>
<trkpt lat="53.460890" lon="05.863691"><ele>18.4</ele><time>2021-02-18T11:57:44Z</time><name>PT4639</name></trkpt>
<trkpt lat="53.460891" lon="05.863713"><ele>18.5</ele><time>2021-02-18T11:57:44Z</time><name>PT4640</name></trkpt>
<trkpt lat="53.460891" lon="05.863733"><ele>18.6</ele><time>2021-02-18T11:57:45Z</time><name>PT4641</name></trkpt>
<trkpt lat="53.460892" lon="05.863756"><ele>18.6</ele><time>2021-02-18T11:57:47Z</time><name>PT4642</name></trkpt>
<trkpt lat="53.460890" lon="05.863774"><ele>18.6</ele><time>2021-02-18T11:57:47Z</time><name>PT4643</name></trkpt>
<trkpt lat="53.460889" lon="05.863795"><ele>18.5</ele><time>2021-02-18T11:57:48Z</time><name>PT4644</name></trkpt>
<trkpt lat="53.460887" lon="05.863815"><ele>18.6</ele><time>2021-02-18T11:57:50Z</time><name>PT4645</name></trkpt>
<trkpt lat="53.460886" lon="05.863837"><ele>18.7</ele><time>2021-02-18T11:57:50Z</time><name>PT4646</name></trkpt>
<trkpt lat="53.460884" lon="05.863859"><ele>18.6</ele><time>2021-02-18T11:57:51Z</time><name>PT4647</name></trkpt>
<trkpt lat="53.460882" lon="05.863880"><ele>18.6</ele><time>2021-02-18T11:57:53Z</time><name>PT4648</name></trkpt>
<trkpt lat="53.460879" lon="05.863899"><ele>18.6</ele><time>2021-02-18T11:57:53Z</time><name>PT4649</name></trkpt>
<trkpt lat="53.460877" lon="05.863921"><ele>18.6</ele><time>2021-02-18T11:57:54Z</time><name>PT4650</name></trkpt>
<trkpt lat="53.460878" lon="05.863947"><ele>18.8</ele><time>2021-02-18T11:57:56Z</time><name>PT4651</name></trkpt>
<trkpt lat="53.460875" lon="05.863965"><ele>18.7</ele><time>2021-02-18T11:57:56Z</time><name>PT4652</name></trkpt>
<trkpt lat="53.460875" lon="05.863984"><ele>18.6</ele><time>2021-02-18T11:57:57Z</time><name>PT4653</name></trkpt>
<trkpt lat="53.460875" lon="05.864002"><ele>18.7</ele><time>2021-02-18T11:57:59Z</time><name>PT4654</name></trkpt>
<trkpt lat="53.460875" lon="05.864023"><ele>18.6</ele><time>2021-02-18T11:57:59Z</time><name>PT4655</name></trkpt>
<trkpt lat="53.460873" lon="05.864044"><ele>18.5</ele><time>2021-02-18T11:58:00Z</time><name>PT4656</name></trkpt>
<trkpt lat="53.460871" lon="05.864066"><ele>18.6</ele><time>2021-02-18T11:58:02Z</time><name>PT4657</name></trkpt>
<trkpt lat="53.460870" lon="05.864089"><ele>18.5</ele><time>2021-02-18T11:58:02Z</time><name>PT4658</name></trkpt>
<trkpt lat="53.460870" lon="05.864110"><ele>18.4</ele><time>2021-02-18T11:58:03Z</time><name>PT4659</name></trkpt>
<trkpt lat="53.460869" lon="05.864129"><ele>18.7</ele><time>2021-02-18T11:58:05Z</time><name>PT4660</name></trkpt>
<trkpt lat="53.460868" lon="05.864149"><ele>18.7</ele><time>2021-02-18T11:58:05Z</time><name>PT4661</name></trkpt>
<trkpt lat="53.460868" lon="05.864170"><ele>18.6</ele><time>2021-02-18T11:58:06Z</time><name>PT4662</name></trkpt>
<trkpt lat="53.460868" lon="05.864195"><ele>18.5</ele><time>2021-02-18T11:58:08Z</time><name>PT4663</name></trkpt>
<trkpt lat="53.460868" lon="05.864218"><ele>18.5</ele><time>2021-02-18T11:58:08Z</time><name>PT4664</name></trkpt>
<trkpt lat="53.460869" lon="05.864237"><ele>18.6</ele><time>2021-02-18T11:58:09Z</time><name>PT4665</name></trkpt>
<trkpt lat="53.460869" lon="05.864259"><ele>18.8</ele><time>2021-02-18T11:58:11Z</time><name>PT4666</name></trkpt>
<trkpt lat="53.460867" lon="05.864278"><ele>19</ele><time>2021-02-18T11:58:11Z</time><name>PT4667</name></trkpt>
<trkpt lat="53.460866" lon="05.864297"><ele>19.2</ele><time>2021-02-18T11:58:12Z</time><name>PT4668</name></trkpt>
<trkpt lat="53.460866" lon="05.864319"><ele>19</ele><time>2021-02-18T11:58:14Z</time><name>PT4669</name></trkpt>
<trkpt lat="53.460866" lon="05.864342"><ele>18.9</ele><time>2021-02-18T11:58:14Z</time><name>PT4670</name></trkpt>
<trkpt lat="53.460866" lon="05.864363"><ele>18.8</ele><time>2021-02-18T11:58:15Z</time><name>PT4671</name></trkpt>
<trkpt lat="53.460866" lon="05.864384"><ele>18.6</ele><time>2021-02-18T11:58:17Z</time><name>PT4672</name></trkpt>
<trkpt lat="53.460865" lon="05.864406"><ele>18.6</ele><time>2021-02-18T11:58:17Z</time><name>PT4673</name></trkpt>
<trkpt lat="53.460864" lon="05.864430"><ele>18.6</ele><time>2021-02-18T11:58:18Z</time><name>PT4674</name></trkpt>
<trkpt lat="53.460862" lon="05.864452"><ele>18.5</ele><time>2021-02-18T11:58:20Z</time><name>PT4675</name></trkpt>
<trkpt lat="53.460859" lon="05.864471"><ele>18.7</ele><time>2021-02-18T11:58:20Z</time><name>PT4676</name></trkpt>
<trkpt lat="53.460858" lon="05.864492"><ele>19</ele><time>2021-02-18T11:58:21Z</time><name>PT4677</name></trkpt>
<trkpt lat="53.460856" lon="05.864512"><ele>19.1</ele><time>2021-02-18T11:58:23Z</time><name>PT4678</name></trkpt>
<trkpt lat="53.460854" lon="05.864533"><ele>19.1</ele><time>2021-02-18T11:58:23Z</time><name>PT4679</name></trkpt>
<trkpt lat="53.460852" lon="05.864555"><ele>19.4</ele><time>2021-02-18T11:58:24Z</time><name>PT4680</name></trkpt>
<trkpt lat="53.460850" lon="05.864575"><ele>19.1</ele><time>2021-02-18T11:58:26Z</time><name>PT4681</name></trkpt>
<trkpt lat="53.460847" lon="05.864594"><ele>19.1</ele><time>2021-02-18T11:58:26Z</time><name>PT4682</name></trkpt>
<trkpt lat="53.460846" lon="05.864615"><ele>19</ele><time>2021-02-18T11:58:27Z</time><name>PT4683</name></trkpt>
<trkpt lat="53.460845" lon="05.864636"><ele>18.6</ele><time>2021-02-18T11:58:29Z</time><name>PT4684</name></trkpt>
<trkpt lat="53.460844" lon="05.864657"><ele>18.7</ele><time>2021-02-18T11:58:29Z</time><name>PT4685</name></trkpt>
<trkpt lat="53.460844" lon="05.864681"><ele>18.7</ele><time>2021-02-18T11:58:30Z</time><name>PT4686</name></trkpt>
<trkpt lat="53.460844" lon="05.864701"><ele>18.6</ele><time>2021-02-18T11:58:32Z</time><name>PT4687</name></trkpt>
<trkpt lat="53.460845" lon="05.864721"><ele>18.8</ele><time>2021-02-18T11:58:32Z</time><name>PT4688</name></trkpt>
<trkpt lat="53.460843" lon="05.864742"><ele>18.7</ele><time>2021-02-18T11:58:33Z</time><name>PT4689</name></trkpt>
<trkpt lat="53.460844" lon="05.864763"><ele>18.7</ele><time>2021-02-18T11:58:35Z</time><name>PT4690</name></trkpt>
<trkpt lat="53.460845" lon="05.864782"><ele>18.8</ele><time>2021-02-18T11:58:35Z</time><name>PT4691</name></trkpt>
<trkpt lat="53.460846" lon="05.864794"><ele>18.9</ele><time>2021-02-18T11:58:36Z</time><name>PT4692</name></trkpt>
<trkpt lat="53.460843" lon="05.864809"><ele>19.1</ele><time>2021-02-18T11:58:38Z</time><name>PT4693</name></trkpt>
<trkpt lat="53.460841" lon="05.864819"><ele>19.1</ele><time>2021-02-18T11:58:38Z</time><name>PT4694</name></trkpt>
<trkpt lat="53.460841" lon="05.864833"><ele>19</ele><time>2021-02-18T11:58:39Z</time><name>PT4695</name></trkpt>
<trkpt lat="53.460841" lon="05.864852"><ele>18.8</ele><time>2021-02-18T11:58:41Z</time><name>PT4696</name></trkpt>
<trkpt lat="53.460840" lon="05.864871"><ele>18.7</ele><time>2021-02-18T11:58:41Z</time><name>PT4697</name></trkpt>
<trkpt lat="53.460839" lon="05.864892"><ele>18.9</ele><time>2021-02-18T11:58:42Z</time><name>PT4698</name></trkpt>
<trkpt lat="53.460838" lon="05.864910"><ele>19</ele><time>2021-02-18T11:58:44Z</time><name>PT4699</name></trkpt>
<trkpt lat="53.460838" lon="05.864927"><ele>19.1</ele><time>2021-02-18T11:58:44Z</time><name>PT4700</name></trkpt>
<trkpt lat="53.460840" lon="05.864947"><ele>19.1</ele><time>2021-02-18T11:58:45Z</time><name>PT4701</name></trkpt>
<trkpt lat="53.460841" lon="05.864966"><ele>18.9</ele><time>2021-02-18T11:58:47Z</time><name>PT4702</name></trkpt>
<trkpt lat="53.460841" lon="05.864984"><ele>18.8</ele><time>2021-02-18T11:58:47Z</time><name>PT4703</name></trkpt>
<trkpt lat="53.460843" lon="05.865005"><ele>18.7</ele><time>2021-02-18T11:58:48Z</time><name>PT4704</name></trkpt>
<trkpt lat="53.460842" lon="05.865026"><ele>18.8</ele><time>2021-02-18T11:58:50Z</time><name>PT4705</name></trkpt>
<trkpt lat="53.460841" lon="05.865046"><ele>18.8</ele><time>2021-02-18T11:58:50Z</time><name>PT4706</name></trkpt>
<trkpt lat="53.460837" lon="05.865064"><ele>18.7</ele><time>2021-02-18T11:58:51Z</time><name>PT4707</name></trkpt>
<trkpt lat="53.460838" lon="05.865086"><ele>18.7</ele><time>2021-02-18T11:58:53Z</time><name>PT4708</name></trkpt>
<trkpt lat="53.460839" lon="05.865110"><ele>18.5</ele><time>2021-02-18T11:58:53Z</time><name>PT4709</name></trkpt>
<trkpt lat="53.460839" lon="05.865130"><ele>18.3</ele><time>2021-02-18T11:58:54Z</time><name>PT4710</name></trkpt>
<trkpt lat="53.460838" lon="05.865151"><ele>17.9</ele><time>2021-02-18T11:58:56Z</time><name>PT4711</name></trkpt>
<trkpt lat="53.460837" lon="05.865169"><ele>17.7</ele><time>2021-02-18T11:58:56Z</time><name>PT4712</name></trkpt>
<trkpt lat="53.460835" lon="05.865191"><ele>17.6</ele><time>2021-02-18T11:58:57Z</time><name>PT4713</name></trkpt>
<trkpt lat="53.460833" lon="05.865212"><ele>17.7</ele><time>2021-02-18T11:58:59Z</time><name>PT4714</name></trkpt>
<trkpt lat="53.460832" lon="05.865233"><ele>18</ele><time>2021-02-18T11:58:59Z</time><name>PT4715</name></trkpt>
<trkpt lat="53.460830" lon="05.865256"><ele>18.1</ele><time>2021-02-18T11:59:00Z</time><name>PT4716</name></trkpt>
<trkpt lat="53.460829" lon="05.865277"><ele>18.2</ele><time>2021-02-18T11:59:02Z</time><name>PT4717</name></trkpt>
<trkpt lat="53.460827" lon="05.865300"><ele>18.2</ele><time>2021-02-18T11:59:02Z</time><name>PT4718</name></trkpt>
<trkpt lat="53.460827" lon="05.865321"><ele>18.2</ele><time>2021-02-18T11:59:03Z</time><name>PT4719</name></trkpt>
<trkpt lat="53.460826" lon="05.865340"><ele>18.1</ele><time>2021-02-18T11:59:05Z</time><name>PT4720</name></trkpt>
<trkpt lat="53.460825" lon="05.865360"><ele>18.1</ele><time>2021-02-18T11:59:05Z</time><name>PT4721</name></trkpt>
<trkpt lat="53.460824" lon="05.865381"><ele>18.2</ele><time>2021-02-18T11:59:06Z</time><name>PT4722</name></trkpt>
<trkpt lat="53.460824" lon="05.865400"><ele>18.2</ele><time>2021-02-18T11:59:08Z</time><name>PT4723</name></trkpt>
<trkpt lat="53.460823" lon="05.865420"><ele>18.3</ele><time>2021-02-18T11:59:08Z</time><name>PT4724</name></trkpt>
<trkpt lat="53.460823" lon="05.865441"><ele>18.6</ele><time>2021-02-18T11:59:09Z</time><name>PT4725</name></trkpt>
<trkpt lat="53.460825" lon="05.865461"><ele>18.5</ele><time>2021-02-18T11:59:11Z</time><name>PT4726</name></trkpt>
<trkpt lat="53.460827" lon="05.865476"><ele>18.5</ele><time>2021-02-18T11:59:11Z</time><name>PT4727</name></trkpt>
<trkpt lat="53.460828" lon="05.865495"><ele>18.5</ele><time>2021-02-18T11:59:12Z</time><name>PT4728</name></trkpt>
<trkpt lat="53.460831" lon="05.865515"><ele>18.3</ele><time>2021-02-18T11:59:14Z</time><name>PT4729</name></trkpt>
<trkpt lat="53.460833" lon="05.865535"><ele>18.4</ele><time>2021-02-18T11:59:14Z</time><name>PT4730</name></trkpt>
<trkpt lat="53.460833" lon="05.865554"><ele>18.5</ele><time>2021-02-18T11:59:15Z</time><name>PT4731</name></trkpt>
<trkpt lat="53.460836" lon="05.865572"><ele>18.5</ele><time>2021-02-18T11:59:17Z</time><name>PT4732</name></trkpt>
<trkpt lat="53.460837" lon="05.865589"><ele>18.4</ele><time>2021-02-18T11:59:17Z</time><name>PT4733</name></trkpt>
<trkpt lat="53.460838" lon="05.865606"><ele>18.5</ele><time>2021-02-18T11:59:18Z</time><name>PT4734</name></trkpt>
<trkpt lat="53.460839" lon="05.865623"><ele>18.6</ele><time>2021-02-18T11:59:20Z</time><name>PT4735</name></trkpt>
<trkpt lat="53.460837" lon="05.865641"><ele>18.6</ele><time>2021-02-18T11:59:20Z</time><name>PT4736</name></trkpt>
<trkpt lat="53.460835" lon="05.865664"><ele>18.4</ele><time>2021-02-18T11:59:21Z</time><name>PT4737</name></trkpt>
<trkpt lat="53.460835" lon="05.865687"><ele>18.5</ele><time>2021-02-18T11:59:23Z</time><name>PT4738</name></trkpt>
<trkpt lat="53.460834" lon="05.865707"><ele>18.4</ele><time>2021-02-18T11:59:23Z</time><name>PT4739</name></trkpt>
<trkpt lat="53.460833" lon="05.865724"><ele>18.3</ele><time>2021-02-18T11:59:24Z</time><name>PT4740</name></trkpt>
<trkpt lat="53.460832" lon="05.865744"><ele>18.6</ele><time>2021-02-18T11:59:26Z</time><name>PT4741</name></trkpt>
<trkpt lat="53.460831" lon="05.865763"><ele>18.6</ele><time>2021-02-18T11:59:26Z</time><name>PT4742</name></trkpt>
<trkpt lat="53.460831" lon="05.865785"><ele>18.6</ele><time>2021-02-18T11:59:27Z</time><name>PT4743</name></trkpt>
<trkpt lat="53.460829" lon="05.865804"><ele>18.6</ele><time>2021-02-18T11:59:29Z</time><name>PT4744</name></trkpt>
<trkpt lat="53.460827" lon="05.865828"><ele>18.5</ele><time>2021-02-18T11:59:29Z</time><name>PT4745</name></trkpt>
<trkpt lat="53.460826" lon="05.865849"><ele>18.6</ele><time>2021-02-18T11:59:30Z</time><name>PT4746</name></trkpt>
<trkpt lat="53.460825" lon="05.865870"><ele>18.5</ele><time>2021-02-18T11:59:32Z</time><name>PT4747</name></trkpt>
<trkpt lat="53.460824" lon="05.865892"><ele>18.6</ele><time>2021-02-18T11:59:32Z</time><name>PT4748</name></trkpt>
<trkpt lat="53.460824" lon="05.865915"><ele>18.8</ele><time>2021-02-18T11:59:33Z</time><name>PT4749</name></trkpt>
<trkpt lat="53.460822" lon="05.865937"><ele>18.6</ele><time>2021-02-18T11:59:35Z</time><name>PT4750</name></trkpt>
<trkpt lat="53.460821" lon="05.865959"><ele>18.6</ele><time>2021-02-18T11:59:35Z</time><name>PT4751</name></trkpt>
<trkpt lat="53.460817" lon="05.865983"><ele>18.6</ele><time>2021-02-18T11:59:36Z</time><name>PT4752</name></trkpt>
<trkpt lat="53.460814" lon="05.866003"><ele>18.5</ele><time>2021-02-18T11:59:38Z</time><name>PT4753</name></trkpt>
<trkpt lat="53.460814" lon="05.866023"><ele>18.6</ele><time>2021-02-18T11:59:38Z</time><name>PT4754</name></trkpt>
<trkpt lat="53.460814" lon="05.866043"><ele>18.9</ele><time>2021-02-18T11:59:39Z</time><name>PT4755</name></trkpt>
<trkpt lat="53.460813" lon="05.866062"><ele>18.6</ele><time>2021-02-18T11:59:41Z</time><name>PT4756</name></trkpt>
<trkpt lat="53.460813" lon="05.866085"><ele>18.6</ele><time>2021-02-18T11:59:41Z</time><name>PT4757</name></trkpt>
<trkpt lat="53.460814" lon="05.866104"><ele>18.6</ele><time>2021-02-18T11:59:42Z</time><name>PT4758</name></trkpt>
<trkpt lat="53.460814" lon="05.866126"><ele>18.3</ele><time>2021-02-18T11:59:44Z</time><name>PT4759</name></trkpt>
<trkpt lat="53.460815" lon="05.866148"><ele>18.2</ele><time>2021-02-18T11:59:44Z</time><name>PT4760</name></trkpt>
<trkpt lat="53.460815" lon="05.866167"><ele>18.6</ele><time>2021-02-18T11:59:45Z</time><name>PT4761</name></trkpt>
<trkpt lat="53.460815" lon="05.866187"><ele>18.5</ele><time>2021-02-18T11:59:47Z</time><name>PT4762</name></trkpt>
<trkpt lat="53.460815" lon="05.866206"><ele>18.5</ele><time>2021-02-18T11:59:47Z</time><name>PT4763</name></trkpt>
<trkpt lat="53.460814" lon="05.866228"><ele>18.6</ele><time>2021-02-18T11:59:48Z</time><name>PT4764</name></trkpt>
<trkpt lat="53.460812" lon="05.866249"><ele>18.6</ele><time>2021-02-18T11:59:50Z</time><name>PT4765</name></trkpt>
<trkpt lat="53.460812" lon="05.866270"><ele>18.4</ele><time>2021-02-18T11:59:50Z</time><name>PT4766</name></trkpt>
<trkpt lat="53.460814" lon="05.866290"><ele>18.3</ele><time>2021-02-18T11:59:51Z</time><name>PT4767</name></trkpt>
<trkpt lat="53.460816" lon="05.866310"><ele>18.3</ele><time>2021-02-18T11:59:53Z</time><name>PT4768</name></trkpt>
<trkpt lat="53.460817" lon="05.866327"><ele>18.4</ele><time>2021-02-18T11:59:53Z</time><name>PT4769</name></trkpt>
<trkpt lat="53.460817" lon="05.866346"><ele>18.5</ele><time>2021-02-18T11:59:54Z</time><name>PT4770</name></trkpt>
<trkpt lat="53.460817" lon="05.866363"><ele>18.6</ele><time>2021-02-18T11:59:56Z</time><name>PT4771</name></trkpt>
<trkpt lat="53.460818" lon="05.866377"><ele>18.5</ele><time>2021-02-18T11:59:56Z</time><name>PT4772</name></trkpt>
<trkpt lat="53.460819" lon="05.866395"><ele>18.4</ele><time>2021-02-18T11:59:57Z</time><name>PT4773</name></trkpt>
<trkpt lat="53.460819" lon="05.866416"><ele>18.1</ele><time>2021-02-18T11:59:59Z</time><name>PT4774</name></trkpt>
<trkpt lat="53.460819" lon="05.866435"><ele>18.1</ele><time>2021-02-18T11:59:59Z</time><name>PT4775</name></trkpt>
<trkpt lat="53.460818" lon="05.866455"><ele>18.1</ele><time>2021-02-18T12:00:00Z</time><name>PT4776</name></trkpt>
<trkpt lat="53.460817" lon="05.866475"><ele>18.1</ele><time>2021-02-18T12:00:02Z</time><name>PT4777</name></trkpt>
<trkpt lat="53.460816" lon="05.866495"><ele>18.2</ele><time>2021-02-18T12:00:02Z</time><name>PT4778</name></trkpt>
<trkpt lat="53.460816" lon="05.866516"><ele>18.2</ele><time>2021-02-18T12:00:03Z</time><name>PT4779</name></trkpt>
<trkpt lat="53.460815" lon="05.866537"><ele>18.2</ele><time>2021-02-18T12:00:05Z</time><name>PT4780</name></trkpt>
<trkpt lat="53.460813" lon="05.866558"><ele>18.3</ele><time>2021-02-18T12:00:05Z</time><name>PT4781</name></trkpt>
<trkpt lat="53.460812" lon="05.866578"><ele>18.2</ele><time>2021-02-18T12:00:06Z</time><name>PT4782</name></trkpt>
<trkpt lat="53.460810" lon="05.866598"><ele>18.3</ele><time>2021-02-18T12:00:08Z</time><name>PT4783</name></trkpt>
<trkpt lat="53.460808" lon="05.866620"><ele>18.2</ele><time>2021-02-18T12:00:08Z</time><name>PT4784</name></trkpt>
<trkpt lat="53.460805" lon="05.866641"><ele>18.5</ele><time>2021-02-18T12:00:09Z</time><name>PT4785</name></trkpt>
<trkpt lat="53.460805" lon="05.866661"><ele>18.7</ele><time>2021-02-18T12:00:11Z</time><name>PT4786</name></trkpt>
<trkpt lat="53.460804" lon="05.866682"><ele>18.7</ele><time>2021-02-18T12:00:11Z</time><name>PT4787</name></trkpt>
<trkpt lat="53.460802" lon="05.866703"><ele>18.8</ele><time>2021-02-18T12:00:12Z</time><name>PT4788</name></trkpt>
<trkpt lat="53.460802" lon="05.866723"><ele>18.9</ele><time>2021-02-18T12:00:14Z</time><name>PT4789</name></trkpt>
<trkpt lat="53.460801" lon="05.866741"><ele>18.7</ele><time>2021-02-18T12:00:14Z</time><name>PT4790</name></trkpt>
<trkpt lat="53.460801" lon="05.866761"><ele>18.6</ele><time>2021-02-18T12:00:15Z</time><name>PT4791</name></trkpt>
<trkpt lat="53.460801" lon="05.866781"><ele>18.4</ele><time>2021-02-18T12:00:17Z</time><name>PT4792</name></trkpt>
<trkpt lat="53.460802" lon="05.866802"><ele>18.4</ele><time>2021-02-18T12:00:17Z</time><name>PT4793</name></trkpt>
<trkpt lat="53.460801" lon="05.866824"><ele>18.4</ele><time>2021-02-18T12:00:18Z</time><name>PT4794</name></trkpt>
<trkpt lat="53.460801" lon="05.866843"><ele>18.4</ele><time>2021-02-18T12:00:20Z</time><name>PT4795</name></trkpt>
<trkpt lat="53.460800" lon="05.866866"><ele>18.6</ele><time>2021-02-18T12:00:20Z</time><name>PT4796</name></trkpt>
<trkpt lat="53.460800" lon="05.866885"><ele>18.4</ele><time>2021-02-18T12:00:21Z</time><name>PT4797</name></trkpt>
<trkpt lat="53.460800" lon="05.866903"><ele>18.4</ele><time>2021-02-18T12:00:23Z</time><name>PT4798</name></trkpt>
<trkpt lat="53.460800" lon="05.866922"><ele>18.5</ele><time>2021-02-18T12:00:23Z</time><name>PT4799</name></trkpt>
<trkpt lat="53.460801" lon="05.866942"><ele>18.5</ele><time>2021-02-18T12:00:24Z</time><name>PT4800</name></trkpt>
<trkpt lat="53.460803" lon="05.866962"><ele>18.6</ele><time>2021-02-18T12:00:26Z</time><name>PT4801</name></trkpt>
<trkpt lat="53.460802" lon="05.866983"><ele>18.7</ele><time>2021-02-18T12:00:26Z</time><name>PT4802</name></trkpt>
<trkpt lat="53.460802" lon="05.867003"><ele>18.7</ele><time>2021-02-18T12:00:27Z</time><name>PT4803</name></trkpt>
<trkpt lat="53.460800" lon="05.867021"><ele>18.6</ele><time>2021-02-18T12:00:29Z</time><name>PT4804</name></trkpt>
<trkpt lat="53.460800" lon="05.867041"><ele>18.6</ele><time>2021-02-18T12:00:29Z</time><name>PT4805</name></trkpt>
<trkpt lat="53.460798" lon="05.867061"><ele>18.3</ele><time>2021-02-18T12:00:30Z</time><name>PT4806</name></trkpt>
<trkpt lat="53.460796" lon="05.867079"><ele>18.5</ele><time>2021-02-18T12:00:32Z</time><name>PT4807</name></trkpt>
<trkpt lat="53.460794" lon="05.867104"><ele>18.6</ele><time>2021-02-18T12:00:32Z</time><name>PT4808</name></trkpt>
<trkpt lat="53.460791" lon="05.867123"><ele>18.6</ele><time>2021-02-18T12:00:33Z</time><name>PT4809</name></trkpt>
<trkpt lat="53.460789" lon="05.867141"><ele>18.6</ele><time>2021-02-18T12:00:35Z</time><name>PT4810</name></trkpt>
<trkpt lat="53.460787" lon="05.867160"><ele>18.6</ele><time>2021-02-18T12:00:35Z</time><name>PT4811</name></trkpt>
<trkpt lat="53.460785" lon="05.867180"><ele>18.3</ele><time>2021-02-18T12:00:36Z</time><name>PT4812</name></trkpt>
<trkpt lat="53.460783" lon="05.867199"><ele>18.3</ele><time>2021-02-18T12:00:38Z</time><name>PT4813</name></trkpt>
<trkpt lat="53.460782" lon="05.867219"><ele>18.2</ele><time>2021-02-18T12:00:38Z</time><name>PT4814</name></trkpt>
<trkpt lat="53.460783" lon="05.867239"><ele>18.5</ele><time>2021-02-18T12:00:39Z</time><name>PT4815</name></trkpt>
<trkpt lat="53.460782" lon="05.867259"><ele>18.6</ele><time>2021-02-18T12:00:41Z</time><name>PT4816</name></trkpt>
<trkpt lat="53.460784" lon="05.867280"><ele>18.8</ele><time>2021-02-18T12:00:41Z</time><name>PT4817</name></trkpt>
<trkpt lat="53.460784" lon="05.867299"><ele>18.7</ele><time>2021-02-18T12:00:42Z</time><name>PT4818</name></trkpt>
<trkpt lat="53.460784" lon="05.867318"><ele>18.6</ele><time>2021-02-18T12:00:44Z</time><name>PT4819</name></trkpt>
<trkpt lat="53.460786" lon="05.867336"><ele>18.7</ele><time>2021-02-18T12:00:44Z</time><name>PT4820</name></trkpt>
<trkpt lat="53.460786" lon="05.867354"><ele>18.6</ele><time>2021-02-18T12:00:45Z</time><name>PT4821</name></trkpt>
<trkpt lat="53.460786" lon="05.867372"><ele>18.7</ele><time>2021-02-18T12:00:47Z</time><name>PT4822</name></trkpt>
<trkpt lat="53.460787" lon="05.867390"><ele>18.6</ele><time>2021-02-18T12:00:47Z</time><name>PT4823</name></trkpt>
<trkpt lat="53.460786" lon="05.867410"><ele>18.5</ele><time>2021-02-18T12:00:48Z</time><name>PT4824</name></trkpt>
<trkpt lat="53.460786" lon="05.867427"><ele>18.3</ele><time>2021-02-18T12:00:50Z</time><name>PT4825</name></trkpt>
<trkpt lat="53.460787" lon="05.867445"><ele>18.1</ele><time>2021-02-18T12:00:50Z</time><name>PT4826</name></trkpt>
<trkpt lat="53.460787" lon="05.867466"><ele>18</ele><time>2021-02-18T12:00:51Z</time><name>PT4827</name></trkpt>
<trkpt lat="53.460784" lon="05.867488"><ele>18.4</ele><time>2021-02-18T12:00:53Z</time><name>PT4828</name></trkpt>
<trkpt lat="53.460781" lon="05.867506"><ele>18.4</ele><time>2021-02-18T12:00:53Z</time><name>PT4829</name></trkpt>
<trkpt lat="53.460778" lon="05.867527"><ele>18.4</ele><time>2021-02-18T12:00:54Z</time><name>PT4830</name></trkpt>
<trkpt lat="53.460776" lon="05.867551"><ele>18.5</ele><time>2021-02-18T12:00:56Z</time><name>PT4831</name></trkpt>
<trkpt lat="53.460775" lon="05.867572"><ele>18.5</ele><time>2021-02-18T12:00:56Z</time><name>PT4832</name></trkpt>
<trkpt lat="53.460773" lon="05.867592"><ele>18.5</ele><time>2021-02-18T12:00:57Z</time><name>PT4833</name></trkpt>
<trkpt lat="53.460771" lon="05.867611"><ele>18.7</ele><time>2021-02-18T12:00:59Z</time><name>PT4834</name></trkpt>
<trkpt lat="53.460771" lon="05.867631"><ele>18.7</ele><time>2021-02-18T12:00:59Z</time><name>PT4835</name></trkpt>
<trkpt lat="53.460769" lon="05.867652"><ele>18.7</ele><time>2021-02-18T12:01:00Z</time><name>PT4836</name></trkpt>
<trkpt lat="53.460769" lon="05.867675"><ele>18.6</ele><time>2021-02-18T12:01:02Z</time><name>PT4837</name></trkpt>
<trkpt lat="53.460770" lon="05.867694"><ele>18.5</ele><time>2021-02-18T12:01:02Z</time><name>PT4838</name></trkpt>
<trkpt lat="53.460771" lon="05.867711"><ele>18.4</ele><time>2021-02-18T12:01:03Z</time><name>PT4839</name></trkpt>
<trkpt lat="53.460772" lon="05.867728"><ele>18.5</ele><time>2021-02-18T12:01:05Z</time><name>PT4840</name></trkpt>
<trkpt lat="53.460773" lon="05.867746"><ele>18.3</ele><time>2021-02-18T12:01:05Z</time><name>PT4841</name></trkpt>
<trkpt lat="53.460774" lon="05.867767"><ele>18.3</ele><time>2021-02-18T12:01:06Z</time><name>PT4842</name></trkpt>
<trkpt lat="53.460773" lon="05.867786"><ele>18.3</ele><time>2021-02-18T12:01:08Z</time><name>PT4843</name></trkpt>
<trkpt lat="53.460772" lon="05.867805"><ele>18.4</ele><time>2021-02-18T12:01:08Z</time><name>PT4844</name></trkpt>
<trkpt lat="53.460770" lon="05.867826"><ele>18.4</ele><time>2021-02-18T12:01:09Z</time><name>PT4845</name></trkpt>
<trkpt lat="53.460769" lon="05.867845"><ele>18.5</ele><time>2021-02-18T12:01:11Z</time><name>PT4846</name></trkpt>
<trkpt lat="53.460768" lon="05.867863"><ele>18.5</ele><time>2021-02-18T12:01:11Z</time><name>PT4847</name></trkpt>
<trkpt lat="53.460766" lon="05.867879"><ele>18.4</ele><time>2021-02-18T12:01:12Z</time><name>PT4848</name></trkpt>
<trkpt lat="53.460765" lon="05.867898"><ele>18.5</ele><time>2021-02-18T12:01:14Z</time><name>PT4849</name></trkpt>
<trkpt lat="53.460763" lon="05.867917"><ele>18.6</ele><time>2021-02-18T12:01:14Z</time><name>PT4850</name></trkpt>
<trkpt lat="53.460762" lon="05.867937"><ele>18.6</ele><time>2021-02-18T12:01:15Z</time><name>PT4851</name></trkpt>
<trkpt lat="53.460762" lon="05.867956"><ele>18.7</ele><time>2021-02-18T12:01:17Z</time><name>PT4852</name></trkpt>
<trkpt lat="53.460762" lon="05.867975"><ele>18.8</ele><time>2021-02-18T12:01:17Z</time><name>PT4853</name></trkpt>
<trkpt lat="53.460762" lon="05.867994"><ele>18.6</ele><time>2021-02-18T12:01:18Z</time><name>PT4854</name></trkpt>
<trkpt lat="53.460762" lon="05.868011"><ele>18.6</ele><time>2021-02-18T12:01:20Z</time><name>PT4855</name></trkpt>
<trkpt lat="53.460764" lon="05.868032"><ele>18.5</ele><time>2021-02-18T12:01:20Z</time><name>PT4856</name></trkpt>
<trkpt lat="53.460763" lon="05.868054"><ele>18.5</ele><time>2021-02-18T12:01:21Z</time><name>PT4857</name></trkpt>
<trkpt lat="53.460763" lon="05.868073"><ele>18.7</ele><time>2021-02-18T12:01:23Z</time><name>PT4858</name></trkpt>
<trkpt lat="53.460764" lon="05.868095"><ele>18.7</ele><time>2021-02-18T12:01:23Z</time><name>PT4859</name></trkpt>
<trkpt lat="53.460763" lon="05.868116"><ele>18.7</ele><time>2021-02-18T12:01:24Z</time><name>PT4860</name></trkpt>
<trkpt lat="53.460762" lon="05.868136"><ele>18.7</ele><time>2021-02-18T12:01:26Z</time><name>PT4861</name></trkpt>
<trkpt lat="53.460760" lon="05.868150"><ele>18.6</ele><time>2021-02-18T12:01:26Z</time><name>PT4862</name></trkpt>
<trkpt lat="53.460759" lon="05.868172"><ele>18.5</ele><time>2021-02-18T12:01:27Z</time><name>PT4863</name></trkpt>
<trkpt lat="53.460759" lon="05.868191"><ele>18.6</ele><time>2021-02-18T12:01:29Z</time><name>PT4864</name></trkpt>
<trkpt lat="53.460759" lon="05.868211"><ele>18.6</ele><time>2021-02-18T12:01:29Z</time><name>PT4865</name></trkpt>
<trkpt lat="53.460758" lon="05.868232"><ele>18.6</ele><time>2021-02-18T12:01:30Z</time><name>PT4866</name></trkpt>
<trkpt lat="53.460757" lon="05.868252"><ele>18.5</ele><time>2021-02-18T12:01:32Z</time><name>PT4867</name></trkpt>
<trkpt lat="53.460756" lon="05.868271"><ele>18.5</ele><time>2021-02-18T12:01:32Z</time><name>PT4868</name></trkpt>
<trkpt lat="53.460757" lon="05.868291"><ele>18.3</ele><time>2021-02-18T12:01:33Z</time><name>PT4869</name></trkpt>
<trkpt lat="53.460754" lon="05.868313"><ele>18.4</ele><time>2021-02-18T12:01:35Z</time><name>PT4870</name></trkpt>
<trkpt lat="53.460752" lon="05.868335"><ele>18.4</ele><time>2021-02-18T12:01:35Z</time><name>PT4871</name></trkpt>
<trkpt lat="53.460750" lon="05.868356"><ele>18.6</ele><time>2021-02-18T12:01:36Z</time><name>PT4872</name></trkpt>
<trkpt lat="53.460751" lon="05.868376"><ele>18.6</ele><time>2021-02-18T12:01:38Z</time><name>PT4873</name></trkpt>
<trkpt lat="53.460751" lon="05.868395"><ele>18.7</ele><time>2021-02-18T12:01:38Z</time><name>PT4874</name></trkpt>
<trkpt lat="53.460751" lon="05.868414"><ele>18.6</ele><time>2021-02-18T12:01:39Z</time><name>PT4875</name></trkpt>
<trkpt lat="53.460751" lon="05.868434"><ele>18.6</ele><time>2021-02-18T12:01:41Z</time><name>PT4876</name></trkpt>
<trkpt lat="53.460749" lon="05.868452"><ele>18.6</ele><time>2021-02-18T12:01:41Z</time><name>PT4877</name></trkpt>
<trkpt lat="53.460750" lon="05.868473"><ele>18.6</ele><time>2021-02-18T12:01:42Z</time><name>PT4878</name></trkpt>
<trkpt lat="53.460750" lon="05.868493"><ele>18.5</ele><time>2021-02-18T12:01:44Z</time><name>PT4879</name></trkpt>
<trkpt lat="53.460749" lon="05.868512"><ele>18.4</ele><time>2021-02-18T12:01:44Z</time><name>PT4880</name></trkpt>
<trkpt lat="53.460749" lon="05.868534"><ele>18.1</ele><time>2021-02-18T12:01:45Z</time><name>PT4881</name></trkpt>
<trkpt lat="53.460749" lon="05.868555"><ele>18</ele><time>2021-02-18T12:01:47Z</time><name>PT4882</name></trkpt>
<trkpt lat="53.460748" lon="05.868577"><ele>18.1</ele><time>2021-02-18T12:01:47Z</time><name>PT4883</name></trkpt>
<trkpt lat="53.460747" lon="05.868598"><ele>18.1</ele><time>2021-02-18T12:01:48Z</time><name>PT4884</name></trkpt>
<trkpt lat="53.460745" lon="05.868620"><ele>18.1</ele><time>2021-02-18T12:01:50Z</time><name>PT4885</name></trkpt>
<trkpt lat="53.460743" lon="05.868641"><ele>18.1</ele><time>2021-02-18T12:01:50Z</time><name>PT4886</name></trkpt>
<trkpt lat="53.460742" lon="05.868661"><ele>18.1</ele><time>2021-02-18T12:01:51Z</time><name>PT4887</name></trkpt>
<trkpt lat="53.460741" lon="05.868681"><ele>18.2</ele><time>2021-02-18T12:01:53Z</time><name>PT4888</name></trkpt>
<trkpt lat="53.460740" lon="05.868701"><ele>18.1</ele><time>2021-02-18T12:01:53Z</time><name>PT4889</name></trkpt>
<trkpt lat="53.460741" lon="05.868721"><ele>18</ele><time>2021-02-18T12:01:54Z</time><name>PT4890</name></trkpt>
<trkpt lat="53.460740" lon="05.868742"><ele>17.9</ele><time>2021-02-18T12:01:56Z</time><name>PT4891</name></trkpt>
<trkpt lat="53.460741" lon="05.868763"><ele>18</ele><time>2021-02-18T12:01:56Z</time><name>PT4892</name></trkpt>
<trkpt lat="53.460740" lon="05.868785"><ele>2.1</ele><time>2021-02-18T12:01:57Z</time><name>PT4893</name></trkpt>
<trkpt lat="53.460740" lon="05.868805"><ele>2.2</ele><time>2021-02-18T12:01:59Z</time><name>PT4894</name></trkpt>
<trkpt lat="53.460738" lon="05.868822"><ele>2.2</ele><time>2021-02-18T12:01:59Z</time><name>PT4895</name></trkpt>
<trkpt lat="53.460735" lon="05.868839"><ele>2.2</ele><time>2021-02-18T12:02:00Z</time><name>PT4896</name></trkpt>
<trkpt lat="53.460735" lon="05.868858"><ele>2.1</ele><time>2021-02-18T12:02:02Z</time><name>PT4897</name></trkpt>
<trkpt lat="53.460734" lon="05.868878"><ele>2.2</ele><time>2021-02-18T12:02:02Z</time><name>PT4898</name></trkpt>
<trkpt lat="53.460733" lon="05.868900"><ele>2.2</ele><time>2021-02-18T12:02:03Z</time><name>PT4899</name></trkpt>
<trkpt lat="53.460730" lon="05.868922"><ele>2.2</ele><time>2021-02-18T12:02:05Z</time><name>PT4900</name></trkpt>
<trkpt lat="53.460728" lon="05.868942"><ele>2.5</ele><time>2021-02-18T12:02:05Z</time><name>PT4901</name></trkpt>
<trkpt lat="53.460727" lon="05.868962"><ele>2.6</ele><time>2021-02-18T12:02:06Z</time><name>PT4902</name></trkpt>
<trkpt lat="53.460727" lon="05.868984"><ele>2.6</ele><time>2021-02-18T12:02:08Z</time><name>PT4903</name></trkpt>
<trkpt lat="53.460728" lon="05.869007"><ele>2.6</ele><time>2021-02-18T12:02:08Z</time><name>PT4904</name></trkpt>
<trkpt lat="53.460729" lon="05.869026"><ele>2.3</ele><time>2021-02-18T12:02:09Z</time><name>PT4905</name></trkpt>
<trkpt lat="53.460730" lon="05.869046"><ele>2.1</ele><time>2021-02-18T12:02:11Z</time><name>PT4906</name></trkpt>
<trkpt lat="53.460731" lon="05.869067"><ele>2.2</ele><time>2021-02-18T12:02:11Z</time><name>PT4907</name></trkpt>
<trkpt lat="53.460730" lon="05.869089"><ele>2.2</ele><time>2021-02-18T12:02:12Z</time><name>PT4908</name></trkpt>
<trkpt lat="53.460730" lon="05.869109"><ele>2.3</ele><time>2021-02-18T12:02:14Z</time><name>PT4909</name></trkpt>
<trkpt lat="53.460731" lon="05.869127"><ele>2.4</ele><time>2021-02-18T12:02:14Z</time><name>PT4910</name></trkpt>
<trkpt lat="53.460730" lon="05.869143"><ele>2.4</ele><time>2021-02-18T12:02:15Z</time><name>PT4911</name></trkpt>
<trkpt lat="53.460730" lon="05.869159"><ele>2.4</ele><time>2021-02-18T12:02:17Z</time><name>PT4912</name></trkpt>
<trkpt lat="53.460729" lon="05.869179"><ele>2.5</ele><time>2021-02-18T12:02:17Z</time><name>PT4913</name></trkpt>
<trkpt lat="53.460726" lon="05.869199"><ele>2.6</ele><time>2021-02-18T12:02:18Z</time><name>PT4914</name></trkpt>
<trkpt lat="53.460724" lon="05.869218"><ele>2.5</ele><time>2021-02-18T12:02:20Z</time><name>PT4915</name></trkpt>
<trkpt lat="53.460722" lon="05.869235"><ele>2.6</ele><time>2021-02-18T12:02:20Z</time><name>PT4916</name></trkpt>
<trkpt lat="53.460723" lon="05.869254"><ele>2.6</ele><time>2021-02-18T12:02:21Z</time><name>PT4917</name></trkpt>
<trkpt lat="53.460724" lon="05.869272"><ele>2.2</ele><time>2021-02-18T12:02:23Z</time><name>PT4918</name></trkpt>
<trkpt lat="53.460725" lon="05.869293"><ele>2.5</ele><time>2021-02-18T12:02:23Z</time><name>PT4919</name></trkpt>
<trkpt lat="53.460723" lon="05.869315"><ele>2.2</ele><time>2021-02-18T12:02:24Z</time><name>PT4920</name></trkpt>
<trkpt lat="53.460725" lon="05.869334"><ele>2.1</ele><time>2021-02-18T12:02:26Z</time><name>PT4921</name></trkpt>
<trkpt lat="53.460727" lon="05.869353"><ele>2.2</ele><time>2021-02-18T12:02:26Z</time><name>PT4922</name></trkpt>
<trkpt lat="53.460726" lon="05.869372"><ele>2.4</ele><time>2021-02-18T12:02:27Z</time><name>PT4923</name></trkpt>
<trkpt lat="53.460727" lon="05.869389"><ele>2.4</ele><time>2021-02-18T12:02:29Z</time><name>PT4924</name></trkpt>
<trkpt lat="53.460727" lon="05.869407"><ele>2.5</ele><time>2021-02-18T12:02:29Z</time><name>PT4925</name></trkpt>
<trkpt lat="53.460725" lon="05.869422"><ele>2.6</ele><time>2021-02-18T12:02:30Z</time><name>PT4926</name></trkpt>
<trkpt lat="53.460725" lon="05.869439"><ele>2.7</ele><time>2021-02-18T12:02:32Z</time><name>PT4927</name></trkpt>
<trkpt lat="53.460726" lon="05.869456"><ele>2.7</ele><time>2021-02-18T12:02:32Z</time><name>PT4928</name></trkpt>
<trkpt lat="53.460725" lon="05.869475"><ele>2.8</ele><time>2021-02-18T12:02:33Z</time><name>PT4929</name></trkpt>
<trkpt lat="53.460723" lon="05.869492"><ele>2.8</ele><time>2021-02-18T12:02:35Z</time><name>PT4930</name></trkpt>
<trkpt lat="53.460721" lon="05.869510"><ele>2.8</ele><time>2021-02-18T12:02:35Z</time><name>PT4931</name></trkpt>
<trkpt lat="53.460718" lon="05.869529"><ele>3.1</ele><time>2021-02-18T12:02:36Z</time><name>PT4932</name></trkpt>
<trkpt lat="53.460716" lon="05.869547"><ele>3.2</ele><time>2021-02-18T12:02:38Z</time><name>PT4933</name></trkpt>
<trkpt lat="53.460714" lon="05.869562"><ele>3.2</ele><time>2021-02-18T12:02:38Z</time><name>PT4934</name></trkpt>
<trkpt lat="53.460711" lon="05.869575"><ele>3</ele><time>2021-02-18T12:02:39Z</time><name>PT4935</name></trkpt>
<trkpt lat="53.460705" lon="05.869580"><ele>2.7</ele><time>2021-02-18T12:02:41Z</time><name>PT4936</name></trkpt>
<trkpt lat="53.460703" lon="05.869588"><ele>2.3</ele><time>2021-02-18T12:02:41Z</time><name>PT4937</name></trkpt>
<trkpt lat="53.460701" lon="05.869590"><ele>1.9</ele><time>2021-02-18T12:02:42Z</time><name>PT4938</name></trkpt>
<trkpt lat="53.460700" lon="05.869596"><ele>1.8</ele><time>2021-02-18T12:02:44Z</time><name>PT4939</name></trkpt>
<trkpt lat="53.460698" lon="05.869603"><ele>1.8</ele><time>2021-02-18T12:02:44Z</time><name>PT4940</name></trkpt>
<trkpt lat="53.460696" lon="05.869608"><ele>1.9</ele><time>2021-02-18T12:02:45Z</time><name>PT4941</name></trkpt>
<trkpt lat="53.460693" lon="05.869617"><ele>1.9</ele><time>2021-02-18T12:02:47Z</time><name>PT4942</name></trkpt>
<trkpt lat="53.460689" lon="05.869629"><ele>1.9</ele><time>2021-02-18T12:02:47Z</time><name>PT4943</name></trkpt>
<trkpt lat="53.460687" lon="05.869639"><ele>1.8</ele><time>2021-02-18T12:02:48Z</time><name>PT4944</name></trkpt>
<trkpt lat="53.460684" lon="05.869647"><ele>1.8</ele><time>2021-02-18T12:02:50Z</time><name>PT4945</name></trkpt>
<trkpt lat="53.460682" lon="05.869648"><ele>2</ele><time>2021-02-18T12:02:50Z</time><name>PT4946</name></trkpt>
<trkpt lat="53.460682" lon="05.869651"><ele>2.1</ele><time>2021-02-18T12:02:51Z</time><name>PT4947</name></trkpt>
<trkpt lat="53.460682" lon="05.869653"><ele>2.2</ele><time>2021-02-18T12:02:53Z</time><name>PT4948</name></trkpt>
<trkpt lat="53.460682" lon="05.869660"><ele>2.8</ele><time>2021-02-18T12:02:59Z</time><name>PT4949</name></trkpt>
<trkpt lat="53.460682" lon="05.869677"><ele>3</ele><time>2021-02-18T12:02:59Z</time><name>PT4950</name></trkpt>
<trkpt lat="53.460687" lon="05.869710"><ele>3.2</ele><time>2021-02-18T12:03:00Z</time><name>PT4951</name></trkpt>
<trkpt lat="53.460692" lon="05.869721"><ele>3.5</ele><time>2021-02-18T12:03:02Z</time><name>PT4952</name></trkpt>
<trkpt lat="53.460698" lon="05.869735"><ele>3.5</ele><time>2021-02-18T12:03:02Z</time><name>PT4953</name></trkpt>
<trkpt lat="53.460695" lon="05.869749"><ele>3.3</ele><time>2021-02-18T12:03:03Z</time><name>PT4954</name></trkpt>
<trkpt lat="53.460698" lon="05.869762"><ele>3.2</ele><time>2021-02-18T12:03:05Z</time><name>PT4955</name></trkpt>
<trkpt lat="53.460698" lon="05.869780"><ele>3.1</ele><time>2021-02-18T12:03:05Z</time><name>PT4956</name></trkpt>
<trkpt lat="53.460699" lon="05.869795"><ele>3</ele><time>2021-02-18T12:03:06Z</time><name>PT4957</name></trkpt>
<trkpt lat="53.460700" lon="05.869808"><ele>2.8</ele><time>2021-02-18T12:03:08Z</time><name>PT4958</name></trkpt>
<trkpt lat="53.460701" lon="05.869821"><ele>2.8</ele><time>2021-02-18T12:03:08Z</time><name>PT4959</name></trkpt>
<trkpt lat="53.460702" lon="05.869837"><ele>2.9</ele><time>2021-02-18T12:03:09Z</time><name>PT4960</name></trkpt>
<trkpt lat="53.460700" lon="05.869856"><ele>3.1</ele><time>2021-02-18T12:03:11Z</time><name>PT4961</name></trkpt>
<trkpt lat="53.460698" lon="05.869874"><ele>3.2</ele><time>2021-02-18T12:03:11Z</time><name>PT4962</name></trkpt>
<trkpt lat="53.460699" lon="05.869890"><ele>3.2</ele><time>2021-02-18T12:03:12Z</time><name>PT4963</name></trkpt>
<trkpt lat="53.460698" lon="05.869905"><ele>3.3</ele><time>2021-02-18T12:03:14Z</time><name>PT4964</name></trkpt>
<trkpt lat="53.460697" lon="05.869925"><ele>3.3</ele><time>2021-02-18T12:03:14Z</time><name>PT4965</name></trkpt>
<trkpt lat="53.460697" lon="05.869944"><ele>3.2</ele><time>2021-02-18T12:03:15Z</time><name>PT4966</name></trkpt>
<trkpt lat="53.460698" lon="05.869964"><ele>3.2</ele><time>2021-02-18T12:03:17Z</time><name>PT4967</name></trkpt>
<trkpt lat="53.460700" lon="05.869982"><ele>3</ele><time>2021-02-18T12:03:17Z</time><name>PT4968</name></trkpt>
<trkpt lat="53.460700" lon="05.870000"><ele>2.9</ele><time>2021-02-18T12:03:18Z</time><name>PT4969</name></trkpt>
<trkpt lat="53.460700" lon="05.870018"><ele>3</ele><time>2021-02-18T12:03:20Z</time><name>PT4970</name></trkpt>
<trkpt lat="53.460698" lon="05.870035"><ele>2.8</ele><time>2021-02-18T12:03:20Z</time><name>PT4971</name></trkpt>
<trkpt lat="53.460697" lon="05.870054"><ele>2.7</ele><time>2021-02-18T12:03:21Z</time><name>PT4972</name></trkpt>
<trkpt lat="53.460696" lon="05.870073"><ele>2.8</ele><time>2021-02-18T12:03:23Z</time><name>PT4973</name></trkpt>
<trkpt lat="53.460694" lon="05.870093"><ele>2.7</ele><time>2021-02-18T12:03:23Z</time><name>PT4974</name></trkpt>
<trkpt lat="53.460694" lon="05.870113"><ele>2.9</ele><time>2021-02-18T12:03:24Z</time><name>PT4975</name></trkpt>
<trkpt lat="53.460694" lon="05.870132"><ele>3</ele><time>2021-02-18T12:03:26Z</time><name>PT4976</name></trkpt>
<trkpt lat="53.460694" lon="05.870154"><ele>3</ele><time>2021-02-18T12:03:26Z</time><name>PT4977</name></trkpt>
<trkpt lat="53.460693" lon="05.870177"><ele>3</ele><time>2021-02-18T12:03:27Z</time><name>PT4978</name></trkpt>
<trkpt lat="53.460694" lon="05.870198"><ele>2.7</ele><time>2021-02-18T12:03:29Z</time><name>PT4979</name></trkpt>
<trkpt lat="53.460695" lon="05.870219"><ele>2.7</ele><time>2021-02-18T12:03:29Z</time><name>PT4980</name></trkpt>
<trkpt lat="53.460688" lon="05.870236"><ele>2.4</ele><time>2021-02-18T12:03:30Z</time><name>PT4981</name></trkpt>
<trkpt lat="53.460683" lon="05.870257"><ele>2.3</ele><time>2021-02-18T12:03:32Z</time><name>PT4982</name></trkpt>
<trkpt lat="53.460680" lon="05.870278"><ele>2.3</ele><time>2021-02-18T12:03:32Z</time><name>PT4983</name></trkpt>
<trkpt lat="53.460679" lon="05.870299"><ele>2.5</ele><time>2021-02-18T12:03:33Z</time><name>PT4984</name></trkpt>
<trkpt lat="53.460679" lon="05.870320"><ele>2.7</ele><time>2021-02-18T12:03:35Z</time><name>PT4985</name></trkpt>
<trkpt lat="53.460679" lon="05.870341"><ele>2.9</ele><time>2021-02-18T12:03:35Z</time><name>PT4986</name></trkpt>
<trkpt lat="53.460679" lon="05.870362"><ele>2.7</ele><time>2021-02-18T12:03:36Z</time><name>PT4987</name></trkpt>
<trkpt lat="53.460677" lon="05.870382"><ele>2.7</ele><time>2021-02-18T12:03:38Z</time><name>PT4988</name></trkpt>
<trkpt lat="53.460676" lon="05.870403"><ele>2.7</ele><time>2021-02-18T12:03:38Z</time><name>PT4989</name></trkpt>
<trkpt lat="53.460675" lon="05.870422"><ele>2.3</ele><time>2021-02-18T12:03:39Z</time><name>PT4990</name></trkpt>
<trkpt lat="53.460675" lon="05.870444"><ele>2.6</ele><time>2021-02-18T12:03:41Z</time><name>PT4991</name></trkpt>
<trkpt lat="53.460675" lon="05.870463"><ele>2.5</ele><time>2021-02-18T12:03:41Z</time><name>PT4992</name></trkpt>
<trkpt lat="53.460674" lon="05.870483"><ele>2.6</ele><time>2021-02-18T12:03:42Z</time><name>PT4993</name></trkpt>
<trkpt lat="53.460673" lon="05.870505"><ele>2.5</ele><time>2021-02-18T12:03:44Z</time><name>PT4994</name></trkpt>
<trkpt lat="53.460671" lon="05.870525"><ele>2.6</ele><time>2021-02-18T12:03:44Z</time><name>PT4995</name></trkpt>
<trkpt lat="53.460671" lon="05.870546"><ele>2.6</ele><time>2021-02-18T12:03:45Z</time><name>PT4996</name></trkpt>
<trkpt lat="53.460672" lon="05.870565"><ele>2.8</ele><time>2021-02-18T12:03:47Z</time><name>PT4997</name></trkpt>
<trkpt lat="53.460673" lon="05.870580"><ele>2.9</ele><time>2021-02-18T12:03:47Z</time><name>PT4998</name></trkpt>
<trkpt lat="53.460673" lon="05.870595"><ele>3</ele><time>2021-02-18T12:03:48Z</time><name>PT4999</name></trkpt>
<trkpt lat="53.460676" lon="05.870615"><ele>2.8</ele><time>2021-02-18T12:03:50Z</time><name>PT5000</name></trkpt>
<trkpt lat="53.460679" lon="05.870632"><ele>2.6</ele><time>2021-02-18T12:03:50Z</time><name>PT5001</name></trkpt>
<trkpt lat="53.460677" lon="05.870653"><ele>2.6</ele><time>2021-02-18T12:03:51Z</time><name>PT5002</name></trkpt>
<trkpt lat="53.460675" lon="05.870673"><ele>2.7</ele><time>2021-02-18T12:03:53Z</time><name>PT5003</name></trkpt>
<trkpt lat="53.460671" lon="05.870691"><ele>2.7</ele><time>2021-02-18T12:03:53Z</time><name>PT5004</name></trkpt>
<trkpt lat="53.460669" lon="05.870706"><ele>2.6</ele><time>2021-02-18T12:03:54Z</time><name>PT5005</name></trkpt>
<trkpt lat="53.460669" lon="05.870726"><ele>2.4</ele><time>2021-02-18T12:03:56Z</time><name>PT5006</name></trkpt>
<trkpt lat="53.460668" lon="05.870751"><ele>2.3</ele><time>2021-02-18T12:03:56Z</time><name>PT5007</name></trkpt>
<trkpt lat="53.460669" lon="05.870777"><ele>2.2</ele><time>2021-02-18T12:03:57Z</time><name>PT5008</name></trkpt>
<trkpt lat="53.460669" lon="05.870799"><ele>2.5</ele><time>2021-02-18T12:03:59Z</time><name>PT5009</name></trkpt>
<trkpt lat="53.460667" lon="05.870821"><ele>2.7</ele><time>2021-02-18T12:03:59Z</time><name>PT5010</name></trkpt>
<trkpt lat="53.460666" lon="05.870842"><ele>2.9</ele><time>2021-02-18T12:04:00Z</time><name>PT5011</name></trkpt>
<trkpt lat="53.460664" lon="05.870860"><ele>2.9</ele><time>2021-02-18T12:04:02Z</time><name>PT5012</name></trkpt>
<trkpt lat="53.460669" lon="05.870886"><ele>2.8</ele><time>2021-02-18T12:04:02Z</time><name>PT5013</name></trkpt>
<trkpt lat="53.460669" lon="05.870905"><ele>2.7</ele><time>2021-02-18T12:04:03Z</time><name>PT5014</name></trkpt>
<trkpt lat="53.460670" lon="05.870927"><ele>2.8</ele><time>2021-02-18T12:04:05Z</time><name>PT5015</name></trkpt>
<trkpt lat="53.460672" lon="05.870949"><ele>2.8</ele><time>2021-02-18T12:04:05Z</time><name>PT5016</name></trkpt>
<trkpt lat="53.460673" lon="05.870967"><ele>2.6</ele><time>2021-02-18T12:04:06Z</time><name>PT5017</name></trkpt>
<trkpt lat="53.460674" lon="05.870986"><ele>2.7</ele><time>2021-02-18T12:04:08Z</time><name>PT5018</name></trkpt>
<trkpt lat="53.460675" lon="05.871005"><ele>2.5</ele><time>2021-02-18T12:04:08Z</time><name>PT5019</name></trkpt>
<trkpt lat="53.460675" lon="05.871024"><ele>2.2</ele><time>2021-02-18T12:04:09Z</time><name>PT5020</name></trkpt>
<trkpt lat="53.460673" lon="05.871042"><ele>2.4</ele><time>2021-02-18T12:04:11Z</time><name>PT5021</name></trkpt>
<trkpt lat="53.460672" lon="05.871058"><ele>2.4</ele><time>2021-02-18T12:04:11Z</time><name>PT5022</name></trkpt>
<trkpt lat="53.460672" lon="05.871076"><ele>2.5</ele><time>2021-02-18T12:04:12Z</time><name>PT5023</name></trkpt>
<trkpt lat="53.460671" lon="05.871093"><ele>2.8</ele><time>2021-02-18T12:04:14Z</time><name>PT5024</name></trkpt>
<trkpt lat="53.460670" lon="05.871111"><ele>2.7</ele><time>2021-02-18T12:04:14Z</time><name>PT5025</name></trkpt>
<trkpt lat="53.460668" lon="05.871133"><ele>2.9</ele><time>2021-02-18T12:04:15Z</time><name>PT5026</name></trkpt>
<trkpt lat="53.460667" lon="05.871153"><ele>2.8</ele><time>2021-02-18T12:04:17Z</time><name>PT5027</name></trkpt>
<trkpt lat="53.460665" lon="05.871174"><ele>2.6</ele><time>2021-02-18T12:04:17Z</time><name>PT5028</name></trkpt>
<trkpt lat="53.460664" lon="05.871194"><ele>2.5</ele><time>2021-02-18T12:04:18Z</time><name>PT5029</name></trkpt>
<trkpt lat="53.460663" lon="05.871213"><ele>2.3</ele><time>2021-02-18T12:04:20Z</time><name>PT5030</name></trkpt>
<trkpt lat="53.460663" lon="05.871236"><ele>2.4</ele><time>2021-02-18T12:04:20Z</time><name>PT5031</name></trkpt>
<trkpt lat="53.460663" lon="05.871256"><ele>2.7</ele><time>2021-02-18T12:04:21Z</time><name>PT5032</name></trkpt>
<trkpt lat="53.460663" lon="05.871279"><ele>2.7</ele><time>2021-02-18T12:04:23Z</time><name>PT5033</name></trkpt>
<trkpt lat="53.460663" lon="05.871300"><ele>2.7</ele><time>2021-02-18T12:04:23Z</time><name>PT5034</name></trkpt>
<trkpt lat="53.460662" lon="05.871321"><ele>2.7</ele><time>2021-02-18T12:04:24Z</time><name>PT5035</name></trkpt>
<trkpt lat="53.460663" lon="05.871340"><ele>2.7</ele><time>2021-02-18T12:04:26Z</time><name>PT5036</name></trkpt>
<trkpt lat="53.460663" lon="05.871362"><ele>2.6</ele><time>2021-02-18T12:04:26Z</time><name>PT5037</name></trkpt>
<trkpt lat="53.460664" lon="05.871380"><ele>2.8</ele><time>2021-02-18T12:04:27Z</time><name>PT5038</name></trkpt>
<trkpt lat="53.460665" lon="05.871399"><ele>2.7</ele><time>2021-02-18T12:04:29Z</time><name>PT5039</name></trkpt>
<trkpt lat="53.460665" lon="05.871420"><ele>2.8</ele><time>2021-02-18T12:04:29Z</time><name>PT5040</name></trkpt>
<trkpt lat="53.460662" lon="05.871440"><ele>2.8</ele><time>2021-02-18T12:04:30Z</time><name>PT5041</name></trkpt>
<trkpt lat="53.460661" lon="05.871459"><ele>2.6</ele><time>2021-02-18T12:04:32Z</time><name>PT5042</name></trkpt>
<trkpt lat="53.460659" lon="05.871478"><ele>2.6</ele><time>2021-02-18T12:04:32Z</time><name>PT5043</name></trkpt>
<trkpt lat="53.460660" lon="05.871502"><ele>2.5</ele><time>2021-02-18T12:04:33Z</time><name>PT5044</name></trkpt>
<trkpt lat="53.460659" lon="05.871522"><ele>2.5</ele><time>2021-02-18T12:04:35Z</time><name>PT5045</name></trkpt>
<trkpt lat="53.460657" lon="05.871543"><ele>2.7</ele><time>2021-02-18T12:04:35Z</time><name>PT5046</name></trkpt>
<trkpt lat="53.460654" lon="05.871564"><ele>2.6</ele><time>2021-02-18T12:04:36Z</time><name>PT5047</name></trkpt>
<trkpt lat="53.460655" lon="05.871585"><ele>2.9</ele><time>2021-02-18T12:04:38Z</time><name>PT5048</name></trkpt>
<trkpt lat="53.460654" lon="05.871605"><ele>2.8</ele><time>2021-02-18T12:04:38Z</time><name>PT5049</name></trkpt>
<trkpt lat="53.460652" lon="05.871627"><ele>2.9</ele><time>2021-02-18T12:04:39Z</time><name>PT5050</name></trkpt>
<trkpt lat="53.460653" lon="05.871647"><ele>3</ele><time>2021-02-18T12:04:41Z</time><name>PT5051</name></trkpt>
<trkpt lat="53.460653" lon="05.871668"><ele>2.9</ele><time>2021-02-18T12:04:41Z</time><name>PT5052</name></trkpt>
<trkpt lat="53.460654" lon="05.871689"><ele>2.7</ele><time>2021-02-18T12:04:42Z</time><name>PT5053</name></trkpt>
<trkpt lat="53.460653" lon="05.871708"><ele>2.5</ele><time>2021-02-18T12:04:44Z</time><name>PT5054</name></trkpt>
<trkpt lat="53.460652" lon="05.871728"><ele>2.3</ele><time>2021-02-18T12:04:44Z</time><name>PT5055</name></trkpt>
<trkpt lat="53.460651" lon="05.871750"><ele>2.2</ele><time>2021-02-18T12:04:45Z</time><name>PT5056</name></trkpt>
<trkpt lat="53.460649" lon="05.871771"><ele>2.2</ele><time>2021-02-18T12:04:47Z</time><name>PT5057</name></trkpt>
<trkpt lat="53.460648" lon="05.871790"><ele>2.1</ele><time>2021-02-18T12:04:47Z</time><name>PT5058</name></trkpt>
<trkpt lat="53.460647" lon="05.871814"><ele>2</ele><time>2021-02-18T12:04:48Z</time><name>PT5059</name></trkpt>
<trkpt lat="53.460647" lon="05.871835"><ele>2.1</ele><time>2021-02-18T12:04:50Z</time><name>PT5060</name></trkpt>
<trkpt lat="53.460652" lon="05.871851"><ele>2.2</ele><time>2021-02-18T12:04:50Z</time><name>PT5061</name></trkpt>
<trkpt lat="53.460654" lon="05.871870"><ele>2.2</ele><time>2021-02-18T12:04:51Z</time><name>PT5062</name></trkpt>
<trkpt lat="53.460655" lon="05.871887"><ele>2.3</ele><time>2021-02-18T12:04:53Z</time><name>PT5063</name></trkpt>
<trkpt lat="53.460653" lon="05.871907"><ele>2.5</ele><time>2021-02-18T12:04:53Z</time><name>PT5064</name></trkpt>
<trkpt lat="53.460653" lon="05.871928"><ele>2.6</ele><time>2021-02-18T12:04:54Z</time><name>PT5065</name></trkpt>
<trkpt lat="53.460651" lon="05.871950"><ele>2.7</ele><time>2021-02-18T12:04:56Z</time><name>PT5066</name></trkpt>
<trkpt lat="53.460648" lon="05.871971"><ele>2.7</ele><time>2021-02-18T12:04:56Z</time><name>PT5067</name></trkpt>
<trkpt lat="53.460645" lon="05.871992"><ele>2.6</ele><time>2021-02-18T12:04:57Z</time><name>PT5068</name></trkpt>
<trkpt lat="53.460644" lon="05.872016"><ele>2.7</ele><time>2021-02-18T12:04:59Z</time><name>PT5069</name></trkpt>
<trkpt lat="53.460641" lon="05.872037"><ele>2.6</ele><time>2021-02-18T12:04:59Z</time><name>PT5070</name></trkpt>
<trkpt lat="53.460640" lon="05.872058"><ele>2.5</ele><time>2021-02-18T12:05:00Z</time><name>PT5071</name></trkpt>
<trkpt lat="53.460638" lon="05.872078"><ele>2.4</ele><time>2021-02-18T12:05:02Z</time><name>PT5072</name></trkpt>
<trkpt lat="53.460636" lon="05.872096"><ele>2.4</ele><time>2021-02-18T12:05:02Z</time><name>PT5073</name></trkpt>
<trkpt lat="53.460635" lon="05.872114"><ele>2.4</ele><time>2021-02-18T12:05:03Z</time><name>PT5074</name></trkpt>
<trkpt lat="53.460634" lon="05.872133"><ele>2.4</ele><time>2021-02-18T12:05:05Z</time><name>PT5075</name></trkpt>
<trkpt lat="53.460632" lon="05.872152"><ele>2.3</ele><time>2021-02-18T12:05:05Z</time><name>PT5076</name></trkpt>
<trkpt lat="53.460631" lon="05.872173"><ele>2.3</ele><time>2021-02-18T12:05:06Z</time><name>PT5077</name></trkpt>
<trkpt lat="53.460628" lon="05.872193"><ele>2.6</ele><time>2021-02-18T12:05:08Z</time><name>PT5078</name></trkpt>
<trkpt lat="53.460627" lon="05.872214"><ele>2.6</ele><time>2021-02-18T12:05:08Z</time><name>PT5079</name></trkpt>
<trkpt lat="53.460627" lon="05.872234"><ele>2.7</ele><time>2021-02-18T12:05:09Z</time><name>PT5080</name></trkpt>
<trkpt lat="53.460631" lon="05.872258"><ele>2.7</ele><time>2021-02-18T12:05:11Z</time><name>PT5081</name></trkpt>
<trkpt lat="53.460628" lon="05.872276"><ele>2.6</ele><time>2021-02-18T12:05:11Z</time><name>PT5082</name></trkpt>
<trkpt lat="53.460625" lon="05.872295"><ele>2.6</ele><time>2021-02-18T12:05:12Z</time><name>PT5083</name></trkpt>
<trkpt lat="53.460622" lon="05.872312"><ele>2.3</ele><time>2021-02-18T12:05:14Z</time><name>PT5084</name></trkpt>
<trkpt lat="53.460620" lon="05.872327"><ele>2.3</ele><time>2021-02-18T12:05:14Z</time><name>PT5085</name></trkpt>
<trkpt lat="53.460617" lon="05.872346"><ele>2.3</ele><time>2021-02-18T12:05:15Z</time><name>PT5086</name></trkpt>
<trkpt lat="53.460613" lon="05.872365"><ele>2.3</ele><time>2021-02-18T12:05:17Z</time><name>PT5087</name></trkpt>
<trkpt lat="53.460611" lon="05.872381"><ele>2.4</ele><time>2021-02-18T12:05:17Z</time><name>PT5088</name></trkpt>
<trkpt lat="53.460609" lon="05.872402"><ele>2.7</ele><time>2021-02-18T12:05:18Z</time><name>PT5089</name></trkpt>
<trkpt lat="53.460607" lon="05.872420"><ele>2.6</ele><time>2021-02-18T12:05:20Z</time><name>PT5090</name></trkpt>
<trkpt lat="53.460604" lon="05.872440"><ele>2.6</ele><time>2021-02-18T12:05:20Z</time><name>PT5091</name></trkpt>
<trkpt lat="53.460602" lon="05.872458"><ele>2.7</ele><time>2021-02-18T12:05:21Z</time><name>PT5092</name></trkpt>
<trkpt lat="53.460600" lon="05.872473"><ele>2.6</ele><time>2021-02-18T12:05:23Z</time><name>PT5093</name></trkpt>
<trkpt lat="53.460598" lon="05.872491"><ele>2.5</ele><time>2021-02-18T12:05:23Z</time><name>PT5094</name></trkpt>
<trkpt lat="53.460598" lon="05.872511"><ele>2.8</ele><time>2021-02-18T12:05:24Z</time><name>PT5095</name></trkpt>
<trkpt lat="53.460597" lon="05.872530"><ele>2.8</ele><time>2021-02-18T12:05:26Z</time><name>PT5096</name></trkpt>
<trkpt lat="53.460596" lon="05.872551"><ele>2.7</ele><time>2021-02-18T12:05:26Z</time><name>PT5097</name></trkpt>
<trkpt lat="53.460595" lon="05.872570"><ele>3.1</ele><time>2021-02-18T12:05:27Z</time><name>PT5098</name></trkpt>
<trkpt lat="53.460594" lon="05.872589"><ele>2.9</ele><time>2021-02-18T12:05:29Z</time><name>PT5099</name></trkpt>
<trkpt lat="53.460594" lon="05.872607"><ele>2.9</ele><time>2021-02-18T12:05:29Z</time><name>PT5100</name></trkpt>
<trkpt lat="53.460591" lon="05.872631"><ele>3.1</ele><time>2021-02-18T12:05:30Z</time><name>PT5101</name></trkpt>
<trkpt lat="53.460591" lon="05.872648"><ele>3.2</ele><time>2021-02-18T12:05:32Z</time><name>PT5102</name></trkpt>
<trkpt lat="53.460591" lon="05.872667"><ele>3.3</ele><time>2021-02-18T12:05:32Z</time><name>PT5103</name></trkpt>
<trkpt lat="53.460590" lon="05.872684"><ele>3.6</ele><time>2021-02-18T12:05:33Z</time><name>PT5104</name></trkpt>
<trkpt lat="53.460591" lon="05.872701"><ele>3.7</ele><time>2021-02-18T12:05:35Z</time><name>PT5105</name></trkpt>
<trkpt lat="53.460590" lon="05.872717"><ele>3.7</ele><time>2021-02-18T12:05:35Z</time><name>PT5106</name></trkpt>
<trkpt lat="53.460590" lon="05.872734"><ele>3.9</ele><time>2021-02-18T12:05:36Z</time><name>PT5107</name></trkpt>
<trkpt lat="53.460589" lon="05.872752"><ele>3.9</ele><time>2021-02-18T12:05:38Z</time><name>PT5108</name></trkpt>
<trkpt lat="53.460588" lon="05.872771"><ele>4</ele><time>2021-02-18T12:05:38Z</time><name>PT5109</name></trkpt>
<trkpt lat="53.460587" lon="05.872788"><ele>4</ele><time>2021-02-18T12:05:39Z</time><name>PT5110</name></trkpt>
<trkpt lat="53.460586" lon="05.872807"><ele>4.2</ele><time>2021-02-18T12:05:41Z</time><name>PT5111</name></trkpt>
<trkpt lat="53.460584" lon="05.872826"><ele>4.1</ele><time>2021-02-18T12:05:41Z</time><name>PT5112</name></trkpt>
<trkpt lat="53.460583" lon="05.872845"><ele>4.2</ele><time>2021-02-18T12:05:42Z</time><name>PT5113</name></trkpt>
<trkpt lat="53.460581" lon="05.872865"><ele>4.3</ele><time>2021-02-18T12:05:44Z</time><name>PT5114</name></trkpt>
<trkpt lat="53.460580" lon="05.872885"><ele>4.2</ele><time>2021-02-18T12:05:44Z</time><name>PT5115</name></trkpt>
<trkpt lat="53.460579" lon="05.872905"><ele>4.2</ele><time>2021-02-18T12:05:45Z</time><name>PT5116</name></trkpt>
<trkpt lat="53.460576" lon="05.872928"><ele>4.2</ele><time>2021-02-18T12:05:47Z</time><name>PT5117</name></trkpt>
<trkpt lat="53.460575" lon="05.872946"><ele>4.2</ele><time>2021-02-18T12:05:47Z</time><name>PT5118</name></trkpt>
<trkpt lat="53.460574" lon="05.872965"><ele>4.3</ele><time>2021-02-18T12:05:48Z</time><name>PT5119</name></trkpt>
<trkpt lat="53.460573" lon="05.872983"><ele>4.5</ele><time>2021-02-18T12:05:50Z</time><name>PT5120</name></trkpt>
<trkpt lat="53.460574" lon="05.872995"><ele>4.6</ele><time>2021-02-18T12:05:50Z</time><name>PT5121</name></trkpt>
<trkpt lat="53.460574" lon="05.873013"><ele>4.8</ele><time>2021-02-18T12:05:51Z</time><name>PT5122</name></trkpt>
<trkpt lat="53.460574" lon="05.873033"><ele>4.8</ele><time>2021-02-18T12:05:53Z</time><name>PT5123</name></trkpt>
<trkpt lat="53.460573" lon="05.873055"><ele>4.9</ele><time>2021-02-18T12:05:53Z</time><name>PT5124</name></trkpt>
<trkpt lat="53.460572" lon="05.873070"><ele>4.8</ele><time>2021-02-18T12:05:54Z</time><name>PT5125</name></trkpt>
<trkpt lat="53.460571" lon="05.873091"><ele>4.7</ele><time>2021-02-18T12:05:56Z</time><name>PT5126</name></trkpt>
<trkpt lat="53.460572" lon="05.873114"><ele>4.7</ele><time>2021-02-18T12:05:56Z</time><name>PT5127</name></trkpt>
<trkpt lat="53.460572" lon="05.873133"><ele>4.9</ele><time>2021-02-18T12:05:57Z</time><name>PT5128</name></trkpt>
<trkpt lat="53.460573" lon="05.873152"><ele>4.9</ele><time>2021-02-18T12:05:59Z</time><name>PT5129</name></trkpt>
<trkpt lat="53.460573" lon="05.873175"><ele>5</ele><time>2021-02-18T12:05:59Z</time><name>PT5130</name></trkpt>
<trkpt lat="53.460572" lon="05.873194"><ele>5</ele><time>2021-02-18T12:06:00Z</time><name>PT5131</name></trkpt>
<trkpt lat="53.460573" lon="05.873214"><ele>5.1</ele><time>2021-02-18T12:06:02Z</time><name>PT5132</name></trkpt>
<trkpt lat="53.460572" lon="05.873233"><ele>5.2</ele><time>2021-02-18T12:06:02Z</time><name>PT5133</name></trkpt>
<trkpt lat="53.460573" lon="05.873255"><ele>5.2</ele><time>2021-02-18T12:06:03Z</time><name>PT5134</name></trkpt>
<trkpt lat="53.460573" lon="05.873277"><ele>5.3</ele><time>2021-02-18T12:06:05Z</time><name>PT5135</name></trkpt>
<trkpt lat="53.460572" lon="05.873297"><ele>5.2</ele><time>2021-02-18T12:06:05Z</time><name>PT5136</name></trkpt>
<trkpt lat="53.460571" lon="05.873316"><ele>5.3</ele><time>2021-02-18T12:06:06Z</time><name>PT5137</name></trkpt>
<trkpt lat="53.460567" lon="05.873336"><ele>5.5</ele><time>2021-02-18T12:06:08Z</time><name>PT5138</name></trkpt>
<trkpt lat="53.460564" lon="05.873355"><ele>5.5</ele><time>2021-02-18T12:06:08Z</time><name>PT5139</name></trkpt>
<trkpt lat="53.460563" lon="05.873375"><ele>5.7</ele><time>2021-02-18T12:06:09Z</time><name>PT5140</name></trkpt>
<trkpt lat="53.460562" lon="05.873395"><ele>5.7</ele><time>2021-02-18T12:06:11Z</time><name>PT5141</name></trkpt>
<trkpt lat="53.460560" lon="05.873417"><ele>5.7</ele><time>2021-02-18T12:06:11Z</time><name>PT5142</name></trkpt>
<trkpt lat="53.460557" lon="05.873437"><ele>5.7</ele><time>2021-02-18T12:06:12Z</time><name>PT5143</name></trkpt>
<trkpt lat="53.460554" lon="05.873456"><ele>5.4</ele><time>2021-02-18T12:06:14Z</time><name>PT5144</name></trkpt>
<trkpt lat="53.460552" lon="05.873480"><ele>5.3</ele><time>2021-02-18T12:06:14Z</time><name>PT5145</name></trkpt>
<trkpt lat="53.460552" lon="05.873498"><ele>5.1</ele><time>2021-02-18T12:06:15Z</time><name>PT5146</name></trkpt>
<trkpt lat="53.460549" lon="05.873515"><ele>5</ele><time>2021-02-18T12:06:17Z</time><name>PT5147</name></trkpt>
<trkpt lat="53.460548" lon="05.873533"><ele>5</ele><time>2021-02-18T12:06:17Z</time><name>PT5148</name></trkpt>
<trkpt lat="53.460548" lon="05.873540"><ele>5.2</ele><time>2021-02-18T12:06:18Z</time><name>PT5149</name></trkpt>
<trkpt lat="53.460549" lon="05.873551"><ele>5.5</ele><time>2021-02-18T12:06:20Z</time><name>PT5150</name></trkpt>
<trkpt lat="53.460550" lon="05.873569"><ele>5.6</ele><time>2021-02-18T12:06:20Z</time><name>PT5151</name></trkpt>
<trkpt lat="53.460551" lon="05.873587"><ele>5.8</ele><time>2021-02-18T12:06:21Z</time><name>PT5152</name></trkpt>
<trkpt lat="53.460549" lon="05.873605"><ele>6</ele><time>2021-02-18T12:06:23Z</time><name>PT5153</name></trkpt>
<trkpt lat="53.460548" lon="05.873625"><ele>6</ele><time>2021-02-18T12:06:23Z</time><name>PT5154</name></trkpt>
<trkpt lat="53.460547" lon="05.873646"><ele>6.2</ele><time>2021-02-18T12:06:24Z</time><name>PT5155</name></trkpt>
<trkpt lat="53.460546" lon="05.873666"><ele>6.3</ele><time>2021-02-18T12:06:26Z</time><name>PT5156</name></trkpt>
<trkpt lat="53.460546" lon="05.873684"><ele>6.2</ele><time>2021-02-18T12:06:26Z</time><name>PT5157</name></trkpt>
<trkpt lat="53.460548" lon="05.873706"><ele>6</ele><time>2021-02-18T12:06:27Z</time><name>PT5158</name></trkpt>
<trkpt lat="53.460547" lon="05.873726"><ele>5.8</ele><time>2021-02-18T12:06:29Z</time><name>PT5159</name></trkpt>
<trkpt lat="53.460545" lon="05.873745"><ele>5.8</ele><time>2021-02-18T12:06:29Z</time><name>PT5160</name></trkpt>
<trkpt lat="53.460544" lon="05.873764"><ele>5.7</ele><time>2021-02-18T12:06:30Z</time><name>PT5161</name></trkpt>
<trkpt lat="53.460544" lon="05.873780"><ele>5.9</ele><time>2021-02-18T12:06:32Z</time><name>PT5162</name></trkpt>
<trkpt lat="53.460544" lon="05.873797"><ele>6</ele><time>2021-02-18T12:06:32Z</time><name>PT5163</name></trkpt>
<trkpt lat="53.460542" lon="05.873815"><ele>5.9</ele><time>2021-02-18T12:06:33Z</time><name>PT5164</name></trkpt>
<trkpt lat="53.460539" lon="05.873833"><ele>5.9</ele><time>2021-02-18T12:06:35Z</time><name>PT5165</name></trkpt>
<trkpt lat="53.460537" lon="05.873850"><ele>6</ele><time>2021-02-18T12:06:35Z</time><name>PT5166</name></trkpt>
<trkpt lat="53.460534" lon="05.873868"><ele>5.7</ele><time>2021-02-18T12:06:36Z</time><name>PT5167</name></trkpt>
<trkpt lat="53.460531" lon="05.873885"><ele>5.3</ele><time>2021-02-18T12:06:38Z</time><name>PT5168</name></trkpt>
<trkpt lat="53.460529" lon="05.873904"><ele>5.2</ele><time>2021-02-18T12:06:38Z</time><name>PT5169</name></trkpt>
<trkpt lat="53.460527" lon="05.873922"><ele>5.2</ele><time>2021-02-18T12:06:39Z</time><name>PT5170</name></trkpt>
<trkpt lat="53.460525" lon="05.873939"><ele>5</ele><time>2021-02-18T12:06:41Z</time><name>PT5171</name></trkpt>
<trkpt lat="53.460523" lon="05.873958"><ele>5.1</ele><time>2021-02-18T12:06:41Z</time><name>PT5172</name></trkpt>
<trkpt lat="53.460522" lon="05.873976"><ele>5</ele><time>2021-02-18T12:06:42Z</time><name>PT5173</name></trkpt>
<trkpt lat="53.460520" lon="05.873995"><ele>4.9</ele><time>2021-02-18T12:06:44Z</time><name>PT5174</name></trkpt>
<trkpt lat="53.460519" lon="05.874015"><ele>4.9</ele><time>2021-02-18T12:06:44Z</time><name>PT5175</name></trkpt>
<trkpt lat="53.460518" lon="05.874032"><ele>5</ele><time>2021-02-18T12:06:45Z</time><name>PT5176</name></trkpt>
<trkpt lat="53.460517" lon="05.874050"><ele>4.8</ele><time>2021-02-18T12:06:47Z</time><name>PT5177</name></trkpt>
<trkpt lat="53.460516" lon="05.874069"><ele>4.8</ele><time>2021-02-18T12:06:47Z</time><name>PT5178</name></trkpt>
<trkpt lat="53.460515" lon="05.874087"><ele>4.7</ele><time>2021-02-18T12:06:48Z</time><name>PT5179</name></trkpt>
<trkpt lat="53.460515" lon="05.874107"><ele>4.5</ele><time>2021-02-18T12:06:50Z</time><name>PT5180</name></trkpt>
<trkpt lat="53.460515" lon="05.874126"><ele>4.5</ele><time>2021-02-18T12:06:50Z</time><name>PT5181</name></trkpt>
<trkpt lat="53.460513" lon="05.874144"><ele>4.3</ele><time>2021-02-18T12:06:51Z</time><name>PT5182</name></trkpt>
<trkpt lat="53.460511" lon="05.874165"><ele>4.2</ele><time>2021-02-18T12:06:53Z</time><name>PT5183</name></trkpt>
<trkpt lat="53.460509" lon="05.874184"><ele>4.3</ele><time>2021-02-18T12:06:53Z</time><name>PT5184</name></trkpt>
<trkpt lat="53.460505" lon="05.874203"><ele>4.4</ele><time>2021-02-18T12:06:54Z</time><name>PT5185</name></trkpt>
<trkpt lat="53.460503" lon="05.874221"><ele>4.3</ele><time>2021-02-18T12:06:56Z</time><name>PT5186</name></trkpt>
<trkpt lat="53.460502" lon="05.874240"><ele>4.3</ele><time>2021-02-18T12:06:56Z</time><name>PT5187</name></trkpt>
<trkpt lat="53.460501" lon="05.874259"><ele>4.3</ele><time>2021-02-18T12:06:57Z</time><name>PT5188</name></trkpt>
<trkpt lat="53.460501" lon="05.874281"><ele>4</ele><time>2021-02-18T12:06:59Z</time><name>PT5189</name></trkpt>
<trkpt lat="53.460501" lon="05.874301"><ele>4</ele><time>2021-02-18T12:06:59Z</time><name>PT5190</name></trkpt>
<trkpt lat="53.460501" lon="05.874321"><ele>4</ele><time>2021-02-18T12:07:00Z</time><name>PT5191</name></trkpt>
<trkpt lat="53.460502" lon="05.874339"><ele>4</ele><time>2021-02-18T12:07:02Z</time><name>PT5192</name></trkpt>
<trkpt lat="53.460502" lon="05.874358"><ele>4.1</ele><time>2021-02-18T12:07:02Z</time><name>PT5193</name></trkpt>
<trkpt lat="53.460502" lon="05.874377"><ele>4.3</ele><time>2021-02-18T12:07:03Z</time><name>PT5194</name></trkpt>
<trkpt lat="53.460500" lon="05.874397"><ele>4.3</ele><time>2021-02-18T12:07:05Z</time><name>PT5195</name></trkpt>
<trkpt lat="53.460497" lon="05.874416"><ele>4.2</ele><time>2021-02-18T12:07:05Z</time><name>PT5196</name></trkpt>
<trkpt lat="53.460493" lon="05.874436"><ele>4.2</ele><time>2021-02-18T12:07:06Z</time><name>PT5197</name></trkpt>
<trkpt lat="53.460491" lon="05.874456"><ele>4.4</ele><time>2021-02-18T12:07:08Z</time><name>PT5198</name></trkpt>
<trkpt lat="53.460488" lon="05.874476"><ele>4.3</ele><time>2021-02-18T12:07:08Z</time><name>PT5199</name></trkpt>
<trkpt lat="53.460487" lon="05.874495"><ele>4.6</ele><time>2021-02-18T12:07:09Z</time><name>PT5200</name></trkpt>
<trkpt lat="53.460486" lon="05.874513"><ele>4.6</ele><time>2021-02-18T12:07:11Z</time><name>PT5201</name></trkpt>
<trkpt lat="53.460485" lon="05.874533"><ele>4.4</ele><time>2021-02-18T12:07:11Z</time><name>PT5202</name></trkpt>
<trkpt lat="53.460485" lon="05.874553"><ele>4.3</ele><time>2021-02-18T12:07:12Z</time><name>PT5203</name></trkpt>
<trkpt lat="53.460484" lon="05.874573"><ele>4.3</ele><time>2021-02-18T12:07:14Z</time><name>PT5204</name></trkpt>
<trkpt lat="53.460483" lon="05.874592"><ele>4.2</ele><time>2021-02-18T12:07:14Z</time><name>PT5205</name></trkpt>
<trkpt lat="53.460482" lon="05.874611"><ele>4.2</ele><time>2021-02-18T12:07:15Z</time><name>PT5206</name></trkpt>
<trkpt lat="53.460484" lon="05.874630"><ele>4.2</ele><time>2021-02-18T12:07:17Z</time><name>PT5207</name></trkpt>
<trkpt lat="53.460485" lon="05.874649"><ele>4.3</ele><time>2021-02-18T12:07:17Z</time><name>PT5208</name></trkpt>
<trkpt lat="53.460486" lon="05.874673"><ele>4.4</ele><time>2021-02-18T12:07:18Z</time><name>PT5209</name></trkpt>
<trkpt lat="53.460486" lon="05.874694"><ele>4.4</ele><time>2021-02-18T12:07:20Z</time><name>PT5210</name></trkpt>
<trkpt lat="53.460485" lon="05.874714"><ele>4.4</ele><time>2021-02-18T12:07:20Z</time><name>PT5211</name></trkpt>
<trkpt lat="53.460483" lon="05.874736"><ele>4.3</ele><time>2021-02-18T12:07:21Z</time><name>PT5212</name></trkpt>
<trkpt lat="53.460480" lon="05.874759"><ele>4.2</ele><time>2021-02-18T12:07:23Z</time><name>PT5213</name></trkpt>
<trkpt lat="53.460478" lon="05.874779"><ele>4.2</ele><time>2021-02-18T12:07:23Z</time><name>PT5214</name></trkpt>
<trkpt lat="53.460476" lon="05.874798"><ele>4.2</ele><time>2021-02-18T12:07:24Z</time><name>PT5215</name></trkpt>
<trkpt lat="53.460476" lon="05.874817"><ele>4.2</ele><time>2021-02-18T12:07:26Z</time><name>PT5216</name></trkpt>
<trkpt lat="53.460475" lon="05.874835"><ele>4.1</ele><time>2021-02-18T12:07:26Z</time><name>PT5217</name></trkpt>
<trkpt lat="53.460475" lon="05.874851"><ele>4.1</ele><time>2021-02-18T12:07:27Z</time><name>PT5218</name></trkpt>
<trkpt lat="53.460476" lon="05.874869"><ele>4</ele><time>2021-02-18T12:07:29Z</time><name>PT5219</name></trkpt>
<trkpt lat="53.460476" lon="05.874887"><ele>3.9</ele><time>2021-02-18T12:07:29Z</time><name>PT5220</name></trkpt>
<trkpt lat="53.460474" lon="05.874904"><ele>4</ele><time>2021-02-18T12:07:30Z</time><name>PT5221</name></trkpt>
<trkpt lat="53.460471" lon="05.874921"><ele>3.9</ele><time>2021-02-18T12:07:32Z</time><name>PT5222</name></trkpt>
<trkpt lat="53.460469" lon="05.874940"><ele>4</ele><time>2021-02-18T12:07:32Z</time><name>PT5223</name></trkpt>
<trkpt lat="53.460466" lon="05.874959"><ele>4</ele><time>2021-02-18T12:07:33Z</time><name>PT5224</name></trkpt>
<trkpt lat="53.460465" lon="05.874980"><ele>4</ele><time>2021-02-18T12:07:35Z</time><name>PT5225</name></trkpt>
<trkpt lat="53.460462" lon="05.875001"><ele>4.1</ele><time>2021-02-18T12:07:35Z</time><name>PT5226</name></trkpt>
<trkpt lat="53.460460" lon="05.875020"><ele>4.1</ele><time>2021-02-18T12:07:36Z</time><name>PT5227</name></trkpt>
<trkpt lat="53.460457" lon="05.875041"><ele>3.9</ele><time>2021-02-18T12:07:38Z</time><name>PT5228</name></trkpt>
<trkpt lat="53.460455" lon="05.875060"><ele>3.8</ele><time>2021-02-18T12:07:38Z</time><name>PT5229</name></trkpt>
<trkpt lat="53.460454" lon="05.875080"><ele>3.7</ele><time>2021-02-18T12:07:39Z</time><name>PT5230</name></trkpt>
<trkpt lat="53.460452" lon="05.875100"><ele>3.8</ele><time>2021-02-18T12:07:41Z</time><name>PT5231</name></trkpt>
<trkpt lat="53.460451" lon="05.875121"><ele>4.1</ele><time>2021-02-18T12:07:41Z</time><name>PT5232</name></trkpt>
<trkpt lat="53.460451" lon="05.875140"><ele>4.2</ele><time>2021-02-18T12:07:42Z</time><name>PT5233</name></trkpt>
<trkpt lat="53.460451" lon="05.875154"><ele>4.2</ele><time>2021-02-18T12:07:44Z</time><name>PT5234</name></trkpt>
<trkpt lat="53.460453" lon="05.875175"><ele>4.3</ele><time>2021-02-18T12:07:44Z</time><name>PT5235</name></trkpt>
<trkpt lat="53.460453" lon="05.875198"><ele>4.1</ele><time>2021-02-18T12:07:45Z</time><name>PT5236</name></trkpt>
<trkpt lat="53.460455" lon="05.875223"><ele>3.9</ele><time>2021-02-18T12:07:47Z</time><name>PT5237</name></trkpt>
<trkpt lat="53.460456" lon="05.875246"><ele>3.9</ele><time>2021-02-18T12:07:47Z</time><name>PT5238</name></trkpt>
<trkpt lat="53.460456" lon="05.875266"><ele>4.1</ele><time>2021-02-18T12:07:48Z</time><name>PT5239</name></trkpt>
<trkpt lat="53.460456" lon="05.875285"><ele>4.2</ele><time>2021-02-18T12:07:50Z</time><name>PT5240</name></trkpt>
<trkpt lat="53.460459" lon="05.875306"><ele>4.2</ele><time>2021-02-18T12:07:50Z</time><name>PT5241</name></trkpt>
<trkpt lat="53.460459" lon="05.875326"><ele>4.4</ele><time>2021-02-18T12:07:51Z</time><name>PT5242</name></trkpt>
<trkpt lat="53.460461" lon="05.875350"><ele>4.5</ele><time>2021-02-18T12:07:53Z</time><name>PT5243</name></trkpt>
<trkpt lat="53.460462" lon="05.875368"><ele>4.4</ele><time>2021-02-18T12:07:53Z</time><name>PT5244</name></trkpt>
<trkpt lat="53.460462" lon="05.875386"><ele>4.4</ele><time>2021-02-18T12:07:54Z</time><name>PT5245</name></trkpt>
<trkpt lat="53.460462" lon="05.875407"><ele>4.3</ele><time>2021-02-18T12:07:56Z</time><name>PT5246</name></trkpt>
<trkpt lat="53.460462" lon="05.875428"><ele>4.1</ele><time>2021-02-18T12:07:56Z</time><name>PT5247</name></trkpt>
<trkpt lat="53.460462" lon="05.875447"><ele>4.1</ele><time>2021-02-18T12:07:57Z</time><name>PT5248</name></trkpt>
<trkpt lat="53.460462" lon="05.875466"><ele>4.2</ele><time>2021-02-18T12:07:59Z</time><name>PT5249</name></trkpt>
<trkpt lat="53.460461" lon="05.875486"><ele>4.1</ele><time>2021-02-18T12:07:59Z</time><name>PT5250</name></trkpt>
<trkpt lat="53.460460" lon="05.875506"><ele>4.2</ele><time>2021-02-18T12:08:00Z</time><name>PT5251</name></trkpt>
<trkpt lat="53.460459" lon="05.875525"><ele>4.3</ele><time>2021-02-18T12:08:02Z</time><name>PT5252</name></trkpt>
<trkpt lat="53.460458" lon="05.875544"><ele>4.2</ele><time>2021-02-18T12:08:02Z</time><name>PT5253</name></trkpt>
<trkpt lat="53.460457" lon="05.875564"><ele>4.1</ele><time>2021-02-18T12:08:03Z</time><name>PT5254</name></trkpt>
<trkpt lat="53.460454" lon="05.875583"><ele>4.2</ele><time>2021-02-18T12:08:05Z</time><name>PT5255</name></trkpt>
<trkpt lat="53.460452" lon="05.875603"><ele>4</ele><time>2021-02-18T12:08:05Z</time><name>PT5256</name></trkpt>
<trkpt lat="53.460449" lon="05.875622"><ele>4.1</ele><time>2021-02-18T12:08:06Z</time><name>PT5257</name></trkpt>
<trkpt lat="53.460446" lon="05.875641"><ele>4</ele><time>2021-02-18T12:08:08Z</time><name>PT5258</name></trkpt>
<trkpt lat="53.460444" lon="05.875664"><ele>3.9</ele><time>2021-02-18T12:08:08Z</time><name>PT5259</name></trkpt>
<trkpt lat="53.460442" lon="05.875686"><ele>3.9</ele><time>2021-02-18T12:08:09Z</time><name>PT5260</name></trkpt>
<trkpt lat="53.460440" lon="05.875707"><ele>3.8</ele><time>2021-02-18T12:08:11Z</time><name>PT5261</name></trkpt>
<trkpt lat="53.460439" lon="05.875728"><ele>3.8</ele><time>2021-02-18T12:08:11Z</time><name>PT5262</name></trkpt>
<trkpt lat="53.460435" lon="05.875749"><ele>3.8</ele><time>2021-02-18T12:08:12Z</time><name>PT5263</name></trkpt>
<trkpt lat="53.460434" lon="05.875769"><ele>4</ele><time>2021-02-18T12:08:14Z</time><name>PT5264</name></trkpt>
<trkpt lat="53.460433" lon="05.875790"><ele>4</ele><time>2021-02-18T12:08:14Z</time><name>PT5265</name></trkpt>
<trkpt lat="53.460431" lon="05.875812"><ele>3.9</ele><time>2021-02-18T12:08:15Z</time><name>PT5266</name></trkpt>
<trkpt lat="53.460432" lon="05.875833"><ele>4.1</ele><time>2021-02-18T12:08:17Z</time><name>PT5267</name></trkpt>
<trkpt lat="53.460433" lon="05.875856"><ele>4.2</ele><time>2021-02-18T12:08:17Z</time><name>PT5268</name></trkpt>
<trkpt lat="53.460433" lon="05.875878"><ele>4.2</ele><time>2021-02-18T12:08:18Z</time><name>PT5269</name></trkpt>
<trkpt lat="53.460434" lon="05.875899"><ele>4.3</ele><time>2021-02-18T12:08:20Z</time><name>PT5270</name></trkpt>
<trkpt lat="53.460435" lon="05.875919"><ele>4.2</ele><time>2021-02-18T12:08:20Z</time><name>PT5271</name></trkpt>
<trkpt lat="53.460436" lon="05.875941"><ele>4.2</ele><time>2021-02-18T12:08:21Z</time><name>PT5272</name></trkpt>
<trkpt lat="53.460437" lon="05.875963"><ele>4.2</ele><time>2021-02-18T12:08:23Z</time><name>PT5273</name></trkpt>
<trkpt lat="53.460438" lon="05.875986"><ele>3.9</ele><time>2021-02-18T12:08:23Z</time><name>PT5274</name></trkpt>
<trkpt lat="53.460440" lon="05.876008"><ele>3.9</ele><time>2021-02-18T12:08:24Z</time><name>PT5275</name></trkpt>
<trkpt lat="53.460442" lon="05.876027"><ele>3.8</ele><time>2021-02-18T12:08:26Z</time><name>PT5276</name></trkpt>
<trkpt lat="53.460442" lon="05.876047"><ele>3.8</ele><time>2021-02-18T12:08:26Z</time><name>PT5277</name></trkpt>
<trkpt lat="53.460441" lon="05.876065"><ele>3.5</ele><time>2021-02-18T12:08:27Z</time><name>PT5278</name></trkpt>
<trkpt lat="53.460442" lon="05.876084"><ele>3.7</ele><time>2021-02-18T12:08:29Z</time><name>PT5279</name></trkpt>
<trkpt lat="53.460443" lon="05.876101"><ele>3.7</ele><time>2021-02-18T12:08:29Z</time><name>PT5280</name></trkpt>
<trkpt lat="53.460442" lon="05.876120"><ele>3.8</ele><time>2021-02-18T12:08:30Z</time><name>PT5281</name></trkpt>
<trkpt lat="53.460441" lon="05.876140"><ele>4.1</ele><time>2021-02-18T12:08:32Z</time><name>PT5282</name></trkpt>
<trkpt lat="53.460441" lon="05.876159"><ele>4.2</ele><time>2021-02-18T12:08:32Z</time><name>PT5283</name></trkpt>
<trkpt lat="53.460440" lon="05.876181"><ele>4.2</ele><time>2021-02-18T12:08:33Z</time><name>PT5284</name></trkpt>
<trkpt lat="53.460439" lon="05.876201"><ele>4.2</ele><time>2021-02-18T12:08:35Z</time><name>PT5285</name></trkpt>
<trkpt lat="53.460437" lon="05.876219"><ele>4</ele><time>2021-02-18T12:08:35Z</time><name>PT5286</name></trkpt>
<trkpt lat="53.460435" lon="05.876236"><ele>4</ele><time>2021-02-18T12:08:36Z</time><name>PT5287</name></trkpt>
<trkpt lat="53.460428" lon="05.876248"><ele>3.9</ele><time>2021-02-18T12:08:38Z</time><name>PT5288</name></trkpt>
<trkpt lat="53.460426" lon="05.876264"><ele>3.9</ele><time>2021-02-18T12:08:38Z</time><name>PT5289</name></trkpt>
<trkpt lat="53.460426" lon="05.876270"><ele>3.6</ele><time>2021-02-18T12:08:39Z</time><name>PT5290</name></trkpt>
<trkpt lat="53.460427" lon="05.876283"><ele>3.2</ele><time>2021-02-18T12:08:41Z</time><name>PT5291</name></trkpt>
<trkpt lat="53.460428" lon="05.876305"><ele>3.2</ele><time>2021-02-18T12:08:41Z</time><name>PT5292</name></trkpt>
<trkpt lat="53.460431" lon="05.876330"><ele>3.1</ele><time>2021-02-18T12:08:42Z</time><name>PT5293</name></trkpt>
<trkpt lat="53.460431" lon="05.876348"><ele>3.5</ele><time>2021-02-18T12:08:44Z</time><name>PT5294</name></trkpt>
<trkpt lat="53.460426" lon="05.876366"><ele>3.7</ele><time>2021-02-18T12:08:44Z</time><name>PT5295</name></trkpt>
<trkpt lat="53.460421" lon="05.876384"><ele>3.8</ele><time>2021-02-18T12:08:45Z</time><name>PT5296</name></trkpt>
<trkpt lat="53.460420" lon="05.876404"><ele>4</ele><time>2021-02-18T12:08:47Z</time><name>PT5297</name></trkpt>
<trkpt lat="53.460422" lon="05.876426"><ele>4.1</ele><time>2021-02-18T12:08:47Z</time><name>PT5298</name></trkpt>
<trkpt lat="53.460422" lon="05.876447"><ele>3.9</ele><time>2021-02-18T12:08:48Z</time><name>PT5299</name></trkpt>
<trkpt lat="53.460423" lon="05.876468"><ele>3.8</ele><time>2021-02-18T12:08:50Z</time><name>PT5300</name></trkpt>
<trkpt lat="53.460422" lon="05.876491"><ele>3.6</ele><time>2021-02-18T12:08:50Z</time><name>PT5301</name></trkpt>
<trkpt lat="53.460422" lon="05.876513"><ele>3.6</ele><time>2021-02-18T12:08:51Z</time><name>PT5302</name></trkpt>
<trkpt lat="53.460421" lon="05.876537"><ele>3.5</ele><time>2021-02-18T12:08:53Z</time><name>PT5303</name></trkpt>
<trkpt lat="53.460422" lon="05.876559"><ele>3.7</ele><time>2021-02-18T12:08:53Z</time><name>PT5304</name></trkpt>
<trkpt lat="53.460423" lon="05.876578"><ele>4</ele><time>2021-02-18T12:08:54Z</time><name>PT5305</name></trkpt>
<trkpt lat="53.460423" lon="05.876599"><ele>4.1</ele><time>2021-02-18T12:08:56Z</time><name>PT5306</name></trkpt>
<trkpt lat="53.460423" lon="05.876618"><ele>4.2</ele><time>2021-02-18T12:08:56Z</time><name>PT5307</name></trkpt>
<trkpt lat="53.460423" lon="05.876638"><ele>4.2</ele><time>2021-02-18T12:08:57Z</time><name>PT5308</name></trkpt>
<trkpt lat="53.460423" lon="05.876658"><ele>4.2</ele><time>2021-02-18T12:08:59Z</time><name>PT5309</name></trkpt>
<trkpt lat="53.460424" lon="05.876677"><ele>4.2</ele><time>2021-02-18T12:08:59Z</time><name>PT5310</name></trkpt>
<trkpt lat="53.460425" lon="05.876696"><ele>4.1</ele><time>2021-02-18T12:09:00Z</time><name>PT5311</name></trkpt>
<trkpt lat="53.460425" lon="05.876717"><ele>3.9</ele><time>2021-02-18T12:09:02Z</time><name>PT5312</name></trkpt>
<trkpt lat="53.460427" lon="05.876735"><ele>4</ele><time>2021-02-18T12:09:02Z</time><name>PT5313</name></trkpt>
<trkpt lat="53.460427" lon="05.876752"><ele>4.2</ele><time>2021-02-18T12:09:03Z</time><name>PT5314</name></trkpt>
<trkpt lat="53.460427" lon="05.876769"><ele>4.1</ele><time>2021-02-18T12:09:05Z</time><name>PT5315</name></trkpt>
<trkpt lat="53.460426" lon="05.876787"><ele>4.2</ele><time>2021-02-18T12:09:05Z</time><name>PT5316</name></trkpt>
<trkpt lat="53.460426" lon="05.876806"><ele>4.1</ele><time>2021-02-18T12:09:06Z</time><name>PT5317</name></trkpt>
<trkpt lat="53.460425" lon="05.876824"><ele>4.2</ele><time>2021-02-18T12:09:08Z</time><name>PT5318</name></trkpt>
<trkpt lat="53.460424" lon="05.876841"><ele>4.2</ele><time>2021-02-18T12:09:08Z</time><name>PT5319</name></trkpt>
<trkpt lat="53.460422" lon="05.876860"><ele>4.2</ele><time>2021-02-18T12:09:09Z</time><name>PT5320</name></trkpt>
<trkpt lat="53.460421" lon="05.876881"><ele>4.1</ele><time>2021-02-18T12:09:11Z</time><name>PT5321</name></trkpt>
<trkpt lat="53.460420" lon="05.876902"><ele>3.9</ele><time>2021-02-18T12:09:11Z</time><name>PT5322</name></trkpt>
<trkpt lat="53.460419" lon="05.876921"><ele>3.9</ele><time>2021-02-18T12:09:12Z</time><name>PT5323</name></trkpt>
<trkpt lat="53.460417" lon="05.876942"><ele>4</ele><time>2021-02-18T12:09:14Z</time><name>PT5324</name></trkpt>
<trkpt lat="53.460416" lon="05.876962"><ele>3.9</ele><time>2021-02-18T12:09:14Z</time><name>PT5325</name></trkpt>
<trkpt lat="53.460414" lon="05.876982"><ele>4.1</ele><time>2021-02-18T12:09:15Z</time><name>PT5326</name></trkpt>
<trkpt lat="53.460413" lon="05.877002"><ele>4.2</ele><time>2021-02-18T12:09:17Z</time><name>PT5327</name></trkpt>
<trkpt lat="53.460412" lon="05.877021"><ele>4.2</ele><time>2021-02-18T12:09:17Z</time><name>PT5328</name></trkpt>
<trkpt lat="53.460410" lon="05.877040"><ele>4.2</ele><time>2021-02-18T12:09:18Z</time><name>PT5329</name></trkpt>
<trkpt lat="53.460410" lon="05.877054"><ele>4.2</ele><time>2021-02-18T12:09:20Z</time><name>PT5330</name></trkpt>
<trkpt lat="53.460409" lon="05.877071"><ele>4.3</ele><time>2021-02-18T12:09:20Z</time><name>PT5331</name></trkpt>
<trkpt lat="53.460409" lon="05.877093"><ele>4.3</ele><time>2021-02-18T12:09:21Z</time><name>PT5332</name></trkpt>
<trkpt lat="53.460410" lon="05.877112"><ele>4.5</ele><time>2021-02-18T12:09:23Z</time><name>PT5333</name></trkpt>
<trkpt lat="53.460413" lon="05.877134"><ele>4.5</ele><time>2021-02-18T12:09:23Z</time><name>PT5334</name></trkpt>
<trkpt lat="53.460414" lon="05.877153"><ele>4.2</ele><time>2021-02-18T12:09:24Z</time><name>PT5335</name></trkpt>
<trkpt lat="53.460415" lon="05.877170"><ele>4.1</ele><time>2021-02-18T12:09:26Z</time><name>PT5336</name></trkpt>
<trkpt lat="53.460415" lon="05.877184"><ele>4.1</ele><time>2021-02-18T12:09:26Z</time><name>PT5337</name></trkpt>
<trkpt lat="53.460415" lon="05.877203"><ele>4</ele><time>2021-02-18T12:09:27Z</time><name>PT5338</name></trkpt>
<trkpt lat="53.460413" lon="05.877220"><ele>4</ele><time>2021-02-18T12:09:29Z</time><name>PT5339</name></trkpt>
<trkpt lat="53.460412" lon="05.877243"><ele>4.1</ele><time>2021-02-18T12:09:29Z</time><name>PT5340</name></trkpt>
<trkpt lat="53.460410" lon="05.877265"><ele>4</ele><time>2021-02-18T12:09:30Z</time><name>PT5341</name></trkpt>
<trkpt lat="53.460409" lon="05.877286"><ele>4.2</ele><time>2021-02-18T12:09:32Z</time><name>PT5342</name></trkpt>
<trkpt lat="53.460408" lon="05.877306"><ele>4.2</ele><time>2021-02-18T12:09:32Z</time><name>PT5343</name></trkpt>
<trkpt lat="53.460408" lon="05.877325"><ele>4.2</ele><time>2021-02-18T12:09:33Z</time><name>PT5344</name></trkpt>
<trkpt lat="53.460409" lon="05.877345"><ele>4.3</ele><time>2021-02-18T12:09:35Z</time><name>PT5345</name></trkpt>
<trkpt lat="53.460409" lon="05.877365"><ele>4.2</ele><time>2021-02-18T12:09:35Z</time><name>PT5346</name></trkpt>
<trkpt lat="53.460410" lon="05.877385"><ele>4.3</ele><time>2021-02-18T12:09:36Z</time><name>PT5347</name></trkpt>
<trkpt lat="53.460409" lon="05.877404"><ele>4.3</ele><time>2021-02-18T12:09:38Z</time><name>PT5348</name></trkpt>
<trkpt lat="53.460408" lon="05.877423"><ele>4.4</ele><time>2021-02-18T12:09:38Z</time><name>PT5349</name></trkpt>
<trkpt lat="53.460408" lon="05.877441"><ele>4.6</ele><time>2021-02-18T12:09:39Z</time><name>PT5350</name></trkpt>
<trkpt lat="53.460408" lon="05.877458"><ele>4.7</ele><time>2021-02-18T12:09:41Z</time><name>PT5351</name></trkpt>
<trkpt lat="53.460408" lon="05.877475"><ele>4.8</ele><time>2021-02-18T12:09:41Z</time><name>PT5352</name></trkpt>
<trkpt lat="53.460407" lon="05.877493"><ele>4.7</ele><time>2021-02-18T12:09:42Z</time><name>PT5353</name></trkpt>
<trkpt lat="53.460406" lon="05.877513"><ele>4.7</ele><time>2021-02-18T12:09:44Z</time><name>PT5354</name></trkpt>
<trkpt lat="53.460404" lon="05.877534"><ele>4.6</ele><time>2021-02-18T12:09:44Z</time><name>PT5355</name></trkpt>
<trkpt lat="53.460402" lon="05.877553"><ele>4.3</ele><time>2021-02-18T12:09:45Z</time><name>PT5356</name></trkpt>
<trkpt lat="53.460402" lon="05.877572"><ele>4.3</ele><time>2021-02-18T12:09:47Z</time><name>PT5357</name></trkpt>
<trkpt lat="53.460401" lon="05.877593"><ele>4.2</ele><time>2021-02-18T12:09:47Z</time><name>PT5358</name></trkpt>
<trkpt lat="53.460400" lon="05.877614"><ele>4.2</ele><time>2021-02-18T12:09:48Z</time><name>PT5359</name></trkpt>
<trkpt lat="53.460400" lon="05.877634"><ele>4.2</ele><time>2021-02-18T12:09:50Z</time><name>PT5360</name></trkpt>
<trkpt lat="53.460401" lon="05.877654"><ele>4.4</ele><time>2021-02-18T12:09:50Z</time><name>PT5361</name></trkpt>
<trkpt lat="53.460402" lon="05.877674"><ele>4.2</ele><time>2021-02-18T12:09:51Z</time><name>PT5362</name></trkpt>
<trkpt lat="53.460402" lon="05.877693"><ele>4.2</ele><time>2021-02-18T12:09:53Z</time><name>PT5363</name></trkpt>
<trkpt lat="53.460403" lon="05.877711"><ele>4.3</ele><time>2021-02-18T12:09:53Z</time><name>PT5364</name></trkpt>
<trkpt lat="53.460404" lon="05.877729"><ele>4.1</ele><time>2021-02-18T12:09:54Z</time><name>PT5365</name></trkpt>
<trkpt lat="53.460404" lon="05.877748"><ele>4.2</ele><time>2021-02-18T12:09:56Z</time><name>PT5366</name></trkpt>
<trkpt lat="53.460402" lon="05.877766"><ele>4.2</ele><time>2021-02-18T12:09:56Z</time><name>PT5367</name></trkpt>
<trkpt lat="53.460400" lon="05.877785"><ele>3.9</ele><time>2021-02-18T12:09:57Z</time><name>PT5368</name></trkpt>
<trkpt lat="53.460398" lon="05.877804"><ele>4.1</ele><time>2021-02-18T12:09:59Z</time><name>PT5369</name></trkpt>
<trkpt lat="53.460396" lon="05.877823"><ele>4</ele><time>2021-02-18T12:09:59Z</time><name>PT5370</name></trkpt>
<trkpt lat="53.460396" lon="05.877843"><ele>4</ele><time>2021-02-18T12:10:00Z</time><name>PT5371</name></trkpt>
<trkpt lat="53.460395" lon="05.877863"><ele>4.2</ele><time>2021-02-18T12:10:02Z</time><name>PT5372</name></trkpt>
<trkpt lat="53.460394" lon="05.877884"><ele>4.3</ele><time>2021-02-18T12:10:02Z</time><name>PT5373</name></trkpt>
<trkpt lat="53.460395" lon="05.877904"><ele>4.5</ele><time>2021-02-18T12:10:03Z</time><name>PT5374</name></trkpt>
<trkpt lat="53.460395" lon="05.877923"><ele>4.4</ele><time>2021-02-18T12:10:05Z</time><name>PT5375</name></trkpt>
<trkpt lat="53.460395" lon="05.877941"><ele>4.4</ele><time>2021-02-18T12:10:05Z</time><name>PT5376</name></trkpt>
<trkpt lat="53.460397" lon="05.877958"><ele>4.4</ele><time>2021-02-18T12:10:06Z</time><name>PT5377</name></trkpt>
<trkpt lat="53.460399" lon="05.877973"><ele>4.2</ele><time>2021-02-18T12:10:08Z</time><name>PT5378</name></trkpt>
<trkpt lat="53.460399" lon="05.877989"><ele>4.3</ele><time>2021-02-18T12:10:08Z</time><name>PT5379</name></trkpt>
<trkpt lat="53.460398" lon="05.878007"><ele>4.2</ele><time>2021-02-18T12:10:09Z</time><name>PT5380</name></trkpt>
<trkpt lat="53.460396" lon="05.878027"><ele>4.2</ele><time>2021-02-18T12:10:11Z</time><name>PT5381</name></trkpt>
<trkpt lat="53.460394" lon="05.878046"><ele>4.3</ele><time>2021-02-18T12:10:11Z</time><name>PT5382</name></trkpt>
<trkpt lat="53.460392" lon="05.878066"><ele>4.6</ele><time>2021-02-18T12:10:12Z</time><name>PT5383</name></trkpt>
<trkpt lat="53.460390" lon="05.878086"><ele>4.6</ele><time>2021-02-18T12:10:14Z</time><name>PT5384</name></trkpt>
<trkpt lat="53.460390" lon="05.878108"><ele>4.7</ele><time>2021-02-18T12:10:14Z</time><name>PT5385</name></trkpt>
<trkpt lat="53.460390" lon="05.878129"><ele>4.5</ele><time>2021-02-18T12:10:16Z</time><name>PT5386</name></trkpt>
<trkpt lat="53.460390" lon="05.878148"><ele>4.2</ele><time>2021-02-18T12:10:17Z</time><name>PT5387</name></trkpt>
<trkpt lat="53.460390" lon="05.878168"><ele>4.2</ele><time>2021-02-18T12:10:17Z</time><name>PT5388</name></trkpt>
<trkpt lat="53.460390" lon="05.878189"><ele>4.2</ele><time>2021-02-18T12:10:18Z</time><name>PT5389</name></trkpt>
<trkpt lat="53.460390" lon="05.878208"><ele>4.1</ele><time>2021-02-18T12:10:20Z</time><name>PT5390</name></trkpt>
<trkpt lat="53.460389" lon="05.878224"><ele>4.1</ele><time>2021-02-18T12:10:20Z</time><name>PT5391</name></trkpt>
<trkpt lat="53.460388" lon="05.878242"><ele>4.2</ele><time>2021-02-18T12:10:21Z</time><name>PT5392</name></trkpt>
<trkpt lat="53.460388" lon="05.878261"><ele>4.3</ele><time>2021-02-18T12:10:23Z</time><name>PT5393</name></trkpt>
<trkpt lat="53.460387" lon="05.878282"><ele>4.4</ele><time>2021-02-18T12:10:23Z</time><name>PT5394</name></trkpt>
<trkpt lat="53.460386" lon="05.878302"><ele>4.5</ele><time>2021-02-18T12:10:24Z</time><name>PT5395</name></trkpt>
<trkpt lat="53.460383" lon="05.878320"><ele>4.6</ele><time>2021-02-18T12:10:26Z</time><name>PT5396</name></trkpt>
<trkpt lat="53.460383" lon="05.878339"><ele>4.5</ele><time>2021-02-18T12:10:26Z</time><name>PT5397</name></trkpt>
<trkpt lat="53.460384" lon="05.878357"><ele>4.4</ele><time>2021-02-18T12:10:27Z</time><name>PT5398</name></trkpt>
<trkpt lat="53.460385" lon="05.878376"><ele>4.7</ele><time>2021-02-18T12:10:29Z</time><name>PT5399</name></trkpt>
<trkpt lat="53.460385" lon="05.878395"><ele>4.5</ele><time>2021-02-18T12:10:29Z</time><name>PT5400</name></trkpt>
<trkpt lat="53.460386" lon="05.878413"><ele>4.5</ele><time>2021-02-18T12:10:30Z</time><name>PT5401</name></trkpt>
<trkpt lat="53.460387" lon="05.878432"><ele>4.5</ele><time>2021-02-18T12:10:32Z</time><name>PT5402</name></trkpt>
<trkpt lat="53.460387" lon="05.878451"><ele>4.5</ele><time>2021-02-18T12:10:32Z</time><name>PT5403</name></trkpt>
<trkpt lat="53.460387" lon="05.878470"><ele>4.7</ele><time>2021-02-18T12:10:33Z</time><name>PT5404</name></trkpt>
<trkpt lat="53.460387" lon="05.878487"><ele>4.7</ele><time>2021-02-18T12:10:35Z</time><name>PT5405</name></trkpt>
<trkpt lat="53.460388" lon="05.878503"><ele>4.6</ele><time>2021-02-18T12:10:35Z</time><name>PT5406</name></trkpt>
<trkpt lat="53.460387" lon="05.878516"><ele>4.5</ele><time>2021-02-18T12:10:36Z</time><name>PT5407</name></trkpt>
<trkpt lat="53.460386" lon="05.878536"><ele>4.1</ele><time>2021-02-18T12:10:38Z</time><name>PT5408</name></trkpt>
<trkpt lat="53.460385" lon="05.878558"><ele>4.1</ele><time>2021-02-18T12:10:38Z</time><name>PT5409</name></trkpt>
<trkpt lat="53.460385" lon="05.878580"><ele>4.1</ele><time>2021-02-18T12:10:39Z</time><name>PT5410</name></trkpt>
<trkpt lat="53.460384" lon="05.878603"><ele>4.2</ele><time>2021-02-18T12:10:41Z</time><name>PT5411</name></trkpt>
<trkpt lat="53.460381" lon="05.878625"><ele>4.2</ele><time>2021-02-18T12:10:41Z</time><name>PT5412</name></trkpt>
<trkpt lat="53.460379" lon="05.878647"><ele>4.5</ele><time>2021-02-18T12:10:42Z</time><name>PT5413</name></trkpt>
<trkpt lat="53.460378" lon="05.878668"><ele>4.6</ele><time>2021-02-18T12:10:44Z</time><name>PT5414</name></trkpt>
<trkpt lat="53.460377" lon="05.878689"><ele>4.6</ele><time>2021-02-18T12:10:44Z</time><name>PT5415</name></trkpt>
<trkpt lat="53.460376" lon="05.878711"><ele>4.5</ele><time>2021-02-18T12:10:45Z</time><name>PT5416</name></trkpt>
<trkpt lat="53.460376" lon="05.878734"><ele>4.5</ele><time>2021-02-18T12:10:47Z</time><name>PT5417</name></trkpt>
<trkpt lat="53.460375" lon="05.878756"><ele>4.4</ele><time>2021-02-18T12:10:47Z</time><name>PT5418</name></trkpt>
<trkpt lat="53.460375" lon="05.878779"><ele>4.2</ele><time>2021-02-18T12:10:48Z</time><name>PT5419</name></trkpt>
<trkpt lat="53.460373" lon="05.878802"><ele>4.4</ele><time>2021-02-18T12:10:50Z</time><name>PT5420</name></trkpt>
<trkpt lat="53.460374" lon="05.878825"><ele>4.3</ele><time>2021-02-18T12:10:50Z</time><name>PT5421</name></trkpt>
<trkpt lat="53.460374" lon="05.878848"><ele>4.4</ele><time>2021-02-18T12:10:51Z</time><name>PT5422</name></trkpt>
<trkpt lat="53.460372" lon="05.878869"><ele>4.4</ele><time>2021-02-18T12:10:53Z</time><name>PT5423</name></trkpt>
<trkpt lat="53.460373" lon="05.878890"><ele>4.2</ele><time>2021-02-18T12:10:53Z</time><name>PT5424</name></trkpt>
<trkpt lat="53.460373" lon="05.878914"><ele>4.5</ele><time>2021-02-18T12:10:54Z</time><name>PT5425</name></trkpt>
<trkpt lat="53.460374" lon="05.878933"><ele>4.5</ele><time>2021-02-18T12:10:56Z</time><name>PT5426</name></trkpt>
<trkpt lat="53.460374" lon="05.878955"><ele>4.5</ele><time>2021-02-18T12:10:56Z</time><name>PT5427</name></trkpt>
<trkpt lat="53.460374" lon="05.878976"><ele>4.7</ele><time>2021-02-18T12:10:57Z</time><name>PT5428</name></trkpt>
<trkpt lat="53.460374" lon="05.878996"><ele>4.6</ele><time>2021-02-18T12:10:59Z</time><name>PT5429</name></trkpt>
<trkpt lat="53.460375" lon="05.879011"><ele>4.5</ele><time>2021-02-18T12:10:59Z</time><name>PT5430</name></trkpt>
<trkpt lat="53.460377" lon="05.879030"><ele>4.6</ele><time>2021-02-18T12:11:00Z</time><name>PT5431</name></trkpt>
<trkpt lat="53.460377" lon="05.879048"><ele>4.7</ele><time>2021-02-18T12:11:02Z</time><name>PT5432</name></trkpt>
<trkpt lat="53.460377" lon="05.879070"><ele>4.6</ele><time>2021-02-18T12:11:02Z</time><name>PT5433</name></trkpt>
<trkpt lat="53.460376" lon="05.879090"><ele>4.6</ele><time>2021-02-18T12:11:03Z</time><name>PT5434</name></trkpt>
<trkpt lat="53.460375" lon="05.879111"><ele>4.7</ele><time>2021-02-18T12:11:05Z</time><name>PT5435</name></trkpt>
<trkpt lat="53.460374" lon="05.879129"><ele>4.7</ele><time>2021-02-18T12:11:05Z</time><name>PT5436</name></trkpt>
<trkpt lat="53.460374" lon="05.879150"><ele>4.8</ele><time>2021-02-18T12:11:06Z</time><name>PT5437</name></trkpt>
<trkpt lat="53.460373" lon="05.879172"><ele>5.1</ele><time>2021-02-18T12:11:08Z</time><name>PT5438</name></trkpt>
<trkpt lat="53.460373" lon="05.879192"><ele>5</ele><time>2021-02-18T12:11:08Z</time><name>PT5439</name></trkpt>
<trkpt lat="53.460371" lon="05.879215"><ele>4.7</ele><time>2021-02-18T12:11:09Z</time><name>PT5440</name></trkpt>
<trkpt lat="53.460369" lon="05.879235"><ele>4.7</ele><time>2021-02-18T12:11:11Z</time><name>PT5441</name></trkpt>
<trkpt lat="53.460368" lon="05.879258"><ele>4.5</ele><time>2021-02-18T12:11:11Z</time><name>PT5442</name></trkpt>
<trkpt lat="53.460367" lon="05.879278"><ele>4.4</ele><time>2021-02-18T12:11:12Z</time><name>PT5443</name></trkpt>
<trkpt lat="53.460366" lon="05.879297"><ele>4.5</ele><time>2021-02-18T12:11:14Z</time><name>PT5444</name></trkpt>
<trkpt lat="53.460366" lon="05.879318"><ele>4.5</ele><time>2021-02-18T12:11:14Z</time><name>PT5445</name></trkpt>
<trkpt lat="53.460365" lon="05.879339"><ele>4.6</ele><time>2021-02-18T12:11:15Z</time><name>PT5446</name></trkpt>
<trkpt lat="53.460365" lon="05.879360"><ele>4.5</ele><time>2021-02-18T12:11:17Z</time><name>PT5447</name></trkpt>
<trkpt lat="53.460365" lon="05.879379"><ele>4.6</ele><time>2021-02-18T12:11:17Z</time><name>PT5448</name></trkpt>
<trkpt lat="53.460366" lon="05.879402"><ele>4.5</ele><time>2021-02-18T12:11:18Z</time><name>PT5449</name></trkpt>
<trkpt lat="53.460367" lon="05.879423"><ele>4.6</ele><time>2021-02-18T12:11:20Z</time><name>PT5450</name></trkpt>
<trkpt lat="53.460368" lon="05.879445"><ele>4.5</ele><time>2021-02-18T12:11:20Z</time><name>PT5451</name></trkpt>
<trkpt lat="53.460368" lon="05.879468"><ele>4.2</ele><time>2021-02-18T12:11:21Z</time><name>PT5452</name></trkpt>
<trkpt lat="53.460368" lon="05.879489"><ele>4.1</ele><time>2021-02-18T12:11:23Z</time><name>PT5453</name></trkpt>
<trkpt lat="53.460368" lon="05.879507"><ele>4.2</ele><time>2021-02-18T12:11:23Z</time><name>PT5454</name></trkpt>
<trkpt lat="53.460368" lon="05.879524"><ele>4.2</ele><time>2021-02-18T12:11:24Z</time><name>PT5455</name></trkpt>
<trkpt lat="53.460368" lon="05.879543"><ele>4.4</ele><time>2021-02-18T12:11:26Z</time><name>PT5456</name></trkpt>
<trkpt lat="53.460368" lon="05.879563"><ele>4.4</ele><time>2021-02-18T12:11:26Z</time><name>PT5457</name></trkpt>
<trkpt lat="53.460368" lon="05.879581"><ele>4.6</ele><time>2021-02-18T12:11:27Z</time><name>PT5458</name></trkpt>
<trkpt lat="53.460367" lon="05.879603"><ele>4.3</ele><time>2021-02-18T12:11:29Z</time><name>PT5459</name></trkpt>
<trkpt lat="53.460366" lon="05.879623"><ele>4.4</ele><time>2021-02-18T12:11:29Z</time><name>PT5460</name></trkpt>
<trkpt lat="53.460365" lon="05.879643"><ele>4.3</ele><time>2021-02-18T12:11:30Z</time><name>PT5461</name></trkpt>
<trkpt lat="53.460364" lon="05.879662"><ele>4</ele><time>2021-02-18T12:11:32Z</time><name>PT5462</name></trkpt>
<trkpt lat="53.460363" lon="05.879681"><ele>4.2</ele><time>2021-02-18T12:11:32Z</time><name>PT5463</name></trkpt>
<trkpt lat="53.460362" lon="05.879702"><ele>4.5</ele><time>2021-02-18T12:11:33Z</time><name>PT5464</name></trkpt>
<trkpt lat="53.460362" lon="05.879721"><ele>4.8</ele><time>2021-02-18T12:11:35Z</time><name>PT5465</name></trkpt>
<trkpt lat="53.460361" lon="05.879738"><ele>4.9</ele><time>2021-02-18T12:11:35Z</time><name>PT5466</name></trkpt>
<trkpt lat="53.460359" lon="05.879757"><ele>4.8</ele><time>2021-02-18T12:11:36Z</time><name>PT5467</name></trkpt>
<trkpt lat="53.460357" lon="05.879777"><ele>4.7</ele><time>2021-02-18T12:11:38Z</time><name>PT5468</name></trkpt>
<trkpt lat="53.460355" lon="05.879799"><ele>4.4</ele><time>2021-02-18T12:11:38Z</time><name>PT5469</name></trkpt>
<trkpt lat="53.460353" lon="05.879820"><ele>4.2</ele><time>2021-02-18T12:11:39Z</time><name>PT5470</name></trkpt>
<trkpt lat="53.460352" lon="05.879838"><ele>4.3</ele><time>2021-02-18T12:11:41Z</time><name>PT5471</name></trkpt>
<trkpt lat="53.460350" lon="05.879858"><ele>4.5</ele><time>2021-02-18T12:11:41Z</time><name>PT5472</name></trkpt>
<trkpt lat="53.460350" lon="05.879875"><ele>4.7</ele><time>2021-02-18T12:11:42Z</time><name>PT5473</name></trkpt>
<trkpt lat="53.460349" lon="05.879892"><ele>4.6</ele><time>2021-02-18T12:11:44Z</time><name>PT5474</name></trkpt>
<trkpt lat="53.460347" lon="05.879911"><ele>4.6</ele><time>2021-02-18T12:11:44Z</time><name>PT5475</name></trkpt>
<trkpt lat="53.460347" lon="05.879927"><ele>4.4</ele><time>2021-02-18T12:11:45Z</time><name>PT5476</name></trkpt>
<trkpt lat="53.460347" lon="05.879947"><ele>4.1</ele><time>2021-02-18T12:11:47Z</time><name>PT5477</name></trkpt>
<trkpt lat="53.460346" lon="05.879964"><ele>4.1</ele><time>2021-02-18T12:11:47Z</time><name>PT5478</name></trkpt>
<trkpt lat="53.460346" lon="05.879985"><ele>4.3</ele><time>2021-02-18T12:11:48Z</time><name>PT5479</name></trkpt>
<trkpt lat="53.460347" lon="05.880004"><ele>4.4</ele><time>2021-02-18T12:11:50Z</time><name>PT5480</name></trkpt>
<trkpt lat="53.460346" lon="05.880025"><ele>4.4</ele><time>2021-02-18T12:11:50Z</time><name>PT5481</name></trkpt>
<trkpt lat="53.460346" lon="05.880043"><ele>4.5</ele><time>2021-02-18T12:11:51Z</time><name>PT5482</name></trkpt>
<trkpt lat="53.460346" lon="05.880063"><ele>4.2</ele><time>2021-02-18T12:11:53Z</time><name>PT5483</name></trkpt>
<trkpt lat="53.460344" lon="05.880085"><ele>3.9</ele><time>2021-02-18T12:11:53Z</time><name>PT5484</name></trkpt>
<trkpt lat="53.460344" lon="05.880107"><ele>3.8</ele><time>2021-02-18T12:11:54Z</time><name>PT5485</name></trkpt>
<trkpt lat="53.460344" lon="05.880127"><ele>3.8</ele><time>2021-02-18T12:11:56Z</time><name>PT5486</name></trkpt>
<trkpt lat="53.460345" lon="05.880146"><ele>3.8</ele><time>2021-02-18T12:11:56Z</time><name>PT5487</name></trkpt>
<trkpt lat="53.460347" lon="05.880166"><ele>4</ele><time>2021-02-18T12:11:57Z</time><name>PT5488</name></trkpt>
<trkpt lat="53.460347" lon="05.880185"><ele>4</ele><time>2021-02-18T12:11:59Z</time><name>PT5489</name></trkpt>
<trkpt lat="53.460348" lon="05.880207"><ele>4.1</ele><time>2021-02-18T12:11:59Z</time><name>PT5490</name></trkpt>
<trkpt lat="53.460349" lon="05.880226"><ele>4.2</ele><time>2021-02-18T12:12:00Z</time><name>PT5491</name></trkpt>
<trkpt lat="53.460349" lon="05.880245"><ele>4.1</ele><time>2021-02-18T12:12:02Z</time><name>PT5492</name></trkpt>
<trkpt lat="53.460349" lon="05.880263"><ele>4.2</ele><time>2021-02-18T12:12:02Z</time><name>PT5493</name></trkpt>
<trkpt lat="53.460350" lon="05.880282"><ele>4.2</ele><time>2021-02-18T12:12:03Z</time><name>PT5494</name></trkpt>
<trkpt lat="53.460349" lon="05.880302"><ele>3.9</ele><time>2021-02-18T12:12:05Z</time><name>PT5495</name></trkpt>
<trkpt lat="53.460349" lon="05.880322"><ele>3.9</ele><time>2021-02-18T12:12:05Z</time><name>PT5496</name></trkpt>
<trkpt lat="53.460349" lon="05.880343"><ele>4</ele><time>2021-02-18T12:12:06Z</time><name>PT5497</name></trkpt>
<trkpt lat="53.460349" lon="05.880364"><ele>4.2</ele><time>2021-02-18T12:12:08Z</time><name>PT5498</name></trkpt>
<trkpt lat="53.460349" lon="05.880385"><ele>4.2</ele><time>2021-02-18T12:12:08Z</time><name>PT5499</name></trkpt>
<trkpt lat="53.460347" lon="05.880404"><ele>4.2</ele><time>2021-02-18T12:12:09Z</time><name>PT5500</name></trkpt>
<trkpt lat="53.460346" lon="05.880423"><ele>4.4</ele><time>2021-02-18T12:12:11Z</time><name>PT5501</name></trkpt>
<trkpt lat="53.460343" lon="05.880441"><ele>4.2</ele><time>2021-02-18T12:12:11Z</time><name>PT5502</name></trkpt>
<trkpt lat="53.460343" lon="05.880460"><ele>4.2</ele><time>2021-02-18T12:12:12Z</time><name>PT5503</name></trkpt>
<trkpt lat="53.460343" lon="05.880479"><ele>4.1</ele><time>2021-02-18T12:12:14Z</time><name>PT5504</name></trkpt>
<trkpt lat="53.460345" lon="05.880498"><ele>4</ele><time>2021-02-18T12:12:14Z</time><name>PT5505</name></trkpt>
<trkpt lat="53.460346" lon="05.880515"><ele>4.3</ele><time>2021-02-18T12:12:15Z</time><name>PT5506</name></trkpt>
<trkpt lat="53.460346" lon="05.880533"><ele>4.4</ele><time>2021-02-18T12:12:17Z</time><name>PT5507</name></trkpt>
<trkpt lat="53.460345" lon="05.880549"><ele>4.5</ele><time>2021-02-18T12:12:17Z</time><name>PT5508</name></trkpt>
<trkpt lat="53.460346" lon="05.880568"><ele>4.5</ele><time>2021-02-18T12:12:18Z</time><name>PT5509</name></trkpt>
<trkpt lat="53.460345" lon="05.880586"><ele>4.2</ele><time>2021-02-18T12:12:20Z</time><name>PT5510</name></trkpt>
<trkpt lat="53.460345" lon="05.880606"><ele>4.2</ele><time>2021-02-18T12:12:20Z</time><name>PT5511</name></trkpt>
<trkpt lat="53.460344" lon="05.880625"><ele>4.6</ele><time>2021-02-18T12:12:21Z</time><name>PT5512</name></trkpt>
<trkpt lat="53.460344" lon="05.880645"><ele>4.4</ele><time>2021-02-18T12:12:23Z</time><name>PT5513</name></trkpt>
<trkpt lat="53.460343" lon="05.880669"><ele>4.4</ele><time>2021-02-18T12:12:23Z</time><name>PT5514</name></trkpt>
<trkpt lat="53.460342" lon="05.880692"><ele>4.5</ele><time>2021-02-18T12:12:24Z</time><name>PT5515</name></trkpt>
<trkpt lat="53.460342" lon="05.880712"><ele>4.4</ele><time>2021-02-18T12:12:26Z</time><name>PT5516</name></trkpt>
<trkpt lat="53.460342" lon="05.880731"><ele>4.6</ele><time>2021-02-18T12:12:26Z</time><name>PT5517</name></trkpt>
<trkpt lat="53.460344" lon="05.880756"><ele>4.7</ele><time>2021-02-18T12:12:27Z</time><name>PT5518</name></trkpt>
<trkpt lat="53.460344" lon="05.880776"><ele>4.6</ele><time>2021-02-18T12:12:29Z</time><name>PT5519</name></trkpt>
<trkpt lat="53.460346" lon="05.880796"><ele>4.6</ele><time>2021-02-18T12:12:29Z</time><name>PT5520</name></trkpt>
<trkpt lat="53.460348" lon="05.880811"><ele>4.3</ele><time>2021-02-18T12:12:30Z</time><name>PT5521</name></trkpt>
<trkpt lat="53.460350" lon="05.880828"><ele>4.3</ele><time>2021-02-18T12:12:32Z</time><name>PT5522</name></trkpt>
<trkpt lat="53.460351" lon="05.880848"><ele>4.3</ele><time>2021-02-18T12:12:32Z</time><name>PT5523</name></trkpt>
<trkpt lat="53.460351" lon="05.880866"><ele>4.4</ele><time>2021-02-18T12:12:33Z</time><name>PT5524</name></trkpt>
<trkpt lat="53.460353" lon="05.880883"><ele>4.4</ele><time>2021-02-18T12:12:35Z</time><name>PT5525</name></trkpt>
<trkpt lat="53.460352" lon="05.880903"><ele>4.5</ele><time>2021-02-18T12:12:35Z</time><name>PT5526</name></trkpt>
<trkpt lat="53.460351" lon="05.880923"><ele>4.2</ele><time>2021-02-18T12:12:36Z</time><name>PT5527</name></trkpt>
<trkpt lat="53.460350" lon="05.880940"><ele>4.2</ele><time>2021-02-18T12:12:38Z</time><name>PT5528</name></trkpt>
<trkpt lat="53.460350" lon="05.880958"><ele>4.2</ele><time>2021-02-18T12:12:38Z</time><name>PT5529</name></trkpt>
<trkpt lat="53.460349" lon="05.880977"><ele>4.4</ele><time>2021-02-18T12:12:39Z</time><name>PT5530</name></trkpt>
<trkpt lat="53.460351" lon="05.880995"><ele>4.7</ele><time>2021-02-18T12:12:41Z</time><name>PT5531</name></trkpt>
<trkpt lat="53.460352" lon="05.881013"><ele>4.7</ele><time>2021-02-18T12:12:41Z</time><name>PT5532</name></trkpt>
<trkpt lat="53.460353" lon="05.881033"><ele>4.7</ele><time>2021-02-18T12:12:42Z</time><name>PT5533</name></trkpt>
<trkpt lat="53.460353" lon="05.881051"><ele>4.5</ele><time>2021-02-18T12:12:44Z</time><name>PT5534</name></trkpt>
<trkpt lat="53.460354" lon="05.881068"><ele>4.3</ele><time>2021-02-18T12:12:44Z</time><name>PT5535</name></trkpt>
<trkpt lat="53.460354" lon="05.881085"><ele>4.4</ele><time>2021-02-18T12:12:45Z</time><name>PT5536</name></trkpt>
<trkpt lat="53.460354" lon="05.881100"><ele>4.5</ele><time>2021-02-18T12:12:47Z</time><name>PT5537</name></trkpt>
<trkpt lat="53.460354" lon="05.881117"><ele>4.7</ele><time>2021-02-18T12:12:47Z</time><name>PT5538</name></trkpt>
<trkpt lat="53.460352" lon="05.881137"><ele>4.8</ele><time>2021-02-18T12:12:48Z</time><name>PT5539</name></trkpt>
<trkpt lat="53.460351" lon="05.881157"><ele>5</ele><time>2021-02-18T12:12:50Z</time><name>PT5540</name></trkpt>
<trkpt lat="53.460349" lon="05.881177"><ele>4.8</ele><time>2021-02-18T12:12:50Z</time><name>PT5541</name></trkpt>
<trkpt lat="53.460347" lon="05.881198"><ele>4.8</ele><time>2021-02-18T12:12:51Z</time><name>PT5542</name></trkpt>
<trkpt lat="53.460345" lon="05.881218"><ele>4.6</ele><time>2021-02-18T12:12:53Z</time><name>PT5543</name></trkpt>
<trkpt lat="53.460344" lon="05.881238"><ele>4.6</ele><time>2021-02-18T12:12:53Z</time><name>PT5544</name></trkpt>
<trkpt lat="53.460344" lon="05.881255"><ele>4.7</ele><time>2021-02-18T12:12:54Z</time><name>PT5545</name></trkpt>
<trkpt lat="53.460344" lon="05.881273"><ele>4.8</ele><time>2021-02-18T12:12:56Z</time><name>PT5546</name></trkpt>
<trkpt lat="53.460343" lon="05.881290"><ele>4.9</ele><time>2021-02-18T12:12:56Z</time><name>PT5547</name></trkpt>
<trkpt lat="53.460341" lon="05.881310"><ele>5</ele><time>2021-02-18T12:12:57Z</time><name>PT5548</name></trkpt>
<trkpt lat="53.460342" lon="05.881327"><ele>4.6</ele><time>2021-02-18T12:12:59Z</time><name>PT5549</name></trkpt>
<trkpt lat="53.460343" lon="05.881346"><ele>4.5</ele><time>2021-02-18T12:12:59Z</time><name>PT5550</name></trkpt>
<trkpt lat="53.460344" lon="05.881365"><ele>4.5</ele><time>2021-02-18T12:13:00Z</time><name>PT5551</name></trkpt>
<trkpt lat="53.460343" lon="05.881379"><ele>4.4</ele><time>2021-02-18T12:13:02Z</time><name>PT5552</name></trkpt>
<trkpt lat="53.460342" lon="05.881396"><ele>4.5</ele><time>2021-02-18T12:13:02Z</time><name>PT5553</name></trkpt>
<trkpt lat="53.460341" lon="05.881415"><ele>4.6</ele><time>2021-02-18T12:13:03Z</time><name>PT5554</name></trkpt>
<trkpt lat="53.460339" lon="05.881437"><ele>4.9</ele><time>2021-02-18T12:13:05Z</time><name>PT5555</name></trkpt>
<trkpt lat="53.460337" lon="05.881457"><ele>4.9</ele><time>2021-02-18T12:13:05Z</time><name>PT5556</name></trkpt>
<trkpt lat="53.460335" lon="05.881475"><ele>5</ele><time>2021-02-18T12:13:06Z</time><name>PT5557</name></trkpt>
<trkpt lat="53.460334" lon="05.881492"><ele>5.2</ele><time>2021-02-18T12:13:08Z</time><name>PT5558</name></trkpt>
<trkpt lat="53.460333" lon="05.881510"><ele>5.1</ele><time>2021-02-18T12:13:08Z</time><name>PT5559</name></trkpt>
<trkpt lat="53.460334" lon="05.881530"><ele>5</ele><time>2021-02-18T12:13:09Z</time><name>PT5560</name></trkpt>
<trkpt lat="53.460334" lon="05.881545"><ele>5.1</ele><time>2021-02-18T12:13:11Z</time><name>PT5561</name></trkpt>
<trkpt lat="53.460333" lon="05.881566"><ele>5</ele><time>2021-02-18T12:13:11Z</time><name>PT5562</name></trkpt>
<trkpt lat="53.460333" lon="05.881584"><ele>4.9</ele><time>2021-02-18T12:13:12Z</time><name>PT5563</name></trkpt>
<trkpt lat="53.460332" lon="05.881608"><ele>5</ele><time>2021-02-18T12:13:14Z</time><name>PT5564</name></trkpt>
<trkpt lat="53.460332" lon="05.881627"><ele>5</ele><time>2021-02-18T12:13:14Z</time><name>PT5565</name></trkpt>
<trkpt lat="53.460330" lon="05.881650"><ele>4.7</ele><time>2021-02-18T12:13:15Z</time><name>PT5566</name></trkpt>
<trkpt lat="53.460330" lon="05.881671"><ele>4.7</ele><time>2021-02-18T12:13:17Z</time><name>PT5567</name></trkpt>
<trkpt lat="53.460328" lon="05.881689"><ele>4.5</ele><time>2021-02-18T12:13:17Z</time><name>PT5568</name></trkpt>
<trkpt lat="53.460325" lon="05.881709"><ele>4.2</ele><time>2021-02-18T12:13:18Z</time><name>PT5569</name></trkpt>
<trkpt lat="53.460323" lon="05.881731"><ele>4.4</ele><time>2021-02-18T12:13:20Z</time><name>PT5570</name></trkpt>
<trkpt lat="53.460322" lon="05.881748"><ele>4.5</ele><time>2021-02-18T12:13:20Z</time><name>PT5571</name></trkpt>
<trkpt lat="53.460322" lon="05.881767"><ele>4.5</ele><time>2021-02-18T12:13:21Z</time><name>PT5572</name></trkpt>
<trkpt lat="53.460321" lon="05.881788"><ele>4.9</ele><time>2021-02-18T12:13:23Z</time><name>PT5573</name></trkpt>
<trkpt lat="53.460322" lon="05.881807"><ele>4.9</ele><time>2021-02-18T12:13:23Z</time><name>PT5574</name></trkpt>
<trkpt lat="53.460322" lon="05.881828"><ele>5</ele><time>2021-02-18T12:13:24Z</time><name>PT5575</name></trkpt>
<trkpt lat="53.460324" lon="05.881850"><ele>5.2</ele><time>2021-02-18T12:13:26Z</time><name>PT5576</name></trkpt>
<trkpt lat="53.460324" lon="05.881869"><ele>5</ele><time>2021-02-18T12:13:26Z</time><name>PT5577</name></trkpt>
<trkpt lat="53.460323" lon="05.881889"><ele>5</ele><time>2021-02-18T12:13:27Z</time><name>PT5578</name></trkpt>
<trkpt lat="53.460323" lon="05.881908"><ele>4.9</ele><time>2021-02-18T12:13:29Z</time><name>PT5579</name></trkpt>
<trkpt lat="53.460323" lon="05.881928"><ele>4.7</ele><time>2021-02-18T12:13:29Z</time><name>PT5580</name></trkpt>
<trkpt lat="53.460324" lon="05.881947"><ele>4.7</ele><time>2021-02-18T12:13:30Z</time><name>PT5581</name></trkpt>
<trkpt lat="53.460325" lon="05.881965"><ele>4.6</ele><time>2021-02-18T12:13:32Z</time><name>PT5582</name></trkpt>
<trkpt lat="53.460325" lon="05.881986"><ele>4.5</ele><time>2021-02-18T12:13:32Z</time><name>PT5583</name></trkpt>
<trkpt lat="53.460324" lon="05.882006"><ele>4.5</ele><time>2021-02-18T12:13:33Z</time><name>PT5584</name></trkpt>
<trkpt lat="53.460324" lon="05.882025"><ele>4.5</ele><time>2021-02-18T12:13:35Z</time><name>PT5585</name></trkpt>
<trkpt lat="53.460324" lon="05.882045"><ele>4.6</ele><time>2021-02-18T12:13:35Z</time><name>PT5586</name></trkpt>
<trkpt lat="53.460323" lon="05.882064"><ele>4.6</ele><time>2021-02-18T12:13:36Z</time><name>PT5587</name></trkpt>
<trkpt lat="53.460322" lon="05.882083"><ele>4.7</ele><time>2021-02-18T12:13:38Z</time><name>PT5588</name></trkpt>
<trkpt lat="53.460321" lon="05.882101"><ele>4.7</ele><time>2021-02-18T12:13:38Z</time><name>PT5589</name></trkpt>
<trkpt lat="53.460319" lon="05.882120"><ele>4.7</ele><time>2021-02-18T12:13:39Z</time><name>PT5590</name></trkpt>
<trkpt lat="53.460319" lon="05.882141"><ele>4.8</ele><time>2021-02-18T12:13:41Z</time><name>PT5591</name></trkpt>
<trkpt lat="53.460320" lon="05.882161"><ele>4.9</ele><time>2021-02-18T12:13:41Z</time><name>PT5592</name></trkpt>
<trkpt lat="53.460322" lon="05.882180"><ele>4.9</ele><time>2021-02-18T12:13:42Z</time><name>PT5593</name></trkpt>
<trkpt lat="53.460323" lon="05.882201"><ele>5</ele><time>2021-02-18T12:13:44Z</time><name>PT5594</name></trkpt>
<trkpt lat="53.460324" lon="05.882220"><ele>5</ele><time>2021-02-18T12:13:44Z</time><name>PT5595</name></trkpt>
<trkpt lat="53.460324" lon="05.882238"><ele>5.1</ele><time>2021-02-18T12:13:45Z</time><name>PT5596</name></trkpt>
<trkpt lat="53.460324" lon="05.882257"><ele>4.8</ele><time>2021-02-18T12:13:47Z</time><name>PT5597</name></trkpt>
<trkpt lat="53.460324" lon="05.882276"><ele>4.7</ele><time>2021-02-18T12:13:47Z</time><name>PT5598</name></trkpt>
<trkpt lat="53.460322" lon="05.882298"><ele>4.6</ele><time>2021-02-18T12:13:48Z</time><name>PT5599</name></trkpt>
<trkpt lat="53.460320" lon="05.882317"><ele>4.5</ele><time>2021-02-18T12:13:50Z</time><name>PT5600</name></trkpt>
<trkpt lat="53.460319" lon="05.882340"><ele>4.5</ele><time>2021-02-18T12:13:50Z</time><name>PT5601</name></trkpt>
<trkpt lat="53.460317" lon="05.882362"><ele>4.7</ele><time>2021-02-18T12:13:51Z</time><name>PT5602</name></trkpt>
<trkpt lat="53.460314" lon="05.882384"><ele>4.7</ele><time>2021-02-18T12:13:53Z</time><name>PT5603</name></trkpt>
<trkpt lat="53.460312" lon="05.882404"><ele>4.7</ele><time>2021-02-18T12:13:53Z</time><name>PT5604</name></trkpt>
<trkpt lat="53.460309" lon="05.882423"><ele>4.8</ele><time>2021-02-18T12:13:54Z</time><name>PT5605</name></trkpt>
<trkpt lat="53.460309" lon="05.882443"><ele>4.7</ele><time>2021-02-18T12:13:56Z</time><name>PT5606</name></trkpt>
<trkpt lat="53.460309" lon="05.882463"><ele>4.7</ele><time>2021-02-18T12:13:56Z</time><name>PT5607</name></trkpt>
<trkpt lat="53.460310" lon="05.882483"><ele>5.1</ele><time>2021-02-18T12:13:57Z</time><name>PT5608</name></trkpt>
<trkpt lat="53.460311" lon="05.882504"><ele>5.2</ele><time>2021-02-18T12:13:59Z</time><name>PT5609</name></trkpt>
<trkpt lat="53.460311" lon="05.882524"><ele>5.2</ele><time>2021-02-18T12:13:59Z</time><name>PT5610</name></trkpt>
<trkpt lat="53.460312" lon="05.882540"><ele>5.3</ele><time>2021-02-18T12:14:00Z</time><name>PT5611</name></trkpt>
<trkpt lat="53.460311" lon="05.882559"><ele>5.2</ele><time>2021-02-18T12:14:02Z</time><name>PT5612</name></trkpt>
<trkpt lat="53.460308" lon="05.882578"><ele>5.2</ele><time>2021-02-18T12:14:02Z</time><name>PT5613</name></trkpt>
<trkpt lat="53.460306" lon="05.882600"><ele>5</ele><time>2021-02-18T12:14:03Z</time><name>PT5614</name></trkpt>
<trkpt lat="53.460304" lon="05.882623"><ele>4.7</ele><time>2021-02-18T12:14:05Z</time><name>PT5615</name></trkpt>
<trkpt lat="53.460302" lon="05.882643"><ele>4.7</ele><time>2021-02-18T12:14:05Z</time><name>PT5616</name></trkpt>
<trkpt lat="53.460300" lon="05.882663"><ele>4.7</ele><time>2021-02-18T12:14:06Z</time><name>PT5617</name></trkpt>
<trkpt lat="53.460300" lon="05.882684"><ele>4.6</ele><time>2021-02-18T12:14:08Z</time><name>PT5618</name></trkpt>
<trkpt lat="53.460300" lon="05.882704"><ele>4.7</ele><time>2021-02-18T12:14:08Z</time><name>PT5619</name></trkpt>
<trkpt lat="53.460301" lon="05.882724"><ele>4.5</ele><time>2021-02-18T12:14:09Z</time><name>PT5620</name></trkpt>
<trkpt lat="53.460302" lon="05.882742"><ele>4.5</ele><time>2021-02-18T12:14:11Z</time><name>PT5621</name></trkpt>
<trkpt lat="53.460302" lon="05.882759"><ele>4.4</ele><time>2021-02-18T12:14:11Z</time><name>PT5622</name></trkpt>
<trkpt lat="53.460302" lon="05.882777"><ele>4.2</ele><time>2021-02-18T12:14:12Z</time><name>PT5623</name></trkpt>
<trkpt lat="53.460302" lon="05.882794"><ele>4.2</ele><time>2021-02-18T12:14:14Z</time><name>PT5624</name></trkpt>
<trkpt lat="53.460302" lon="05.882814"><ele>4.2</ele><time>2021-02-18T12:14:14Z</time><name>PT5625</name></trkpt>
<trkpt lat="53.460301" lon="05.882833"><ele>4.4</ele><time>2021-02-18T12:14:15Z</time><name>PT5626</name></trkpt>
<trkpt lat="53.460299" lon="05.882854"><ele>4.4</ele><time>2021-02-18T12:14:17Z</time><name>PT5627</name></trkpt>
<trkpt lat="53.460297" lon="05.882873"><ele>4.6</ele><time>2021-02-18T12:14:17Z</time><name>PT5628</name></trkpt>
<trkpt lat="53.460296" lon="05.882893"><ele>4.5</ele><time>2021-02-18T12:14:18Z</time><name>PT5629</name></trkpt>
<trkpt lat="53.460295" lon="05.882915"><ele>4.2</ele><time>2021-02-18T12:14:20Z</time><name>PT5630</name></trkpt>
<trkpt lat="53.460294" lon="05.882934"><ele>4.5</ele><time>2021-02-18T12:14:20Z</time><name>PT5631</name></trkpt>
<trkpt lat="53.460295" lon="05.882953"><ele>4.5</ele><time>2021-02-18T12:14:21Z</time><name>PT5632</name></trkpt>
<trkpt lat="53.460295" lon="05.882971"><ele>4.3</ele><time>2021-02-18T12:14:23Z</time><name>PT5633</name></trkpt>
<trkpt lat="53.460295" lon="05.882989"><ele>4.3</ele><time>2021-02-18T12:14:23Z</time><name>PT5634</name></trkpt>
<trkpt lat="53.460296" lon="05.883006"><ele>4.1</ele><time>2021-02-18T12:14:24Z</time><name>PT5635</name></trkpt>
<trkpt lat="53.460296" lon="05.883024"><ele>4</ele><time>2021-02-18T12:14:26Z</time><name>PT5636</name></trkpt>
<trkpt lat="53.460295" lon="05.883042"><ele>4.1</ele><time>2021-02-18T12:14:26Z</time><name>PT5637</name></trkpt>
<trkpt lat="53.460292" lon="05.883065"><ele>4.2</ele><time>2021-02-18T12:14:27Z</time><name>PT5638</name></trkpt>
<trkpt lat="53.460291" lon="05.883084"><ele>4.3</ele><time>2021-02-18T12:14:29Z</time><name>PT5639</name></trkpt>
<trkpt lat="53.460289" lon="05.883104"><ele>4.2</ele><time>2021-02-18T12:14:29Z</time><name>PT5640</name></trkpt>
<trkpt lat="53.460288" lon="05.883124"><ele>4.4</ele><time>2021-02-18T12:14:30Z</time><name>PT5641</name></trkpt>
<trkpt lat="53.460287" lon="05.883145"><ele>4.5</ele><time>2021-02-18T12:14:32Z</time><name>PT5642</name></trkpt>
<trkpt lat="53.460287" lon="05.883162"><ele>4.6</ele><time>2021-02-18T12:14:32Z</time><name>PT5643</name></trkpt>
<trkpt lat="53.460288" lon="05.883182"><ele>4.7</ele><time>2021-02-18T12:14:33Z</time><name>PT5644</name></trkpt>
<trkpt lat="53.460289" lon="05.883201"><ele>4.6</ele><time>2021-02-18T12:14:35Z</time><name>PT5645</name></trkpt>
<trkpt lat="53.460289" lon="05.883219"><ele>4.4</ele><time>2021-02-18T12:14:35Z</time><name>PT5646</name></trkpt>
<trkpt lat="53.460289" lon="05.883235"><ele>4.4</ele><time>2021-02-18T12:14:36Z</time><name>PT5647</name></trkpt>
<trkpt lat="53.460289" lon="05.883252"><ele>4.5</ele><time>2021-02-18T12:14:38Z</time><name>PT5648</name></trkpt>
<trkpt lat="53.460288" lon="05.883269"><ele>4.5</ele><time>2021-02-18T12:14:38Z</time><name>PT5649</name></trkpt>
<trkpt lat="53.460286" lon="05.883288"><ele>4.5</ele><time>2021-02-18T12:14:39Z</time><name>PT5650</name></trkpt>
<trkpt lat="53.460284" lon="05.883308"><ele>4.7</ele><time>2021-02-18T12:14:41Z</time><name>PT5651</name></trkpt>
<trkpt lat="53.460283" lon="05.883327"><ele>4.6</ele><time>2021-02-18T12:14:41Z</time><name>PT5652</name></trkpt>
<trkpt lat="53.460282" lon="05.883343"><ele>4.5</ele><time>2021-02-18T12:14:42Z</time><name>PT5653</name></trkpt>
<trkpt lat="53.460281" lon="05.883360"><ele>4.5</ele><time>2021-02-18T12:14:44Z</time><name>PT5654</name></trkpt>
<trkpt lat="53.460282" lon="05.883379"><ele>4.4</ele><time>2021-02-18T12:14:44Z</time><name>PT5655</name></trkpt>
<trkpt lat="53.460283" lon="05.883397"><ele>4.2</ele><time>2021-02-18T12:14:45Z</time><name>PT5656</name></trkpt>
<trkpt lat="53.460284" lon="05.883415"><ele>4.2</ele><time>2021-02-18T12:14:47Z</time><name>PT5657</name></trkpt>
<trkpt lat="53.460285" lon="05.883432"><ele>4.2</ele><time>2021-02-18T12:14:47Z</time><name>PT5658</name></trkpt>
<trkpt lat="53.460285" lon="05.883449"><ele>4.3</ele><time>2021-02-18T12:14:48Z</time><name>PT5659</name></trkpt>
<trkpt lat="53.460284" lon="05.883467"><ele>4.3</ele><time>2021-02-18T12:14:50Z</time><name>PT5660</name></trkpt>
<trkpt lat="53.460283" lon="05.883486"><ele>4.2</ele><time>2021-02-18T12:14:50Z</time><name>PT5661</name></trkpt>
<trkpt lat="53.460283" lon="05.883504"><ele>4.3</ele><time>2021-02-18T12:14:51Z</time><name>PT5662</name></trkpt>
<trkpt lat="53.460282" lon="05.883521"><ele>4.2</ele><time>2021-02-18T12:14:53Z</time><name>PT5663</name></trkpt>
<trkpt lat="53.460282" lon="05.883541"><ele>4.2</ele><time>2021-02-18T12:14:53Z</time><name>PT5664</name></trkpt>
<trkpt lat="53.460283" lon="05.883564"><ele>4.5</ele><time>2021-02-18T12:14:54Z</time><name>PT5665</name></trkpt>
<trkpt lat="53.460286" lon="05.883584"><ele>4.7</ele><time>2021-02-18T12:14:56Z</time><name>PT5666</name></trkpt>
<trkpt lat="53.460286" lon="05.883606"><ele>4.6</ele><time>2021-02-18T12:14:56Z</time><name>PT5667</name></trkpt>
<trkpt lat="53.460285" lon="05.883625"><ele>4.8</ele><time>2021-02-18T12:14:57Z</time><name>PT5668</name></trkpt>
<trkpt lat="53.460286" lon="05.883648"><ele>4.7</ele><time>2021-02-18T12:14:59Z</time><name>PT5669</name></trkpt>
<trkpt lat="53.460285" lon="05.883670"><ele>4.8</ele><time>2021-02-18T12:14:59Z</time><name>PT5670</name></trkpt>
<trkpt lat="53.460284" lon="05.883691"><ele>4.7</ele><time>2021-02-18T12:15:00Z</time><name>PT5671</name></trkpt>
<trkpt lat="53.460284" lon="05.883711"><ele>4.8</ele><time>2021-02-18T12:15:02Z</time><name>PT5672</name></trkpt>
<trkpt lat="53.460284" lon="05.883733"><ele>4.7</ele><time>2021-02-18T12:15:02Z</time><name>PT5673</name></trkpt>
<trkpt lat="53.460285" lon="05.883754"><ele>4.8</ele><time>2021-02-18T12:15:03Z</time><name>PT5674</name></trkpt>
<trkpt lat="53.460284" lon="05.883775"><ele>5</ele><time>2021-02-18T12:15:05Z</time><name>PT5675</name></trkpt>
<trkpt lat="53.460284" lon="05.883797"><ele>4.9</ele><time>2021-02-18T12:15:05Z</time><name>PT5676</name></trkpt>
<trkpt lat="53.460285" lon="05.883815"><ele>4.8</ele><time>2021-02-18T12:15:06Z</time><name>PT5677</name></trkpt>
<trkpt lat="53.460285" lon="05.883833"><ele>4.7</ele><time>2021-02-18T12:15:08Z</time><name>PT5678</name></trkpt>
<trkpt lat="53.460284" lon="05.883853"><ele>4.7</ele><time>2021-02-18T12:15:08Z</time><name>PT5679</name></trkpt>
<trkpt lat="53.460283" lon="05.883873"><ele>4.8</ele><time>2021-02-18T12:15:09Z</time><name>PT5680</name></trkpt>
<trkpt lat="53.460281" lon="05.883891"><ele>4.8</ele><time>2021-02-18T12:15:11Z</time><name>PT5681</name></trkpt>
<trkpt lat="53.460280" lon="05.883911"><ele>4.8</ele><time>2021-02-18T12:15:11Z</time><name>PT5682</name></trkpt>
<trkpt lat="53.460279" lon="05.883933"><ele>4.9</ele><time>2021-02-18T12:15:12Z</time><name>PT5683</name></trkpt>
<trkpt lat="53.460278" lon="05.883956"><ele>4.9</ele><time>2021-02-18T12:15:14Z</time><name>PT5684</name></trkpt>
<trkpt lat="53.460276" lon="05.883978"><ele>5</ele><time>2021-02-18T12:15:14Z</time><name>PT5685</name></trkpt>
<trkpt lat="53.460276" lon="05.883998"><ele>4.9</ele><time>2021-02-18T12:15:15Z</time><name>PT5686</name></trkpt>
<trkpt lat="53.460275" lon="05.884017"><ele>4.8</ele><time>2021-02-18T12:15:17Z</time><name>PT5687</name></trkpt>
<trkpt lat="53.460274" lon="05.884038"><ele>4.9</ele><time>2021-02-18T12:15:17Z</time><name>PT5688</name></trkpt>
<trkpt lat="53.460275" lon="05.884060"><ele>4.9</ele><time>2021-02-18T12:15:18Z</time><name>PT5689</name></trkpt>
<trkpt lat="53.460275" lon="05.884081"><ele>5</ele><time>2021-02-18T12:15:20Z</time><name>PT5690</name></trkpt>
<trkpt lat="53.460276" lon="05.884102"><ele>4.9</ele><time>2021-02-18T12:15:20Z</time><name>PT5691</name></trkpt>
<trkpt lat="53.460277" lon="05.884123"><ele>5</ele><time>2021-02-18T12:15:21Z</time><name>PT5692</name></trkpt>
<trkpt lat="53.460279" lon="05.884143"><ele>4.7</ele><time>2021-02-18T12:15:23Z</time><name>PT5693</name></trkpt>
<trkpt lat="53.460279" lon="05.884162"><ele>4.6</ele><time>2021-02-18T12:15:23Z</time><name>PT5694</name></trkpt>
<trkpt lat="53.460279" lon="05.884180"><ele>4.8</ele><time>2021-02-18T12:15:24Z</time><name>PT5695</name></trkpt>
<trkpt lat="53.460279" lon="05.884197"><ele>4.7</ele><time>2021-02-18T12:15:26Z</time><name>PT5696</name></trkpt>
<trkpt lat="53.460279" lon="05.884217"><ele>4.7</ele><time>2021-02-18T12:15:26Z</time><name>PT5697</name></trkpt>
<trkpt lat="53.460278" lon="05.884238"><ele>4.9</ele><time>2021-02-18T12:15:27Z</time><name>PT5698</name></trkpt>
<trkpt lat="53.460276" lon="05.884260"><ele>4.8</ele><time>2021-02-18T12:15:29Z</time><name>PT5699</name></trkpt>
<trkpt lat="53.460276" lon="05.884282"><ele>4.7</ele><time>2021-02-18T12:15:29Z</time><name>PT5700</name></trkpt>
<trkpt lat="53.460275" lon="05.884302"><ele>4.6</ele><time>2021-02-18T12:15:30Z</time><name>PT5701</name></trkpt>
<trkpt lat="53.460274" lon="05.884322"><ele>4.7</ele><time>2021-02-18T12:15:32Z</time><name>PT5702</name></trkpt>
<trkpt lat="53.460274" lon="05.884340"><ele>4.6</ele><time>2021-02-18T12:15:32Z</time><name>PT5703</name></trkpt>
<trkpt lat="53.460273" lon="05.884359"><ele>4.6</ele><time>2021-02-18T12:15:33Z</time><name>PT5704</name></trkpt>
<trkpt lat="53.460272" lon="05.884380"><ele>4.7</ele><time>2021-02-18T12:15:35Z</time><name>PT5705</name></trkpt>
<trkpt lat="53.460272" lon="05.884398"><ele>4.7</ele><time>2021-02-18T12:15:35Z</time><name>PT5706</name></trkpt>
<trkpt lat="53.460273" lon="05.884419"><ele>4.8</ele><time>2021-02-18T12:15:36Z</time><name>PT5707</name></trkpt>
<trkpt lat="53.460274" lon="05.884439"><ele>5.1</ele><time>2021-02-18T12:15:38Z</time><name>PT5708</name></trkpt>
<trkpt lat="53.460274" lon="05.884457"><ele>5.3</ele><time>2021-02-18T12:15:38Z</time><name>PT5709</name></trkpt>
<trkpt lat="53.460275" lon="05.884478"><ele>5.2</ele><time>2021-02-18T12:15:39Z</time><name>PT5710</name></trkpt>
<trkpt lat="53.460275" lon="05.884499"><ele>5.3</ele><time>2021-02-18T12:15:41Z</time><name>PT5711</name></trkpt>
<trkpt lat="53.460274" lon="05.884518"><ele>5.2</ele><time>2021-02-18T12:15:41Z</time><name>PT5712</name></trkpt>
<trkpt lat="53.460273" lon="05.884539"><ele>5.2</ele><time>2021-02-18T12:15:42Z</time><name>PT5713</name></trkpt>
<trkpt lat="53.460271" lon="05.884564"><ele>5.2</ele><time>2021-02-18T12:15:44Z</time><name>PT5714</name></trkpt>
<trkpt lat="53.460269" lon="05.884589"><ele>5.1</ele><time>2021-02-18T12:15:44Z</time><name>PT5715</name></trkpt>
<trkpt lat="53.460266" lon="05.884611"><ele>4.9</ele><time>2021-02-18T12:15:45Z</time><name>PT5716</name></trkpt>
<trkpt lat="53.460265" lon="05.884631"><ele>4.9</ele><time>2021-02-18T12:15:47Z</time><name>PT5717</name></trkpt>
<trkpt lat="53.460265" lon="05.884650"><ele>4.8</ele><time>2021-02-18T12:15:47Z</time><name>PT5718</name></trkpt>
<trkpt lat="53.460264" lon="05.884670"><ele>5.3</ele><time>2021-02-18T12:15:48Z</time><name>PT5719</name></trkpt>
<trkpt lat="53.460265" lon="05.884690"><ele>5.2</ele><time>2021-02-18T12:15:50Z</time><name>PT5720</name></trkpt>
<trkpt lat="53.460266" lon="05.884711"><ele>5.3</ele><time>2021-02-18T12:15:50Z</time><name>PT5721</name></trkpt>
<trkpt lat="53.460267" lon="05.884731"><ele>5.4</ele><time>2021-02-18T12:15:51Z</time><name>PT5722</name></trkpt>
<trkpt lat="53.460266" lon="05.884750"><ele>5.1</ele><time>2021-02-18T12:15:53Z</time><name>PT5723</name></trkpt>
<trkpt lat="53.460265" lon="05.884771"><ele>5.3</ele><time>2021-02-18T12:15:53Z</time><name>PT5724</name></trkpt>
<trkpt lat="53.460265" lon="05.884789"><ele>5.2</ele><time>2021-02-18T12:15:54Z</time><name>PT5725</name></trkpt>
<trkpt lat="53.460264" lon="05.884810"><ele>5</ele><time>2021-02-18T12:15:56Z</time><name>PT5726</name></trkpt>
<trkpt lat="53.460263" lon="05.884830"><ele>5.1</ele><time>2021-02-18T12:15:56Z</time><name>PT5727</name></trkpt>
<trkpt lat="53.460262" lon="05.884851"><ele>5.1</ele><time>2021-02-18T12:15:57Z</time><name>PT5728</name></trkpt>
<trkpt lat="53.460260" lon="05.884875"><ele>5.3</ele><time>2021-02-18T12:15:59Z</time><name>PT5729</name></trkpt>
<trkpt lat="53.460260" lon="05.884896"><ele>5.6</ele><time>2021-02-18T12:15:59Z</time><name>PT5730</name></trkpt>
<trkpt lat="53.460258" lon="05.884918"><ele>5.6</ele><time>2021-02-18T12:16:00Z</time><name>PT5731</name></trkpt>
<trkpt lat="53.460255" lon="05.884940"><ele>5.7</ele><time>2021-02-18T12:16:02Z</time><name>PT5732</name></trkpt>
<trkpt lat="53.460253" lon="05.884960"><ele>5.9</ele><time>2021-02-18T12:16:02Z</time><name>PT5733</name></trkpt>
<trkpt lat="53.460252" lon="05.884980"><ele>5.8</ele><time>2021-02-18T12:16:03Z</time><name>PT5734</name></trkpt>
<trkpt lat="53.460252" lon="05.884998"><ele>5.7</ele><time>2021-02-18T12:16:05Z</time><name>PT5735</name></trkpt>
<trkpt lat="53.460254" lon="05.885016"><ele>5.5</ele><time>2021-02-18T12:16:05Z</time><name>PT5736</name></trkpt>
<trkpt lat="53.460257" lon="05.885034"><ele>5.2</ele><time>2021-02-18T12:16:06Z</time><name>PT5737</name></trkpt>
<trkpt lat="53.460259" lon="05.885053"><ele>4.8</ele><time>2021-02-18T12:16:08Z</time><name>PT5738</name></trkpt>
<trkpt lat="53.460259" lon="05.885068"><ele>4.7</ele><time>2021-02-18T12:16:08Z</time><name>PT5739</name></trkpt>
<trkpt lat="53.460258" lon="05.885085"><ele>4.8</ele><time>2021-02-18T12:16:09Z</time><name>PT5740</name></trkpt>
<trkpt lat="53.460257" lon="05.885104"><ele>5</ele><time>2021-02-18T12:16:11Z</time><name>PT5741</name></trkpt>
<trkpt lat="53.460257" lon="05.885124"><ele>5.2</ele><time>2021-02-18T12:16:11Z</time><name>PT5742</name></trkpt>
<trkpt lat="53.460255" lon="05.885146"><ele>5.3</ele><time>2021-02-18T12:16:12Z</time><name>PT5743</name></trkpt>
<trkpt lat="53.460255" lon="05.885165"><ele>5.3</ele><time>2021-02-18T12:16:14Z</time><name>PT5744</name></trkpt>
<trkpt lat="53.460252" lon="05.885185"><ele>5.2</ele><time>2021-02-18T12:16:14Z</time><name>PT5745</name></trkpt>
<trkpt lat="53.460250" lon="05.885206"><ele>5.2</ele><time>2021-02-18T12:16:15Z</time><name>PT5746</name></trkpt>
<trkpt lat="53.460248" lon="05.885227"><ele>5.4</ele><time>2021-02-18T12:16:17Z</time><name>PT5747</name></trkpt>
<trkpt lat="53.460247" lon="05.885247"><ele>5.7</ele><time>2021-02-18T12:16:17Z</time><name>PT5748</name></trkpt>
<trkpt lat="53.460248" lon="05.885266"><ele>5.7</ele><time>2021-02-18T12:16:18Z</time><name>PT5749</name></trkpt>
<trkpt lat="53.460248" lon="05.885287"><ele>5.7</ele><time>2021-02-18T12:16:20Z</time><name>PT5750</name></trkpt>
<trkpt lat="53.460247" lon="05.885307"><ele>5.6</ele><time>2021-02-18T12:16:20Z</time><name>PT5751</name></trkpt>
<trkpt lat="53.460248" lon="05.885326"><ele>5.5</ele><time>2021-02-18T12:16:21Z</time><name>PT5752</name></trkpt>
<trkpt lat="53.460249" lon="05.885344"><ele>5.7</ele><time>2021-02-18T12:16:23Z</time><name>PT5753</name></trkpt>
<trkpt lat="53.460250" lon="05.885360"><ele>5.7</ele><time>2021-02-18T12:16:23Z</time><name>PT5754</name></trkpt>
<trkpt lat="53.460250" lon="05.885380"><ele>5.7</ele><time>2021-02-18T12:16:24Z</time><name>PT5755</name></trkpt>
<trkpt lat="53.460249" lon="05.885399"><ele>5.7</ele><time>2021-02-18T12:16:26Z</time><name>PT5756</name></trkpt>
<trkpt lat="53.460246" lon="05.885419"><ele>5.7</ele><time>2021-02-18T12:16:26Z</time><name>PT5757</name></trkpt>
<trkpt lat="53.460244" lon="05.885440"><ele>5.8</ele><time>2021-02-18T12:16:27Z</time><name>PT5758</name></trkpt>
<trkpt lat="53.460243" lon="05.885462"><ele>5.9</ele><time>2021-02-18T12:16:29Z</time><name>PT5759</name></trkpt>
<trkpt lat="53.460240" lon="05.885485"><ele>5.9</ele><time>2021-02-18T12:16:29Z</time><name>PT5760</name></trkpt>
<trkpt lat="53.460238" lon="05.885509"><ele>5.9</ele><time>2021-02-18T12:16:30Z</time><name>PT5761</name></trkpt>
<trkpt lat="53.460236" lon="05.885531"><ele>6</ele><time>2021-02-18T12:16:32Z</time><name>PT5762</name></trkpt>
<trkpt lat="53.460235" lon="05.885550"><ele>5.8</ele><time>2021-02-18T12:16:32Z</time><name>PT5763</name></trkpt>
<trkpt lat="53.460234" lon="05.885568"><ele>5.7</ele><time>2021-02-18T12:16:33Z</time><name>PT5764</name></trkpt>
<trkpt lat="53.460235" lon="05.885588"><ele>5.7</ele><time>2021-02-18T12:16:35Z</time><name>PT5765</name></trkpt>
<trkpt lat="53.460236" lon="05.885606"><ele>5.7</ele><time>2021-02-18T12:16:35Z</time><name>PT5766</name></trkpt>
<trkpt lat="53.460235" lon="05.885625"><ele>5.8</ele><time>2021-02-18T12:16:36Z</time><name>PT5767</name></trkpt>
<trkpt lat="53.460235" lon="05.885643"><ele>5.9</ele><time>2021-02-18T12:16:38Z</time><name>PT5768</name></trkpt>
<trkpt lat="53.460235" lon="05.885660"><ele>5.9</ele><time>2021-02-18T12:16:38Z</time><name>PT5769</name></trkpt>
<trkpt lat="53.460235" lon="05.885680"><ele>5.9</ele><time>2021-02-18T12:16:39Z</time><name>PT5770</name></trkpt>
<trkpt lat="53.460233" lon="05.885697"><ele>5.9</ele><time>2021-02-18T12:16:41Z</time><name>PT5771</name></trkpt>
<trkpt lat="53.460232" lon="05.885718"><ele>5.9</ele><time>2021-02-18T12:16:41Z</time><name>PT5772</name></trkpt>
<trkpt lat="53.460230" lon="05.885735"><ele>5.8</ele><time>2021-02-18T12:16:42Z</time><name>PT5773</name></trkpt>
<trkpt lat="53.460227" lon="05.885752"><ele>5.7</ele><time>2021-02-18T12:16:44Z</time><name>PT5774</name></trkpt>
<trkpt lat="53.460225" lon="05.885768"><ele>5.7</ele><time>2021-02-18T12:16:44Z</time><name>PT5775</name></trkpt>
<trkpt lat="53.460224" lon="05.885787"><ele>5.7</ele><time>2021-02-18T12:16:45Z</time><name>PT5776</name></trkpt>
<trkpt lat="53.460222" lon="05.885812"><ele>5.6</ele><time>2021-02-18T12:16:47Z</time><name>PT5777</name></trkpt>
<trkpt lat="53.460222" lon="05.885828"><ele>5.5</ele><time>2021-02-18T12:16:47Z</time><name>PT5778</name></trkpt>
<trkpt lat="53.460220" lon="05.885842"><ele>5.5</ele><time>2021-02-18T12:16:48Z</time><name>PT5779</name></trkpt>
<trkpt lat="53.460217" lon="05.885849"><ele>5.3</ele><time>2021-02-18T12:16:50Z</time><name>PT5780</name></trkpt>
<trkpt lat="53.460217" lon="05.885855"><ele>5.2</ele><time>2021-02-18T12:16:50Z</time><name>PT5781</name></trkpt>
<trkpt lat="53.460216" lon="05.885855"><ele>5.1</ele><time>2021-02-18T12:16:51Z</time><name>PT5782</name></trkpt>
<trkpt lat="53.460216" lon="05.885855"><ele>5.1</ele><time>2021-02-18T12:16:53Z</time><name>PT5783</name></trkpt>
<trkpt lat="53.460217" lon="05.885864"><ele>4.7</ele><time>2021-02-18T12:17:05Z</time><name>PT5784</name></trkpt>
<trkpt lat="53.460217" lon="05.885885"><ele>5</ele><time>2021-02-18T12:17:06Z</time><name>PT5785</name></trkpt>
<trkpt lat="53.460217" lon="05.885902"><ele>5</ele><time>2021-02-18T12:17:08Z</time><name>PT5786</name></trkpt>
<trkpt lat="53.460217" lon="05.885918"><ele>5</ele><time>2021-02-18T12:17:08Z</time><name>PT5787</name></trkpt>
<trkpt lat="53.460216" lon="05.885929"><ele>5.1</ele><time>2021-02-18T12:17:09Z</time><name>PT5788</name></trkpt>
<trkpt lat="53.460219" lon="05.885935"><ele>5.1</ele><time>2021-02-18T12:17:11Z</time><name>PT5789</name></trkpt>
<trkpt lat="53.460219" lon="05.885939"><ele>5.2</ele><time>2021-02-18T12:17:11Z</time><name>PT5790</name></trkpt>
<trkpt lat="53.460216" lon="05.885945"><ele>5.2</ele><time>2021-02-18T12:17:12Z</time><name>PT5791</name></trkpt>
<trkpt lat="53.460216" lon="05.885955"><ele>5.2</ele><time>2021-02-18T12:17:14Z</time><name>PT5792</name></trkpt>
<trkpt lat="53.460216" lon="05.885966"><ele>5.2</ele><time>2021-02-18T12:17:14Z</time><name>PT5793</name></trkpt>
<trkpt lat="53.460211" lon="05.885979"><ele>5.2</ele><time>2021-02-18T12:17:15Z</time><name>PT5794</name></trkpt>
<trkpt lat="53.460209" lon="05.885995"><ele>5.3</ele><time>2021-02-18T12:17:17Z</time><name>PT5795</name></trkpt>
<trkpt lat="53.460208" lon="05.886013"><ele>5.2</ele><time>2021-02-18T12:17:17Z</time><name>PT5796</name></trkpt>
<trkpt lat="53.460209" lon="05.886026"><ele>5.1</ele><time>2021-02-18T12:17:18Z</time><name>PT5797</name></trkpt>
<trkpt lat="53.460208" lon="05.886039"><ele>5.1</ele><time>2021-02-18T12:17:20Z</time><name>PT5798</name></trkpt>
<trkpt lat="53.460209" lon="05.886049"><ele>5</ele><time>2021-02-18T12:17:20Z</time><name>PT5799</name></trkpt>
<trkpt lat="53.460210" lon="05.886058"><ele>5.1</ele><time>2021-02-18T12:17:21Z</time><name>PT5800</name></trkpt>
<trkpt lat="53.460211" lon="05.886058"><ele>5.3</ele><time>2021-02-18T12:17:23Z</time><name>PT5801</name></trkpt>
<trkpt lat="53.460210" lon="05.886058"><ele>5.4</ele><time>2021-02-18T12:17:23Z</time><name>PT5802</name></trkpt>
<trkpt lat="53.460209" lon="05.886058"><ele>5.4</ele><time>2021-02-18T12:17:24Z</time><name>PT5803</name></trkpt>
<trkpt lat="53.460200" lon="05.886067"><ele>5.1</ele><time>2021-02-18T12:18:11Z</time><name>PT5804</name></trkpt>
<trkpt lat="53.460191" lon="05.886071"><ele>5.3</ele><time>2021-02-18T12:18:12Z</time><name>PT5805</name></trkpt>
<trkpt lat="53.460187" lon="05.886069"><ele>5.3</ele><time>2021-02-18T12:18:14Z</time><name>PT5806</name></trkpt>
<trkpt lat="53.460186" lon="05.886059"><ele>5.3</ele><time>2021-02-18T12:18:17Z</time><name>PT5807</name></trkpt>
<trkpt lat="53.460183" lon="05.886047"><ele>5.5</ele><time>2021-02-18T12:18:17Z</time><name>PT5808</name></trkpt>
<trkpt lat="53.460183" lon="05.886032"><ele>5.5</ele><time>2021-02-18T12:18:18Z</time><name>PT5809</name></trkpt>
<trkpt lat="53.460186" lon="05.886019"><ele>5.3</ele><time>2021-02-18T12:18:20Z</time><name>PT5810</name></trkpt>
<trkpt lat="53.460190" lon="05.886010"><ele>5.2</ele><time>2021-02-18T12:18:20Z</time><name>PT5811</name></trkpt>
<trkpt lat="53.460193" lon="05.886006"><ele>5.2</ele><time>2021-02-18T12:18:21Z</time><name>PT5812</name></trkpt>
<trkpt lat="53.460194" lon="05.886005"><ele>5.1</ele><time>2021-02-18T12:18:23Z</time><name>PT5813</name></trkpt>
<trkpt lat="53.460196" lon="05.886007"><ele>5.2</ele><time>2021-02-18T12:18:23Z</time><name>PT5814</name></trkpt>
<trkpt lat="53.460200" lon="05.886008"><ele>5.1</ele><time>2021-02-18T12:18:24Z</time><name>PT5815</name></trkpt>
<trkpt lat="53.460203" lon="05.886006"><ele>5.2</ele><time>2021-02-18T12:18:26Z</time><name>PT5816</name></trkpt>
<trkpt lat="53.460203" lon="05.885998"><ele>6</ele><time>2021-02-18T12:20:08Z</time><name>PT5817</name></trkpt>
<trkpt lat="53.460196" lon="05.886001"><ele>6.2</ele><time>2021-02-18T12:20:09Z</time><name>PT5818</name></trkpt>
<trkpt lat="53.460191" lon="05.886006"><ele>6.4</ele><time>2021-02-18T12:20:11Z</time><name>PT5819</name></trkpt>
<trkpt lat="53.460186" lon="05.886013"><ele>6.4</ele><time>2021-02-18T12:20:11Z</time><name>PT5820</name></trkpt>
<trkpt lat="53.460181" lon="05.886018"><ele>6.4</ele><time>2021-02-18T12:20:12Z</time><name>PT5821</name></trkpt>
<trkpt lat="53.460177" lon="05.886026"><ele>6.2</ele><time>2021-02-18T12:20:14Z</time><name>PT5822</name></trkpt>
<trkpt lat="53.460174" lon="05.886034"><ele>6.1</ele><time>2021-02-18T12:20:14Z</time><name>PT5823</name></trkpt>
<trkpt lat="53.460169" lon="05.886041"><ele>6.2</ele><time>2021-02-18T12:20:15Z</time><name>PT5824</name></trkpt>
<trkpt lat="53.460164" lon="05.886050"><ele>6.2</ele><time>2021-02-18T12:20:17Z</time><name>PT5825</name></trkpt>
<trkpt lat="53.460163" lon="05.886060"><ele>6.2</ele><time>2021-02-18T12:20:17Z</time><name>PT5826</name></trkpt>
<trkpt lat="53.460165" lon="05.886072"><ele>6.1</ele><time>2021-02-18T12:20:19Z</time><name>PT5827</name></trkpt>
<trkpt lat="53.460168" lon="05.886082"><ele>5.9</ele><time>2021-02-18T12:20:20Z</time><name>PT5828</name></trkpt>
<trkpt lat="53.460169" lon="05.886091"><ele>6.1</ele><time>2021-02-18T12:20:20Z</time><name>PT5829</name></trkpt>
<trkpt lat="53.460166" lon="05.886096"><ele>6.1</ele><time>2021-02-18T12:20:21Z</time><name>PT5830</name></trkpt>
<trkpt lat="53.460166" lon="05.886098"><ele>6</ele><time>2021-02-18T12:20:23Z</time><name>PT5831</name></trkpt>
<trkpt lat="53.460167" lon="05.886107"><ele>6.1</ele><time>2021-02-18T12:20:23Z</time><name>PT5832</name></trkpt>
<trkpt lat="53.460163" lon="05.886117"><ele>7.2</ele><time>2021-02-18T12:22:33Z</time><name>PT5833</name></trkpt>
<trkpt lat="53.460166" lon="05.886124"><ele>7.4</ele><time>2021-02-18T12:22:35Z</time><name>PT5834</name></trkpt>
<trkpt lat="53.460167" lon="05.886125"><ele>7.3</ele><time>2021-02-18T12:22:35Z</time><name>PT5835</name></trkpt>
<trkpt lat="53.460171" lon="05.886131"><ele>7.3</ele><time>2021-02-18T12:22:36Z</time><name>PT5836</name></trkpt>
<trkpt lat="53.460173" lon="05.886139"><ele>7.3</ele><time>2021-02-18T12:22:38Z</time><name>PT5837</name></trkpt>
<trkpt lat="53.460182" lon="05.886144"><ele>6.9</ele><time>2021-02-18T12:23:11Z</time><name>PT5838</name></trkpt>
<trkpt lat="53.460186" lon="05.886153"><ele>6.9</ele><time>2021-02-18T12:23:11Z</time><name>PT5839</name></trkpt>
<trkpt lat="53.460185" lon="05.886151"><ele>6.8</ele><time>2021-02-18T12:23:12Z</time><name>PT5840</name></trkpt>
<trkpt lat="53.460186" lon="05.886160"><ele>7.3</ele><time>2021-02-18T12:25:05Z</time><name>PT5841</name></trkpt>
<trkpt lat="53.460185" lon="05.886163"><ele>7.4</ele><time>2021-02-18T12:25:05Z</time><name>PT5842</name></trkpt>
<trkpt lat="53.460187" lon="05.886169"><ele>7.5</ele><time>2021-02-18T12:25:06Z</time><name>PT5843</name></trkpt>
<trkpt lat="53.460188" lon="05.886176"><ele>7.4</ele><time>2021-02-18T12:25:08Z</time><name>PT5844</name></trkpt>
<trkpt lat="53.460187" lon="05.886178"><ele>7.4</ele><time>2021-02-18T12:25:08Z</time><name>PT5845</name></trkpt>
<trkpt lat="53.460187" lon="05.886180"><ele>7.3</ele><time>2021-02-18T12:25:09Z</time><name>PT5846</name></trkpt>
<trkpt lat="53.460188" lon="05.886186"><ele>7.1</ele><time>2021-02-18T12:25:11Z</time><name>PT5847</name></trkpt>
<trkpt lat="53.460187" lon="05.886189"><ele>7.1</ele><time>2021-02-18T12:25:11Z</time><name>PT5848</name></trkpt>
<trkpt lat="53.460186" lon="05.886185"><ele>7.3</ele><time>2021-02-18T12:25:12Z</time><name>PT5849</name></trkpt>
<trkpt lat="53.460180" lon="05.886207"><ele>7.5</ele><time>2021-02-18T12:25:44Z</time><name>PT5850</name></trkpt>
<trkpt lat="53.460174" lon="05.886213"><ele>7.5</ele><time>2021-02-18T12:25:44Z</time><name>PT5851</name></trkpt>
<trkpt lat="53.460176" lon="05.886208"><ele>7.7</ele><time>2021-02-18T12:25:45Z</time><name>PT5852</name></trkpt>
<trkpt lat="53.460173" lon="05.886212"><ele>7.4</ele><time>2021-02-18T12:27:18Z</time><name>PT5853</name></trkpt>
<trkpt lat="53.460172" lon="05.886219"><ele>7.5</ele><time>2021-02-18T12:27:20Z</time><name>PT5854</name></trkpt>
<trkpt lat="53.460172" lon="05.886219"><ele>7.4</ele><time>2021-02-18T12:27:20Z</time><name>PT5855</name></trkpt>
<trkpt lat="53.460169" lon="05.886209"><ele>7.4</ele><time>2021-02-18T12:27:21Z</time><name>PT5856</name></trkpt>
<trkpt lat="53.460168" lon="05.886204"><ele>7.2</ele><time>2021-02-18T12:27:23Z</time><name>PT5857</name></trkpt>
<trkpt lat="53.460167" lon="05.886202"><ele>7.2</ele><time>2021-02-18T12:27:23Z</time><name>PT5858</name></trkpt>
<trkpt lat="53.460168" lon="05.886200"><ele>7.2</ele><time>2021-02-18T12:27:24Z</time><name>PT5859</name></trkpt>
<trkpt lat="53.460167" lon="05.886200"><ele>7.7</ele><time>2021-02-18T12:27:30Z</time><name>PT5860</name></trkpt>
<trkpt lat="53.460168" lon="05.886200"><ele>7.7</ele><time>2021-02-18T12:27:32Z</time><name>PT5861</name></trkpt>
<trkpt lat="53.460170" lon="05.886208"><ele>7.7</ele><time>2021-02-18T12:27:32Z</time><name>PT5862</name></trkpt>
<trkpt lat="53.460167" lon="05.886218"><ele>7.7</ele><time>2021-02-18T12:27:33Z</time><name>PT5863</name></trkpt>
<trkpt lat="53.460162" lon="05.886223"><ele>7.3</ele><time>2021-02-18T12:27:35Z</time><name>PT5864</name></trkpt>
<trkpt lat="53.460163" lon="05.886225"><ele>7.3</ele><time>2021-02-18T12:27:35Z</time><name>PT5865</name></trkpt>
<trkpt lat="53.460163" lon="05.886224"><ele>7.4</ele><time>2021-02-18T12:27:36Z</time><name>PT5866</name></trkpt>
<trkpt lat="53.460163" lon="05.886223"><ele>7.3</ele><time>2021-02-18T12:27:38Z</time><name>PT5867</name></trkpt>
<trkpt lat="53.460151" lon="05.886231"><ele>7.2</ele><time>2021-02-18T12:28:45Z</time><name>PT5868</name></trkpt>
<trkpt lat="53.460140" lon="05.886235"><ele>7.2</ele><time>2021-02-18T12:28:47Z</time><name>PT5869</name></trkpt>
<trkpt lat="53.460133" lon="05.886230"><ele>7.2</ele><time>2021-02-18T12:28:47Z</time><name>PT5870</name></trkpt>
<trkpt lat="53.460121" lon="05.886237"><ele>7.1</ele><time>2021-02-18T12:28:50Z</time><name>PT5871</name></trkpt>
<trkpt lat="53.460105" lon="05.886245"><ele>7.1</ele><time>2021-02-18T12:28:51Z</time><name>PT5872</name></trkpt>
<trkpt lat="53.460093" lon="05.886252"><ele>7.2</ele><time>2021-02-18T12:28:53Z</time><name>PT5873</name></trkpt>
<trkpt lat="53.460082" lon="05.886259"><ele>7.2</ele><time>2021-02-18T12:28:53Z</time><name>PT5874</name></trkpt>
<trkpt lat="53.460070" lon="05.886266"><ele>7.3</ele><time>2021-02-18T12:28:55Z</time><name>PT5875</name></trkpt>
<trkpt lat="53.460060" lon="05.886270"><ele>7.3</ele><time>2021-02-18T12:28:56Z</time><name>PT5876</name></trkpt>
<trkpt lat="53.460048" lon="05.886275"><ele>7.3</ele><time>2021-02-18T12:28:56Z</time><name>PT5877</name></trkpt>
<trkpt lat="53.460037" lon="05.886276"><ele>7.4</ele><time>2021-02-18T12:28:57Z</time><name>PT5878</name></trkpt>
<trkpt lat="53.460029" lon="05.886279"><ele>7.4</ele><time>2021-02-18T12:28:59Z</time><name>PT5879</name></trkpt>
<trkpt lat="53.460022" lon="05.886279"><ele>7.2</ele><time>2021-02-18T12:28:59Z</time><name>PT5880</name></trkpt>
<trkpt lat="53.460015" lon="05.886276"><ele>7.5</ele><time>2021-02-18T12:29:00Z</time><name>PT5881</name></trkpt>
<trkpt lat="53.460007" lon="05.886269"><ele>7.5</ele><time>2021-02-18T12:29:02Z</time><name>PT5882</name></trkpt>
<trkpt lat="53.459999" lon="05.886264"><ele>7.6</ele><time>2021-02-18T12:29:02Z</time><name>PT5883</name></trkpt>
<trkpt lat="53.459989" lon="05.886261"><ele>7.6</ele><time>2021-02-18T12:29:03Z</time><name>PT5884</name></trkpt>
<trkpt lat="53.459981" lon="05.886256"><ele>7.7</ele><time>2021-02-18T12:29:05Z</time><name>PT5885</name></trkpt>
<trkpt lat="53.459974" lon="05.886248"><ele>7.7</ele><time>2021-02-18T12:29:05Z</time><name>PT5886</name></trkpt>
<trkpt lat="53.459968" lon="05.886238"><ele>8</ele><time>2021-02-18T12:29:06Z</time><name>PT5887</name></trkpt>
<trkpt lat="53.459959" lon="05.886224"><ele>7.9</ele><time>2021-02-18T12:29:08Z</time><name>PT5888</name></trkpt>
<trkpt lat="53.459952" lon="05.886210"><ele>7.9</ele><time>2021-02-18T12:29:08Z</time><name>PT5889</name></trkpt>
<trkpt lat="53.459947" lon="05.886197"><ele>7.8</ele><time>2021-02-18T12:29:10Z</time><name>PT5890</name></trkpt>
<trkpt lat="53.459940" lon="05.886187"><ele>7.7</ele><time>2021-02-18T12:29:11Z</time><name>PT5891</name></trkpt>
<trkpt lat="53.459932" lon="05.886179"><ele>7.5</ele><time>2021-02-18T12:29:11Z</time><name>PT5892</name></trkpt>
<trkpt lat="53.459923" lon="05.886170"><ele>7.7</ele><time>2021-02-18T12:29:12Z</time><name>PT5893</name></trkpt>
<trkpt lat="53.459915" lon="05.886160"><ele>7.9</ele><time>2021-02-18T12:29:14Z</time><name>PT5894</name></trkpt>
<trkpt lat="53.459910" lon="05.886151"><ele>8</ele><time>2021-02-18T12:29:14Z</time><name>PT5895</name></trkpt>
<trkpt lat="53.459906" lon="05.886141"><ele>7.9</ele><time>2021-02-18T12:29:15Z</time><name>PT5896</name></trkpt>
<trkpt lat="53.459900" lon="05.886133"><ele>8.1</ele><time>2021-02-18T12:29:17Z</time><name>PT5897</name></trkpt>
<trkpt lat="53.459892" lon="05.886124"><ele>8</ele><time>2021-02-18T12:29:17Z</time><name>PT5898</name></trkpt>
<trkpt lat="53.459883" lon="05.886116"><ele>7.9</ele><time>2021-02-18T12:29:18Z</time><name>PT5899</name></trkpt>
<trkpt lat="53.459875" lon="05.886108"><ele>7.7</ele><time>2021-02-18T12:29:20Z</time><name>PT5900</name></trkpt>
<trkpt lat="53.459869" lon="05.886100"><ele>7.7</ele><time>2021-02-18T12:29:20Z</time><name>PT5901</name></trkpt>
<trkpt lat="53.459862" lon="05.886089"><ele>7.5</ele><time>2021-02-18T12:29:21Z</time><name>PT5902</name></trkpt>
<trkpt lat="53.459856" lon="05.886077"><ele>7.7</ele><time>2021-02-18T12:29:23Z</time><name>PT5903</name></trkpt>
<trkpt lat="53.459849" lon="05.886062"><ele>7.7</ele><time>2021-02-18T12:29:23Z</time><name>PT5904</name></trkpt>
<trkpt lat="53.459841" lon="05.886047"><ele>7.8</ele><time>2021-02-18T12:29:24Z</time><name>PT5905</name></trkpt>
<trkpt lat="53.459833" lon="05.886034"><ele>7.7</ele><time>2021-02-18T12:29:26Z</time><name>PT5906</name></trkpt>
<trkpt lat="53.459826" lon="05.886019"><ele>7.6</ele><time>2021-02-18T12:29:26Z</time><name>PT5907</name></trkpt>
<trkpt lat="53.459819" lon="05.886004"><ele>7.4</ele><time>2021-02-18T12:29:27Z</time><name>PT5908</name></trkpt>
<trkpt lat="53.459811" lon="05.885989"><ele>7.1</ele><time>2021-02-18T12:29:29Z</time><name>PT5909</name></trkpt>
<trkpt lat="53.459802" lon="05.885975"><ele>7</ele><time>2021-02-18T12:29:29Z</time><name>PT5910</name></trkpt>
<trkpt lat="53.459792" lon="05.885967"><ele>7.1</ele><time>2021-02-18T12:29:30Z</time><name>PT5911</name></trkpt>
<trkpt lat="53.459782" lon="05.885950"><ele>7.1</ele><time>2021-02-18T12:29:32Z</time><name>PT5912</name></trkpt>
<trkpt lat="53.459768" lon="05.885928"><ele>7.1</ele><time>2021-02-18T12:29:32Z</time><name>PT5913</name></trkpt>
<trkpt lat="53.459753" lon="05.885904"><ele>7.2</ele><time>2021-02-18T12:29:33Z</time><name>PT5914</name></trkpt>
<trkpt lat="53.459741" lon="05.885879"><ele>7.1</ele><time>2021-02-18T12:29:35Z</time><name>PT5915</name></trkpt>
<trkpt lat="53.459733" lon="05.885857"><ele>7.2</ele><time>2021-02-18T12:29:35Z</time><name>PT5916</name></trkpt>
<trkpt lat="53.459726" lon="05.885839"><ele>7.1</ele><time>2021-02-18T12:29:36Z</time><name>PT5917</name></trkpt>
<trkpt lat="53.459721" lon="05.885829"><ele>7</ele><time>2021-02-18T12:29:38Z</time><name>PT5918</name></trkpt>
<trkpt lat="53.459718" lon="05.885824"><ele>6.8</ele><time>2021-02-18T12:29:38Z</time><name>PT5919</name></trkpt>
<trkpt lat="53.459717" lon="05.885813"><ele>6.8</ele><time>2021-02-18T12:29:39Z</time><name>PT5920</name></trkpt>
<trkpt lat="53.459724" lon="05.885813"><ele>6.6</ele><time>2021-02-18T12:29:41Z</time><name>PT5921</name></trkpt>
<trkpt lat="53.459727" lon="05.885817"><ele>6.6</ele><time>2021-02-18T12:29:41Z</time><name>PT5922</name></trkpt>
<trkpt lat="53.459722" lon="05.885817"><ele>6.7</ele><time>2021-02-18T12:29:42Z</time><name>PT5923</name></trkpt>
<trkpt lat="53.459714" lon="05.885817"><ele>6.7</ele><time>2021-02-18T12:29:44Z</time><name>PT5924</name></trkpt>
<trkpt lat="53.459712" lon="05.885814"><ele>6.7</ele><time>2021-02-18T12:29:44Z</time><name>PT5925</name></trkpt>
<trkpt lat="53.459705" lon="05.885803"><ele>6.7</ele><time>2021-02-18T12:29:45Z</time><name>PT5926</name></trkpt>
<trkpt lat="53.459696" lon="05.885794"><ele>6.7</ele><time>2021-02-18T12:29:47Z</time><name>PT5927</name></trkpt>
<trkpt lat="53.459690" lon="05.885781"><ele>6.6</ele><time>2021-02-18T12:29:47Z</time><name>PT5928</name></trkpt>
<trkpt lat="53.459685" lon="05.885772"><ele>6.7</ele><time>2021-02-18T12:29:48Z</time><name>PT5929</name></trkpt>
<trkpt lat="53.459682" lon="05.885766"><ele>6.7</ele><time>2021-02-18T12:29:50Z</time><name>PT5930</name></trkpt>
<trkpt lat="53.459677" lon="05.885759"><ele>6.6</ele><time>2021-02-18T12:29:50Z</time><name>PT5931</name></trkpt>
<trkpt lat="53.459670" lon="05.885753"><ele>6.7</ele><time>2021-02-18T12:29:51Z</time><name>PT5932</name></trkpt>
<trkpt lat="53.459662" lon="05.885745"><ele>6.9</ele><time>2021-02-18T12:29:53Z</time><name>PT5933</name></trkpt>
<trkpt lat="53.459654" lon="05.885737"><ele>6.9</ele><time>2021-02-18T12:29:53Z</time><name>PT5934</name></trkpt>
<trkpt lat="53.459644" lon="05.885726"><ele>6.7</ele><time>2021-02-18T12:29:54Z</time><name>PT5935</name></trkpt>
<trkpt lat="53.459634" lon="05.885712"><ele>6.9</ele><time>2021-02-18T12:29:56Z</time><name>PT5936</name></trkpt>
<trkpt lat="53.459625" lon="05.885712"><ele>6.9</ele><time>2021-02-18T12:29:56Z</time><name>PT5937</name></trkpt>
<trkpt lat="53.459614" lon="05.885707"><ele>6.8</ele><time>2021-02-18T12:29:57Z</time><name>PT5938</name></trkpt>
<trkpt lat="53.459605" lon="05.885698"><ele>6.7</ele><time>2021-02-18T12:29:59Z</time><name>PT5939</name></trkpt>
<trkpt lat="53.459596" lon="05.885693"><ele>6.8</ele><time>2021-02-18T12:29:59Z</time><name>PT5940</name></trkpt>
<trkpt lat="53.459587" lon="05.885685"><ele>6.7</ele><time>2021-02-18T12:30:00Z</time><name>PT5941</name></trkpt>
<trkpt lat="53.459578" lon="05.885677"><ele>6.7</ele><time>2021-02-18T12:30:02Z</time><name>PT5942</name></trkpt>
<trkpt lat="53.459567" lon="05.885662"><ele>6.6</ele><time>2021-02-18T12:30:02Z</time><name>PT5943</name></trkpt>
<trkpt lat="53.459554" lon="05.885649"><ele>6.6</ele><time>2021-02-18T12:30:03Z</time><name>PT5944</name></trkpt>
<trkpt lat="53.459545" lon="05.885640"><ele>6.7</ele><time>2021-02-18T12:30:05Z</time><name>PT5945</name></trkpt>
<trkpt lat="53.459538" lon="05.885629"><ele>6.7</ele><time>2021-02-18T12:30:05Z</time><name>PT5946</name></trkpt>
<trkpt lat="53.459531" lon="05.885619"><ele>7</ele><time>2021-02-18T12:30:06Z</time><name>PT5947</name></trkpt>
<trkpt lat="53.459522" lon="05.885613"><ele>7.2</ele><time>2021-02-18T12:30:08Z</time><name>PT5948</name></trkpt>
<trkpt lat="53.459515" lon="05.885602"><ele>7.2</ele><time>2021-02-18T12:30:08Z</time><name>PT5949</name></trkpt>
<trkpt lat="53.459507" lon="05.885592"><ele>7.1</ele><time>2021-02-18T12:30:09Z</time><name>PT5950</name></trkpt>
<trkpt lat="53.459496" lon="05.885583"><ele>7.1</ele><time>2021-02-18T12:30:11Z</time><name>PT5951</name></trkpt>
<trkpt lat="53.459487" lon="05.885573"><ele>7</ele><time>2021-02-18T12:30:11Z</time><name>PT5952</name></trkpt>
<trkpt lat="53.459478" lon="05.885562"><ele>7</ele><time>2021-02-18T12:30:12Z</time><name>PT5953</name></trkpt>
<trkpt lat="53.459470" lon="05.885549"><ele>7.2</ele><time>2021-02-18T12:30:14Z</time><name>PT5954</name></trkpt>
<trkpt lat="53.459462" lon="05.885540"><ele>7.2</ele><time>2021-02-18T12:30:14Z</time><name>PT5955</name></trkpt>
<trkpt lat="53.459453" lon="05.885532"><ele>7.2</ele><time>2021-02-18T12:30:15Z</time><name>PT5956</name></trkpt>
<trkpt lat="53.459443" lon="05.885522"><ele>7</ele><time>2021-02-18T12:30:17Z</time><name>PT5957</name></trkpt>
<trkpt lat="53.459434" lon="05.885515"><ele>6.8</ele><time>2021-02-18T12:30:17Z</time><name>PT5958</name></trkpt>
<trkpt lat="53.459424" lon="05.885510"><ele>6.7</ele><time>2021-02-18T12:30:18Z</time><name>PT5959</name></trkpt>
<trkpt lat="53.459414" lon="05.885504"><ele>6.7</ele><time>2021-02-18T12:30:20Z</time><name>PT5960</name></trkpt>
<trkpt lat="53.459403" lon="05.885498"><ele>6.7</ele><time>2021-02-18T12:30:20Z</time><name>PT5961</name></trkpt>
<trkpt lat="53.459392" lon="05.885493"><ele>6.8</ele><time>2021-02-18T12:30:21Z</time><name>PT5962</name></trkpt>
<trkpt lat="53.459381" lon="05.885490"><ele>6.8</ele><time>2021-02-18T12:30:23Z</time><name>PT5963</name></trkpt>
<trkpt lat="53.459372" lon="05.885488"><ele>6.8</ele><time>2021-02-18T12:30:23Z</time><name>PT5964</name></trkpt>
<trkpt lat="53.459362" lon="05.885483"><ele>6.7</ele><time>2021-02-18T12:30:24Z</time><name>PT5965</name></trkpt>
<trkpt lat="53.459353" lon="05.885478"><ele>6.6</ele><time>2021-02-18T12:30:26Z</time><name>PT5966</name></trkpt>
<trkpt lat="53.459344" lon="05.885471"><ele>6.7</ele><time>2021-02-18T12:30:26Z</time><name>PT5967</name></trkpt>
<trkpt lat="53.459334" lon="05.885461"><ele>6.7</ele><time>2021-02-18T12:30:27Z</time><name>PT5968</name></trkpt>
<trkpt lat="53.459325" lon="05.885452"><ele>6.6</ele><time>2021-02-18T12:30:29Z</time><name>PT5969</name></trkpt>
<trkpt lat="53.459315" lon="05.885447"><ele>6.7</ele><time>2021-02-18T12:30:29Z</time><name>PT5970</name></trkpt>
<trkpt lat="53.459304" lon="05.885441"><ele>6.6</ele><time>2021-02-18T12:30:30Z</time><name>PT5971</name></trkpt>
<trkpt lat="53.459294" lon="05.885433"><ele>6.6</ele><time>2021-02-18T12:30:32Z</time><name>PT5972</name></trkpt>
<trkpt lat="53.459284" lon="05.885423"><ele>6.5</ele><time>2021-02-18T12:30:32Z</time><name>PT5973</name></trkpt>
<trkpt lat="53.459273" lon="05.885414"><ele>6.3</ele><time>2021-02-18T12:30:33Z</time><name>PT5974</name></trkpt>
<trkpt lat="53.459262" lon="05.885403"><ele>6.6</ele><time>2021-02-18T12:30:35Z</time><name>PT5975</name></trkpt>
<trkpt lat="53.459251" lon="05.885395"><ele>6.6</ele><time>2021-02-18T12:30:35Z</time><name>PT5976</name></trkpt>
<trkpt lat="53.459239" lon="05.885387"><ele>6.7</ele><time>2021-02-18T12:30:36Z</time><name>PT5977</name></trkpt>
<trkpt lat="53.459228" lon="05.885380"><ele>6.7</ele><time>2021-02-18T12:30:38Z</time><name>PT5978</name></trkpt>
<trkpt lat="53.459217" lon="05.885372"><ele>6.9</ele><time>2021-02-18T12:30:38Z</time><name>PT5979</name></trkpt>
<trkpt lat="53.459206" lon="05.885365"><ele>6.7</ele><time>2021-02-18T12:30:39Z</time><name>PT5980</name></trkpt>
<trkpt lat="53.459197" lon="05.885363"><ele>6.7</ele><time>2021-02-18T12:30:41Z</time><name>PT5981</name></trkpt>
<trkpt lat="53.459188" lon="05.885358"><ele>6.8</ele><time>2021-02-18T12:30:41Z</time><name>PT5982</name></trkpt>
<trkpt lat="53.459178" lon="05.885349"><ele>7.1</ele><time>2021-02-18T12:30:42Z</time><name>PT5983</name></trkpt>
<trkpt lat="53.459169" lon="05.885339"><ele>7.1</ele><time>2021-02-18T12:30:44Z</time><name>PT5984</name></trkpt>
<trkpt lat="53.459158" lon="05.885328"><ele>7.2</ele><time>2021-02-18T12:30:44Z</time><name>PT5985</name></trkpt>
<trkpt lat="53.459147" lon="05.885319"><ele>7.2</ele><time>2021-02-18T12:30:45Z</time><name>PT5986</name></trkpt>
<trkpt lat="53.459137" lon="05.885309"><ele>6.8</ele><time>2021-02-18T12:30:47Z</time><name>PT5987</name></trkpt>
<trkpt lat="53.459126" lon="05.885302"><ele>6.7</ele><time>2021-02-18T12:30:47Z</time><name>PT5988</name></trkpt>
<trkpt lat="53.459115" lon="05.885293"><ele>6.9</ele><time>2021-02-18T12:30:48Z</time><name>PT5989</name></trkpt>
<trkpt lat="53.459103" lon="05.885284"><ele>6.8</ele><time>2021-02-18T12:30:50Z</time><name>PT5990</name></trkpt>
<trkpt lat="53.459093" lon="05.885275"><ele>6.8</ele><time>2021-02-18T12:30:50Z</time><name>PT5991</name></trkpt>
<trkpt lat="53.459082" lon="05.885265"><ele>6.7</ele><time>2021-02-18T12:30:51Z</time><name>PT5992</name></trkpt>
<trkpt lat="53.459072" lon="05.885255"><ele>6.8</ele><time>2021-02-18T12:30:53Z</time><name>PT5993</name></trkpt>
<trkpt lat="53.459061" lon="05.885250"><ele>6.7</ele><time>2021-02-18T12:30:53Z</time><name>PT5994</name></trkpt>
<trkpt lat="53.459050" lon="05.885247"><ele>6.8</ele><time>2021-02-18T12:30:54Z</time><name>PT5995</name></trkpt>
<trkpt lat="53.459039" lon="05.885245"><ele>6.8</ele><time>2021-02-18T12:30:56Z</time><name>PT5996</name></trkpt>
<trkpt lat="53.459029" lon="05.885239"><ele>6.9</ele><time>2021-02-18T12:30:56Z</time><name>PT5997</name></trkpt>
<trkpt lat="53.459019" lon="05.885232"><ele>7.1</ele><time>2021-02-18T12:30:57Z</time><name>PT5998</name></trkpt>
<trkpt lat="53.459010" lon="05.885222"><ele>7.1</ele><time>2021-02-18T12:30:59Z</time><name>PT5999</name></trkpt>
<trkpt lat="53.459001" lon="05.885217"><ele>7</ele><time>2021-02-18T12:30:59Z</time><name>PT6000</name></trkpt>
<trkpt lat="53.458991" lon="05.885213"><ele>7</ele><time>2021-02-18T12:31:00Z</time><name>PT6001</name></trkpt>
<trkpt lat="53.458982" lon="05.885210"><ele>7</ele><time>2021-02-18T12:31:02Z</time><name>PT6002</name></trkpt>
<trkpt lat="53.458971" lon="05.885205"><ele>6.9</ele><time>2021-02-18T12:31:02Z</time><name>PT6003</name></trkpt>
<trkpt lat="53.458960" lon="05.885199"><ele>6.9</ele><time>2021-02-18T12:31:03Z</time><name>PT6004</name></trkpt>
<trkpt lat="53.458949" lon="05.885194"><ele>6.8</ele><time>2021-02-18T12:31:05Z</time><name>PT6005</name></trkpt>
<trkpt lat="53.458937" lon="05.885190"><ele>6.9</ele><time>2021-02-18T12:31:05Z</time><name>PT6006</name></trkpt>
<trkpt lat="53.458925" lon="05.885185"><ele>7.1</ele><time>2021-02-18T12:31:07Z</time><name>PT6007</name></trkpt>
<trkpt lat="53.458913" lon="05.885179"><ele>7.2</ele><time>2021-02-18T12:31:08Z</time><name>PT6008</name></trkpt>
<trkpt lat="53.458902" lon="05.885173"><ele>7.2</ele><time>2021-02-18T12:31:08Z</time><name>PT6009</name></trkpt>
<trkpt lat="53.458892" lon="05.885169"><ele>7.2</ele><time>2021-02-18T12:31:09Z</time><name>PT6010</name></trkpt>
<trkpt lat="53.458881" lon="05.885164"><ele>7.3</ele><time>2021-02-18T12:31:11Z</time><name>PT6011</name></trkpt>
<trkpt lat="53.458870" lon="05.885161"><ele>7.5</ele><time>2021-02-18T12:31:11Z</time><name>PT6012</name></trkpt>
<trkpt lat="53.458863" lon="05.885156"><ele>7.5</ele><time>2021-02-18T12:31:12Z</time><name>PT6013</name></trkpt>
<trkpt lat="53.458856" lon="05.885152"><ele>7.5</ele><time>2021-02-18T12:31:14Z</time><name>PT6014</name></trkpt>
<trkpt lat="53.458849" lon="05.885152"><ele>7.5</ele><time>2021-02-18T12:31:14Z</time><name>PT6015</name></trkpt>
<trkpt lat="53.458840" lon="05.885151"><ele>7.2</ele><time>2021-02-18T12:31:16Z</time><name>PT6016</name></trkpt>
<trkpt lat="53.458828" lon="05.885146"><ele>7.2</ele><time>2021-02-18T12:31:17Z</time><name>PT6017</name></trkpt>
<trkpt lat="53.458817" lon="05.885140"><ele>7.2</ele><time>2021-02-18T12:31:17Z</time><name>PT6018</name></trkpt>
<trkpt lat="53.458805" lon="05.885136"><ele>7.1</ele><time>2021-02-18T12:31:18Z</time><name>PT6019</name></trkpt>
<trkpt lat="53.458793" lon="05.885130"><ele>6.9</ele><time>2021-02-18T12:31:20Z</time><name>PT6020</name></trkpt>
<trkpt lat="53.458782" lon="05.885124"><ele>6.9</ele><time>2021-02-18T12:31:20Z</time><name>PT6021</name></trkpt>
<trkpt lat="53.458770" lon="05.885120"><ele>7</ele><time>2021-02-18T12:31:21Z</time><name>PT6022</name></trkpt>
<trkpt lat="53.458758" lon="05.885118"><ele>6.7</ele><time>2021-02-18T12:31:23Z</time><name>PT6023</name></trkpt>
<trkpt lat="53.458748" lon="05.885116"><ele>6.7</ele><time>2021-02-18T12:31:23Z</time><name>PT6024</name></trkpt>
<trkpt lat="53.458736" lon="05.885114"><ele>6.8</ele><time>2021-02-18T12:31:24Z</time><name>PT6025</name></trkpt>
<trkpt lat="53.458726" lon="05.885113"><ele>6.7</ele><time>2021-02-18T12:31:26Z</time><name>PT6026</name></trkpt>
<trkpt lat="53.458716" lon="05.885113"><ele>6.7</ele><time>2021-02-18T12:31:26Z</time><name>PT6027</name></trkpt>
<trkpt lat="53.458705" lon="05.885114"><ele>6.9</ele><time>2021-02-18T12:31:27Z</time><name>PT6028</name></trkpt>
<trkpt lat="53.458695" lon="05.885116"><ele>7.2</ele><time>2021-02-18T12:31:29Z</time><name>PT6029</name></trkpt>
<trkpt lat="53.458684" lon="05.885117"><ele>7</ele><time>2021-02-18T12:31:29Z</time><name>PT6030</name></trkpt>
<trkpt lat="53.458675" lon="05.885115"><ele>7</ele><time>2021-02-18T12:31:30Z</time><name>PT6031</name></trkpt>
<trkpt lat="53.458665" lon="05.885113"><ele>7.1</ele><time>2021-02-18T12:31:32Z</time><name>PT6032</name></trkpt>
<trkpt lat="53.458654" lon="05.885110"><ele>7.1</ele><time>2021-02-18T12:31:32Z</time><name>PT6033</name></trkpt>
<trkpt lat="53.458641" lon="05.885109"><ele>6.9</ele><time>2021-02-18T12:31:33Z</time><name>PT6034</name></trkpt>
<trkpt lat="53.458628" lon="05.885105"><ele>7.2</ele><time>2021-02-18T12:31:35Z</time><name>PT6035</name></trkpt>
<trkpt lat="53.458616" lon="05.885101"><ele>7.4</ele><time>2021-02-18T12:31:35Z</time><name>PT6036</name></trkpt>
<trkpt lat="53.458605" lon="05.885094"><ele>7.5</ele><time>2021-02-18T12:31:36Z</time><name>PT6037</name></trkpt>
<trkpt lat="53.458593" lon="05.885088"><ele>7.5</ele><time>2021-02-18T12:31:38Z</time><name>PT6038</name></trkpt>
<trkpt lat="53.458581" lon="05.885083"><ele>7.7</ele><time>2021-02-18T12:31:38Z</time><name>PT6039</name></trkpt>
<trkpt lat="53.458569" lon="05.885078"><ele>7.3</ele><time>2021-02-18T12:31:39Z</time><name>PT6040</name></trkpt>
<trkpt lat="53.458559" lon="05.885075"><ele>6.9</ele><time>2021-02-18T12:31:41Z</time><name>PT6041</name></trkpt>
<trkpt lat="53.458549" lon="05.885075"><ele>6.7</ele><time>2021-02-18T12:31:41Z</time><name>PT6042</name></trkpt>
<trkpt lat="53.458538" lon="05.885078"><ele>6.3</ele><time>2021-02-18T12:31:42Z</time><name>PT6043</name></trkpt>
<trkpt lat="53.458527" lon="05.885080"><ele>6.2</ele><time>2021-02-18T12:31:44Z</time><name>PT6044</name></trkpt>
<trkpt lat="53.458518" lon="05.885083"><ele>6.3</ele><time>2021-02-18T12:31:44Z</time><name>PT6045</name></trkpt>
<trkpt lat="53.458509" lon="05.885086"><ele>6.2</ele><time>2021-02-18T12:31:45Z</time><name>PT6046</name></trkpt>
<trkpt lat="53.458500" lon="05.885086"><ele>6.2</ele><time>2021-02-18T12:31:47Z</time><name>PT6047</name></trkpt>
<trkpt lat="53.458488" lon="05.885086"><ele>6.2</ele><time>2021-02-18T12:31:47Z</time><name>PT6048</name></trkpt>
<trkpt lat="53.458476" lon="05.885084"><ele>6.4</ele><time>2021-02-18T12:31:48Z</time><name>PT6049</name></trkpt>
<trkpt lat="53.458466" lon="05.885077"><ele>6.4</ele><time>2021-02-18T12:31:50Z</time><name>PT6050</name></trkpt>
<trkpt lat="53.458455" lon="05.885070"><ele>6.7</ele><time>2021-02-18T12:31:50Z</time><name>PT6051</name></trkpt>
<trkpt lat="53.458444" lon="05.885065"><ele>6.8</ele><time>2021-02-18T12:31:51Z</time><name>PT6052</name></trkpt>
<trkpt lat="53.458432" lon="05.885064"><ele>6.5</ele><time>2021-02-18T12:31:53Z</time><name>PT6053</name></trkpt>
<trkpt lat="53.458420" lon="05.885063"><ele>6.3</ele><time>2021-02-18T12:31:53Z</time><name>PT6054</name></trkpt>
<trkpt lat="53.458408" lon="05.885062"><ele>6.3</ele><time>2021-02-18T12:31:54Z</time><name>PT6055</name></trkpt>
<trkpt lat="53.458398" lon="05.885063"><ele>6.2</ele><time>2021-02-18T12:31:56Z</time><name>PT6056</name></trkpt>
<trkpt lat="53.458388" lon="05.885065"><ele>6</ele><time>2021-02-18T12:31:56Z</time><name>PT6057</name></trkpt>
<trkpt lat="53.458379" lon="05.885067"><ele>6.1</ele><time>2021-02-18T12:31:57Z</time><name>PT6058</name></trkpt>
<trkpt lat="53.458369" lon="05.885069"><ele>6.2</ele><time>2021-02-18T12:31:59Z</time><name>PT6059</name></trkpt>
<trkpt lat="53.458359" lon="05.885071"><ele>6.2</ele><time>2021-02-18T12:31:59Z</time><name>PT6060</name></trkpt>
<trkpt lat="53.458348" lon="05.885073"><ele>6.2</ele><time>2021-02-18T12:32:00Z</time><name>PT6061</name></trkpt>
<trkpt lat="53.458336" lon="05.885074"><ele>6.4</ele><time>2021-02-18T12:32:02Z</time><name>PT6062</name></trkpt>
<trkpt lat="53.458324" lon="05.885074"><ele>6.5</ele><time>2021-02-18T12:32:02Z</time><name>PT6063</name></trkpt>
<trkpt lat="53.458312" lon="05.885073"><ele>6.5</ele><time>2021-02-18T12:32:03Z</time><name>PT6064</name></trkpt>
<trkpt lat="53.458299" lon="05.885075"><ele>6.5</ele><time>2021-02-18T12:32:05Z</time><name>PT6065</name></trkpt>
<trkpt lat="53.458287" lon="05.885076"><ele>6.6</ele><time>2021-02-18T12:32:05Z</time><name>PT6066</name></trkpt>
<trkpt lat="53.458275" lon="05.885073"><ele>6.7</ele><time>2021-02-18T12:32:06Z</time><name>PT6067</name></trkpt>
<trkpt lat="53.458264" lon="05.885070"><ele>6.7</ele><time>2021-02-18T12:32:08Z</time><name>PT6068</name></trkpt>
<trkpt lat="53.458253" lon="05.885067"><ele>6.6</ele><time>2021-02-18T12:32:08Z</time><name>PT6069</name></trkpt>
<trkpt lat="53.458242" lon="05.885067"><ele>6.7</ele><time>2021-02-18T12:32:09Z</time><name>PT6070</name></trkpt>
<trkpt lat="53.458236" lon="05.885067"><ele>6.7</ele><time>2021-02-18T12:32:11Z</time><name>PT6071</name></trkpt>
<trkpt lat="53.458234" lon="05.885067"><ele>6.7</ele><time>2021-02-18T12:32:11Z</time><name>PT6072</name></trkpt>
<trkpt lat="53.458233" lon="05.885069"><ele>6.7</ele><time>2021-02-18T12:32:12Z</time><name>PT6073</name></trkpt>
<trkpt lat="53.458229" lon="05.885073"><ele>6.7</ele><time>2021-02-18T12:32:14Z</time><name>PT6074</name></trkpt>
<trkpt lat="53.458223" lon="05.885073"><ele>6.6</ele><time>2021-02-18T12:32:14Z</time><name>PT6075</name></trkpt>
<trkpt lat="53.458215" lon="05.885073"><ele>6.5</ele><time>2021-02-18T12:32:15Z</time><name>PT6076</name></trkpt>
<trkpt lat="53.458204" lon="05.885071"><ele>6.5</ele><time>2021-02-18T12:32:17Z</time><name>PT6077</name></trkpt>
<trkpt lat="53.458193" lon="05.885066"><ele>6.6</ele><time>2021-02-18T12:32:17Z</time><name>PT6078</name></trkpt>
<trkpt lat="53.458181" lon="05.885061"><ele>6.7</ele><time>2021-02-18T12:32:18Z</time><name>PT6079</name></trkpt>
<trkpt lat="53.458171" lon="05.885053"><ele>6.8</ele><time>2021-02-18T12:32:20Z</time><name>PT6080</name></trkpt>
<trkpt lat="53.458160" lon="05.885049"><ele>6.8</ele><time>2021-02-18T12:32:20Z</time><name>PT6081</name></trkpt>
<trkpt lat="53.458150" lon="05.885048"><ele>6.9</ele><time>2021-02-18T12:32:21Z</time><name>PT6082</name></trkpt>
<trkpt lat="53.458139" lon="05.885049"><ele>7</ele><time>2021-02-18T12:32:23Z</time><name>PT6083</name></trkpt>
<trkpt lat="53.458129" lon="05.885048"><ele>7</ele><time>2021-02-18T12:32:23Z</time><name>PT6084</name></trkpt>
<trkpt lat="53.458119" lon="05.885048"><ele>6.9</ele><time>2021-02-18T12:32:24Z</time><name>PT6085</name></trkpt>
<trkpt lat="53.458108" lon="05.885048"><ele>6.7</ele><time>2021-02-18T12:32:26Z</time><name>PT6086</name></trkpt>
<trkpt lat="53.458098" lon="05.885045"><ele>6.7</ele><time>2021-02-18T12:32:26Z</time><name>PT6087</name></trkpt>
<trkpt lat="53.458088" lon="05.885042"><ele>6.5</ele><time>2021-02-18T12:32:27Z</time><name>PT6088</name></trkpt>
<trkpt lat="53.458078" lon="05.885039"><ele>6.5</ele><time>2021-02-18T12:32:29Z</time><name>PT6089</name></trkpt>
<trkpt lat="53.458067" lon="05.885037"><ele>6.7</ele><time>2021-02-18T12:32:29Z</time><name>PT6090</name></trkpt>
<trkpt lat="53.458055" lon="05.885037"><ele>6.8</ele><time>2021-02-18T12:32:30Z</time><name>PT6091</name></trkpt>
<trkpt lat="53.458044" lon="05.885039"><ele>6.8</ele><time>2021-02-18T12:32:32Z</time><name>PT6092</name></trkpt>
<trkpt lat="53.458035" lon="05.885042"><ele>6.7</ele><time>2021-02-18T12:32:32Z</time><name>PT6093</name></trkpt>
<trkpt lat="53.458026" lon="05.885047"><ele>6.8</ele><time>2021-02-18T12:32:33Z</time><name>PT6094</name></trkpt>
<trkpt lat="53.458019" lon="05.885049"><ele>6.9</ele><time>2021-02-18T12:32:35Z</time><name>PT6095</name></trkpt>
<trkpt lat="53.458010" lon="05.885047"><ele>6.9</ele><time>2021-02-18T12:32:35Z</time><name>PT6096</name></trkpt>
<trkpt lat="53.458000" lon="05.885046"><ele>7</ele><time>2021-02-18T12:32:36Z</time><name>PT6097</name></trkpt>
<trkpt lat="53.457990" lon="05.885047"><ele>7.2</ele><time>2021-02-18T12:32:38Z</time><name>PT6098</name></trkpt>
<trkpt lat="53.457979" lon="05.885050"><ele>7.2</ele><time>2021-02-18T12:32:38Z</time><name>PT6099</name></trkpt>
<trkpt lat="53.457970" lon="05.885050"><ele>7.2</ele><time>2021-02-18T12:32:39Z</time><name>PT6100</name></trkpt>
<trkpt lat="53.457961" lon="05.885049"><ele>7.1</ele><time>2021-02-18T12:32:41Z</time><name>PT6101</name></trkpt>
<trkpt lat="53.457953" lon="05.885050"><ele>7</ele><time>2021-02-18T12:32:41Z</time><name>PT6102</name></trkpt>
<trkpt lat="53.457944" lon="05.885053"><ele>6.8</ele><time>2021-02-18T12:32:42Z</time><name>PT6103</name></trkpt>
<trkpt lat="53.457935" lon="05.885055"><ele>6.7</ele><time>2021-02-18T12:32:44Z</time><name>PT6104</name></trkpt>
<trkpt lat="53.457926" lon="05.885058"><ele>6.9</ele><time>2021-02-18T12:32:44Z</time><name>PT6105</name></trkpt>
<trkpt lat="53.457916" lon="05.885062"><ele>6.8</ele><time>2021-02-18T12:32:45Z</time><name>PT6106</name></trkpt>
<trkpt lat="53.457908" lon="05.885066"><ele>6.8</ele><time>2021-02-18T12:32:47Z</time><name>PT6107</name></trkpt>
<trkpt lat="53.457899" lon="05.885069"><ele>6.9</ele><time>2021-02-18T12:32:47Z</time><name>PT6108</name></trkpt>
<trkpt lat="53.457889" lon="05.885069"><ele>6.9</ele><time>2021-02-18T12:32:48Z</time><name>PT6109</name></trkpt>
<trkpt lat="53.457879" lon="05.885068"><ele>6.7</ele><time>2021-02-18T12:32:50Z</time><name>PT6110</name></trkpt>
<trkpt lat="53.457867" lon="05.885065"><ele>6.7</ele><time>2021-02-18T12:32:50Z</time><name>PT6111</name></trkpt>
<trkpt lat="53.457856" lon="05.885066"><ele>6.5</ele><time>2021-02-18T12:32:51Z</time><name>PT6112</name></trkpt>
<trkpt lat="53.457844" lon="05.885069"><ele>6.4</ele><time>2021-02-18T12:32:53Z</time><name>PT6113</name></trkpt>
<trkpt lat="53.457833" lon="05.885074"><ele>6.3</ele><time>2021-02-18T12:32:53Z</time><name>PT6114</name></trkpt>
<trkpt lat="53.457822" lon="05.885077"><ele>6.3</ele><time>2021-02-18T12:32:54Z</time><name>PT6115</name></trkpt>
<trkpt lat="53.457811" lon="05.885079"><ele>6.7</ele><time>2021-02-18T12:32:56Z</time><name>PT6116</name></trkpt>
<trkpt lat="53.457800" lon="05.885080"><ele>6.7</ele><time>2021-02-18T12:32:56Z</time><name>PT6117</name></trkpt>
<trkpt lat="53.457790" lon="05.885083"><ele>6.8</ele><time>2021-02-18T12:32:57Z</time><name>PT6118</name></trkpt>
<trkpt lat="53.457780" lon="05.885088"><ele>7</ele><time>2021-02-18T12:32:59Z</time><name>PT6119</name></trkpt>
<trkpt lat="53.457769" lon="05.885092"><ele>7.1</ele><time>2021-02-18T12:32:59Z</time><name>PT6120</name></trkpt>
<trkpt lat="53.457758" lon="05.885093"><ele>7.2</ele><time>2021-02-18T12:33:00Z</time><name>PT6121</name></trkpt>
<trkpt lat="53.457746" lon="05.885093"><ele>7.1</ele><time>2021-02-18T12:33:02Z</time><name>PT6122</name></trkpt>
<trkpt lat="53.457734" lon="05.885092"><ele>7</ele><time>2021-02-18T12:33:02Z</time><name>PT6123</name></trkpt>
<trkpt lat="53.457723" lon="05.885091"><ele>7</ele><time>2021-02-18T12:33:03Z</time><name>PT6124</name></trkpt>
<trkpt lat="53.457712" lon="05.885091"><ele>6.9</ele><time>2021-02-18T12:33:05Z</time><name>PT6125</name></trkpt>
<trkpt lat="53.457701" lon="05.885092"><ele>7.2</ele><time>2021-02-18T12:33:05Z</time><name>PT6126</name></trkpt>
<trkpt lat="53.457692" lon="05.885089"><ele>7.4</ele><time>2021-02-18T12:33:06Z</time><name>PT6127</name></trkpt>
<trkpt lat="53.457682" lon="05.885088"><ele>7.4</ele><time>2021-02-18T12:33:08Z</time><name>PT6128</name></trkpt>
<trkpt lat="53.457671" lon="05.885087"><ele>7.4</ele><time>2021-02-18T12:33:08Z</time><name>PT6129</name></trkpt>
<trkpt lat="53.457659" lon="05.885084"><ele>7.4</ele><time>2021-02-18T12:33:09Z</time><name>PT6130</name></trkpt>
<trkpt lat="53.457648" lon="05.885084"><ele>7.4</ele><time>2021-02-18T12:33:11Z</time><name>PT6131</name></trkpt>
<trkpt lat="53.457637" lon="05.885090"><ele>7.3</ele><time>2021-02-18T12:33:11Z</time><name>PT6132</name></trkpt>
<trkpt lat="53.457627" lon="05.885099"><ele>7.2</ele><time>2021-02-18T12:33:12Z</time><name>PT6133</name></trkpt>
<trkpt lat="53.457617" lon="05.885108"><ele>7.2</ele><time>2021-02-18T12:33:14Z</time><name>PT6134</name></trkpt>
<trkpt lat="53.457607" lon="05.885117"><ele>7.1</ele><time>2021-02-18T12:33:14Z</time><name>PT6135</name></trkpt>
<trkpt lat="53.457598" lon="05.885124"><ele>7.2</ele><time>2021-02-18T12:33:15Z</time><name>PT6136</name></trkpt>
<trkpt lat="53.457589" lon="05.885130"><ele>7.2</ele><time>2021-02-18T12:33:17Z</time><name>PT6137</name></trkpt>
<trkpt lat="53.457579" lon="05.885133"><ele>7.3</ele><time>2021-02-18T12:33:17Z</time><name>PT6138</name></trkpt>
<trkpt lat="53.457569" lon="05.885136"><ele>7.2</ele><time>2021-02-18T12:33:18Z</time><name>PT6139</name></trkpt>
<trkpt lat="53.457560" lon="05.885136"><ele>6.8</ele><time>2021-02-18T12:33:20Z</time><name>PT6140</name></trkpt>
<trkpt lat="53.457550" lon="05.885137"><ele>6.6</ele><time>2021-02-18T12:33:20Z</time><name>PT6141</name></trkpt>
<trkpt lat="53.457540" lon="05.885143"><ele>6.3</ele><time>2021-02-18T12:33:21Z</time><name>PT6142</name></trkpt>
<trkpt lat="53.457530" lon="05.885147"><ele>6</ele><time>2021-02-18T12:33:23Z</time><name>PT6143</name></trkpt>
<trkpt lat="53.457518" lon="05.885149"><ele>6</ele><time>2021-02-18T12:33:23Z</time><name>PT6144</name></trkpt>
<trkpt lat="53.457507" lon="05.885151"><ele>6.3</ele><time>2021-02-18T12:33:24Z</time><name>PT6145</name></trkpt>
<trkpt lat="53.457496" lon="05.885153"><ele>6.8</ele><time>2021-02-18T12:33:26Z</time><name>PT6146</name></trkpt>
<trkpt lat="53.457484" lon="05.885157"><ele>7</ele><time>2021-02-18T12:33:26Z</time><name>PT6147</name></trkpt>
<trkpt lat="53.457473" lon="05.885162"><ele>7</ele><time>2021-02-18T12:33:27Z</time><name>PT6148</name></trkpt>
<trkpt lat="53.457462" lon="05.885170"><ele>7</ele><time>2021-02-18T12:33:29Z</time><name>PT6149</name></trkpt>
<trkpt lat="53.457452" lon="05.885176"><ele>6.9</ele><time>2021-02-18T12:33:29Z</time><name>PT6150</name></trkpt>
<trkpt lat="53.457441" lon="05.885179"><ele>6.5</ele><time>2021-02-18T12:33:30Z</time><name>PT6151</name></trkpt>
<trkpt lat="53.457430" lon="05.885182"><ele>6.2</ele><time>2021-02-18T12:33:32Z</time><name>PT6152</name></trkpt>
<trkpt lat="53.457419" lon="05.885183"><ele>6.2</ele><time>2021-02-18T12:33:32Z</time><name>PT6153</name></trkpt>
<trkpt lat="53.457409" lon="05.885185"><ele>6.3</ele><time>2021-02-18T12:33:33Z</time><name>PT6154</name></trkpt>
<trkpt lat="53.457398" lon="05.885188"><ele>6.3</ele><time>2021-02-18T12:33:35Z</time><name>PT6155</name></trkpt>
<trkpt lat="53.457387" lon="05.885191"><ele>6.4</ele><time>2021-02-18T12:33:35Z</time><name>PT6156</name></trkpt>
<trkpt lat="53.457376" lon="05.885195"><ele>6.7</ele><time>2021-02-18T12:33:36Z</time><name>PT6157</name></trkpt>
<trkpt lat="53.457366" lon="05.885195"><ele>6.8</ele><time>2021-02-18T12:33:38Z</time><name>PT6158</name></trkpt>
<trkpt lat="53.457355" lon="05.885197"><ele>6.6</ele><time>2021-02-18T12:33:38Z</time><name>PT6159</name></trkpt>
<trkpt lat="53.457344" lon="05.885199"><ele>6.8</ele><time>2021-02-18T12:33:39Z</time><name>PT6160</name></trkpt>
<trkpt lat="53.457331" lon="05.885202"><ele>7.2</ele><time>2021-02-18T12:33:41Z</time><name>PT6161</name></trkpt>
<trkpt lat="53.457320" lon="05.885209"><ele>7.4</ele><time>2021-02-18T12:33:41Z</time><name>PT6162</name></trkpt>
<trkpt lat="53.457309" lon="05.885211"><ele>7.7</ele><time>2021-02-18T12:33:42Z</time><name>PT6163</name></trkpt>
<trkpt lat="53.457297" lon="05.885214"><ele>7.9</ele><time>2021-02-18T12:33:44Z</time><name>PT6164</name></trkpt>
<trkpt lat="53.457288" lon="05.885222"><ele>7.8</ele><time>2021-02-18T12:33:44Z</time><name>PT6165</name></trkpt>
<trkpt lat="53.457279" lon="05.885229"><ele>7.7</ele><time>2021-02-18T12:33:46Z</time><name>PT6166</name></trkpt>
<trkpt lat="53.457270" lon="05.885235"><ele>7.6</ele><time>2021-02-18T12:33:47Z</time><name>PT6167</name></trkpt>
<trkpt lat="53.457260" lon="05.885238"><ele>7.7</ele><time>2021-02-18T12:33:47Z</time><name>PT6168</name></trkpt>
<trkpt lat="53.457248" lon="05.885244"><ele>7.7</ele><time>2021-02-18T12:33:48Z</time><name>PT6169</name></trkpt>
<trkpt lat="53.457238" lon="05.885249"><ele>7.8</ele><time>2021-02-18T12:33:50Z</time><name>PT6170</name></trkpt>
<trkpt lat="53.457227" lon="05.885254"><ele>7.7</ele><time>2021-02-18T12:33:50Z</time><name>PT6171</name></trkpt>
<trkpt lat="53.457216" lon="05.885257"><ele>7.6</ele><time>2021-02-18T12:33:51Z</time><name>PT6172</name></trkpt>
<trkpt lat="53.457204" lon="05.885257"><ele>7.5</ele><time>2021-02-18T12:33:53Z</time><name>PT6173</name></trkpt>
<trkpt lat="53.457194" lon="05.885257"><ele>7.6</ele><time>2021-02-18T12:33:53Z</time><name>PT6174</name></trkpt>
<trkpt lat="53.457182" lon="05.885258"><ele>7.6</ele><time>2021-02-18T12:33:54Z</time><name>PT6175</name></trkpt>
<trkpt lat="53.457171" lon="05.885259"><ele>7.7</ele><time>2021-02-18T12:33:56Z</time><name>PT6176</name></trkpt>
<trkpt lat="53.457159" lon="05.885260"><ele>7.7</ele><time>2021-02-18T12:33:56Z</time><name>PT6177</name></trkpt>
<trkpt lat="53.457151" lon="05.885260"><ele>7.8</ele><time>2021-02-18T12:33:57Z</time><name>PT6178</name></trkpt>
<trkpt lat="53.457142" lon="05.885265"><ele>7.8</ele><time>2021-02-18T12:33:59Z</time><name>PT6179</name></trkpt>
<trkpt lat="53.457132" lon="05.885273"><ele>7.8</ele><time>2021-02-18T12:33:59Z</time><name>PT6180</name></trkpt>
<trkpt lat="53.457123" lon="05.885283"><ele>7.9</ele><time>2021-02-18T12:34:00Z</time><name>PT6181</name></trkpt>
<trkpt lat="53.457114" lon="05.885294"><ele>7.9</ele><time>2021-02-18T12:34:02Z</time><name>PT6182</name></trkpt>
<trkpt lat="53.457106" lon="05.885302"><ele>7.9</ele><time>2021-02-18T12:34:02Z</time><name>PT6183</name></trkpt>
<trkpt lat="53.457096" lon="05.885309"><ele>8.1</ele><time>2021-02-18T12:34:03Z</time><name>PT6184</name></trkpt>
<trkpt lat="53.457087" lon="05.885318"><ele>7.9</ele><time>2021-02-18T12:34:05Z</time><name>PT6185</name></trkpt>
<trkpt lat="53.457078" lon="05.885325"><ele>7.8</ele><time>2021-02-18T12:34:05Z</time><name>PT6186</name></trkpt>
<trkpt lat="53.457068" lon="05.885333"><ele>7.6</ele><time>2021-02-18T12:34:06Z</time><name>PT6187</name></trkpt>
<trkpt lat="53.457058" lon="05.885339"><ele>7.3</ele><time>2021-02-18T12:34:08Z</time><name>PT6188</name></trkpt>
<trkpt lat="53.457045" lon="05.885345"><ele>7.2</ele><time>2021-02-18T12:34:08Z</time><name>PT6189</name></trkpt>
<trkpt lat="53.457034" lon="05.885350"><ele>6.9</ele><time>2021-02-18T12:34:09Z</time><name>PT6190</name></trkpt>
<trkpt lat="53.457023" lon="05.885353"><ele>6.7</ele><time>2021-02-18T12:34:11Z</time><name>PT6191</name></trkpt>
<trkpt lat="53.457011" lon="05.885357"><ele>6.7</ele><time>2021-02-18T12:34:11Z</time><name>PT6192</name></trkpt>
<trkpt lat="53.456999" lon="05.885362"><ele>6.9</ele><time>2021-02-18T12:34:12Z</time><name>PT6193</name></trkpt>
<trkpt lat="53.456987" lon="05.885368"><ele>7.2</ele><time>2021-02-18T12:34:14Z</time><name>PT6194</name></trkpt>
<trkpt lat="53.456976" lon="05.885376"><ele>7.3</ele><time>2021-02-18T12:34:14Z</time><name>PT6195</name></trkpt>
<trkpt lat="53.456964" lon="05.885381"><ele>7.4</ele><time>2021-02-18T12:34:15Z</time><name>PT6196</name></trkpt>
<trkpt lat="53.456953" lon="05.885385"><ele>7.4</ele><time>2021-02-18T12:34:17Z</time><name>PT6197</name></trkpt>
<trkpt lat="53.456943" lon="05.885392"><ele>7.3</ele><time>2021-02-18T12:34:17Z</time><name>PT6198</name></trkpt>
<trkpt lat="53.456933" lon="05.885399"><ele>7</ele><time>2021-02-18T12:34:18Z</time><name>PT6199</name></trkpt>
<trkpt lat="53.456923" lon="05.885408"><ele>7.1</ele><time>2021-02-18T12:34:20Z</time><name>PT6200</name></trkpt>
<trkpt lat="53.456914" lon="05.885417"><ele>7.2</ele><time>2021-02-18T12:34:20Z</time><name>PT6201</name></trkpt>
<trkpt lat="53.456905" lon="05.885427"><ele>7.2</ele><time>2021-02-18T12:34:21Z</time><name>PT6202</name></trkpt>
<trkpt lat="53.456895" lon="05.885433"><ele>7.4</ele><time>2021-02-18T12:34:23Z</time><name>PT6203</name></trkpt>
<trkpt lat="53.456885" lon="05.885442"><ele>7.5</ele><time>2021-02-18T12:34:23Z</time><name>PT6204</name></trkpt>
<trkpt lat="53.456874" lon="05.885451"><ele>7.3</ele><time>2021-02-18T12:34:24Z</time><name>PT6205</name></trkpt>
<trkpt lat="53.456864" lon="05.885457"><ele>7.4</ele><time>2021-02-18T12:34:26Z</time><name>PT6206</name></trkpt>
<trkpt lat="53.456853" lon="05.885461"><ele>7.2</ele><time>2021-02-18T12:34:26Z</time><name>PT6207</name></trkpt>
<trkpt lat="53.456841" lon="05.885465"><ele>7.2</ele><time>2021-02-18T12:34:27Z</time><name>PT6208</name></trkpt>
<trkpt lat="53.456829" lon="05.885470"><ele>7.2</ele><time>2021-02-18T12:34:29Z</time><name>PT6209</name></trkpt>
<trkpt lat="53.456817" lon="05.885478"><ele>7.3</ele><time>2021-02-18T12:34:29Z</time><name>PT6210</name></trkpt>
<trkpt lat="53.456806" lon="05.885487"><ele>7.2</ele><time>2021-02-18T12:34:30Z</time><name>PT6211</name></trkpt>
<trkpt lat="53.456795" lon="05.885496"><ele>7.2</ele><time>2021-02-18T12:34:32Z</time><name>PT6212</name></trkpt>
<trkpt lat="53.456786" lon="05.885502"><ele>7.2</ele><time>2021-02-18T12:34:32Z</time><name>PT6213</name></trkpt>
<trkpt lat="53.456775" lon="05.885509"><ele>7</ele><time>2021-02-18T12:34:33Z</time><name>PT6214</name></trkpt>
<trkpt lat="53.456764" lon="05.885517"><ele>6.7</ele><time>2021-02-18T12:34:35Z</time><name>PT6215</name></trkpt>
<trkpt lat="53.456753" lon="05.885525"><ele>6.6</ele><time>2021-02-18T12:34:35Z</time><name>PT6216</name></trkpt>
<trkpt lat="53.456743" lon="05.885531"><ele>6.7</ele><time>2021-02-18T12:34:36Z</time><name>PT6217</name></trkpt>
<trkpt lat="53.456733" lon="05.885537"><ele>6.7</ele><time>2021-02-18T12:34:38Z</time><name>PT6218</name></trkpt>
<trkpt lat="53.456724" lon="05.885544"><ele>6.9</ele><time>2021-02-18T12:34:38Z</time><name>PT6219</name></trkpt>
<trkpt lat="53.456716" lon="05.885554"><ele>7.1</ele><time>2021-02-18T12:34:39Z</time><name>PT6220</name></trkpt>
<trkpt lat="53.456707" lon="05.885565"><ele>7.3</ele><time>2021-02-18T12:34:41Z</time><name>PT6221</name></trkpt>
<trkpt lat="53.456696" lon="05.885570"><ele>7.2</ele><time>2021-02-18T12:34:41Z</time><name>PT6222</name></trkpt>
<trkpt lat="53.456684" lon="05.885573"><ele>7.2</ele><time>2021-02-18T12:34:42Z</time><name>PT6223</name></trkpt>
<trkpt lat="53.456672" lon="05.885577"><ele>7.2</ele><time>2021-02-18T12:34:44Z</time><name>PT6224</name></trkpt>
<trkpt lat="53.456662" lon="05.885581"><ele>7.1</ele><time>2021-02-18T12:34:44Z</time><name>PT6225</name></trkpt>
<trkpt lat="53.456651" lon="05.885585"><ele>7.3</ele><time>2021-02-18T12:34:45Z</time><name>PT6226</name></trkpt>
<trkpt lat="53.456641" lon="05.885588"><ele>7.5</ele><time>2021-02-18T12:34:47Z</time><name>PT6227</name></trkpt>
<trkpt lat="53.456634" lon="05.885593"><ele>7.7</ele><time>2021-02-18T12:34:47Z</time><name>PT6228</name></trkpt>
<trkpt lat="53.456626" lon="05.885599"><ele>7.7</ele><time>2021-02-18T12:34:48Z</time><name>PT6229</name></trkpt>
<trkpt lat="53.456619" lon="05.885605"><ele>7.8</ele><time>2021-02-18T12:34:50Z</time><name>PT6230</name></trkpt>
<trkpt lat="53.456611" lon="05.885609"><ele>7.7</ele><time>2021-02-18T12:34:50Z</time><name>PT6231</name></trkpt>
<trkpt lat="53.456603" lon="05.885614"><ele>7.5</ele><time>2021-02-18T12:34:51Z</time><name>PT6232</name></trkpt>
<trkpt lat="53.456594" lon="05.885619"><ele>7.5</ele><time>2021-02-18T12:34:53Z</time><name>PT6233</name></trkpt>
<trkpt lat="53.456586" lon="05.885623"><ele>7.2</ele><time>2021-02-18T12:34:53Z</time><name>PT6234</name></trkpt>
<trkpt lat="53.456577" lon="05.885626"><ele>7.3</ele><time>2021-02-18T12:34:54Z</time><name>PT6235</name></trkpt>
<trkpt lat="53.456570" lon="05.885629"><ele>7.2</ele><time>2021-02-18T12:34:56Z</time><name>PT6236</name></trkpt>
<trkpt lat="53.456562" lon="05.885635"><ele>7.2</ele><time>2021-02-18T12:34:56Z</time><name>PT6237</name></trkpt>
<trkpt lat="53.456553" lon="05.885641"><ele>6.9</ele><time>2021-02-18T12:34:57Z</time><name>PT6238</name></trkpt>
<trkpt lat="53.456542" lon="05.885645"><ele>6.7</ele><time>2021-02-18T12:34:59Z</time><name>PT6239</name></trkpt>
<trkpt lat="53.456533" lon="05.885649"><ele>6.6</ele><time>2021-02-18T12:34:59Z</time><name>PT6240</name></trkpt>
<trkpt lat="53.456524" lon="05.885654"><ele>6.5</ele><time>2021-02-18T12:35:00Z</time><name>PT6241</name></trkpt>
<trkpt lat="53.456515" lon="05.885660"><ele>6.3</ele><time>2021-02-18T12:35:02Z</time><name>PT6242</name></trkpt>
<trkpt lat="53.456506" lon="05.885663"><ele>6.4</ele><time>2021-02-18T12:35:02Z</time><name>PT6243</name></trkpt>
<trkpt lat="53.456497" lon="05.885666"><ele>6.4</ele><time>2021-02-18T12:35:03Z</time><name>PT6244</name></trkpt>
<trkpt lat="53.456490" lon="05.885672"><ele>6.5</ele><time>2021-02-18T12:35:05Z</time><name>PT6245</name></trkpt>
<trkpt lat="53.456483" lon="05.885681"><ele>6.6</ele><time>2021-02-18T12:35:05Z</time><name>PT6246</name></trkpt>
<trkpt lat="53.456474" lon="05.885689"><ele>6.5</ele><time>2021-02-18T12:35:06Z</time><name>PT6247</name></trkpt>
<trkpt lat="53.456464" lon="05.885694"><ele>6.4</ele><time>2021-02-18T12:35:08Z</time><name>PT6248</name></trkpt>
<trkpt lat="53.456457" lon="05.885701"><ele>6.2</ele><time>2021-02-18T12:35:08Z</time><name>PT6249</name></trkpt>
<trkpt lat="53.456451" lon="05.885708"><ele>6.2</ele><time>2021-02-18T12:35:09Z</time><name>PT6250</name></trkpt>
<trkpt lat="53.456442" lon="05.885716"><ele>6.3</ele><time>2021-02-18T12:35:11Z</time><name>PT6251</name></trkpt>
<trkpt lat="53.456432" lon="05.885724"><ele>6.4</ele><time>2021-02-18T12:35:11Z</time><name>PT6252</name></trkpt>
<trkpt lat="53.456423" lon="05.885732"><ele>6.5</ele><time>2021-02-18T12:35:12Z</time><name>PT6253</name></trkpt>
<trkpt lat="53.456413" lon="05.885740"><ele>6.7</ele><time>2021-02-18T12:35:14Z</time><name>PT6254</name></trkpt>
<trkpt lat="53.456405" lon="05.885749"><ele>6.7</ele><time>2021-02-18T12:35:14Z</time><name>PT6255</name></trkpt>
<trkpt lat="53.456399" lon="05.885761"><ele>6.8</ele><time>2021-02-18T12:35:15Z</time><name>PT6256</name></trkpt>
<trkpt lat="53.456391" lon="05.885769"><ele>6.8</ele><time>2021-02-18T12:35:17Z</time><name>PT6257</name></trkpt>
<trkpt lat="53.456380" lon="05.885774"><ele>6.9</ele><time>2021-02-18T12:35:17Z</time><name>PT6258</name></trkpt>
<trkpt lat="53.456368" lon="05.885781"><ele>7</ele><time>2021-02-18T12:35:18Z</time><name>PT6259</name></trkpt>
<trkpt lat="53.456357" lon="05.885784"><ele>6.9</ele><time>2021-02-18T12:35:20Z</time><name>PT6260</name></trkpt>
<trkpt lat="53.456344" lon="05.885791"><ele>6.8</ele><time>2021-02-18T12:35:20Z</time><name>PT6261</name></trkpt>
<trkpt lat="53.456333" lon="05.885796"><ele>7.1</ele><time>2021-02-18T12:35:21Z</time><name>PT6262</name></trkpt>
<trkpt lat="53.456323" lon="05.885804"><ele>7.1</ele><time>2021-02-18T12:35:23Z</time><name>PT6263</name></trkpt>
<trkpt lat="53.456313" lon="05.885814"><ele>7.2</ele><time>2021-02-18T12:35:23Z</time><name>PT6264</name></trkpt>
<trkpt lat="53.456302" lon="05.885823"><ele>7.2</ele><time>2021-02-18T12:35:24Z</time><name>PT6265</name></trkpt>
<trkpt lat="53.456292" lon="05.885830"><ele>7.2</ele><time>2021-02-18T12:35:26Z</time><name>PT6266</name></trkpt>
<trkpt lat="53.456281" lon="05.885835"><ele>7.2</ele><time>2021-02-18T12:35:26Z</time><name>PT6267</name></trkpt>
<trkpt lat="53.456272" lon="05.885840"><ele>7.1</ele><time>2021-02-18T12:35:27Z</time><name>PT6268</name></trkpt>
<trkpt lat="53.456263" lon="05.885847"><ele>7.1</ele><time>2021-02-18T12:35:29Z</time><name>PT6269</name></trkpt>
<trkpt lat="53.456254" lon="05.885852"><ele>7.2</ele><time>2021-02-18T12:35:29Z</time><name>PT6270</name></trkpt>
<trkpt lat="53.456242" lon="05.885857"><ele>7.3</ele><time>2021-02-18T12:35:30Z</time><name>PT6271</name></trkpt>
<trkpt lat="53.456231" lon="05.885862"><ele>7.3</ele><time>2021-02-18T12:35:32Z</time><name>PT6272</name></trkpt>
<trkpt lat="53.456219" lon="05.885868"><ele>7.3</ele><time>2021-02-18T12:35:32Z</time><name>PT6273</name></trkpt>
<trkpt lat="53.456209" lon="05.885876"><ele>7.3</ele><time>2021-02-18T12:35:33Z</time><name>PT6274</name></trkpt>
<trkpt lat="53.456196" lon="05.885879"><ele>7.2</ele><time>2021-02-18T12:35:35Z</time><name>PT6275</name></trkpt>
<trkpt lat="53.456182" lon="05.885879"><ele>7.2</ele><time>2021-02-18T12:35:35Z</time><name>PT6276</name></trkpt>
<trkpt lat="53.456172" lon="05.885881"><ele>7.2</ele><time>2021-02-18T12:35:36Z</time><name>PT6277</name></trkpt>
<trkpt lat="53.456161" lon="05.885888"><ele>7.3</ele><time>2021-02-18T12:35:38Z</time><name>PT6278</name></trkpt>
<trkpt lat="53.456151" lon="05.885898"><ele>7.2</ele><time>2021-02-18T12:35:38Z</time><name>PT6279</name></trkpt>
<trkpt lat="53.456141" lon="05.885909"><ele>7.3</ele><time>2021-02-18T12:35:39Z</time><name>PT6280</name></trkpt>
<trkpt lat="53.456132" lon="05.885919"><ele>7.2</ele><time>2021-02-18T12:35:41Z</time><name>PT6281</name></trkpt>
<trkpt lat="53.456123" lon="05.885928"><ele>7.2</ele><time>2021-02-18T12:35:41Z</time><name>PT6282</name></trkpt>
<trkpt lat="53.456114" lon="05.885935"><ele>7</ele><time>2021-02-18T12:35:42Z</time><name>PT6283</name></trkpt>
<trkpt lat="53.456105" lon="05.885944"><ele>7</ele><time>2021-02-18T12:35:44Z</time><name>PT6284</name></trkpt>
<trkpt lat="53.456096" lon="05.885952"><ele>7.1</ele><time>2021-02-18T12:35:44Z</time><name>PT6285</name></trkpt>
<trkpt lat="53.456086" lon="05.885959"><ele>7.2</ele><time>2021-02-18T12:35:45Z</time><name>PT6286</name></trkpt>
<trkpt lat="53.456075" lon="05.885965"><ele>7.3</ele><time>2021-02-18T12:35:47Z</time><name>PT6287</name></trkpt>
<trkpt lat="53.456064" lon="05.885973"><ele>7.3</ele><time>2021-02-18T12:35:47Z</time><name>PT6288</name></trkpt>
<trkpt lat="53.456053" lon="05.885981"><ele>7.4</ele><time>2021-02-18T12:35:48Z</time><name>PT6289</name></trkpt>
<trkpt lat="53.456044" lon="05.885989"><ele>7.4</ele><time>2021-02-18T12:35:50Z</time><name>PT6290</name></trkpt>
<trkpt lat="53.456035" lon="05.885997"><ele>7.4</ele><time>2021-02-18T12:35:50Z</time><name>PT6291</name></trkpt>
<trkpt lat="53.456026" lon="05.886005"><ele>7.4</ele><time>2021-02-18T12:35:51Z</time><name>PT6292</name></trkpt>
<trkpt lat="53.456017" lon="05.886013"><ele>7.4</ele><time>2021-02-18T12:35:53Z</time><name>PT6293</name></trkpt>
<trkpt lat="53.456009" lon="05.886022"><ele>7.4</ele><time>2021-02-18T12:35:53Z</time><name>PT6294</name></trkpt>
<trkpt lat="53.456001" lon="05.886030"><ele>7.5</ele><time>2021-02-18T12:35:54Z</time><name>PT6295</name></trkpt>
<trkpt lat="53.455992" lon="05.886037"><ele>7.5</ele><time>2021-02-18T12:35:56Z</time><name>PT6296</name></trkpt>
<trkpt lat="53.455981" lon="05.886043"><ele>7.5</ele><time>2021-02-18T12:35:56Z</time><name>PT6297</name></trkpt>
<trkpt lat="53.455970" lon="05.886049"><ele>7.3</ele><time>2021-02-18T12:35:57Z</time><name>PT6298</name></trkpt>
<trkpt lat="53.455958" lon="05.886055"><ele>7.2</ele><time>2021-02-18T12:35:59Z</time><name>PT6299</name></trkpt>
<trkpt lat="53.455948" lon="05.886057"><ele>7.1</ele><time>2021-02-18T12:35:59Z</time><name>PT6300</name></trkpt>
<trkpt lat="53.455934" lon="05.886061"><ele>7.4</ele><time>2021-02-18T12:36:00Z</time><name>PT6301</name></trkpt>
<trkpt lat="53.455916" lon="05.886069"><ele>7.7</ele><time>2021-02-18T12:36:02Z</time><name>PT6302</name></trkpt>
<trkpt lat="53.455895" lon="05.886079"><ele>7.8</ele><time>2021-02-18T12:36:02Z</time><name>PT6303</name></trkpt>
<trkpt lat="53.455879" lon="05.886092"><ele>8.2</ele><time>2021-02-18T12:36:03Z</time><name>PT6304</name></trkpt>
<trkpt lat="53.455866" lon="05.886101"><ele>8.2</ele><time>2021-02-18T12:36:05Z</time><name>PT6305</name></trkpt>
<trkpt lat="53.455855" lon="05.886107"><ele>7.9</ele><time>2021-02-18T12:36:05Z</time><name>PT6306</name></trkpt>
<trkpt lat="53.455846" lon="05.886110"><ele>7.4</ele><time>2021-02-18T12:36:07Z</time><name>PT6307</name></trkpt>
<trkpt lat="53.455839" lon="05.886117"><ele>7</ele><time>2021-02-18T12:36:08Z</time><name>PT6308</name></trkpt>
<trkpt lat="53.455831" lon="05.886124"><ele>6.8</ele><time>2021-02-18T12:36:08Z</time><name>PT6309</name></trkpt>
<trkpt lat="53.455827" lon="05.886133"><ele>6.7</ele><time>2021-02-18T12:36:09Z</time><name>PT6310</name></trkpt>
<trkpt lat="53.455825" lon="05.886137"><ele>7</ele><time>2021-02-18T12:36:11Z</time><name>PT6311</name></trkpt>
<trkpt lat="53.455816" lon="05.886143"><ele>7</ele><time>2021-02-18T12:36:11Z</time><name>PT6312</name></trkpt>
<trkpt lat="53.455806" lon="05.886149"><ele>7.2</ele><time>2021-02-18T12:36:12Z</time><name>PT6313</name></trkpt>
<trkpt lat="53.455799" lon="05.886157"><ele>7.2</ele><time>2021-02-18T12:36:14Z</time><name>PT6314</name></trkpt>
<trkpt lat="53.455791" lon="05.886162"><ele>7.3</ele><time>2021-02-18T12:36:14Z</time><name>PT6315</name></trkpt>
<trkpt lat="53.455778" lon="05.886169"><ele>7.5</ele><time>2021-02-18T12:36:16Z</time><name>PT6316</name></trkpt>
<trkpt lat="53.455764" lon="05.886180"><ele>7.7</ele><time>2021-02-18T12:36:17Z</time><name>PT6317</name></trkpt>
<trkpt lat="53.455745" lon="05.886190"><ele>7.8</ele><time>2021-02-18T12:36:17Z</time><name>PT6318</name></trkpt>
<trkpt lat="53.455726" lon="05.886197"><ele>7.7</ele><time>2021-02-18T12:36:18Z</time><name>PT6319</name></trkpt>
<trkpt lat="53.455709" lon="05.886208"><ele>7.8</ele><time>2021-02-18T12:36:20Z</time><name>PT6320</name></trkpt>
<trkpt lat="53.455694" lon="05.886213"><ele>7.7</ele><time>2021-02-18T12:36:20Z</time><name>PT6321</name></trkpt>
<trkpt lat="53.455689" lon="05.886212"><ele>7.7</ele><time>2021-02-18T12:36:21Z</time><name>PT6322</name></trkpt>
<trkpt lat="53.455683" lon="05.886219"><ele>7.7</ele><time>2021-02-18T12:36:23Z</time><name>PT6323</name></trkpt>
<trkpt lat="53.455677" lon="05.886226"><ele>7.8</ele><time>2021-02-18T12:36:23Z</time><name>PT6324</name></trkpt>
<trkpt lat="53.455675" lon="05.886231"><ele>7.8</ele><time>2021-02-18T12:36:24Z</time><name>PT6325</name></trkpt>
<trkpt lat="53.455671" lon="05.886236"><ele>7.9</ele><time>2021-02-18T12:36:26Z</time><name>PT6326</name></trkpt>
<trkpt lat="53.455669" lon="05.886242"><ele>8</ele><time>2021-02-18T12:36:26Z</time><name>PT6327</name></trkpt>
<trkpt lat="53.455667" lon="05.886246"><ele>8</ele><time>2021-02-18T12:36:27Z</time><name>PT6328</name></trkpt>
<trkpt lat="53.455661" lon="05.886247"><ele>8.1</ele><time>2021-02-18T12:36:29Z</time><name>PT6329</name></trkpt>
<trkpt lat="53.455651" lon="05.886250"><ele>8</ele><time>2021-02-18T12:36:29Z</time><name>PT6330</name></trkpt>
<trkpt lat="53.455640" lon="05.886252"><ele>7.9</ele><time>2021-02-18T12:36:30Z</time><name>PT6331</name></trkpt>
<trkpt lat="53.455621" lon="05.886257"><ele>7.7</ele><time>2021-02-18T12:36:32Z</time><name>PT6332</name></trkpt>
<trkpt lat="53.455606" lon="05.886263"><ele>7.7</ele><time>2021-02-18T12:36:32Z</time><name>PT6333</name></trkpt>
<trkpt lat="53.455587" lon="05.886276"><ele>7.5</ele><time>2021-02-18T12:36:33Z</time><name>PT6334</name></trkpt>
<trkpt lat="53.455564" lon="05.886286"><ele>7.3</ele><time>2021-02-18T12:36:35Z</time><name>PT6335</name></trkpt>
<trkpt lat="53.455544" lon="05.886295"><ele>7.4</ele><time>2021-02-18T12:36:35Z</time><name>PT6336</name></trkpt>
<trkpt lat="53.455526" lon="05.886311"><ele>7.6</ele><time>2021-02-18T12:36:36Z</time><name>PT6337</name></trkpt>
<trkpt lat="53.455513" lon="05.886323"><ele>7.7</ele><time>2021-02-18T12:36:38Z</time><name>PT6338</name></trkpt>
<trkpt lat="53.455507" lon="05.886330"><ele>7.8</ele><time>2021-02-18T12:36:38Z</time><name>PT6339</name></trkpt>
<trkpt lat="53.455501" lon="05.886337"><ele>7.7</ele><time>2021-02-18T12:36:39Z</time><name>PT6340</name></trkpt>
<trkpt lat="53.455498" lon="05.886343"><ele>7.7</ele><time>2021-02-18T12:36:41Z</time><name>PT6341</name></trkpt>
<trkpt lat="53.455495" lon="05.886348"><ele>7.7</ele><time>2021-02-18T12:36:41Z</time><name>PT6342</name></trkpt>
<trkpt lat="53.455489" lon="05.886353"><ele>7.6</ele><time>2021-02-18T12:36:42Z</time><name>PT6343</name></trkpt>
<trkpt lat="53.455484" lon="05.886359"><ele>7.2</ele><time>2021-02-18T12:36:44Z</time><name>PT6344</name></trkpt>
<trkpt lat="53.455478" lon="05.886365"><ele>7.2</ele><time>2021-02-18T12:36:44Z</time><name>PT6345</name></trkpt>
<trkpt lat="53.455470" lon="05.886368"><ele>7.2</ele><time>2021-02-18T12:36:45Z</time><name>PT6346</name></trkpt>
<trkpt lat="53.455460" lon="05.886368"><ele>7.3</ele><time>2021-02-18T12:36:47Z</time><name>PT6347</name></trkpt>
<trkpt lat="53.455448" lon="05.886371"><ele>7.4</ele><time>2021-02-18T12:36:47Z</time><name>PT6348</name></trkpt>
<trkpt lat="53.455434" lon="05.886374"><ele>7.6</ele><time>2021-02-18T12:36:48Z</time><name>PT6349</name></trkpt>
<trkpt lat="53.455417" lon="05.886378"><ele>7.7</ele><time>2021-02-18T12:36:50Z</time><name>PT6350</name></trkpt>
<trkpt lat="53.455399" lon="05.886387"><ele>7.8</ele><time>2021-02-18T12:36:50Z</time><name>PT6351</name></trkpt>
<trkpt lat="53.455382" lon="05.886399"><ele>7.8</ele><time>2021-02-18T12:36:51Z</time><name>PT6352</name></trkpt>
<trkpt lat="53.455370" lon="05.886410"><ele>7.8</ele><time>2021-02-18T12:36:53Z</time><name>PT6353</name></trkpt>
<trkpt lat="53.455361" lon="05.886419"><ele>7.9</ele><time>2021-02-18T12:36:53Z</time><name>PT6354</name></trkpt>
<trkpt lat="53.455354" lon="05.886427"><ele>8</ele><time>2021-02-18T12:36:54Z</time><name>PT6355</name></trkpt>
<trkpt lat="53.455349" lon="05.886435"><ele>7.8</ele><time>2021-02-18T12:36:56Z</time><name>PT6356</name></trkpt>
<trkpt lat="53.455345" lon="05.886440"><ele>8</ele><time>2021-02-18T12:36:56Z</time><name>PT6357</name></trkpt>
<trkpt lat="53.455338" lon="05.886445"><ele>7.8</ele><time>2021-02-18T12:36:57Z</time><name>PT6358</name></trkpt>
<trkpt lat="53.455330" lon="05.886448"><ele>7.8</ele><time>2021-02-18T12:36:59Z</time><name>PT6359</name></trkpt>
<trkpt lat="53.455320" lon="05.886456"><ele>7.9</ele><time>2021-02-18T12:36:59Z</time><name>PT6360</name></trkpt>
<trkpt lat="53.455312" lon="05.886462"><ele>8.2</ele><time>2021-02-18T12:37:00Z</time><name>PT6361</name></trkpt>
<trkpt lat="53.455300" lon="05.886467"><ele>7.9</ele><time>2021-02-18T12:37:02Z</time><name>PT6362</name></trkpt>
<trkpt lat="53.455288" lon="05.886472"><ele>7.9</ele><time>2021-02-18T12:37:02Z</time><name>PT6363</name></trkpt>
<trkpt lat="53.455275" lon="05.886479"><ele>7.8</ele><time>2021-02-18T12:37:03Z</time><name>PT6364</name></trkpt>
<trkpt lat="53.455261" lon="05.886493"><ele>7.6</ele><time>2021-02-18T12:37:05Z</time><name>PT6365</name></trkpt>
<trkpt lat="53.455246" lon="05.886504"><ele>7.6</ele><time>2021-02-18T12:37:05Z</time><name>PT6366</name></trkpt>
<trkpt lat="53.455230" lon="05.886514"><ele>7.6</ele><time>2021-02-18T12:37:06Z</time><name>PT6367</name></trkpt>
<trkpt lat="53.455210" lon="05.886528"><ele>7.6</ele><time>2021-02-18T12:37:08Z</time><name>PT6368</name></trkpt>
<trkpt lat="53.455196" lon="05.886541"><ele>7.7</ele><time>2021-02-18T12:37:08Z</time><name>PT6369</name></trkpt>
<trkpt lat="53.455185" lon="05.886557"><ele>7.7</ele><time>2021-02-18T12:37:09Z</time><name>PT6370</name></trkpt>
<trkpt lat="53.455177" lon="05.886569"><ele>7.7</ele><time>2021-02-18T12:37:11Z</time><name>PT6371</name></trkpt>
<trkpt lat="53.455169" lon="05.886582"><ele>7.7</ele><time>2021-02-18T12:37:11Z</time><name>PT6372</name></trkpt>
<trkpt lat="53.455162" lon="05.886593"><ele>7.7</ele><time>2021-02-18T12:37:12Z</time><name>PT6373</name></trkpt>
<trkpt lat="53.455158" lon="05.886600"><ele>7.5</ele><time>2021-02-18T12:37:14Z</time><name>PT6374</name></trkpt>
<trkpt lat="53.455153" lon="05.886606"><ele>7.7</ele><time>2021-02-18T12:37:14Z</time><name>PT6375</name></trkpt>
<trkpt lat="53.455150" lon="05.886612"><ele>7.7</ele><time>2021-02-18T12:37:15Z</time><name>PT6376</name></trkpt>
<trkpt lat="53.455144" lon="05.886616"><ele>7.8</ele><time>2021-02-18T12:37:17Z</time><name>PT6377</name></trkpt>
<trkpt lat="53.455136" lon="05.886620"><ele>7.9</ele><time>2021-02-18T12:37:17Z</time><name>PT6378</name></trkpt>
<trkpt lat="53.455129" lon="05.886628"><ele>8.1</ele><time>2021-02-18T12:37:18Z</time><name>PT6379</name></trkpt>
<trkpt lat="53.455119" lon="05.886635"><ele>7.8</ele><time>2021-02-18T12:37:20Z</time><name>PT6380</name></trkpt>
<trkpt lat="53.455107" lon="05.886640"><ele>7.7</ele><time>2021-02-18T12:37:20Z</time><name>PT6381</name></trkpt>
<trkpt lat="53.455095" lon="05.886650"><ele>7.8</ele><time>2021-02-18T12:37:21Z</time><name>PT6382</name></trkpt>
<trkpt lat="53.455087" lon="05.886659"><ele>7.8</ele><time>2021-02-18T12:37:23Z</time><name>PT6383</name></trkpt>
<trkpt lat="53.455079" lon="05.886668"><ele>7.8</ele><time>2021-02-18T12:37:23Z</time><name>PT6384</name></trkpt>
<trkpt lat="53.455075" lon="05.886680"><ele>7.7</ele><time>2021-02-18T12:37:24Z</time><name>PT6385</name></trkpt>
<trkpt lat="53.455072" lon="05.886687"><ele>7.7</ele><time>2021-02-18T12:37:26Z</time><name>PT6386</name></trkpt>
<trkpt lat="53.455066" lon="05.886693"><ele>7.7</ele><time>2021-02-18T12:37:26Z</time><name>PT6387</name></trkpt>
<trkpt lat="53.455056" lon="05.886701"><ele>7.8</ele><time>2021-02-18T12:37:27Z</time><name>PT6388</name></trkpt>
<trkpt lat="53.455044" lon="05.886705"><ele>8</ele><time>2021-02-18T12:37:29Z</time><name>PT6389</name></trkpt>
<trkpt lat="53.455036" lon="05.886711"><ele>8.2</ele><time>2021-02-18T12:37:29Z</time><name>PT6390</name></trkpt>
<trkpt lat="53.455031" lon="05.886718"><ele>8</ele><time>2021-02-18T12:37:30Z</time><name>PT6391</name></trkpt>
<trkpt lat="53.455026" lon="05.886724"><ele>7.8</ele><time>2021-02-18T12:37:32Z</time><name>PT6392</name></trkpt>
<trkpt lat="53.455019" lon="05.886726"><ele>7.7</ele><time>2021-02-18T12:37:32Z</time><name>PT6393</name></trkpt>
<trkpt lat="53.455013" lon="05.886729"><ele>7.6</ele><time>2021-02-18T12:37:33Z</time><name>PT6394</name></trkpt>
<trkpt lat="53.455004" lon="05.886734"><ele>7.6</ele><time>2021-02-18T12:37:35Z</time><name>PT6395</name></trkpt>
<trkpt lat="53.454994" lon="05.886741"><ele>7.6</ele><time>2021-02-18T12:37:35Z</time><name>PT6396</name></trkpt>
<trkpt lat="53.454980" lon="05.886748"><ele>7.7</ele><time>2021-02-18T12:37:36Z</time><name>PT6397</name></trkpt>
<trkpt lat="53.454965" lon="05.886756"><ele>7.7</ele><time>2021-02-18T12:37:38Z</time><name>PT6398</name></trkpt>
<trkpt lat="53.454950" lon="05.886765"><ele>7.7</ele><time>2021-02-18T12:37:38Z</time><name>PT6399</name></trkpt>
<trkpt lat="53.454936" lon="05.886776"><ele>7.6</ele><time>2021-02-18T12:37:39Z</time><name>PT6400</name></trkpt>
<trkpt lat="53.454922" lon="05.886785"><ele>7.6</ele><time>2021-02-18T12:37:41Z</time><name>PT6401</name></trkpt>
<trkpt lat="53.454907" lon="05.886794"><ele>7.7</ele><time>2021-02-18T12:37:41Z</time><name>PT6402</name></trkpt>
<trkpt lat="53.454892" lon="05.886804"><ele>7.7</ele><time>2021-02-18T12:37:42Z</time><name>PT6403</name></trkpt>
<trkpt lat="53.454878" lon="05.886814"><ele>7.7</ele><time>2021-02-18T12:37:44Z</time><name>PT6404</name></trkpt>
<trkpt lat="53.454865" lon="05.886822"><ele>7.8</ele><time>2021-02-18T12:37:44Z</time><name>PT6405</name></trkpt>
<trkpt lat="53.454854" lon="05.886830"><ele>7.6</ele><time>2021-02-18T12:37:45Z</time><name>PT6406</name></trkpt>
<trkpt lat="53.454847" lon="05.886841"><ele>7.7</ele><time>2021-02-18T12:37:47Z</time><name>PT6407</name></trkpt>
<trkpt lat="53.454843" lon="05.886849"><ele>7.8</ele><time>2021-02-18T12:37:47Z</time><name>PT6408</name></trkpt>
<trkpt lat="53.454838" lon="05.886857"><ele>7.7</ele><time>2021-02-18T12:37:48Z</time><name>PT6409</name></trkpt>
<trkpt lat="53.454838" lon="05.886865"><ele>7.7</ele><time>2021-02-18T12:37:50Z</time><name>PT6410</name></trkpt>
<trkpt lat="53.454837" lon="05.886868"><ele>7.9</ele><time>2021-02-18T12:37:50Z</time><name>PT6411</name></trkpt>
<trkpt lat="53.454836" lon="05.886871"><ele>7.9</ele><time>2021-02-18T12:37:51Z</time><name>PT6412</name></trkpt>
<trkpt lat="53.454833" lon="05.886877"><ele>8</ele><time>2021-02-18T12:37:53Z</time><name>PT6413</name></trkpt>
<trkpt lat="53.454827" lon="05.886884"><ele>8</ele><time>2021-02-18T12:37:53Z</time><name>PT6414</name></trkpt>
<trkpt lat="53.454819" lon="05.886890"><ele>8</ele><time>2021-02-18T12:37:54Z</time><name>PT6415</name></trkpt>
<trkpt lat="53.454811" lon="05.886897"><ele>8.1</ele><time>2021-02-18T12:37:56Z</time><name>PT6416</name></trkpt>
<trkpt lat="53.454802" lon="05.886900"><ele>8</ele><time>2021-02-18T12:37:56Z</time><name>PT6417</name></trkpt>
<trkpt lat="53.454788" lon="05.886908"><ele>8.1</ele><time>2021-02-18T12:37:57Z</time><name>PT6418</name></trkpt>
<trkpt lat="53.454775" lon="05.886918"><ele>8.2</ele><time>2021-02-18T12:37:59Z</time><name>PT6419</name></trkpt>
<trkpt lat="53.454759" lon="05.886932"><ele>8.2</ele><time>2021-02-18T12:37:59Z</time><name>PT6420</name></trkpt>
<trkpt lat="53.454743" lon="05.886941"><ele>8.3</ele><time>2021-02-18T12:38:00Z</time><name>PT6421</name></trkpt>
<trkpt lat="53.454724" lon="05.886949"><ele>8.4</ele><time>2021-02-18T12:38:02Z</time><name>PT6422</name></trkpt>
<trkpt lat="53.454707" lon="05.886966"><ele>8.4</ele><time>2021-02-18T12:38:02Z</time><name>PT6423</name></trkpt>
<trkpt lat="53.454687" lon="05.886993"><ele>8.3</ele><time>2021-02-18T12:38:03Z</time><name>PT6424</name></trkpt>
<trkpt lat="53.454671" lon="05.887014"><ele>8.5</ele><time>2021-02-18T12:38:05Z</time><name>PT6425</name></trkpt>
<trkpt lat="53.454659" lon="05.887032"><ele>8.3</ele><time>2021-02-18T12:38:05Z</time><name>PT6426</name></trkpt>
<trkpt lat="53.454651" lon="05.887045"><ele>8.2</ele><time>2021-02-18T12:38:06Z</time><name>PT6427</name></trkpt>
<trkpt lat="53.454650" lon="05.887046"><ele>8.2</ele><time>2021-02-18T12:38:08Z</time><name>PT6428</name></trkpt>
<trkpt lat="53.454645" lon="05.887053"><ele>8.2</ele><time>2021-02-18T12:38:08Z</time><name>PT6429</name></trkpt>
<trkpt lat="53.454642" lon="05.887060"><ele>8.2</ele><time>2021-02-18T12:38:09Z</time><name>PT6430</name></trkpt>
<trkpt lat="53.454640" lon="05.887069"><ele>8.2</ele><time>2021-02-18T12:38:11Z</time><name>PT6431</name></trkpt>
<trkpt lat="53.454637" lon="05.887077"><ele>8.4</ele><time>2021-02-18T12:38:11Z</time><name>PT6432</name></trkpt>
<trkpt lat="53.454636" lon="05.887084"><ele>8.4</ele><time>2021-02-18T12:38:12Z</time><name>PT6433</name></trkpt>
<trkpt lat="53.454633" lon="05.887089"><ele>8.6</ele><time>2021-02-18T12:38:14Z</time><name>PT6434</name></trkpt>
<trkpt lat="53.454629" lon="05.887094"><ele>8.4</ele><time>2021-02-18T12:38:14Z</time><name>PT6435</name></trkpt>
<trkpt lat="53.454618" lon="05.887104"><ele>8.4</ele><time>2021-02-18T12:38:17Z</time><name>PT6436</name></trkpt>
<trkpt lat="53.454601" lon="05.887127"><ele>8.4</ele><time>2021-02-18T12:38:17Z</time><name>PT6437</name></trkpt>
<trkpt lat="53.454579" lon="05.887144"><ele>8.2</ele><time>2021-02-18T12:38:18Z</time><name>PT6438</name></trkpt>
<trkpt lat="53.454567" lon="05.887156"><ele>8.1</ele><time>2021-02-18T12:38:20Z</time><name>PT6439</name></trkpt>
<trkpt lat="53.454558" lon="05.887170"><ele>8</ele><time>2021-02-18T12:38:20Z</time><name>PT6440</name></trkpt>
<trkpt lat="53.454547" lon="05.887182"><ele>7.8</ele><time>2021-02-18T12:38:21Z</time><name>PT6441</name></trkpt>
<trkpt lat="53.454533" lon="05.887197"><ele>7.9</ele><time>2021-02-18T12:38:23Z</time><name>PT6442</name></trkpt>
<trkpt lat="53.454517" lon="05.887213"><ele>8.2</ele><time>2021-02-18T12:38:23Z</time><name>PT6443</name></trkpt>
<trkpt lat="53.454503" lon="05.887226"><ele>8.2</ele><time>2021-02-18T12:38:24Z</time><name>PT6444</name></trkpt>
<trkpt lat="53.454487" lon="05.887244"><ele>8.5</ele><time>2021-02-18T12:38:26Z</time><name>PT6445</name></trkpt>
<trkpt lat="53.454476" lon="05.887257"><ele>8.6</ele><time>2021-02-18T12:38:26Z</time><name>PT6446</name></trkpt>
<trkpt lat="53.454469" lon="05.887270"><ele>8.7</ele><time>2021-02-18T12:38:27Z</time><name>PT6447</name></trkpt>
<trkpt lat="53.454462" lon="05.887279"><ele>8.4</ele><time>2021-02-18T12:38:29Z</time><name>PT6448</name></trkpt>
<trkpt lat="53.454456" lon="05.887289"><ele>8.4</ele><time>2021-02-18T12:38:29Z</time><name>PT6449</name></trkpt>
<trkpt lat="53.454456" lon="05.887297"><ele>8.6</ele><time>2021-02-18T12:38:30Z</time><name>PT6450</name></trkpt>
<trkpt lat="53.454453" lon="05.887303"><ele>8.7</ele><time>2021-02-18T12:38:32Z</time><name>PT6451</name></trkpt>
<trkpt lat="53.454443" lon="05.887302"><ele>8.7</ele><time>2021-02-18T12:38:32Z</time><name>PT6452</name></trkpt>
<trkpt lat="53.454436" lon="05.887310"><ele>8.9</ele><time>2021-02-18T12:38:33Z</time><name>PT6453</name></trkpt>
<trkpt lat="53.454427" lon="05.887322"><ele>9</ele><time>2021-02-18T12:38:35Z</time><name>PT6454</name></trkpt>
<trkpt lat="53.454415" lon="05.887332"><ele>8.9</ele><time>2021-02-18T12:38:35Z</time><name>PT6455</name></trkpt>
<trkpt lat="53.454403" lon="05.887346"><ele>8.7</ele><time>2021-02-18T12:38:36Z</time><name>PT6456</name></trkpt>
<trkpt lat="53.454391" lon="05.887362"><ele>8.5</ele><time>2021-02-18T12:38:38Z</time><name>PT6457</name></trkpt>
<trkpt lat="53.454380" lon="05.887378"><ele>8.4</ele><time>2021-02-18T12:38:38Z</time><name>PT6458</name></trkpt>
<trkpt lat="53.454365" lon="05.887394"><ele>8.3</ele><time>2021-02-18T12:38:39Z</time><name>PT6459</name></trkpt>
<trkpt lat="53.454354" lon="05.887411"><ele>8.2</ele><time>2021-02-18T12:38:41Z</time><name>PT6460</name></trkpt>
<trkpt lat="53.454341" lon="05.887432"><ele>8.2</ele><time>2021-02-18T12:38:41Z</time><name>PT6461</name></trkpt>
<trkpt lat="53.454332" lon="05.887451"><ele>8.1</ele><time>2021-02-18T12:38:42Z</time><name>PT6462</name></trkpt>
<trkpt lat="53.454330" lon="05.887461"><ele>8.2</ele><time>2021-02-18T12:38:44Z</time><name>PT6463</name></trkpt>
<trkpt lat="53.454331" lon="05.887463"><ele>8.2</ele><time>2021-02-18T12:38:44Z</time><name>PT6464</name></trkpt>
<trkpt lat="53.454331" lon="05.887470"><ele>8.2</ele><time>2021-02-18T12:38:45Z</time><name>PT6465</name></trkpt>
<trkpt lat="53.454333" lon="05.887477"><ele>8.3</ele><time>2021-02-18T12:38:47Z</time><name>PT6466</name></trkpt>
<trkpt lat="53.454333" lon="05.887484"><ele>8.3</ele><time>2021-02-18T12:38:47Z</time><name>PT6467</name></trkpt>
<trkpt lat="53.454331" lon="05.887489"><ele>8.2</ele><time>2021-02-18T12:38:48Z</time><name>PT6468</name></trkpt>
<trkpt lat="53.454326" lon="05.887499"><ele>8.3</ele><time>2021-02-18T12:38:50Z</time><name>PT6469</name></trkpt>
<trkpt lat="53.454319" lon="05.887513"><ele>8.2</ele><time>2021-02-18T12:38:50Z</time><name>PT6470</name></trkpt>
<trkpt lat="53.454308" lon="05.887528"><ele>8.2</ele><time>2021-02-18T12:38:51Z</time><name>PT6471</name></trkpt>
<trkpt lat="53.454296" lon="05.887546"><ele>8.3</ele><time>2021-02-18T12:38:53Z</time><name>PT6472</name></trkpt>
<trkpt lat="53.454285" lon="05.887566"><ele>8.4</ele><time>2021-02-18T12:38:53Z</time><name>PT6473</name></trkpt>
<trkpt lat="53.454271" lon="05.887587"><ele>8.2</ele><time>2021-02-18T12:38:54Z</time><name>PT6474</name></trkpt>
<trkpt lat="53.454261" lon="05.887604"><ele>8.2</ele><time>2021-02-18T12:38:56Z</time><name>PT6475</name></trkpt>
<trkpt lat="53.454252" lon="05.887616"><ele>8.2</ele><time>2021-02-18T12:38:56Z</time><name>PT6476</name></trkpt>
<trkpt lat="53.454246" lon="05.887634"><ele>8.2</ele><time>2021-02-18T12:38:57Z</time><name>PT6477</name></trkpt>
<trkpt lat="53.454241" lon="05.887651"><ele>8.2</ele><time>2021-02-18T12:38:59Z</time><name>PT6478</name></trkpt>
<trkpt lat="53.454238" lon="05.887659"><ele>8.3</ele><time>2021-02-18T12:38:59Z</time><name>PT6479</name></trkpt>
<trkpt lat="53.454232" lon="05.887666"><ele>8.4</ele><time>2021-02-18T12:39:00Z</time><name>PT6480</name></trkpt>
<trkpt lat="53.454231" lon="05.887675"><ele>8.3</ele><time>2021-02-18T12:39:02Z</time><name>PT6481</name></trkpt>
<trkpt lat="53.454228" lon="05.887682"><ele>8.3</ele><time>2021-02-18T12:39:02Z</time><name>PT6482</name></trkpt>
<trkpt lat="53.454225" lon="05.887694"><ele>8.4</ele><time>2021-02-18T12:39:03Z</time><name>PT6483</name></trkpt>
<trkpt lat="53.454221" lon="05.887706"><ele>8.5</ele><time>2021-02-18T12:39:05Z</time><name>PT6484</name></trkpt>
<trkpt lat="53.454216" lon="05.887716"><ele>8.4</ele><time>2021-02-18T12:39:05Z</time><name>PT6485</name></trkpt>
<trkpt lat="53.454211" lon="05.887725"><ele>8.3</ele><time>2021-02-18T12:39:06Z</time><name>PT6486</name></trkpt>
<trkpt lat="53.454208" lon="05.887739"><ele>8.4</ele><time>2021-02-18T12:39:08Z</time><name>PT6487</name></trkpt>
<trkpt lat="53.454199" lon="05.887764"><ele>8.2</ele><time>2021-02-18T12:39:08Z</time><name>PT6488</name></trkpt>
<trkpt lat="53.454191" lon="05.887787"><ele>8.2</ele><time>2021-02-18T12:39:09Z</time><name>PT6489</name></trkpt>
<trkpt lat="53.454190" lon="05.887811"><ele>8.2</ele><time>2021-02-18T12:39:11Z</time><name>PT6490</name></trkpt>
<trkpt lat="53.454183" lon="05.887839"><ele>8.3</ele><time>2021-02-18T12:39:11Z</time><name>PT6491</name></trkpt>
<trkpt lat="53.454175" lon="05.887867"><ele>8.2</ele><time>2021-02-18T12:39:12Z</time><name>PT6492</name></trkpt>
<trkpt lat="53.454169" lon="05.887889"><ele>8.4</ele><time>2021-02-18T12:39:14Z</time><name>PT6493</name></trkpt>
<trkpt lat="53.454165" lon="05.887907"><ele>8.4</ele><time>2021-02-18T12:39:14Z</time><name>PT6494</name></trkpt>
<trkpt lat="53.454162" lon="05.887923"><ele>8.2</ele><time>2021-02-18T12:39:15Z</time><name>PT6495</name></trkpt>
<trkpt lat="53.454160" lon="05.887938"><ele>8.3</ele><time>2021-02-18T12:39:17Z</time><name>PT6496</name></trkpt>
<trkpt lat="53.454159" lon="05.887949"><ele>8.3</ele><time>2021-02-18T12:39:17Z</time><name>PT6497</name></trkpt>
<trkpt lat="53.454158" lon="05.887956"><ele>8.2</ele><time>2021-02-18T12:39:18Z</time><name>PT6498</name></trkpt>
<trkpt lat="53.454156" lon="05.887966"><ele>8.3</ele><time>2021-02-18T12:39:20Z</time><name>PT6499</name></trkpt>
<trkpt lat="53.454152" lon="05.887978"><ele>8.3</ele><time>2021-02-18T12:39:20Z</time><name>PT6500</name></trkpt>
<trkpt lat="53.454148" lon="05.887991"><ele>8.3</ele><time>2021-02-18T12:39:21Z</time><name>PT6501</name></trkpt>
<trkpt lat="53.454140" lon="05.888003"><ele>8.5</ele><time>2021-02-18T12:39:23Z</time><name>PT6502</name></trkpt>
<trkpt lat="53.454131" lon="05.888018"><ele>8.6</ele><time>2021-02-18T12:39:23Z</time><name>PT6503</name></trkpt>
<trkpt lat="53.454123" lon="05.888037"><ele>8.6</ele><time>2021-02-18T12:39:24Z</time><name>PT6504</name></trkpt>
<trkpt lat="53.454114" lon="05.888059"><ele>8.7</ele><time>2021-02-18T12:39:26Z</time><name>PT6505</name></trkpt>
<trkpt lat="53.454104" lon="05.888085"><ele>8.8</ele><time>2021-02-18T12:39:26Z</time><name>PT6506</name></trkpt>
<trkpt lat="53.454094" lon="05.888112"><ele>8.7</ele><time>2021-02-18T12:39:27Z</time><name>PT6507</name></trkpt>
<trkpt lat="53.454084" lon="05.888139"><ele>8.7</ele><time>2021-02-18T12:39:29Z</time><name>PT6508</name></trkpt>
<trkpt lat="53.454076" lon="05.888164"><ele>8.7</ele><time>2021-02-18T12:39:29Z</time><name>PT6509</name></trkpt>
<trkpt lat="53.454067" lon="05.888189"><ele>8.7</ele><time>2021-02-18T12:39:30Z</time><name>PT6510</name></trkpt>
<trkpt lat="53.454055" lon="05.888211"><ele>8.6</ele><time>2021-02-18T12:39:32Z</time><name>PT6511</name></trkpt>
<trkpt lat="53.454048" lon="05.888231"><ele>8.6</ele><time>2021-02-18T12:39:32Z</time><name>PT6512</name></trkpt>
<trkpt lat="53.454043" lon="05.888247"><ele>8.6</ele><time>2021-02-18T12:39:33Z</time><name>PT6513</name></trkpt>
<trkpt lat="53.454039" lon="05.888260"><ele>8.7</ele><time>2021-02-18T12:39:35Z</time><name>PT6514</name></trkpt>
<trkpt lat="53.454032" lon="05.888272"><ele>8.9</ele><time>2021-02-18T12:39:35Z</time><name>PT6515</name></trkpt>
<trkpt lat="53.454032" lon="05.888277"><ele>8.9</ele><time>2021-02-18T12:39:36Z</time><name>PT6516</name></trkpt>
<trkpt lat="53.454032" lon="05.888282"><ele>9</ele><time>2021-02-18T12:39:38Z</time><name>PT6517</name></trkpt>
<trkpt lat="53.454030" lon="05.888289"><ele>9.1</ele><time>2021-02-18T12:39:38Z</time><name>PT6518</name></trkpt>
<trkpt lat="53.454025" lon="05.888297"><ele>9</ele><time>2021-02-18T12:39:39Z</time><name>PT6519</name></trkpt>
<trkpt lat="53.454019" lon="05.888310"><ele>8.9</ele><time>2021-02-18T12:39:41Z</time><name>PT6520</name></trkpt>
<trkpt lat="53.454011" lon="05.888326"><ele>9</ele><time>2021-02-18T12:39:41Z</time><name>PT6521</name></trkpt>
<trkpt lat="53.454002" lon="05.888349"><ele>8.7</ele><time>2021-02-18T12:39:42Z</time><name>PT6522</name></trkpt>
<trkpt lat="53.453995" lon="05.888372"><ele>8.9</ele><time>2021-02-18T12:39:44Z</time><name>PT6523</name></trkpt>
<trkpt lat="53.453990" lon="05.888391"><ele>8.7</ele><time>2021-02-18T12:39:44Z</time><name>PT6524</name></trkpt>
<trkpt lat="53.453990" lon="05.888405"><ele>8.7</ele><time>2021-02-18T12:39:45Z</time><name>PT6525</name></trkpt>
<trkpt lat="53.453992" lon="05.888417"><ele>8.5</ele><time>2021-02-18T12:39:47Z</time><name>PT6526</name></trkpt>
<trkpt lat="53.453992" lon="05.888424"><ele>8.4</ele><time>2021-02-18T12:39:47Z</time><name>PT6527</name></trkpt>
<trkpt lat="53.453988" lon="05.888433"><ele>8.2</ele><time>2021-02-18T12:39:48Z</time><name>PT6528</name></trkpt>
<trkpt lat="53.453981" lon="05.888444"><ele>8.3</ele><time>2021-02-18T12:39:50Z</time><name>PT6529</name></trkpt>
<trkpt lat="53.453973" lon="05.888458"><ele>8.2</ele><time>2021-02-18T12:39:50Z</time><name>PT6530</name></trkpt>
<trkpt lat="53.453965" lon="05.888476"><ele>8.4</ele><time>2021-02-18T12:39:51Z</time><name>PT6531</name></trkpt>
<trkpt lat="53.453957" lon="05.888488"><ele>8.5</ele><time>2021-02-18T12:39:53Z</time><name>PT6532</name></trkpt>
<trkpt lat="53.453949" lon="05.888506"><ele>8.6</ele><time>2021-02-18T12:39:53Z</time><name>PT6533</name></trkpt>
<trkpt lat="53.453943" lon="05.888527"><ele>8.7</ele><time>2021-02-18T12:39:54Z</time><name>PT6534</name></trkpt>
<trkpt lat="53.453941" lon="05.888549"><ele>8.7</ele><time>2021-02-18T12:39:56Z</time><name>PT6535</name></trkpt>
<trkpt lat="53.453938" lon="05.888565"><ele>8.7</ele><time>2021-02-18T12:39:56Z</time><name>PT6536</name></trkpt>
<trkpt lat="53.453937" lon="05.888579"><ele>8.7</ele><time>2021-02-18T12:39:57Z</time><name>PT6537</name></trkpt>
<trkpt lat="53.453936" lon="05.888590"><ele>8.5</ele><time>2021-02-18T12:39:59Z</time><name>PT6538</name></trkpt>
<trkpt lat="53.453933" lon="05.888600"><ele>8.5</ele><time>2021-02-18T12:39:59Z</time><name>PT6539</name></trkpt>
<trkpt lat="53.453930" lon="05.888611"><ele>8.5</ele><time>2021-02-18T12:40:00Z</time><name>PT6540</name></trkpt>
<trkpt lat="53.453927" lon="05.888621"><ele>8.5</ele><time>2021-02-18T12:40:02Z</time><name>PT6541</name></trkpt>
<trkpt lat="53.453924" lon="05.888631"><ele>8.3</ele><time>2021-02-18T12:40:02Z</time><name>PT6542</name></trkpt>
<trkpt lat="53.453922" lon="05.888642"><ele>8.4</ele><time>2021-02-18T12:40:03Z</time><name>PT6543</name></trkpt>
<trkpt lat="53.453917" lon="05.888660"><ele>8.6</ele><time>2021-02-18T12:40:05Z</time><name>PT6544</name></trkpt>
<trkpt lat="53.453912" lon="05.888684"><ele>8.6</ele><time>2021-02-18T12:40:05Z</time><name>PT6545</name></trkpt>
<trkpt lat="53.453903" lon="05.888708"><ele>8.6</ele><time>2021-02-18T12:40:06Z</time><name>PT6546</name></trkpt>
<trkpt lat="53.453898" lon="05.888726"><ele>8.6</ele><time>2021-02-18T12:40:08Z</time><name>PT6547</name></trkpt>
<trkpt lat="53.453896" lon="05.888741"><ele>8.6</ele><time>2021-02-18T12:40:08Z</time><name>PT6548</name></trkpt>
<trkpt lat="53.453895" lon="05.888752"><ele>8.6</ele><time>2021-02-18T12:40:09Z</time><name>PT6549</name></trkpt>
<trkpt lat="53.453894" lon="05.888763"><ele>8.6</ele><time>2021-02-18T12:40:11Z</time><name>PT6550</name></trkpt>
<trkpt lat="53.453892" lon="05.888773"><ele>8.6</ele><time>2021-02-18T12:40:11Z</time><name>PT6551</name></trkpt>
<trkpt lat="53.453889" lon="05.888783"><ele>8.6</ele><time>2021-02-18T12:40:12Z</time><name>PT6552</name></trkpt>
<trkpt lat="53.453882" lon="05.888797"><ele>8.6</ele><time>2021-02-18T12:40:14Z</time><name>PT6553</name></trkpt>
<trkpt lat="53.453880" lon="05.888815"><ele>8.6</ele><time>2021-02-18T12:40:14Z</time><name>PT6554</name></trkpt>
<trkpt lat="53.453874" lon="05.888837"><ele>8.7</ele><time>2021-02-18T12:40:15Z</time><name>PT6555</name></trkpt>
<trkpt lat="53.453868" lon="05.888863"><ele>9</ele><time>2021-02-18T12:40:17Z</time><name>PT6556</name></trkpt>
<trkpt lat="53.453859" lon="05.888890"><ele>8.9</ele><time>2021-02-18T12:40:17Z</time><name>PT6557</name></trkpt>
<trkpt lat="53.453855" lon="05.888910"><ele>8.9</ele><time>2021-02-18T12:40:18Z</time><name>PT6558</name></trkpt>
<trkpt lat="53.453852" lon="05.888927"><ele>8.9</ele><time>2021-02-18T12:40:20Z</time><name>PT6559</name></trkpt>
<trkpt lat="53.453850" lon="05.888938"><ele>8.7</ele><time>2021-02-18T12:40:20Z</time><name>PT6560</name></trkpt>
<trkpt lat="53.453850" lon="05.888946"><ele>8.6</ele><time>2021-02-18T12:40:21Z</time><name>PT6561</name></trkpt>
<trkpt lat="53.453845" lon="05.888957"><ele>8.5</ele><time>2021-02-18T12:40:23Z</time><name>PT6562</name></trkpt>
<trkpt lat="53.453839" lon="05.888974"><ele>8.6</ele><time>2021-02-18T12:40:23Z</time><name>PT6563</name></trkpt>
<trkpt lat="53.453830" lon="05.888997"><ele>8.7</ele><time>2021-02-18T12:40:24Z</time><name>PT6564</name></trkpt>
<trkpt lat="53.453822" lon="05.889017"><ele>8.7</ele><time>2021-02-18T12:40:26Z</time><name>PT6565</name></trkpt>
<trkpt lat="53.453818" lon="05.889035"><ele>8.7</ele><time>2021-02-18T12:40:26Z</time><name>PT6566</name></trkpt>
<trkpt lat="53.453817" lon="05.889051"><ele>8.7</ele><time>2021-02-18T12:40:27Z</time><name>PT6567</name></trkpt>
<trkpt lat="53.453817" lon="05.889065"><ele>8.5</ele><time>2021-02-18T12:40:29Z</time><name>PT6568</name></trkpt>
<trkpt lat="53.453817" lon="05.889075"><ele>8.5</ele><time>2021-02-18T12:40:29Z</time><name>PT6569</name></trkpt>
<trkpt lat="53.453814" lon="05.889085"><ele>8.6</ele><time>2021-02-18T12:40:30Z</time><name>PT6570</name></trkpt>
<trkpt lat="53.453810" lon="05.889096"><ele>8.5</ele><time>2021-02-18T12:40:32Z</time><name>PT6571</name></trkpt>
<trkpt lat="53.453806" lon="05.889109"><ele>8.6</ele><time>2021-02-18T12:40:32Z</time><name>PT6572</name></trkpt>
<trkpt lat="53.453799" lon="05.889128"><ele>8.7</ele><time>2021-02-18T12:40:33Z</time><name>PT6573</name></trkpt>
<trkpt lat="53.453793" lon="05.889151"><ele>9</ele><time>2021-02-18T12:40:35Z</time><name>PT6574</name></trkpt>
<trkpt lat="53.453789" lon="05.889174"><ele>9</ele><time>2021-02-18T12:40:35Z</time><name>PT6575</name></trkpt>
<trkpt lat="53.453784" lon="05.889193"><ele>8.8</ele><time>2021-02-18T12:40:36Z</time><name>PT6576</name></trkpt>
<trkpt lat="53.453782" lon="05.889206"><ele>8.9</ele><time>2021-02-18T12:40:38Z</time><name>PT6577</name></trkpt>
<trkpt lat="53.453781" lon="05.889216"><ele>8.7</ele><time>2021-02-18T12:40:38Z</time><name>PT6578</name></trkpt>
<trkpt lat="53.453780" lon="05.889226"><ele>8.9</ele><time>2021-02-18T12:40:39Z</time><name>PT6579</name></trkpt>
<trkpt lat="53.453778" lon="05.889239"><ele>8.8</ele><time>2021-02-18T12:40:41Z</time><name>PT6580</name></trkpt>
<trkpt lat="53.453774" lon="05.889260"><ele>8.7</ele><time>2021-02-18T12:40:41Z</time><name>PT6581</name></trkpt>
<trkpt lat="53.453766" lon="05.889290"><ele>8.9</ele><time>2021-02-18T12:40:42Z</time><name>PT6582</name></trkpt>
<trkpt lat="53.453759" lon="05.889316"><ele>9</ele><time>2021-02-18T12:40:44Z</time><name>PT6583</name></trkpt>
<trkpt lat="53.453754" lon="05.889337"><ele>9.1</ele><time>2021-02-18T12:40:44Z</time><name>PT6584</name></trkpt>
<trkpt lat="53.453752" lon="05.889355"><ele>9.2</ele><time>2021-02-18T12:40:45Z</time><name>PT6585</name></trkpt>
<trkpt lat="53.453750" lon="05.889370"><ele>9.2</ele><time>2021-02-18T12:40:47Z</time><name>PT6586</name></trkpt>
<trkpt lat="53.453745" lon="05.889380"><ele>9.2</ele><time>2021-02-18T12:40:47Z</time><name>PT6587</name></trkpt>
<trkpt lat="53.453738" lon="05.889397"><ele>9.1</ele><time>2021-02-18T12:40:48Z</time><name>PT6588</name></trkpt>
<trkpt lat="53.453742" lon="05.889406"><ele>8.8</ele><time>2021-02-18T12:40:50Z</time><name>PT6589</name></trkpt>
<trkpt lat="53.453740" lon="05.889415"><ele>8.6</ele><time>2021-02-18T12:40:50Z</time><name>PT6590</name></trkpt>
<trkpt lat="53.453735" lon="05.889423"><ele>8.7</ele><time>2021-02-18T12:40:51Z</time><name>PT6591</name></trkpt>
<trkpt lat="53.453728" lon="05.889440"><ele>8.7</ele><time>2021-02-18T12:40:53Z</time><name>PT6592</name></trkpt>
<trkpt lat="53.453722" lon="05.889460"><ele>8.6</ele><time>2021-02-18T12:40:53Z</time><name>PT6593</name></trkpt>
<trkpt lat="53.453714" lon="05.889486"><ele>8.7</ele><time>2021-02-18T12:40:54Z</time><name>PT6594</name></trkpt>
<trkpt lat="53.453704" lon="05.889511"><ele>8.8</ele><time>2021-02-18T12:40:56Z</time><name>PT6595</name></trkpt>
<trkpt lat="53.453696" lon="05.889534"><ele>8.7</ele><time>2021-02-18T12:40:56Z</time><name>PT6596</name></trkpt>
<trkpt lat="53.453690" lon="05.889557"><ele>8.6</ele><time>2021-02-18T12:40:57Z</time><name>PT6597</name></trkpt>
<trkpt lat="53.453690" lon="05.889575"><ele>8.6</ele><time>2021-02-18T12:40:59Z</time><name>PT6598</name></trkpt>
<trkpt lat="53.453690" lon="05.889588"><ele>8.6</ele><time>2021-02-18T12:40:59Z</time><name>PT6599</name></trkpt>
<trkpt lat="53.453687" lon="05.889591"><ele>8.8</ele><time>2021-02-18T12:41:00Z</time><name>PT6600</name></trkpt>
<trkpt lat="53.453688" lon="05.889586"><ele>8.9</ele><time>2021-02-18T12:41:02Z</time><name>PT6601</name></trkpt>
<trkpt lat="53.453690" lon="05.889590"><ele>8.9</ele><time>2021-02-18T12:41:02Z</time><name>PT6602</name></trkpt>
<trkpt lat="53.453690" lon="05.889598"><ele>9.1</ele><time>2021-02-18T12:41:03Z</time><name>PT6603</name></trkpt>
<trkpt lat="53.453688" lon="05.889609"><ele>8.9</ele><time>2021-02-18T12:41:05Z</time><name>PT6604</name></trkpt>
<trkpt lat="53.453686" lon="05.889616"><ele>8.9</ele><time>2021-02-18T12:41:05Z</time><name>PT6605</name></trkpt>
<trkpt lat="53.453682" lon="05.889629"><ele>8.9</ele><time>2021-02-18T12:41:06Z</time><name>PT6606</name></trkpt>
<trkpt lat="53.453678" lon="05.889646"><ele>8.7</ele><time>2021-02-18T12:41:08Z</time><name>PT6607</name></trkpt>
<trkpt lat="53.453678" lon="05.889665"><ele>8.6</ele><time>2021-02-18T12:41:08Z</time><name>PT6608</name></trkpt>
<trkpt lat="53.453679" lon="05.889686"><ele>8.6</ele><time>2021-02-18T12:41:09Z</time><name>PT6609</name></trkpt>
<trkpt lat="53.453679" lon="05.889705"><ele>8.6</ele><time>2021-02-18T12:41:11Z</time><name>PT6610</name></trkpt>
<trkpt lat="53.453681" lon="05.889716"><ele>8.7</ele><time>2021-02-18T12:41:11Z</time><name>PT6611</name></trkpt>
<trkpt lat="53.453681" lon="05.889723"><ele>8.8</ele><time>2021-02-18T12:41:12Z</time><name>PT6612</name></trkpt>
<trkpt lat="53.453677" lon="05.889735"><ele>8.8</ele><time>2021-02-18T12:41:14Z</time><name>PT6613</name></trkpt>
<trkpt lat="53.453673" lon="05.889746"><ele>8.8</ele><time>2021-02-18T12:41:14Z</time><name>PT6614</name></trkpt>
<trkpt lat="53.453672" lon="05.889754"><ele>8.8</ele><time>2021-02-18T12:41:15Z</time><name>PT6615</name></trkpt>
<trkpt lat="53.453669" lon="05.889767"><ele>8.7</ele><time>2021-02-18T12:41:17Z</time><name>PT6616</name></trkpt>
<trkpt lat="53.453667" lon="05.889778"><ele>8.6</ele><time>2021-02-18T12:41:17Z</time><name>PT6617</name></trkpt>
<trkpt lat="53.453667" lon="05.889783"><ele>8.6</ele><time>2021-02-18T12:41:18Z</time><name>PT6618</name></trkpt>
<trkpt lat="53.453664" lon="05.889782"><ele>8.6</ele><time>2021-02-18T12:41:20Z</time><name>PT6619</name></trkpt>
<trkpt lat="53.453664" lon="05.889781"><ele>8.6</ele><time>2021-02-18T12:41:20Z</time><name>PT6620</name></trkpt>
<trkpt lat="53.453665" lon="05.889779"><ele>8.7</ele><time>2021-02-18T12:41:21Z</time><name>PT6621</name></trkpt>
<trkpt lat="53.453664" lon="05.889777"><ele>9.2</ele><time>2021-02-18T12:41:32Z</time><name>PT6622</name></trkpt>
<trkpt lat="53.453662" lon="05.889771"><ele>9.1</ele><time>2021-02-18T12:41:32Z</time><name>PT6623</name></trkpt>
<trkpt lat="53.453670" lon="05.889781"><ele>8.7</ele><time>2021-02-18T12:42:29Z</time><name>PT6624</name></trkpt>
<trkpt lat="53.453669" lon="05.889795"><ele>9</ele><time>2021-02-18T12:42:30Z</time><name>PT6625</name></trkpt>
<trkpt lat="53.453667" lon="05.889808"><ele>9.2</ele><time>2021-02-18T12:42:32Z</time><name>PT6626</name></trkpt>
<trkpt lat="53.453665" lon="05.889820"><ele>9.3</ele><time>2021-02-18T12:42:32Z</time><name>PT6627</name></trkpt>
<trkpt lat="53.453662" lon="05.889833"><ele>9.4</ele><time>2021-02-18T12:42:33Z</time><name>PT6628</name></trkpt>
<trkpt lat="53.453660" lon="05.889844"><ele>9.2</ele><time>2021-02-18T12:42:35Z</time><name>PT6629</name></trkpt>
<trkpt lat="53.453658" lon="05.889851"><ele>9.2</ele><time>2021-02-18T12:42:35Z</time><name>PT6630</name></trkpt>
<trkpt lat="53.453656" lon="05.889860"><ele>9.2</ele><time>2021-02-18T12:42:36Z</time><name>PT6631</name></trkpt>
<trkpt lat="53.453655" lon="05.889876"><ele>9.2</ele><time>2021-02-18T12:42:38Z</time><name>PT6632</name></trkpt>
<trkpt lat="53.453653" lon="05.889891"><ele>9.2</ele><time>2021-02-18T12:42:38Z</time><name>PT6633</name></trkpt>
<trkpt lat="53.453650" lon="05.889903"><ele>9.3</ele><time>2021-02-18T12:42:39Z</time><name>PT6634</name></trkpt>
<trkpt lat="53.453649" lon="05.889910"><ele>9.2</ele><time>2021-02-18T12:42:41Z</time><name>PT6635</name></trkpt>
<trkpt lat="53.453647" lon="05.889915"><ele>9.2</ele><time>2021-02-18T12:42:41Z</time><name>PT6636</name></trkpt>
<trkpt lat="53.453650" lon="05.889927"><ele>9.2</ele><time>2021-02-18T12:42:42Z</time><name>PT6637</name></trkpt>
<trkpt lat="53.453648" lon="05.889941"><ele>9.2</ele><time>2021-02-18T12:42:44Z</time><name>PT6638</name></trkpt>
<trkpt lat="53.453642" lon="05.889957"><ele>9.1</ele><time>2021-02-18T12:42:44Z</time><name>PT6639</name></trkpt>
<trkpt lat="53.453638" lon="05.889972"><ele>9</ele><time>2021-02-18T12:42:45Z</time><name>PT6640</name></trkpt>
<trkpt lat="53.453633" lon="05.889990"><ele>8.8</ele><time>2021-02-18T12:42:47Z</time><name>PT6641</name></trkpt>
<trkpt lat="53.453630" lon="05.890010"><ele>9.1</ele><time>2021-02-18T12:42:47Z</time><name>PT6642</name></trkpt>
<trkpt lat="53.453628" lon="05.890029"><ele>9.1</ele><time>2021-02-18T12:42:48Z</time><name>PT6643</name></trkpt>
<trkpt lat="53.453628" lon="05.890041"><ele>9.3</ele><time>2021-02-18T12:42:50Z</time><name>PT6644</name></trkpt>
<trkpt lat="53.453630" lon="05.890052"><ele>9.4</ele><time>2021-02-18T12:42:50Z</time><name>PT6645</name></trkpt>
<trkpt lat="53.453629" lon="05.890063"><ele>9.6</ele><time>2021-02-18T12:42:51Z</time><name>PT6646</name></trkpt>
<trkpt lat="53.453628" lon="05.890077"><ele>9.5</ele><time>2021-02-18T12:42:53Z</time><name>PT6647</name></trkpt>
<trkpt lat="53.453628" lon="05.890090"><ele>9.4</ele><time>2021-02-18T12:42:53Z</time><name>PT6648</name></trkpt>
<trkpt lat="53.453623" lon="05.890104"><ele>9.3</ele><time>2021-02-18T12:42:54Z</time><name>PT6649</name></trkpt>
<trkpt lat="53.453618" lon="05.890117"><ele>9.2</ele><time>2021-02-18T12:42:56Z</time><name>PT6650</name></trkpt>
<trkpt lat="53.453616" lon="05.890122"><ele>9.1</ele><time>2021-02-18T12:42:56Z</time><name>PT6651</name></trkpt>
<trkpt lat="53.453614" lon="05.890136"><ele>9.1</ele><time>2021-02-18T12:42:57Z</time><name>PT6652</name></trkpt>
<trkpt lat="53.453613" lon="05.890150"><ele>9.1</ele><time>2021-02-18T12:42:59Z</time><name>PT6653</name></trkpt>
<trkpt lat="53.453615" lon="05.890160"><ele>9.2</ele><time>2021-02-18T12:42:59Z</time><name>PT6654</name></trkpt>
<trkpt lat="53.453617" lon="05.890170"><ele>9.2</ele><time>2021-02-18T12:43:00Z</time><name>PT6655</name></trkpt>
<trkpt lat="53.453616" lon="05.890183"><ele>9.5</ele><time>2021-02-18T12:43:02Z</time><name>PT6656</name></trkpt>
<trkpt lat="53.453616" lon="05.890197"><ele>9.5</ele><time>2021-02-18T12:43:02Z</time><name>PT6657</name></trkpt>
<trkpt lat="53.453618" lon="05.890218"><ele>9.6</ele><time>2021-02-18T12:43:03Z</time><name>PT6658</name></trkpt>
<trkpt lat="53.453620" lon="05.890233"><ele>9.6</ele><time>2021-02-18T12:43:05Z</time><name>PT6659</name></trkpt>
<trkpt lat="53.453620" lon="05.890250"><ele>9.4</ele><time>2021-02-18T12:43:05Z</time><name>PT6660</name></trkpt>
<trkpt lat="53.453620" lon="05.890267"><ele>9.3</ele><time>2021-02-18T12:43:06Z</time><name>PT6661</name></trkpt>
<trkpt lat="53.453619" lon="05.890283"><ele>9.2</ele><time>2021-02-18T12:43:08Z</time><name>PT6662</name></trkpt>
<trkpt lat="53.453615" lon="05.890299"><ele>9.1</ele><time>2021-02-18T12:43:08Z</time><name>PT6663</name></trkpt>
<trkpt lat="53.453613" lon="05.890318"><ele>9.2</ele><time>2021-02-18T12:43:09Z</time><name>PT6664</name></trkpt>
<trkpt lat="53.453606" lon="05.890331"><ele>9.2</ele><time>2021-02-18T12:43:11Z</time><name>PT6665</name></trkpt>
<trkpt lat="53.453606" lon="05.890344"><ele>9.4</ele><time>2021-02-18T12:43:11Z</time><name>PT6666</name></trkpt>
<trkpt lat="53.453604" lon="05.890356"><ele>9.7</ele><time>2021-02-18T12:43:12Z</time><name>PT6667</name></trkpt>
<trkpt lat="53.453602" lon="05.890367"><ele>10</ele><time>2021-02-18T12:43:14Z</time><name>PT6668</name></trkpt>
<trkpt lat="53.453602" lon="05.890380"><ele>9.9</ele><time>2021-02-18T12:43:14Z</time><name>PT6669</name></trkpt>
<trkpt lat="53.453604" lon="05.890394"><ele>9.8</ele><time>2021-02-18T12:43:15Z</time><name>PT6670</name></trkpt>
<trkpt lat="53.453608" lon="05.890405"><ele>9.7</ele><time>2021-02-18T12:43:17Z</time><name>PT6671</name></trkpt>
<trkpt lat="53.453609" lon="05.890417"><ele>9.7</ele><time>2021-02-18T12:43:17Z</time><name>PT6672</name></trkpt>
<trkpt lat="53.453610" lon="05.890431"><ele>9.6</ele><time>2021-02-18T12:43:18Z</time><name>PT6673</name></trkpt>
<trkpt lat="53.453612" lon="05.890442"><ele>9.5</ele><time>2021-02-18T12:43:20Z</time><name>PT6674</name></trkpt>
<trkpt lat="53.453614" lon="05.890455"><ele>9.7</ele><time>2021-02-18T12:43:20Z</time><name>PT6675</name></trkpt>
<trkpt lat="53.453615" lon="05.890467"><ele>9.7</ele><time>2021-02-18T12:43:21Z</time><name>PT6676</name></trkpt>
<trkpt lat="53.453614" lon="05.890477"><ele>9.6</ele><time>2021-02-18T12:43:23Z</time><name>PT6677</name></trkpt>
<trkpt lat="53.453612" lon="05.890483"><ele>9.7</ele><time>2021-02-18T12:43:23Z</time><name>PT6678</name></trkpt>
<trkpt lat="53.453613" lon="05.890486"><ele>9.7</ele><time>2021-02-18T12:43:24Z</time><name>PT6679</name></trkpt>
<trkpt lat="53.453614" lon="05.890489"><ele>9.7</ele><time>2021-02-18T12:43:26Z</time><name>PT6680</name></trkpt>
<trkpt lat="53.453615" lon="05.890492"><ele>9.7</ele><time>2021-02-18T12:43:26Z</time><name>PT6681</name></trkpt>
<trkpt lat="53.453615" lon="05.890492"><ele>9.8</ele><time>2021-02-18T12:43:27Z</time><name>PT6682</name></trkpt>
<trkpt lat="53.453617" lon="05.890492"><ele>9.7</ele><time>2021-02-18T12:43:29Z</time><name>PT6683</name></trkpt>
<trkpt lat="53.453617" lon="05.890503"><ele>9.7</ele><time>2021-02-18T12:43:29Z</time><name>PT6684</name></trkpt>
<trkpt lat="53.453617" lon="05.890516"><ele>9.7</ele><time>2021-02-18T12:43:30Z</time><name>PT6685</name></trkpt>
<trkpt lat="53.453618" lon="05.890534"><ele>9.8</ele><time>2021-02-18T12:43:32Z</time><name>PT6686</name></trkpt>
<trkpt lat="53.453620" lon="05.890548"><ele>9.9</ele><time>2021-02-18T12:43:32Z</time><name>PT6687</name></trkpt>
<trkpt lat="53.453622" lon="05.890562"><ele>9.9</ele><time>2021-02-18T12:43:33Z</time><name>PT6688</name></trkpt>
<trkpt lat="53.453621" lon="05.890577"><ele>10.1</ele><time>2021-02-18T12:43:35Z</time><name>PT6689</name></trkpt>
<trkpt lat="53.453622" lon="05.890592"><ele>10.1</ele><time>2021-02-18T12:43:35Z</time><name>PT6690</name></trkpt>
<trkpt lat="53.453623" lon="05.890609"><ele>9.9</ele><time>2021-02-18T12:43:36Z</time><name>PT6691</name></trkpt>
<trkpt lat="53.453626" lon="05.890624"><ele>9.7</ele><time>2021-02-18T12:43:38Z</time><name>PT6692</name></trkpt>
<trkpt lat="53.453627" lon="05.890636"><ele>9.8</ele><time>2021-02-18T12:43:38Z</time><name>PT6693</name></trkpt>
<trkpt lat="53.453622" lon="05.890637"><ele>9.5</ele><time>2021-02-18T12:43:39Z</time><name>PT6694</name></trkpt>
<trkpt lat="53.453621" lon="05.890638"><ele>9.2</ele><time>2021-02-18T12:43:41Z</time><name>PT6695</name></trkpt>
<trkpt lat="53.453620" lon="05.890638"><ele>9</ele><time>2021-02-18T12:43:41Z</time><name>PT6696</name></trkpt>
<trkpt lat="53.453620" lon="05.890641"><ele>8.8</ele><time>2021-02-18T12:43:42Z</time><name>PT6697</name></trkpt>
<trkpt lat="53.453619" lon="05.890644"><ele>8.7</ele><time>2021-02-18T12:43:44Z</time><name>PT6698</name></trkpt>
<trkpt lat="53.453620" lon="05.890650"><ele>9.1</ele><time>2021-02-18T12:43:44Z</time><name>PT6699</name></trkpt>
<trkpt lat="53.453621" lon="05.890662"><ele>9.5</ele><time>2021-02-18T12:43:45Z</time><name>PT6700</name></trkpt>
<trkpt lat="53.453622" lon="05.890676"><ele>9.9</ele><time>2021-02-18T12:43:47Z</time><name>PT6701</name></trkpt>
<trkpt lat="53.453622" lon="05.890693"><ele>10.1</ele><time>2021-02-18T12:43:47Z</time><name>PT6702</name></trkpt>
<trkpt lat="53.453621" lon="05.890710"><ele>10.2</ele><time>2021-02-18T12:43:48Z</time><name>PT6703</name></trkpt>
<trkpt lat="53.453622" lon="05.890729"><ele>10.2</ele><time>2021-02-18T12:43:50Z</time><name>PT6704</name></trkpt>
<trkpt lat="53.453624" lon="05.890745"><ele>10.2</ele><time>2021-02-18T12:43:50Z</time><name>PT6705</name></trkpt>
<trkpt lat="53.453628" lon="05.890756"><ele>10.2</ele><time>2021-02-18T12:43:51Z</time><name>PT6706</name></trkpt>
<trkpt lat="53.453629" lon="05.890767"><ele>10.2</ele><time>2021-02-18T12:43:53Z</time><name>PT6707</name></trkpt>
<trkpt lat="53.453631" lon="05.890780"><ele>10.2</ele><time>2021-02-18T12:43:53Z</time><name>PT6708</name></trkpt>
<trkpt lat="53.453632" lon="05.890795"><ele>10.1</ele><time>2021-02-18T12:43:54Z</time><name>PT6709</name></trkpt>
<trkpt lat="53.453634" lon="05.890811"><ele>9.9</ele><time>2021-02-18T12:43:56Z</time><name>PT6710</name></trkpt>
<trkpt lat="53.453635" lon="05.890824"><ele>9.8</ele><time>2021-02-18T12:43:56Z</time><name>PT6711</name></trkpt>
<trkpt lat="53.453633" lon="05.890840"><ele>9.7</ele><time>2021-02-18T12:43:57Z</time><name>PT6712</name></trkpt>
<trkpt lat="53.453631" lon="05.890863"><ele>9.7</ele><time>2021-02-18T12:43:59Z</time><name>PT6713</name></trkpt>
<trkpt lat="53.453629" lon="05.890880"><ele>9.9</ele><time>2021-02-18T12:43:59Z</time><name>PT6714</name></trkpt>
<trkpt lat="53.453629" lon="05.890897"><ele>9.8</ele><time>2021-02-18T12:44:00Z</time><name>PT6715</name></trkpt>
<trkpt lat="53.453629" lon="05.890913"><ele>9.7</ele><time>2021-02-18T12:44:02Z</time><name>PT6716</name></trkpt>
<trkpt lat="53.453630" lon="05.890928"><ele>9.7</ele><time>2021-02-18T12:44:02Z</time><name>PT6717</name></trkpt>
<trkpt lat="53.453629" lon="05.890944"><ele>9.7</ele><time>2021-02-18T12:44:03Z</time><name>PT6718</name></trkpt>
<trkpt lat="53.453628" lon="05.890961"><ele>9.6</ele><time>2021-02-18T12:44:05Z</time><name>PT6719</name></trkpt>
<trkpt lat="53.453630" lon="05.890978"><ele>9.5</ele><time>2021-02-18T12:44:05Z</time><name>PT6720</name></trkpt>
<trkpt lat="53.453631" lon="05.890995"><ele>9.4</ele><time>2021-02-18T12:44:06Z</time><name>PT6721</name></trkpt>
<trkpt lat="53.453637" lon="05.891011"><ele>9.5</ele><time>2021-02-18T12:44:08Z</time><name>PT6722</name></trkpt>
<trkpt lat="53.453638" lon="05.891027"><ele>9.4</ele><time>2021-02-18T12:44:08Z</time><name>PT6723</name></trkpt>
<trkpt lat="53.453639" lon="05.891042"><ele>9.6</ele><time>2021-02-18T12:44:09Z</time><name>PT6724</name></trkpt>
<trkpt lat="53.453638" lon="05.891056"><ele>9.6</ele><time>2021-02-18T12:44:11Z</time><name>PT6725</name></trkpt>
<trkpt lat="53.453639" lon="05.891071"><ele>9.6</ele><time>2021-02-18T12:44:11Z</time><name>PT6726</name></trkpt>
<trkpt lat="53.453640" lon="05.891088"><ele>9.5</ele><time>2021-02-18T12:44:12Z</time><name>PT6727</name></trkpt>
<trkpt lat="53.453640" lon="05.891110"><ele>9.4</ele><time>2021-02-18T12:44:14Z</time><name>PT6728</name></trkpt>
<trkpt lat="53.453641" lon="05.891132"><ele>9.3</ele><time>2021-02-18T12:44:14Z</time><name>PT6729</name></trkpt>
<trkpt lat="53.453644" lon="05.891148"><ele>9.5</ele><time>2021-02-18T12:44:15Z</time><name>PT6730</name></trkpt>
<trkpt lat="53.453645" lon="05.891157"><ele>9.7</ele><time>2021-02-18T12:44:17Z</time><name>PT6731</name></trkpt>
<trkpt lat="53.453643" lon="05.891172"><ele>9.7</ele><time>2021-02-18T12:44:17Z</time><name>PT6732</name></trkpt>
<trkpt lat="53.453644" lon="05.891188"><ele>9.7</ele><time>2021-02-18T12:44:18Z</time><name>PT6733</name></trkpt>
<trkpt lat="53.453647" lon="05.891204"><ele>9.7</ele><time>2021-02-18T12:44:20Z</time><name>PT6734</name></trkpt>
<trkpt lat="53.453647" lon="05.891214"><ele>9.8</ele><time>2021-02-18T12:44:20Z</time><name>PT6735</name></trkpt>
<trkpt lat="53.453648" lon="05.891221"><ele>9.7</ele><time>2021-02-18T12:44:21Z</time><name>PT6736</name></trkpt>
<trkpt lat="53.453651" lon="05.891226"><ele>9.9</ele><time>2021-02-18T12:44:23Z</time><name>PT6737</name></trkpt>
<trkpt lat="53.453653" lon="05.891233"><ele>10</ele><time>2021-02-18T12:44:23Z</time><name>PT6738</name></trkpt>
<trkpt lat="53.453653" lon="05.891241"><ele>10.1</ele><time>2021-02-18T12:44:24Z</time><name>PT6739</name></trkpt>
<trkpt lat="53.453653" lon="05.891254"><ele>9.8</ele><time>2021-02-18T12:44:26Z</time><name>PT6740</name></trkpt>
<trkpt lat="53.453655" lon="05.891269"><ele>9.8</ele><time>2021-02-18T12:44:26Z</time><name>PT6741</name></trkpt>
<trkpt lat="53.453657" lon="05.891280"><ele>9.7</ele><time>2021-02-18T12:44:27Z</time><name>PT6742</name></trkpt>
<trkpt lat="53.453658" lon="05.891282"><ele>9.8</ele><time>2021-02-18T12:44:29Z</time><name>PT6743</name></trkpt>
<trkpt lat="53.453658" lon="05.891282"><ele>9.9</ele><time>2021-02-18T12:44:29Z</time><name>PT6744</name></trkpt>
<trkpt lat="53.453657" lon="05.891283"><ele>10</ele><time>2021-02-18T12:44:30Z</time><name>PT6745</name></trkpt>
<trkpt lat="53.453657" lon="05.891280"><ele>9.9</ele><time>2021-02-18T12:44:38Z</time><name>PT6746</name></trkpt>
<trkpt lat="53.453656" lon="05.891299"><ele>10.1</ele><time>2021-02-18T12:44:39Z</time><name>PT6747</name></trkpt>
<trkpt lat="53.453653" lon="05.891318"><ele>10.1</ele><time>2021-02-18T12:44:41Z</time><name>PT6748</name></trkpt>
<trkpt lat="53.453654" lon="05.891335"><ele>10.2</ele><time>2021-02-18T12:44:41Z</time><name>PT6749</name></trkpt>
<trkpt lat="53.453655" lon="05.891351"><ele>10.2</ele><time>2021-02-18T12:44:42Z</time><name>PT6750</name></trkpt>
<trkpt lat="53.453657" lon="05.891370"><ele>10.7</ele><time>2021-02-18T12:44:44Z</time><name>PT6751</name></trkpt>
<trkpt lat="53.453660" lon="05.891386"><ele>10.5</ele><time>2021-02-18T12:44:44Z</time><name>PT6752</name></trkpt>
<trkpt lat="53.453661" lon="05.891401"><ele>10.6</ele><time>2021-02-18T12:44:45Z</time><name>PT6753</name></trkpt>
<trkpt lat="53.453661" lon="05.891421"><ele>10.6</ele><time>2021-02-18T12:44:47Z</time><name>PT6754</name></trkpt>
<trkpt lat="53.453659" lon="05.891439"><ele>10.6</ele><time>2021-02-18T12:44:47Z</time><name>PT6755</name></trkpt>
<trkpt lat="53.453660" lon="05.891457"><ele>10.2</ele><time>2021-02-18T12:44:48Z</time><name>PT6756</name></trkpt>
<trkpt lat="53.453660" lon="05.891476"><ele>10.1</ele><time>2021-02-18T12:44:50Z</time><name>PT6757</name></trkpt>
<trkpt lat="53.453661" lon="05.891492"><ele>10</ele><time>2021-02-18T12:44:50Z</time><name>PT6758</name></trkpt>
<trkpt lat="53.453663" lon="05.891507"><ele>9.9</ele><time>2021-02-18T12:44:51Z</time><name>PT6759</name></trkpt>
<trkpt lat="53.453665" lon="05.891521"><ele>9.9</ele><time>2021-02-18T12:44:53Z</time><name>PT6760</name></trkpt>
<trkpt lat="53.453667" lon="05.891536"><ele>10.1</ele><time>2021-02-18T12:44:53Z</time><name>PT6761</name></trkpt>
<trkpt lat="53.453670" lon="05.891547"><ele>10.4</ele><time>2021-02-18T12:44:54Z</time><name>PT6762</name></trkpt>
<trkpt lat="53.453673" lon="05.891568"><ele>10.3</ele><time>2021-02-18T12:44:56Z</time><name>PT6763</name></trkpt>
<trkpt lat="53.453685" lon="05.891596"><ele>10.1</ele><time>2021-02-18T12:44:56Z</time><name>PT6764</name></trkpt>
<trkpt lat="53.453681" lon="05.891616"><ele>9.8</ele><time>2021-02-18T12:44:57Z</time><name>PT6765</name></trkpt>
<trkpt lat="53.453681" lon="05.891632"><ele>9.7</ele><time>2021-02-18T12:44:59Z</time><name>PT6766</name></trkpt>
<trkpt lat="53.453680" lon="05.891645"><ele>9.6</ele><time>2021-02-18T12:44:59Z</time><name>PT6767</name></trkpt>
<trkpt lat="53.453682" lon="05.891658"><ele>9.5</ele><time>2021-02-18T12:45:00Z</time><name>PT6768</name></trkpt>
<trkpt lat="53.453684" lon="05.891675"><ele>9.9</ele><time>2021-02-18T12:45:02Z</time><name>PT6769</name></trkpt>
<trkpt lat="53.453686" lon="05.891689"><ele>9.9</ele><time>2021-02-18T12:45:02Z</time><name>PT6770</name></trkpt>
<trkpt lat="53.453685" lon="05.891708"><ele>10.1</ele><time>2021-02-18T12:45:03Z</time><name>PT6771</name></trkpt>
<trkpt lat="53.453683" lon="05.891726"><ele>10.2</ele><time>2021-02-18T12:45:05Z</time><name>PT6772</name></trkpt>
<trkpt lat="53.453681" lon="05.891743"><ele>10.1</ele><time>2021-02-18T12:45:05Z</time><name>PT6773</name></trkpt>
<trkpt lat="53.453683" lon="05.891757"><ele>9.6</ele><time>2021-02-18T12:45:06Z</time><name>PT6774</name></trkpt>
<trkpt lat="53.453685" lon="05.891769"><ele>9.5</ele><time>2021-02-18T12:45:08Z</time><name>PT6775</name></trkpt>
<trkpt lat="53.453687" lon="05.891779"><ele>9.5</ele><time>2021-02-18T12:45:08Z</time><name>PT6776</name></trkpt>
<trkpt lat="53.453689" lon="05.891784"><ele>9.3</ele><time>2021-02-18T12:45:09Z</time><name>PT6777</name></trkpt>
<trkpt lat="53.453693" lon="05.891789"><ele>9.5</ele><time>2021-02-18T12:45:11Z</time><name>PT6778</name></trkpt>
<trkpt lat="53.453696" lon="05.891796"><ele>9.7</ele><time>2021-02-18T12:45:11Z</time><name>PT6779</name></trkpt>
<trkpt lat="53.453697" lon="05.891803"><ele>9.7</ele><time>2021-02-18T12:45:12Z</time><name>PT6780</name></trkpt>
<trkpt lat="53.453700" lon="05.891808"><ele>11</ele><time>2021-02-18T12:45:20Z</time><name>PT6781</name></trkpt>
<trkpt lat="53.453705" lon="05.891819"><ele>11</ele><time>2021-02-18T12:45:21Z</time><name>PT6782</name></trkpt>
<trkpt lat="53.453708" lon="05.891829"><ele>10.7</ele><time>2021-02-18T12:45:23Z</time><name>PT6783</name></trkpt>
<trkpt lat="53.453712" lon="05.891835"><ele>10.6</ele><time>2021-02-18T12:45:23Z</time><name>PT6784</name></trkpt>
<trkpt lat="53.453714" lon="05.891839"><ele>10.2</ele><time>2021-02-18T12:45:24Z</time><name>PT6785</name></trkpt>
<trkpt lat="53.453715" lon="05.891843"><ele>10.1</ele><time>2021-02-18T12:45:26Z</time><name>PT6786</name></trkpt>
<trkpt lat="53.453714" lon="05.891844"><ele>9.9</ele><time>2021-02-18T12:45:26Z</time><name>PT6787</name></trkpt>
<trkpt lat="53.453714" lon="05.891845"><ele>9.9</ele><time>2021-02-18T12:45:27Z</time><name>PT6788</name></trkpt>
<trkpt lat="53.453717" lon="05.891848"><ele>10.4</ele><time>2021-02-18T12:46:06Z</time><name>PT6789</name></trkpt>
<trkpt lat="53.453725" lon="05.891864"><ele>10.6</ele><time>2021-02-18T12:46:08Z</time><name>PT6790</name></trkpt>
<trkpt lat="53.453730" lon="05.891877"><ele>10.6</ele><time>2021-02-18T12:46:08Z</time><name>PT6791</name></trkpt>
<trkpt lat="53.453733" lon="05.891885"><ele>10.8</ele><time>2021-02-18T12:46:09Z</time><name>PT6792</name></trkpt>
<trkpt lat="53.453736" lon="05.891889"><ele>11.1</ele><time>2021-02-18T12:46:11Z</time><name>PT6793</name></trkpt>
<trkpt lat="53.453737" lon="05.891892"><ele>11.2</ele><time>2021-02-18T12:46:11Z</time><name>PT6794</name></trkpt>
<trkpt lat="53.453740" lon="05.891902"><ele>11.4</ele><time>2021-02-18T12:46:14Z</time><name>PT6795</name></trkpt>
<trkpt lat="53.453747" lon="05.891918"><ele>11.3</ele><time>2021-02-18T12:46:15Z</time><name>PT6796</name></trkpt>
<trkpt lat="53.453752" lon="05.891925"><ele>11.2</ele><time>2021-02-18T12:46:17Z</time><name>PT6797</name></trkpt>
<trkpt lat="53.453754" lon="05.891928"><ele>11.2</ele><time>2021-02-18T12:46:17Z</time><name>PT6798</name></trkpt>
<trkpt lat="53.453756" lon="05.891929"><ele>11.4</ele><time>2021-02-18T12:46:18Z</time><name>PT6799</name></trkpt>
<trkpt lat="53.453754" lon="05.891927"><ele>10.9</ele><time>2021-02-18T12:46:26Z</time><name>PT6800</name></trkpt>
<trkpt lat="53.453757" lon="05.891930"><ele>11</ele><time>2021-02-18T12:46:27Z</time><name>PT6801</name></trkpt>
<trkpt lat="53.453756" lon="05.891931"><ele>11.3</ele><time>2021-02-18T12:46:29Z</time><name>PT6802</name></trkpt>
<trkpt lat="53.453756" lon="05.891930"><ele>10.8</ele><time>2021-02-18T12:46:32Z</time><name>PT6803</name></trkpt>
<trkpt lat="53.453757" lon="05.891929"><ele>10.4</ele><time>2021-02-18T12:46:33Z</time><name>PT6804</name></trkpt>
<trkpt lat="53.453758" lon="05.891931"><ele>11</ele><time>2021-02-18T12:46:44Z</time><name>PT6805</name></trkpt>
<trkpt lat="53.453759" lon="05.891932"><ele>10.9</ele><time>2021-02-18T12:46:44Z</time><name>PT6806</name></trkpt>
<trkpt lat="53.453763" lon="05.891936"><ele>10.2</ele><time>2021-02-18T12:46:50Z</time><name>PT6807</name></trkpt>
<trkpt lat="53.453770" lon="05.891949"><ele>10.3</ele><time>2021-02-18T12:46:51Z</time><name>PT6808</name></trkpt>
<trkpt lat="53.453776" lon="05.891959"><ele>10.3</ele><time>2021-02-18T12:46:53Z</time><name>PT6809</name></trkpt>
<trkpt lat="53.453780" lon="05.891970"><ele>10.5</ele><time>2021-02-18T12:46:53Z</time><name>PT6810</name></trkpt>
<trkpt lat="53.453783" lon="05.891981"><ele>10.9</ele><time>2021-02-18T12:46:54Z</time><name>PT6811</name></trkpt>
<trkpt lat="53.453787" lon="05.891990"><ele>11.1</ele><time>2021-02-18T12:46:56Z</time><name>PT6812</name></trkpt>
<trkpt lat="53.453792" lon="05.891999"><ele>11.5</ele><time>2021-02-18T12:46:56Z</time><name>PT6813</name></trkpt>
<trkpt lat="53.453795" lon="05.892008"><ele>11.6</ele><time>2021-02-18T12:46:57Z</time><name>PT6814</name></trkpt>
<trkpt lat="53.453797" lon="05.892020"><ele>11.6</ele><time>2021-02-18T12:46:59Z</time><name>PT6815</name></trkpt>
<trkpt lat="53.453799" lon="05.892034"><ele>11.5</ele><time>2021-02-18T12:46:59Z</time><name>PT6816</name></trkpt>
<trkpt lat="53.453801" lon="05.892049"><ele>11.3</ele><time>2021-02-18T12:47:00Z</time><name>PT6817</name></trkpt>
<trkpt lat="53.453805" lon="05.892062"><ele>11</ele><time>2021-02-18T12:47:02Z</time><name>PT6818</name></trkpt>
<trkpt lat="53.453810" lon="05.892073"><ele>10.8</ele><time>2021-02-18T12:47:02Z</time><name>PT6819</name></trkpt>
<trkpt lat="53.453815" lon="05.892083"><ele>10.9</ele><time>2021-02-18T12:47:03Z</time><name>PT6820</name></trkpt>
<trkpt lat="53.453818" lon="05.892091"><ele>11.1</ele><time>2021-02-18T12:47:05Z</time><name>PT6821</name></trkpt>
<trkpt lat="53.453818" lon="05.892096"><ele>11.2</ele><time>2021-02-18T12:47:05Z</time><name>PT6822</name></trkpt>
<trkpt lat="53.453819" lon="05.892098"><ele>11.3</ele><time>2021-02-18T12:47:06Z</time><name>PT6823</name></trkpt>
<trkpt lat="53.453822" lon="05.892106"><ele>11.3</ele><time>2021-02-18T12:47:08Z</time><name>PT6824</name></trkpt>
<trkpt lat="53.453826" lon="05.892118"><ele>11.3</ele><time>2021-02-18T12:47:08Z</time><name>PT6825</name></trkpt>
<trkpt lat="53.453828" lon="05.892131"><ele>11.3</ele><time>2021-02-18T12:47:09Z</time><name>PT6826</name></trkpt>
<trkpt lat="53.453830" lon="05.892141"><ele>11.7</ele><time>2021-02-18T12:47:11Z</time><name>PT6827</name></trkpt>
<trkpt lat="53.453834" lon="05.892149"><ele>11.9</ele><time>2021-02-18T12:47:11Z</time><name>PT6828</name></trkpt>
<trkpt lat="53.453837" lon="05.892156"><ele>12</ele><time>2021-02-18T12:47:12Z</time><name>PT6829</name></trkpt>
<trkpt lat="53.453842" lon="05.892165"><ele>12.2</ele><time>2021-02-18T12:47:14Z</time><name>PT6830</name></trkpt>
<trkpt lat="53.453849" lon="05.892176"><ele>12.2</ele><time>2021-02-18T12:47:14Z</time><name>PT6831</name></trkpt>
<trkpt lat="53.453855" lon="05.892188"><ele>12.1</ele><time>2021-02-18T12:47:15Z</time><name>PT6832</name></trkpt>
<trkpt lat="53.453859" lon="05.892199"><ele>12.1</ele><time>2021-02-18T12:47:17Z</time><name>PT6833</name></trkpt>
<trkpt lat="53.453862" lon="05.892212"><ele>12.2</ele><time>2021-02-18T12:47:17Z</time><name>PT6834</name></trkpt>
<trkpt lat="53.453865" lon="05.892224"><ele>12.3</ele><time>2021-02-18T12:47:18Z</time><name>PT6835</name></trkpt>
<trkpt lat="53.453869" lon="05.892235"><ele>12.3</ele><time>2021-02-18T12:47:20Z</time><name>PT6836</name></trkpt>
<trkpt lat="53.453873" lon="05.892241"><ele>12.2</ele><time>2021-02-18T12:47:20Z</time><name>PT6837</name></trkpt>
<trkpt lat="53.453876" lon="05.892249"><ele>12.3</ele><time>2021-02-18T12:47:21Z</time><name>PT6838</name></trkpt>
<trkpt lat="53.453881" lon="05.892263"><ele>12.4</ele><time>2021-02-18T12:47:23Z</time><name>PT6839</name></trkpt>
<trkpt lat="53.453888" lon="05.892279"><ele>12.2</ele><time>2021-02-18T12:47:23Z</time><name>PT6840</name></trkpt>
<trkpt lat="53.453896" lon="05.892290"><ele>12.2</ele><time>2021-02-18T12:47:24Z</time><name>PT6841</name></trkpt>
<trkpt lat="53.453899" lon="05.892296"><ele>12.1</ele><time>2021-02-18T12:47:26Z</time><name>PT6842</name></trkpt>
<trkpt lat="53.453903" lon="05.892307"><ele>12</ele><time>2021-02-18T12:47:26Z</time><name>PT6843</name></trkpt>
<trkpt lat="53.453910" lon="05.892321"><ele>12</ele><time>2021-02-18T12:47:27Z</time><name>PT6844</name></trkpt>
<trkpt lat="53.453915" lon="05.892336"><ele>11.9</ele><time>2021-02-18T12:47:29Z</time><name>PT6845</name></trkpt>
<trkpt lat="53.453920" lon="05.892349"><ele>11.8</ele><time>2021-02-18T12:47:29Z</time><name>PT6846</name></trkpt>
<trkpt lat="53.453926" lon="05.892361"><ele>11.8</ele><time>2021-02-18T12:47:30Z</time><name>PT6847</name></trkpt>
<trkpt lat="53.453931" lon="05.892370"><ele>11.7</ele><time>2021-02-18T12:47:32Z</time><name>PT6848</name></trkpt>
<trkpt lat="53.453936" lon="05.892378"><ele>11.7</ele><time>2021-02-18T12:47:32Z</time><name>PT6849</name></trkpt>
<trkpt lat="53.453941" lon="05.892388"><ele>11.6</ele><time>2021-02-18T12:47:33Z</time><name>PT6850</name></trkpt>
<trkpt lat="53.453946" lon="05.892398"><ele>11.5</ele><time>2021-02-18T12:47:35Z</time><name>PT6851</name></trkpt>
<trkpt lat="53.453951" lon="05.892412"><ele>11.5</ele><time>2021-02-18T12:47:35Z</time><name>PT6852</name></trkpt>
<trkpt lat="53.453958" lon="05.892429"><ele>11.7</ele><time>2021-02-18T12:47:36Z</time><name>PT6853</name></trkpt>
<trkpt lat="53.453968" lon="05.892448"><ele>11.7</ele><time>2021-02-18T12:47:38Z</time><name>PT6854</name></trkpt>
<trkpt lat="53.453975" lon="05.892461"><ele>11.8</ele><time>2021-02-18T12:47:38Z</time><name>PT6855</name></trkpt>
<trkpt lat="53.453980" lon="05.892468"><ele>11.8</ele><time>2021-02-18T12:47:39Z</time><name>PT6856</name></trkpt>
<trkpt lat="53.453984" lon="05.892476"><ele>11.8</ele><time>2021-02-18T12:47:41Z</time><name>PT6857</name></trkpt>
<trkpt lat="53.453993" lon="05.892488"><ele>11.7</ele><time>2021-02-18T12:47:41Z</time><name>PT6858</name></trkpt>
<trkpt lat="53.454002" lon="05.892501"><ele>11.5</ele><time>2021-02-18T12:47:42Z</time><name>PT6859</name></trkpt>
<trkpt lat="53.454012" lon="05.892518"><ele>11.2</ele><time>2021-02-18T12:47:44Z</time><name>PT6860</name></trkpt>
<trkpt lat="53.454017" lon="05.892531"><ele>11.2</ele><time>2021-02-18T12:47:44Z</time><name>PT6861</name></trkpt>
<trkpt lat="53.454022" lon="05.892536"><ele>11.1</ele><time>2021-02-18T12:47:45Z</time><name>PT6862</name></trkpt>
<trkpt lat="53.454030" lon="05.892549"><ele>11.1</ele><time>2021-02-18T12:47:47Z</time><name>PT6863</name></trkpt>
<trkpt lat="53.454038" lon="05.892563"><ele>11.1</ele><time>2021-02-18T12:47:47Z</time><name>PT6864</name></trkpt>
<trkpt lat="53.454045" lon="05.892578"><ele>11.1</ele><time>2021-02-18T12:47:48Z</time><name>PT6865</name></trkpt>
<trkpt lat="53.454047" lon="05.892596"><ele>11.2</ele><time>2021-02-18T12:47:50Z</time><name>PT6866</name></trkpt>
<trkpt lat="53.454053" lon="05.892617"><ele>11.2</ele><time>2021-02-18T12:47:50Z</time><name>PT6867</name></trkpt>
<trkpt lat="53.454061" lon="05.892635"><ele>11.4</ele><time>2021-02-18T12:47:51Z</time><name>PT6868</name></trkpt>
<trkpt lat="53.454068" lon="05.892653"><ele>11.4</ele><time>2021-02-18T12:47:53Z</time><name>PT6869</name></trkpt>
<trkpt lat="53.454076" lon="05.892667"><ele>11.5</ele><time>2021-02-18T12:47:53Z</time><name>PT6870</name></trkpt>
<trkpt lat="53.454081" lon="05.892680"><ele>11.5</ele><time>2021-02-18T12:47:54Z</time><name>PT6871</name></trkpt>
<trkpt lat="53.454084" lon="05.892693"><ele>11.3</ele><time>2021-02-18T12:47:56Z</time><name>PT6872</name></trkpt>
<trkpt lat="53.454087" lon="05.892705"><ele>11.2</ele><time>2021-02-18T12:47:56Z</time><name>PT6873</name></trkpt>
<trkpt lat="53.454089" lon="05.892717"><ele>11.1</ele><time>2021-02-18T12:47:57Z</time><name>PT6874</name></trkpt>
<trkpt lat="53.454089" lon="05.892730"><ele>10.9</ele><time>2021-02-18T12:47:59Z</time><name>PT6875</name></trkpt>
<trkpt lat="53.454090" lon="05.892745"><ele>10.7</ele><time>2021-02-18T12:47:59Z</time><name>PT6876</name></trkpt>
<trkpt lat="53.454091" lon="05.892761"><ele>10.7</ele><time>2021-02-18T12:48:00Z</time><name>PT6877</name></trkpt>
<trkpt lat="53.454095" lon="05.892780"><ele>10.7</ele><time>2021-02-18T12:48:02Z</time><name>PT6878</name></trkpt>
<trkpt lat="53.454098" lon="05.892800"><ele>10.5</ele><time>2021-02-18T12:48:02Z</time><name>PT6879</name></trkpt>
<trkpt lat="53.454100" lon="05.892821"><ele>10.4</ele><time>2021-02-18T12:48:03Z</time><name>PT6880</name></trkpt>
<trkpt lat="53.454105" lon="05.892842"><ele>10.5</ele><time>2021-02-18T12:48:05Z</time><name>PT6881</name></trkpt>
<trkpt lat="53.454107" lon="05.892858"><ele>10.6</ele><time>2021-02-18T12:48:05Z</time><name>PT6882</name></trkpt>
<trkpt lat="53.454110" lon="05.892874"><ele>10.7</ele><time>2021-02-18T12:48:06Z</time><name>PT6883</name></trkpt>
<trkpt lat="53.454114" lon="05.892889"><ele>10.9</ele><time>2021-02-18T12:48:08Z</time><name>PT6884</name></trkpt>
<trkpt lat="53.454120" lon="05.892906"><ele>10.9</ele><time>2021-02-18T12:48:08Z</time><name>PT6885</name></trkpt>
<trkpt lat="53.454124" lon="05.892923"><ele>10.9</ele><time>2021-02-18T12:48:09Z</time><name>PT6886</name></trkpt>
<trkpt lat="53.454127" lon="05.892938"><ele>10.7</ele><time>2021-02-18T12:48:11Z</time><name>PT6887</name></trkpt>
<trkpt lat="53.454130" lon="05.892952"><ele>10.4</ele><time>2021-02-18T12:48:11Z</time><name>PT6888</name></trkpt>
<trkpt lat="53.454130" lon="05.892968"><ele>10.4</ele><time>2021-02-18T12:48:12Z</time><name>PT6889</name></trkpt>
<trkpt lat="53.454132" lon="05.892983"><ele>10.4</ele><time>2021-02-18T12:48:14Z</time><name>PT6890</name></trkpt>
<trkpt lat="53.454133" lon="05.892999"><ele>10.5</ele><time>2021-02-18T12:48:14Z</time><name>PT6891</name></trkpt>
<trkpt lat="53.454134" lon="05.893024"><ele>10.7</ele><time>2021-02-18T12:48:15Z</time><name>PT6892</name></trkpt>
<trkpt lat="53.454138" lon="05.893048"><ele>11.2</ele><time>2021-02-18T12:48:17Z</time><name>PT6893</name></trkpt>
<trkpt lat="53.454139" lon="05.893070"><ele>11.5</ele><time>2021-02-18T12:48:17Z</time><name>PT6894</name></trkpt>
<trkpt lat="53.454140" lon="05.893089"><ele>11.6</ele><time>2021-02-18T12:48:18Z</time><name>PT6895</name></trkpt>
<trkpt lat="53.454142" lon="05.893103"><ele>11.5</ele><time>2021-02-18T12:48:20Z</time><name>PT6896</name></trkpt>
<trkpt lat="53.454146" lon="05.893115"><ele>11.4</ele><time>2021-02-18T12:48:20Z</time><name>PT6897</name></trkpt>
<trkpt lat="53.454150" lon="05.893125"><ele>11.2</ele><time>2021-02-18T12:48:21Z</time><name>PT6898</name></trkpt>
<trkpt lat="53.454154" lon="05.893133"><ele>11.1</ele><time>2021-02-18T12:48:23Z</time><name>PT6899</name></trkpt>
<trkpt lat="53.454157" lon="05.893145"><ele>11.2</ele><time>2021-02-18T12:48:23Z</time><name>PT6900</name></trkpt>
<trkpt lat="53.454160" lon="05.893157"><ele>11.3</ele><time>2021-02-18T12:48:24Z</time><name>PT6901</name></trkpt>
<trkpt lat="53.454161" lon="05.893173"><ele>11.5</ele><time>2021-02-18T12:48:26Z</time><name>PT6902</name></trkpt>
<trkpt lat="53.454160" lon="05.893190"><ele>11.3</ele><time>2021-02-18T12:48:26Z</time><name>PT6903</name></trkpt>
<trkpt lat="53.454158" lon="05.893209"><ele>11.2</ele><time>2021-02-18T12:48:27Z</time><name>PT6904</name></trkpt>
<trkpt lat="53.454160" lon="05.893226"><ele>11</ele><time>2021-02-18T12:48:29Z</time><name>PT6905</name></trkpt>
<trkpt lat="53.454164" lon="05.893255"><ele>11</ele><time>2021-02-18T12:48:29Z</time><name>PT6906</name></trkpt>
<trkpt lat="53.454167" lon="05.893282"><ele>11.2</ele><time>2021-02-18T12:48:30Z</time><name>PT6907</name></trkpt>
<trkpt lat="53.454170" lon="05.893302"><ele>11.4</ele><time>2021-02-18T12:48:32Z</time><name>PT6908</name></trkpt>
<trkpt lat="53.454174" lon="05.893319"><ele>11.6</ele><time>2021-02-18T12:48:32Z</time><name>PT6909</name></trkpt>
<trkpt lat="53.454178" lon="05.893334"><ele>11.6</ele><time>2021-02-18T12:48:33Z</time><name>PT6910</name></trkpt>
<trkpt lat="53.454182" lon="05.893347"><ele>11.4</ele><time>2021-02-18T12:48:35Z</time><name>PT6911</name></trkpt>
<trkpt lat="53.454184" lon="05.893359"><ele>11.2</ele><time>2021-02-18T12:48:35Z</time><name>PT6912</name></trkpt>
<trkpt lat="53.454188" lon="05.893371"><ele>11.2</ele><time>2021-02-18T12:48:36Z</time><name>PT6913</name></trkpt>
<trkpt lat="53.454190" lon="05.893383"><ele>11</ele><time>2021-02-18T12:48:38Z</time><name>PT6914</name></trkpt>
<trkpt lat="53.454190" lon="05.893403"><ele>11</ele><time>2021-02-18T12:48:38Z</time><name>PT6915</name></trkpt>
<trkpt lat="53.454188" lon="05.893424"><ele>11</ele><time>2021-02-18T12:48:39Z</time><name>PT6916</name></trkpt>
<trkpt lat="53.454189" lon="05.893453"><ele>11</ele><time>2021-02-18T12:48:41Z</time><name>PT6917</name></trkpt>
<trkpt lat="53.454192" lon="05.893467"><ele>10.8</ele><time>2021-02-18T12:48:41Z</time><name>PT6918</name></trkpt>
<trkpt lat="53.454191" lon="05.893483"><ele>10.8</ele><time>2021-02-18T12:48:42Z</time><name>PT6919</name></trkpt>
<trkpt lat="53.454193" lon="05.893499"><ele>11.1</ele><time>2021-02-18T12:48:44Z</time><name>PT6920</name></trkpt>
<trkpt lat="53.454196" lon="05.893516"><ele>11.2</ele><time>2021-02-18T12:48:44Z</time><name>PT6921</name></trkpt>
<trkpt lat="53.454202" lon="05.893530"><ele>11.2</ele><time>2021-02-18T12:48:45Z</time><name>PT6922</name></trkpt>
<trkpt lat="53.454207" lon="05.893543"><ele>11.4</ele><time>2021-02-18T12:48:47Z</time><name>PT6923</name></trkpt>
<trkpt lat="53.454212" lon="05.893553"><ele>11.7</ele><time>2021-02-18T12:48:47Z</time><name>PT6924</name></trkpt>
<trkpt lat="53.454215" lon="05.893561"><ele>11.5</ele><time>2021-02-18T12:48:48Z</time><name>PT6925</name></trkpt>
<trkpt lat="53.454216" lon="05.893574"><ele>11.2</ele><time>2021-02-18T12:48:50Z</time><name>PT6926</name></trkpt>
<trkpt lat="53.454216" lon="05.893596"><ele>11.1</ele><time>2021-02-18T12:48:50Z</time><name>PT6927</name></trkpt>
<trkpt lat="53.454215" lon="05.893617"><ele>11.1</ele><time>2021-02-18T12:48:51Z</time><name>PT6928</name></trkpt>
<trkpt lat="53.454217" lon="05.893638"><ele>10.9</ele><time>2021-02-18T12:48:53Z</time><name>PT6929</name></trkpt>
<trkpt lat="53.454220" lon="05.893666"><ele>10.9</ele><time>2021-02-18T12:48:53Z</time><name>PT6930</name></trkpt>
<trkpt lat="53.454224" lon="05.893690"><ele>10.9</ele><time>2021-02-18T12:48:54Z</time><name>PT6931</name></trkpt>
<trkpt lat="53.454232" lon="05.893699"><ele>10.9</ele><time>2021-02-18T12:48:56Z</time><name>PT6932</name></trkpt>
<trkpt lat="53.454236" lon="05.893711"><ele>10.8</ele><time>2021-02-18T12:48:56Z</time><name>PT6933</name></trkpt>
<trkpt lat="53.454241" lon="05.893722"><ele>10.7</ele><time>2021-02-18T12:48:57Z</time><name>PT6934</name></trkpt>
<trkpt lat="53.454243" lon="05.893739"><ele>10.7</ele><time>2021-02-18T12:48:59Z</time><name>PT6935</name></trkpt>
<trkpt lat="53.454247" lon="05.893757"><ele>10.8</ele><time>2021-02-18T12:48:59Z</time><name>PT6936</name></trkpt>
<trkpt lat="53.454252" lon="05.893776"><ele>11</ele><time>2021-02-18T12:49:00Z</time><name>PT6937</name></trkpt>
<trkpt lat="53.454261" lon="05.893795"><ele>11.1</ele><time>2021-02-18T12:49:02Z</time><name>PT6938</name></trkpt>
<trkpt lat="53.454270" lon="05.893811"><ele>11.2</ele><time>2021-02-18T12:49:02Z</time><name>PT6939</name></trkpt>
<trkpt lat="53.454277" lon="05.893823"><ele>11.2</ele><time>2021-02-18T12:49:03Z</time><name>PT6940</name></trkpt>
<trkpt lat="53.454285" lon="05.893830"><ele>11.3</ele><time>2021-02-18T12:49:05Z</time><name>PT6941</name></trkpt>
<trkpt lat="53.454288" lon="05.893836"><ele>11.2</ele><time>2021-02-18T12:49:05Z</time><name>PT6942</name></trkpt>
<trkpt lat="53.454291" lon="05.893849"><ele>11.3</ele><time>2021-02-18T12:49:06Z</time><name>PT6943</name></trkpt>
<trkpt lat="53.454297" lon="05.893864"><ele>11.5</ele><time>2021-02-18T12:49:08Z</time><name>PT6944</name></trkpt>
<trkpt lat="53.454301" lon="05.893885"><ele>11.6</ele><time>2021-02-18T12:49:08Z</time><name>PT6945</name></trkpt>
<trkpt lat="53.454306" lon="05.893908"><ele>11.7</ele><time>2021-02-18T12:49:09Z</time><name>PT6946</name></trkpt>
<trkpt lat="53.454312" lon="05.893930"><ele>11.7</ele><time>2021-02-18T12:49:11Z</time><name>PT6947</name></trkpt>
<trkpt lat="53.454319" lon="05.893951"><ele>11.4</ele><time>2021-02-18T12:49:11Z</time><name>PT6948</name></trkpt>
<trkpt lat="53.454330" lon="05.893966"><ele>11.2</ele><time>2021-02-18T12:49:12Z</time><name>PT6949</name></trkpt>
<trkpt lat="53.454337" lon="05.893978"><ele>11.1</ele><time>2021-02-18T12:49:14Z</time><name>PT6950</name></trkpt>
<trkpt lat="53.454343" lon="05.893989"><ele>11</ele><time>2021-02-18T12:49:14Z</time><name>PT6951</name></trkpt>
<trkpt lat="53.454346" lon="05.894001"><ele>11</ele><time>2021-02-18T12:49:15Z</time><name>PT6952</name></trkpt>
<trkpt lat="53.454348" lon="05.894014"><ele>11</ele><time>2021-02-18T12:49:17Z</time><name>PT6953</name></trkpt>
<trkpt lat="53.454349" lon="05.894030"><ele>11</ele><time>2021-02-18T12:49:17Z</time><name>PT6954</name></trkpt>
<trkpt lat="53.454350" lon="05.894048"><ele>11.2</ele><time>2021-02-18T12:49:19Z</time><name>PT6955</name></trkpt>
<trkpt lat="53.454353" lon="05.894069"><ele>11.2</ele><time>2021-02-18T12:49:20Z</time><name>PT6956</name></trkpt>
<trkpt lat="53.454356" lon="05.894087"><ele>11.3</ele><time>2021-02-18T12:49:20Z</time><name>PT6957</name></trkpt>
<trkpt lat="53.454361" lon="05.894102"><ele>11.3</ele><time>2021-02-18T12:49:21Z</time><name>PT6958</name></trkpt>
<trkpt lat="53.454364" lon="05.894116"><ele>11.3</ele><time>2021-02-18T12:49:23Z</time><name>PT6959</name></trkpt>
<trkpt lat="53.454367" lon="05.894129"><ele>11.1</ele><time>2021-02-18T12:49:23Z</time><name>PT6960</name></trkpt>
<trkpt lat="53.454371" lon="05.894141"><ele>11</ele><time>2021-02-18T12:49:24Z</time><name>PT6961</name></trkpt>
<trkpt lat="53.454375" lon="05.894155"><ele>11</ele><time>2021-02-18T12:49:26Z</time><name>PT6962</name></trkpt>
<trkpt lat="53.454377" lon="05.894173"><ele>10.8</ele><time>2021-02-18T12:49:26Z</time><name>PT6963</name></trkpt>
<trkpt lat="53.454381" lon="05.894194"><ele>11.1</ele><time>2021-02-18T12:49:27Z</time><name>PT6964</name></trkpt>
<trkpt lat="53.454386" lon="05.894216"><ele>11.2</ele><time>2021-02-18T12:49:29Z</time><name>PT6965</name></trkpt>
<trkpt lat="53.454392" lon="05.894237"><ele>11.3</ele><time>2021-02-18T12:49:29Z</time><name>PT6966</name></trkpt>
<trkpt lat="53.454399" lon="05.894253"><ele>11.4</ele><time>2021-02-18T12:49:30Z</time><name>PT6967</name></trkpt>
<trkpt lat="53.454408" lon="05.894264"><ele>11.4</ele><time>2021-02-18T12:49:32Z</time><name>PT6968</name></trkpt>
<trkpt lat="53.454413" lon="05.894273"><ele>11.1</ele><time>2021-02-18T12:49:32Z</time><name>PT6969</name></trkpt>
<trkpt lat="53.454416" lon="05.894286"><ele>11.1</ele><time>2021-02-18T12:49:34Z</time><name>PT6970</name></trkpt>
<trkpt lat="53.454416" lon="05.894300"><ele>11</ele><time>2021-02-18T12:49:35Z</time><name>PT6971</name></trkpt>
<trkpt lat="53.454417" lon="05.894322"><ele>11</ele><time>2021-02-18T12:49:35Z</time><name>PT6972</name></trkpt>
<trkpt lat="53.454421" lon="05.894345"><ele>10.8</ele><time>2021-02-18T12:49:36Z</time><name>PT6973</name></trkpt>
<trkpt lat="53.454428" lon="05.894364"><ele>10.7</ele><time>2021-02-18T12:49:38Z</time><name>PT6974</name></trkpt>
<trkpt lat="53.454434" lon="05.894382"><ele>10.7</ele><time>2021-02-18T12:49:38Z</time><name>PT6975</name></trkpt>
<trkpt lat="53.454440" lon="05.894399"><ele>10.7</ele><time>2021-02-18T12:49:39Z</time><name>PT6976</name></trkpt>
<trkpt lat="53.454444" lon="05.894413"><ele>10.8</ele><time>2021-02-18T12:49:41Z</time><name>PT6977</name></trkpt>
<trkpt lat="53.454447" lon="05.894425"><ele>11</ele><time>2021-02-18T12:49:41Z</time><name>PT6978</name></trkpt>
<trkpt lat="53.454449" lon="05.894438"><ele>11.2</ele><time>2021-02-18T12:49:42Z</time><name>PT6979</name></trkpt>
<trkpt lat="53.454453" lon="05.894451"><ele>11.1</ele><time>2021-02-18T12:49:44Z</time><name>PT6980</name></trkpt>
<trkpt lat="53.454455" lon="05.894465"><ele>11</ele><time>2021-02-18T12:49:44Z</time><name>PT6981</name></trkpt>
<trkpt lat="53.454456" lon="05.894481"><ele>11</ele><time>2021-02-18T12:49:45Z</time><name>PT6982</name></trkpt>
<trkpt lat="53.454455" lon="05.894502"><ele>11.1</ele><time>2021-02-18T12:49:47Z</time><name>PT6983</name></trkpt>
<trkpt lat="53.454453" lon="05.894522"><ele>11</ele><time>2021-02-18T12:49:47Z</time><name>PT6984</name></trkpt>
<trkpt lat="53.454454" lon="05.894539"><ele>11.2</ele><time>2021-02-18T12:49:48Z</time><name>PT6985</name></trkpt>
<trkpt lat="53.454456" lon="05.894552"><ele>11.4</ele><time>2021-02-18T12:49:50Z</time><name>PT6986</name></trkpt>
<trkpt lat="53.454460" lon="05.894566"><ele>11.2</ele><time>2021-02-18T12:49:50Z</time><name>PT6987</name></trkpt>
<trkpt lat="53.454462" lon="05.894580"><ele>11.2</ele><time>2021-02-18T12:49:51Z</time><name>PT6988</name></trkpt>
<trkpt lat="53.454463" lon="05.894597"><ele>11.2</ele><time>2021-02-18T12:49:53Z</time><name>PT6989</name></trkpt>
<trkpt lat="53.454466" lon="05.894615"><ele>11.1</ele><time>2021-02-18T12:49:53Z</time><name>PT6990</name></trkpt>
<trkpt lat="53.454470" lon="05.894635"><ele>11.2</ele><time>2021-02-18T12:49:54Z</time><name>PT6991</name></trkpt>
<trkpt lat="53.454472" lon="05.894645"><ele>11</ele><time>2021-02-18T12:49:56Z</time><name>PT6992</name></trkpt>
<trkpt lat="53.454473" lon="05.894652"><ele>11</ele><time>2021-02-18T12:49:56Z</time><name>PT6993</name></trkpt>
<trkpt lat="53.454476" lon="05.894668"><ele>11.1</ele><time>2021-02-18T12:49:57Z</time><name>PT6994</name></trkpt>
<trkpt lat="53.454479" lon="05.894684"><ele>11</ele><time>2021-02-18T12:49:59Z</time><name>PT6995</name></trkpt>
<trkpt lat="53.454482" lon="05.894701"><ele>11</ele><time>2021-02-18T12:49:59Z</time><name>PT6996</name></trkpt>
<trkpt lat="53.454484" lon="05.894718"><ele>10.9</ele><time>2021-02-18T12:50:00Z</time><name>PT6997</name></trkpt>
<trkpt lat="53.454484" lon="05.894734"><ele>10.8</ele><time>2021-02-18T12:50:02Z</time><name>PT6998</name></trkpt>
<trkpt lat="53.454485" lon="05.894751"><ele>10.7</ele><time>2021-02-18T12:50:02Z</time><name>PT6999</name></trkpt>
<trkpt lat="53.454486" lon="05.894769"><ele>10.7</ele><time>2021-02-18T12:50:03Z</time><name>PT7000</name></trkpt>
<trkpt lat="53.454489" lon="05.894788"><ele>10.8</ele><time>2021-02-18T12:50:05Z</time><name>PT7001</name></trkpt>
<trkpt lat="53.454491" lon="05.894810"><ele>11</ele><time>2021-02-18T12:50:05Z</time><name>PT7002</name></trkpt>
<trkpt lat="53.454492" lon="05.894829"><ele>11.3</ele><time>2021-02-18T12:50:06Z</time><name>PT7003</name></trkpt>
<trkpt lat="53.454494" lon="05.894847"><ele>11.3</ele><time>2021-02-18T12:50:08Z</time><name>PT7004</name></trkpt>
<trkpt lat="53.454498" lon="05.894861"><ele>11.4</ele><time>2021-02-18T12:50:08Z</time><name>PT7005</name></trkpt>
<trkpt lat="53.454501" lon="05.894874"><ele>11.5</ele><time>2021-02-18T12:50:09Z</time><name>PT7006</name></trkpt>
<trkpt lat="53.454504" lon="05.894890"><ele>11.3</ele><time>2021-02-18T12:50:11Z</time><name>PT7007</name></trkpt>
<trkpt lat="53.454505" lon="05.894906"><ele>11.2</ele><time>2021-02-18T12:50:11Z</time><name>PT7008</name></trkpt>
<trkpt lat="53.454508" lon="05.894925"><ele>11.5</ele><time>2021-02-18T12:50:12Z</time><name>PT7009</name></trkpt>
<trkpt lat="53.454510" lon="05.894941"><ele>11.3</ele><time>2021-02-18T12:50:14Z</time><name>PT7010</name></trkpt>
<trkpt lat="53.454510" lon="05.894958"><ele>11.2</ele><time>2021-02-18T12:50:14Z</time><name>PT7011</name></trkpt>
<trkpt lat="53.454509" lon="05.894984"><ele>11.4</ele><time>2021-02-18T12:50:15Z</time><name>PT7012</name></trkpt>
<trkpt lat="53.454505" lon="05.895005"><ele>11.3</ele><time>2021-02-18T12:50:17Z</time><name>PT7013</name></trkpt>
<trkpt lat="53.454505" lon="05.895026"><ele>11.2</ele><time>2021-02-18T12:50:17Z</time><name>PT7014</name></trkpt>
<trkpt lat="53.454506" lon="05.895046"><ele>11.2</ele><time>2021-02-18T12:50:18Z</time><name>PT7015</name></trkpt>
<trkpt lat="53.454508" lon="05.895064"><ele>11.1</ele><time>2021-02-18T12:50:20Z</time><name>PT7016</name></trkpt>
<trkpt lat="53.454511" lon="05.895083"><ele>11.2</ele><time>2021-02-18T12:50:20Z</time><name>PT7017</name></trkpt>
<trkpt lat="53.454512" lon="05.895101"><ele>11.3</ele><time>2021-02-18T12:50:21Z</time><name>PT7018</name></trkpt>
<trkpt lat="53.454514" lon="05.895115"><ele>11.6</ele><time>2021-02-18T12:50:23Z</time><name>PT7019</name></trkpt>
<trkpt lat="53.454516" lon="05.895131"><ele>11.7</ele><time>2021-02-18T12:50:23Z</time><name>PT7020</name></trkpt>
<trkpt lat="53.454512" lon="05.895150"><ele>11.8</ele><time>2021-02-18T12:50:24Z</time><name>PT7021</name></trkpt>
<trkpt lat="53.454507" lon="05.895170"><ele>11.8</ele><time>2021-02-18T12:50:26Z</time><name>PT7022</name></trkpt>
<trkpt lat="53.454505" lon="05.895190"><ele>11.7</ele><time>2021-02-18T12:50:26Z</time><name>PT7023</name></trkpt>
<trkpt lat="53.454504" lon="05.895212"><ele>11.6</ele><time>2021-02-18T12:50:27Z</time><name>PT7024</name></trkpt>
<trkpt lat="53.454503" lon="05.895238"><ele>11.7</ele><time>2021-02-18T12:50:29Z</time><name>PT7025</name></trkpt>
<trkpt lat="53.454505" lon="05.895261"><ele>11.8</ele><time>2021-02-18T12:50:29Z</time><name>PT7026</name></trkpt>
<trkpt lat="53.454507" lon="05.895286"><ele>11.8</ele><time>2021-02-18T12:50:30Z</time><name>PT7027</name></trkpt>
<trkpt lat="53.454510" lon="05.895308"><ele>11.9</ele><time>2021-02-18T12:50:32Z</time><name>PT7028</name></trkpt>
<trkpt lat="53.454513" lon="05.895327"><ele>12.1</ele><time>2021-02-18T12:50:32Z</time><name>PT7029</name></trkpt>
<trkpt lat="53.454514" lon="05.895340"><ele>12</ele><time>2021-02-18T12:50:33Z</time><name>PT7030</name></trkpt>
<trkpt lat="53.454517" lon="05.895352"><ele>11.8</ele><time>2021-02-18T12:50:35Z</time><name>PT7031</name></trkpt>
<trkpt lat="53.454518" lon="05.895364"><ele>11.7</ele><time>2021-02-18T12:50:35Z</time><name>PT7032</name></trkpt>
<trkpt lat="53.454517" lon="05.895377"><ele>11.7</ele><time>2021-02-18T12:50:36Z</time><name>PT7033</name></trkpt>
<trkpt lat="53.454516" lon="05.895393"><ele>11.5</ele><time>2021-02-18T12:50:38Z</time><name>PT7034</name></trkpt>
<trkpt lat="53.454515" lon="05.895417"><ele>11.6</ele><time>2021-02-18T12:50:38Z</time><name>PT7035</name></trkpt>
<trkpt lat="53.454517" lon="05.895444"><ele>11.6</ele><time>2021-02-18T12:50:39Z</time><name>PT7036</name></trkpt>
<trkpt lat="53.454520" lon="05.895469"><ele>11.7</ele><time>2021-02-18T12:50:41Z</time><name>PT7037</name></trkpt>
<trkpt lat="53.454522" lon="05.895490"><ele>11.7</ele><time>2021-02-18T12:50:41Z</time><name>PT7038</name></trkpt>
<trkpt lat="53.454526" lon="05.895507"><ele>11.6</ele><time>2021-02-18T12:50:42Z</time><name>PT7039</name></trkpt>
<trkpt lat="53.454529" lon="05.895521"><ele>11.7</ele><time>2021-02-18T12:50:44Z</time><name>PT7040</name></trkpt>
<trkpt lat="53.454531" lon="05.895534"><ele>11.7</ele><time>2021-02-18T12:50:44Z</time><name>PT7041</name></trkpt>
<trkpt lat="53.454531" lon="05.895547"><ele>11.8</ele><time>2021-02-18T12:50:45Z</time><name>PT7042</name></trkpt>
<trkpt lat="53.454531" lon="05.895562"><ele>12.1</ele><time>2021-02-18T12:50:47Z</time><name>PT7043</name></trkpt>
<trkpt lat="53.454531" lon="05.895581"><ele>12.2</ele><time>2021-02-18T12:50:47Z</time><name>PT7044</name></trkpt>
<trkpt lat="53.454531" lon="05.895603"><ele>12</ele><time>2021-02-18T12:50:48Z</time><name>PT7045</name></trkpt>
<trkpt lat="53.454534" lon="05.895626"><ele>12.2</ele><time>2021-02-18T12:50:50Z</time><name>PT7046</name></trkpt>
<trkpt lat="53.454534" lon="05.895644"><ele>12.2</ele><time>2021-02-18T12:50:50Z</time><name>PT7047</name></trkpt>
<trkpt lat="53.454537" lon="05.895659"><ele>12.1</ele><time>2021-02-18T12:50:51Z</time><name>PT7048</name></trkpt>
<trkpt lat="53.454537" lon="05.895672"><ele>11.9</ele><time>2021-02-18T12:50:53Z</time><name>PT7049</name></trkpt>
<trkpt lat="53.454537" lon="05.895682"><ele>11.8</ele><time>2021-02-18T12:50:53Z</time><name>PT7050</name></trkpt>
<trkpt lat="53.454535" lon="05.895693"><ele>11.6</ele><time>2021-02-18T12:50:54Z</time><name>PT7051</name></trkpt>
<trkpt lat="53.454530" lon="05.895706"><ele>11.5</ele><time>2021-02-18T12:50:56Z</time><name>PT7052</name></trkpt>
<trkpt lat="53.454526" lon="05.895724"><ele>11.4</ele><time>2021-02-18T12:50:56Z</time><name>PT7053</name></trkpt>
<trkpt lat="53.454526" lon="05.895745"><ele>11.4</ele><time>2021-02-18T12:50:57Z</time><name>PT7054</name></trkpt>
<trkpt lat="53.454530" lon="05.895764"><ele>11.5</ele><time>2021-02-18T12:50:59Z</time><name>PT7055</name></trkpt>
<trkpt lat="53.454535" lon="05.895777"><ele>11.4</ele><time>2021-02-18T12:50:59Z</time><name>PT7056</name></trkpt>
<trkpt lat="53.454541" lon="05.895785"><ele>11.2</ele><time>2021-02-18T12:51:00Z</time><name>PT7057</name></trkpt>
<trkpt lat="53.454547" lon="05.895796"><ele>11.2</ele><time>2021-02-18T12:51:02Z</time><name>PT7058</name></trkpt>
<trkpt lat="53.454550" lon="05.895814"><ele>11.2</ele><time>2021-02-18T12:51:02Z</time><name>PT7059</name></trkpt>
<trkpt lat="53.454553" lon="05.895829"><ele>11.3</ele><time>2021-02-18T12:51:03Z</time><name>PT7060</name></trkpt>
<trkpt lat="53.454553" lon="05.895843"><ele>11.2</ele><time>2021-02-18T12:51:05Z</time><name>PT7061</name></trkpt>
<trkpt lat="53.454552" lon="05.895853"><ele>11.5</ele><time>2021-02-18T12:51:05Z</time><name>PT7062</name></trkpt>
<trkpt lat="53.454547" lon="05.895859"><ele>11.8</ele><time>2021-02-18T12:51:06Z</time><name>PT7063</name></trkpt>
<trkpt lat="53.454540" lon="05.895868"><ele>12</ele><time>2021-02-18T12:51:08Z</time><name>PT7064</name></trkpt>
<trkpt lat="53.454532" lon="05.895884"><ele>12.1</ele><time>2021-02-18T12:51:08Z</time><name>PT7065</name></trkpt>
<trkpt lat="53.454526" lon="05.895903"><ele>12.2</ele><time>2021-02-18T12:51:09Z</time><name>PT7066</name></trkpt>
<trkpt lat="53.454523" lon="05.895923"><ele>12.2</ele><time>2021-02-18T12:51:11Z</time><name>PT7067</name></trkpt>
<trkpt lat="53.454525" lon="05.895952"><ele>11.9</ele><time>2021-02-18T12:51:11Z</time><name>PT7068</name></trkpt>
<trkpt lat="53.454526" lon="05.895974"><ele>11.5</ele><time>2021-02-18T12:51:12Z</time><name>PT7069</name></trkpt>
<trkpt lat="53.454527" lon="05.895989"><ele>11.2</ele><time>2021-02-18T12:51:14Z</time><name>PT7070</name></trkpt>
<trkpt lat="53.454528" lon="05.896007"><ele>11.1</ele><time>2021-02-18T12:51:14Z</time><name>PT7071</name></trkpt>
<trkpt lat="53.454528" lon="05.896027"><ele>11.1</ele><time>2021-02-18T12:51:15Z</time><name>PT7072</name></trkpt>
<trkpt lat="53.454529" lon="05.896040"><ele>11.4</ele><time>2021-02-18T12:51:17Z</time><name>PT7073</name></trkpt>
<trkpt lat="53.454532" lon="05.896048"><ele>11.7</ele><time>2021-02-18T12:51:17Z</time><name>PT7074</name></trkpt>
<trkpt lat="53.454535" lon="05.896053"><ele>11.8</ele><time>2021-02-18T12:51:18Z</time><name>PT7075</name></trkpt>
<trkpt lat="53.454538" lon="05.896059"><ele>11.7</ele><time>2021-02-18T12:51:20Z</time><name>PT7076</name></trkpt>
<trkpt lat="53.454537" lon="05.896080"><ele>11.7</ele><time>2021-02-18T12:51:20Z</time><name>PT7077</name></trkpt>
<trkpt lat="53.454543" lon="05.896104"><ele>11.6</ele><time>2021-02-18T12:51:21Z</time><name>PT7078</name></trkpt>
<trkpt lat="53.454548" lon="05.896119"><ele>11.6</ele><time>2021-02-18T12:51:23Z</time><name>PT7079</name></trkpt>
<trkpt lat="53.454552" lon="05.896132"><ele>11.7</ele><time>2021-02-18T12:51:23Z</time><name>PT7080</name></trkpt>
<trkpt lat="53.454552" lon="05.896144"><ele>11.7</ele><time>2021-02-18T12:51:24Z</time><name>PT7081</name></trkpt>
<trkpt lat="53.454553" lon="05.896157"><ele>11.7</ele><time>2021-02-18T12:51:26Z</time><name>PT7082</name></trkpt>
<trkpt lat="53.454555" lon="05.896172"><ele>11.8</ele><time>2021-02-18T12:51:26Z</time><name>PT7083</name></trkpt>
<trkpt lat="53.454556" lon="05.896187"><ele>11.8</ele><time>2021-02-18T12:51:27Z</time><name>PT7084</name></trkpt>
<trkpt lat="53.454556" lon="05.896201"><ele>12</ele><time>2021-02-18T12:51:29Z</time><name>PT7085</name></trkpt>
<trkpt lat="53.454555" lon="05.896220"><ele>12.2</ele><time>2021-02-18T12:51:29Z</time><name>PT7086</name></trkpt>
<trkpt lat="53.454554" lon="05.896246"><ele>12.2</ele><time>2021-02-18T12:51:30Z</time><name>PT7087</name></trkpt>
<trkpt lat="53.454553" lon="05.896272"><ele>12.2</ele><time>2021-02-18T12:51:32Z</time><name>PT7088</name></trkpt>
<trkpt lat="53.454553" lon="05.896292"><ele>12.1</ele><time>2021-02-18T12:51:32Z</time><name>PT7089</name></trkpt>
<trkpt lat="53.454555" lon="05.896308"><ele>12</ele><time>2021-02-18T12:51:33Z</time><name>PT7090</name></trkpt>
<trkpt lat="53.454557" lon="05.896322"><ele>11.7</ele><time>2021-02-18T12:51:35Z</time><name>PT7091</name></trkpt>
<trkpt lat="53.454560" lon="05.896333"><ele>11.7</ele><time>2021-02-18T12:51:35Z</time><name>PT7092</name></trkpt>
<trkpt lat="53.454561" lon="05.896347"><ele>11.8</ele><time>2021-02-18T12:51:36Z</time><name>PT7093</name></trkpt>
<trkpt lat="53.454561" lon="05.896361"><ele>11.7</ele><time>2021-02-18T12:51:38Z</time><name>PT7094</name></trkpt>
<trkpt lat="53.454560" lon="05.896378"><ele>11.7</ele><time>2021-02-18T12:51:38Z</time><name>PT7095</name></trkpt>
<trkpt lat="53.454558" lon="05.896400"><ele>11.8</ele><time>2021-02-18T12:51:39Z</time><name>PT7096</name></trkpt>
<trkpt lat="53.454560" lon="05.896422"><ele>11.7</ele><time>2021-02-18T12:51:41Z</time><name>PT7097</name></trkpt>
<trkpt lat="53.454562" lon="05.896446"><ele>11.7</ele><time>2021-02-18T12:51:41Z</time><name>PT7098</name></trkpt>
<trkpt lat="53.454565" lon="05.896467"><ele>11.7</ele><time>2021-02-18T12:51:42Z</time><name>PT7099</name></trkpt>
<trkpt lat="53.454568" lon="05.896483"><ele>11.5</ele><time>2021-02-18T12:51:44Z</time><name>PT7100</name></trkpt>
<trkpt lat="53.454574" lon="05.896491"><ele>11.2</ele><time>2021-02-18T12:51:44Z</time><name>PT7101</name></trkpt>
<trkpt lat="53.454576" lon="05.896495"><ele>11.4</ele><time>2021-02-18T12:51:45Z</time><name>PT7102</name></trkpt>
<trkpt lat="53.454577" lon="05.896504"><ele>11.5</ele><time>2021-02-18T12:51:47Z</time><name>PT7103</name></trkpt>
<trkpt lat="53.454580" lon="05.896522"><ele>11.4</ele><time>2021-02-18T12:51:47Z</time><name>PT7104</name></trkpt>
<trkpt lat="53.454584" lon="05.896546"><ele>11.5</ele><time>2021-02-18T12:51:48Z</time><name>PT7105</name></trkpt>
<trkpt lat="53.454587" lon="05.896570"><ele>11.6</ele><time>2021-02-18T12:51:50Z</time><name>PT7106</name></trkpt>
<trkpt lat="53.454591" lon="05.896590"><ele>11.5</ele><time>2021-02-18T12:51:50Z</time><name>PT7107</name></trkpt>
<trkpt lat="53.454593" lon="05.896605"><ele>11.5</ele><time>2021-02-18T12:51:51Z</time><name>PT7108</name></trkpt>
<trkpt lat="53.454596" lon="05.896619"><ele>11.6</ele><time>2021-02-18T12:51:53Z</time><name>PT7109</name></trkpt>
<trkpt lat="53.454599" lon="05.896631"><ele>11.5</ele><time>2021-02-18T12:51:53Z</time><name>PT7110</name></trkpt>
<trkpt lat="53.454602" lon="05.896642"><ele>11.6</ele><time>2021-02-18T12:51:54Z</time><name>PT7111</name></trkpt>
<trkpt lat="53.454603" lon="05.896659"><ele>11.7</ele><time>2021-02-18T12:51:56Z</time><name>PT7112</name></trkpt>
<trkpt lat="53.454606" lon="05.896678"><ele>11.7</ele><time>2021-02-18T12:51:56Z</time><name>PT7113</name></trkpt>
<trkpt lat="53.454608" lon="05.896700"><ele>11.9</ele><time>2021-02-18T12:51:57Z</time><name>PT7114</name></trkpt>
<trkpt lat="53.454609" lon="05.896721"><ele>12.1</ele><time>2021-02-18T12:51:59Z</time><name>PT7115</name></trkpt>
<trkpt lat="53.454612" lon="05.896737"><ele>12.1</ele><time>2021-02-18T12:51:59Z</time><name>PT7116</name></trkpt>
<trkpt lat="53.454616" lon="05.896750"><ele>11.9</ele><time>2021-02-18T12:52:00Z</time><name>PT7117</name></trkpt>
<trkpt lat="53.454619" lon="05.896761"><ele>11.7</ele><time>2021-02-18T12:52:02Z</time><name>PT7118</name></trkpt>
<trkpt lat="53.454623" lon="05.896773"><ele>11.4</ele><time>2021-02-18T12:52:02Z</time><name>PT7119</name></trkpt>
<trkpt lat="53.454627" lon="05.896783"><ele>11.3</ele><time>2021-02-18T12:52:03Z</time><name>PT7120</name></trkpt>
<trkpt lat="53.454633" lon="05.896798"><ele>11.3</ele><time>2021-02-18T12:52:05Z</time><name>PT7121</name></trkpt>
<trkpt lat="53.454635" lon="05.896813"><ele>11.4</ele><time>2021-02-18T12:52:05Z</time><name>PT7122</name></trkpt>
<trkpt lat="53.454637" lon="05.896826"><ele>11.6</ele><time>2021-02-18T12:52:06Z</time><name>PT7123</name></trkpt>
<trkpt lat="53.454640" lon="05.896843"><ele>11.6</ele><time>2021-02-18T12:52:08Z</time><name>PT7124</name></trkpt>
<trkpt lat="53.454643" lon="05.896863"><ele>11.5</ele><time>2021-02-18T12:52:08Z</time><name>PT7125</name></trkpt>
<trkpt lat="53.454642" lon="05.896884"><ele>11.6</ele><time>2021-02-18T12:52:09Z</time><name>PT7126</name></trkpt>
<trkpt lat="53.454642" lon="05.896907"><ele>11.7</ele><time>2021-02-18T12:52:11Z</time><name>PT7127</name></trkpt>
<trkpt lat="53.454636" lon="05.896932"><ele>11.9</ele><time>2021-02-18T12:52:11Z</time><name>PT7128</name></trkpt>
<trkpt lat="53.454632" lon="05.896953"><ele>12.2</ele><time>2021-02-18T12:52:12Z</time><name>PT7129</name></trkpt>
<trkpt lat="53.454628" lon="05.896969"><ele>12.6</ele><time>2021-02-18T12:52:14Z</time><name>PT7130</name></trkpt>
<trkpt lat="53.454624" lon="05.896985"><ele>12.7</ele><time>2021-02-18T12:52:14Z</time><name>PT7131</name></trkpt>
<trkpt lat="53.454622" lon="05.897001"><ele>12.7</ele><time>2021-02-18T12:52:15Z</time><name>PT7132</name></trkpt>
<trkpt lat="53.454620" lon="05.897017"><ele>12.6</ele><time>2021-02-18T12:52:17Z</time><name>PT7133</name></trkpt>
<trkpt lat="53.454618" lon="05.897031"><ele>12.6</ele><time>2021-02-18T12:52:17Z</time><name>PT7134</name></trkpt>
<trkpt lat="53.454615" lon="05.897045"><ele>12.6</ele><time>2021-02-18T12:52:18Z</time><name>PT7135</name></trkpt>
<trkpt lat="53.454612" lon="05.897058"><ele>12.6</ele><time>2021-02-18T12:52:20Z</time><name>PT7136</name></trkpt>
<trkpt lat="53.454607" lon="05.897071"><ele>12.9</ele><time>2021-02-18T12:52:20Z</time><name>PT7137</name></trkpt>
<trkpt lat="53.454601" lon="05.897087"><ele>13.2</ele><time>2021-02-18T12:52:21Z</time><name>PT7138</name></trkpt>
<trkpt lat="53.454594" lon="05.897103"><ele>13.2</ele><time>2021-02-18T12:52:23Z</time><name>PT7139</name></trkpt>
<trkpt lat="53.454588" lon="05.897121"><ele>13.2</ele><time>2021-02-18T12:52:23Z</time><name>PT7140</name></trkpt>
<trkpt lat="53.454584" lon="05.897137"><ele>12.9</ele><time>2021-02-18T12:52:24Z</time><name>PT7141</name></trkpt>
<trkpt lat="53.454580" lon="05.897153"><ele>12.5</ele><time>2021-02-18T12:52:26Z</time><name>PT7142</name></trkpt>
<trkpt lat="53.454577" lon="05.897170"><ele>12.3</ele><time>2021-02-18T12:52:26Z</time><name>PT7143</name></trkpt>
<trkpt lat="53.454573" lon="05.897184"><ele>12</ele><time>2021-02-18T12:52:27Z</time><name>PT7144</name></trkpt>
<trkpt lat="53.454569" lon="05.897195"><ele>11.9</ele><time>2021-02-18T12:52:29Z</time><name>PT7145</name></trkpt>
<trkpt lat="53.454563" lon="05.897207"><ele>11.9</ele><time>2021-02-18T12:52:29Z</time><name>PT7146</name></trkpt>
<trkpt lat="53.454553" lon="05.897226"><ele>11.9</ele><time>2021-02-18T12:52:30Z</time><name>PT7147</name></trkpt>
<trkpt lat="53.454544" lon="05.897246"><ele>11.8</ele><time>2021-02-18T12:52:32Z</time><name>PT7148</name></trkpt>
<trkpt lat="53.454537" lon="05.897266"><ele>11.9</ele><time>2021-02-18T12:52:32Z</time><name>PT7149</name></trkpt>
<trkpt lat="53.454532" lon="05.897284"><ele>11.9</ele><time>2021-02-18T12:52:33Z</time><name>PT7150</name></trkpt>
<trkpt lat="53.454527" lon="05.897297"><ele>12</ele><time>2021-02-18T12:52:35Z</time><name>PT7151</name></trkpt>
<trkpt lat="53.454522" lon="05.897305"><ele>12</ele><time>2021-02-18T12:52:35Z</time><name>PT7152</name></trkpt>
<trkpt lat="53.454519" lon="05.897313"><ele>12.1</ele><time>2021-02-18T12:52:36Z</time><name>PT7153</name></trkpt>
<trkpt lat="53.454513" lon="05.897326"><ele>12.4</ele><time>2021-02-18T12:52:38Z</time><name>PT7154</name></trkpt>
<trkpt lat="53.454506" lon="05.897343"><ele>12.5</ele><time>2021-02-18T12:52:38Z</time><name>PT7155</name></trkpt>
<trkpt lat="53.454501" lon="05.897358"><ele>12.5</ele><time>2021-02-18T12:52:39Z</time><name>PT7156</name></trkpt>
<trkpt lat="53.454497" lon="05.897372"><ele>12.6</ele><time>2021-02-18T12:52:41Z</time><name>PT7157</name></trkpt>
<trkpt lat="53.454494" lon="05.897384"><ele>12.5</ele><time>2021-02-18T12:52:41Z</time><name>PT7158</name></trkpt>
<trkpt lat="53.454491" lon="05.897394"><ele>12.6</ele><time>2021-02-18T12:52:42Z</time><name>PT7159</name></trkpt>
<trkpt lat="53.454486" lon="05.897407"><ele>12.4</ele><time>2021-02-18T12:52:44Z</time><name>PT7160</name></trkpt>
<trkpt lat="53.454476" lon="05.897425"><ele>12.5</ele><time>2021-02-18T12:52:44Z</time><name>PT7161</name></trkpt>
<trkpt lat="53.454469" lon="05.897442"><ele>12.8</ele><time>2021-02-18T12:52:45Z</time><name>PT7162</name></trkpt>
<trkpt lat="53.454466" lon="05.897450"><ele>13.1</ele><time>2021-02-18T12:52:47Z</time><name>PT7163</name></trkpt>
<trkpt lat="53.454462" lon="05.897461"><ele>13.2</ele><time>2021-02-18T12:52:47Z</time><name>PT7164</name></trkpt>
<trkpt lat="53.454463" lon="05.897472"><ele>13.2</ele><time>2021-02-18T12:52:48Z</time><name>PT7165</name></trkpt>
<trkpt lat="53.454461" lon="05.897482"><ele>13.3</ele><time>2021-02-18T12:52:50Z</time><name>PT7166</name></trkpt>
<trkpt lat="53.454457" lon="05.897496"><ele>13.4</ele><time>2021-02-18T12:52:50Z</time><name>PT7167</name></trkpt>
<trkpt lat="53.454455" lon="05.897510"><ele>13.3</ele><time>2021-02-18T12:52:51Z</time><name>PT7168</name></trkpt>
<trkpt lat="53.454452" lon="05.897528"><ele>13.2</ele><time>2021-02-18T12:52:53Z</time><name>PT7169</name></trkpt>
<trkpt lat="53.454448" lon="05.897541"><ele>13.2</ele><time>2021-02-18T12:52:53Z</time><name>PT7170</name></trkpt>
<trkpt lat="53.454446" lon="05.897553"><ele>13.2</ele><time>2021-02-18T12:52:54Z</time><name>PT7171</name></trkpt>
<trkpt lat="53.454443" lon="05.897568"><ele>12.9</ele><time>2021-02-18T12:52:56Z</time><name>PT7172</name></trkpt>
<trkpt lat="53.454440" lon="05.897586"><ele>12.9</ele><time>2021-02-18T12:52:56Z</time><name>PT7173</name></trkpt>
<trkpt lat="53.454436" lon="05.897607"><ele>12.7</ele><time>2021-02-18T12:52:57Z</time><name>PT7174</name></trkpt>
<trkpt lat="53.454429" lon="05.897627"><ele>12.4</ele><time>2021-02-18T12:52:59Z</time><name>PT7175</name></trkpt>
<trkpt lat="53.454427" lon="05.897643"><ele>12.3</ele><time>2021-02-18T12:52:59Z</time><name>PT7176</name></trkpt>
<trkpt lat="53.454428" lon="05.897654"><ele>12.2</ele><time>2021-02-18T12:53:00Z</time><name>PT7177</name></trkpt>
<trkpt lat="53.454429" lon="05.897662"><ele>12.1</ele><time>2021-02-18T12:53:02Z</time><name>PT7178</name></trkpt>
<trkpt lat="53.454431" lon="05.897676"><ele>12</ele><time>2021-02-18T12:53:02Z</time><name>PT7179</name></trkpt>
<trkpt lat="53.454433" lon="05.897690"><ele>11.8</ele><time>2021-02-18T12:53:03Z</time><name>PT7180</name></trkpt>
<trkpt lat="53.454438" lon="05.897708"><ele>11.7</ele><time>2021-02-18T12:53:05Z</time><name>PT7181</name></trkpt>
<trkpt lat="53.454444" lon="05.897727"><ele>11.6</ele><time>2021-02-18T12:53:05Z</time><name>PT7182</name></trkpt>
<trkpt lat="53.454451" lon="05.897739"><ele>11.4</ele><time>2021-02-18T12:53:06Z</time><name>PT7183</name></trkpt>
<trkpt lat="53.454456" lon="05.897754"><ele>11.3</ele><time>2021-02-18T12:53:08Z</time><name>PT7184</name></trkpt>
<trkpt lat="53.454462" lon="05.897765"><ele>11.3</ele><time>2021-02-18T12:53:08Z</time><name>PT7185</name></trkpt>
<trkpt lat="53.454469" lon="05.897772"><ele>11.3</ele><time>2021-02-18T12:53:09Z</time><name>PT7186</name></trkpt>
<trkpt lat="53.454474" lon="05.897786"><ele>11.2</ele><time>2021-02-18T12:53:11Z</time><name>PT7187</name></trkpt>
<trkpt lat="53.454479" lon="05.897798"><ele>11.2</ele><time>2021-02-18T12:53:11Z</time><name>PT7188</name></trkpt>
<trkpt lat="53.454488" lon="05.897819"><ele>11.2</ele><time>2021-02-18T12:53:12Z</time><name>PT7189</name></trkpt>
<trkpt lat="53.454492" lon="05.897837"><ele>11.2</ele><time>2021-02-18T12:53:14Z</time><name>PT7190</name></trkpt>
<trkpt lat="53.454500" lon="05.897853"><ele>11</ele><time>2021-02-18T12:53:14Z</time><name>PT7191</name></trkpt>
<trkpt lat="53.454508" lon="05.897865"><ele>11.2</ele><time>2021-02-18T12:53:15Z</time><name>PT7192</name></trkpt>
<trkpt lat="53.454517" lon="05.897873"><ele>11.2</ele><time>2021-02-18T12:53:17Z</time><name>PT7193</name></trkpt>
<trkpt lat="53.454523" lon="05.897882"><ele>11.3</ele><time>2021-02-18T12:53:17Z</time><name>PT7194</name></trkpt>
<trkpt lat="53.454532" lon="05.897890"><ele>11.3</ele><time>2021-02-18T12:53:18Z</time><name>PT7195</name></trkpt>
<trkpt lat="53.454540" lon="05.897901"><ele>11.4</ele><time>2021-02-18T12:53:20Z</time><name>PT7196</name></trkpt>
<trkpt lat="53.454547" lon="05.897913"><ele>11.2</ele><time>2021-02-18T12:53:20Z</time><name>PT7197</name></trkpt>
<trkpt lat="53.454553" lon="05.897924"><ele>11.2</ele><time>2021-02-18T12:53:21Z</time><name>PT7198</name></trkpt>
<trkpt lat="53.454562" lon="05.897932"><ele>10.9</ele><time>2021-02-18T12:53:23Z</time><name>PT7199</name></trkpt>
<trkpt lat="53.454571" lon="05.897948"><ele>10.8</ele><time>2021-02-18T12:53:23Z</time><name>PT7200</name></trkpt>
<trkpt lat="53.454574" lon="05.897966"><ele>10.7</ele><time>2021-02-18T12:53:24Z</time><name>PT7201</name></trkpt>
<trkpt lat="53.454576" lon="05.897977"><ele>10.9</ele><time>2021-02-18T12:53:26Z</time><name>PT7202</name></trkpt>
<trkpt lat="53.454579" lon="05.897993"><ele>11</ele><time>2021-02-18T12:53:26Z</time><name>PT7203</name></trkpt>
<trkpt lat="53.454579" lon="05.898009"><ele>11.2</ele><time>2021-02-18T12:53:27Z</time><name>PT7204</name></trkpt>
<trkpt lat="53.454576" lon="05.898023"><ele>11.2</ele><time>2021-02-18T12:53:29Z</time><name>PT7205</name></trkpt>
<trkpt lat="53.454574" lon="05.898041"><ele>11.2</ele><time>2021-02-18T12:53:29Z</time><name>PT7206</name></trkpt>
<trkpt lat="53.454576" lon="05.898060"><ele>11</ele><time>2021-02-18T12:53:30Z</time><name>PT7207</name></trkpt>
<trkpt lat="53.454581" lon="05.898077"><ele>10.9</ele><time>2021-02-18T12:53:32Z</time><name>PT7208</name></trkpt>
<trkpt lat="53.454583" lon="05.898095"><ele>10.8</ele><time>2021-02-18T12:53:32Z</time><name>PT7209</name></trkpt>
<trkpt lat="53.454587" lon="05.898108"><ele>10.8</ele><time>2021-02-18T12:53:33Z</time><name>PT7210</name></trkpt>
<trkpt lat="53.454592" lon="05.898122"><ele>10.9</ele><time>2021-02-18T12:53:35Z</time><name>PT7211</name></trkpt>
<trkpt lat="53.454598" lon="05.898136"><ele>11</ele><time>2021-02-18T12:53:35Z</time><name>PT7212</name></trkpt>
<trkpt lat="53.454603" lon="05.898148"><ele>10.9</ele><time>2021-02-18T12:53:36Z</time><name>PT7213</name></trkpt>
<trkpt lat="53.454606" lon="05.898162"><ele>10.7</ele><time>2021-02-18T12:53:38Z</time><name>PT7214</name></trkpt>
<trkpt lat="53.454612" lon="05.898178"><ele>10.7</ele><time>2021-02-18T12:53:38Z</time><name>PT7215</name></trkpt>
<trkpt lat="53.454616" lon="05.898193"><ele>10.5</ele><time>2021-02-18T12:53:39Z</time><name>PT7216</name></trkpt>
<trkpt lat="53.454620" lon="05.898210"><ele>10.5</ele><time>2021-02-18T12:53:41Z</time><name>PT7217</name></trkpt>
<trkpt lat="53.454624" lon="05.898230"><ele>10.4</ele><time>2021-02-18T12:53:41Z</time><name>PT7218</name></trkpt>
<trkpt lat="53.454627" lon="05.898248"><ele>10.6</ele><time>2021-02-18T12:53:42Z</time><name>PT7219</name></trkpt>
<trkpt lat="53.454631" lon="05.898265"><ele>10.7</ele><time>2021-02-18T12:53:44Z</time><name>PT7220</name></trkpt>
<trkpt lat="53.454635" lon="05.898280"><ele>10.7</ele><time>2021-02-18T12:53:44Z</time><name>PT7221</name></trkpt>
<trkpt lat="53.454639" lon="05.898298"><ele>10.7</ele><time>2021-02-18T12:53:45Z</time><name>PT7222</name></trkpt>
<trkpt lat="53.454648" lon="05.898312"><ele>10.7</ele><time>2021-02-18T12:53:47Z</time><name>PT7223</name></trkpt>
<trkpt lat="53.454652" lon="05.898328"><ele>10.7</ele><time>2021-02-18T12:53:47Z</time><name>PT7224</name></trkpt>
<trkpt lat="53.454660" lon="05.898342"><ele>10.6</ele><time>2021-02-18T12:53:48Z</time><name>PT7225</name></trkpt>
<trkpt lat="53.454666" lon="05.898360"><ele>10.8</ele><time>2021-02-18T12:53:50Z</time><name>PT7226</name></trkpt>
<trkpt lat="53.454671" lon="05.898379"><ele>11</ele><time>2021-02-18T12:53:50Z</time><name>PT7227</name></trkpt>
<trkpt lat="53.454674" lon="05.898395"><ele>10.9</ele><time>2021-02-18T12:53:51Z</time><name>PT7228</name></trkpt>
<trkpt lat="53.454677" lon="05.898411"><ele>11.1</ele><time>2021-02-18T12:53:53Z</time><name>PT7229</name></trkpt>
<trkpt lat="53.454679" lon="05.898425"><ele>11.1</ele><time>2021-02-18T12:53:53Z</time><name>PT7230</name></trkpt>
<trkpt lat="53.454683" lon="05.898442"><ele>11</ele><time>2021-02-18T12:53:54Z</time><name>PT7231</name></trkpt>
<trkpt lat="53.454687" lon="05.898459"><ele>11</ele><time>2021-02-18T12:53:56Z</time><name>PT7232</name></trkpt>
<trkpt lat="53.454693" lon="05.898474"><ele>11.1</ele><time>2021-02-18T12:53:56Z</time><name>PT7233</name></trkpt>
<trkpt lat="53.454699" lon="05.898489"><ele>11.2</ele><time>2021-02-18T12:53:57Z</time><name>PT7234</name></trkpt>
<trkpt lat="53.454706" lon="05.898501"><ele>11.3</ele><time>2021-02-18T12:53:59Z</time><name>PT7235</name></trkpt>
<trkpt lat="53.454714" lon="05.898514"><ele>11.3</ele><time>2021-02-18T12:53:59Z</time><name>PT7236</name></trkpt>
<trkpt lat="53.454719" lon="05.898528"><ele>11.2</ele><time>2021-02-18T12:54:00Z</time><name>PT7237</name></trkpt>
<trkpt lat="53.454723" lon="05.898545"><ele>11.2</ele><time>2021-02-18T12:54:02Z</time><name>PT7238</name></trkpt>
<trkpt lat="53.454727" lon="05.898559"><ele>11.2</ele><time>2021-02-18T12:54:02Z</time><name>PT7239</name></trkpt>
<trkpt lat="53.454733" lon="05.898573"><ele>11.1</ele><time>2021-02-18T12:54:03Z</time><name>PT7240</name></trkpt>
<trkpt lat="53.454743" lon="05.898584"><ele>11.2</ele><time>2021-02-18T12:54:05Z</time><name>PT7241</name></trkpt>
<trkpt lat="53.454750" lon="05.898596"><ele>11.2</ele><time>2021-02-18T12:54:05Z</time><name>PT7242</name></trkpt>
<trkpt lat="53.454753" lon="05.898611"><ele>11.2</ele><time>2021-02-18T12:54:06Z</time><name>PT7243</name></trkpt>
<trkpt lat="53.454759" lon="05.898623"><ele>11.2</ele><time>2021-02-18T12:54:08Z</time><name>PT7244</name></trkpt>
<trkpt lat="53.454766" lon="05.898633"><ele>11.1</ele><time>2021-02-18T12:54:08Z</time><name>PT7245</name></trkpt>
<trkpt lat="53.454776" lon="05.898645"><ele>11.1</ele><time>2021-02-18T12:54:09Z</time><name>PT7246</name></trkpt>
<trkpt lat="53.454783" lon="05.898661"><ele>11</ele><time>2021-02-18T12:54:11Z</time><name>PT7247</name></trkpt>
<trkpt lat="53.454790" lon="05.898677"><ele>11.1</ele><time>2021-02-18T12:54:11Z</time><name>PT7248</name></trkpt>
<trkpt lat="53.454798" lon="05.898692"><ele>10.9</ele><time>2021-02-18T12:54:12Z</time><name>PT7249</name></trkpt>
<trkpt lat="53.454805" lon="05.898705"><ele>11.2</ele><time>2021-02-18T12:54:14Z</time><name>PT7250</name></trkpt>
<trkpt lat="53.454811" lon="05.898719"><ele>11.2</ele><time>2021-02-18T12:54:14Z</time><name>PT7251</name></trkpt>
<trkpt lat="53.454815" lon="05.898735"><ele>11.2</ele><time>2021-02-18T12:54:15Z</time><name>PT7252</name></trkpt>
<trkpt lat="53.454820" lon="05.898751"><ele>11.3</ele><time>2021-02-18T12:54:17Z</time><name>PT7253</name></trkpt>
<trkpt lat="53.454822" lon="05.898768"><ele>11.4</ele><time>2021-02-18T12:54:17Z</time><name>PT7254</name></trkpt>
<trkpt lat="53.454827" lon="05.898782"><ele>11.2</ele><time>2021-02-18T12:54:18Z</time><name>PT7255</name></trkpt>
<trkpt lat="53.454833" lon="05.898796"><ele>11.2</ele><time>2021-02-18T12:54:20Z</time><name>PT7256</name></trkpt>
<trkpt lat="53.454840" lon="05.898811"><ele>11.2</ele><time>2021-02-18T12:54:20Z</time><name>PT7257</name></trkpt>
<trkpt lat="53.454846" lon="05.898826"><ele>11.3</ele><time>2021-02-18T12:54:21Z</time><name>PT7258</name></trkpt>
<trkpt lat="53.454851" lon="05.898838"><ele>11.5</ele><time>2021-02-18T12:54:23Z</time><name>PT7259</name></trkpt>
<trkpt lat="53.454855" lon="05.898852"><ele>11.7</ele><time>2021-02-18T12:54:23Z</time><name>PT7260</name></trkpt>
<trkpt lat="53.454857" lon="05.898869"><ele>11.6</ele><time>2021-02-18T12:54:24Z</time><name>PT7261</name></trkpt>
<trkpt lat="53.454859" lon="05.898886"><ele>11.6</ele><time>2021-02-18T12:54:26Z</time><name>PT7262</name></trkpt>
<trkpt lat="53.454864" lon="05.898899"><ele>11.6</ele><time>2021-02-18T12:54:26Z</time><name>PT7263</name></trkpt>
<trkpt lat="53.454868" lon="05.898915"><ele>11.5</ele><time>2021-02-18T12:54:27Z</time><name>PT7264</name></trkpt>
<trkpt lat="53.454874" lon="05.898931"><ele>11.3</ele><time>2021-02-18T12:54:29Z</time><name>PT7265</name></trkpt>
<trkpt lat="53.454881" lon="05.898946"><ele>11.6</ele><time>2021-02-18T12:54:29Z</time><name>PT7266</name></trkpt>
<trkpt lat="53.454887" lon="05.898966"><ele>11.7</ele><time>2021-02-18T12:54:30Z</time><name>PT7267</name></trkpt>
<trkpt lat="53.454894" lon="05.898980"><ele>11.6</ele><time>2021-02-18T12:54:32Z</time><name>PT7268</name></trkpt>
<trkpt lat="53.454901" lon="05.898990"><ele>11.6</ele><time>2021-02-18T12:54:32Z</time><name>PT7269</name></trkpt>
<trkpt lat="53.454908" lon="05.899001"><ele>11.6</ele><time>2021-02-18T12:54:33Z</time><name>PT7270</name></trkpt>
<trkpt lat="53.454912" lon="05.899015"><ele>11.4</ele><time>2021-02-18T12:54:35Z</time><name>PT7271</name></trkpt>
<trkpt lat="53.454919" lon="05.899032"><ele>11.2</ele><time>2021-02-18T12:54:35Z</time><name>PT7272</name></trkpt>
<trkpt lat="53.454926" lon="05.899046"><ele>11.1</ele><time>2021-02-18T12:54:36Z</time><name>PT7273</name></trkpt>
<trkpt lat="53.454935" lon="05.899058"><ele>11.2</ele><time>2021-02-18T12:54:38Z</time><name>PT7274</name></trkpt>
<trkpt lat="53.454941" lon="05.899066"><ele>11.2</ele><time>2021-02-18T12:54:38Z</time><name>PT7275</name></trkpt>
<trkpt lat="53.454947" lon="05.899074"><ele>11.2</ele><time>2021-02-18T12:54:39Z</time><name>PT7276</name></trkpt>
<trkpt lat="53.454956" lon="05.899083"><ele>11</ele><time>2021-02-18T12:54:41Z</time><name>PT7277</name></trkpt>
<trkpt lat="53.454963" lon="05.899095"><ele>11.1</ele><time>2021-02-18T12:54:41Z</time><name>PT7278</name></trkpt>
<trkpt lat="53.454969" lon="05.899109"><ele>11</ele><time>2021-02-18T12:54:42Z</time><name>PT7279</name></trkpt>
<trkpt lat="53.454974" lon="05.899122"><ele>11</ele><time>2021-02-18T12:54:44Z</time><name>PT7280</name></trkpt>
<trkpt lat="53.454979" lon="05.899135"><ele>11</ele><time>2021-02-18T12:54:44Z</time><name>PT7281</name></trkpt>
<trkpt lat="53.454986" lon="05.899147"><ele>11.1</ele><time>2021-02-18T12:54:45Z</time><name>PT7282</name></trkpt>
<trkpt lat="53.454993" lon="05.899158"><ele>11.1</ele><time>2021-02-18T12:54:47Z</time><name>PT7283</name></trkpt>
<trkpt lat="53.454998" lon="05.899168"><ele>11.2</ele><time>2021-02-18T12:54:47Z</time><name>PT7284</name></trkpt>
<trkpt lat="53.455007" lon="05.899179"><ele>11</ele><time>2021-02-18T12:54:48Z</time><name>PT7285</name></trkpt>
<trkpt lat="53.455013" lon="05.899191"><ele>11.1</ele><time>2021-02-18T12:54:50Z</time><name>PT7286</name></trkpt>
<trkpt lat="53.455021" lon="05.899202"><ele>11.2</ele><time>2021-02-18T12:54:50Z</time><name>PT7287</name></trkpt>
<trkpt lat="53.455031" lon="05.899210"><ele>11.2</ele><time>2021-02-18T12:54:51Z</time><name>PT7288</name></trkpt>
<trkpt lat="53.455038" lon="05.899219"><ele>11.4</ele><time>2021-02-18T12:54:53Z</time><name>PT7289</name></trkpt>
<trkpt lat="53.455044" lon="05.899226"><ele>11.4</ele><time>2021-02-18T12:54:53Z</time><name>PT7290</name></trkpt>
<trkpt lat="53.455049" lon="05.899234"><ele>11.4</ele><time>2021-02-18T12:54:54Z</time><name>PT7291</name></trkpt>
<trkpt lat="53.455056" lon="05.899245"><ele>11.4</ele><time>2021-02-18T12:54:56Z</time><name>PT7292</name></trkpt>
<trkpt lat="53.455062" lon="05.899258"><ele>11.3</ele><time>2021-02-18T12:54:56Z</time><name>PT7293</name></trkpt>
<trkpt lat="53.455069" lon="05.899266"><ele>11.2</ele><time>2021-02-18T12:54:57Z</time><name>PT7294</name></trkpt>
<trkpt lat="53.455075" lon="05.899275"><ele>11.3</ele><time>2021-02-18T12:54:59Z</time><name>PT7295</name></trkpt>
<trkpt lat="53.455080" lon="05.899284"><ele>11.4</ele><time>2021-02-18T12:54:59Z</time><name>PT7296</name></trkpt>
<trkpt lat="53.455083" lon="05.899294"><ele>11.5</ele><time>2021-02-18T12:55:00Z</time><name>PT7297</name></trkpt>
<trkpt lat="53.455085" lon="05.899303"><ele>11.7</ele><time>2021-02-18T12:55:02Z</time><name>PT7298</name></trkpt>
<trkpt lat="53.455087" lon="05.899305"><ele>11.7</ele><time>2021-02-18T12:55:02Z</time><name>PT7299</name></trkpt>
<trkpt lat="53.455087" lon="05.899303"><ele>11.7</ele><time>2021-02-18T12:55:03Z</time><name>PT7300</name></trkpt>
<trkpt lat="53.455087" lon="05.899303"><ele>12</ele><time>2021-02-18T12:55:05Z</time><name>PT7301</name></trkpt>
<trkpt lat="53.455088" lon="05.899299"><ele>11.9</ele><time>2021-02-18T12:55:29Z</time><name>PT7302</name></trkpt>
<trkpt lat="53.455091" lon="05.899302"><ele>11.8</ele><time>2021-02-18T12:55:29Z</time><name>PT7303</name></trkpt>
<trkpt lat="53.455093" lon="05.899301"><ele>12.1</ele><time>2021-02-18T12:55:30Z</time><name>PT7304</name></trkpt>
<trkpt lat="53.455098" lon="05.899311"><ele>12.3</ele><time>2021-02-18T12:55:32Z</time><name>PT7305</name></trkpt>
<trkpt lat="53.455103" lon="05.899310"><ele>12.6</ele><time>2021-02-18T12:55:32Z</time><name>PT7306</name></trkpt>
<trkpt lat="53.455106" lon="05.899311"><ele>12.2</ele><time>2021-02-18T12:57:30Z</time><name>PT7307</name></trkpt>
<trkpt lat="53.455108" lon="05.899314"><ele>12.2</ele><time>2021-02-18T12:57:32Z</time><name>PT7308</name></trkpt>
<trkpt lat="53.455111" lon="05.899315"><ele>12.2</ele><time>2021-02-18T12:57:32Z</time><name>PT7309</name></trkpt>
<trkpt lat="53.455117" lon="05.899317"><ele>12.2</ele><time>2021-02-18T12:57:33Z</time><name>PT7310</name></trkpt>
<trkpt lat="53.455122" lon="05.899321"><ele>12.4</ele><time>2021-02-18T12:57:35Z</time><name>PT7311</name></trkpt>
<trkpt lat="53.455126" lon="05.899329"><ele>12.5</ele><time>2021-02-18T12:57:35Z</time><name>PT7312</name></trkpt>
<trkpt lat="53.455132" lon="05.899336"><ele>12.7</ele><time>2021-02-18T12:57:36Z</time><name>PT7313</name></trkpt>
<trkpt lat="53.455137" lon="05.899337"><ele>12.9</ele><time>2021-02-18T12:57:38Z</time><name>PT7314</name></trkpt>
<trkpt lat="53.455141" lon="05.899336"><ele>12.8</ele><time>2021-02-18T12:57:38Z</time><name>PT7315</name></trkpt>
<trkpt lat="53.455145" lon="05.899343"><ele>12.9</ele><time>2021-02-18T12:57:39Z</time><name>PT7316</name></trkpt>
<trkpt lat="53.455149" lon="05.899349"><ele>12.8</ele><time>2021-02-18T12:57:41Z</time><name>PT7317</name></trkpt>
<trkpt lat="53.455152" lon="05.899361"><ele>12.7</ele><time>2021-02-18T12:57:41Z</time><name>PT7318</name></trkpt>
<trkpt lat="53.455155" lon="05.899374"><ele>12.7</ele><time>2021-02-18T12:57:42Z</time><name>PT7319</name></trkpt>
<trkpt lat="53.455160" lon="05.899387"><ele>12.7</ele><time>2021-02-18T12:57:44Z</time><name>PT7320</name></trkpt>
<trkpt lat="53.455163" lon="05.899403"><ele>12.7</ele><time>2021-02-18T12:57:44Z</time><name>PT7321</name></trkpt>
<trkpt lat="53.455166" lon="05.899417"><ele>12.6</ele><time>2021-02-18T12:57:45Z</time><name>PT7322</name></trkpt>
<trkpt lat="53.455168" lon="05.899433"><ele>12.4</ele><time>2021-02-18T12:57:47Z</time><name>PT7323</name></trkpt>
<trkpt lat="53.455173" lon="05.899451"><ele>12.2</ele><time>2021-02-18T12:57:47Z</time><name>PT7324</name></trkpt>
<trkpt lat="53.455178" lon="05.899469"><ele>12.2</ele><time>2021-02-18T12:57:48Z</time><name>PT7325</name></trkpt>
<trkpt lat="53.455181" lon="05.899485"><ele>12.1</ele><time>2021-02-18T12:57:50Z</time><name>PT7326</name></trkpt>
<trkpt lat="53.455184" lon="05.899499"><ele>12.1</ele><time>2021-02-18T12:57:50Z</time><name>PT7327</name></trkpt>
<trkpt lat="53.455188" lon="05.899514"><ele>12.1</ele><time>2021-02-18T12:57:51Z</time><name>PT7328</name></trkpt>
<trkpt lat="53.455191" lon="05.899531"><ele>12.1</ele><time>2021-02-18T12:57:53Z</time><name>PT7329</name></trkpt>
<trkpt lat="53.455195" lon="05.899545"><ele>12.2</ele><time>2021-02-18T12:57:53Z</time><name>PT7330</name></trkpt>
<trkpt lat="53.455198" lon="05.899558"><ele>12</ele><time>2021-02-18T12:57:54Z</time><name>PT7331</name></trkpt>
<trkpt lat="53.455202" lon="05.899572"><ele>11.8</ele><time>2021-02-18T12:57:56Z</time><name>PT7332</name></trkpt>
<trkpt lat="53.455204" lon="05.899587"><ele>11.7</ele><time>2021-02-18T12:57:56Z</time><name>PT7333</name></trkpt>
<trkpt lat="53.455206" lon="05.899602"><ele>11.8</ele><time>2021-02-18T12:57:57Z</time><name>PT7334</name></trkpt>
<trkpt lat="53.455210" lon="05.899616"><ele>12</ele><time>2021-02-18T12:57:59Z</time><name>PT7335</name></trkpt>
<trkpt lat="53.455213" lon="05.899631"><ele>12</ele><time>2021-02-18T12:57:59Z</time><name>PT7336</name></trkpt>
<trkpt lat="53.455216" lon="05.899647"><ele>12.2</ele><time>2021-02-18T12:58:00Z</time><name>PT7337</name></trkpt>
<trkpt lat="53.455216" lon="05.899665"><ele>12.2</ele><time>2021-02-18T12:58:02Z</time><name>PT7338</name></trkpt>
<trkpt lat="53.455215" lon="05.899686"><ele>12</ele><time>2021-02-18T12:58:02Z</time><name>PT7339</name></trkpt>
<trkpt lat="53.455216" lon="05.899703"><ele>11.8</ele><time>2021-02-18T12:58:03Z</time><name>PT7340</name></trkpt>
<trkpt lat="53.455217" lon="05.899720"><ele>11.8</ele><time>2021-02-18T12:58:05Z</time><name>PT7341</name></trkpt>
<trkpt lat="53.455220" lon="05.899738"><ele>11.9</ele><time>2021-02-18T12:58:05Z</time><name>PT7342</name></trkpt>
<trkpt lat="53.455223" lon="05.899754"><ele>11.8</ele><time>2021-02-18T12:58:06Z</time><name>PT7343</name></trkpt>
<trkpt lat="53.455229" lon="05.899765"><ele>11.7</ele><time>2021-02-18T12:58:08Z</time><name>PT7344</name></trkpt>
<trkpt lat="53.455235" lon="05.899775"><ele>11.6</ele><time>2021-02-18T12:58:08Z</time><name>PT7345</name></trkpt>
<trkpt lat="53.455241" lon="05.899789"><ele>11.5</ele><time>2021-02-18T12:58:09Z</time><name>PT7346</name></trkpt>
<trkpt lat="53.455245" lon="05.899807"><ele>11.6</ele><time>2021-02-18T12:58:11Z</time><name>PT7347</name></trkpt>
<trkpt lat="53.455250" lon="05.899822"><ele>11.6</ele><time>2021-02-18T12:58:11Z</time><name>PT7348</name></trkpt>
<trkpt lat="53.455255" lon="05.899835"><ele>11.8</ele><time>2021-02-18T12:58:12Z</time><name>PT7349</name></trkpt>
<trkpt lat="53.455261" lon="05.899850"><ele>11.8</ele><time>2021-02-18T12:58:14Z</time><name>PT7350</name></trkpt>
<trkpt lat="53.455268" lon="05.899865"><ele>11.7</ele><time>2021-02-18T12:58:14Z</time><name>PT7351</name></trkpt>
<trkpt lat="53.455275" lon="05.899880"><ele>11.9</ele><time>2021-02-18T12:58:15Z</time><name>PT7352</name></trkpt>
<trkpt lat="53.455281" lon="05.899896"><ele>11.7</ele><time>2021-02-18T12:58:17Z</time><name>PT7353</name></trkpt>
<trkpt lat="53.455288" lon="05.899911"><ele>11.8</ele><time>2021-02-18T12:58:17Z</time><name>PT7354</name></trkpt>
<trkpt lat="53.455295" lon="05.899927"><ele>11.8</ele><time>2021-02-18T12:58:18Z</time><name>PT7355</name></trkpt>
<trkpt lat="53.455302" lon="05.899944"><ele>11.8</ele><time>2021-02-18T12:58:20Z</time><name>PT7356</name></trkpt>
<trkpt lat="53.455309" lon="05.899962"><ele>11.9</ele><time>2021-02-18T12:58:20Z</time><name>PT7357</name></trkpt>
<trkpt lat="53.455316" lon="05.899975"><ele>11.7</ele><time>2021-02-18T12:58:21Z</time><name>PT7358</name></trkpt>
<trkpt lat="53.455323" lon="05.899988"><ele>11.6</ele><time>2021-02-18T12:58:23Z</time><name>PT7359</name></trkpt>
<trkpt lat="53.455331" lon="05.900000"><ele>11.7</ele><time>2021-02-18T12:58:23Z</time><name>PT7360</name></trkpt>
<trkpt lat="53.455338" lon="05.900014"><ele>11.5</ele><time>2021-02-18T12:58:24Z</time><name>PT7361</name></trkpt>
<trkpt lat="53.455342" lon="05.900029"><ele>11.6</ele><time>2021-02-18T12:58:26Z</time><name>PT7362</name></trkpt>
<trkpt lat="53.455345" lon="05.900048"><ele>11.7</ele><time>2021-02-18T12:58:26Z</time><name>PT7363</name></trkpt>
<trkpt lat="53.455348" lon="05.900061"><ele>11.6</ele><time>2021-02-18T12:58:27Z</time><name>PT7364</name></trkpt>
<trkpt lat="53.455354" lon="05.900080"><ele>11.6</ele><time>2021-02-18T12:58:29Z</time><name>PT7365</name></trkpt>
<trkpt lat="53.455360" lon="05.900097"><ele>11.5</ele><time>2021-02-18T12:58:29Z</time><name>PT7366</name></trkpt>
<trkpt lat="53.455365" lon="05.900111"><ele>11.4</ele><time>2021-02-18T12:58:30Z</time><name>PT7367</name></trkpt>
<trkpt lat="53.455375" lon="05.900125"><ele>11.5</ele><time>2021-02-18T12:58:32Z</time><name>PT7368</name></trkpt>
<trkpt lat="53.455381" lon="05.900134"><ele>11.5</ele><time>2021-02-18T12:58:32Z</time><name>PT7369</name></trkpt>
<trkpt lat="53.455387" lon="05.900144"><ele>11.4</ele><time>2021-02-18T12:58:33Z</time><name>PT7370</name></trkpt>
<trkpt lat="53.455394" lon="05.900155"><ele>11.4</ele><time>2021-02-18T12:58:35Z</time><name>PT7371</name></trkpt>
<trkpt lat="53.455399" lon="05.900170"><ele>11.4</ele><time>2021-02-18T12:58:35Z</time><name>PT7372</name></trkpt>
<trkpt lat="53.455404" lon="05.900183"><ele>11.3</ele><time>2021-02-18T12:58:36Z</time><name>PT7373</name></trkpt>
<trkpt lat="53.455410" lon="05.900192"><ele>11.3</ele><time>2021-02-18T12:58:38Z</time><name>PT7374</name></trkpt>
<trkpt lat="53.455416" lon="05.900202"><ele>11.3</ele><time>2021-02-18T12:58:38Z</time><name>PT7375</name></trkpt>
<trkpt lat="53.455423" lon="05.900212"><ele>11.2</ele><time>2021-02-18T12:58:39Z</time><name>PT7376</name></trkpt>
<trkpt lat="53.455431" lon="05.900217"><ele>11.2</ele><time>2021-02-18T12:58:41Z</time><name>PT7377</name></trkpt>
<trkpt lat="53.455438" lon="05.900223"><ele>11</ele><time>2021-02-18T12:58:41Z</time><name>PT7378</name></trkpt>
<trkpt lat="53.455445" lon="05.900231"><ele>11.1</ele><time>2021-02-18T12:58:42Z</time><name>PT7379</name></trkpt>
<trkpt lat="53.455451" lon="05.900239"><ele>11.2</ele><time>2021-02-18T12:58:44Z</time><name>PT7380</name></trkpt>
<trkpt lat="53.455460" lon="05.900248"><ele>11.2</ele><time>2021-02-18T12:58:44Z</time><name>PT7381</name></trkpt>
<trkpt lat="53.455471" lon="05.900257"><ele>11</ele><time>2021-02-18T12:58:45Z</time><name>PT7382</name></trkpt>
<trkpt lat="53.455480" lon="05.900260"><ele>10.9</ele><time>2021-02-18T12:58:47Z</time><name>PT7383</name></trkpt>
<trkpt lat="53.455490" lon="05.900260"><ele>10.8</ele><time>2021-02-18T12:58:47Z</time><name>PT7384</name></trkpt>
<trkpt lat="53.455497" lon="05.900269"><ele>10.8</ele><time>2021-02-18T12:58:48Z</time><name>PT7385</name></trkpt>
<trkpt lat="53.455504" lon="05.900281"><ele>11</ele><time>2021-02-18T12:58:50Z</time><name>PT7386</name></trkpt>
<trkpt lat="53.455507" lon="05.900296"><ele>11.1</ele><time>2021-02-18T12:58:50Z</time><name>PT7387</name></trkpt>
<trkpt lat="53.455510" lon="05.900312"><ele>11.1</ele><time>2021-02-18T12:58:51Z</time><name>PT7388</name></trkpt>
<trkpt lat="53.455511" lon="05.900326"><ele>11.2</ele><time>2021-02-18T12:58:53Z</time><name>PT7389</name></trkpt>
<trkpt lat="53.455514" lon="05.900340"><ele>11.5</ele><time>2021-02-18T12:58:53Z</time><name>PT7390</name></trkpt>
<trkpt lat="53.455520" lon="05.900350"><ele>11.3</ele><time>2021-02-18T12:58:54Z</time><name>PT7391</name></trkpt>
<trkpt lat="53.455522" lon="05.900361"><ele>11.3</ele><time>2021-02-18T12:58:56Z</time><name>PT7392</name></trkpt>
<trkpt lat="53.455521" lon="05.900374"><ele>11.2</ele><time>2021-02-18T12:58:56Z</time><name>PT7393</name></trkpt>
<trkpt lat="53.455524" lon="05.900384"><ele>11.1</ele><time>2021-02-18T12:58:57Z</time><name>PT7394</name></trkpt>
<trkpt lat="53.455527" lon="05.900394"><ele>11.2</ele><time>2021-02-18T12:58:59Z</time><name>PT7395</name></trkpt>
<trkpt lat="53.455530" lon="05.900402"><ele>11.3</ele><time>2021-02-18T12:58:59Z</time><name>PT7396</name></trkpt>
<trkpt lat="53.455531" lon="05.900408"><ele>11.3</ele><time>2021-02-18T12:59:00Z</time><name>PT7397</name></trkpt>
<trkpt lat="53.455533" lon="05.900414"><ele>11.3</ele><time>2021-02-18T12:59:02Z</time><name>PT7398</name></trkpt>
<trkpt lat="53.455536" lon="05.900418"><ele>11.2</ele><time>2021-02-18T12:59:02Z</time><name>PT7399</name></trkpt>
<trkpt lat="53.455540" lon="05.900424"><ele>11.2</ele><time>2021-02-18T12:59:03Z</time><name>PT7400</name></trkpt>
<trkpt lat="53.455543" lon="05.900433"><ele>11.3</ele><time>2021-02-18T12:59:05Z</time><name>PT7401</name></trkpt>
<trkpt lat="53.455547" lon="05.900444"><ele>11.3</ele><time>2021-02-18T12:59:05Z</time><name>PT7402</name></trkpt>
<trkpt lat="53.455548" lon="05.900458"><ele>11.5</ele><time>2021-02-18T12:59:06Z</time><name>PT7403</name></trkpt>
<trkpt lat="53.455548" lon="05.900474"><ele>11.3</ele><time>2021-02-18T12:59:08Z</time><name>PT7404</name></trkpt>
<trkpt lat="53.455554" lon="05.900485"><ele>11.4</ele><time>2021-02-18T12:59:08Z</time><name>PT7405</name></trkpt>
<trkpt lat="53.455556" lon="05.900498"><ele>11.3</ele><time>2021-02-18T12:59:09Z</time><name>PT7406</name></trkpt>
<trkpt lat="53.455559" lon="05.900510"><ele>11.2</ele><time>2021-02-18T12:59:11Z</time><name>PT7407</name></trkpt>
<trkpt lat="53.455564" lon="05.900520"><ele>11.4</ele><time>2021-02-18T12:59:11Z</time><name>PT7408</name></trkpt>
<trkpt lat="53.455570" lon="05.900532"><ele>11.5</ele><time>2021-02-18T12:59:12Z</time><name>PT7409</name></trkpt>
<trkpt lat="53.455577" lon="05.900543"><ele>11.4</ele><time>2021-02-18T12:59:14Z</time><name>PT7410</name></trkpt>
<trkpt lat="53.455582" lon="05.900553"><ele>11.3</ele><time>2021-02-18T12:59:14Z</time><name>PT7411</name></trkpt>
<trkpt lat="53.455589" lon="05.900562"><ele>11.3</ele><time>2021-02-18T12:59:15Z</time><name>PT7412</name></trkpt>
<trkpt lat="53.455594" lon="05.900567"><ele>11.2</ele><time>2021-02-18T12:59:17Z</time><name>PT7413</name></trkpt>
<trkpt lat="53.455599" lon="05.900577"><ele>11</ele><time>2021-02-18T12:59:17Z</time><name>PT7414</name></trkpt>
<trkpt lat="53.455604" lon="05.900587"><ele>10.8</ele><time>2021-02-18T12:59:18Z</time><name>PT7415</name></trkpt>
<trkpt lat="53.455606" lon="05.900588"><ele>10.8</ele><time>2021-02-18T12:59:20Z</time><name>PT7416</name></trkpt>
<trkpt lat="53.455605" lon="05.900587"><ele>10.7</ele><time>2021-02-18T12:59:20Z</time><name>PT7417</name></trkpt>
<trkpt lat="53.455607" lon="05.900586"><ele>11.1</ele><time>2021-02-18T12:59:21Z</time><name>PT7418</name></trkpt>
<trkpt lat="53.455610" lon="05.900589"><ele>11.1</ele><time>2021-02-18T12:59:23Z</time><name>PT7419</name></trkpt>
<trkpt lat="53.455618" lon="05.900590"><ele>11.2</ele><time>2021-02-18T12:59:23Z</time><name>PT7420</name></trkpt>
<trkpt lat="53.455625" lon="05.900589"><ele>11.2</ele><time>2021-02-18T12:59:24Z</time><name>PT7421</name></trkpt>
<trkpt lat="53.455633" lon="05.900588"><ele>11.2</ele><time>2021-02-18T12:59:26Z</time><name>PT7422</name></trkpt>
<trkpt lat="53.455640" lon="05.900593"><ele>11.2</ele><time>2021-02-18T12:59:26Z</time><name>PT7423</name></trkpt>
<trkpt lat="53.455649" lon="05.900601"><ele>11.2</ele><time>2021-02-18T12:59:27Z</time><name>PT7424</name></trkpt>
<trkpt lat="53.455657" lon="05.900609"><ele>11.2</ele><time>2021-02-18T12:59:29Z</time><name>PT7425</name></trkpt>
<trkpt lat="53.455665" lon="05.900615"><ele>11.2</ele><time>2021-02-18T12:59:29Z</time><name>PT7426</name></trkpt>
<trkpt lat="53.455675" lon="05.900620"><ele>11.2</ele><time>2021-02-18T12:59:30Z</time><name>PT7427</name></trkpt>
<trkpt lat="53.455685" lon="05.900626"><ele>11.2</ele><time>2021-02-18T12:59:32Z</time><name>PT7428</name></trkpt>
<trkpt lat="53.455698" lon="05.900632"><ele>11.3</ele><time>2021-02-18T12:59:32Z</time><name>PT7429</name></trkpt>
<trkpt lat="53.455708" lon="05.900635"><ele>11.2</ele><time>2021-02-18T12:59:33Z</time><name>PT7430</name></trkpt>
<trkpt lat="53.455716" lon="05.900642"><ele>11.3</ele><time>2021-02-18T12:59:35Z</time><name>PT7431</name></trkpt>
<trkpt lat="53.455724" lon="05.900650"><ele>11.1</ele><time>2021-02-18T12:59:35Z</time><name>PT7432</name></trkpt>
<trkpt lat="53.455730" lon="05.900658"><ele>11</ele><time>2021-02-18T12:59:36Z</time><name>PT7433</name></trkpt>
<trkpt lat="53.455735" lon="05.900667"><ele>11.1</ele><time>2021-02-18T12:59:38Z</time><name>PT7434</name></trkpt>
<trkpt lat="53.455740" lon="05.900675"><ele>11</ele><time>2021-02-18T12:59:38Z</time><name>PT7435</name></trkpt>
<trkpt lat="53.455745" lon="05.900684"><ele>11.1</ele><time>2021-02-18T12:59:39Z</time><name>PT7436</name></trkpt>
<trkpt lat="53.455751" lon="05.900696"><ele>11.2</ele><time>2021-02-18T12:59:41Z</time><name>PT7437</name></trkpt>
<trkpt lat="53.455757" lon="05.900710"><ele>11.1</ele><time>2021-02-18T12:59:41Z</time><name>PT7438</name></trkpt>
<trkpt lat="53.455763" lon="05.900720"><ele>11.2</ele><time>2021-02-18T12:59:42Z</time><name>PT7439</name></trkpt>
<trkpt lat="53.455767" lon="05.900734"><ele>11.4</ele><time>2021-02-18T12:59:44Z</time><name>PT7440</name></trkpt>
<trkpt lat="53.455770" lon="05.900749"><ele>11.4</ele><time>2021-02-18T12:59:44Z</time><name>PT7441</name></trkpt>
<trkpt lat="53.455771" lon="05.900762"><ele>11.5</ele><time>2021-02-18T12:59:45Z</time><name>PT7442</name></trkpt>
<trkpt lat="53.455779" lon="05.900776"><ele>11.6</ele><time>2021-02-18T12:59:47Z</time><name>PT7443</name></trkpt>
<trkpt lat="53.455783" lon="05.900790"><ele>11.6</ele><time>2021-02-18T12:59:47Z</time><name>PT7444</name></trkpt>
<trkpt lat="53.455785" lon="05.900804"><ele>11.7</ele><time>2021-02-18T12:59:48Z</time><name>PT7445</name></trkpt>
<trkpt lat="53.455786" lon="05.900820"><ele>11.6</ele><time>2021-02-18T12:59:50Z</time><name>PT7446</name></trkpt>
<trkpt lat="53.455789" lon="05.900832"><ele>11.7</ele><time>2021-02-18T12:59:50Z</time><name>PT7447</name></trkpt>
<trkpt lat="53.455792" lon="05.900844"><ele>11.7</ele><time>2021-02-18T12:59:51Z</time><name>PT7448</name></trkpt>
<trkpt lat="53.455795" lon="05.900854"><ele>11.7</ele><time>2021-02-18T12:59:53Z</time><name>PT7449</name></trkpt>
<trkpt lat="53.455796" lon="05.900867"><ele>11.7</ele><time>2021-02-18T12:59:53Z</time><name>PT7450</name></trkpt>
<trkpt lat="53.455800" lon="05.900881"><ele>11.7</ele><time>2021-02-18T12:59:54Z</time><name>PT7451</name></trkpt>
<trkpt lat="53.455803" lon="05.900894"><ele>11.6</ele><time>2021-02-18T12:59:56Z</time><name>PT7452</name></trkpt>
<trkpt lat="53.455805" lon="05.900908"><ele>11.5</ele><time>2021-02-18T12:59:56Z</time><name>PT7453</name></trkpt>
<trkpt lat="53.455807" lon="05.900923"><ele>11.7</ele><time>2021-02-18T12:59:57Z</time><name>PT7454</name></trkpt>
<trkpt lat="53.455810" lon="05.900936"><ele>11.7</ele><time>2021-02-18T12:59:59Z</time><name>PT7455</name></trkpt>
<trkpt lat="53.455815" lon="05.900950"><ele>11.7</ele><time>2021-02-18T12:59:59Z</time><name>PT7456</name></trkpt>
<trkpt lat="53.455819" lon="05.900961"><ele>11.6</ele><time>2021-02-18T13:00:00Z</time><name>PT7457</name></trkpt>
<trkpt lat="53.455821" lon="05.900972"><ele>11.4</ele><time>2021-02-18T13:00:02Z</time><name>PT7458</name></trkpt>
<trkpt lat="53.455824" lon="05.900986"><ele>11.3</ele><time>2021-02-18T13:00:02Z</time><name>PT7459</name></trkpt>
<trkpt lat="53.455825" lon="05.901003"><ele>11.7</ele><time>2021-02-18T13:00:03Z</time><name>PT7460</name></trkpt>
<trkpt lat="53.455826" lon="05.901019"><ele>11.7</ele><time>2021-02-18T13:00:05Z</time><name>PT7461</name></trkpt>
<trkpt lat="53.455829" lon="05.901034"><ele>11.6</ele><time>2021-02-18T13:00:05Z</time><name>PT7462</name></trkpt>
<trkpt lat="53.455833" lon="05.901046"><ele>11.7</ele><time>2021-02-18T13:00:06Z</time><name>PT7463</name></trkpt>
<trkpt lat="53.455836" lon="05.901060"><ele>11.2</ele><time>2021-02-18T13:00:08Z</time><name>PT7464</name></trkpt>
<trkpt lat="53.455840" lon="05.901073"><ele>11.2</ele><time>2021-02-18T13:00:08Z</time><name>PT7465</name></trkpt>
<trkpt lat="53.455842" lon="05.901088"><ele>11.2</ele><time>2021-02-18T13:00:09Z</time><name>PT7466</name></trkpt>
<trkpt lat="53.455844" lon="05.901104"><ele>11.1</ele><time>2021-02-18T13:00:11Z</time><name>PT7467</name></trkpt>
<trkpt lat="53.455849" lon="05.901117"><ele>11.1</ele><time>2021-02-18T13:00:11Z</time><name>PT7468</name></trkpt>
<trkpt lat="53.455853" lon="05.901130"><ele>11.2</ele><time>2021-02-18T13:00:12Z</time><name>PT7469</name></trkpt>
<trkpt lat="53.455859" lon="05.901139"><ele>11.2</ele><time>2021-02-18T13:00:14Z</time><name>PT7470</name></trkpt>
<trkpt lat="53.455864" lon="05.901148"><ele>11.4</ele><time>2021-02-18T13:00:14Z</time><name>PT7471</name></trkpt>
<trkpt lat="53.455868" lon="05.901160"><ele>11.6</ele><time>2021-02-18T13:00:15Z</time><name>PT7472</name></trkpt>
<trkpt lat="53.455872" lon="05.901173"><ele>11.4</ele><time>2021-02-18T13:00:17Z</time><name>PT7473</name></trkpt>
<trkpt lat="53.455876" lon="05.901190"><ele>11.4</ele><time>2021-02-18T13:00:17Z</time><name>PT7474</name></trkpt>
<trkpt lat="53.455881" lon="05.901206"><ele>11.4</ele><time>2021-02-18T13:00:18Z</time><name>PT7475</name></trkpt>
<trkpt lat="53.455887" lon="05.901222"><ele>11.4</ele><time>2021-02-18T13:00:20Z</time><name>PT7476</name></trkpt>
<trkpt lat="53.455893" lon="05.901238"><ele>11.6</ele><time>2021-02-18T13:00:20Z</time><name>PT7477</name></trkpt>
<trkpt lat="53.455899" lon="05.901254"><ele>11.5</ele><time>2021-02-18T13:00:21Z</time><name>PT7478</name></trkpt>
<trkpt lat="53.455903" lon="05.901268"><ele>11.7</ele><time>2021-02-18T13:00:23Z</time><name>PT7479</name></trkpt>
<trkpt lat="53.455908" lon="05.901281"><ele>11.7</ele><time>2021-02-18T13:00:23Z</time><name>PT7480</name></trkpt>
<trkpt lat="53.455911" lon="05.901296"><ele>11.7</ele><time>2021-02-18T13:00:24Z</time><name>PT7481</name></trkpt>
<trkpt lat="53.455915" lon="05.901310"><ele>11.7</ele><time>2021-02-18T13:00:26Z</time><name>PT7482</name></trkpt>
<trkpt lat="53.455917" lon="05.901328"><ele>11.7</ele><time>2021-02-18T13:00:26Z</time><name>PT7483</name></trkpt>
<trkpt lat="53.455923" lon="05.901342"><ele>11.9</ele><time>2021-02-18T13:00:27Z</time><name>PT7484</name></trkpt>
<trkpt lat="53.455929" lon="05.901353"><ele>12</ele><time>2021-02-18T13:00:29Z</time><name>PT7485</name></trkpt>
<trkpt lat="53.455933" lon="05.901369"><ele>11.9</ele><time>2021-02-18T13:00:29Z</time><name>PT7486</name></trkpt>
<trkpt lat="53.455937" lon="05.901387"><ele>12.1</ele><time>2021-02-18T13:00:30Z</time><name>PT7487</name></trkpt>
<trkpt lat="53.455941" lon="05.901403"><ele>11.9</ele><time>2021-02-18T13:00:32Z</time><name>PT7488</name></trkpt>
<trkpt lat="53.455946" lon="05.901418"><ele>11.9</ele><time>2021-02-18T13:00:32Z</time><name>PT7489</name></trkpt>
<trkpt lat="53.455951" lon="05.901432"><ele>11.7</ele><time>2021-02-18T13:00:33Z</time><name>PT7490</name></trkpt>
<trkpt lat="53.455957" lon="05.901444"><ele>11.9</ele><time>2021-02-18T13:00:35Z</time><name>PT7491</name></trkpt>
<trkpt lat="53.455963" lon="05.901457"><ele>12.1</ele><time>2021-02-18T13:00:35Z</time><name>PT7492</name></trkpt>
<trkpt lat="53.455969" lon="05.901471"><ele>12.3</ele><time>2021-02-18T13:00:36Z</time><name>PT7493</name></trkpt>
<trkpt lat="53.455974" lon="05.901488"><ele>12.7</ele><time>2021-02-18T13:00:38Z</time><name>PT7494</name></trkpt>
<trkpt lat="53.455978" lon="05.901503"><ele>12.7</ele><time>2021-02-18T13:00:38Z</time><name>PT7495</name></trkpt>
<trkpt lat="53.455984" lon="05.901520"><ele>12.7</ele><time>2021-02-18T13:00:39Z</time><name>PT7496</name></trkpt>
<trkpt lat="53.455987" lon="05.901539"><ele>12.5</ele><time>2021-02-18T13:00:41Z</time><name>PT7497</name></trkpt>
<trkpt lat="53.455992" lon="05.901554"><ele>12.2</ele><time>2021-02-18T13:00:41Z</time><name>PT7498</name></trkpt>
<trkpt lat="53.455996" lon="05.901569"><ele>12.2</ele><time>2021-02-18T13:00:42Z</time><name>PT7499</name></trkpt>
<trkpt lat="53.456003" lon="05.901579"><ele>12</ele><time>2021-02-18T13:00:44Z</time><name>PT7500</name></trkpt>
<trkpt lat="53.456012" lon="05.901583"><ele>11.9</ele><time>2021-02-18T13:00:44Z</time><name>PT7501</name></trkpt>
<trkpt lat="53.456020" lon="05.901585"><ele>11.8</ele><time>2021-02-18T13:00:45Z</time><name>PT7502</name></trkpt>
<trkpt lat="53.456027" lon="05.901588"><ele>11.8</ele><time>2021-02-18T13:00:47Z</time><name>PT7503</name></trkpt>
<trkpt lat="53.456037" lon="05.901592"><ele>11.8</ele><time>2021-02-18T13:00:47Z</time><name>PT7504</name></trkpt>
<trkpt lat="53.456045" lon="05.901600"><ele>12</ele><time>2021-02-18T13:00:48Z</time><name>PT7505</name></trkpt>
<trkpt lat="53.456054" lon="05.901609"><ele>12</ele><time>2021-02-18T13:00:50Z</time><name>PT7506</name></trkpt>
<trkpt lat="53.456063" lon="05.901619"><ele>11.8</ele><time>2021-02-18T13:00:50Z</time><name>PT7507</name></trkpt>
<trkpt lat="53.456072" lon="05.901627"><ele>11.9</ele><time>2021-02-18T13:00:51Z</time><name>PT7508</name></trkpt>
<trkpt lat="53.456079" lon="05.901633"><ele>11.7</ele><time>2021-02-18T13:00:53Z</time><name>PT7509</name></trkpt>
<trkpt lat="53.456086" lon="05.901639"><ele>11.7</ele><time>2021-02-18T13:00:53Z</time><name>PT7510</name></trkpt>
<trkpt lat="53.456094" lon="05.901647"><ele>11.9</ele><time>2021-02-18T13:00:54Z</time><name>PT7511</name></trkpt>
<trkpt lat="53.456102" lon="05.901655"><ele>12</ele><time>2021-02-18T13:00:56Z</time><name>PT7512</name></trkpt>
<trkpt lat="53.456110" lon="05.901660"><ele>12.2</ele><time>2021-02-18T13:00:56Z</time><name>PT7513</name></trkpt>
<trkpt lat="53.456117" lon="05.901666"><ele>12.5</ele><time>2021-02-18T13:00:57Z</time><name>PT7514</name></trkpt>
<trkpt lat="53.456123" lon="05.901673"><ele>12.6</ele><time>2021-02-18T13:00:59Z</time><name>PT7515</name></trkpt>
<trkpt lat="53.456130" lon="05.901681"><ele>12.7</ele><time>2021-02-18T13:00:59Z</time><name>PT7516</name></trkpt>
<trkpt lat="53.456138" lon="05.901686"><ele>12.7</ele><time>2021-02-18T13:01:00Z</time><name>PT7517</name></trkpt>
<trkpt lat="53.456145" lon="05.901693"><ele>12.6</ele><time>2021-02-18T13:01:02Z</time><name>PT7518</name></trkpt>
<trkpt lat="53.456153" lon="05.901697"><ele>12.7</ele><time>2021-02-18T13:01:02Z</time><name>PT7519</name></trkpt>
<trkpt lat="53.456158" lon="05.901703"><ele>12.8</ele><time>2021-02-18T13:01:03Z</time><name>PT7520</name></trkpt>
<trkpt lat="53.456159" lon="05.901707"><ele>12.9</ele><time>2021-02-18T13:01:05Z</time><name>PT7521</name></trkpt>
<trkpt lat="53.456159" lon="05.901708"><ele>13</ele><time>2021-02-18T13:01:05Z</time><name>PT7522</name></trkpt>
<trkpt lat="53.456161" lon="05.901708"><ele>12.8</ele><time>2021-02-18T13:01:06Z</time><name>PT7523</name></trkpt>
<trkpt lat="53.456162" lon="05.901707"><ele>12.8</ele><time>2021-02-18T13:01:08Z</time><name>PT7524</name></trkpt>
<trkpt lat="53.456161" lon="05.901707"><ele>12.7</ele><time>2021-02-18T13:01:50Z</time><name>PT7525</name></trkpt>
<trkpt lat="53.456162" lon="05.901705"><ele>12.6</ele><time>2021-02-18T13:01:50Z</time><name>PT7526</name></trkpt>
<trkpt lat="53.456161" lon="05.901710"><ele>12.4</ele><time>2021-02-18T13:02:38Z</time><name>PT7527</name></trkpt>
<trkpt lat="53.456153" lon="05.901723"><ele>12.2</ele><time>2021-02-18T13:02:39Z</time><name>PT7528</name></trkpt>
<trkpt lat="53.456149" lon="05.901732"><ele>11.8</ele><time>2021-02-18T13:02:41Z</time><name>PT7529</name></trkpt>
<trkpt lat="53.456149" lon="05.901742"><ele>11.7</ele><time>2021-02-18T13:02:41Z</time><name>PT7530</name></trkpt>
<trkpt lat="53.456148" lon="05.901754"><ele>11.9</ele><time>2021-02-18T13:02:42Z</time><name>PT7531</name></trkpt>
<trkpt lat="53.456149" lon="05.901766"><ele>12.3</ele><time>2021-02-18T13:02:44Z</time><name>PT7532</name></trkpt>
<trkpt lat="53.456149" lon="05.901778"><ele>12.7</ele><time>2021-02-18T13:02:44Z</time><name>PT7533</name></trkpt>
<trkpt lat="53.456148" lon="05.901786"><ele>12.9</ele><time>2021-02-18T13:02:45Z</time><name>PT7534</name></trkpt>
<trkpt lat="53.456146" lon="05.901792"><ele>12.7</ele><time>2021-02-18T13:02:47Z</time><name>PT7535</name></trkpt>
<trkpt lat="53.456145" lon="05.901794"><ele>12.6</ele><time>2021-02-18T13:02:47Z</time><name>PT7536</name></trkpt>
<trkpt lat="53.456144" lon="05.901804"><ele>12.5</ele><time>2021-02-18T13:02:48Z</time><name>PT7537</name></trkpt>
<trkpt lat="53.456143" lon="05.901818"><ele>12.7</ele><time>2021-02-18T13:02:50Z</time><name>PT7538</name></trkpt>
<trkpt lat="53.456145" lon="05.901832"><ele>12.7</ele><time>2021-02-18T13:02:50Z</time><name>PT7539</name></trkpt>
<trkpt lat="53.456146" lon="05.901854"><ele>12.8</ele><time>2021-02-18T13:02:51Z</time><name>PT7540</name></trkpt>
<trkpt lat="53.456150" lon="05.901869"><ele>12.9</ele><time>2021-02-18T13:02:53Z</time><name>PT7541</name></trkpt>
<trkpt lat="53.456152" lon="05.901882"><ele>12.9</ele><time>2021-02-18T13:02:53Z</time><name>PT7542</name></trkpt>
<trkpt lat="53.456156" lon="05.901900"><ele>12.9</ele><time>2021-02-18T13:02:54Z</time><name>PT7543</name></trkpt>
<trkpt lat="53.456160" lon="05.901916"><ele>13</ele><time>2021-02-18T13:02:56Z</time><name>PT7544</name></trkpt>
<trkpt lat="53.456164" lon="05.901933"><ele>13.1</ele><time>2021-02-18T13:02:56Z</time><name>PT7545</name></trkpt>
<trkpt lat="53.456168" lon="05.901947"><ele>13.2</ele><time>2021-02-18T13:02:57Z</time><name>PT7546</name></trkpt>
<trkpt lat="53.456173" lon="05.901959"><ele>13</ele><time>2021-02-18T13:02:59Z</time><name>PT7547</name></trkpt>
<trkpt lat="53.456179" lon="05.901972"><ele>13</ele><time>2021-02-18T13:02:59Z</time><name>PT7548</name></trkpt>
<trkpt lat="53.456183" lon="05.901980"><ele>13</ele><time>2021-02-18T13:03:00Z</time><name>PT7549</name></trkpt>
<trkpt lat="53.456187" lon="05.901990"><ele>12.7</ele><time>2021-02-18T13:03:02Z</time><name>PT7550</name></trkpt>
<trkpt lat="53.456191" lon="05.902001"><ele>12.7</ele><time>2021-02-18T13:03:02Z</time><name>PT7551</name></trkpt>
<trkpt lat="53.456196" lon="05.902013"><ele>12.7</ele><time>2021-02-18T13:03:03Z</time><name>PT7552</name></trkpt>
<trkpt lat="53.456200" lon="05.902027"><ele>12.7</ele><time>2021-02-18T13:03:05Z</time><name>PT7553</name></trkpt>
<trkpt lat="53.456202" lon="05.902040"><ele>12.7</ele><time>2021-02-18T13:03:05Z</time><name>PT7554</name></trkpt>
<trkpt lat="53.456207" lon="05.902052"><ele>12.9</ele><time>2021-02-18T13:03:06Z</time><name>PT7555</name></trkpt>
<trkpt lat="53.456215" lon="05.902062"><ele>12.9</ele><time>2021-02-18T13:03:08Z</time><name>PT7556</name></trkpt>
<trkpt lat="53.456221" lon="05.902075"><ele>12.7</ele><time>2021-02-18T13:03:08Z</time><name>PT7557</name></trkpt>
<trkpt lat="53.456225" lon="05.902089"><ele>12.9</ele><time>2021-02-18T13:03:09Z</time><name>PT7558</name></trkpt>
<trkpt lat="53.456232" lon="05.902097"><ele>12.9</ele><time>2021-02-18T13:03:11Z</time><name>PT7559</name></trkpt>
<trkpt lat="53.456238" lon="05.902109"><ele>12.7</ele><time>2021-02-18T13:03:11Z</time><name>PT7560</name></trkpt>
<trkpt lat="53.456245" lon="05.902121"><ele>12.7</ele><time>2021-02-18T13:03:12Z</time><name>PT7561</name></trkpt>
<trkpt lat="53.456249" lon="05.902135"><ele>12.7</ele><time>2021-02-18T13:03:14Z</time><name>PT7562</name></trkpt>
<trkpt lat="53.456251" lon="05.902148"><ele>12.7</ele><time>2021-02-18T13:03:14Z</time><name>PT7563</name></trkpt>
<trkpt lat="53.456252" lon="05.902163"><ele>12.7</ele><time>2021-02-18T13:03:15Z</time><name>PT7564</name></trkpt>
<trkpt lat="53.456253" lon="05.902177"><ele>12.6</ele><time>2021-02-18T13:03:17Z</time><name>PT7565</name></trkpt>
<trkpt lat="53.456254" lon="05.902191"><ele>12.6</ele><time>2021-02-18T13:03:17Z</time><name>PT7566</name></trkpt>
<trkpt lat="53.456254" lon="05.902205"><ele>12.7</ele><time>2021-02-18T13:03:18Z</time><name>PT7567</name></trkpt>
<trkpt lat="53.456253" lon="05.902219"><ele>12.6</ele><time>2021-02-18T13:03:20Z</time><name>PT7568</name></trkpt>
<trkpt lat="53.456254" lon="05.902232"><ele>12.8</ele><time>2021-02-18T13:03:20Z</time><name>PT7569</name></trkpt>
<trkpt lat="53.456254" lon="05.902243"><ele>13</ele><time>2021-02-18T13:03:21Z</time><name>PT7570</name></trkpt>
<trkpt lat="53.456254" lon="05.902257"><ele>13.1</ele><time>2021-02-18T13:03:23Z</time><name>PT7571</name></trkpt>
<trkpt lat="53.456254" lon="05.902271"><ele>13.1</ele><time>2021-02-18T13:03:23Z</time><name>PT7572</name></trkpt>
<trkpt lat="53.456253" lon="05.902286"><ele>13.2</ele><time>2021-02-18T13:03:24Z</time><name>PT7573</name></trkpt>
<trkpt lat="53.456255" lon="05.902298"><ele>13.2</ele><time>2021-02-18T13:03:26Z</time><name>PT7574</name></trkpt>
<trkpt lat="53.456260" lon="05.902311"><ele>13.1</ele><time>2021-02-18T13:03:26Z</time><name>PT7575</name></trkpt>
<trkpt lat="53.456264" lon="05.902323"><ele>13.1</ele><time>2021-02-18T13:03:27Z</time><name>PT7576</name></trkpt>
<trkpt lat="53.456266" lon="05.902335"><ele>12.9</ele><time>2021-02-18T13:03:29Z</time><name>PT7577</name></trkpt>
<trkpt lat="53.456268" lon="05.902343"><ele>12.8</ele><time>2021-02-18T13:03:29Z</time><name>PT7578</name></trkpt>
<trkpt lat="53.456272" lon="05.902355"><ele>12.7</ele><time>2021-02-18T13:03:30Z</time><name>PT7579</name></trkpt>
<trkpt lat="53.456273" lon="05.902371"><ele>12.5</ele><time>2021-02-18T13:03:32Z</time><name>PT7580</name></trkpt>
<trkpt lat="53.456276" lon="05.902381"><ele>12.2</ele><time>2021-02-18T13:03:32Z</time><name>PT7581</name></trkpt>
<trkpt lat="53.456278" lon="05.902392"><ele>12.1</ele><time>2021-02-18T13:03:33Z</time><name>PT7582</name></trkpt>
<trkpt lat="53.456277" lon="05.902394"><ele>12.1</ele><time>2021-02-18T13:03:35Z</time><name>PT7583</name></trkpt>
<trkpt lat="53.456274" lon="05.902399"><ele>11.9</ele><time>2021-02-18T13:03:35Z</time><name>PT7584</name></trkpt>
<trkpt lat="53.456271" lon="05.902404"><ele>11.6</ele><time>2021-02-18T13:03:36Z</time><name>PT7585</name></trkpt>
<trkpt lat="53.456271" lon="05.902412"><ele>11.7</ele><time>2021-02-18T13:03:38Z</time><name>PT7586</name></trkpt>
<trkpt lat="53.456272" lon="05.902424"><ele>11.7</ele><time>2021-02-18T13:03:38Z</time><name>PT7587</name></trkpt>
<trkpt lat="53.456273" lon="05.902438"><ele>11.7</ele><time>2021-02-18T13:03:39Z</time><name>PT7588</name></trkpt>
<trkpt lat="53.456274" lon="05.902449"><ele>12</ele><time>2021-02-18T13:03:41Z</time><name>PT7589</name></trkpt>
<trkpt lat="53.456275" lon="05.902459"><ele>12.2</ele><time>2021-02-18T13:03:41Z</time><name>PT7590</name></trkpt>
<trkpt lat="53.456276" lon="05.902467"><ele>12.2</ele><time>2021-02-18T13:03:42Z</time><name>PT7591</name></trkpt>
<trkpt lat="53.456279" lon="05.902472"><ele>12.1</ele><time>2021-02-18T13:03:44Z</time><name>PT7592</name></trkpt>
<trkpt lat="53.456279" lon="05.902481"><ele>12.2</ele><time>2021-02-18T13:03:44Z</time><name>PT7593</name></trkpt>
<trkpt lat="53.456280" lon="05.902494"><ele>12.1</ele><time>2021-02-18T13:03:45Z</time><name>PT7594</name></trkpt>
<trkpt lat="53.456281" lon="05.902507"><ele>12</ele><time>2021-02-18T13:03:47Z</time><name>PT7595</name></trkpt>
<trkpt lat="53.456285" lon="05.902520"><ele>12.2</ele><time>2021-02-18T13:03:47Z</time><name>PT7596</name></trkpt>
<trkpt lat="53.456288" lon="05.902532"><ele>12.2</ele><time>2021-02-18T13:03:48Z</time><name>PT7597</name></trkpt>
<trkpt lat="53.456288" lon="05.902547"><ele>12.2</ele><time>2021-02-18T13:03:50Z</time><name>PT7598</name></trkpt>
<trkpt lat="53.456288" lon="05.902559"><ele>12.2</ele><time>2021-02-18T13:03:50Z</time><name>PT7599</name></trkpt>
<trkpt lat="53.456289" lon="05.902571"><ele>12.3</ele><time>2021-02-18T13:03:51Z</time><name>PT7600</name></trkpt>
<trkpt lat="53.456290" lon="05.902583"><ele>12.3</ele><time>2021-02-18T13:03:53Z</time><name>PT7601</name></trkpt>
<trkpt lat="53.456291" lon="05.902601"><ele>12.4</ele><time>2021-02-18T13:03:53Z</time><name>PT7602</name></trkpt>
<trkpt lat="53.456291" lon="05.902614"><ele>12.7</ele><time>2021-02-18T13:03:54Z</time><name>PT7603</name></trkpt>
<trkpt lat="53.456292" lon="05.902626"><ele>12.7</ele><time>2021-02-18T13:03:56Z</time><name>PT7604</name></trkpt>
<trkpt lat="53.456294" lon="05.902640"><ele>12.7</ele><time>2021-02-18T13:03:56Z</time><name>PT7605</name></trkpt>
<trkpt lat="53.456297" lon="05.902654"><ele>12.7</ele><time>2021-02-18T13:03:57Z</time><name>PT7606</name></trkpt>
<trkpt lat="53.456298" lon="05.902667"><ele>12.8</ele><time>2021-02-18T13:03:59Z</time><name>PT7607</name></trkpt>
<trkpt lat="53.456299" lon="05.902682"><ele>12.7</ele><time>2021-02-18T13:03:59Z</time><name>PT7608</name></trkpt>
<trkpt lat="53.456303" lon="05.902698"><ele>12.7</ele><time>2021-02-18T13:04:00Z</time><name>PT7609</name></trkpt>
<trkpt lat="53.456307" lon="05.902712"><ele>12.7</ele><time>2021-02-18T13:04:02Z</time><name>PT7610</name></trkpt>
<trkpt lat="53.456311" lon="05.902727"><ele>12.7</ele><time>2021-02-18T13:04:02Z</time><name>PT7611</name></trkpt>
<trkpt lat="53.456314" lon="05.902740"><ele>12.7</ele><time>2021-02-18T13:04:03Z</time><name>PT7612</name></trkpt>
<trkpt lat="53.456314" lon="05.902751"><ele>12.7</ele><time>2021-02-18T13:04:05Z</time><name>PT7613</name></trkpt>
<trkpt lat="53.456317" lon="05.902763"><ele>12.6</ele><time>2021-02-18T13:04:05Z</time><name>PT7614</name></trkpt>
<trkpt lat="53.456320" lon="05.902772"><ele>12.4</ele><time>2021-02-18T13:04:06Z</time><name>PT7615</name></trkpt>
<trkpt lat="53.456322" lon="05.902787"><ele>12.2</ele><time>2021-02-18T13:04:08Z</time><name>PT7616</name></trkpt>
<trkpt lat="53.456325" lon="05.902793"><ele>12.1</ele><time>2021-02-18T13:04:08Z</time><name>PT7617</name></trkpt>
<trkpt lat="53.456329" lon="05.902802"><ele>11.9</ele><time>2021-02-18T13:04:09Z</time><name>PT7618</name></trkpt>
<trkpt lat="53.456333" lon="05.902815"><ele>12</ele><time>2021-02-18T13:04:11Z</time><name>PT7619</name></trkpt>
<trkpt lat="53.456337" lon="05.902820"><ele>11.9</ele><time>2021-02-18T13:04:11Z</time><name>PT7620</name></trkpt>
<trkpt lat="53.456338" lon="05.902822"><ele>12.1</ele><time>2021-02-18T13:04:12Z</time><name>PT7621</name></trkpt>
<trkpt lat="53.456337" lon="05.902828"><ele>12</ele><time>2021-02-18T13:04:14Z</time><name>PT7622</name></trkpt>
<trkpt lat="53.456339" lon="05.902827"><ele>12</ele><time>2021-02-18T13:04:14Z</time><name>PT7623</name></trkpt>
<trkpt lat="53.456343" lon="05.902837"><ele>12</ele><time>2021-02-18T13:04:56Z</time><name>PT7624</name></trkpt>
<trkpt lat="53.456347" lon="05.902855"><ele>11.9</ele><time>2021-02-18T13:04:57Z</time><name>PT7625</name></trkpt>
<trkpt lat="53.456354" lon="05.902878"><ele>12.1</ele><time>2021-02-18T13:04:59Z</time><name>PT7626</name></trkpt>
<trkpt lat="53.456360" lon="05.902900"><ele>12</ele><time>2021-02-18T13:04:59Z</time><name>PT7627</name></trkpt>
<trkpt lat="53.456365" lon="05.902922"><ele>11.8</ele><time>2021-02-18T13:05:00Z</time><name>PT7628</name></trkpt>
<trkpt lat="53.456367" lon="05.902943"><ele>11.8</ele><time>2021-02-18T13:05:02Z</time><name>PT7629</name></trkpt>
<trkpt lat="53.456368" lon="05.902961"><ele>11.9</ele><time>2021-02-18T13:05:02Z</time><name>PT7630</name></trkpt>
<trkpt lat="53.456370" lon="05.902978"><ele>11.8</ele><time>2021-02-18T13:05:03Z</time><name>PT7631</name></trkpt>
<trkpt lat="53.456370" lon="05.903001"><ele>12.1</ele><time>2021-02-18T13:05:05Z</time><name>PT7632</name></trkpt>
<trkpt lat="53.456372" lon="05.903019"><ele>12.2</ele><time>2021-02-18T13:05:05Z</time><name>PT7633</name></trkpt>
<trkpt lat="53.456375" lon="05.903036"><ele>11.8</ele><time>2021-02-18T13:05:06Z</time><name>PT7634</name></trkpt>
<trkpt lat="53.456377" lon="05.903052"><ele>11.8</ele><time>2021-02-18T13:05:08Z</time><name>PT7635</name></trkpt>
<trkpt lat="53.456381" lon="05.903068"><ele>11.7</ele><time>2021-02-18T13:05:08Z</time><name>PT7636</name></trkpt>
<trkpt lat="53.456385" lon="05.903084"><ele>11.5</ele><time>2021-02-18T13:05:09Z</time><name>PT7637</name></trkpt>
<trkpt lat="53.456390" lon="05.903102"><ele>12</ele><time>2021-02-18T13:05:11Z</time><name>PT7638</name></trkpt>
<trkpt lat="53.456394" lon="05.903116"><ele>12.1</ele><time>2021-02-18T13:05:11Z</time><name>PT7639</name></trkpt>
<trkpt lat="53.456396" lon="05.903131"><ele>12.1</ele><time>2021-02-18T13:05:12Z</time><name>PT7640</name></trkpt>
<trkpt lat="53.456401" lon="05.903144"><ele>12.2</ele><time>2021-02-18T13:05:14Z</time><name>PT7641</name></trkpt>
<trkpt lat="53.456406" lon="05.903157"><ele>12.2</ele><time>2021-02-18T13:05:14Z</time><name>PT7642</name></trkpt>
<trkpt lat="53.456411" lon="05.903170"><ele>12.1</ele><time>2021-02-18T13:05:15Z</time><name>PT7643</name></trkpt>
<trkpt lat="53.456418" lon="05.903183"><ele>11.9</ele><time>2021-02-18T13:05:17Z</time><name>PT7644</name></trkpt>
<trkpt lat="53.456426" lon="05.903186"><ele>11.8</ele><time>2021-02-18T13:05:17Z</time><name>PT7645</name></trkpt>
<trkpt lat="53.456438" lon="05.903189"><ele>11.7</ele><time>2021-02-18T13:05:18Z</time><name>PT7646</name></trkpt>
<trkpt lat="53.456449" lon="05.903188"><ele>11.5</ele><time>2021-02-18T13:05:20Z</time><name>PT7647</name></trkpt>
<trkpt lat="53.456459" lon="05.903183"><ele>11.5</ele><time>2021-02-18T13:05:20Z</time><name>PT7648</name></trkpt>
<trkpt lat="53.456465" lon="05.903177"><ele>11.6</ele><time>2021-02-18T13:05:21Z</time><name>PT7649</name></trkpt>
<trkpt lat="53.456473" lon="05.903175"><ele>11.7</ele><time>2021-02-18T13:05:23Z</time><name>PT7650</name></trkpt>
<trkpt lat="53.456481" lon="05.903175"><ele>11.7</ele><time>2021-02-18T13:05:23Z</time><name>PT7651</name></trkpt>
<trkpt lat="53.456487" lon="05.903175"><ele>11.7</ele><time>2021-02-18T13:05:24Z</time><name>PT7652</name></trkpt>
<trkpt lat="53.456496" lon="05.903173"><ele>11.8</ele><time>2021-02-18T13:05:26Z</time><name>PT7653</name></trkpt>
<trkpt lat="53.456502" lon="05.903171"><ele>11.8</ele><time>2021-02-18T13:05:26Z</time><name>PT7654</name></trkpt>
<trkpt lat="53.456509" lon="05.903169"><ele>12</ele><time>2021-02-18T13:05:27Z</time><name>PT7655</name></trkpt>
<trkpt lat="53.456517" lon="05.903165"><ele>12.2</ele><time>2021-02-18T13:05:29Z</time><name>PT7656</name></trkpt>
<trkpt lat="53.456524" lon="05.903161"><ele>12.1</ele><time>2021-02-18T13:05:29Z</time><name>PT7657</name></trkpt>
<trkpt lat="53.456532" lon="05.903158"><ele>12</ele><time>2021-02-18T13:05:30Z</time><name>PT7658</name></trkpt>
<trkpt lat="53.456538" lon="05.903152"><ele>12</ele><time>2021-02-18T13:05:32Z</time><name>PT7659</name></trkpt>
<trkpt lat="53.456541" lon="05.903151"><ele>12</ele><time>2021-02-18T13:05:32Z</time><name>PT7660</name></trkpt>
<trkpt lat="53.456547" lon="05.903152"><ele>12</ele><time>2021-02-18T13:05:33Z</time><name>PT7661</name></trkpt>
<trkpt lat="53.456555" lon="05.903152"><ele>12.3</ele><time>2021-02-18T13:05:35Z</time><name>PT7662</name></trkpt>
<trkpt lat="53.456563" lon="05.903148"><ele>12.4</ele><time>2021-02-18T13:05:35Z</time><name>PT7663</name></trkpt>
<trkpt lat="53.456570" lon="05.903142"><ele>12.6</ele><time>2021-02-18T13:05:36Z</time><name>PT7664</name></trkpt>
<trkpt lat="53.456579" lon="05.903137"><ele>12.9</ele><time>2021-02-18T13:05:38Z</time><name>PT7665</name></trkpt>
<trkpt lat="53.456588" lon="05.903135"><ele>13</ele><time>2021-02-18T13:05:38Z</time><name>PT7666</name></trkpt>
<trkpt lat="53.456597" lon="05.903132"><ele>13.3</ele><time>2021-02-18T13:05:39Z</time><name>PT7667</name></trkpt>
<trkpt lat="53.456604" lon="05.903128"><ele>13.4</ele><time>2021-02-18T13:05:41Z</time><name>PT7668</name></trkpt>
<trkpt lat="53.456610" lon="05.903123"><ele>13.5</ele><time>2021-02-18T13:05:41Z</time><name>PT7669</name></trkpt>
<trkpt lat="53.456616" lon="05.903120"><ele>13.5</ele><time>2021-02-18T13:05:42Z</time><name>PT7670</name></trkpt>
<trkpt lat="53.456621" lon="05.903115"><ele>13.7</ele><time>2021-02-18T13:05:44Z</time><name>PT7671</name></trkpt>
<trkpt lat="53.456629" lon="05.903110"><ele>13.7</ele><time>2021-02-18T13:05:44Z</time><name>PT7672</name></trkpt>
<trkpt lat="53.456635" lon="05.903107"><ele>14</ele><time>2021-02-18T13:05:45Z</time><name>PT7673</name></trkpt>
<trkpt lat="53.456642" lon="05.903101"><ele>14.2</ele><time>2021-02-18T13:05:47Z</time><name>PT7674</name></trkpt>
<trkpt lat="53.456650" lon="05.903098"><ele>14.4</ele><time>2021-02-18T13:05:47Z</time><name>PT7675</name></trkpt>
<trkpt lat="53.456656" lon="05.903092"><ele>14.4</ele><time>2021-02-18T13:05:48Z</time><name>PT7676</name></trkpt>
<trkpt lat="53.456661" lon="05.903086"><ele>14.7</ele><time>2021-02-18T13:05:50Z</time><name>PT7677</name></trkpt>
<trkpt lat="53.456670" lon="05.903081"><ele>14.8</ele><time>2021-02-18T13:05:50Z</time><name>PT7678</name></trkpt>
<trkpt lat="53.456676" lon="05.903070"><ele>15.2</ele><time>2021-02-18T13:05:51Z</time><name>PT7679</name></trkpt>
<trkpt lat="53.456682" lon="05.903062"><ele>15.4</ele><time>2021-02-18T13:05:53Z</time><name>PT7680</name></trkpt>
<trkpt lat="53.456687" lon="05.903058"><ele>15.5</ele><time>2021-02-18T13:05:53Z</time><name>PT7681</name></trkpt>
<trkpt lat="53.456694" lon="05.903054"><ele>15.7</ele><time>2021-02-18T13:05:54Z</time><name>PT7682</name></trkpt>
<trkpt lat="53.456703" lon="05.903050"><ele>15.5</ele><time>2021-02-18T13:05:56Z</time><name>PT7683</name></trkpt>
<trkpt lat="53.456711" lon="05.903047"><ele>15.7</ele><time>2021-02-18T13:05:56Z</time><name>PT7684</name></trkpt>
<trkpt lat="53.456719" lon="05.903044"><ele>16.1</ele><time>2021-02-18T13:05:57Z</time><name>PT7685</name></trkpt>
<trkpt lat="53.456727" lon="05.903041"><ele>16.2</ele><time>2021-02-18T13:05:59Z</time><name>PT7686</name></trkpt>
<trkpt lat="53.456735" lon="05.903036"><ele>16.4</ele><time>2021-02-18T13:05:59Z</time><name>PT7687</name></trkpt>
<trkpt lat="53.456743" lon="05.903031"><ele>16.4</ele><time>2021-02-18T13:06:00Z</time><name>PT7688</name></trkpt>
<trkpt lat="53.456753" lon="05.903025"><ele>16.6</ele><time>2021-02-18T13:06:02Z</time><name>PT7689</name></trkpt>
<trkpt lat="53.456762" lon="05.903021"><ele>16.7</ele><time>2021-02-18T13:06:02Z</time><name>PT7690</name></trkpt>
<trkpt lat="53.456771" lon="05.903017"><ele>16.8</ele><time>2021-02-18T13:06:03Z</time><name>PT7691</name></trkpt>
<trkpt lat="53.456778" lon="05.903015"><ele>17.1</ele><time>2021-02-18T13:06:05Z</time><name>PT7692</name></trkpt>
<trkpt lat="53.456786" lon="05.903014"><ele>17.2</ele><time>2021-02-18T13:06:05Z</time><name>PT7693</name></trkpt>
<trkpt lat="53.456794" lon="05.903014"><ele>17.3</ele><time>2021-02-18T13:06:06Z</time><name>PT7694</name></trkpt>
<trkpt lat="53.456800" lon="05.903011"><ele>17.6</ele><time>2021-02-18T13:06:08Z</time><name>PT7695</name></trkpt>
<trkpt lat="53.456808" lon="05.903009"><ele>17.7</ele><time>2021-02-18T13:06:08Z</time><name>PT7696</name></trkpt>
<trkpt lat="53.456816" lon="05.903004"><ele>17.7</ele><time>2021-02-18T13:06:09Z</time><name>PT7697</name></trkpt>
<trkpt lat="53.456827" lon="05.902990"><ele>18</ele><time>2021-02-18T13:06:11Z</time><name>PT7698</name></trkpt>
<trkpt lat="53.456836" lon="05.902983"><ele>18</ele><time>2021-02-18T13:06:11Z</time><name>PT7699</name></trkpt>
<trkpt lat="53.456845" lon="05.902978"><ele>18.2</ele><time>2021-02-18T13:06:12Z</time><name>PT7700</name></trkpt>
<trkpt lat="53.456852" lon="05.902973"><ele>18.3</ele><time>2021-02-18T13:06:14Z</time><name>PT7701</name></trkpt>
<trkpt lat="53.456857" lon="05.902968"><ele>18.2</ele><time>2021-02-18T13:06:14Z</time><name>PT7702</name></trkpt>
<trkpt lat="53.456865" lon="05.902963"><ele>18.3</ele><time>2021-02-18T13:06:15Z</time><name>PT7703</name></trkpt>
<trkpt lat="53.456872" lon="05.902957"><ele>18.6</ele><time>2021-02-18T13:06:17Z</time><name>PT7704</name></trkpt>
<trkpt lat="53.456881" lon="05.902952"><ele>18.8</ele><time>2021-02-18T13:06:17Z</time><name>PT7705</name></trkpt>
<trkpt lat="53.456889" lon="05.902948"><ele>19.3</ele><time>2021-02-18T13:06:18Z</time><name>PT7706</name></trkpt>
<trkpt lat="53.456898" lon="05.902944"><ele>19.5</ele><time>2021-02-18T13:06:20Z</time><name>PT7707</name></trkpt>
<trkpt lat="53.456905" lon="05.902939"><ele>19.7</ele><time>2021-02-18T13:06:20Z</time><name>PT7708</name></trkpt>
<trkpt lat="53.456912" lon="05.902933"><ele>19.7</ele><time>2021-02-18T13:06:21Z</time><name>PT7709</name></trkpt>
<trkpt lat="53.456920" lon="05.902926"><ele>19.9</ele><time>2021-02-18T13:06:23Z</time><name>PT7710</name></trkpt>
<trkpt lat="53.456927" lon="05.902918"><ele>20.1</ele><time>2021-02-18T13:06:23Z</time><name>PT7711</name></trkpt>
<trkpt lat="53.456936" lon="05.902913"><ele>20.4</ele><time>2021-02-18T13:06:24Z</time><name>PT7712</name></trkpt>
<trkpt lat="53.456943" lon="05.902907"><ele>20.5</ele><time>2021-02-18T13:06:26Z</time><name>PT7713</name></trkpt>
<trkpt lat="53.456951" lon="05.902899"><ele>20.3</ele><time>2021-02-18T13:06:26Z</time><name>PT7714</name></trkpt>
<trkpt lat="53.456960" lon="05.902893"><ele>20.5</ele><time>2021-02-18T13:06:27Z</time><name>PT7715</name></trkpt>
<trkpt lat="53.456970" lon="05.902890"><ele>20.5</ele><time>2021-02-18T13:06:29Z</time><name>PT7716</name></trkpt>
<trkpt lat="53.456978" lon="05.902884"><ele>20.5</ele><time>2021-02-18T13:06:29Z</time><name>PT7717</name></trkpt>
<trkpt lat="53.456986" lon="05.902876"><ele>20.8</ele><time>2021-02-18T13:06:30Z</time><name>PT7718</name></trkpt>
<trkpt lat="53.456994" lon="05.902868"><ele>21.1</ele><time>2021-02-18T13:06:32Z</time><name>PT7719</name></trkpt>
<trkpt lat="53.457003" lon="05.902862"><ele>21.1</ele><time>2021-02-18T13:06:32Z</time><name>PT7720</name></trkpt>
<trkpt lat="53.457012" lon="05.902856"><ele>21.2</ele><time>2021-02-18T13:06:33Z</time><name>PT7721</name></trkpt>
<trkpt lat="53.457020" lon="05.902848"><ele>21.3</ele><time>2021-02-18T13:06:35Z</time><name>PT7722</name></trkpt>
<trkpt lat="53.457029" lon="05.902843"><ele>21.2</ele><time>2021-02-18T13:06:35Z</time><name>PT7723</name></trkpt>
<trkpt lat="53.457037" lon="05.902838"><ele>21.3</ele><time>2021-02-18T13:06:36Z</time><name>PT7724</name></trkpt>
<trkpt lat="53.457046" lon="05.902834"><ele>21.5</ele><time>2021-02-18T13:06:38Z</time><name>PT7725</name></trkpt>
<trkpt lat="53.457054" lon="05.902829"><ele>21.7</ele><time>2021-02-18T13:06:38Z</time><name>PT7726</name></trkpt>
<trkpt lat="53.457062" lon="05.902824"><ele>21.8</ele><time>2021-02-18T13:06:39Z</time><name>PT7727</name></trkpt>
<trkpt lat="53.457070" lon="05.902816"><ele>21.8</ele><time>2021-02-18T13:06:41Z</time><name>PT7728</name></trkpt>
<trkpt lat="53.457079" lon="05.902807"><ele>21.9</ele><time>2021-02-18T13:06:41Z</time><name>PT7729</name></trkpt>
<trkpt lat="53.457087" lon="05.902798"><ele>22</ele><time>2021-02-18T13:06:42Z</time><name>PT7730</name></trkpt>
<trkpt lat="53.457094" lon="05.902791"><ele>22.2</ele><time>2021-02-18T13:06:44Z</time><name>PT7731</name></trkpt>
<trkpt lat="53.457101" lon="05.902783"><ele>22.3</ele><time>2021-02-18T13:06:44Z</time><name>PT7732</name></trkpt>
<trkpt lat="53.457109" lon="05.902779"><ele>22.5</ele><time>2021-02-18T13:06:45Z</time><name>PT7733</name></trkpt>
<trkpt lat="53.457118" lon="05.902776"><ele>22.6</ele><time>2021-02-18T13:06:47Z</time><name>PT7734</name></trkpt>
<trkpt lat="53.457127" lon="05.902770"><ele>22.8</ele><time>2021-02-18T13:06:47Z</time><name>PT7735</name></trkpt>
<trkpt lat="53.457134" lon="05.902763"><ele>23</ele><time>2021-02-18T13:06:48Z</time><name>PT7736</name></trkpt>
<trkpt lat="53.457143" lon="05.902756"><ele>23.1</ele><time>2021-02-18T13:06:50Z</time><name>PT7737</name></trkpt>
<trkpt lat="53.457152" lon="05.902749"><ele>23.2</ele><time>2021-02-18T13:06:50Z</time><name>PT7738</name></trkpt>
<trkpt lat="53.457159" lon="05.902742"><ele>23.3</ele><time>2021-02-18T13:06:51Z</time><name>PT7739</name></trkpt>
<trkpt lat="53.457167" lon="05.902736"><ele>23.4</ele><time>2021-02-18T13:06:53Z</time><name>PT7740</name></trkpt>
<trkpt lat="53.457175" lon="05.902731"><ele>23.6</ele><time>2021-02-18T13:06:53Z</time><name>PT7741</name></trkpt>
<trkpt lat="53.457183" lon="05.902728"><ele>23.7</ele><time>2021-02-18T13:06:54Z</time><name>PT7742</name></trkpt>
<trkpt lat="53.457193" lon="05.902720"><ele>23.9</ele><time>2021-02-18T13:06:56Z</time><name>PT7743</name></trkpt>
<trkpt lat="53.457203" lon="05.902713"><ele>24</ele><time>2021-02-18T13:06:56Z</time><name>PT7744</name></trkpt>
<trkpt lat="53.457211" lon="05.902708"><ele>24.2</ele><time>2021-02-18T13:06:57Z</time><name>PT7745</name></trkpt>
<trkpt lat="53.457220" lon="05.902704"><ele>24.3</ele><time>2021-02-18T13:06:59Z</time><name>PT7746</name></trkpt>
<trkpt lat="53.457228" lon="05.902697"><ele>24.7</ele><time>2021-02-18T13:06:59Z</time><name>PT7747</name></trkpt>
<trkpt lat="53.457234" lon="05.902699"><ele>24.8</ele><time>2021-02-18T13:07:00Z</time><name>PT7748</name></trkpt>
<trkpt lat="53.457242" lon="05.902697"><ele>24.8</ele><time>2021-02-18T13:07:02Z</time><name>PT7749</name></trkpt>
<trkpt lat="53.457251" lon="05.902696"><ele>24.9</ele><time>2021-02-18T13:07:02Z</time><name>PT7750</name></trkpt>
<trkpt lat="53.457256" lon="05.902695"><ele>25.1</ele><time>2021-02-18T13:07:03Z</time><name>PT7751</name></trkpt>
<trkpt lat="53.457262" lon="05.902696"><ele>25.3</ele><time>2021-02-18T13:07:05Z</time><name>PT7752</name></trkpt>
<trkpt lat="53.457270" lon="05.902700"><ele>25.5</ele><time>2021-02-18T13:07:05Z</time><name>PT7753</name></trkpt>
<trkpt lat="53.457277" lon="05.902704"><ele>25.5</ele><time>2021-02-18T13:07:06Z</time><name>PT7754</name></trkpt>
<trkpt lat="53.457286" lon="05.902707"><ele>25.5</ele><time>2021-02-18T13:07:08Z</time><name>PT7755</name></trkpt>
<trkpt lat="53.457295" lon="05.902714"><ele>25.5</ele><time>2021-02-18T13:07:08Z</time><name>PT7756</name></trkpt>
<trkpt lat="53.457303" lon="05.902720"><ele>25.6</ele><time>2021-02-18T13:07:09Z</time><name>PT7757</name></trkpt>
<trkpt lat="53.457308" lon="05.902725"><ele>25.8</ele><time>2021-02-18T13:07:11Z</time><name>PT7758</name></trkpt>
<trkpt lat="53.457313" lon="05.902732"><ele>25.8</ele><time>2021-02-18T13:07:11Z</time><name>PT7759</name></trkpt>
<trkpt lat="53.457317" lon="05.902737"><ele>25.8</ele><time>2021-02-18T13:07:12Z</time><name>PT7760</name></trkpt>
<trkpt lat="53.457324" lon="05.902741"><ele>25.8</ele><time>2021-02-18T13:07:14Z</time><name>PT7761</name></trkpt>
<trkpt lat="53.457330" lon="05.902746"><ele>25.8</ele><time>2021-02-18T13:07:14Z</time><name>PT7762</name></trkpt>
<trkpt lat="53.457332" lon="05.902751"><ele>26</ele><time>2021-02-18T13:07:15Z</time><name>PT7763</name></trkpt>
<trkpt lat="53.457337" lon="05.902759"><ele>26</ele><time>2021-02-18T13:07:17Z</time><name>PT7764</name></trkpt>
<trkpt lat="53.457344" lon="05.902765"><ele>26.2</ele><time>2021-02-18T13:07:17Z</time><name>PT7765</name></trkpt>
<trkpt lat="53.457351" lon="05.902772"><ele>26.4</ele><time>2021-02-18T13:07:18Z</time><name>PT7766</name></trkpt>
<trkpt lat="53.457352" lon="05.902778"><ele>26.6</ele><time>2021-02-18T13:07:20Z</time><name>PT7767</name></trkpt>
<trkpt lat="53.457355" lon="05.902786"><ele>26.6</ele><time>2021-02-18T13:07:20Z</time><name>PT7768</name></trkpt>
<trkpt lat="53.457361" lon="05.902793"><ele>26.9</ele><time>2021-02-18T13:07:21Z</time><name>PT7769</name></trkpt>
<trkpt lat="53.457366" lon="05.902801"><ele>27.3</ele><time>2021-02-18T13:07:23Z</time><name>PT7770</name></trkpt>
<trkpt lat="53.457371" lon="05.902806"><ele>27.3</ele><time>2021-02-18T13:07:23Z</time><name>PT7771</name></trkpt>
<trkpt lat="53.457374" lon="05.902813"><ele>27.5</ele><time>2021-02-18T13:07:24Z</time><name>PT7772</name></trkpt>
<trkpt lat="53.457378" lon="05.902820"><ele>27.6</ele><time>2021-02-18T13:07:26Z</time><name>PT7773</name></trkpt>
<trkpt lat="53.457382" lon="05.902825"><ele>27.6</ele><time>2021-02-18T13:07:26Z</time><name>PT7774</name></trkpt>
<trkpt lat="53.457383" lon="05.902831"><ele>27.8</ele><time>2021-02-18T13:07:27Z</time><name>PT7775</name></trkpt>
<trkpt lat="53.457383" lon="05.902837"><ele>28</ele><time>2021-02-18T13:07:29Z</time><name>PT7776</name></trkpt>
<trkpt lat="53.457385" lon="05.902843"><ele>28.1</ele><time>2021-02-18T13:07:29Z</time><name>PT7777</name></trkpt>
<trkpt lat="53.457387" lon="05.902848"><ele>28.2</ele><time>2021-02-18T13:07:30Z</time><name>PT7778</name></trkpt>
<trkpt lat="53.457391" lon="05.902855"><ele>28.3</ele><time>2021-02-18T13:07:32Z</time><name>PT7779</name></trkpt>
<trkpt lat="53.457394" lon="05.902859"><ele>28.4</ele><time>2021-02-18T13:07:32Z</time><name>PT7780</name></trkpt>
<trkpt lat="53.457396" lon="05.902865"><ele>28.5</ele><time>2021-02-18T13:07:33Z</time><name>PT7781</name></trkpt>
<trkpt lat="53.457401" lon="05.902871"><ele>28.7</ele><time>2021-02-18T13:07:35Z</time><name>PT7782</name></trkpt>
<trkpt lat="53.457403" lon="05.902877"><ele>28.8</ele><time>2021-02-18T13:07:35Z</time><name>PT7783</name></trkpt>
<trkpt lat="53.457404" lon="05.902886"><ele>28.8</ele><time>2021-02-18T13:07:36Z</time><name>PT7784</name></trkpt>
<trkpt lat="53.457404" lon="05.902895"><ele>29</ele><time>2021-02-18T13:07:38Z</time><name>PT7785</name></trkpt>
<trkpt lat="53.457408" lon="05.902903"><ele>29.2</ele><time>2021-02-18T13:07:38Z</time><name>PT7786</name></trkpt>
<trkpt lat="53.457410" lon="05.902911"><ele>29.3</ele><time>2021-02-18T13:07:39Z</time><name>PT7787</name></trkpt>
<trkpt lat="53.457413" lon="05.902916"><ele>29.6</ele><time>2021-02-18T13:07:41Z</time><name>PT7788</name></trkpt>
<trkpt lat="53.457417" lon="05.902922"><ele>29.9</ele><time>2021-02-18T13:07:41Z</time><name>PT7789</name></trkpt>
<trkpt lat="53.457423" lon="05.902928"><ele>30.1</ele><time>2021-02-18T13:07:42Z</time><name>PT7790</name></trkpt>
<trkpt lat="53.457427" lon="05.902932"><ele>30.4</ele><time>2021-02-18T13:07:44Z</time><name>PT7791</name></trkpt>
<trkpt lat="53.457432" lon="05.902937"><ele>30.5</ele><time>2021-02-18T13:07:44Z</time><name>PT7792</name></trkpt>
<trkpt lat="53.457436" lon="05.902944"><ele>30.6</ele><time>2021-02-18T13:07:45Z</time><name>PT7793</name></trkpt>
<trkpt lat="53.457439" lon="05.902950"><ele>30.9</ele><time>2021-02-18T13:07:47Z</time><name>PT7794</name></trkpt>
<trkpt lat="53.457445" lon="05.902955"><ele>30.9</ele><time>2021-02-18T13:07:47Z</time><name>PT7795</name></trkpt>
<trkpt lat="53.457446" lon="05.902962"><ele>31.9</ele><time>2021-02-18T13:07:50Z</time><name>PT7796</name></trkpt>
<trkpt lat="53.457450" lon="05.902969"><ele>32.1</ele><time>2021-02-18T13:07:51Z</time><name>PT7797</name></trkpt>
<trkpt lat="53.457455" lon="05.902975"><ele>32.3</ele><time>2021-02-18T13:07:53Z</time><name>PT7798</name></trkpt>
<trkpt lat="53.457459" lon="05.902977"><ele>32.3</ele><time>2021-02-18T13:07:53Z</time><name>PT7799</name></trkpt>
<trkpt lat="53.457460" lon="05.902986"><ele>32.3</ele><time>2021-02-18T13:07:54Z</time><name>PT7800</name></trkpt>
<trkpt lat="53.457463" lon="05.902995"><ele>32.5</ele><time>2021-02-18T13:07:56Z</time><name>PT7801</name></trkpt>
<trkpt lat="53.457468" lon="05.903001"><ele>32.5</ele><time>2021-02-18T13:07:56Z</time><name>PT7802</name></trkpt>
<trkpt lat="53.457469" lon="05.903009"><ele>32.6</ele><time>2021-02-18T13:07:57Z</time><name>PT7803</name></trkpt>
<trkpt lat="53.457472" lon="05.903015"><ele>32.7</ele><time>2021-02-18T13:07:59Z</time><name>PT7804</name></trkpt>
<trkpt lat="53.457474" lon="05.903022"><ele>32.6</ele><time>2021-02-18T13:07:59Z</time><name>PT7805</name></trkpt>
<trkpt lat="53.457477" lon="05.903027"><ele>32.8</ele><time>2021-02-18T13:08:00Z</time><name>PT7806</name></trkpt>
<trkpt lat="53.457478" lon="05.903037"><ele>32.8</ele><time>2021-02-18T13:08:02Z</time><name>PT7807</name></trkpt>
<trkpt lat="53.457481" lon="05.903045"><ele>32.9</ele><time>2021-02-18T13:08:02Z</time><name>PT7808</name></trkpt>
<trkpt lat="53.457484" lon="05.903051"><ele>33.1</ele><time>2021-02-18T13:08:03Z</time><name>PT7809</name></trkpt>
<trkpt lat="53.457485" lon="05.903056"><ele>33.4</ele><time>2021-02-18T13:08:05Z</time><name>PT7810</name></trkpt>
<trkpt lat="53.457487" lon="05.903064"><ele>33.5</ele><time>2021-02-18T13:08:05Z</time><name>PT7811</name></trkpt>
<trkpt lat="53.457489" lon="05.903069"><ele>33.9</ele><time>2021-02-18T13:08:06Z</time><name>PT7812</name></trkpt>
<trkpt lat="53.457489" lon="05.903075"><ele>34.1</ele><time>2021-02-18T13:08:08Z</time><name>PT7813</name></trkpt>
<trkpt lat="53.457492" lon="05.903082"><ele>34.1</ele><time>2021-02-18T13:08:08Z</time><name>PT7814</name></trkpt>
<trkpt lat="53.457494" lon="05.903088"><ele>34.2</ele><time>2021-02-18T13:08:09Z</time><name>PT7815</name></trkpt>
<trkpt lat="53.457497" lon="05.903094"><ele>34.2</ele><time>2021-02-18T13:08:11Z</time><name>PT7816</name></trkpt>
<trkpt lat="53.457496" lon="05.903102"><ele>34.3</ele><time>2021-02-18T13:08:11Z</time><name>PT7817</name></trkpt>
<trkpt lat="53.457494" lon="05.903107"><ele>34.4</ele><time>2021-02-18T13:08:12Z</time><name>PT7818</name></trkpt>
<trkpt lat="53.457491" lon="05.903113"><ele>34.5</ele><time>2021-02-18T13:08:14Z</time><name>PT7819</name></trkpt>
<trkpt lat="53.457487" lon="05.903114"><ele>35</ele><time>2021-02-18T13:08:35Z</time><name>PT7820</name></trkpt>
<trkpt lat="53.457482" lon="05.903120"><ele>35</ele><time>2021-02-18T13:08:35Z</time><name>PT7821</name></trkpt>
<trkpt lat="53.457473" lon="05.903141"><ele>35</ele><time>2021-02-18T13:08:36Z</time><name>PT7822</name></trkpt>
<trkpt lat="53.457471" lon="05.903149"><ele>35</ele><time>2021-02-18T13:08:38Z</time><name>PT7823</name></trkpt>
<trkpt lat="53.457469" lon="05.903153"><ele>35.3</ele><time>2021-02-18T13:08:38Z</time><name>PT7824</name></trkpt>
<trkpt lat="53.457470" lon="05.903160"><ele>35.4</ele><time>2021-02-18T13:08:39Z</time><name>PT7825</name></trkpt>
<trkpt lat="53.457473" lon="05.903165"><ele>35.5</ele><time>2021-02-18T13:08:41Z</time><name>PT7826</name></trkpt>
<trkpt lat="53.457474" lon="05.903171"><ele>35.5</ele><time>2021-02-18T13:08:41Z</time><name>PT7827</name></trkpt>
<trkpt lat="53.457476" lon="05.903173"><ele>35.3</ele><time>2021-02-18T13:08:42Z</time><name>PT7828</name></trkpt>
<trkpt lat="53.457477" lon="05.903178"><ele>35.1</ele><time>2021-02-18T13:08:44Z</time><name>PT7829</name></trkpt>
<trkpt lat="53.457478" lon="05.903182"><ele>35.1</ele><time>2021-02-18T13:08:44Z</time><name>PT7830</name></trkpt>
<trkpt lat="53.457479" lon="05.903190"><ele>35</ele><time>2021-02-18T13:08:45Z</time><name>PT7831</name></trkpt>
<trkpt lat="53.457485" lon="05.903192"><ele>35.2</ele><time>2021-02-18T13:12:03Z</time><name>PT7832</name></trkpt>
<trkpt lat="53.457493" lon="05.903184"><ele>35.2</ele><time>2021-02-18T13:12:05Z</time><name>PT7833</name></trkpt>
<trkpt lat="53.457500" lon="05.903173"><ele>35.4</ele><time>2021-02-18T13:12:05Z</time><name>PT7834</name></trkpt>
<trkpt lat="53.457503" lon="05.903161"><ele>35.3</ele><time>2021-02-18T13:12:06Z</time><name>PT7835</name></trkpt>
<trkpt lat="53.457506" lon="05.903150"><ele>35.1</ele><time>2021-02-18T13:12:08Z</time><name>PT7836</name></trkpt>
<trkpt lat="53.457508" lon="05.903148"><ele>35</ele><time>2021-02-18T13:12:08Z</time><name>PT7837</name></trkpt>
<trkpt lat="53.457511" lon="05.903147"><ele>35</ele><time>2021-02-18T13:12:09Z</time><name>PT7838</name></trkpt>
<trkpt lat="53.457515" lon="05.903139"><ele>35.2</ele><time>2021-02-18T13:12:14Z</time><name>PT7839</name></trkpt>
<trkpt lat="53.457519" lon="05.903140"><ele>35.3</ele><time>2021-02-18T13:12:14Z</time><name>PT7840</name></trkpt>
<trkpt lat="53.457522" lon="05.903139"><ele>35.4</ele><time>2021-02-18T13:12:15Z</time><name>PT7841</name></trkpt>
<trkpt lat="53.457526" lon="05.903131"><ele>35.4</ele><time>2021-02-18T13:12:17Z</time><name>PT7842</name></trkpt>
<trkpt lat="53.457530" lon="05.903128"><ele>35.5</ele><time>2021-02-18T13:12:17Z</time><name>PT7843</name></trkpt>
<trkpt lat="53.457533" lon="05.903123"><ele>35.8</ele><time>2021-02-18T13:12:18Z</time><name>PT7844</name></trkpt>
<trkpt lat="53.457534" lon="05.903121"><ele>35.8</ele><time>2021-02-18T13:12:20Z</time><name>PT7845</name></trkpt>
<trkpt lat="53.457538" lon="05.903121"><ele>35.8</ele><time>2021-02-18T13:12:20Z</time><name>PT7846</name></trkpt>
<trkpt lat="53.457541" lon="05.903122"><ele>35.4</ele><time>2021-02-18T13:12:21Z</time><name>PT7847</name></trkpt>
<trkpt lat="53.457543" lon="05.903114"><ele>35.1</ele><time>2021-02-18T13:12:36Z</time><name>PT7848</name></trkpt>
<trkpt lat="53.457552" lon="05.903103"><ele>34.9</ele><time>2021-02-18T13:12:38Z</time><name>PT7849</name></trkpt>
<trkpt lat="53.457559" lon="05.903093"><ele>34.8</ele><time>2021-02-18T13:12:38Z</time><name>PT7850</name></trkpt>
<trkpt lat="53.457566" lon="05.903087"><ele>34.8</ele><time>2021-02-18T13:12:39Z</time><name>PT7851</name></trkpt>
<trkpt lat="53.457573" lon="05.903081"><ele>34.8</ele><time>2021-02-18T13:12:41Z</time><name>PT7852</name></trkpt>
<trkpt lat="53.457577" lon="05.903074"><ele>34.9</ele><time>2021-02-18T13:12:41Z</time><name>PT7853</name></trkpt>
<trkpt lat="53.457581" lon="05.903068"><ele>34.9</ele><time>2021-02-18T13:12:42Z</time><name>PT7854</name></trkpt>
<trkpt lat="53.457585" lon="05.903065"><ele>34.9</ele><time>2021-02-18T13:12:44Z</time><name>PT7855</name></trkpt>
<trkpt lat="53.457592" lon="05.903060"><ele>34.1</ele><time>2021-02-18T13:12:50Z</time><name>PT7856</name></trkpt>
<trkpt lat="53.457601" lon="05.903053"><ele>34.3</ele><time>2021-02-18T13:12:50Z</time><name>PT7857</name></trkpt>
<trkpt lat="53.457609" lon="05.903047"><ele>34.6</ele><time>2021-02-18T13:12:51Z</time><name>PT7858</name></trkpt>
<trkpt lat="53.457617" lon="05.903039"><ele>34.7</ele><time>2021-02-18T13:12:53Z</time><name>PT7859</name></trkpt>
<trkpt lat="53.457624" lon="05.903032"><ele>34.9</ele><time>2021-02-18T13:12:53Z</time><name>PT7860</name></trkpt>
<trkpt lat="53.457630" lon="05.903028"><ele>34.5</ele><time>2021-02-18T13:12:54Z</time><name>PT7861</name></trkpt>
<trkpt lat="53.457635" lon="05.903028"><ele>34.3</ele><time>2021-02-18T13:12:56Z</time><name>PT7862</name></trkpt>
<trkpt lat="53.457640" lon="05.903022"><ele>34.3</ele><time>2021-02-18T13:12:56Z</time><name>PT7863</name></trkpt>
<trkpt lat="53.457647" lon="05.903017"><ele>34.1</ele><time>2021-02-18T13:12:57Z</time><name>PT7864</name></trkpt>
<trkpt lat="53.457653" lon="05.903013"><ele>34</ele><time>2021-02-18T13:12:59Z</time><name>PT7865</name></trkpt>
<trkpt lat="53.457658" lon="05.903008"><ele>34.1</ele><time>2021-02-18T13:12:59Z</time><name>PT7866</name></trkpt>
<trkpt lat="53.457664" lon="05.903000"><ele>33.9</ele><time>2021-02-18T13:13:00Z</time><name>PT7867</name></trkpt>
<trkpt lat="53.457671" lon="05.902992"><ele>33.9</ele><time>2021-02-18T13:13:02Z</time><name>PT7868</name></trkpt>
<trkpt lat="53.457677" lon="05.902984"><ele>33.9</ele><time>2021-02-18T13:13:02Z</time><name>PT7869</name></trkpt>
<trkpt lat="53.457684" lon="05.902978"><ele>33.7</ele><time>2021-02-18T13:13:03Z</time><name>PT7870</name></trkpt>
<trkpt lat="53.457691" lon="05.902973"><ele>33.4</ele><time>2021-02-18T13:13:05Z</time><name>PT7871</name></trkpt>
<trkpt lat="53.457697" lon="05.902971"><ele>33.4</ele><time>2021-02-18T13:13:05Z</time><name>PT7872</name></trkpt>
<trkpt lat="53.457703" lon="05.902964"><ele>33.1</ele><time>2021-02-18T13:13:06Z</time><name>PT7873</name></trkpt>
<trkpt lat="53.457707" lon="05.902959"><ele>33.2</ele><time>2021-02-18T13:13:08Z</time><name>PT7874</name></trkpt>
<trkpt lat="53.457712" lon="05.902955"><ele>33</ele><time>2021-02-18T13:13:08Z</time><name>PT7875</name></trkpt>
<trkpt lat="53.457717" lon="05.902951"><ele>32.9</ele><time>2021-02-18T13:13:09Z</time><name>PT7876</name></trkpt>
<trkpt lat="53.457725" lon="05.902944"><ele>33</ele><time>2021-02-18T13:13:11Z</time><name>PT7877</name></trkpt>
<trkpt lat="53.457732" lon="05.902940"><ele>32.9</ele><time>2021-02-18T13:13:11Z</time><name>PT7878</name></trkpt>
<trkpt lat="53.457737" lon="05.902937"><ele>32.9</ele><time>2021-02-18T13:13:12Z</time><name>PT7879</name></trkpt>
<trkpt lat="53.457744" lon="05.902933"><ele>32.9</ele><time>2021-02-18T13:13:14Z</time><name>PT7880</name></trkpt>
<trkpt lat="53.457751" lon="05.902925"><ele>32.9</ele><time>2021-02-18T13:13:14Z</time><name>PT7881</name></trkpt>
<trkpt lat="53.457757" lon="05.902918"><ele>32.8</ele><time>2021-02-18T13:13:15Z</time><name>PT7882</name></trkpt>
<trkpt lat="53.457763" lon="05.902910"><ele>32.6</ele><time>2021-02-18T13:13:17Z</time><name>PT7883</name></trkpt>
<trkpt lat="53.457770" lon="05.902902"><ele>32.4</ele><time>2021-02-18T13:13:17Z</time><name>PT7884</name></trkpt>
<trkpt lat="53.457776" lon="05.902896"><ele>32.4</ele><time>2021-02-18T13:13:18Z</time><name>PT7885</name></trkpt>
<trkpt lat="53.457782" lon="05.902890"><ele>32.4</ele><time>2021-02-18T13:13:20Z</time><name>PT7886</name></trkpt>
<trkpt lat="53.457786" lon="05.902885"><ele>32.4</ele><time>2021-02-18T13:13:20Z</time><name>PT7887</name></trkpt>
<trkpt lat="53.457792" lon="05.902880"><ele>32.4</ele><time>2021-02-18T13:13:21Z</time><name>PT7888</name></trkpt>
<trkpt lat="53.457795" lon="05.902876"><ele>32.2</ele><time>2021-02-18T13:13:23Z</time><name>PT7889</name></trkpt>
<trkpt lat="53.457801" lon="05.902871"><ele>32.1</ele><time>2021-02-18T13:13:23Z</time><name>PT7890</name></trkpt>
<trkpt lat="53.457810" lon="05.902870"><ele>32</ele><time>2021-02-18T13:13:24Z</time><name>PT7891</name></trkpt>
<trkpt lat="53.457816" lon="05.902866"><ele>31.9</ele><time>2021-02-18T13:13:26Z</time><name>PT7892</name></trkpt>
<trkpt lat="53.457823" lon="05.902860"><ele>31.7</ele><time>2021-02-18T13:13:26Z</time><name>PT7893</name></trkpt>
<trkpt lat="53.457829" lon="05.902855"><ele>31.4</ele><time>2021-02-18T13:13:27Z</time><name>PT7894</name></trkpt>
<trkpt lat="53.457833" lon="05.902851"><ele>31.2</ele><time>2021-02-18T13:13:29Z</time><name>PT7895</name></trkpt>
<trkpt lat="53.457840" lon="05.902848"><ele>31.1</ele><time>2021-02-18T13:13:29Z</time><name>PT7896</name></trkpt>
<trkpt lat="53.457846" lon="05.902846"><ele>31.2</ele><time>2021-02-18T13:13:30Z</time><name>PT7897</name></trkpt>
<trkpt lat="53.457849" lon="05.902846"><ele>31.1</ele><time>2021-02-18T13:13:32Z</time><name>PT7898</name></trkpt>
<trkpt lat="53.457855" lon="05.902846"><ele>31</ele><time>2021-02-18T13:13:32Z</time><name>PT7899</name></trkpt>
<trkpt lat="53.457860" lon="05.902838"><ele>30.9</ele><time>2021-02-18T13:13:33Z</time><name>PT7900</name></trkpt>
<trkpt lat="53.457866" lon="05.902838"><ele>30.6</ele><time>2021-02-18T13:13:35Z</time><name>PT7901</name></trkpt>
<trkpt lat="53.457870" lon="05.902830"><ele>30.6</ele><time>2021-02-18T13:13:35Z</time><name>PT7902</name></trkpt>
<trkpt lat="53.457875" lon="05.902825"><ele>30.5</ele><time>2021-02-18T13:13:36Z</time><name>PT7903</name></trkpt>
<trkpt lat="53.457879" lon="05.902820"><ele>30.3</ele><time>2021-02-18T13:13:38Z</time><name>PT7904</name></trkpt>
<trkpt lat="53.457884" lon="05.902821"><ele>30.3</ele><time>2021-02-18T13:13:38Z</time><name>PT7905</name></trkpt>
<trkpt lat="53.457892" lon="05.902821"><ele>30.2</ele><time>2021-02-18T13:13:39Z</time><name>PT7906</name></trkpt>
<trkpt lat="53.457901" lon="05.902820"><ele>30.1</ele><time>2021-02-18T13:13:41Z</time><name>PT7907</name></trkpt>
<trkpt lat="53.457907" lon="05.902820"><ele>30.1</ele><time>2021-02-18T13:13:41Z</time><name>PT7908</name></trkpt>
<trkpt lat="53.457914" lon="05.902820"><ele>30.2</ele><time>2021-02-18T13:13:42Z</time><name>PT7909</name></trkpt>
<trkpt lat="53.457925" lon="05.902820"><ele>30.2</ele><time>2021-02-18T13:13:44Z</time><name>PT7910</name></trkpt>
<trkpt lat="53.457937" lon="05.902823"><ele>30.2</ele><time>2021-02-18T13:13:44Z</time><name>PT7911</name></trkpt>
<trkpt lat="53.457947" lon="05.902829"><ele>30.1</ele><time>2021-02-18T13:13:45Z</time><name>PT7912</name></trkpt>
<trkpt lat="53.457952" lon="05.902834"><ele>30.1</ele><time>2021-02-18T13:13:47Z</time><name>PT7913</name></trkpt>
<trkpt lat="53.457959" lon="05.902836"><ele>29.9</ele><time>2021-02-18T13:13:47Z</time><name>PT7914</name></trkpt>
<trkpt lat="53.457970" lon="05.902838"><ele>29.8</ele><time>2021-02-18T13:13:48Z</time><name>PT7915</name></trkpt>
<trkpt lat="53.457980" lon="05.902840"><ele>29.6</ele><time>2021-02-18T13:13:50Z</time><name>PT7916</name></trkpt>
<trkpt lat="53.457991" lon="05.902841"><ele>29.4</ele><time>2021-02-18T13:13:50Z</time><name>PT7917</name></trkpt>
<trkpt lat="53.457998" lon="05.902844"><ele>29.3</ele><time>2021-02-18T13:13:51Z</time><name>PT7918</name></trkpt>
<trkpt lat="53.458005" lon="05.902846"><ele>29.2</ele><time>2021-02-18T13:13:53Z</time><name>PT7919</name></trkpt>
<trkpt lat="53.458012" lon="05.902850"><ele>29.2</ele><time>2021-02-18T13:13:53Z</time><name>PT7920</name></trkpt>
<trkpt lat="53.458022" lon="05.902852"><ele>29.2</ele><time>2021-02-18T13:13:54Z</time><name>PT7921</name></trkpt>
<trkpt lat="53.458031" lon="05.902857"><ele>29.1</ele><time>2021-02-18T13:13:56Z</time><name>PT7922</name></trkpt>
<trkpt lat="53.458037" lon="05.902862"><ele>29.1</ele><time>2021-02-18T13:13:56Z</time><name>PT7923</name></trkpt>
<trkpt lat="53.458042" lon="05.902867"><ele>29.1</ele><time>2021-02-18T13:13:57Z</time><name>PT7924</name></trkpt>
<trkpt lat="53.458048" lon="05.902872"><ele>28.9</ele><time>2021-02-18T13:13:59Z</time><name>PT7925</name></trkpt>
<trkpt lat="53.458055" lon="05.902875"><ele>28.8</ele><time>2021-02-18T13:13:59Z</time><name>PT7926</name></trkpt>
<trkpt lat="53.458062" lon="05.902876"><ele>28.7</ele><time>2021-02-18T13:14:00Z</time><name>PT7927</name></trkpt>
<trkpt lat="53.458072" lon="05.902878"><ele>28.5</ele><time>2021-02-18T13:14:02Z</time><name>PT7928</name></trkpt>
<trkpt lat="53.458078" lon="05.902881"><ele>28.6</ele><time>2021-02-18T13:14:02Z</time><name>PT7929</name></trkpt>
<trkpt lat="53.458086" lon="05.902879"><ele>28.4</ele><time>2021-02-18T13:14:03Z</time><name>PT7930</name></trkpt>
<trkpt lat="53.458094" lon="05.902878"><ele>28.3</ele><time>2021-02-18T13:14:05Z</time><name>PT7931</name></trkpt>
<trkpt lat="53.458099" lon="05.902879"><ele>28.1</ele><time>2021-02-18T13:14:05Z</time><name>PT7932</name></trkpt>
<trkpt lat="53.458108" lon="05.902878"><ele>27.8</ele><time>2021-02-18T13:14:06Z</time><name>PT7933</name></trkpt>
<trkpt lat="53.458116" lon="05.902876"><ele>27.8</ele><time>2021-02-18T13:14:08Z</time><name>PT7934</name></trkpt>
<trkpt lat="53.458129" lon="05.902871"><ele>27.7</ele><time>2021-02-18T13:14:08Z</time><name>PT7935</name></trkpt>
<trkpt lat="53.458137" lon="05.902866"><ele>27.6</ele><time>2021-02-18T13:14:09Z</time><name>PT7936</name></trkpt>
<trkpt lat="53.458143" lon="05.902863"><ele>27.3</ele><time>2021-02-18T13:14:11Z</time><name>PT7937</name></trkpt>
<trkpt lat="53.458152" lon="05.902860"><ele>27.3</ele><time>2021-02-18T13:14:11Z</time><name>PT7938</name></trkpt>
<trkpt lat="53.458158" lon="05.902854"><ele>27.1</ele><time>2021-02-18T13:14:12Z</time><name>PT7939</name></trkpt>
<trkpt lat="53.458168" lon="05.902849"><ele>27</ele><time>2021-02-18T13:14:14Z</time><name>PT7940</name></trkpt>
<trkpt lat="53.458174" lon="05.902841"><ele>26.9</ele><time>2021-02-18T13:14:14Z</time><name>PT7941</name></trkpt>
<trkpt lat="53.458181" lon="05.902835"><ele>26.8</ele><time>2021-02-18T13:14:15Z</time><name>PT7942</name></trkpt>
<trkpt lat="53.458188" lon="05.902827"><ele>26.5</ele><time>2021-02-18T13:14:17Z</time><name>PT7943</name></trkpt>
<trkpt lat="53.458193" lon="05.902821"><ele>26.4</ele><time>2021-02-18T13:14:17Z</time><name>PT7944</name></trkpt>
<trkpt lat="53.458200" lon="05.902814"><ele>26.3</ele><time>2021-02-18T13:14:18Z</time><name>PT7945</name></trkpt>
<trkpt lat="53.458207" lon="05.902805"><ele>26.2</ele><time>2021-02-18T13:14:20Z</time><name>PT7946</name></trkpt>
<trkpt lat="53.458216" lon="05.902796"><ele>26.1</ele><time>2021-02-18T13:14:20Z</time><name>PT7947</name></trkpt>
<trkpt lat="53.458224" lon="05.902788"><ele>25.9</ele><time>2021-02-18T13:14:21Z</time><name>PT7948</name></trkpt>
<trkpt lat="53.458231" lon="05.902783"><ele>25.8</ele><time>2021-02-18T13:14:23Z</time><name>PT7949</name></trkpt>
<trkpt lat="53.458237" lon="05.902777"><ele>25.7</ele><time>2021-02-18T13:14:23Z</time><name>PT7950</name></trkpt>
<trkpt lat="53.458242" lon="05.902770"><ele>25.5</ele><time>2021-02-18T13:14:24Z</time><name>PT7951</name></trkpt>
<trkpt lat="53.458246" lon="05.902766"><ele>25.7</ele><time>2021-02-18T13:14:26Z</time><name>PT7952</name></trkpt>
<trkpt lat="53.458254" lon="05.902763"><ele>25.7</ele><time>2021-02-18T13:14:26Z</time><name>PT7953</name></trkpt>
<trkpt lat="53.458260" lon="05.902758"><ele>25.5</ele><time>2021-02-18T13:14:27Z</time><name>PT7954</name></trkpt>
<trkpt lat="53.458267" lon="05.902752"><ele>25.3</ele><time>2021-02-18T13:14:29Z</time><name>PT7955</name></trkpt>
<trkpt lat="53.458269" lon="05.902743"><ele>25.3</ele><time>2021-02-18T13:14:29Z</time><name>PT7956</name></trkpt>
<trkpt lat="53.458270" lon="05.902734"><ele>25.1</ele><time>2021-02-18T13:14:30Z</time><name>PT7957</name></trkpt>
<trkpt lat="53.458270" lon="05.902723"><ele>25.3</ele><time>2021-02-18T13:14:32Z</time><name>PT7958</name></trkpt>
<trkpt lat="53.458269" lon="05.902707"><ele>25.3</ele><time>2021-02-18T13:14:32Z</time><name>PT7959</name></trkpt>
<trkpt lat="53.458266" lon="05.902694"><ele>25.4</ele><time>2021-02-18T13:14:33Z</time><name>PT7960</name></trkpt>
<trkpt lat="53.458268" lon="05.902676"><ele>25.6</ele><time>2021-02-18T13:14:35Z</time><name>PT7961</name></trkpt>
<trkpt lat="53.458272" lon="05.902654"><ele>25.6</ele><time>2021-02-18T13:14:35Z</time><name>PT7962</name></trkpt>
<trkpt lat="53.458271" lon="05.902639"><ele>25.5</ele><time>2021-02-18T13:14:36Z</time><name>PT7963</name></trkpt>
<trkpt lat="53.458272" lon="05.902624"><ele>25.5</ele><time>2021-02-18T13:14:38Z</time><name>PT7964</name></trkpt>
<trkpt lat="53.458272" lon="05.902612"><ele>25.4</ele><time>2021-02-18T13:14:38Z</time><name>PT7965</name></trkpt>
<trkpt lat="53.458271" lon="05.902601"><ele>25.1</ele><time>2021-02-18T13:14:39Z</time><name>PT7966</name></trkpt>
<trkpt lat="53.458269" lon="05.902590"><ele>25.3</ele><time>2021-02-18T13:14:41Z</time><name>PT7967</name></trkpt>
<trkpt lat="53.458266" lon="05.902583"><ele>25.3</ele><time>2021-02-18T13:14:41Z</time><name>PT7968</name></trkpt>
<trkpt lat="53.458266" lon="05.902582"><ele>25.3</ele><time>2021-02-18T13:14:42Z</time><name>PT7969</name></trkpt>
<trkpt lat="53.458264" lon="05.902575"><ele>25.4</ele><time>2021-02-18T13:14:44Z</time><name>PT7970</name></trkpt>
<trkpt lat="53.458263" lon="05.902568"><ele>25.5</ele><time>2021-02-18T13:14:44Z</time><name>PT7971</name></trkpt>
<trkpt lat="53.458261" lon="05.902563"><ele>25.3</ele><time>2021-02-18T13:14:45Z</time><name>PT7972</name></trkpt>
<trkpt lat="53.458260" lon="05.902558"><ele>25.1</ele><time>2021-02-18T13:14:47Z</time><name>PT7973</name></trkpt>
<trkpt lat="53.458259" lon="05.902560"><ele>25.3</ele><time>2021-02-18T13:14:53Z</time><name>PT7974</name></trkpt>
<trkpt lat="53.458257" lon="05.902563"><ele>25.5</ele><time>2021-02-18T13:14:53Z</time><name>PT7975</name></trkpt>
<trkpt lat="53.458255" lon="05.902563"><ele>25.5</ele><time>2021-02-18T13:14:54Z</time><name>PT7976</name></trkpt>
<trkpt lat="53.458254" lon="05.902563"><ele>25.7</ele><time>2021-02-18T13:14:56Z</time><name>PT7977</name></trkpt>
<trkpt lat="53.458253" lon="05.902563"><ele>25.8</ele><time>2021-02-18T13:14:56Z</time><name>PT7978</name></trkpt>
<trkpt lat="53.458251" lon="05.902565"><ele>25.6</ele><time>2021-02-18T13:14:59Z</time><name>PT7979</name></trkpt>
<trkpt lat="53.458250" lon="05.902561"><ele>25.7</ele><time>2021-02-18T13:15:00Z</time><name>PT7980</name></trkpt>
<trkpt lat="53.458248" lon="05.902560"><ele>25.6</ele><time>2021-02-18T13:15:02Z</time><name>PT7981</name></trkpt>
<trkpt lat="53.458246" lon="05.902555"><ele>25.5</ele><time>2021-02-18T13:15:02Z</time><name>PT7982</name></trkpt>
<trkpt lat="53.458245" lon="05.902559"><ele>25.3</ele><time>2021-02-18T13:15:24Z</time><name>PT7983</name></trkpt>
<trkpt lat="53.458241" lon="05.902560"><ele>25.3</ele><time>2021-02-18T13:15:26Z</time><name>PT7984</name></trkpt>
<trkpt lat="53.458240" lon="05.902565"><ele>25.1</ele><time>2021-02-18T13:15:26Z</time><name>PT7985</name></trkpt>
<trkpt lat="53.458240" lon="05.902568"><ele>25.3</ele><time>2021-02-18T13:15:27Z</time><name>PT7986</name></trkpt>
<trkpt lat="53.458241" lon="05.902570"><ele>25.3</ele><time>2021-02-18T13:15:32Z</time><name>PT7987</name></trkpt>
<trkpt lat="53.458245" lon="05.902570"><ele>25.4</ele><time>2021-02-18T13:15:33Z</time><name>PT7988</name></trkpt>
<trkpt lat="53.458250" lon="05.902568"><ele>25.5</ele><time>2021-02-18T13:15:35Z</time><name>PT7989</name></trkpt>
<trkpt lat="53.458251" lon="05.902568"><ele>25.6</ele><time>2021-02-18T13:15:35Z</time><name>PT7990</name></trkpt>
<trkpt lat="53.458252" lon="05.902568"><ele>25.8</ele><time>2021-02-18T13:15:36Z</time><name>PT7991</name></trkpt>
<trkpt lat="53.458255" lon="05.902567"><ele>25.9</ele><time>2021-02-18T13:15:38Z</time><name>PT7992</name></trkpt>
<trkpt lat="53.458260" lon="05.902573"><ele>25.8</ele><time>2021-02-18T13:15:41Z</time><name>PT7993</name></trkpt>
<trkpt lat="53.458263" lon="05.902571"><ele>25.8</ele><time>2021-02-18T13:15:42Z</time><name>PT7994</name></trkpt>
<trkpt lat="53.458262" lon="05.902571"><ele>25.6</ele><time>2021-02-18T13:15:44Z</time><name>PT7995</name></trkpt>
<trkpt lat="53.458259" lon="05.902560"><ele>25.6</ele><time>2021-02-18T13:15:44Z</time><name>PT7996</name></trkpt>
<trkpt lat="53.458261" lon="05.902550"><ele>25.8</ele><time>2021-02-18T13:15:45Z</time><name>PT7997</name></trkpt>
<trkpt lat="53.458260" lon="05.902545"><ele>26.1</ele><time>2021-02-18T13:15:47Z</time><name>PT7998</name></trkpt>
<trkpt lat="53.458256" lon="05.902541"><ele>26.1</ele><time>2021-02-18T13:15:47Z</time><name>PT7999</name></trkpt>
<trkpt lat="53.458259" lon="05.902537"><ele>26.3</ele><time>2021-02-18T13:15:48Z</time><name>PT8000</name></trkpt>
<trkpt lat="53.458260" lon="05.902537"><ele>26.1</ele><time>2021-02-18T13:15:50Z</time><name>PT8001</name></trkpt>
<trkpt lat="53.458275" lon="05.902615"><ele>33.9</ele><time>2021-02-18T13:44:33Z</time><name>PT8002</name></trkpt>
<trkpt lat="53.458278" lon="05.902620"><ele>33.6</ele><time>2021-02-18T13:44:36Z</time><name>PT8003</name></trkpt>
<trkpt lat="53.458285" lon="05.902625"><ele>33.7</ele><time>2021-02-18T13:44:37Z</time><name>PT8004</name></trkpt>
<trkpt lat="53.458290" lon="05.902624"><ele>33.7</ele><time>2021-02-18T13:44:38Z</time><name>PT8005</name></trkpt>
<trkpt lat="53.458294" lon="05.902627"><ele>33.9</ele><time>2021-02-18T13:44:39Z</time><name>PT8006</name></trkpt>
<trkpt lat="53.458302" lon="05.902632"><ele>34</ele><time>2021-02-18T13:44:40Z</time><name>PT8007</name></trkpt>
<trkpt lat="53.458307" lon="05.902631"><ele>34</ele><time>2021-02-18T13:44:41Z</time><name>PT8008</name></trkpt>
<trkpt lat="53.458314" lon="05.902628"><ele>33.9</ele><time>2021-02-18T13:44:42Z</time><name>PT8009</name></trkpt>
<trkpt lat="53.458322" lon="05.902624"><ele>34</ele><time>2021-02-18T13:44:43Z</time><name>PT8010</name></trkpt>
<trkpt lat="53.458329" lon="05.902627"><ele>33.9</ele><time>2021-02-18T13:44:44Z</time><name>PT8011</name></trkpt>
<trkpt lat="53.458332" lon="05.902629"><ele>33.9</ele><time>2021-02-18T13:44:45Z</time><name>PT8012</name></trkpt>
<trkpt lat="53.458333" lon="05.902626"><ele>33.9</ele><time>2021-02-18T13:44:46Z</time><name>PT8013</name></trkpt>
<trkpt lat="53.458338" lon="05.902623"><ele>33.8</ele><time>2021-02-18T13:44:47Z</time><name>PT8014</name></trkpt>
<trkpt lat="53.458348" lon="05.902620"><ele>33.7</ele><time>2021-02-18T13:44:48Z</time><name>PT8015</name></trkpt>
<trkpt lat="53.458358" lon="05.902614"><ele>33.7</ele><time>2021-02-18T13:44:49Z</time><name>PT8016</name></trkpt>
<trkpt lat="53.458365" lon="05.902605"><ele>33.5</ele><time>2021-02-18T13:44:50Z</time><name>PT8017</name></trkpt>
<trkpt lat="53.458371" lon="05.902596"><ele>33.5</ele><time>2021-02-18T13:44:51Z</time><name>PT8018</name></trkpt>
<trkpt lat="53.458376" lon="05.902590"><ele>33.6</ele><time>2021-02-18T13:44:52Z</time><name>PT8019</name></trkpt>
<trkpt lat="53.458383" lon="05.902581"><ele>33.7</ele><time>2021-02-18T13:44:53Z</time><name>PT8020</name></trkpt>
<trkpt lat="53.458391" lon="05.902570"><ele>33.8</ele><time>2021-02-18T13:44:54Z</time><name>PT8021</name></trkpt>
<trkpt lat="53.458398" lon="05.902556"><ele>33.9</ele><time>2021-02-18T13:44:55Z</time><name>PT8022</name></trkpt>
<trkpt lat="53.458402" lon="05.902541"><ele>33.9</ele><time>2021-02-18T13:44:56Z</time><name>PT8023</name></trkpt>
<trkpt lat="53.458407" lon="05.902527"><ele>33.8</ele><time>2021-02-18T13:44:57Z</time><name>PT8024</name></trkpt>
<trkpt lat="53.458412" lon="05.902513"><ele>33.8</ele><time>2021-02-18T13:44:58Z</time><name>PT8025</name></trkpt>
<trkpt lat="53.458417" lon="05.902499"><ele>33.8</ele><time>2021-02-18T13:44:59Z</time><name>PT8026</name></trkpt>
<trkpt lat="53.458423" lon="05.902486"><ele>33.8</ele><time>2021-02-18T13:45:00Z</time><name>PT8027</name></trkpt>
<trkpt lat="53.458429" lon="05.902476"><ele>33.7</ele><time>2021-02-18T13:45:01Z</time><name>PT8028</name></trkpt>
<trkpt lat="53.458432" lon="05.902461"><ele>33.7</ele><time>2021-02-18T13:45:02Z</time><name>PT8029</name></trkpt>
<trkpt lat="53.458436" lon="05.902445"><ele>33.5</ele><time>2021-02-18T13:45:03Z</time><name>PT8030</name></trkpt>
<trkpt lat="53.458441" lon="05.902433"><ele>33.4</ele><time>2021-02-18T13:45:04Z</time><name>PT8031</name></trkpt>
<trkpt lat="53.458446" lon="05.902424"><ele>33.4</ele><time>2021-02-18T13:45:05Z</time><name>PT8032</name></trkpt>
<trkpt lat="53.458454" lon="05.902414"><ele>33.4</ele><time>2021-02-18T13:45:06Z</time><name>PT8033</name></trkpt>
<trkpt lat="53.458463" lon="05.902402"><ele>33.4</ele><time>2021-02-18T13:45:07Z</time><name>PT8034</name></trkpt>
<trkpt lat="53.458471" lon="05.902391"><ele>33.4</ele><time>2021-02-18T13:45:08Z</time><name>PT8035</name></trkpt>
<trkpt lat="53.458479" lon="05.902377"><ele>33.2</ele><time>2021-02-18T13:45:09Z</time><name>PT8036</name></trkpt>
<trkpt lat="53.458486" lon="05.902363"><ele>33.1</ele><time>2021-02-18T13:45:10Z</time><name>PT8037</name></trkpt>
<trkpt lat="53.458494" lon="05.902352"><ele>33.1</ele><time>2021-02-18T13:45:11Z</time><name>PT8038</name></trkpt>
<trkpt lat="53.458501" lon="05.902339"><ele>33</ele><time>2021-02-18T13:45:12Z</time><name>PT8039</name></trkpt>
<trkpt lat="53.458510" lon="05.902326"><ele>33</ele><time>2021-02-18T13:45:13Z</time><name>PT8040</name></trkpt>
<trkpt lat="53.458519" lon="05.902315"><ele>33.1</ele><time>2021-02-18T13:45:14Z</time><name>PT8041</name></trkpt>
<trkpt lat="53.458528" lon="05.902306"><ele>33.1</ele><time>2021-02-18T13:45:15Z</time><name>PT8042</name></trkpt>
<trkpt lat="53.458538" lon="05.902296"><ele>32.8</ele><time>2021-02-18T13:45:16Z</time><name>PT8043</name></trkpt>
<trkpt lat="53.458548" lon="05.902285"><ele>32.8</ele><time>2021-02-18T13:45:17Z</time><name>PT8044</name></trkpt>
<trkpt lat="53.458558" lon="05.902277"><ele>32.7</ele><time>2021-02-18T13:45:18Z</time><name>PT8045</name></trkpt>
<trkpt lat="53.458568" lon="05.902268"><ele>32.7</ele><time>2021-02-18T13:45:19Z</time><name>PT8046</name></trkpt>
<trkpt lat="53.458579" lon="05.902261"><ele>32.7</ele><time>2021-02-18T13:45:20Z</time><name>PT8047</name></trkpt>
<trkpt lat="53.458590" lon="05.902253"><ele>32.9</ele><time>2021-02-18T13:45:21Z</time><name>PT8048</name></trkpt>
<trkpt lat="53.458601" lon="05.902244"><ele>33</ele><time>2021-02-18T13:45:22Z</time><name>PT8049</name></trkpt>
<trkpt lat="53.458612" lon="05.902236"><ele>32.9</ele><time>2021-02-18T13:45:23Z</time><name>PT8050</name></trkpt>
<trkpt lat="53.458621" lon="05.902228"><ele>32.9</ele><time>2021-02-18T13:45:24Z</time><name>PT8051</name></trkpt>
<trkpt lat="53.458631" lon="05.902219"><ele>32.9</ele><time>2021-02-18T13:45:26Z</time><name>PT8052</name></trkpt>
<trkpt lat="53.458640" lon="05.902210"><ele>32.8</ele><time>2021-02-18T13:45:26Z</time><name>PT8053</name></trkpt>
<trkpt lat="53.458650" lon="05.902201"><ele>32.7</ele><time>2021-02-18T13:45:27Z</time><name>PT8054</name></trkpt>
<trkpt lat="53.458658" lon="05.902192"><ele>32.9</ele><time>2021-02-18T13:45:28Z</time><name>PT8055</name></trkpt>
<trkpt lat="53.458666" lon="05.902187"><ele>32.9</ele><time>2021-02-18T13:45:29Z</time><name>PT8056</name></trkpt>
<trkpt lat="53.458675" lon="05.902180"><ele>32.9</ele><time>2021-02-18T13:45:30Z</time><name>PT8057</name></trkpt>
<trkpt lat="53.458683" lon="05.902172"><ele>32.8</ele><time>2021-02-18T13:45:32Z</time><name>PT8058</name></trkpt>
<trkpt lat="53.458690" lon="05.902165"><ele>32.7</ele><time>2021-02-18T13:45:32Z</time><name>PT8059</name></trkpt>
<trkpt lat="53.458699" lon="05.902159"><ele>32.5</ele><time>2021-02-18T13:45:33Z</time><name>PT8060</name></trkpt>
<trkpt lat="53.458709" lon="05.902155"><ele>32.4</ele><time>2021-02-18T13:45:34Z</time><name>PT8061</name></trkpt>
<trkpt lat="53.458717" lon="05.902152"><ele>32.2</ele><time>2021-02-18T13:45:35Z</time><name>PT8062</name></trkpt>
<trkpt lat="53.458725" lon="05.902148"><ele>32</ele><time>2021-02-18T13:45:36Z</time><name>PT8063</name></trkpt>
<trkpt lat="53.458734" lon="05.902142"><ele>32</ele><time>2021-02-18T13:45:37Z</time><name>PT8064</name></trkpt>
<trkpt lat="53.458743" lon="05.902136"><ele>31.9</ele><time>2021-02-18T13:45:38Z</time><name>PT8065</name></trkpt>
<trkpt lat="53.458754" lon="05.902132"><ele>31.8</ele><time>2021-02-18T13:45:39Z</time><name>PT8066</name></trkpt>
<trkpt lat="53.458762" lon="05.902127"><ele>31.7</ele><time>2021-02-18T13:45:40Z</time><name>PT8067</name></trkpt>
<trkpt lat="53.458772" lon="05.902122"><ele>31.6</ele><time>2021-02-18T13:45:41Z</time><name>PT8068</name></trkpt>
<trkpt lat="53.458782" lon="05.902116"><ele>31.5</ele><time>2021-02-18T13:45:42Z</time><name>PT8069</name></trkpt>
<trkpt lat="53.458792" lon="05.902109"><ele>31.4</ele><time>2021-02-18T13:45:43Z</time><name>PT8070</name></trkpt>
<trkpt lat="53.458802" lon="05.902102"><ele>31.4</ele><time>2021-02-18T13:45:44Z</time><name>PT8071</name></trkpt>
<trkpt lat="53.458811" lon="05.902095"><ele>31.3</ele><time>2021-02-18T13:45:45Z</time><name>PT8072</name></trkpt>
<trkpt lat="53.458821" lon="05.902089"><ele>31.1</ele><time>2021-02-18T13:45:46Z</time><name>PT8073</name></trkpt>
<trkpt lat="53.458832" lon="05.902084"><ele>31</ele><time>2021-02-18T13:45:47Z</time><name>PT8074</name></trkpt>
<trkpt lat="53.458843" lon="05.902080"><ele>30.8</ele><time>2021-02-18T13:45:48Z</time><name>PT8075</name></trkpt>
<trkpt lat="53.458854" lon="05.902075"><ele>30.8</ele><time>2021-02-18T13:45:50Z</time><name>PT8076</name></trkpt>
<trkpt lat="53.458865" lon="05.902071"><ele>30.8</ele><time>2021-02-18T13:45:50Z</time><name>PT8077</name></trkpt>
<trkpt lat="53.458875" lon="05.902068"><ele>30.6</ele><time>2021-02-18T13:45:51Z</time><name>PT8078</name></trkpt>
<trkpt lat="53.458884" lon="05.902064"><ele>30.8</ele><time>2021-02-18T13:45:52Z</time><name>PT8079</name></trkpt>
<trkpt lat="53.458893" lon="05.902060"><ele>30.7</ele><time>2021-02-18T13:45:53Z</time><name>PT8080</name></trkpt>
<trkpt lat="53.458903" lon="05.902057"><ele>30.6</ele><time>2021-02-18T13:45:54Z</time><name>PT8081</name></trkpt>
<trkpt lat="53.458913" lon="05.902053"><ele>30.4</ele><time>2021-02-18T13:45:56Z</time><name>PT8082</name></trkpt>
<trkpt lat="53.458923" lon="05.902050"><ele>30.4</ele><time>2021-02-18T13:45:56Z</time><name>PT8083</name></trkpt>
<trkpt lat="53.458934" lon="05.902045"><ele>30.3</ele><time>2021-02-18T13:45:57Z</time><name>PT8084</name></trkpt>
<trkpt lat="53.458945" lon="05.902035"><ele>30.3</ele><time>2021-02-18T13:45:58Z</time><name>PT8085</name></trkpt>
<trkpt lat="53.458955" lon="05.902027"><ele>30.1</ele><time>2021-02-18T13:45:59Z</time><name>PT8086</name></trkpt>
<trkpt lat="53.458965" lon="05.902021"><ele>30.1</ele><time>2021-02-18T13:46:00Z</time><name>PT8087</name></trkpt>
<trkpt lat="53.458976" lon="05.902014"><ele>30</ele><time>2021-02-18T13:46:01Z</time><name>PT8088</name></trkpt>
<trkpt lat="53.458986" lon="05.902006"><ele>29.9</ele><time>2021-02-18T13:46:02Z</time><name>PT8089</name></trkpt>
<trkpt lat="53.458997" lon="05.902002"><ele>29.8</ele><time>2021-02-18T13:46:03Z</time><name>PT8090</name></trkpt>
<trkpt lat="53.459006" lon="05.901997"><ele>29.7</ele><time>2021-02-18T13:46:04Z</time><name>PT8091</name></trkpt>
<trkpt lat="53.459016" lon="05.901990"><ele>29.6</ele><time>2021-02-18T13:46:05Z</time><name>PT8092</name></trkpt>
<trkpt lat="53.459028" lon="05.901986"><ele>29.6</ele><time>2021-02-18T13:46:06Z</time><name>PT8093</name></trkpt>
<trkpt lat="53.459038" lon="05.901982"><ele>29.6</ele><time>2021-02-18T13:46:07Z</time><name>PT8094</name></trkpt>
<trkpt lat="53.459050" lon="05.901978"><ele>29.5</ele><time>2021-02-18T13:46:08Z</time><name>PT8095</name></trkpt>
<trkpt lat="53.459060" lon="05.901976"><ele>29.5</ele><time>2021-02-18T13:46:09Z</time><name>PT8096</name></trkpt>
<trkpt lat="53.459071" lon="05.901972"><ele>29.6</ele><time>2021-02-18T13:46:11Z</time><name>PT8097</name></trkpt>
<trkpt lat="53.459080" lon="05.901967"><ele>29.6</ele><time>2021-02-18T13:46:11Z</time><name>PT8098</name></trkpt>
<trkpt lat="53.459088" lon="05.901962"><ele>29.7</ele><time>2021-02-18T13:46:12Z</time><name>PT8099</name></trkpt>
<trkpt lat="53.459095" lon="05.901957"><ele>29.8</ele><time>2021-02-18T13:46:13Z</time><name>PT8100</name></trkpt>
<trkpt lat="53.459106" lon="05.901952"><ele>29.6</ele><time>2021-02-18T13:46:14Z</time><name>PT8101</name></trkpt>
<trkpt lat="53.459116" lon="05.901948"><ele>29.5</ele><time>2021-02-18T13:46:15Z</time><name>PT8102</name></trkpt>
<trkpt lat="53.459127" lon="05.901945"><ele>29.6</ele><time>2021-02-18T13:46:16Z</time><name>PT8103</name></trkpt>
<trkpt lat="53.459139" lon="05.901942"><ele>29.3</ele><time>2021-02-18T13:46:17Z</time><name>PT8104</name></trkpt>
<trkpt lat="53.459151" lon="05.901936"><ele>29.3</ele><time>2021-02-18T13:46:18Z</time><name>PT8105</name></trkpt>
<trkpt lat="53.459164" lon="05.901933"><ele>29.3</ele><time>2021-02-18T13:46:19Z</time><name>PT8106</name></trkpt>
<trkpt lat="53.459176" lon="05.901930"><ele>29.3</ele><time>2021-02-18T13:46:20Z</time><name>PT8107</name></trkpt>
<trkpt lat="53.459187" lon="05.901927"><ele>29.1</ele><time>2021-02-18T13:46:21Z</time><name>PT8108</name></trkpt>
<trkpt lat="53.459198" lon="05.901923"><ele>28.9</ele><time>2021-02-18T13:46:22Z</time><name>PT8109</name></trkpt>
<trkpt lat="53.459210" lon="05.901921"><ele>29</ele><time>2021-02-18T13:46:23Z</time><name>PT8110</name></trkpt>
<trkpt lat="53.459222" lon="05.901918"><ele>28.8</ele><time>2021-02-18T13:46:24Z</time><name>PT8111</name></trkpt>
<trkpt lat="53.459232" lon="05.901915"><ele>28.8</ele><time>2021-02-18T13:46:25Z</time><name>PT8112</name></trkpt>
<trkpt lat="53.459243" lon="05.901913"><ele>28.7</ele><time>2021-02-18T13:46:26Z</time><name>PT8113</name></trkpt>
<trkpt lat="53.459253" lon="05.901908"><ele>28.8</ele><time>2021-02-18T13:46:27Z</time><name>PT8114</name></trkpt>
<trkpt lat="53.459265" lon="05.901903"><ele>28.7</ele><time>2021-02-18T13:46:28Z</time><name>PT8115</name></trkpt>
<trkpt lat="53.459276" lon="05.901899"><ele>28.8</ele><time>2021-02-18T13:46:29Z</time><name>PT8116</name></trkpt>
<trkpt lat="53.459289" lon="05.901895"><ele>28.7</ele><time>2021-02-18T13:46:30Z</time><name>PT8117</name></trkpt>
<trkpt lat="53.459301" lon="05.901891"><ele>28.6</ele><time>2021-02-18T13:46:31Z</time><name>PT8118</name></trkpt>
<trkpt lat="53.459312" lon="05.901887"><ele>28.8</ele><time>2021-02-18T13:46:32Z</time><name>PT8119</name></trkpt>
<trkpt lat="53.459323" lon="05.901882"><ele>28.7</ele><time>2021-02-18T13:46:33Z</time><name>PT8120</name></trkpt>
<trkpt lat="53.459334" lon="05.901878"><ele>28.5</ele><time>2021-02-18T13:46:34Z</time><name>PT8121</name></trkpt>
<trkpt lat="53.459344" lon="05.901875"><ele>28.6</ele><time>2021-02-18T13:46:35Z</time><name>PT8122</name></trkpt>
<trkpt lat="53.459356" lon="05.901870"><ele>28.5</ele><time>2021-02-18T13:46:36Z</time><name>PT8123</name></trkpt>
<trkpt lat="53.459367" lon="05.901863"><ele>28.5</ele><time>2021-02-18T13:46:37Z</time><name>PT8124</name></trkpt>
<trkpt lat="53.459378" lon="05.901859"><ele>28.5</ele><time>2021-02-18T13:46:38Z</time><name>PT8125</name></trkpt>
<trkpt lat="53.459388" lon="05.901856"><ele>28.5</ele><time>2021-02-18T13:46:39Z</time><name>PT8126</name></trkpt>
<trkpt lat="53.459397" lon="05.901851"><ele>28.3</ele><time>2021-02-18T13:46:40Z</time><name>PT8127</name></trkpt>
<trkpt lat="53.459409" lon="05.901848"><ele>28.3</ele><time>2021-02-18T13:46:41Z</time><name>PT8128</name></trkpt>
<trkpt lat="53.459418" lon="05.901849"><ele>28.2</ele><time>2021-02-18T13:46:42Z</time><name>PT8129</name></trkpt>
<trkpt lat="53.459430" lon="05.901846"><ele>28.3</ele><time>2021-02-18T13:46:43Z</time><name>PT8130</name></trkpt>
<trkpt lat="53.459440" lon="05.901842"><ele>28.2</ele><time>2021-02-18T13:46:44Z</time><name>PT8131</name></trkpt>
<trkpt lat="53.459452" lon="05.901840"><ele>28.2</ele><time>2021-02-18T13:46:45Z</time><name>PT8132</name></trkpt>
<trkpt lat="53.459461" lon="05.901837"><ele>27.9</ele><time>2021-02-18T13:46:46Z</time><name>PT8133</name></trkpt>
<trkpt lat="53.459471" lon="05.901833"><ele>27.7</ele><time>2021-02-18T13:46:47Z</time><name>PT8134</name></trkpt>
<trkpt lat="53.459482" lon="05.901828"><ele>27.7</ele><time>2021-02-18T13:46:48Z</time><name>PT8135</name></trkpt>
<trkpt lat="53.459493" lon="05.901825"><ele>27.7</ele><time>2021-02-18T13:46:49Z</time><name>PT8136</name></trkpt>
<trkpt lat="53.459505" lon="05.901820"><ele>27.7</ele><time>2021-02-18T13:46:50Z</time><name>PT8137</name></trkpt>
<trkpt lat="53.459513" lon="05.901815"><ele>27.8</ele><time>2021-02-18T13:46:51Z</time><name>PT8138</name></trkpt>
<trkpt lat="53.459524" lon="05.901811"><ele>27.6</ele><time>2021-02-18T13:46:52Z</time><name>PT8139</name></trkpt>
<trkpt lat="53.459534" lon="05.901807"><ele>27.6</ele><time>2021-02-18T13:46:53Z</time><name>PT8140</name></trkpt>
<trkpt lat="53.459546" lon="05.901803"><ele>27.4</ele><time>2021-02-18T13:46:54Z</time><name>PT8141</name></trkpt>
<trkpt lat="53.459558" lon="05.901799"><ele>27.4</ele><time>2021-02-18T13:46:55Z</time><name>PT8142</name></trkpt>
<trkpt lat="53.459568" lon="05.901794"><ele>27.6</ele><time>2021-02-18T13:46:56Z</time><name>PT8143</name></trkpt>
<trkpt lat="53.459580" lon="05.901787"><ele>27.7</ele><time>2021-02-18T13:46:57Z</time><name>PT8144</name></trkpt>
<trkpt lat="53.459593" lon="05.901782"><ele>27.7</ele><time>2021-02-18T13:46:58Z</time><name>PT8145</name></trkpt>
<trkpt lat="53.459604" lon="05.901777"><ele>27.6</ele><time>2021-02-18T13:46:59Z</time><name>PT8146</name></trkpt>
<trkpt lat="53.459616" lon="05.901771"><ele>27.5</ele><time>2021-02-18T13:47:00Z</time><name>PT8147</name></trkpt>
<trkpt lat="53.459627" lon="05.901766"><ele>27.3</ele><time>2021-02-18T13:47:01Z</time><name>PT8148</name></trkpt>
<trkpt lat="53.459636" lon="05.901760"><ele>27.3</ele><time>2021-02-18T13:47:02Z</time><name>PT8149</name></trkpt>
<trkpt lat="53.459644" lon="05.901755"><ele>27.2</ele><time>2021-02-18T13:47:03Z</time><name>PT8150</name></trkpt>
<trkpt lat="53.459651" lon="05.901748"><ele>27.2</ele><time>2021-02-18T13:47:04Z</time><name>PT8151</name></trkpt>
<trkpt lat="53.459661" lon="05.901741"><ele>27.2</ele><time>2021-02-18T13:47:05Z</time><name>PT8152</name></trkpt>
<trkpt lat="53.459670" lon="05.901735"><ele>27.3</ele><time>2021-02-18T13:47:06Z</time><name>PT8153</name></trkpt>
<trkpt lat="53.459680" lon="05.901730"><ele>27.4</ele><time>2021-02-18T13:47:07Z</time><name>PT8154</name></trkpt>
<trkpt lat="53.459688" lon="05.901725"><ele>27.4</ele><time>2021-02-18T13:47:08Z</time><name>PT8155</name></trkpt>
<trkpt lat="53.459696" lon="05.901719"><ele>27.4</ele><time>2021-02-18T13:47:09Z</time><name>PT8156</name></trkpt>
<trkpt lat="53.459706" lon="05.901714"><ele>27.4</ele><time>2021-02-18T13:47:10Z</time><name>PT8157</name></trkpt>
<trkpt lat="53.459717" lon="05.901707"><ele>27.2</ele><time>2021-02-18T13:47:11Z</time><name>PT8158</name></trkpt>
<trkpt lat="53.459726" lon="05.901701"><ele>27.3</ele><time>2021-02-18T13:47:12Z</time><name>PT8159</name></trkpt>
<trkpt lat="53.459735" lon="05.901694"><ele>27.2</ele><time>2021-02-18T13:47:13Z</time><name>PT8160</name></trkpt>
<trkpt lat="53.459746" lon="05.901685"><ele>27.1</ele><time>2021-02-18T13:47:14Z</time><name>PT8161</name></trkpt>
<trkpt lat="53.459757" lon="05.901676"><ele>26.8</ele><time>2021-02-18T13:47:15Z</time><name>PT8162</name></trkpt>
<trkpt lat="53.459766" lon="05.901667"><ele>26.9</ele><time>2021-02-18T13:47:16Z</time><name>PT8163</name></trkpt>
<trkpt lat="53.459776" lon="05.901657"><ele>26.8</ele><time>2021-02-18T13:47:17Z</time><name>PT8164</name></trkpt>
<trkpt lat="53.459785" lon="05.901648"><ele>26.9</ele><time>2021-02-18T13:47:18Z</time><name>PT8165</name></trkpt>
<trkpt lat="53.459791" lon="05.901639"><ele>27</ele><time>2021-02-18T13:47:19Z</time><name>PT8166</name></trkpt>
<trkpt lat="53.459799" lon="05.901632"><ele>27</ele><time>2021-02-18T13:47:20Z</time><name>PT8167</name></trkpt>
<trkpt lat="53.459809" lon="05.901620"><ele>27</ele><time>2021-02-18T13:47:21Z</time><name>PT8168</name></trkpt>
<trkpt lat="53.459817" lon="05.901606"><ele>26.9</ele><time>2021-02-18T13:47:22Z</time><name>PT8169</name></trkpt>
<trkpt lat="53.459824" lon="05.901594"><ele>26.8</ele><time>2021-02-18T13:47:23Z</time><name>PT8170</name></trkpt>
<trkpt lat="53.459830" lon="05.901584"><ele>26.8</ele><time>2021-02-18T13:47:24Z</time><name>PT8171</name></trkpt>
<trkpt lat="53.459838" lon="05.901572"><ele>26.9</ele><time>2021-02-18T13:47:25Z</time><name>PT8172</name></trkpt>
<trkpt lat="53.459845" lon="05.901561"><ele>26.9</ele><time>2021-02-18T13:47:26Z</time><name>PT8173</name></trkpt>
<trkpt lat="53.459853" lon="05.901549"><ele>26.8</ele><time>2021-02-18T13:47:27Z</time><name>PT8174</name></trkpt>
<trkpt lat="53.459860" lon="05.901537"><ele>26.7</ele><time>2021-02-18T13:47:28Z</time><name>PT8175</name></trkpt>
<trkpt lat="53.459865" lon="05.901523"><ele>26.7</ele><time>2021-02-18T13:47:29Z</time><name>PT8176</name></trkpt>
<trkpt lat="53.459869" lon="05.901514"><ele>26.6</ele><time>2021-02-18T13:47:30Z</time><name>PT8177</name></trkpt>
<trkpt lat="53.459874" lon="05.901505"><ele>26.8</ele><time>2021-02-18T13:47:31Z</time><name>PT8178</name></trkpt>
<trkpt lat="53.459882" lon="05.901492"><ele>26.8</ele><time>2021-02-18T13:47:32Z</time><name>PT8179</name></trkpt>
<trkpt lat="53.459890" lon="05.901478"><ele>26.8</ele><time>2021-02-18T13:47:33Z</time><name>PT8180</name></trkpt>
<trkpt lat="53.459898" lon="05.901462"><ele>26.8</ele><time>2021-02-18T13:47:34Z</time><name>PT8181</name></trkpt>
<trkpt lat="53.459905" lon="05.901445"><ele>26.8</ele><time>2021-02-18T13:47:35Z</time><name>PT8182</name></trkpt>
<trkpt lat="53.459909" lon="05.901430"><ele>26.7</ele><time>2021-02-18T13:47:36Z</time><name>PT8183</name></trkpt>
<trkpt lat="53.459913" lon="05.901417"><ele>26.6</ele><time>2021-02-18T13:47:37Z</time><name>PT8184</name></trkpt>
<trkpt lat="53.459924" lon="05.901393"><ele>26.7</ele><time>2021-02-18T13:47:38Z</time><name>PT8185</name></trkpt>
<trkpt lat="53.459934" lon="05.901371"><ele>26.6</ele><time>2021-02-18T13:47:39Z</time><name>PT8186</name></trkpt>
<trkpt lat="53.459940" lon="05.901354"><ele>26.7</ele><time>2021-02-18T13:47:40Z</time><name>PT8187</name></trkpt>
<trkpt lat="53.459946" lon="05.901335"><ele>26.6</ele><time>2021-02-18T13:47:41Z</time><name>PT8188</name></trkpt>
<trkpt lat="53.459950" lon="05.901320"><ele>26.8</ele><time>2021-02-18T13:47:42Z</time><name>PT8189</name></trkpt>
<trkpt lat="53.459953" lon="05.901303"><ele>26.7</ele><time>2021-02-18T13:47:43Z</time><name>PT8190</name></trkpt>
<trkpt lat="53.459960" lon="05.901289"><ele>26.8</ele><time>2021-02-18T13:47:44Z</time><name>PT8191</name></trkpt>
<trkpt lat="53.459968" lon="05.901276"><ele>26.7</ele><time>2021-02-18T13:47:45Z</time><name>PT8192</name></trkpt>
<trkpt lat="53.459975" lon="05.901261"><ele>26.6</ele><time>2021-02-18T13:47:46Z</time><name>PT8193</name></trkpt>
<trkpt lat="53.459982" lon="05.901246"><ele>26.5</ele><time>2021-02-18T13:47:47Z</time><name>PT8194</name></trkpt>
<trkpt lat="53.459989" lon="05.901231"><ele>26.5</ele><time>2021-02-18T13:47:48Z</time><name>PT8195</name></trkpt>
<trkpt lat="53.459995" lon="05.901212"><ele>26.6</ele><time>2021-02-18T13:47:49Z</time><name>PT8196</name></trkpt>
<trkpt lat="53.460002" lon="05.901194"><ele>26.6</ele><time>2021-02-18T13:47:50Z</time><name>PT8197</name></trkpt>
<trkpt lat="53.460010" lon="05.901175"><ele>26.8</ele><time>2021-02-18T13:47:51Z</time><name>PT8198</name></trkpt>
<trkpt lat="53.460018" lon="05.901157"><ele>26.8</ele><time>2021-02-18T13:47:52Z</time><name>PT8199</name></trkpt>
<trkpt lat="53.460024" lon="05.901140"><ele>26.8</ele><time>2021-02-18T13:47:53Z</time><name>PT8200</name></trkpt>
<trkpt lat="53.460030" lon="05.901123"><ele>26.9</ele><time>2021-02-18T13:47:54Z</time><name>PT8201</name></trkpt>
<trkpt lat="53.460037" lon="05.901103"><ele>26.8</ele><time>2021-02-18T13:47:55Z</time><name>PT8202</name></trkpt>
<trkpt lat="53.460043" lon="05.901085"><ele>27</ele><time>2021-02-18T13:47:56Z</time><name>PT8203</name></trkpt>
<trkpt lat="53.460048" lon="05.901068"><ele>27</ele><time>2021-02-18T13:47:57Z</time><name>PT8204</name></trkpt>
<trkpt lat="53.460054" lon="05.901055"><ele>27.2</ele><time>2021-02-18T13:47:58Z</time><name>PT8205</name></trkpt>
<trkpt lat="53.460061" lon="05.901045"><ele>27</ele><time>2021-02-18T13:47:59Z</time><name>PT8206</name></trkpt>
<trkpt lat="53.460066" lon="05.901029"><ele>27.1</ele><time>2021-02-18T13:48:00Z</time><name>PT8207</name></trkpt>
<trkpt lat="53.460073" lon="05.901012"><ele>27.1</ele><time>2021-02-18T13:48:01Z</time><name>PT8208</name></trkpt>
<trkpt lat="53.460078" lon="05.900997"><ele>27</ele><time>2021-02-18T13:48:02Z</time><name>PT8209</name></trkpt>
<trkpt lat="53.460084" lon="05.900984"><ele>26.8</ele><time>2021-02-18T13:48:03Z</time><name>PT8210</name></trkpt>
<trkpt lat="53.460090" lon="05.900967"><ele>27.1</ele><time>2021-02-18T13:48:04Z</time><name>PT8211</name></trkpt>
<trkpt lat="53.460095" lon="05.900953"><ele>27.1</ele><time>2021-02-18T13:48:05Z</time><name>PT8212</name></trkpt>
<trkpt lat="53.460102" lon="05.900938"><ele>27.1</ele><time>2021-02-18T13:48:06Z</time><name>PT8213</name></trkpt>
<trkpt lat="53.460109" lon="05.900922"><ele>27.2</ele><time>2021-02-18T13:48:07Z</time><name>PT8214</name></trkpt>
<trkpt lat="53.460113" lon="05.900903"><ele>27.1</ele><time>2021-02-18T13:48:08Z</time><name>PT8215</name></trkpt>
<trkpt lat="53.460119" lon="05.900885"><ele>27.1</ele><time>2021-02-18T13:48:09Z</time><name>PT8216</name></trkpt>
<trkpt lat="53.460125" lon="05.900872"><ele>27.3</ele><time>2021-02-18T13:48:10Z</time><name>PT8217</name></trkpt>
<trkpt lat="53.460130" lon="05.900855"><ele>27.3</ele><time>2021-02-18T13:48:11Z</time><name>PT8218</name></trkpt>
<trkpt lat="53.460135" lon="05.900838"><ele>27.6</ele><time>2021-02-18T13:48:12Z</time><name>PT8219</name></trkpt>
<trkpt lat="53.460141" lon="05.900821"><ele>27.7</ele><time>2021-02-18T13:48:13Z</time><name>PT8220</name></trkpt>
<trkpt lat="53.460147" lon="05.900804"><ele>27.8</ele><time>2021-02-18T13:48:14Z</time><name>PT8221</name></trkpt>
<trkpt lat="53.460155" lon="05.900790"><ele>27.6</ele><time>2021-02-18T13:48:15Z</time><name>PT8222</name></trkpt>
<trkpt lat="53.460162" lon="05.900778"><ele>27.4</ele><time>2021-02-18T13:48:16Z</time><name>PT8223</name></trkpt>
<trkpt lat="53.460171" lon="05.900764"><ele>27.3</ele><time>2021-02-18T13:48:17Z</time><name>PT8224</name></trkpt>
<trkpt lat="53.460179" lon="05.900750"><ele>27.3</ele><time>2021-02-18T13:48:18Z</time><name>PT8225</name></trkpt>
<trkpt lat="53.460187" lon="05.900734"><ele>27.3</ele><time>2021-02-18T13:48:20Z</time><name>PT8226</name></trkpt>
<trkpt lat="53.460196" lon="05.900719"><ele>27.3</ele><time>2021-02-18T13:48:20Z</time><name>PT8227</name></trkpt>
<trkpt lat="53.460205" lon="05.900704"><ele>27.3</ele><time>2021-02-18T13:48:21Z</time><name>PT8228</name></trkpt>
<trkpt lat="53.460215" lon="05.900691"><ele>27.3</ele><time>2021-02-18T13:48:22Z</time><name>PT8229</name></trkpt>
<trkpt lat="53.460224" lon="05.900676"><ele>27.4</ele><time>2021-02-18T13:48:23Z</time><name>PT8230</name></trkpt>
<trkpt lat="53.460233" lon="05.900660"><ele>27.6</ele><time>2021-02-18T13:48:24Z</time><name>PT8231</name></trkpt>
<trkpt lat="53.460242" lon="05.900646"><ele>27.9</ele><time>2021-02-18T13:48:26Z</time><name>PT8232</name></trkpt>
<trkpt lat="53.460251" lon="05.900633"><ele>28</ele><time>2021-02-18T13:48:26Z</time><name>PT8233</name></trkpt>
<trkpt lat="53.460261" lon="05.900619"><ele>28.1</ele><time>2021-02-18T13:48:27Z</time><name>PT8234</name></trkpt>
<trkpt lat="53.460272" lon="05.900605"><ele>27.8</ele><time>2021-02-18T13:48:28Z</time><name>PT8235</name></trkpt>
<trkpt lat="53.460283" lon="05.900593"><ele>27.8</ele><time>2021-02-18T13:48:29Z</time><name>PT8236</name></trkpt>
<trkpt lat="53.460294" lon="05.900580"><ele>27.8</ele><time>2021-02-18T13:48:30Z</time><name>PT8237</name></trkpt>
<trkpt lat="53.460305" lon="05.900570"><ele>27.8</ele><time>2021-02-18T13:48:31Z</time><name>PT8238</name></trkpt>
<trkpt lat="53.460315" lon="05.900555"><ele>27.9</ele><time>2021-02-18T13:48:32Z</time><name>PT8239</name></trkpt>
<trkpt lat="53.460325" lon="05.900541"><ele>28</ele><time>2021-02-18T13:48:33Z</time><name>PT8240</name></trkpt>
<trkpt lat="53.460335" lon="05.900527"><ele>28.1</ele><time>2021-02-18T13:48:34Z</time><name>PT8241</name></trkpt>
<trkpt lat="53.460344" lon="05.900516"><ele>28</ele><time>2021-02-18T13:48:35Z</time><name>PT8242</name></trkpt>
<trkpt lat="53.460353" lon="05.900509"><ele>27.6</ele><time>2021-02-18T13:48:36Z</time><name>PT8243</name></trkpt>
<trkpt lat="53.460361" lon="05.900503"><ele>27.4</ele><time>2021-02-18T13:48:37Z</time><name>PT8244</name></trkpt>
<trkpt lat="53.460369" lon="05.900492"><ele>27.3</ele><time>2021-02-18T13:48:38Z</time><name>PT8245</name></trkpt>
<trkpt lat="53.460380" lon="05.900481"><ele>27.2</ele><time>2021-02-18T13:48:39Z</time><name>PT8246</name></trkpt>
<trkpt lat="53.460392" lon="05.900466"><ele>27.3</ele><time>2021-02-18T13:48:40Z</time><name>PT8247</name></trkpt>
<trkpt lat="53.460403" lon="05.900459"><ele>27.3</ele><time>2021-02-18T13:48:41Z</time><name>PT8248</name></trkpt>
<trkpt lat="53.460414" lon="05.900448"><ele>27.2</ele><time>2021-02-18T13:48:42Z</time><name>PT8249</name></trkpt>
<trkpt lat="53.460425" lon="05.900439"><ele>27.3</ele><time>2021-02-18T13:48:43Z</time><name>PT8250</name></trkpt>
<trkpt lat="53.460435" lon="05.900429"><ele>27.4</ele><time>2021-02-18T13:48:44Z</time><name>PT8251</name></trkpt>
<trkpt lat="53.460446" lon="05.900417"><ele>27.6</ele><time>2021-02-18T13:48:45Z</time><name>PT8252</name></trkpt>
<trkpt lat="53.460456" lon="05.900408"><ele>27.6</ele><time>2021-02-18T13:48:47Z</time><name>PT8253</name></trkpt>
<trkpt lat="53.460465" lon="05.900400"><ele>27.6</ele><time>2021-02-18T13:48:47Z</time><name>PT8254</name></trkpt>
<trkpt lat="53.460474" lon="05.900390"><ele>27.7</ele><time>2021-02-18T13:48:48Z</time><name>PT8255</name></trkpt>
<trkpt lat="53.460485" lon="05.900379"><ele>27.6</ele><time>2021-02-18T13:48:49Z</time><name>PT8256</name></trkpt>
<trkpt lat="53.460494" lon="05.900368"><ele>27.5</ele><time>2021-02-18T13:48:50Z</time><name>PT8257</name></trkpt>
<trkpt lat="53.460505" lon="05.900356"><ele>27.6</ele><time>2021-02-18T13:48:51Z</time><name>PT8258</name></trkpt>
<trkpt lat="53.460516" lon="05.900347"><ele>27.9</ele><time>2021-02-18T13:48:52Z</time><name>PT8259</name></trkpt>
<trkpt lat="53.460529" lon="05.900340"><ele>27.9</ele><time>2021-02-18T13:48:53Z</time><name>PT8260</name></trkpt>
<trkpt lat="53.460540" lon="05.900331"><ele>28</ele><time>2021-02-18T13:48:54Z</time><name>PT8261</name></trkpt>
<trkpt lat="53.460551" lon="05.900320"><ele>28</ele><time>2021-02-18T13:48:55Z</time><name>PT8262</name></trkpt>
<trkpt lat="53.460563" lon="05.900311"><ele>27.9</ele><time>2021-02-18T13:48:56Z</time><name>PT8263</name></trkpt>
<trkpt lat="53.460575" lon="05.900303"><ele>27.9</ele><time>2021-02-18T13:48:57Z</time><name>PT8264</name></trkpt>
<trkpt lat="53.460586" lon="05.900296"><ele>27.8</ele><time>2021-02-18T13:48:58Z</time><name>PT8265</name></trkpt>
<trkpt lat="53.460597" lon="05.900289"><ele>27.8</ele><time>2021-02-18T13:48:59Z</time><name>PT8266</name></trkpt>
<trkpt lat="53.460607" lon="05.900284"><ele>27.9</ele><time>2021-02-18T13:49:00Z</time><name>PT8267</name></trkpt>
<trkpt lat="53.460618" lon="05.900279"><ele>27.9</ele><time>2021-02-18T13:49:01Z</time><name>PT8268</name></trkpt>
<trkpt lat="53.460628" lon="05.900275"><ele>27.9</ele><time>2021-02-18T13:49:02Z</time><name>PT8269</name></trkpt>
<trkpt lat="53.460642" lon="05.900270"><ele>28</ele><time>2021-02-18T13:49:03Z</time><name>PT8270</name></trkpt>
<trkpt lat="53.460653" lon="05.900264"><ele>27.8</ele><time>2021-02-18T13:49:04Z</time><name>PT8271</name></trkpt>
<trkpt lat="53.460665" lon="05.900260"><ele>27.7</ele><time>2021-02-18T13:49:05Z</time><name>PT8272</name></trkpt>
<trkpt lat="53.460677" lon="05.900258"><ele>27.5</ele><time>2021-02-18T13:49:06Z</time><name>PT8273</name></trkpt>
<trkpt lat="53.460689" lon="05.900257"><ele>27.5</ele><time>2021-02-18T13:49:07Z</time><name>PT8274</name></trkpt>
<trkpt lat="53.460705" lon="05.900258"><ele>27.4</ele><time>2021-02-18T13:49:08Z</time><name>PT8275</name></trkpt>
<trkpt lat="53.460718" lon="05.900260"><ele>27.5</ele><time>2021-02-18T13:49:09Z</time><name>PT8276</name></trkpt>
<trkpt lat="53.460731" lon="05.900260"><ele>27.6</ele><time>2021-02-18T13:49:10Z</time><name>PT8277</name></trkpt>
<trkpt lat="53.460743" lon="05.900257"><ele>27.6</ele><time>2021-02-18T13:49:11Z</time><name>PT8278</name></trkpt>
<trkpt lat="53.460754" lon="05.900251"><ele>27.4</ele><time>2021-02-18T13:49:12Z</time><name>PT8279</name></trkpt>
<trkpt lat="53.460767" lon="05.900246"><ele>27.3</ele><time>2021-02-18T13:49:13Z</time><name>PT8280</name></trkpt>
<trkpt lat="53.460780" lon="05.900242"><ele>27.3</ele><time>2021-02-18T13:49:14Z</time><name>PT8281</name></trkpt>
<trkpt lat="53.460791" lon="05.900237"><ele>27.3</ele><time>2021-02-18T13:49:15Z</time><name>PT8282</name></trkpt>
<trkpt lat="53.460802" lon="05.900232"><ele>27.3</ele><time>2021-02-18T13:49:16Z</time><name>PT8283</name></trkpt>
<trkpt lat="53.460815" lon="05.900228"><ele>27.3</ele><time>2021-02-18T13:49:17Z</time><name>PT8284</name></trkpt>
<trkpt lat="53.460827" lon="05.900227"><ele>27.4</ele><time>2021-02-18T13:49:18Z</time><name>PT8285</name></trkpt>
<trkpt lat="53.460839" lon="05.900225"><ele>27.4</ele><time>2021-02-18T13:49:19Z</time><name>PT8286</name></trkpt>
<trkpt lat="53.460849" lon="05.900222"><ele>27.4</ele><time>2021-02-18T13:49:20Z</time><name>PT8287</name></trkpt>
<trkpt lat="53.460861" lon="05.900219"><ele>27.3</ele><time>2021-02-18T13:49:21Z</time><name>PT8288</name></trkpt>
<trkpt lat="53.460874" lon="05.900217"><ele>27.4</ele><time>2021-02-18T13:49:22Z</time><name>PT8289</name></trkpt>
<trkpt lat="53.460886" lon="05.900215"><ele>27.3</ele><time>2021-02-18T13:49:23Z</time><name>PT8290</name></trkpt>
<trkpt lat="53.460897" lon="05.900214"><ele>27.4</ele><time>2021-02-18T13:49:24Z</time><name>PT8291</name></trkpt>
<trkpt lat="53.460908" lon="05.900211"><ele>27.6</ele><time>2021-02-18T13:49:25Z</time><name>PT8292</name></trkpt>
<trkpt lat="53.460919" lon="05.900207"><ele>27.5</ele><time>2021-02-18T13:49:26Z</time><name>PT8293</name></trkpt>
<trkpt lat="53.460931" lon="05.900205"><ele>27.2</ele><time>2021-02-18T13:49:27Z</time><name>PT8294</name></trkpt>
<trkpt lat="53.460942" lon="05.900202"><ele>27.1</ele><time>2021-02-18T13:49:28Z</time><name>PT8295</name></trkpt>
<trkpt lat="53.460954" lon="05.900199"><ele>27</ele><time>2021-02-18T13:49:29Z</time><name>PT8296</name></trkpt>
<trkpt lat="53.460966" lon="05.900196"><ele>26.7</ele><time>2021-02-18T13:49:30Z</time><name>PT8297</name></trkpt>
<trkpt lat="53.460977" lon="05.900192"><ele>26.8</ele><time>2021-02-18T13:49:31Z</time><name>PT8298</name></trkpt>
<trkpt lat="53.460989" lon="05.900189"><ele>26.8</ele><time>2021-02-18T13:49:32Z</time><name>PT8299</name></trkpt>
<trkpt lat="53.460999" lon="05.900187"><ele>26.8</ele><time>2021-02-18T13:49:33Z</time><name>PT8300</name></trkpt>
<trkpt lat="53.461009" lon="05.900185"><ele>26.8</ele><time>2021-02-18T13:49:34Z</time><name>PT8301</name></trkpt>
<trkpt lat="53.461020" lon="05.900183"><ele>26.8</ele><time>2021-02-18T13:49:35Z</time><name>PT8302</name></trkpt>
<trkpt lat="53.461031" lon="05.900181"><ele>26.8</ele><time>2021-02-18T13:49:36Z</time><name>PT8303</name></trkpt>
<trkpt lat="53.461041" lon="05.900180"><ele>26.8</ele><time>2021-02-18T13:49:37Z</time><name>PT8304</name></trkpt>
<trkpt lat="53.461051" lon="05.900178"><ele>26.7</ele><time>2021-02-18T13:49:38Z</time><name>PT8305</name></trkpt>
<trkpt lat="53.461062" lon="05.900175"><ele>26.5</ele><time>2021-02-18T13:49:39Z</time><name>PT8306</name></trkpt>
<trkpt lat="53.461071" lon="05.900170"><ele>26.3</ele><time>2021-02-18T13:49:40Z</time><name>PT8307</name></trkpt>
<trkpt lat="53.461082" lon="05.900164"><ele>26.2</ele><time>2021-02-18T13:49:41Z</time><name>PT8308</name></trkpt>
<trkpt lat="53.461093" lon="05.900158"><ele>26.1</ele><time>2021-02-18T13:49:42Z</time><name>PT8309</name></trkpt>
<trkpt lat="53.461103" lon="05.900151"><ele>26.2</ele><time>2021-02-18T13:49:43Z</time><name>PT8310</name></trkpt>
<trkpt lat="53.461114" lon="05.900145"><ele>26.2</ele><time>2021-02-18T13:49:44Z</time><name>PT8311</name></trkpt>
<trkpt lat="53.461126" lon="05.900141"><ele>26.3</ele><time>2021-02-18T13:49:45Z</time><name>PT8312</name></trkpt>
<trkpt lat="53.461136" lon="05.900137"><ele>26.3</ele><time>2021-02-18T13:49:46Z</time><name>PT8313</name></trkpt>
<trkpt lat="53.461148" lon="05.900132"><ele>26.3</ele><time>2021-02-18T13:49:47Z</time><name>PT8314</name></trkpt>
<trkpt lat="53.461158" lon="05.900125"><ele>26.3</ele><time>2021-02-18T13:49:48Z</time><name>PT8315</name></trkpt>
<trkpt lat="53.461168" lon="05.900118"><ele>26.2</ele><time>2021-02-18T13:49:49Z</time><name>PT8316</name></trkpt>
<trkpt lat="53.461178" lon="05.900110"><ele>26</ele><time>2021-02-18T13:49:50Z</time><name>PT8317</name></trkpt>
<trkpt lat="53.461183" lon="05.900102"><ele>26</ele><time>2021-02-18T13:49:51Z</time><name>PT8318</name></trkpt>
<trkpt lat="53.461193" lon="05.900092"><ele>25.9</ele><time>2021-02-18T13:49:52Z</time><name>PT8319</name></trkpt>
<trkpt lat="53.461203" lon="05.900082"><ele>25.8</ele><time>2021-02-18T13:49:53Z</time><name>PT8320</name></trkpt>
<trkpt lat="53.461213" lon="05.900073"><ele>25.9</ele><time>2021-02-18T13:49:54Z</time><name>PT8321</name></trkpt>
<trkpt lat="53.461222" lon="05.900064"><ele>25.9</ele><time>2021-02-18T13:49:55Z</time><name>PT8322</name></trkpt>
<trkpt lat="53.461233" lon="05.900056"><ele>25.8</ele><time>2021-02-18T13:49:56Z</time><name>PT8323</name></trkpt>
<trkpt lat="53.461244" lon="05.900050"><ele>25.7</ele><time>2021-02-18T13:49:57Z</time><name>PT8324</name></trkpt>
<trkpt lat="53.461256" lon="05.900042"><ele>25.4</ele><time>2021-02-18T13:49:58Z</time><name>PT8325</name></trkpt>
<trkpt lat="53.461267" lon="05.900031"><ele>25.4</ele><time>2021-02-18T13:49:59Z</time><name>PT8326</name></trkpt>
<trkpt lat="53.461278" lon="05.900021"><ele>25.3</ele><time>2021-02-18T13:50:00Z</time><name>PT8327</name></trkpt>
<trkpt lat="53.461287" lon="05.900012"><ele>25.2</ele><time>2021-02-18T13:50:01Z</time><name>PT8328</name></trkpt>
<trkpt lat="53.461296" lon="05.900003"><ele>25.2</ele><time>2021-02-18T13:50:02Z</time><name>PT8329</name></trkpt>
<trkpt lat="53.461305" lon="05.899994"><ele>25.1</ele><time>2021-02-18T13:50:03Z</time><name>PT8330</name></trkpt>
<trkpt lat="53.461314" lon="05.899984"><ele>24.9</ele><time>2021-02-18T13:50:04Z</time><name>PT8331</name></trkpt>
<trkpt lat="53.461324" lon="05.899973"><ele>24.8</ele><time>2021-02-18T13:50:05Z</time><name>PT8332</name></trkpt>
<trkpt lat="53.461333" lon="05.899965"><ele>24.8</ele><time>2021-02-18T13:50:06Z</time><name>PT8333</name></trkpt>
<trkpt lat="53.461337" lon="05.899956"><ele>24.8</ele><time>2021-02-18T13:50:07Z</time><name>PT8334</name></trkpt>
<trkpt lat="53.461344" lon="05.899945"><ele>24.8</ele><time>2021-02-18T13:50:08Z</time><name>PT8335</name></trkpt>
<trkpt lat="53.461351" lon="05.899933"><ele>24.8</ele><time>2021-02-18T13:50:09Z</time><name>PT8336</name></trkpt>
<trkpt lat="53.461359" lon="05.899921"><ele>24.7</ele><time>2021-02-18T13:50:10Z</time><name>PT8337</name></trkpt>
<trkpt lat="53.461367" lon="05.899907"><ele>24.8</ele><time>2021-02-18T13:50:11Z</time><name>PT8338</name></trkpt>
<trkpt lat="53.461375" lon="05.899896"><ele>24.8</ele><time>2021-02-18T13:50:12Z</time><name>PT8339</name></trkpt>
<trkpt lat="53.461384" lon="05.899885"><ele>24.5</ele><time>2021-02-18T13:50:13Z</time><name>PT8340</name></trkpt>
<trkpt lat="53.461393" lon="05.899875"><ele>24.5</ele><time>2021-02-18T13:50:14Z</time><name>PT8341</name></trkpt>
<trkpt lat="53.461403" lon="05.899864"><ele>24.4</ele><time>2021-02-18T13:50:15Z</time><name>PT8342</name></trkpt>
<trkpt lat="53.461413" lon="05.899853"><ele>24.3</ele><time>2021-02-18T13:50:16Z</time><name>PT8343</name></trkpt>
<trkpt lat="53.461422" lon="05.899841"><ele>24.3</ele><time>2021-02-18T13:50:17Z</time><name>PT8344</name></trkpt>
<trkpt lat="53.461430" lon="05.899829"><ele>24.3</ele><time>2021-02-18T13:50:18Z</time><name>PT8345</name></trkpt>
<trkpt lat="53.461439" lon="05.899814"><ele>24</ele><time>2021-02-18T13:50:19Z</time><name>PT8346</name></trkpt>
<trkpt lat="53.461448" lon="05.899798"><ele>23.9</ele><time>2021-02-18T13:50:20Z</time><name>PT8347</name></trkpt>
<trkpt lat="53.461456" lon="05.899783"><ele>23.8</ele><time>2021-02-18T13:50:21Z</time><name>PT8348</name></trkpt>
<trkpt lat="53.461463" lon="05.899769"><ele>23.8</ele><time>2021-02-18T13:50:22Z</time><name>PT8349</name></trkpt>
<trkpt lat="53.461471" lon="05.899752"><ele>23.8</ele><time>2021-02-18T13:50:23Z</time><name>PT8350</name></trkpt>
<trkpt lat="53.461478" lon="05.899736"><ele>24</ele><time>2021-02-18T13:50:24Z</time><name>PT8351</name></trkpt>
<trkpt lat="53.461486" lon="05.899721"><ele>24.1</ele><time>2021-02-18T13:50:25Z</time><name>PT8352</name></trkpt>
<trkpt lat="53.461492" lon="05.899708"><ele>24.1</ele><time>2021-02-18T13:50:26Z</time><name>PT8353</name></trkpt>
<trkpt lat="53.461499" lon="05.899693"><ele>23.9</ele><time>2021-02-18T13:50:27Z</time><name>PT8354</name></trkpt>
<trkpt lat="53.461505" lon="05.899678"><ele>23.8</ele><time>2021-02-18T13:50:28Z</time><name>PT8355</name></trkpt>
<trkpt lat="53.461512" lon="05.899664"><ele>23.7</ele><time>2021-02-18T13:50:29Z</time><name>PT8356</name></trkpt>
<trkpt lat="53.461518" lon="05.899652"><ele>23.7</ele><time>2021-02-18T13:50:30Z</time><name>PT8357</name></trkpt>
<trkpt lat="53.461525" lon="05.899637"><ele>23.8</ele><time>2021-02-18T13:50:31Z</time><name>PT8358</name></trkpt>
<trkpt lat="53.461532" lon="05.899621"><ele>23.9</ele><time>2021-02-18T13:50:32Z</time><name>PT8359</name></trkpt>
<trkpt lat="53.461539" lon="05.899607"><ele>24.1</ele><time>2021-02-18T13:50:33Z</time><name>PT8360</name></trkpt>
<trkpt lat="53.461543" lon="05.899592"><ele>24.1</ele><time>2021-02-18T13:50:34Z</time><name>PT8361</name></trkpt>
<trkpt lat="53.461547" lon="05.899578"><ele>23.9</ele><time>2021-02-18T13:50:35Z</time><name>PT8362</name></trkpt>
<trkpt lat="53.461552" lon="05.899562"><ele>23.8</ele><time>2021-02-18T13:50:36Z</time><name>PT8363</name></trkpt>
<trkpt lat="53.461557" lon="05.899546"><ele>24</ele><time>2021-02-18T13:50:37Z</time><name>PT8364</name></trkpt>
<trkpt lat="53.461562" lon="05.899527"><ele>23.8</ele><time>2021-02-18T13:50:38Z</time><name>PT8365</name></trkpt>
<trkpt lat="53.461567" lon="05.899511"><ele>23.8</ele><time>2021-02-18T13:50:39Z</time><name>PT8366</name></trkpt>
<trkpt lat="53.461574" lon="05.899497"><ele>23.9</ele><time>2021-02-18T13:50:40Z</time><name>PT8367</name></trkpt>
<trkpt lat="53.461580" lon="05.899482"><ele>24</ele><time>2021-02-18T13:50:41Z</time><name>PT8368</name></trkpt>
<trkpt lat="53.461585" lon="05.899467"><ele>23.8</ele><time>2021-02-18T13:50:42Z</time><name>PT8369</name></trkpt>
<trkpt lat="53.461591" lon="05.899450"><ele>24</ele><time>2021-02-18T13:50:43Z</time><name>PT8370</name></trkpt>
<trkpt lat="53.461596" lon="05.899434"><ele>24</ele><time>2021-02-18T13:50:44Z</time><name>PT8371</name></trkpt>
<trkpt lat="53.461601" lon="05.899419"><ele>23.8</ele><time>2021-02-18T13:50:45Z</time><name>PT8372</name></trkpt>
<trkpt lat="53.461604" lon="05.899403"><ele>23.6</ele><time>2021-02-18T13:50:46Z</time><name>PT8373</name></trkpt>
<trkpt lat="53.461606" lon="05.899389"><ele>23.6</ele><time>2021-02-18T13:50:47Z</time><name>PT8374</name></trkpt>
<trkpt lat="53.461609" lon="05.899375"><ele>23.4</ele><time>2021-02-18T13:50:48Z</time><name>PT8375</name></trkpt>
<trkpt lat="53.461613" lon="05.899360"><ele>23.3</ele><time>2021-02-18T13:50:49Z</time><name>PT8376</name></trkpt>
<trkpt lat="53.461617" lon="05.899346"><ele>23.3</ele><time>2021-02-18T13:50:50Z</time><name>PT8377</name></trkpt>
<trkpt lat="53.461620" lon="05.899332"><ele>23.3</ele><time>2021-02-18T13:50:51Z</time><name>PT8378</name></trkpt>
<trkpt lat="53.461623" lon="05.899319"><ele>23.2</ele><time>2021-02-18T13:50:52Z</time><name>PT8379</name></trkpt>
<trkpt lat="53.461624" lon="05.899306"><ele>23.3</ele><time>2021-02-18T13:50:53Z</time><name>PT8380</name></trkpt>
<trkpt lat="53.461625" lon="05.899295"><ele>23.3</ele><time>2021-02-18T13:50:54Z</time><name>PT8381</name></trkpt>
<trkpt lat="53.461626" lon="05.899286"><ele>23.4</ele><time>2021-02-18T13:50:55Z</time><name>PT8382</name></trkpt>
<trkpt lat="53.461629" lon="05.899276"><ele>23.5</ele><time>2021-02-18T13:50:56Z</time><name>PT8383</name></trkpt>
<trkpt lat="53.461629" lon="05.899268"><ele>23.5</ele><time>2021-02-18T13:50:57Z</time><name>PT8384</name></trkpt>
<trkpt lat="53.461631" lon="05.899258"><ele>23.6</ele><time>2021-02-18T13:50:58Z</time><name>PT8385</name></trkpt>
<trkpt lat="53.461633" lon="05.899249"><ele>23.6</ele><time>2021-02-18T13:50:59Z</time><name>PT8386</name></trkpt>
<trkpt lat="53.461634" lon="05.899242"><ele>23.8</ele><time>2021-02-18T13:51:00Z</time><name>PT8387</name></trkpt>
<trkpt lat="53.461634" lon="05.899239"><ele>23.8</ele><time>2021-02-18T13:51:01Z</time><name>PT8388</name></trkpt>
<trkpt lat="53.461635" lon="05.899239"><ele>23.8</ele><time>2021-02-18T13:51:02Z</time><name>PT8389</name></trkpt>
<trkpt lat="53.461636" lon="05.899232"><ele>23.6</ele><time>2021-02-18T13:51:24Z</time><name>PT8390</name></trkpt>
<trkpt lat="53.461633" lon="05.899226"><ele>23.4</ele><time>2021-02-18T13:51:25Z</time><name>PT8391</name></trkpt>
<trkpt lat="53.461634" lon="05.899227"><ele>23.1</ele><time>2021-02-18T13:51:26Z</time><name>PT8392</name></trkpt>
<trkpt lat="53.461633" lon="05.899225"><ele>22.8</ele><time>2021-02-18T13:51:29Z</time><name>PT8393</name></trkpt>
<trkpt lat="53.461633" lon="05.899226"><ele>22.9</ele><time>2021-02-18T13:51:30Z</time><name>PT8394</name></trkpt>
<trkpt lat="53.461631" lon="05.899222"><ele>23.2</ele><time>2021-02-18T13:51:35Z</time><name>PT8395</name></trkpt>
<trkpt lat="53.461632" lon="05.899222"><ele>23.3</ele><time>2021-02-18T13:51:36Z</time><name>PT8396</name></trkpt>
<trkpt lat="53.461629" lon="05.899215"><ele>23.3</ele><time>2021-02-18T13:51:37Z</time><name>PT8397</name></trkpt>
<trkpt lat="53.461628" lon="05.899212"><ele>23.5</ele><time>2021-02-18T13:51:38Z</time><name>PT8398</name></trkpt>
<trkpt lat="53.461626" lon="05.899208"><ele>23.4</ele><time>2021-02-18T13:51:39Z</time><name>PT8399</name></trkpt>
<trkpt lat="53.461626" lon="05.899201"><ele>23.2</ele><time>2021-02-18T13:51:46Z</time><name>PT8400</name></trkpt>
<trkpt lat="53.461629" lon="05.899195"><ele>23.2</ele><time>2021-02-18T13:51:47Z</time><name>PT8401</name></trkpt>
<trkpt lat="53.461632" lon="05.899193"><ele>23.3</ele><time>2021-02-18T13:51:48Z</time><name>PT8402</name></trkpt>
<trkpt lat="53.461633" lon="05.899190"><ele>23.2</ele><time>2021-02-18T13:51:49Z</time><name>PT8403</name></trkpt>
<trkpt lat="53.461634" lon="05.899190"><ele>23.3</ele><time>2021-02-18T13:51:50Z</time><name>PT8404</name></trkpt>
<trkpt lat="53.461636" lon="05.899190"><ele>23.2</ele><time>2021-02-18T13:51:51Z</time><name>PT8405</name></trkpt>
<trkpt lat="53.461636" lon="05.899194"><ele>23.2</ele><time>2021-02-18T13:51:52Z</time><name>PT8406</name></trkpt>
<trkpt lat="53.461636" lon="05.899193"><ele>23</ele><time>2021-02-18T13:51:53Z</time><name>PT8407</name></trkpt>
<trkpt lat="53.461635" lon="05.899193"><ele>23.2</ele><time>2021-02-18T13:51:54Z</time><name>PT8408</name></trkpt>
<trkpt lat="53.461635" lon="05.899193"><ele>23.1</ele><time>2021-02-18T13:51:55Z</time><name>PT8409</name></trkpt>
<trkpt lat="53.461637" lon="05.899196"><ele>23.4</ele><time>2021-02-18T13:53:27Z</time><name>PT8410</name></trkpt>
<trkpt lat="53.461638" lon="05.899194"><ele>23.1</ele><time>2021-02-18T13:53:29Z</time><name>PT8411</name></trkpt>
<trkpt lat="53.461639" lon="05.899194"><ele>23</ele><time>2021-02-18T13:53:29Z</time><name>PT8412</name></trkpt>
<trkpt lat="53.461639" lon="05.899194"><ele>23.2</ele><time>2021-02-18T13:53:30Z</time><name>PT8413</name></trkpt>
<trkpt lat="53.461639" lon="05.899184"><ele>22.8</ele><time>2021-02-18T13:53:46Z</time><name>PT8414</name></trkpt>
<trkpt lat="53.461639" lon="05.899182"><ele>22.5</ele><time>2021-02-18T13:53:47Z</time><name>PT8415</name></trkpt>
<trkpt lat="53.461640" lon="05.899180"><ele>22.3</ele><time>2021-02-18T13:53:48Z</time><name>PT8416</name></trkpt>
<trkpt lat="53.461642" lon="05.899180"><ele>22.1</ele><time>2021-02-18T13:53:49Z</time><name>PT8417</name></trkpt>
<trkpt lat="53.461639" lon="05.899180"><ele>21.9</ele><time>2021-02-18T13:53:50Z</time><name>PT8418</name></trkpt>
<trkpt lat="53.461639" lon="05.899182"><ele>21.8</ele><time>2021-02-18T13:53:51Z</time><name>PT8419</name></trkpt>
<trkpt lat="53.461638" lon="05.899183"><ele>21.7</ele><time>2021-02-18T13:53:52Z</time><name>PT8420</name></trkpt>
<trkpt lat="53.461635" lon="05.899182"><ele>21.8</ele><time>2021-02-18T13:53:53Z</time><name>PT8421</name></trkpt>
<trkpt lat="53.461634" lon="05.899182"><ele>21.6</ele><time>2021-02-18T13:53:54Z</time><name>PT8422</name></trkpt>
<trkpt lat="53.461634" lon="05.899183"><ele>21.8</ele><time>2021-02-18T13:53:55Z</time><name>PT8423</name></trkpt>
<trkpt lat="53.461635" lon="05.899181"><ele>21.9</ele><time>2021-02-18T13:53:56Z</time><name>PT8424</name></trkpt>
<trkpt lat="53.461635" lon="05.899181"><ele>22.1</ele><time>2021-02-18T13:53:57Z</time><name>PT8425</name></trkpt>
<trkpt lat="53.461636" lon="05.899181"><ele>22.4</ele><time>2021-02-18T13:53:58Z</time><name>PT8426</name></trkpt>
<trkpt lat="53.461637" lon="05.899182"><ele>22.6</ele><time>2021-02-18T13:54:00Z</time><name>PT8427</name></trkpt>
<trkpt lat="53.461635" lon="05.899186"><ele>22.6</ele><time>2021-02-18T13:54:01Z</time><name>PT8428</name></trkpt>
<trkpt lat="53.461632" lon="05.899188"><ele>22.6</ele><time>2021-02-18T13:54:02Z</time><name>PT8429</name></trkpt>
<trkpt lat="53.461632" lon="05.899183"><ele>22.7</ele><time>2021-02-18T13:54:03Z</time><name>PT8430</name></trkpt>
<trkpt lat="53.461639" lon="05.899177"><ele>22.7</ele><time>2021-02-18T13:54:04Z</time><name>PT8431</name></trkpt>
<trkpt lat="53.461641" lon="05.899173"><ele>22.8</ele><time>2021-02-18T13:54:05Z</time><name>PT8432</name></trkpt>
<trkpt lat="53.461647" lon="05.899166"><ele>22.8</ele><time>2021-02-18T13:54:06Z</time><name>PT8433</name></trkpt>
<trkpt lat="53.461653" lon="05.899158"><ele>23</ele><time>2021-02-18T13:54:07Z</time><name>PT8434</name></trkpt>
<trkpt lat="53.461655" lon="05.899154"><ele>22.8</ele><time>2021-02-18T13:54:08Z</time><name>PT8435</name></trkpt>
<trkpt lat="53.461662" lon="05.899149"><ele>22.8</ele><time>2021-02-18T13:54:09Z</time><name>PT8436</name></trkpt>
<trkpt lat="53.461666" lon="05.899150"><ele>22.7</ele><time>2021-02-18T13:54:10Z</time><name>PT8437</name></trkpt>
<trkpt lat="53.461668" lon="05.899150"><ele>22.6</ele><time>2021-02-18T13:54:11Z</time><name>PT8438</name></trkpt>
<trkpt lat="53.461669" lon="05.899149"><ele>22.3</ele><time>2021-02-18T13:54:12Z</time><name>PT8439</name></trkpt>
<trkpt lat="53.461669" lon="05.899146"><ele>22.3</ele><time>2021-02-18T13:54:13Z</time><name>PT8440</name></trkpt>
<trkpt lat="53.461664" lon="05.899149"><ele>22.4</ele><time>2021-02-18T13:54:14Z</time><name>PT8441</name></trkpt>
<trkpt lat="53.461661" lon="05.899149"><ele>22.6</ele><time>2021-02-18T13:54:15Z</time><name>PT8442</name></trkpt>
<trkpt lat="53.461661" lon="05.899152"><ele>23</ele><time>2021-02-18T13:54:16Z</time><name>PT8443</name></trkpt>
<trkpt lat="53.461662" lon="05.899151"><ele>23.2</ele><time>2021-02-18T13:54:17Z</time><name>PT8444</name></trkpt>
<trkpt lat="53.461667" lon="05.899147"><ele>23.3</ele><time>2021-02-18T13:54:18Z</time><name>PT8445</name></trkpt>
<trkpt lat="53.461674" lon="05.899141"><ele>23.2</ele><time>2021-02-18T13:54:19Z</time><name>PT8446</name></trkpt>
<trkpt lat="53.461682" lon="05.899133"><ele>23.3</ele><time>2021-02-18T13:54:20Z</time><name>PT8447</name></trkpt>
<trkpt lat="53.461691" lon="05.899128"><ele>23.2</ele><time>2021-02-18T13:54:21Z</time><name>PT8448</name></trkpt>
<trkpt lat="53.461702" lon="05.899130"><ele>23.1</ele><time>2021-02-18T13:54:22Z</time><name>PT8449</name></trkpt>
<trkpt lat="53.461711" lon="05.899138"><ele>23</ele><time>2021-02-18T13:54:23Z</time><name>PT8450</name></trkpt>
<trkpt lat="53.461722" lon="05.899145"><ele>23</ele><time>2021-02-18T13:54:24Z</time><name>PT8451</name></trkpt>
<trkpt lat="53.461734" lon="05.899155"><ele>23.1</ele><time>2021-02-18T13:54:25Z</time><name>PT8452</name></trkpt>
<trkpt lat="53.461743" lon="05.899163"><ele>23.1</ele><time>2021-02-18T13:54:26Z</time><name>PT8453</name></trkpt>
<trkpt lat="53.461753" lon="05.899173"><ele>23</ele><time>2021-02-18T13:54:27Z</time><name>PT8454</name></trkpt>
<trkpt lat="53.461760" lon="05.899181"><ele>23.1</ele><time>2021-02-18T13:54:28Z</time><name>PT8455</name></trkpt>
<trkpt lat="53.461770" lon="05.899189"><ele>23</ele><time>2021-02-18T13:54:29Z</time><name>PT8456</name></trkpt>
<trkpt lat="53.461782" lon="05.899196"><ele>22.8</ele><time>2021-02-18T13:54:30Z</time><name>PT8457</name></trkpt>
<trkpt lat="53.461791" lon="05.899204"><ele>22.7</ele><time>2021-02-18T13:54:31Z</time><name>PT8458</name></trkpt>
<trkpt lat="53.461803" lon="05.899212"><ele>22.8</ele><time>2021-02-18T13:54:32Z</time><name>PT8459</name></trkpt>
<trkpt lat="53.461812" lon="05.899218"><ele>22.7</ele><time>2021-02-18T13:54:33Z</time><name>PT8460</name></trkpt>
<trkpt lat="53.461823" lon="05.899226"><ele>22.8</ele><time>2021-02-18T13:54:34Z</time><name>PT8461</name></trkpt>
<trkpt lat="53.461834" lon="05.899232"><ele>22.9</ele><time>2021-02-18T13:54:35Z</time><name>PT8462</name></trkpt>
<trkpt lat="53.461844" lon="05.899237"><ele>22.8</ele><time>2021-02-18T13:54:36Z</time><name>PT8463</name></trkpt>
<trkpt lat="53.461855" lon="05.899246"><ele>22.8</ele><time>2021-02-18T13:54:37Z</time><name>PT8464</name></trkpt>
<trkpt lat="53.461864" lon="05.899256"><ele>23.1</ele><time>2021-02-18T13:54:38Z</time><name>PT8465</name></trkpt>
<trkpt lat="53.461875" lon="05.899265"><ele>22.8</ele><time>2021-02-18T13:54:39Z</time><name>PT8466</name></trkpt>
<trkpt lat="53.461888" lon="05.899275"><ele>22.8</ele><time>2021-02-18T13:54:40Z</time><name>PT8467</name></trkpt>
<trkpt lat="53.461899" lon="05.899285"><ele>22.8</ele><time>2021-02-18T13:54:41Z</time><name>PT8468</name></trkpt>
<trkpt lat="53.461909" lon="05.899294"><ele>22.8</ele><time>2021-02-18T13:54:42Z</time><name>PT8469</name></trkpt>
<trkpt lat="53.461920" lon="05.899301"><ele>22.6</ele><time>2021-02-18T13:54:43Z</time><name>PT8470</name></trkpt>
<trkpt lat="53.461929" lon="05.899310"><ele>22.7</ele><time>2021-02-18T13:54:44Z</time><name>PT8471</name></trkpt>
<trkpt lat="53.461939" lon="05.899317"><ele>22.9</ele><time>2021-02-18T13:54:45Z</time><name>PT8472</name></trkpt>
<trkpt lat="53.461949" lon="05.899324"><ele>23</ele><time>2021-02-18T13:54:46Z</time><name>PT8473</name></trkpt>
<trkpt lat="53.461960" lon="05.899331"><ele>22.9</ele><time>2021-02-18T13:54:47Z</time><name>PT8474</name></trkpt>
<trkpt lat="53.461970" lon="05.899340"><ele>23</ele><time>2021-02-18T13:54:48Z</time><name>PT8475</name></trkpt>
<trkpt lat="53.461980" lon="05.899348"><ele>22.9</ele><time>2021-02-18T13:54:49Z</time><name>PT8476</name></trkpt>
<trkpt lat="53.461990" lon="05.899357"><ele>22.9</ele><time>2021-02-18T13:54:50Z</time><name>PT8477</name></trkpt>
<trkpt lat="53.461999" lon="05.899366"><ele>22.8</ele><time>2021-02-18T13:54:51Z</time><name>PT8478</name></trkpt>
<trkpt lat="53.462010" lon="05.899374"><ele>22.8</ele><time>2021-02-18T13:54:52Z</time><name>PT8479</name></trkpt>
<trkpt lat="53.462021" lon="05.899384"><ele>22.8</ele><time>2021-02-18T13:54:53Z</time><name>PT8480</name></trkpt>
<trkpt lat="53.462031" lon="05.899395"><ele>22.8</ele><time>2021-02-18T13:54:54Z</time><name>PT8481</name></trkpt>
<trkpt lat="53.462042" lon="05.899407"><ele>22.8</ele><time>2021-02-18T13:54:55Z</time><name>PT8482</name></trkpt>
<trkpt lat="53.462053" lon="05.899420"><ele>22.8</ele><time>2021-02-18T13:54:56Z</time><name>PT8483</name></trkpt>
<trkpt lat="53.462062" lon="05.899434"><ele>22.8</ele><time>2021-02-18T13:54:57Z</time><name>PT8484</name></trkpt>
<trkpt lat="53.462073" lon="05.899447"><ele>22.8</ele><time>2021-02-18T13:54:58Z</time><name>PT8485</name></trkpt>
<trkpt lat="53.462083" lon="05.899459"><ele>22.9</ele><time>2021-02-18T13:54:59Z</time><name>PT8486</name></trkpt>
<trkpt lat="53.462092" lon="05.899471"><ele>22.8</ele><time>2021-02-18T13:55:00Z</time><name>PT8487</name></trkpt>
<trkpt lat="53.462100" lon="05.899485"><ele>22.8</ele><time>2021-02-18T13:55:01Z</time><name>PT8488</name></trkpt>
<trkpt lat="53.462111" lon="05.899496"><ele>23</ele><time>2021-02-18T13:55:02Z</time><name>PT8489</name></trkpt>
<trkpt lat="53.462121" lon="05.899507"><ele>23.2</ele><time>2021-02-18T13:55:03Z</time><name>PT8490</name></trkpt>
<trkpt lat="53.462133" lon="05.899518"><ele>23.2</ele><time>2021-02-18T13:55:04Z</time><name>PT8491</name></trkpt>
<trkpt lat="53.462144" lon="05.899530"><ele>23.3</ele><time>2021-02-18T13:55:05Z</time><name>PT8492</name></trkpt>
<trkpt lat="53.462154" lon="05.899542"><ele>23.3</ele><time>2021-02-18T13:55:06Z</time><name>PT8493</name></trkpt>
<trkpt lat="53.462163" lon="05.899553"><ele>23.2</ele><time>2021-02-18T13:55:07Z</time><name>PT8494</name></trkpt>
<trkpt lat="53.462171" lon="05.899566"><ele>23.1</ele><time>2021-02-18T13:55:08Z</time><name>PT8495</name></trkpt>
<trkpt lat="53.462179" lon="05.899579"><ele>22.9</ele><time>2021-02-18T13:55:09Z</time><name>PT8496</name></trkpt>
<trkpt lat="53.462187" lon="05.899590"><ele>22.9</ele><time>2021-02-18T13:55:10Z</time><name>PT8497</name></trkpt>
<trkpt lat="53.462196" lon="05.899607"><ele>23</ele><time>2021-02-18T13:55:11Z</time><name>PT8498</name></trkpt>
<trkpt lat="53.462204" lon="05.899626"><ele>23</ele><time>2021-02-18T13:55:12Z</time><name>PT8499</name></trkpt>
<trkpt lat="53.462211" lon="05.899641"><ele>23</ele><time>2021-02-18T13:55:13Z</time><name>PT8500</name></trkpt>
<trkpt lat="53.462218" lon="05.899655"><ele>23.2</ele><time>2021-02-18T13:55:14Z</time><name>PT8501</name></trkpt>
<trkpt lat="53.462227" lon="05.899670"><ele>23.2</ele><time>2021-02-18T13:55:15Z</time><name>PT8502</name></trkpt>
<trkpt lat="53.462236" lon="05.899684"><ele>23</ele><time>2021-02-18T13:55:16Z</time><name>PT8503</name></trkpt>
<trkpt lat="53.462246" lon="05.899696"><ele>23.1</ele><time>2021-02-18T13:55:17Z</time><name>PT8504</name></trkpt>
<trkpt lat="53.462255" lon="05.899711"><ele>23</ele><time>2021-02-18T13:55:18Z</time><name>PT8505</name></trkpt>
<trkpt lat="53.462262" lon="05.899724"><ele>23</ele><time>2021-02-18T13:55:19Z</time><name>PT8506</name></trkpt>
<trkpt lat="53.462268" lon="05.899737"><ele>22.9</ele><time>2021-02-18T13:55:20Z</time><name>PT8507</name></trkpt>
<trkpt lat="53.462276" lon="05.899749"><ele>23.1</ele><time>2021-02-18T13:55:21Z</time><name>PT8508</name></trkpt>
<trkpt lat="53.462281" lon="05.899763"><ele>23</ele><time>2021-02-18T13:55:22Z</time><name>PT8509</name></trkpt>
<trkpt lat="53.462290" lon="05.899777"><ele>23</ele><time>2021-02-18T13:55:23Z</time><name>PT8510</name></trkpt>
<trkpt lat="53.462295" lon="05.899791"><ele>23</ele><time>2021-02-18T13:55:24Z</time><name>PT8511</name></trkpt>
<trkpt lat="53.462302" lon="05.899807"><ele>22.9</ele><time>2021-02-18T13:55:25Z</time><name>PT8512</name></trkpt>
<trkpt lat="53.462312" lon="05.899822"><ele>22.9</ele><time>2021-02-18T13:55:26Z</time><name>PT8513</name></trkpt>
<trkpt lat="53.462320" lon="05.899835"><ele>22.9</ele><time>2021-02-18T13:55:27Z</time><name>PT8514</name></trkpt>
<trkpt lat="53.462328" lon="05.899848"><ele>22.8</ele><time>2021-02-18T13:55:28Z</time><name>PT8515</name></trkpt>
<trkpt lat="53.462335" lon="05.899862"><ele>22.9</ele><time>2021-02-18T13:55:29Z</time><name>PT8516</name></trkpt>
<trkpt lat="53.462343" lon="05.899876"><ele>22.9</ele><time>2021-02-18T13:55:30Z</time><name>PT8517</name></trkpt>
<trkpt lat="53.462351" lon="05.899891"><ele>22.8</ele><time>2021-02-18T13:55:31Z</time><name>PT8518</name></trkpt>
<trkpt lat="53.462358" lon="05.899905"><ele>22.8</ele><time>2021-02-18T13:55:32Z</time><name>PT8519</name></trkpt>
<trkpt lat="53.462366" lon="05.899919"><ele>22.8</ele><time>2021-02-18T13:55:33Z</time><name>PT8520</name></trkpt>
<trkpt lat="53.462372" lon="05.899933"><ele>22.8</ele><time>2021-02-18T13:55:34Z</time><name>PT8521</name></trkpt>
<trkpt lat="53.462379" lon="05.899948"><ele>22.8</ele><time>2021-02-18T13:55:35Z</time><name>PT8522</name></trkpt>
<trkpt lat="53.462385" lon="05.899965"><ele>22.7</ele><time>2021-02-18T13:55:36Z</time><name>PT8523</name></trkpt>
<trkpt lat="53.462390" lon="05.899981"><ele>22.7</ele><time>2021-02-18T13:55:37Z</time><name>PT8524</name></trkpt>
<trkpt lat="53.462396" lon="05.899996"><ele>22.8</ele><time>2021-02-18T13:55:38Z</time><name>PT8525</name></trkpt>
<trkpt lat="53.462402" lon="05.900011"><ele>22.8</ele><time>2021-02-18T13:55:39Z</time><name>PT8526</name></trkpt>
<trkpt lat="53.462410" lon="05.900026"><ele>22.9</ele><time>2021-02-18T13:55:40Z</time><name>PT8527</name></trkpt>
<trkpt lat="53.462418" lon="05.900042"><ele>23.1</ele><time>2021-02-18T13:55:41Z</time><name>PT8528</name></trkpt>
<trkpt lat="53.462424" lon="05.900057"><ele>22.9</ele><time>2021-02-18T13:55:42Z</time><name>PT8529</name></trkpt>
<trkpt lat="53.462430" lon="05.900072"><ele>22.8</ele><time>2021-02-18T13:55:43Z</time><name>PT8530</name></trkpt>
<trkpt lat="53.462436" lon="05.900086"><ele>22.8</ele><time>2021-02-18T13:55:44Z</time><name>PT8531</name></trkpt>
<trkpt lat="53.462442" lon="05.900103"><ele>22.8</ele><time>2021-02-18T13:55:45Z</time><name>PT8532</name></trkpt>
<trkpt lat="53.462450" lon="05.900120"><ele>22.8</ele><time>2021-02-18T13:55:46Z</time><name>PT8533</name></trkpt>
<trkpt lat="53.462455" lon="05.900137"><ele>22.8</ele><time>2021-02-18T13:55:47Z</time><name>PT8534</name></trkpt>
<trkpt lat="53.462461" lon="05.900155"><ele>22.8</ele><time>2021-02-18T13:55:48Z</time><name>PT8535</name></trkpt>
<trkpt lat="53.462467" lon="05.900173"><ele>22.9</ele><time>2021-02-18T13:55:49Z</time><name>PT8536</name></trkpt>
<trkpt lat="53.462470" lon="05.900189"><ele>23</ele><time>2021-02-18T13:55:50Z</time><name>PT8537</name></trkpt>
<trkpt lat="53.462475" lon="05.900207"><ele>23.2</ele><time>2021-02-18T13:55:51Z</time><name>PT8538</name></trkpt>
<trkpt lat="53.462481" lon="05.900225"><ele>23.3</ele><time>2021-02-18T13:55:52Z</time><name>PT8539</name></trkpt>
<trkpt lat="53.462487" lon="05.900242"><ele>23.4</ele><time>2021-02-18T13:55:53Z</time><name>PT8540</name></trkpt>
<trkpt lat="53.462493" lon="05.900260"><ele>23.4</ele><time>2021-02-18T13:55:54Z</time><name>PT8541</name></trkpt>
<trkpt lat="53.462499" lon="05.900278"><ele>23.2</ele><time>2021-02-18T13:55:55Z</time><name>PT8542</name></trkpt>
<trkpt lat="53.462505" lon="05.900296"><ele>23.2</ele><time>2021-02-18T13:55:56Z</time><name>PT8543</name></trkpt>
<trkpt lat="53.462511" lon="05.900314"><ele>22.8</ele><time>2021-02-18T13:55:57Z</time><name>PT8544</name></trkpt>
<trkpt lat="53.462516" lon="05.900332"><ele>22.8</ele><time>2021-02-18T13:55:58Z</time><name>PT8545</name></trkpt>
<trkpt lat="53.462522" lon="05.900350"><ele>22.8</ele><time>2021-02-18T13:55:59Z</time><name>PT8546</name></trkpt>
<trkpt lat="53.462529" lon="05.900368"><ele>22.8</ele><time>2021-02-18T13:56:00Z</time><name>PT8547</name></trkpt>
<trkpt lat="53.462535" lon="05.900384"><ele>22.8</ele><time>2021-02-18T13:56:01Z</time><name>PT8548</name></trkpt>
<trkpt lat="53.462540" lon="05.900399"><ele>22.8</ele><time>2021-02-18T13:56:02Z</time><name>PT8549</name></trkpt>
<trkpt lat="53.462547" lon="05.900414"><ele>22.8</ele><time>2021-02-18T13:56:03Z</time><name>PT8550</name></trkpt>
<trkpt lat="53.462552" lon="05.900432"><ele>22.7</ele><time>2021-02-18T13:56:04Z</time><name>PT8551</name></trkpt>
<trkpt lat="53.462558" lon="05.900449"><ele>22.6</ele><time>2021-02-18T13:56:05Z</time><name>PT8552</name></trkpt>
<trkpt lat="53.462561" lon="05.900465"><ele>22.6</ele><time>2021-02-18T13:56:06Z</time><name>PT8553</name></trkpt>
<trkpt lat="53.462566" lon="05.900478"><ele>22.5</ele><time>2021-02-18T13:56:07Z</time><name>PT8554</name></trkpt>
<trkpt lat="53.462572" lon="05.900493"><ele>22.7</ele><time>2021-02-18T13:56:08Z</time><name>PT8555</name></trkpt>
<trkpt lat="53.462577" lon="05.900509"><ele>22.7</ele><time>2021-02-18T13:56:09Z</time><name>PT8556</name></trkpt>
<trkpt lat="53.462582" lon="05.900525"><ele>22.9</ele><time>2021-02-18T13:56:10Z</time><name>PT8557</name></trkpt>
<trkpt lat="53.462587" lon="05.900541"><ele>22.8</ele><time>2021-02-18T13:56:11Z</time><name>PT8558</name></trkpt>
<trkpt lat="53.462592" lon="05.900559"><ele>22.8</ele><time>2021-02-18T13:56:12Z</time><name>PT8559</name></trkpt>
<trkpt lat="53.462598" lon="05.900578"><ele>22.8</ele><time>2021-02-18T13:56:13Z</time><name>PT8560</name></trkpt>
<trkpt lat="53.462603" lon="05.900593"><ele>22.7</ele><time>2021-02-18T13:56:14Z</time><name>PT8561</name></trkpt>
<trkpt lat="53.462608" lon="05.900610"><ele>22.7</ele><time>2021-02-18T13:56:15Z</time><name>PT8562</name></trkpt>
<trkpt lat="53.462614" lon="05.900628"><ele>22.7</ele><time>2021-02-18T13:56:16Z</time><name>PT8563</name></trkpt>
<trkpt lat="53.462620" lon="05.900646"><ele>22.5</ele><time>2021-02-18T13:56:17Z</time><name>PT8564</name></trkpt>
<trkpt lat="53.462626" lon="05.900665"><ele>22.7</ele><time>2021-02-18T13:56:18Z</time><name>PT8565</name></trkpt>
<trkpt lat="53.462630" lon="05.900682"><ele>22.7</ele><time>2021-02-18T13:56:19Z</time><name>PT8566</name></trkpt>
<trkpt lat="53.462635" lon="05.900697"><ele>22.6</ele><time>2021-02-18T13:56:20Z</time><name>PT8567</name></trkpt>
<trkpt lat="53.462640" lon="05.900712"><ele>22.8</ele><time>2021-02-18T13:56:21Z</time><name>PT8568</name></trkpt>
<trkpt lat="53.462646" lon="05.900730"><ele>22.7</ele><time>2021-02-18T13:56:22Z</time><name>PT8569</name></trkpt>
<trkpt lat="53.462650" lon="05.900747"><ele>22.6</ele><time>2021-02-18T13:56:23Z</time><name>PT8570</name></trkpt>
<trkpt lat="53.462655" lon="05.900767"><ele>22.7</ele><time>2021-02-18T13:56:24Z</time><name>PT8571</name></trkpt>
<trkpt lat="53.462661" lon="05.900787"><ele>22.7</ele><time>2021-02-18T13:56:25Z</time><name>PT8572</name></trkpt>
<trkpt lat="53.462667" lon="05.900800"><ele>22.6</ele><time>2021-02-18T13:56:26Z</time><name>PT8573</name></trkpt>
<trkpt lat="53.462674" lon="05.900815"><ele>22.4</ele><time>2021-02-18T13:56:27Z</time><name>PT8574</name></trkpt>
<trkpt lat="53.462680" lon="05.900831"><ele>22.3</ele><time>2021-02-18T13:56:28Z</time><name>PT8575</name></trkpt>
<trkpt lat="53.462686" lon="05.900849"><ele>22.3</ele><time>2021-02-18T13:56:29Z</time><name>PT8576</name></trkpt>
<trkpt lat="53.462690" lon="05.900867"><ele>22.3</ele><time>2021-02-18T13:56:30Z</time><name>PT8577</name></trkpt>
<trkpt lat="53.462695" lon="05.900885"><ele>22.4</ele><time>2021-02-18T13:56:31Z</time><name>PT8578</name></trkpt>
<trkpt lat="53.462701" lon="05.900904"><ele>22.3</ele><time>2021-02-18T13:56:32Z</time><name>PT8579</name></trkpt>
<trkpt lat="53.462705" lon="05.900922"><ele>22.4</ele><time>2021-02-18T13:56:33Z</time><name>PT8580</name></trkpt>
<trkpt lat="53.462710" lon="05.900940"><ele>22.6</ele><time>2021-02-18T13:56:34Z</time><name>PT8581</name></trkpt>
<trkpt lat="53.462714" lon="05.900958"><ele>22.6</ele><time>2021-02-18T13:56:35Z</time><name>PT8582</name></trkpt>
<trkpt lat="53.462717" lon="05.900974"><ele>22.6</ele><time>2021-02-18T13:56:36Z</time><name>PT8583</name></trkpt>
<trkpt lat="53.462722" lon="05.900991"><ele>22.6</ele><time>2021-02-18T13:56:37Z</time><name>PT8584</name></trkpt>
<trkpt lat="53.462726" lon="05.901008"><ele>22.5</ele><time>2021-02-18T13:56:38Z</time><name>PT8585</name></trkpt>
<trkpt lat="53.462733" lon="05.901024"><ele>22.4</ele><time>2021-02-18T13:56:39Z</time><name>PT8586</name></trkpt>
<trkpt lat="53.462738" lon="05.901043"><ele>22.5</ele><time>2021-02-18T13:56:40Z</time><name>PT8587</name></trkpt>
<trkpt lat="53.462742" lon="05.901062"><ele>22.5</ele><time>2021-02-18T13:56:41Z</time><name>PT8588</name></trkpt>
<trkpt lat="53.462747" lon="05.901080"><ele>22.5</ele><time>2021-02-18T13:56:42Z</time><name>PT8589</name></trkpt>
<trkpt lat="53.462755" lon="05.901092"><ele>22.5</ele><time>2021-02-18T13:56:43Z</time><name>PT8590</name></trkpt>
<trkpt lat="53.462764" lon="05.901107"><ele>22.7</ele><time>2021-02-18T13:56:44Z</time><name>PT8591</name></trkpt>
<trkpt lat="53.462774" lon="05.901124"><ele>22.6</ele><time>2021-02-18T13:56:45Z</time><name>PT8592</name></trkpt>
<trkpt lat="53.462783" lon="05.901138"><ele>22.7</ele><time>2021-02-18T13:56:46Z</time><name>PT8593</name></trkpt>
<trkpt lat="53.462792" lon="05.901150"><ele>22.7</ele><time>2021-02-18T13:56:47Z</time><name>PT8594</name></trkpt>
<trkpt lat="53.462803" lon="05.901161"><ele>22.4</ele><time>2021-02-18T13:56:48Z</time><name>PT8595</name></trkpt>
<trkpt lat="53.462812" lon="05.901170"><ele>22.2</ele><time>2021-02-18T13:56:49Z</time><name>PT8596</name></trkpt>
<trkpt lat="53.462822" lon="05.901179"><ele>22.1</ele><time>2021-02-18T13:56:50Z</time><name>PT8597</name></trkpt>
<trkpt lat="53.462833" lon="05.901184"><ele>22.1</ele><time>2021-02-18T13:56:51Z</time><name>PT8598</name></trkpt>
<trkpt lat="53.462846" lon="05.901190"><ele>22.3</ele><time>2021-02-18T13:56:52Z</time><name>PT8599</name></trkpt>
<trkpt lat="53.462858" lon="05.901196"><ele>22.3</ele><time>2021-02-18T13:56:53Z</time><name>PT8600</name></trkpt>
<trkpt lat="53.462869" lon="05.901202"><ele>22.3</ele><time>2021-02-18T13:56:54Z</time><name>PT8601</name></trkpt>
<trkpt lat="53.462882" lon="05.901206"><ele>22.3</ele><time>2021-02-18T13:56:55Z</time><name>PT8602</name></trkpt>
<trkpt lat="53.462894" lon="05.901210"><ele>22.2</ele><time>2021-02-18T13:56:56Z</time><name>PT8603</name></trkpt>
<trkpt lat="53.462905" lon="05.901211"><ele>22.2</ele><time>2021-02-18T13:56:57Z</time><name>PT8604</name></trkpt>
<trkpt lat="53.462918" lon="05.901212"><ele>22.3</ele><time>2021-02-18T13:56:58Z</time><name>PT8605</name></trkpt>
<trkpt lat="53.462930" lon="05.901213"><ele>22.3</ele><time>2021-02-18T13:56:59Z</time><name>PT8606</name></trkpt>
<trkpt lat="53.462941" lon="05.901215"><ele>22.4</ele><time>2021-02-18T13:57:00Z</time><name>PT8607</name></trkpt>
<trkpt lat="53.462953" lon="05.901214"><ele>22.5</ele><time>2021-02-18T13:57:01Z</time><name>PT8608</name></trkpt>
<trkpt lat="53.462964" lon="05.901214"><ele>22.7</ele><time>2021-02-18T13:57:02Z</time><name>PT8609</name></trkpt>
<trkpt lat="53.462977" lon="05.901214"><ele>22.7</ele><time>2021-02-18T13:57:03Z</time><name>PT8610</name></trkpt>
<trkpt lat="53.462991" lon="05.901214"><ele>22.7</ele><time>2021-02-18T13:57:04Z</time><name>PT8611</name></trkpt>
<trkpt lat="53.463004" lon="05.901214"><ele>22.8</ele><time>2021-02-18T13:57:05Z</time><name>PT8612</name></trkpt>
<trkpt lat="53.463016" lon="05.901215"><ele>22.6</ele><time>2021-02-18T13:57:06Z</time><name>PT8613</name></trkpt>
<trkpt lat="53.463027" lon="05.901217"><ele>22.5</ele><time>2021-02-18T13:57:07Z</time><name>PT8614</name></trkpt>
<trkpt lat="53.463039" lon="05.901217"><ele>22.6</ele><time>2021-02-18T13:57:08Z</time><name>PT8615</name></trkpt>
<trkpt lat="53.463052" lon="05.901217"><ele>22.6</ele><time>2021-02-18T13:57:09Z</time><name>PT8616</name></trkpt>
<trkpt lat="53.463066" lon="05.901221"><ele>22.5</ele><time>2021-02-18T13:57:10Z</time><name>PT8617</name></trkpt>
<trkpt lat="53.463078" lon="05.901223"><ele>22.5</ele><time>2021-02-18T13:57:11Z</time><name>PT8618</name></trkpt>
<trkpt lat="53.463089" lon="05.901225"><ele>22.4</ele><time>2021-02-18T13:57:12Z</time><name>PT8619</name></trkpt>
<trkpt lat="53.463100" lon="05.901228"><ele>22.4</ele><time>2021-02-18T13:57:13Z</time><name>PT8620</name></trkpt>
<trkpt lat="53.463111" lon="05.901230"><ele>22.6</ele><time>2021-02-18T13:57:14Z</time><name>PT8621</name></trkpt>
<trkpt lat="53.463124" lon="05.901235"><ele>22.9</ele><time>2021-02-18T13:57:15Z</time><name>PT8622</name></trkpt>
<trkpt lat="53.463135" lon="05.901239"><ele>23.2</ele><time>2021-02-18T13:57:16Z</time><name>PT8623</name></trkpt>
<trkpt lat="53.463147" lon="05.901244"><ele>23.3</ele><time>2021-02-18T13:57:17Z</time><name>PT8624</name></trkpt>
<trkpt lat="53.463159" lon="05.901248"><ele>23.3</ele><time>2021-02-18T13:57:18Z</time><name>PT8625</name></trkpt>
<trkpt lat="53.463170" lon="05.901252"><ele>23.1</ele><time>2021-02-18T13:57:19Z</time><name>PT8626</name></trkpt>
<trkpt lat="53.463182" lon="05.901258"><ele>23</ele><time>2021-02-18T13:57:20Z</time><name>PT8627</name></trkpt>
<trkpt lat="53.463193" lon="05.901264"><ele>22.8</ele><time>2021-02-18T13:57:21Z</time><name>PT8628</name></trkpt>
<trkpt lat="53.463204" lon="05.901271"><ele>22.8</ele><time>2021-02-18T13:57:22Z</time><name>PT8629</name></trkpt>
<trkpt lat="53.463214" lon="05.901279"><ele>22.9</ele><time>2021-02-18T13:57:23Z</time><name>PT8630</name></trkpt>
<trkpt lat="53.463225" lon="05.901287"><ele>23.1</ele><time>2021-02-18T13:57:24Z</time><name>PT8631</name></trkpt>
<trkpt lat="53.463234" lon="05.901298"><ele>23.3</ele><time>2021-02-18T13:57:25Z</time><name>PT8632</name></trkpt>
<trkpt lat="53.463243" lon="05.901312"><ele>23.3</ele><time>2021-02-18T13:57:26Z</time><name>PT8633</name></trkpt>
<trkpt lat="53.463251" lon="05.901325"><ele>23.3</ele><time>2021-02-18T13:57:27Z</time><name>PT8634</name></trkpt>
<trkpt lat="53.463259" lon="05.901339"><ele>23.4</ele><time>2021-02-18T13:57:28Z</time><name>PT8635</name></trkpt>
<trkpt lat="53.463267" lon="05.901353"><ele>23.3</ele><time>2021-02-18T13:57:29Z</time><name>PT8636</name></trkpt>
<trkpt lat="53.463273" lon="05.901368"><ele>23.5</ele><time>2021-02-18T13:57:30Z</time><name>PT8637</name></trkpt>
<trkpt lat="53.463277" lon="05.901382"><ele>23.5</ele><time>2021-02-18T13:57:31Z</time><name>PT8638</name></trkpt>
<trkpt lat="53.463282" lon="05.901397"><ele>23.5</ele><time>2021-02-18T13:57:32Z</time><name>PT8639</name></trkpt>
<trkpt lat="53.463287" lon="05.901413"><ele>23.5</ele><time>2021-02-18T13:57:33Z</time><name>PT8640</name></trkpt>
<trkpt lat="53.463293" lon="05.901432"><ele>23.4</ele><time>2021-02-18T13:57:34Z</time><name>PT8641</name></trkpt>
<trkpt lat="53.463299" lon="05.901449"><ele>23.4</ele><time>2021-02-18T13:57:35Z</time><name>PT8642</name></trkpt>
<trkpt lat="53.463304" lon="05.901468"><ele>23.3</ele><time>2021-02-18T13:57:36Z</time><name>PT8643</name></trkpt>
<trkpt lat="53.463308" lon="05.901488"><ele>23.3</ele><time>2021-02-18T13:57:37Z</time><name>PT8644</name></trkpt>
<trkpt lat="53.463312" lon="05.901508"><ele>23.3</ele><time>2021-02-18T13:57:38Z</time><name>PT8645</name></trkpt>
<trkpt lat="53.463317" lon="05.901528"><ele>23.4</ele><time>2021-02-18T13:57:39Z</time><name>PT8646</name></trkpt>
<trkpt lat="53.463321" lon="05.901547"><ele>23.6</ele><time>2021-02-18T13:57:40Z</time><name>PT8647</name></trkpt>
<trkpt lat="53.463326" lon="05.901565"><ele>23.7</ele><time>2021-02-18T13:57:41Z</time><name>PT8648</name></trkpt>
<trkpt lat="53.463332" lon="05.901582"><ele>23.7</ele><time>2021-02-18T13:57:42Z</time><name>PT8649</name></trkpt>
<trkpt lat="53.463337" lon="05.901596"><ele>23.7</ele><time>2021-02-18T13:57:43Z</time><name>PT8650</name></trkpt>
<trkpt lat="53.463342" lon="05.901612"><ele>23.7</ele><time>2021-02-18T13:57:44Z</time><name>PT8651</name></trkpt>
<trkpt lat="53.463348" lon="05.901626"><ele>23.8</ele><time>2021-02-18T13:57:45Z</time><name>PT8652</name></trkpt>
<trkpt lat="53.463354" lon="05.901636"><ele>23.9</ele><time>2021-02-18T13:57:46Z</time><name>PT8653</name></trkpt>
<trkpt lat="53.463361" lon="05.901650"><ele>23.9</ele><time>2021-02-18T13:57:47Z</time><name>PT8654</name></trkpt>
<trkpt lat="53.463369" lon="05.901664"><ele>24.1</ele><time>2021-02-18T13:57:48Z</time><name>PT8655</name></trkpt>
<trkpt lat="53.463378" lon="05.901675"><ele>24.2</ele><time>2021-02-18T13:57:49Z</time><name>PT8656</name></trkpt>
<trkpt lat="53.463386" lon="05.901687"><ele>24.3</ele><time>2021-02-18T13:57:50Z</time><name>PT8657</name></trkpt>
<trkpt lat="53.463393" lon="05.901698"><ele>24.2</ele><time>2021-02-18T13:57:51Z</time><name>PT8658</name></trkpt>
<trkpt lat="53.463401" lon="05.901707"><ele>24.1</ele><time>2021-02-18T13:57:52Z</time><name>PT8659</name></trkpt>
<trkpt lat="53.463408" lon="05.901719"><ele>24.2</ele><time>2021-02-18T13:57:53Z</time><name>PT8660</name></trkpt>
<trkpt lat="53.463413" lon="05.901731"><ele>24.1</ele><time>2021-02-18T13:57:54Z</time><name>PT8661</name></trkpt>
<trkpt lat="53.463419" lon="05.901744"><ele>24.3</ele><time>2021-02-18T13:57:55Z</time><name>PT8662</name></trkpt>
<trkpt lat="53.463426" lon="05.901758"><ele>24.4</ele><time>2021-02-18T13:57:56Z</time><name>PT8663</name></trkpt>
<trkpt lat="53.463435" lon="05.901775"><ele>24.5</ele><time>2021-02-18T13:57:57Z</time><name>PT8664</name></trkpt>
<trkpt lat="53.463443" lon="05.901791"><ele>24.6</ele><time>2021-02-18T13:57:58Z</time><name>PT8665</name></trkpt>
<trkpt lat="53.463451" lon="05.901808"><ele>24.5</ele><time>2021-02-18T13:57:59Z</time><name>PT8666</name></trkpt>
<trkpt lat="53.463459" lon="05.901822"><ele>24.3</ele><time>2021-02-18T13:58:00Z</time><name>PT8667</name></trkpt>
<trkpt lat="53.463464" lon="05.901836"><ele>24.3</ele><time>2021-02-18T13:58:01Z</time><name>PT8668</name></trkpt>
<trkpt lat="53.463470" lon="05.901850"><ele>24.2</ele><time>2021-02-18T13:58:02Z</time><name>PT8669</name></trkpt>
<trkpt lat="53.463475" lon="05.901864"><ele>24</ele><time>2021-02-18T13:58:03Z</time><name>PT8670</name></trkpt>
<trkpt lat="53.463481" lon="05.901878"><ele>23.8</ele><time>2021-02-18T13:58:04Z</time><name>PT8671</name></trkpt>
<trkpt lat="53.463486" lon="05.901891"><ele>23.8</ele><time>2021-02-18T13:58:05Z</time><name>PT8672</name></trkpt>
<trkpt lat="53.463489" lon="05.901904"><ele>23.8</ele><time>2021-02-18T13:58:06Z</time><name>PT8673</name></trkpt>
<trkpt lat="53.463493" lon="05.901919"><ele>23.8</ele><time>2021-02-18T13:58:07Z</time><name>PT8674</name></trkpt>
<trkpt lat="53.463496" lon="05.901937"><ele>23.8</ele><time>2021-02-18T13:58:08Z</time><name>PT8675</name></trkpt>
<trkpt lat="53.463499" lon="05.901956"><ele>24.1</ele><time>2021-02-18T13:58:09Z</time><name>PT8676</name></trkpt>
<trkpt lat="53.463502" lon="05.901972"><ele>23.9</ele><time>2021-02-18T13:58:10Z</time><name>PT8677</name></trkpt>
<trkpt lat="53.463505" lon="05.901989"><ele>24</ele><time>2021-02-18T13:58:11Z</time><name>PT8678</name></trkpt>
<trkpt lat="53.463505" lon="05.902003"><ele>23.7</ele><time>2021-02-18T13:58:12Z</time><name>PT8679</name></trkpt>
<trkpt lat="53.463507" lon="05.902023"><ele>23.3</ele><time>2021-02-18T13:58:13Z</time><name>PT8680</name></trkpt>
<trkpt lat="53.463512" lon="05.902040"><ele>23.3</ele><time>2021-02-18T13:58:14Z</time><name>PT8681</name></trkpt>
<trkpt lat="53.463517" lon="05.902056"><ele>23.1</ele><time>2021-02-18T13:58:15Z</time><name>PT8682</name></trkpt>
<trkpt lat="53.463522" lon="05.902070"><ele>22.9</ele><time>2021-02-18T13:58:16Z</time><name>PT8683</name></trkpt>
<trkpt lat="53.463527" lon="05.902083"><ele>22.8</ele><time>2021-02-18T13:58:17Z</time><name>PT8684</name></trkpt>
<trkpt lat="53.463529" lon="05.902098"><ele>22.6</ele><time>2021-02-18T13:58:18Z</time><name>PT8685</name></trkpt>
<trkpt lat="53.463531" lon="05.902116"><ele>22.5</ele><time>2021-02-18T13:58:19Z</time><name>PT8686</name></trkpt>
<trkpt lat="53.463532" lon="05.902139"><ele>22.4</ele><time>2021-02-18T13:58:20Z</time><name>PT8687</name></trkpt>
<trkpt lat="53.463534" lon="05.902158"><ele>22.6</ele><time>2021-02-18T13:58:21Z</time><name>PT8688</name></trkpt>
<trkpt lat="53.463536" lon="05.902175"><ele>22.8</ele><time>2021-02-18T13:58:22Z</time><name>PT8689</name></trkpt>
<trkpt lat="53.463539" lon="05.902194"><ele>22.7</ele><time>2021-02-18T13:58:23Z</time><name>PT8690</name></trkpt>
<trkpt lat="53.463542" lon="05.902213"><ele>22.8</ele><time>2021-02-18T13:58:24Z</time><name>PT8691</name></trkpt>
<trkpt lat="53.463546" lon="05.902231"><ele>22.8</ele><time>2021-02-18T13:58:25Z</time><name>PT8692</name></trkpt>
<trkpt lat="53.463550" lon="05.902249"><ele>22.7</ele><time>2021-02-18T13:58:26Z</time><name>PT8693</name></trkpt>
<trkpt lat="53.463553" lon="05.902267"><ele>22.7</ele><time>2021-02-18T13:58:27Z</time><name>PT8694</name></trkpt>
<trkpt lat="53.463557" lon="05.902285"><ele>22.8</ele><time>2021-02-18T13:58:28Z</time><name>PT8695</name></trkpt>
<trkpt lat="53.463560" lon="05.902304"><ele>22.7</ele><time>2021-02-18T13:58:29Z</time><name>PT8696</name></trkpt>
<trkpt lat="53.463564" lon="05.902323"><ele>22.7</ele><time>2021-02-18T13:58:30Z</time><name>PT8697</name></trkpt>
<trkpt lat="53.463568" lon="05.902343"><ele>22.9</ele><time>2021-02-18T13:58:31Z</time><name>PT8698</name></trkpt>
<trkpt lat="53.463573" lon="05.902362"><ele>22.8</ele><time>2021-02-18T13:58:32Z</time><name>PT8699</name></trkpt>
<trkpt lat="53.463576" lon="05.902380"><ele>22.5</ele><time>2021-02-18T13:58:33Z</time><name>PT8700</name></trkpt>
<trkpt lat="53.463579" lon="05.902399"><ele>22.4</ele><time>2021-02-18T13:58:34Z</time><name>PT8701</name></trkpt>
<trkpt lat="53.463584" lon="05.902417"><ele>22.3</ele><time>2021-02-18T13:58:35Z</time><name>PT8702</name></trkpt>
<trkpt lat="53.463589" lon="05.902434"><ele>22.2</ele><time>2021-02-18T13:58:36Z</time><name>PT8703</name></trkpt>
<trkpt lat="53.463594" lon="05.902449"><ele>22.1</ele><time>2021-02-18T13:58:37Z</time><name>PT8704</name></trkpt>
<trkpt lat="53.463599" lon="05.902465"><ele>22.1</ele><time>2021-02-18T13:58:38Z</time><name>PT8705</name></trkpt>
<trkpt lat="53.463606" lon="05.902480"><ele>22.3</ele><time>2021-02-18T13:58:39Z</time><name>PT8706</name></trkpt>
<trkpt lat="53.463614" lon="05.902491"><ele>22.2</ele><time>2021-02-18T13:58:40Z</time><name>PT8707</name></trkpt>
<trkpt lat="53.463621" lon="05.902504"><ele>22.2</ele><time>2021-02-18T13:58:41Z</time><name>PT8708</name></trkpt>
<trkpt lat="53.463628" lon="05.902517"><ele>22.3</ele><time>2021-02-18T13:58:42Z</time><name>PT8709</name></trkpt>
<trkpt lat="53.463635" lon="05.902532"><ele>22.3</ele><time>2021-02-18T13:58:43Z</time><name>PT8710</name></trkpt>
<trkpt lat="53.463642" lon="05.902547"><ele>22.4</ele><time>2021-02-18T13:58:44Z</time><name>PT8711</name></trkpt>
<trkpt lat="53.463649" lon="05.902562"><ele>22.6</ele><time>2021-02-18T13:58:45Z</time><name>PT8712</name></trkpt>
<trkpt lat="53.463657" lon="05.902577"><ele>22.8</ele><time>2021-02-18T13:58:46Z</time><name>PT8713</name></trkpt>
<trkpt lat="53.463664" lon="05.902592"><ele>22.8</ele><time>2021-02-18T13:58:47Z</time><name>PT8714</name></trkpt>
<trkpt lat="53.463672" lon="05.902610"><ele>22.6</ele><time>2021-02-18T13:58:48Z</time><name>PT8715</name></trkpt>
<trkpt lat="53.463679" lon="05.902629"><ele>22.7</ele><time>2021-02-18T13:58:49Z</time><name>PT8716</name></trkpt>
<trkpt lat="53.463686" lon="05.902643"><ele>22.7</ele><time>2021-02-18T13:58:50Z</time><name>PT8717</name></trkpt>
<trkpt lat="53.463693" lon="05.902657"><ele>22.8</ele><time>2021-02-18T13:58:51Z</time><name>PT8718</name></trkpt>
<trkpt lat="53.463699" lon="05.902668"><ele>23</ele><time>2021-02-18T13:58:52Z</time><name>PT8719</name></trkpt>
<trkpt lat="53.463705" lon="05.902679"><ele>23</ele><time>2021-02-18T13:58:53Z</time><name>PT8720</name></trkpt>
<trkpt lat="53.463713" lon="05.902691"><ele>23.1</ele><time>2021-02-18T13:58:54Z</time><name>PT8721</name></trkpt>
<trkpt lat="53.463721" lon="05.902702"><ele>23.1</ele><time>2021-02-18T13:58:55Z</time><name>PT8722</name></trkpt>
<trkpt lat="53.463727" lon="05.902713"><ele>23</ele><time>2021-02-18T13:58:56Z</time><name>PT8723</name></trkpt>
<trkpt lat="53.463733" lon="05.902726"><ele>23</ele><time>2021-02-18T13:58:57Z</time><name>PT8724</name></trkpt>
<trkpt lat="53.463741" lon="05.902737"><ele>22.9</ele><time>2021-02-18T13:58:58Z</time><name>PT8725</name></trkpt>
<trkpt lat="53.463750" lon="05.902749"><ele>23</ele><time>2021-02-18T13:58:59Z</time><name>PT8726</name></trkpt>
<trkpt lat="53.463760" lon="05.902760"><ele>23.2</ele><time>2021-02-18T13:59:00Z</time><name>PT8727</name></trkpt>
<trkpt lat="53.463770" lon="05.902773"><ele>23.3</ele><time>2021-02-18T13:59:01Z</time><name>PT8728</name></trkpt>
<trkpt lat="53.463780" lon="05.902785"><ele>23.3</ele><time>2021-02-18T13:59:02Z</time><name>PT8729</name></trkpt>
<trkpt lat="53.463791" lon="05.902797"><ele>23.5</ele><time>2021-02-18T13:59:03Z</time><name>PT8730</name></trkpt>
<trkpt lat="53.463800" lon="05.902809"><ele>23.5</ele><time>2021-02-18T13:59:04Z</time><name>PT8731</name></trkpt>
<trkpt lat="53.463809" lon="05.902820"><ele>23.5</ele><time>2021-02-18T13:59:05Z</time><name>PT8732</name></trkpt>
<trkpt lat="53.463817" lon="05.902829"><ele>23.6</ele><time>2021-02-18T13:59:06Z</time><name>PT8733</name></trkpt>
<trkpt lat="53.463826" lon="05.902838"><ele>23.8</ele><time>2021-02-18T13:59:07Z</time><name>PT8734</name></trkpt>
<trkpt lat="53.463835" lon="05.902847"><ele>23.6</ele><time>2021-02-18T13:59:08Z</time><name>PT8735</name></trkpt>
<trkpt lat="53.463845" lon="05.902855"><ele>23.7</ele><time>2021-02-18T13:59:09Z</time><name>PT8736</name></trkpt>
<trkpt lat="53.463854" lon="05.902864"><ele>23.8</ele><time>2021-02-18T13:59:10Z</time><name>PT8737</name></trkpt>
<trkpt lat="53.463862" lon="05.902877"><ele>23.8</ele><time>2021-02-18T13:59:11Z</time><name>PT8738</name></trkpt>
<trkpt lat="53.463872" lon="05.902890"><ele>23.8</ele><time>2021-02-18T13:59:12Z</time><name>PT8739</name></trkpt>
<trkpt lat="53.463883" lon="05.902903"><ele>24</ele><time>2021-02-18T13:59:13Z</time><name>PT8740</name></trkpt>
<trkpt lat="53.463892" lon="05.902915"><ele>24.1</ele><time>2021-02-18T13:59:14Z</time><name>PT8741</name></trkpt>
<trkpt lat="53.463902" lon="05.902927"><ele>23.9</ele><time>2021-02-18T13:59:15Z</time><name>PT8742</name></trkpt>
<trkpt lat="53.463911" lon="05.902939"><ele>23.9</ele><time>2021-02-18T13:59:16Z</time><name>PT8743</name></trkpt>
<trkpt lat="53.463920" lon="05.902949"><ele>23.8</ele><time>2021-02-18T13:59:17Z</time><name>PT8744</name></trkpt>
<trkpt lat="53.463930" lon="05.902958"><ele>23.8</ele><time>2021-02-18T13:59:18Z</time><name>PT8745</name></trkpt>
<trkpt lat="53.463940" lon="05.902965"><ele>23.8</ele><time>2021-02-18T13:59:19Z</time><name>PT8746</name></trkpt>
<trkpt lat="53.463951" lon="05.902972"><ele>23.9</ele><time>2021-02-18T13:59:20Z</time><name>PT8747</name></trkpt>
<trkpt lat="53.463961" lon="05.902978"><ele>23.8</ele><time>2021-02-18T13:59:21Z</time><name>PT8748</name></trkpt>
<trkpt lat="53.463969" lon="05.902986"><ele>23.9</ele><time>2021-02-18T13:59:22Z</time><name>PT8749</name></trkpt>
<trkpt lat="53.463979" lon="05.902998"><ele>23.9</ele><time>2021-02-18T13:59:23Z</time><name>PT8750</name></trkpt>
<trkpt lat="53.463989" lon="05.903012"><ele>24.1</ele><time>2021-02-18T13:59:24Z</time><name>PT8751</name></trkpt>
<trkpt lat="53.463999" lon="05.903024"><ele>23.9</ele><time>2021-02-18T13:59:25Z</time><name>PT8752</name></trkpt>
<trkpt lat="53.464010" lon="05.903036"><ele>23.8</ele><time>2021-02-18T13:59:26Z</time><name>PT8753</name></trkpt>
<trkpt lat="53.464020" lon="05.903045"><ele>23.8</ele><time>2021-02-18T13:59:27Z</time><name>PT8754</name></trkpt>
<trkpt lat="53.464032" lon="05.903054"><ele>23.9</ele><time>2021-02-18T13:59:28Z</time><name>PT8755</name></trkpt>
<trkpt lat="53.464043" lon="05.903064"><ele>23.8</ele><time>2021-02-18T13:59:29Z</time><name>PT8756</name></trkpt>
<trkpt lat="53.464054" lon="05.903071"><ele>23.8</ele><time>2021-02-18T13:59:30Z</time><name>PT8757</name></trkpt>
<trkpt lat="53.464063" lon="05.903080"><ele>23.8</ele><time>2021-02-18T13:59:31Z</time><name>PT8758</name></trkpt>
<trkpt lat="53.464072" lon="05.903088"><ele>23.7</ele><time>2021-02-18T13:59:32Z</time><name>PT8759</name></trkpt>
<trkpt lat="53.464083" lon="05.903098"><ele>23.5</ele><time>2021-02-18T13:59:33Z</time><name>PT8760</name></trkpt>
<trkpt lat="53.464095" lon="05.903108"><ele>23.5</ele><time>2021-02-18T13:59:34Z</time><name>PT8761</name></trkpt>
<trkpt lat="53.464106" lon="05.903120"><ele>23.4</ele><time>2021-02-18T13:59:35Z</time><name>PT8762</name></trkpt>
<trkpt lat="53.464117" lon="05.903129"><ele>23.4</ele><time>2021-02-18T13:59:36Z</time><name>PT8763</name></trkpt>
<trkpt lat="53.464129" lon="05.903135"><ele>23.6</ele><time>2021-02-18T13:59:37Z</time><name>PT8764</name></trkpt>
<trkpt lat="53.464141" lon="05.903141"><ele>23.6</ele><time>2021-02-18T13:59:38Z</time><name>PT8765</name></trkpt>
<trkpt lat="53.464153" lon="05.903149"><ele>23.6</ele><time>2021-02-18T13:59:39Z</time><name>PT8766</name></trkpt>
<trkpt lat="53.464166" lon="05.903153"><ele>23.8</ele><time>2021-02-18T13:59:40Z</time><name>PT8767</name></trkpt>
<trkpt lat="53.464178" lon="05.903154"><ele>23.7</ele><time>2021-02-18T13:59:41Z</time><name>PT8768</name></trkpt>
<trkpt lat="53.464189" lon="05.903158"><ele>23.7</ele><time>2021-02-18T13:59:42Z</time><name>PT8769</name></trkpt>
<trkpt lat="53.464200" lon="05.903164"><ele>23.4</ele><time>2021-02-18T13:59:43Z</time><name>PT8770</name></trkpt>
<trkpt lat="53.464209" lon="05.903172"><ele>23.5</ele><time>2021-02-18T13:59:44Z</time><name>PT8771</name></trkpt>
<trkpt lat="53.464221" lon="05.903177"><ele>23.6</ele><time>2021-02-18T13:59:45Z</time><name>PT8772</name></trkpt>
<trkpt lat="53.464233" lon="05.903181"><ele>23.7</ele><time>2021-02-18T13:59:46Z</time><name>PT8773</name></trkpt>
<trkpt lat="53.464244" lon="05.903183"><ele>23.7</ele><time>2021-02-18T13:59:47Z</time><name>PT8774</name></trkpt>
<trkpt lat="53.464255" lon="05.903183"><ele>23.6</ele><time>2021-02-18T13:59:48Z</time><name>PT8775</name></trkpt>
<trkpt lat="53.464265" lon="05.903182"><ele>23.4</ele><time>2021-02-18T13:59:49Z</time><name>PT8776</name></trkpt>
<trkpt lat="53.464276" lon="05.903180"><ele>23.3</ele><time>2021-02-18T13:59:50Z</time><name>PT8777</name></trkpt>
<trkpt lat="53.464286" lon="05.903180"><ele>23.3</ele><time>2021-02-18T13:59:51Z</time><name>PT8778</name></trkpt>
<trkpt lat="53.464297" lon="05.903180"><ele>23.3</ele><time>2021-02-18T13:59:52Z</time><name>PT8779</name></trkpt>
<trkpt lat="53.464307" lon="05.903179"><ele>23.3</ele><time>2021-02-18T13:59:53Z</time><name>PT8780</name></trkpt>
<trkpt lat="53.464317" lon="05.903180"><ele>23.3</ele><time>2021-02-18T13:59:54Z</time><name>PT8781</name></trkpt>
<trkpt lat="53.464329" lon="05.903182"><ele>23.3</ele><time>2021-02-18T13:59:55Z</time><name>PT8782</name></trkpt>
<trkpt lat="53.464341" lon="05.903182"><ele>23.3</ele><time>2021-02-18T13:59:56Z</time><name>PT8783</name></trkpt>
<trkpt lat="53.464353" lon="05.903185"><ele>23.3</ele><time>2021-02-18T13:59:57Z</time><name>PT8784</name></trkpt>
<trkpt lat="53.464364" lon="05.903186"><ele>23.3</ele><time>2021-02-18T13:59:58Z</time><name>PT8785</name></trkpt>
<trkpt lat="53.464374" lon="05.903185"><ele>23.3</ele><time>2021-02-18T13:59:59Z</time><name>PT8786</name></trkpt>
<trkpt lat="53.464385" lon="05.903182"><ele>23.3</ele><time>2021-02-18T14:00:00Z</time><name>PT8787</name></trkpt>
<trkpt lat="53.464397" lon="05.903182"><ele>23.2</ele><time>2021-02-18T14:00:01Z</time><name>PT8788</name></trkpt>
<trkpt lat="53.464409" lon="05.903182"><ele>23.2</ele><time>2021-02-18T14:00:02Z</time><name>PT8789</name></trkpt>
<trkpt lat="53.464420" lon="05.903180"><ele>23.3</ele><time>2021-02-18T14:00:03Z</time><name>PT8790</name></trkpt>
<trkpt lat="53.464430" lon="05.903180"><ele>23.3</ele><time>2021-02-18T14:00:04Z</time><name>PT8791</name></trkpt>
<trkpt lat="53.464440" lon="05.903180"><ele>23.3</ele><time>2021-02-18T14:00:05Z</time><name>PT8792</name></trkpt>
<trkpt lat="53.464451" lon="05.903182"><ele>23.4</ele><time>2021-02-18T14:00:06Z</time><name>PT8793</name></trkpt>
<trkpt lat="53.464462" lon="05.903183"><ele>23.5</ele><time>2021-02-18T14:00:07Z</time><name>PT8794</name></trkpt>
<trkpt lat="53.464474" lon="05.903182"><ele>23.5</ele><time>2021-02-18T14:00:08Z</time><name>PT8795</name></trkpt>
<trkpt lat="53.464485" lon="05.903182"><ele>23.4</ele><time>2021-02-18T14:00:09Z</time><name>PT8796</name></trkpt>
<trkpt lat="53.464495" lon="05.903182"><ele>23.4</ele><time>2021-02-18T14:00:10Z</time><name>PT8797</name></trkpt>
<trkpt lat="53.464506" lon="05.903184"><ele>23.3</ele><time>2021-02-18T14:00:11Z</time><name>PT8798</name></trkpt>
<trkpt lat="53.464518" lon="05.903187"><ele>23.1</ele><time>2021-02-18T14:00:12Z</time><name>PT8799</name></trkpt>
<trkpt lat="53.464528" lon="05.903192"><ele>23</ele><time>2021-02-18T14:00:13Z</time><name>PT8800</name></trkpt>
<trkpt lat="53.464536" lon="05.903197"><ele>23.2</ele><time>2021-02-18T14:00:14Z</time><name>PT8801</name></trkpt>
<trkpt lat="53.464547" lon="05.903204"><ele>23.2</ele><time>2021-02-18T14:00:15Z</time><name>PT8802</name></trkpt>
<trkpt lat="53.464559" lon="05.903206"><ele>23.4</ele><time>2021-02-18T14:00:16Z</time><name>PT8803</name></trkpt>
<trkpt lat="53.464572" lon="05.903209"><ele>23.4</ele><time>2021-02-18T14:00:17Z</time><name>PT8804</name></trkpt>
<trkpt lat="53.464585" lon="05.903213"><ele>23.3</ele><time>2021-02-18T14:00:18Z</time><name>PT8805</name></trkpt>
<trkpt lat="53.464598" lon="05.903216"><ele>23.5</ele><time>2021-02-18T14:00:19Z</time><name>PT8806</name></trkpt>
<trkpt lat="53.464608" lon="05.903219"><ele>23.5</ele><time>2021-02-18T14:00:20Z</time><name>PT8807</name></trkpt>
<trkpt lat="53.464618" lon="05.903222"><ele>23.3</ele><time>2021-02-18T14:00:21Z</time><name>PT8808</name></trkpt>
<trkpt lat="53.464629" lon="05.903228"><ele>23.4</ele><time>2021-02-18T14:00:22Z</time><name>PT8809</name></trkpt>
<trkpt lat="53.464641" lon="05.903233"><ele>23.3</ele><time>2021-02-18T14:00:23Z</time><name>PT8810</name></trkpt>
<trkpt lat="53.464652" lon="05.903237"><ele>23.2</ele><time>2021-02-18T14:00:24Z</time><name>PT8811</name></trkpt>
<trkpt lat="53.464664" lon="05.903242"><ele>23.3</ele><time>2021-02-18T14:00:25Z</time><name>PT8812</name></trkpt>
<trkpt lat="53.464677" lon="05.903248"><ele>23.2</ele><time>2021-02-18T14:00:26Z</time><name>PT8813</name></trkpt>
<trkpt lat="53.464685" lon="05.903255"><ele>23.3</ele><time>2021-02-18T14:00:27Z</time><name>PT8814</name></trkpt>
<trkpt lat="53.464694" lon="05.903261"><ele>23.3</ele><time>2021-02-18T14:00:28Z</time><name>PT8815</name></trkpt>
<trkpt lat="53.464706" lon="05.903265"><ele>23.2</ele><time>2021-02-18T14:00:29Z</time><name>PT8816</name></trkpt>
<trkpt lat="53.464716" lon="05.903267"><ele>23.1</ele><time>2021-02-18T14:00:30Z</time><name>PT8817</name></trkpt>
<trkpt lat="53.464726" lon="05.903272"><ele>22.9</ele><time>2021-02-18T14:00:31Z</time><name>PT8818</name></trkpt>
<trkpt lat="53.464735" lon="05.903276"><ele>22.9</ele><time>2021-02-18T14:00:32Z</time><name>PT8819</name></trkpt>
<trkpt lat="53.464744" lon="05.903280"><ele>22.8</ele><time>2021-02-18T14:00:33Z</time><name>PT8820</name></trkpt>
<trkpt lat="53.464754" lon="05.903283"><ele>22.9</ele><time>2021-02-18T14:00:34Z</time><name>PT8821</name></trkpt>
<trkpt lat="53.464764" lon="05.903288"><ele>23</ele><time>2021-02-18T14:00:35Z</time><name>PT8822</name></trkpt>
<trkpt lat="53.464773" lon="05.903296"><ele>23.2</ele><time>2021-02-18T14:00:36Z</time><name>PT8823</name></trkpt>
<trkpt lat="53.464778" lon="05.903300"><ele>23.1</ele><time>2021-02-18T14:00:37Z</time><name>PT8824</name></trkpt>
<trkpt lat="53.464776" lon="05.903300"><ele>23.2</ele><time>2021-02-18T14:00:38Z</time><name>PT8825</name></trkpt>
<trkpt lat="53.464782" lon="05.903299"><ele>23.1</ele><time>2021-02-18T14:00:39Z</time><name>PT8826</name></trkpt>
<trkpt lat="53.464788" lon="05.903301"><ele>23</ele><time>2021-02-18T14:00:40Z</time><name>PT8827</name></trkpt>
<trkpt lat="53.464794" lon="05.903303"><ele>23</ele><time>2021-02-18T14:00:41Z</time><name>PT8828</name></trkpt>
<trkpt lat="53.464802" lon="05.903306"><ele>23.2</ele><time>2021-02-18T14:00:42Z</time><name>PT8829</name></trkpt>
<trkpt lat="53.464813" lon="05.903308"><ele>23.2</ele><time>2021-02-18T14:00:43Z</time><name>PT8830</name></trkpt>
<trkpt lat="53.464824" lon="05.903309"><ele>23.3</ele><time>2021-02-18T14:00:44Z</time><name>PT8831</name></trkpt>
<trkpt lat="53.464834" lon="05.903311"><ele>23.2</ele><time>2021-02-18T14:00:45Z</time><name>PT8832</name></trkpt>
<trkpt lat="53.464845" lon="05.903315"><ele>23.2</ele><time>2021-02-18T14:00:46Z</time><name>PT8833</name></trkpt>
<trkpt lat="53.464857" lon="05.903320"><ele>23</ele><time>2021-02-18T14:00:47Z</time><name>PT8834</name></trkpt>
<trkpt lat="53.464868" lon="05.903324"><ele>22.9</ele><time>2021-02-18T14:00:48Z</time><name>PT8835</name></trkpt>
<trkpt lat="53.464881" lon="05.903328"><ele>23.1</ele><time>2021-02-18T14:00:49Z</time><name>PT8836</name></trkpt>
<trkpt lat="53.464892" lon="05.903332"><ele>23</ele><time>2021-02-18T14:00:50Z</time><name>PT8837</name></trkpt>
<trkpt lat="53.464903" lon="05.903337"><ele>23</ele><time>2021-02-18T14:00:51Z</time><name>PT8838</name></trkpt>
<trkpt lat="53.464915" lon="05.903342"><ele>23.1</ele><time>2021-02-18T14:00:52Z</time><name>PT8839</name></trkpt>
<trkpt lat="53.464925" lon="05.903345"><ele>23</ele><time>2021-02-18T14:00:53Z</time><name>PT8840</name></trkpt>
<trkpt lat="53.464935" lon="05.903348"><ele>23</ele><time>2021-02-18T14:00:54Z</time><name>PT8841</name></trkpt>
<trkpt lat="53.464945" lon="05.903349"><ele>23</ele><time>2021-02-18T14:00:55Z</time><name>PT8842</name></trkpt>
<trkpt lat="53.464955" lon="05.903348"><ele>23.1</ele><time>2021-02-18T14:00:56Z</time><name>PT8843</name></trkpt>
<trkpt lat="53.464966" lon="05.903348"><ele>23.1</ele><time>2021-02-18T14:00:57Z</time><name>PT8844</name></trkpt>
<trkpt lat="53.464978" lon="05.903350"><ele>23.3</ele><time>2021-02-18T14:00:58Z</time><name>PT8845</name></trkpt>
<trkpt lat="53.464989" lon="05.903354"><ele>23.2</ele><time>2021-02-18T14:00:59Z</time><name>PT8846</name></trkpt>
<trkpt lat="53.465001" lon="05.903358"><ele>23.2</ele><time>2021-02-18T14:01:00Z</time><name>PT8847</name></trkpt>
<trkpt lat="53.465010" lon="05.903359"><ele>23.2</ele><time>2021-02-18T14:01:01Z</time><name>PT8848</name></trkpt>
<trkpt lat="53.465019" lon="05.903361"><ele>23.2</ele><time>2021-02-18T14:01:02Z</time><name>PT8849</name></trkpt>
<trkpt lat="53.465031" lon="05.903363"><ele>23.1</ele><time>2021-02-18T14:01:03Z</time><name>PT8850</name></trkpt>
<trkpt lat="53.465040" lon="05.903363"><ele>23.1</ele><time>2021-02-18T14:01:04Z</time><name>PT8851</name></trkpt>
<trkpt lat="53.465051" lon="05.903364"><ele>23.3</ele><time>2021-02-18T14:01:05Z</time><name>PT8852</name></trkpt>
<trkpt lat="53.465063" lon="05.903367"><ele>23.3</ele><time>2021-02-18T14:01:06Z</time><name>PT8853</name></trkpt>
<trkpt lat="53.465074" lon="05.903369"><ele>23.3</ele><time>2021-02-18T14:01:07Z</time><name>PT8854</name></trkpt>
<trkpt lat="53.465084" lon="05.903373"><ele>23.2</ele><time>2021-02-18T14:01:08Z</time><name>PT8855</name></trkpt>
<trkpt lat="53.465095" lon="05.903377"><ele>23.1</ele><time>2021-02-18T14:01:09Z</time><name>PT8856</name></trkpt>
<trkpt lat="53.465107" lon="05.903380"><ele>22.9</ele><time>2021-02-18T14:01:10Z</time><name>PT8857</name></trkpt>
<trkpt lat="53.465116" lon="05.903383"><ele>22.8</ele><time>2021-02-18T14:01:11Z</time><name>PT8858</name></trkpt>
<trkpt lat="53.465125" lon="05.903386"><ele>22.9</ele><time>2021-02-18T14:01:12Z</time><name>PT8859</name></trkpt>
<trkpt lat="53.465133" lon="05.903391"><ele>23.1</ele><time>2021-02-18T14:01:13Z</time><name>PT8860</name></trkpt>
<trkpt lat="53.465142" lon="05.903392"><ele>23.3</ele><time>2021-02-18T14:01:14Z</time><name>PT8861</name></trkpt>
<trkpt lat="53.465149" lon="05.903392"><ele>23.3</ele><time>2021-02-18T14:01:15Z</time><name>PT8862</name></trkpt>
<trkpt lat="53.465159" lon="05.903395"><ele>23.3</ele><time>2021-02-18T14:01:16Z</time><name>PT8863</name></trkpt>
<trkpt lat="53.465166" lon="05.903399"><ele>23.2</ele><time>2021-02-18T14:01:17Z</time><name>PT8864</name></trkpt>
<trkpt lat="53.465172" lon="05.903399"><ele>23</ele><time>2021-02-18T14:01:18Z</time><name>PT8865</name></trkpt>
<trkpt lat="53.465181" lon="05.903400"><ele>23.1</ele><time>2021-02-18T14:01:19Z</time><name>PT8866</name></trkpt>
<trkpt lat="53.465190" lon="05.903402"><ele>22.9</ele><time>2021-02-18T14:01:20Z</time><name>PT8867</name></trkpt>
<trkpt lat="53.465199" lon="05.903404"><ele>23.1</ele><time>2021-02-18T14:01:21Z</time><name>PT8868</name></trkpt>
<trkpt lat="53.465210" lon="05.903404"><ele>23.3</ele><time>2021-02-18T14:01:22Z</time><name>PT8869</name></trkpt>
<trkpt lat="53.465220" lon="05.903402"><ele>23.1</ele><time>2021-02-18T14:01:23Z</time><name>PT8870</name></trkpt>
<trkpt lat="53.465231" lon="05.903401"><ele>23.1</ele><time>2021-02-18T14:01:24Z</time><name>PT8871</name></trkpt>
<trkpt lat="53.465241" lon="05.903398"><ele>23.1</ele><time>2021-02-18T14:01:25Z</time><name>PT8872</name></trkpt>
<trkpt lat="53.465249" lon="05.903399"><ele>23.2</ele><time>2021-02-18T14:01:26Z</time><name>PT8873</name></trkpt>
<trkpt lat="53.465259" lon="05.903402"><ele>23.2</ele><time>2021-02-18T14:01:27Z</time><name>PT8874</name></trkpt>
<trkpt lat="53.465271" lon="05.903404"><ele>23.5</ele><time>2021-02-18T14:01:28Z</time><name>PT8875</name></trkpt>
<trkpt lat="53.465284" lon="05.903407"><ele>23.4</ele><time>2021-02-18T14:01:29Z</time><name>PT8876</name></trkpt>
<trkpt lat="53.465296" lon="05.903411"><ele>23.6</ele><time>2021-02-18T14:01:30Z</time><name>PT8877</name></trkpt>
<trkpt lat="53.465308" lon="05.903413"><ele>23.8</ele><time>2021-02-18T14:01:31Z</time><name>PT8878</name></trkpt>
<trkpt lat="53.465319" lon="05.903413"><ele>23.8</ele><time>2021-02-18T14:01:32Z</time><name>PT8879</name></trkpt>
<trkpt lat="53.465329" lon="05.903414"><ele>23.6</ele><time>2021-02-18T14:01:33Z</time><name>PT8880</name></trkpt>
<trkpt lat="53.465341" lon="05.903414"><ele>23.7</ele><time>2021-02-18T14:01:34Z</time><name>PT8881</name></trkpt>
<trkpt lat="53.465350" lon="05.903414"><ele>23.4</ele><time>2021-02-18T14:01:35Z</time><name>PT8882</name></trkpt>
<trkpt lat="53.465360" lon="05.903414"><ele>23.2</ele><time>2021-02-18T14:01:36Z</time><name>PT8883</name></trkpt>
<trkpt lat="53.465369" lon="05.903414"><ele>23</ele><time>2021-02-18T14:01:37Z</time><name>PT8884</name></trkpt>
<trkpt lat="53.465379" lon="05.903415"><ele>23.1</ele><time>2021-02-18T14:01:38Z</time><name>PT8885</name></trkpt>
<trkpt lat="53.465389" lon="05.903418"><ele>23</ele><time>2021-02-18T14:01:39Z</time><name>PT8886</name></trkpt>
<trkpt lat="53.465398" lon="05.903421"><ele>23.1</ele><time>2021-02-18T14:01:40Z</time><name>PT8887</name></trkpt>
<trkpt lat="53.465400" lon="05.903422"><ele>23.2</ele><time>2021-02-18T14:01:41Z</time><name>PT8888</name></trkpt>
<trkpt lat="53.465401" lon="05.903422"><ele>23.2</ele><time>2021-02-18T14:01:42Z</time><name>PT8889</name></trkpt>
<trkpt lat="53.465402" lon="05.903421"><ele>23.2</ele><time>2021-02-18T14:01:43Z</time><name>PT8890</name></trkpt>
<trkpt lat="53.465405" lon="05.903415"><ele>23.1</ele><time>2021-02-18T14:01:45Z</time><name>PT8891</name></trkpt>
<trkpt lat="53.465416" lon="05.903414"><ele>23.2</ele><time>2021-02-18T14:01:46Z</time><name>PT8892</name></trkpt>
<trkpt lat="53.465424" lon="05.903410"><ele>23.1</ele><time>2021-02-18T14:01:47Z</time><name>PT8893</name></trkpt>
<trkpt lat="53.465435" lon="05.903407"><ele>22.8</ele><time>2021-02-18T14:01:48Z</time><name>PT8894</name></trkpt>
<trkpt lat="53.465445" lon="05.903403"><ele>22.6</ele><time>2021-02-18T14:01:49Z</time><name>PT8895</name></trkpt>
<trkpt lat="53.465456" lon="05.903405"><ele>22.5</ele><time>2021-02-18T14:01:50Z</time><name>PT8896</name></trkpt>
<trkpt lat="53.465466" lon="05.903402"><ele>22.3</ele><time>2021-02-18T14:01:51Z</time><name>PT8897</name></trkpt>
<trkpt lat="53.465476" lon="05.903398"><ele>22.2</ele><time>2021-02-18T14:01:52Z</time><name>PT8898</name></trkpt>
<trkpt lat="53.465485" lon="05.903399"><ele>22.3</ele><time>2021-02-18T14:01:53Z</time><name>PT8899</name></trkpt>
<trkpt lat="53.465491" lon="05.903408"><ele>22.5</ele><time>2021-02-18T14:01:54Z</time><name>PT8900</name></trkpt>
<trkpt lat="53.465496" lon="05.903415"><ele>22.7</ele><time>2021-02-18T14:01:55Z</time><name>PT8901</name></trkpt>
<trkpt lat="53.465503" lon="05.903416"><ele>22.7</ele><time>2021-02-18T14:01:56Z</time><name>PT8902</name></trkpt>
<trkpt lat="53.465510" lon="05.903415"><ele>22.7</ele><time>2021-02-18T14:01:57Z</time><name>PT8903</name></trkpt>
<trkpt lat="53.465517" lon="05.903411"><ele>0.1</ele><time>2021-02-18T14:01:58Z</time><name>PT8904</name></trkpt>
<trkpt lat="53.465526" lon="05.903407"><ele>0</ele><time>2021-02-18T14:01:59Z</time><name>PT8905</name></trkpt>
<trkpt lat="53.465532" lon="05.903405"><ele>0</ele><time>2021-02-18T14:02:00Z</time><name>PT8906</name></trkpt>
<trkpt lat="53.465536" lon="05.903406"><ele>0.1</ele><time>2021-02-18T14:02:01Z</time><name>PT8907</name></trkpt>
<trkpt lat="53.465543" lon="05.903405"><ele>0</ele><time>2021-02-18T14:02:02Z</time><name>PT8908</name></trkpt>
<trkpt lat="53.465550" lon="05.903405"><ele>0.1</ele><time>2021-02-18T14:02:03Z</time><name>PT8909</name></trkpt>
<trkpt lat="53.465558" lon="05.903406"><ele>0.1</ele><time>2021-02-18T14:02:04Z</time><name>PT8910</name></trkpt>
<trkpt lat="53.465565" lon="05.903408"><ele>0.2</ele><time>2021-02-18T14:02:05Z</time><name>PT8911</name></trkpt>
<trkpt lat="53.465575" lon="05.903410"><ele>0.2</ele><time>2021-02-18T14:02:06Z</time><name>PT8912</name></trkpt>
<trkpt lat="53.465585" lon="05.903414"><ele>0.1</ele><time>2021-02-18T14:02:07Z</time><name>PT8913</name></trkpt>
<trkpt lat="53.465594" lon="05.903417"><ele>0.1</ele><time>2021-02-18T14:02:08Z</time><name>PT8914</name></trkpt>
<trkpt lat="53.465601" lon="05.903420"><ele>0.1</ele><time>2021-02-18T14:02:09Z</time><name>PT8915</name></trkpt>
<trkpt lat="53.465609" lon="05.903421"><ele>0</ele><time>2021-02-18T14:02:10Z</time><name>PT8916</name></trkpt>
<trkpt lat="53.465617" lon="05.903423"><ele>0.1</ele><time>2021-02-18T14:02:11Z</time><name>PT8917</name></trkpt>
<trkpt lat="53.465628" lon="05.903424"><ele>0.2</ele><time>2021-02-18T14:02:12Z</time><name>PT8918</name></trkpt>
<trkpt lat="53.465634" lon="05.903423"><ele>0.2</ele><time>2021-02-18T14:02:13Z</time><name>PT8919</name></trkpt>
<trkpt lat="53.465641" lon="05.903420"><ele>0.3</ele><time>2021-02-18T14:02:14Z</time><name>PT8920</name></trkpt>
<trkpt lat="53.465648" lon="05.903419"><ele>0.5</ele><time>2021-02-18T14:02:15Z</time><name>PT8921</name></trkpt>
<trkpt lat="53.465655" lon="05.903421"><ele>0.5</ele><time>2021-02-18T14:02:16Z</time><name>PT8922</name></trkpt>
<trkpt lat="53.465662" lon="05.903421"><ele>0.5</ele><time>2021-02-18T14:02:17Z</time><name>PT8923</name></trkpt>
<trkpt lat="53.465670" lon="05.903421"><ele>0.7</ele><time>2021-02-18T14:02:18Z</time><name>PT8924</name></trkpt>
<trkpt lat="53.465668" lon="05.903420"><ele>0.8</ele><time>2021-02-18T14:02:19Z</time><name>PT8925</name></trkpt>
<trkpt lat="53.465667" lon="05.903420"><ele>0.7</ele><time>2021-02-18T14:02:20Z</time><name>PT8926</name></trkpt>
<trkpt lat="53.465670" lon="05.903420"><ele>1</ele><time>2021-02-18T14:02:21Z</time><name>PT8927</name></trkpt>
<trkpt lat="53.465677" lon="05.903420"><ele>1.3</ele><time>2021-02-18T14:02:22Z</time><name>PT8928</name></trkpt>
<trkpt lat="53.465683" lon="05.903417"><ele>1.3</ele><time>2021-02-18T14:02:23Z</time><name>PT8929</name></trkpt>
<trkpt lat="53.465688" lon="05.903413"><ele>1.3</ele><time>2021-02-18T14:02:24Z</time><name>PT8930</name></trkpt>
<trkpt lat="53.465695" lon="05.903410"><ele>1.4</ele><time>2021-02-18T14:02:25Z</time><name>PT8931</name></trkpt>
<trkpt lat="53.465703" lon="05.903406"><ele>1.3</ele><time>2021-02-18T14:02:26Z</time><name>PT8932</name></trkpt>
<trkpt lat="53.465711" lon="05.903400"><ele>1.3</ele><time>2021-02-18T14:02:27Z</time><name>PT8933</name></trkpt>
<trkpt lat="53.465717" lon="05.903392"><ele>1.6</ele><time>2021-02-18T14:02:28Z</time><name>PT8934</name></trkpt>
<trkpt lat="53.465722" lon="05.903386"><ele>1.7</ele><time>2021-02-18T14:02:29Z</time><name>PT8935</name></trkpt>
<trkpt lat="53.465726" lon="05.903380"><ele>1.9</ele><time>2021-02-18T14:02:30Z</time><name>PT8936</name></trkpt>
<trkpt lat="53.465730" lon="05.903372"><ele>1.7</ele><time>2021-02-18T14:02:31Z</time><name>PT8937</name></trkpt>
<trkpt lat="53.465736" lon="05.903365"><ele>1.9</ele><time>2021-02-18T14:02:32Z</time><name>PT8938</name></trkpt>
<trkpt lat="53.465734" lon="05.903368"><ele>1.7</ele><time>2021-02-18T14:02:33Z</time><name>PT8939</name></trkpt>
<trkpt lat="53.465735" lon="05.903367"><ele>1.7</ele><time>2021-02-18T14:02:34Z</time><name>PT8940</name></trkpt>
<trkpt lat="53.465739" lon="05.903364"><ele>1.7</ele><time>2021-02-18T14:02:35Z</time><name>PT8941</name></trkpt>
<trkpt lat="53.465742" lon="05.903361"><ele>2.1</ele><time>2021-02-18T14:02:36Z</time><name>PT8942</name></trkpt>
<trkpt lat="53.465743" lon="05.903362"><ele>2.1</ele><time>2021-02-18T14:02:37Z</time><name>PT8943</name></trkpt>
<trkpt lat="53.465742" lon="05.903363"><ele>2.1</ele><time>2021-02-18T14:02:38Z</time><name>PT8944</name></trkpt>
<trkpt lat="53.465742" lon="05.903363"><ele>2.2</ele><time>2021-02-18T14:02:39Z</time><name>PT8945</name></trkpt>
<trkpt lat="53.465744" lon="05.903361"><ele>2.3</ele><time>2021-02-18T14:02:42Z</time><name>PT8946</name></trkpt>
<trkpt lat="53.465749" lon="05.903354"><ele>2.4</ele><time>2021-02-18T14:02:43Z</time><name>PT8947</name></trkpt>
<trkpt lat="53.465756" lon="05.903348"><ele>2.4</ele><time>2021-02-18T14:02:44Z</time><name>PT8948</name></trkpt>
<trkpt lat="53.465764" lon="05.903340"><ele>2.3</ele><time>2021-02-18T14:02:45Z</time><name>PT8949</name></trkpt>
<trkpt lat="53.465772" lon="05.903333"><ele>2.1</ele><time>2021-02-18T14:02:46Z</time><name>PT8950</name></trkpt>
<trkpt lat="53.465778" lon="05.903325"><ele>2</ele><time>2021-02-18T14:02:47Z</time><name>PT8951</name></trkpt>
<trkpt lat="53.465783" lon="05.903317"><ele>1.7</ele><time>2021-02-18T14:02:48Z</time><name>PT8952</name></trkpt>
<trkpt lat="53.465788" lon="05.903309"><ele>1.8</ele><time>2021-02-18T14:02:49Z</time><name>PT8953</name></trkpt>
<trkpt lat="53.465793" lon="05.903303"><ele>1.7</ele><time>2021-02-18T14:02:50Z</time><name>PT8954</name></trkpt>
<trkpt lat="53.465797" lon="05.903296"><ele>1.7</ele><time>2021-02-18T14:02:51Z</time><name>PT8955</name></trkpt>
<trkpt lat="53.465801" lon="05.903289"><ele>1.9</ele><time>2021-02-18T14:02:52Z</time><name>PT8956</name></trkpt>
<trkpt lat="53.465805" lon="05.903284"><ele>2.2</ele><time>2021-02-18T14:02:53Z</time><name>PT8957</name></trkpt>
<trkpt lat="53.465811" lon="05.903278"><ele>2.2</ele><time>2021-02-18T14:02:54Z</time><name>PT8958</name></trkpt>
<trkpt lat="53.465818" lon="05.903269"><ele>2.3</ele><time>2021-02-18T14:02:55Z</time><name>PT8959</name></trkpt>
<trkpt lat="53.465823" lon="05.903260"><ele>2.3</ele><time>2021-02-18T14:02:56Z</time><name>PT8960</name></trkpt>
<trkpt lat="53.465830" lon="05.903251"><ele>2.2</ele><time>2021-02-18T14:02:57Z</time><name>PT8961</name></trkpt>
<trkpt lat="53.465835" lon="05.903243"><ele>2.2</ele><time>2021-02-18T14:02:58Z</time><name>PT8962</name></trkpt>
<trkpt lat="53.465842" lon="05.903238"><ele>2.3</ele><time>2021-02-18T14:02:59Z</time><name>PT8963</name></trkpt>
<trkpt lat="53.465848" lon="05.903233"><ele>2.4</ele><time>2021-02-18T14:03:00Z</time><name>PT8964</name></trkpt>
<trkpt lat="53.465856" lon="05.903229"><ele>2.3</ele><time>2021-02-18T14:03:01Z</time><name>PT8965</name></trkpt>
<trkpt lat="53.465865" lon="05.903225"><ele>2.4</ele><time>2021-02-18T14:03:02Z</time><name>PT8966</name></trkpt>
<trkpt lat="53.465873" lon="05.903216"><ele>2.5</ele><time>2021-02-18T14:03:03Z</time><name>PT8967</name></trkpt>
<trkpt lat="53.465881" lon="05.903206"><ele>2.7</ele><time>2021-02-18T14:03:04Z</time><name>PT8968</name></trkpt>
<trkpt lat="53.465888" lon="05.903196"><ele>2.7</ele><time>2021-02-18T14:03:05Z</time><name>PT8969</name></trkpt>
<trkpt lat="53.465894" lon="05.903189"><ele>2.8</ele><time>2021-02-18T14:03:06Z</time><name>PT8970</name></trkpt>
<trkpt lat="53.465899" lon="05.903183"><ele>3.1</ele><time>2021-02-18T14:03:07Z</time><name>PT8971</name></trkpt>
<trkpt lat="53.465907" lon="05.903176"><ele>3.2</ele><time>2021-02-18T14:03:08Z</time><name>PT8972</name></trkpt>
<trkpt lat="53.465914" lon="05.903167"><ele>3.3</ele><time>2021-02-18T14:03:09Z</time><name>PT8973</name></trkpt>
<trkpt lat="53.465922" lon="05.903156"><ele>3.6</ele><time>2021-02-18T14:03:10Z</time><name>PT8974</name></trkpt>
<trkpt lat="53.465928" lon="05.903145"><ele>3.7</ele><time>2021-02-18T14:03:11Z</time><name>PT8975</name></trkpt>
<trkpt lat="53.465933" lon="05.903134"><ele>4</ele><time>2021-02-18T14:03:12Z</time><name>PT8976</name></trkpt>
<trkpt lat="53.465936" lon="05.903123"><ele>4</ele><time>2021-02-18T14:03:13Z</time><name>PT8977</name></trkpt>
<trkpt lat="53.465940" lon="05.903112"><ele>4.1</ele><time>2021-02-18T14:03:14Z</time><name>PT8978</name></trkpt>
<trkpt lat="53.465946" lon="05.903103"><ele>3.9</ele><time>2021-02-18T14:03:15Z</time><name>PT8979</name></trkpt>
<trkpt lat="53.465952" lon="05.903097"><ele>3.7</ele><time>2021-02-18T14:03:16Z</time><name>PT8980</name></trkpt>
<trkpt lat="53.465959" lon="05.903091"><ele>3.6</ele><time>2021-02-18T14:03:17Z</time><name>PT8981</name></trkpt>
<trkpt lat="53.465966" lon="05.903083"><ele>3.7</ele><time>2021-02-18T14:03:18Z</time><name>PT8982</name></trkpt>
<trkpt lat="53.465971" lon="05.903073"><ele>3.7</ele><time>2021-02-18T14:03:20Z</time><name>PT8983</name></trkpt>
<trkpt lat="53.465975" lon="05.903063"><ele>3.6</ele><time>2021-02-18T14:03:20Z</time><name>PT8984</name></trkpt>
<trkpt lat="53.465978" lon="05.903055"><ele>3.8</ele><time>2021-02-18T14:03:21Z</time><name>PT8985</name></trkpt>
<trkpt lat="53.465981" lon="05.903051"><ele>4</ele><time>2021-02-18T14:03:22Z</time><name>PT8986</name></trkpt>
<trkpt lat="53.465984" lon="05.903052"><ele>4.1</ele><time>2021-02-18T14:03:23Z</time><name>PT8987</name></trkpt>
<trkpt lat="53.465985" lon="05.903050"><ele>4.2</ele><time>2021-02-18T14:03:24Z</time><name>PT8988</name></trkpt>
<trkpt lat="53.465985" lon="05.903047"><ele>4.3</ele><time>2021-02-18T14:03:26Z</time><name>PT8989</name></trkpt>
<trkpt lat="53.465984" lon="05.903047"><ele>4.2</ele><time>2021-02-18T14:03:26Z</time><name>PT8990</name></trkpt>
<trkpt lat="53.465984" lon="05.903050"><ele>4.2</ele><time>2021-02-18T14:03:27Z</time><name>PT8991</name></trkpt>
<trkpt lat="53.465986" lon="05.903054"><ele>4.2</ele><time>2021-02-18T14:03:28Z</time><name>PT8992</name></trkpt>
<trkpt lat="53.465986" lon="05.903057"><ele>4.3</ele><time>2021-02-18T14:03:29Z</time><name>PT8993</name></trkpt>
<trkpt lat="53.465987" lon="05.903061"><ele>4.5</ele><time>2021-02-18T14:03:30Z</time><name>PT8994</name></trkpt>
<trkpt lat="53.465989" lon="05.903065"><ele>4.5</ele><time>2021-02-18T14:03:31Z</time><name>PT8995</name></trkpt>
<trkpt lat="53.465991" lon="05.903070"><ele>4.6</ele><time>2021-02-18T14:03:32Z</time><name>PT8996</name></trkpt>
<trkpt lat="53.465994" lon="05.903075"><ele>4.2</ele><time>2021-02-18T14:03:39Z</time><name>PT8997</name></trkpt>
<trkpt lat="53.465997" lon="05.903084"><ele>4.5</ele><time>2021-02-18T14:03:40Z</time><name>PT8998</name></trkpt>
<trkpt lat="53.466001" lon="05.903093"><ele>4.8</ele><time>2021-02-18T14:03:41Z</time><name>PT8999</name></trkpt>
<trkpt lat="53.466005" lon="05.903097"><ele>5.2</ele><time>2021-02-18T14:03:42Z</time><name>PT9000</name></trkpt>
<trkpt lat="53.466009" lon="05.903105"><ele>5.4</ele><time>2021-02-18T14:03:43Z</time><name>PT9001</name></trkpt>
<trkpt lat="53.466012" lon="05.903112"><ele>5.6</ele><time>2021-02-18T14:03:44Z</time><name>PT9002</name></trkpt>
<trkpt lat="53.466014" lon="05.903120"><ele>5.5</ele><time>2021-02-18T14:03:45Z</time><name>PT9003</name></trkpt>
<trkpt lat="53.466018" lon="05.903126"><ele>5.3</ele><time>2021-02-18T14:03:46Z</time><name>PT9004</name></trkpt>
<trkpt lat="53.466021" lon="05.903133"><ele>5.5</ele><time>2021-02-18T14:03:47Z</time><name>PT9005</name></trkpt>
<trkpt lat="53.466024" lon="05.903144"><ele>5.8</ele><time>2021-02-18T14:03:48Z</time><name>PT9006</name></trkpt>
<trkpt lat="53.466026" lon="05.903155"><ele>6.2</ele><time>2021-02-18T14:03:49Z</time><name>PT9007</name></trkpt>
<trkpt lat="53.466028" lon="05.903163"><ele>6.2</ele><time>2021-02-18T14:03:50Z</time><name>PT9008</name></trkpt>
<trkpt lat="53.466030" lon="05.903171"><ele>6.2</ele><time>2021-02-18T14:03:51Z</time><name>PT9009</name></trkpt>
<trkpt lat="53.466032" lon="05.903180"><ele>6.2</ele><time>2021-02-18T14:03:52Z</time><name>PT9010</name></trkpt>
<trkpt lat="53.466036" lon="05.903192"><ele>6.1</ele><time>2021-02-18T14:03:53Z</time><name>PT9011</name></trkpt>
<trkpt lat="53.466040" lon="05.903197"><ele>6</ele><time>2021-02-18T14:03:54Z</time><name>PT9012</name></trkpt>
<trkpt lat="53.466044" lon="05.903207"><ele>6.1</ele><time>2021-02-18T14:03:55Z</time><name>PT9013</name></trkpt>
<trkpt lat="53.466048" lon="05.903216"><ele>6.1</ele><time>2021-02-18T14:03:56Z</time><name>PT9014</name></trkpt>
<trkpt lat="53.466050" lon="05.903224"><ele>6.2</ele><time>2021-02-18T14:03:57Z</time><name>PT9015</name></trkpt>
<trkpt lat="53.466053" lon="05.903236"><ele>6.1</ele><time>2021-02-18T14:03:58Z</time><name>PT9016</name></trkpt>
<trkpt lat="53.466057" lon="05.903246"><ele>6</ele><time>2021-02-18T14:03:59Z</time><name>PT9017</name></trkpt>
<trkpt lat="53.466063" lon="05.903253"><ele>5.9</ele><time>2021-02-18T14:04:00Z</time><name>PT9018</name></trkpt>
<trkpt lat="53.466066" lon="05.903261"><ele>5.7</ele><time>2021-02-18T14:04:01Z</time><name>PT9019</name></trkpt>
<trkpt lat="53.466065" lon="05.903267"><ele>5.7</ele><time>2021-02-18T14:04:02Z</time><name>PT9020</name></trkpt>
<trkpt lat="53.466066" lon="05.903272"><ele>5.6</ele><time>2021-02-18T14:04:03Z</time><name>PT9021</name></trkpt>
<trkpt lat="53.466066" lon="05.903274"><ele>5.5</ele><time>2021-02-18T14:04:04Z</time><name>PT9022</name></trkpt>
<trkpt lat="53.466067" lon="05.903275"><ele>5.5</ele><time>2021-02-18T14:04:05Z</time><name>PT9023</name></trkpt>
<trkpt lat="53.466068" lon="05.903277"><ele>5.4</ele><time>2021-02-18T14:04:06Z</time><name>PT9024</name></trkpt>
<trkpt lat="53.466069" lon="05.903279"><ele>5.6</ele><time>2021-02-18T14:04:07Z</time><name>PT9025</name></trkpt>
<trkpt lat="53.466071" lon="05.903281"><ele>5.8</ele><time>2021-02-18T14:04:08Z</time><name>PT9026</name></trkpt>
<trkpt lat="53.466076" lon="05.903286"><ele>5.9</ele><time>2021-02-18T14:04:09Z</time><name>PT9027</name></trkpt>
<trkpt lat="53.466081" lon="05.903292"><ele>5.9</ele><time>2021-02-18T14:04:10Z</time><name>PT9028</name></trkpt>
<trkpt lat="53.466087" lon="05.903297"><ele>5.8</ele><time>2021-02-18T14:04:11Z</time><name>PT9029</name></trkpt>
<trkpt lat="53.466092" lon="05.903305"><ele>5.8</ele><time>2021-02-18T14:04:12Z</time><name>PT9030</name></trkpt>
<trkpt lat="53.466093" lon="05.903310"><ele>5.8</ele><time>2021-02-18T14:04:13Z</time><name>PT9031</name></trkpt>
<trkpt lat="53.466095" lon="05.903314"><ele>6</ele><time>2021-02-18T14:04:14Z</time><name>PT9032</name></trkpt>
<trkpt lat="53.466100" lon="05.903317"><ele>6</ele><time>2021-02-18T14:04:15Z</time><name>PT9033</name></trkpt>
<trkpt lat="53.466105" lon="05.903323"><ele>5.8</ele><time>2021-02-18T14:04:16Z</time><name>PT9034</name></trkpt>
<trkpt lat="53.466111" lon="05.903330"><ele>5.9</ele><time>2021-02-18T14:04:17Z</time><name>PT9035</name></trkpt>
<trkpt lat="53.466116" lon="05.903338"><ele>5.9</ele><time>2021-02-18T14:04:18Z</time><name>PT9036</name></trkpt>
<trkpt lat="53.466122" lon="05.903344"><ele>5.7</ele><time>2021-02-18T14:04:19Z</time><name>PT9037</name></trkpt>
<trkpt lat="53.466127" lon="05.903354"><ele>5.9</ele><time>2021-02-18T14:04:20Z</time><name>PT9038</name></trkpt>
<trkpt lat="53.466128" lon="05.903358"><ele>6</ele><time>2021-02-18T14:04:21Z</time><name>PT9039</name></trkpt>
<trkpt lat="53.466131" lon="05.903359"><ele>6.1</ele><time>2021-02-18T14:04:22Z</time><name>PT9040</name></trkpt>
<trkpt lat="53.466135" lon="05.903360"><ele>6</ele><time>2021-02-18T14:04:23Z</time><name>PT9041</name></trkpt>
<trkpt lat="53.466140" lon="05.903368"><ele>6.3</ele><time>2021-02-18T14:04:24Z</time><name>PT9042</name></trkpt>
<trkpt lat="53.466146" lon="05.903375"><ele>6.4</ele><time>2021-02-18T14:04:25Z</time><name>PT9043</name></trkpt>
<trkpt lat="53.466152" lon="05.903383"><ele>6.3</ele><time>2021-02-18T14:04:26Z</time><name>PT9044</name></trkpt>
<trkpt lat="53.466159" lon="05.903391"><ele>6.2</ele><time>2021-02-18T14:04:27Z</time><name>PT9045</name></trkpt>
<trkpt lat="53.466167" lon="05.903396"><ele>6.2</ele><time>2021-02-18T14:04:28Z</time><name>PT9046</name></trkpt>
<trkpt lat="53.466174" lon="05.903402"><ele>5.8</ele><time>2021-02-18T14:04:29Z</time><name>PT9047</name></trkpt>
<trkpt lat="53.466183" lon="05.903411"><ele>5.7</ele><time>2021-02-18T14:04:30Z</time><name>PT9048</name></trkpt>
<trkpt lat="53.466190" lon="05.903420"><ele>5.5</ele><time>2021-02-18T14:04:31Z</time><name>PT9049</name></trkpt>
<trkpt lat="53.466197" lon="05.903426"><ele>5.5</ele><time>2021-02-18T14:04:32Z</time><name>PT9050</name></trkpt>
<trkpt lat="53.466205" lon="05.903434"><ele>5.5</ele><time>2021-02-18T14:04:33Z</time><name>PT9051</name></trkpt>
<trkpt lat="53.466213" lon="05.903439"><ele>5.7</ele><time>2021-02-18T14:04:34Z</time><name>PT9052</name></trkpt>
<trkpt lat="53.466220" lon="05.903446"><ele>5.7</ele><time>2021-02-18T14:04:35Z</time><name>PT9053</name></trkpt>
<trkpt lat="53.466226" lon="05.903451"><ele>6</ele><time>2021-02-18T14:04:36Z</time><name>PT9054</name></trkpt>
<trkpt lat="53.466235" lon="05.903452"><ele>6</ele><time>2021-02-18T14:04:37Z</time><name>PT9055</name></trkpt>
<trkpt lat="53.466243" lon="05.903455"><ele>6.1</ele><time>2021-02-18T14:04:38Z</time><name>PT9056</name></trkpt>
<trkpt lat="53.466249" lon="05.903462"><ele>6</ele><time>2021-02-18T14:04:39Z</time><name>PT9057</name></trkpt>
<trkpt lat="53.466257" lon="05.903471"><ele>5.9</ele><time>2021-02-18T14:04:40Z</time><name>PT9058</name></trkpt>
<trkpt lat="53.466266" lon="05.903476"><ele>5.9</ele><time>2021-02-18T14:04:41Z</time><name>PT9059</name></trkpt>
<trkpt lat="53.466274" lon="05.903478"><ele>5.9</ele><time>2021-02-18T14:04:42Z</time><name>PT9060</name></trkpt>
<trkpt lat="53.466281" lon="05.903481"><ele>6</ele><time>2021-02-18T14:04:43Z</time><name>PT9061</name></trkpt>
<trkpt lat="53.466286" lon="05.903484"><ele>6.1</ele><time>2021-02-18T14:04:44Z</time><name>PT9062</name></trkpt>
<trkpt lat="53.466292" lon="05.903485"><ele>6.2</ele><time>2021-02-18T14:04:45Z</time><name>PT9063</name></trkpt>
<trkpt lat="53.466297" lon="05.903488"><ele>6.2</ele><time>2021-02-18T14:04:46Z</time><name>PT9064</name></trkpt>
<trkpt lat="53.466302" lon="05.903492"><ele>6.2</ele><time>2021-02-18T14:04:47Z</time><name>PT9065</name></trkpt>
<trkpt lat="53.466306" lon="05.903499"><ele>6.2</ele><time>2021-02-18T14:04:48Z</time><name>PT9066</name></trkpt>
<trkpt lat="53.466312" lon="05.903504"><ele>6.2</ele><time>2021-02-18T14:04:49Z</time><name>PT9067</name></trkpt>
<trkpt lat="53.466316" lon="05.903511"><ele>6.1</ele><time>2021-02-18T14:04:50Z</time><name>PT9068</name></trkpt>
<trkpt lat="53.466318" lon="05.903516"><ele>6</ele><time>2021-02-18T14:04:51Z</time><name>PT9069</name></trkpt>
<trkpt lat="53.466318" lon="05.903518"><ele>5.9</ele><time>2021-02-18T14:04:52Z</time><name>PT9070</name></trkpt>
<trkpt lat="53.466318" lon="05.903519"><ele>6</ele><time>2021-02-18T14:04:53Z</time><name>PT9071</name></trkpt>
<trkpt lat="53.466317" lon="05.903516"><ele>5.8</ele><time>2021-02-18T14:05:38Z</time><name>PT9072</name></trkpt>
<trkpt lat="53.466320" lon="05.903515"><ele>5.5</ele><time>2021-02-18T14:05:39Z</time><name>PT9073</name></trkpt>
<trkpt lat="53.466322" lon="05.903507"><ele>5.3</ele><time>2021-02-18T14:05:40Z</time><name>PT9074</name></trkpt>
<trkpt lat="53.466328" lon="05.903500"><ele>5.3</ele><time>2021-02-18T14:05:41Z</time><name>PT9075</name></trkpt>
<trkpt lat="53.466333" lon="05.903499"><ele>5.8</ele><time>2021-02-18T14:05:42Z</time><name>PT9076</name></trkpt>
<trkpt lat="53.466339" lon="05.903502"><ele>5.9</ele><time>2021-02-18T14:05:43Z</time><name>PT9077</name></trkpt>
<trkpt lat="53.466347" lon="05.903504"><ele>6.1</ele><time>2021-02-18T14:05:44Z</time><name>PT9078</name></trkpt>
<trkpt lat="53.466350" lon="05.903506"><ele>5.9</ele><time>2021-02-18T14:05:45Z</time><name>PT9079</name></trkpt>
<trkpt lat="53.466357" lon="05.903506"><ele>5.6</ele><time>2021-02-18T14:05:46Z</time><name>PT9080</name></trkpt>
<trkpt lat="53.466365" lon="05.903508"><ele>5.3</ele><time>2021-02-18T14:05:47Z</time><name>PT9081</name></trkpt>
<trkpt lat="53.466373" lon="05.903508"><ele>5.1</ele><time>2021-02-18T14:05:48Z</time><name>PT9082</name></trkpt>
<trkpt lat="53.466380" lon="05.903506"><ele>5.2</ele><time>2021-02-18T14:05:49Z</time><name>PT9083</name></trkpt>
<trkpt lat="53.466383" lon="05.903504"><ele>5.2</ele><time>2021-02-18T14:05:50Z</time><name>PT9084</name></trkpt>
<trkpt lat="53.466384" lon="05.903504"><ele>5.2</ele><time>2021-02-18T14:05:51Z</time><name>PT9085</name></trkpt>
<trkpt lat="53.466387" lon="05.903502"><ele>5.2</ele><time>2021-02-18T14:05:52Z</time><name>PT9086</name></trkpt>
<trkpt lat="53.466391" lon="05.903497"><ele>5.1</ele><time>2021-02-18T14:05:53Z</time><name>PT9087</name></trkpt>
<trkpt lat="53.466397" lon="05.903491"><ele>5.1</ele><time>2021-02-18T14:05:54Z</time><name>PT9088</name></trkpt>
<trkpt lat="53.466403" lon="05.903487"><ele>5.2</ele><time>2021-02-18T14:05:55Z</time><name>PT9089</name></trkpt>
<trkpt lat="53.466410" lon="05.903487"><ele>5.2</ele><time>2021-02-18T14:05:56Z</time><name>PT9090</name></trkpt>
<trkpt lat="53.466418" lon="05.903487"><ele>5.2</ele><time>2021-02-18T14:05:57Z</time><name>PT9091</name></trkpt>
<trkpt lat="53.466425" lon="05.903486"><ele>5</ele><time>2021-02-18T14:05:58Z</time><name>PT9092</name></trkpt>
<trkpt lat="53.466432" lon="05.903484"><ele>4.7</ele><time>2021-02-18T14:05:59Z</time><name>PT9093</name></trkpt>
<trkpt lat="53.466438" lon="05.903483"><ele>4.3</ele><time>2021-02-18T14:06:00Z</time><name>PT9094</name></trkpt>
<trkpt lat="53.466445" lon="05.903484"><ele>4.2</ele><time>2021-02-18T14:06:01Z</time><name>PT9095</name></trkpt>
<trkpt lat="53.466453" lon="05.903484"><ele>4.2</ele><time>2021-02-18T14:06:02Z</time><name>PT9096</name></trkpt>
<trkpt lat="53.466461" lon="05.903484"><ele>4.2</ele><time>2021-02-18T14:06:03Z</time><name>PT9097</name></trkpt>
<trkpt lat="53.466469" lon="05.903484"><ele>4.5</ele><time>2021-02-18T14:06:04Z</time><name>PT9098</name></trkpt>
<trkpt lat="53.466475" lon="05.903488"><ele>4.5</ele><time>2021-02-18T14:06:05Z</time><name>PT9099</name></trkpt>
<trkpt lat="53.466479" lon="05.903493"><ele>4.4</ele><time>2021-02-18T14:06:06Z</time><name>PT9100</name></trkpt>
<trkpt lat="53.466485" lon="05.903492"><ele>4.2</ele><time>2021-02-18T14:06:07Z</time><name>PT9101</name></trkpt>
<trkpt lat="53.466492" lon="05.903488"><ele>4.2</ele><time>2021-02-18T14:06:08Z</time><name>PT9102</name></trkpt>
<trkpt lat="53.466499" lon="05.903490"><ele>4.1</ele><time>2021-02-18T14:06:09Z</time><name>PT9103</name></trkpt>
<trkpt lat="53.466508" lon="05.903491"><ele>4</ele><time>2021-02-18T14:06:10Z</time><name>PT9104</name></trkpt>
<trkpt lat="53.466517" lon="05.903492"><ele>3.8</ele><time>2021-02-18T14:06:11Z</time><name>PT9105</name></trkpt>
<trkpt lat="53.466523" lon="05.903492"><ele>3.8</ele><time>2021-02-18T14:06:12Z</time><name>PT9106</name></trkpt>
<trkpt lat="53.466528" lon="05.903491"><ele>3.8</ele><time>2021-02-18T14:06:13Z</time><name>PT9107</name></trkpt>
<trkpt lat="53.466531" lon="05.903492"><ele>3.9</ele><time>2021-02-18T14:06:14Z</time><name>PT9108</name></trkpt>
<trkpt lat="53.466536" lon="05.903491"><ele>3.7</ele><time>2021-02-18T14:06:15Z</time><name>PT9109</name></trkpt>
<trkpt lat="53.466540" lon="05.903491"><ele>3.8</ele><time>2021-02-18T14:06:16Z</time><name>PT9110</name></trkpt>
<trkpt lat="53.466543" lon="05.903493"><ele>3.8</ele><time>2021-02-18T14:06:17Z</time><name>PT9111</name></trkpt>
<trkpt lat="53.466549" lon="05.903491"><ele>3.8</ele><time>2021-02-18T14:06:18Z</time><name>PT9112</name></trkpt>
<trkpt lat="53.466556" lon="05.903488"><ele>3.6</ele><time>2021-02-18T14:06:19Z</time><name>PT9113</name></trkpt>
<trkpt lat="53.466562" lon="05.903487"><ele>3.6</ele><time>2021-02-18T14:06:20Z</time><name>PT9114</name></trkpt>
<trkpt lat="53.466569" lon="05.903488"><ele>3.4</ele><time>2021-02-18T14:06:21Z</time><name>PT9115</name></trkpt>
<trkpt lat="53.466576" lon="05.903487"><ele>3.2</ele><time>2021-02-18T14:06:22Z</time><name>PT9116</name></trkpt>
<trkpt lat="53.466585" lon="05.903484"><ele>3.2</ele><time>2021-02-18T14:06:23Z</time><name>PT9117</name></trkpt>
<trkpt lat="53.466594" lon="05.903479"><ele>3.2</ele><time>2021-02-18T14:06:24Z</time><name>PT9118</name></trkpt>
<trkpt lat="53.466604" lon="05.903473"><ele>2.9</ele><time>2021-02-18T14:06:25Z</time><name>PT9119</name></trkpt>
<trkpt lat="53.466612" lon="05.903466"><ele>2.7</ele><time>2021-02-18T14:06:26Z</time><name>PT9120</name></trkpt>
<trkpt lat="53.466622" lon="05.903458"><ele>2.3</ele><time>2021-02-18T14:06:27Z</time><name>PT9121</name></trkpt>
<trkpt lat="53.466630" lon="05.903450"><ele>2.2</ele><time>2021-02-18T14:06:28Z</time><name>PT9122</name></trkpt>
<trkpt lat="53.466638" lon="05.903444"><ele>2.1</ele><time>2021-02-18T14:06:29Z</time><name>PT9123</name></trkpt>
<trkpt lat="53.466645" lon="05.903439"><ele>2</ele><time>2021-02-18T14:06:30Z</time><name>PT9124</name></trkpt>
<trkpt lat="53.466652" lon="05.903437"><ele>2.1</ele><time>2021-02-18T14:06:31Z</time><name>PT9125</name></trkpt>
<trkpt lat="53.466658" lon="05.903437"><ele>2.2</ele><time>2021-02-18T14:06:32Z</time><name>PT9126</name></trkpt>
<trkpt lat="53.466664" lon="05.903435"><ele>2.1</ele><time>2021-02-18T14:06:33Z</time><name>PT9127</name></trkpt>
<trkpt lat="53.466668" lon="05.903435"><ele>2.1</ele><time>2021-02-18T14:06:34Z</time><name>PT9128</name></trkpt>
<trkpt lat="53.466669" lon="05.903434"><ele>2.2</ele><time>2021-02-18T14:06:35Z</time><name>PT9129</name></trkpt>
<trkpt lat="53.466668" lon="05.903434"><ele>2.2</ele><time>2021-02-18T14:06:36Z</time><name>PT9130</name></trkpt>
<trkpt lat="53.466667" lon="05.903434"><ele>2.2</ele><time>2021-02-18T14:06:37Z</time><name>PT9131</name></trkpt>
<trkpt lat="53.466670" lon="05.903427"><ele>1.9</ele><time>2021-02-18T14:06:40Z</time><name>PT9132</name></trkpt>
<trkpt lat="53.466675" lon="05.903413"><ele>1.7</ele><time>2021-02-18T14:06:41Z</time><name>PT9133</name></trkpt>
<trkpt lat="53.466679" lon="05.903399"><ele>1.7</ele><time>2021-02-18T14:06:42Z</time><name>PT9134</name></trkpt>
<trkpt lat="53.466684" lon="05.903390"><ele>1.8</ele><time>2021-02-18T14:06:43Z</time><name>PT9135</name></trkpt>
<trkpt lat="53.466690" lon="05.903381"><ele>1.8</ele><time>2021-02-18T14:06:44Z</time><name>PT9136</name></trkpt>
<trkpt lat="53.466697" lon="05.903372"><ele>1.7</ele><time>2021-02-18T14:06:45Z</time><name>PT9137</name></trkpt>
<trkpt lat="53.466702" lon="05.903364"><ele>1.7</ele><time>2021-02-18T14:06:46Z</time><name>PT9138</name></trkpt>
<trkpt lat="53.466708" lon="05.903355"><ele>1.7</ele><time>2021-02-18T14:06:47Z</time><name>PT9139</name></trkpt>
<trkpt lat="53.466712" lon="05.903348"><ele>1.5</ele><time>2021-02-18T14:06:48Z</time><name>PT9140</name></trkpt>
<trkpt lat="53.466714" lon="05.903343"><ele>1.6</ele><time>2021-02-18T14:06:49Z</time><name>PT9141</name></trkpt>
<trkpt lat="53.466714" lon="05.903342"><ele>1.6</ele><time>2021-02-18T14:06:50Z</time><name>PT9142</name></trkpt>
<trkpt lat="53.466713" lon="05.903343"><ele>1.5</ele><time>2021-02-18T14:06:51Z</time><name>PT9143</name></trkpt>
<trkpt lat="53.466713" lon="05.903344"><ele>1.4</ele><time>2021-02-18T14:06:52Z</time><name>PT9144</name></trkpt>
<trkpt lat="53.466713" lon="05.903342"><ele>1.7</ele><time>2021-02-18T14:06:55Z</time><name>PT9145</name></trkpt>
<trkpt lat="53.466719" lon="05.903333"><ele>1.7</ele><time>2021-02-18T14:06:56Z</time><name>PT9146</name></trkpt>
<trkpt lat="53.466726" lon="05.903312"><ele>1.7</ele><time>2021-02-18T14:06:57Z</time><name>PT9147</name></trkpt>
<trkpt lat="53.466730" lon="05.903302"><ele>1.7</ele><time>2021-02-18T14:06:58Z</time><name>PT9148</name></trkpt>
<trkpt lat="53.466736" lon="05.903294"><ele>1.8</ele><time>2021-02-18T14:06:59Z</time><name>PT9149</name></trkpt>
<trkpt lat="53.466741" lon="05.903284"><ele>1.7</ele><time>2021-02-18T14:07:00Z</time><name>PT9150</name></trkpt>
<trkpt lat="53.466745" lon="05.903272"><ele>1.7</ele><time>2021-02-18T14:07:01Z</time><name>PT9151</name></trkpt>
<trkpt lat="53.466750" lon="05.903261"><ele>1.6</ele><time>2021-02-18T14:07:02Z</time><name>PT9152</name></trkpt>
<trkpt lat="53.466755" lon="05.903249"><ele>1.7</ele><time>2021-02-18T14:07:03Z</time><name>PT9153</name></trkpt>
<trkpt lat="53.466760" lon="05.903239"><ele>2.1</ele><time>2021-02-18T14:07:04Z</time><name>PT9154</name></trkpt>
<trkpt lat="53.466767" lon="05.903229"><ele>2.2</ele><time>2021-02-18T14:07:05Z</time><name>PT9155</name></trkpt>
<trkpt lat="53.466773" lon="05.903221"><ele>2.3</ele><time>2021-02-18T14:07:06Z</time><name>PT9156</name></trkpt>
<trkpt lat="53.466780" lon="05.903211"><ele>2.3</ele><time>2021-02-18T14:07:07Z</time><name>PT9157</name></trkpt>
<trkpt lat="53.466786" lon="05.903204"><ele>2.2</ele><time>2021-02-18T14:07:08Z</time><name>PT9158</name></trkpt>
<trkpt lat="53.466792" lon="05.903197"><ele>2</ele><time>2021-02-18T14:07:09Z</time><name>PT9159</name></trkpt>
<trkpt lat="53.466798" lon="05.903188"><ele>1.8</ele><time>2021-02-18T14:07:10Z</time><name>PT9160</name></trkpt>
<trkpt lat="53.466804" lon="05.903179"><ele>1.9</ele><time>2021-02-18T14:07:11Z</time><name>PT9161</name></trkpt>
<trkpt lat="53.466809" lon="05.903169"><ele>1.8</ele><time>2021-02-18T14:07:12Z</time><name>PT9162</name></trkpt>
<trkpt lat="53.466815" lon="05.903164"><ele>1.7</ele><time>2021-02-18T14:07:13Z</time><name>PT9163</name></trkpt>
<trkpt lat="53.466820" lon="05.903159"><ele>1.7</ele><time>2021-02-18T14:07:14Z</time><name>PT9164</name></trkpt>
<trkpt lat="53.466827" lon="05.903150"><ele>1.4</ele><time>2021-02-18T14:07:15Z</time><name>PT9165</name></trkpt>
<trkpt lat="53.466833" lon="05.903139"><ele>1.4</ele><time>2021-02-18T14:07:16Z</time><name>PT9166</name></trkpt>
<trkpt lat="53.466839" lon="05.903132"><ele>1.4</ele><time>2021-02-18T14:07:17Z</time><name>PT9167</name></trkpt>
<trkpt lat="53.466844" lon="05.903124"><ele>1.4</ele><time>2021-02-18T14:07:18Z</time><name>PT9168</name></trkpt>
<trkpt lat="53.466849" lon="05.903115"><ele>1.6</ele><time>2021-02-18T14:07:19Z</time><name>PT9169</name></trkpt>
<trkpt lat="53.466856" lon="05.903102"><ele>1.7</ele><time>2021-02-18T14:07:20Z</time><name>PT9170</name></trkpt>
<trkpt lat="53.466861" lon="05.903093"><ele>1.5</ele><time>2021-02-18T14:07:21Z</time><name>PT9171</name></trkpt>
<trkpt lat="53.466868" lon="05.903087"><ele>1.2</ele><time>2021-02-18T14:07:22Z</time><name>PT9172</name></trkpt>
<trkpt lat="53.466877" lon="05.903081"><ele>1.3</ele><time>2021-02-18T14:07:23Z</time><name>PT9173</name></trkpt>
<trkpt lat="53.466885" lon="05.903080"><ele>1.2</ele><time>2021-02-18T14:07:24Z</time><name>PT9174</name></trkpt>
<trkpt lat="53.466893" lon="05.903081"><ele>1.3</ele><time>2021-02-18T14:07:25Z</time><name>PT9175</name></trkpt>
<trkpt lat="53.466895" lon="05.903079"><ele>1.2</ele><time>2021-02-18T14:07:26Z</time><name>PT9176</name></trkpt>
<trkpt lat="53.466900" lon="05.903075"><ele>1.2</ele><time>2021-02-18T14:07:27Z</time><name>PT9177</name></trkpt>
<trkpt lat="53.466907" lon="05.903070"><ele>1.3</ele><time>2021-02-18T14:07:28Z</time><name>PT9178</name></trkpt>
<trkpt lat="53.466913" lon="05.903063"><ele>1.2</ele><time>2021-02-18T14:07:29Z</time><name>PT9179</name></trkpt>
<trkpt lat="53.466919" lon="05.903056"><ele>1.2</ele><time>2021-02-18T14:07:30Z</time><name>PT9180</name></trkpt>
<trkpt lat="53.466925" lon="05.903051"><ele>1.6</ele><time>2021-02-18T14:07:31Z</time><name>PT9181</name></trkpt>
<trkpt lat="53.466932" lon="05.903044"><ele>1.6</ele><time>2021-02-18T14:07:32Z</time><name>PT9182</name></trkpt>
<trkpt lat="53.466938" lon="05.903038"><ele>1.7</ele><time>2021-02-18T14:07:33Z</time><name>PT9183</name></trkpt>
<trkpt lat="53.466945" lon="05.903029"><ele>1.7</ele><time>2021-02-18T14:07:34Z</time><name>PT9184</name></trkpt>
<trkpt lat="53.466952" lon="05.903021"><ele>1.8</ele><time>2021-02-18T14:07:35Z</time><name>PT9185</name></trkpt>
<trkpt lat="53.466957" lon="05.903012"><ele>2</ele><time>2021-02-18T14:07:36Z</time><name>PT9186</name></trkpt>
<trkpt lat="53.466961" lon="05.903007"><ele>2.3</ele><time>2021-02-18T14:07:37Z</time><name>PT9187</name></trkpt>
<trkpt lat="53.466968" lon="05.903001"><ele>2.7</ele><time>2021-02-18T14:07:38Z</time><name>PT9188</name></trkpt>
<trkpt lat="53.466976" lon="05.902997"><ele>2.8</ele><time>2021-02-18T14:07:39Z</time><name>PT9189</name></trkpt>
<trkpt lat="53.466979" lon="05.902995"><ele>2.8</ele><time>2021-02-18T14:07:40Z</time><name>PT9190</name></trkpt>
<trkpt lat="53.466980" lon="05.902994"><ele>2.7</ele><time>2021-02-18T14:07:41Z</time><name>PT9191</name></trkpt>
<trkpt lat="53.466981" lon="05.902995"><ele>2.3</ele><time>2021-02-18T14:07:42Z</time><name>PT9192</name></trkpt>
<trkpt lat="53.466980" lon="05.902995"><ele>2.1</ele><time>2021-02-18T14:07:43Z</time><name>PT9193</name></trkpt>
<trkpt lat="53.466983" lon="05.902987"><ele>2.7</ele><time>2021-02-18T14:07:48Z</time><name>PT9194</name></trkpt>
<trkpt lat="53.466989" lon="05.902972"><ele>2.7</ele><time>2021-02-18T14:07:49Z</time><name>PT9195</name></trkpt>
<trkpt lat="53.466997" lon="05.902961"><ele>2.7</ele><time>2021-02-18T14:07:50Z</time><name>PT9196</name></trkpt>
<trkpt lat="53.467002" lon="05.902951"><ele>2.6</ele><time>2021-02-18T14:07:51Z</time><name>PT9197</name></trkpt>
<trkpt lat="53.467006" lon="05.902942"><ele>2.5</ele><time>2021-02-18T14:07:52Z</time><name>PT9198</name></trkpt>
<trkpt lat="53.467010" lon="05.902934"><ele>2.3</ele><time>2021-02-18T14:07:53Z</time><name>PT9199</name></trkpt>
<trkpt lat="53.467016" lon="05.902924"><ele>2.2</ele><time>2021-02-18T14:07:54Z</time><name>PT9200</name></trkpt>
<trkpt lat="53.467021" lon="05.902911"><ele>2.2</ele><time>2021-02-18T14:07:55Z</time><name>PT9201</name></trkpt>
<trkpt lat="53.467028" lon="05.902897"><ele>2.3</ele><time>2021-02-18T14:07:56Z</time><name>PT9202</name></trkpt>
<trkpt lat="53.467035" lon="05.902892"><ele>2.2</ele><time>2021-02-18T14:07:57Z</time><name>PT9203</name></trkpt>
<trkpt lat="53.467044" lon="05.902887"><ele>2.3</ele><time>2021-02-18T14:07:58Z</time><name>PT9204</name></trkpt>
<trkpt lat="53.467052" lon="05.902881"><ele>2.4</ele><time>2021-02-18T14:07:59Z</time><name>PT9205</name></trkpt>
<trkpt lat="53.467056" lon="05.902888"><ele>2.4</ele><time>2021-02-18T14:08:00Z</time><name>PT9206</name></trkpt>
<trkpt lat="53.467057" lon="05.902888"><ele>2.4</ele><time>2021-02-18T14:08:01Z</time><name>PT9207</name></trkpt>
<trkpt lat="53.467058" lon="05.902882"><ele>2.4</ele><time>2021-02-18T14:08:02Z</time><name>PT9208</name></trkpt>
<trkpt lat="53.467062" lon="05.902875"><ele>2.3</ele><time>2021-02-18T14:08:03Z</time><name>PT9209</name></trkpt>
<trkpt lat="53.467068" lon="05.902866"><ele>2.2</ele><time>2021-02-18T14:08:04Z</time><name>PT9210</name></trkpt>
<trkpt lat="53.467077" lon="05.902856"><ele>2.2</ele><time>2021-02-18T14:08:05Z</time><name>PT9211</name></trkpt>
<trkpt lat="53.467085" lon="05.902846"><ele>2.2</ele><time>2021-02-18T14:08:06Z</time><name>PT9212</name></trkpt>
<trkpt lat="53.467093" lon="05.902836"><ele>2.2</ele><time>2021-02-18T14:08:07Z</time><name>PT9213</name></trkpt>
<trkpt lat="53.467101" lon="05.902823"><ele>2.3</ele><time>2021-02-18T14:08:08Z</time><name>PT9214</name></trkpt>
<trkpt lat="53.467108" lon="05.902812"><ele>2.5</ele><time>2021-02-18T14:08:09Z</time><name>PT9215</name></trkpt>
<trkpt lat="53.467113" lon="05.902801"><ele>2.3</ele><time>2021-02-18T14:08:10Z</time><name>PT9216</name></trkpt>
<trkpt lat="53.467121" lon="05.902790"><ele>2.3</ele><time>2021-02-18T14:08:11Z</time><name>PT9217</name></trkpt>
<trkpt lat="53.467130" lon="05.902778"><ele>2.2</ele><time>2021-02-18T14:08:12Z</time><name>PT9218</name></trkpt>
<trkpt lat="53.467137" lon="05.902767"><ele>2.1</ele><time>2021-02-18T14:08:13Z</time><name>PT9219</name></trkpt>
<trkpt lat="53.467143" lon="05.902756"><ele>2</ele><time>2021-02-18T14:08:14Z</time><name>PT9220</name></trkpt>
<trkpt lat="53.467148" lon="05.902743"><ele>2.1</ele><time>2021-02-18T14:08:15Z</time><name>PT9221</name></trkpt>
<trkpt lat="53.467155" lon="05.902727"><ele>1.9</ele><time>2021-02-18T14:08:16Z</time><name>PT9222</name></trkpt>
<trkpt lat="53.467161" lon="05.902713"><ele>2</ele><time>2021-02-18T14:08:17Z</time><name>PT9223</name></trkpt>
<trkpt lat="53.467166" lon="05.902703"><ele>2.2</ele><time>2021-02-18T14:08:18Z</time><name>PT9224</name></trkpt>
<trkpt lat="53.467172" lon="05.902692"><ele>2.3</ele><time>2021-02-18T14:08:19Z</time><name>PT9225</name></trkpt>
<trkpt lat="53.467178" lon="05.902680"><ele>2.4</ele><time>2021-02-18T14:08:20Z</time><name>PT9226</name></trkpt>
<trkpt lat="53.467186" lon="05.902667"><ele>2.4</ele><time>2021-02-18T14:08:21Z</time><name>PT9227</name></trkpt>
<trkpt lat="53.467193" lon="05.902655"><ele>2.4</ele><time>2021-02-18T14:08:22Z</time><name>PT9228</name></trkpt>
<trkpt lat="53.467200" lon="05.902641"><ele>2.2</ele><time>2021-02-18T14:08:23Z</time><name>PT9229</name></trkpt>
<trkpt lat="53.467207" lon="05.902628"><ele>2.2</ele><time>2021-02-18T14:08:24Z</time><name>PT9230</name></trkpt>
<trkpt lat="53.467214" lon="05.902614"><ele>2.1</ele><time>2021-02-18T14:08:25Z</time><name>PT9231</name></trkpt>
<trkpt lat="53.467218" lon="05.902601"><ele>2.1</ele><time>2021-02-18T14:08:26Z</time><name>PT9232</name></trkpt>
<trkpt lat="53.467223" lon="05.902590"><ele>2</ele><time>2021-02-18T14:08:27Z</time><name>PT9233</name></trkpt>
<trkpt lat="53.467229" lon="05.902578"><ele>2</ele><time>2021-02-18T14:08:28Z</time><name>PT9234</name></trkpt>
<trkpt lat="53.467237" lon="05.902568"><ele>2</ele><time>2021-02-18T14:08:29Z</time><name>PT9235</name></trkpt>
<trkpt lat="53.467243" lon="05.902556"><ele>2.1</ele><time>2021-02-18T14:08:30Z</time><name>PT9236</name></trkpt>
<trkpt lat="53.467248" lon="05.902544"><ele>2.1</ele><time>2021-02-18T14:08:31Z</time><name>PT9237</name></trkpt>
<trkpt lat="53.467255" lon="05.902531"><ele>2</ele><time>2021-02-18T14:08:32Z</time><name>PT9238</name></trkpt>
<trkpt lat="53.467260" lon="05.902517"><ele>2.2</ele><time>2021-02-18T14:08:33Z</time><name>PT9239</name></trkpt>
<trkpt lat="53.467267" lon="05.902504"><ele>2.2</ele><time>2021-02-18T14:08:34Z</time><name>PT9240</name></trkpt>
<trkpt lat="53.467274" lon="05.902490"><ele>2.3</ele><time>2021-02-18T14:08:35Z</time><name>PT9241</name></trkpt>
<trkpt lat="53.467281" lon="05.902477"><ele>2.7</ele><time>2021-02-18T14:08:36Z</time><name>PT9242</name></trkpt>
<trkpt lat="53.467289" lon="05.902467"><ele>2.8</ele><time>2021-02-18T14:08:37Z</time><name>PT9243</name></trkpt>
<trkpt lat="53.467296" lon="05.902457"><ele>2.7</ele><time>2021-02-18T14:08:38Z</time><name>PT9244</name></trkpt>
<trkpt lat="53.467302" lon="05.902444"><ele>2.7</ele><time>2021-02-18T14:08:39Z</time><name>PT9245</name></trkpt>
<trkpt lat="53.467306" lon="05.902431"><ele>2.3</ele><time>2021-02-18T14:08:40Z</time><name>PT9246</name></trkpt>
<trkpt lat="53.467312" lon="05.902417"><ele>2.1</ele><time>2021-02-18T14:08:41Z</time><name>PT9247</name></trkpt>
<trkpt lat="53.467317" lon="05.902401"><ele>2</ele><time>2021-02-18T14:08:42Z</time><name>PT9248</name></trkpt>
<trkpt lat="53.467321" lon="05.902386"><ele>1.8</ele><time>2021-02-18T14:08:43Z</time><name>PT9249</name></trkpt>
<trkpt lat="53.467324" lon="05.902371"><ele>1.7</ele><time>2021-02-18T14:08:44Z</time><name>PT9250</name></trkpt>
<trkpt lat="53.467324" lon="05.902357"><ele>1.6</ele><time>2021-02-18T14:08:45Z</time><name>PT9251</name></trkpt>
<trkpt lat="53.467324" lon="05.902340"><ele>1.5</ele><time>2021-02-18T14:08:46Z</time><name>PT9252</name></trkpt>
<trkpt lat="53.467323" lon="05.902326"><ele>1.4</ele><time>2021-02-18T14:08:47Z</time><name>PT9253</name></trkpt>
<trkpt lat="53.467324" lon="05.902309"><ele>1.2</ele><time>2021-02-18T14:08:48Z</time><name>PT9254</name></trkpt>
<trkpt lat="53.467324" lon="05.902292"><ele>1</ele><time>2021-02-18T14:08:49Z</time><name>PT9255</name></trkpt>
<trkpt lat="53.467326" lon="05.902274"><ele>1.2</ele><time>2021-02-18T14:08:50Z</time><name>PT9256</name></trkpt>
<trkpt lat="53.467328" lon="05.902258"><ele>1</ele><time>2021-02-18T14:08:51Z</time><name>PT9257</name></trkpt>
<trkpt lat="53.467331" lon="05.902241"><ele>1</ele><time>2021-02-18T14:08:52Z</time><name>PT9258</name></trkpt>
<trkpt lat="53.467334" lon="05.902224"><ele>0.8</ele><time>2021-02-18T14:08:53Z</time><name>PT9259</name></trkpt>
<trkpt lat="53.467336" lon="05.902206"><ele>0.7</ele><time>2021-02-18T14:08:54Z</time><name>PT9260</name></trkpt>
<trkpt lat="53.467335" lon="05.902189"><ele>0.7</ele><time>2021-02-18T14:08:55Z</time><name>PT9261</name></trkpt>
<trkpt lat="53.467332" lon="05.902173"><ele>0.9</ele><time>2021-02-18T14:08:56Z</time><name>PT9262</name></trkpt>
<trkpt lat="53.467331" lon="05.902158"><ele>0.9</ele><time>2021-02-18T14:08:57Z</time><name>PT9263</name></trkpt>
<trkpt lat="53.467330" lon="05.902142"><ele>1.2</ele><time>2021-02-18T14:08:58Z</time><name>PT9264</name></trkpt>
<trkpt lat="53.467329" lon="05.902124"><ele>1.2</ele><time>2021-02-18T14:08:59Z</time><name>PT9265</name></trkpt>
<trkpt lat="53.467330" lon="05.902106"><ele>1.2</ele><time>2021-02-18T14:09:00Z</time><name>PT9266</name></trkpt>
<trkpt lat="53.467332" lon="05.902090"><ele>1.2</ele><time>2021-02-18T14:09:01Z</time><name>PT9267</name></trkpt>
<trkpt lat="53.467333" lon="05.902074"><ele>1.2</ele><time>2021-02-18T14:09:02Z</time><name>PT9268</name></trkpt>
<trkpt lat="53.467336" lon="05.902057"><ele>1.2</ele><time>2021-02-18T14:09:03Z</time><name>PT9269</name></trkpt>
<trkpt lat="53.467340" lon="05.902039"><ele>1.2</ele><time>2021-02-18T14:09:04Z</time><name>PT9270</name></trkpt>
<trkpt lat="53.467343" lon="05.902019"><ele>1.4</ele><time>2021-02-18T14:09:05Z</time><name>PT9271</name></trkpt>
<trkpt lat="53.467345" lon="05.901999"><ele>1.3</ele><time>2021-02-18T14:09:06Z</time><name>PT9272</name></trkpt>
<trkpt lat="53.467347" lon="05.901979"><ele>1.2</ele><time>2021-02-18T14:09:07Z</time><name>PT9273</name></trkpt>
<trkpt lat="53.467349" lon="05.901960"><ele>1.2</ele><time>2021-02-18T14:09:08Z</time><name>PT9274</name></trkpt>
<trkpt lat="53.467349" lon="05.901939"><ele>1.2</ele><time>2021-02-18T14:09:09Z</time><name>PT9275</name></trkpt>
<trkpt lat="53.467349" lon="05.901921"><ele>1.3</ele><time>2021-02-18T14:09:10Z</time><name>PT9276</name></trkpt>
<trkpt lat="53.467349" lon="05.901901"><ele>1.3</ele><time>2021-02-18T14:09:11Z</time><name>PT9277</name></trkpt>
<trkpt lat="53.467348" lon="05.901882"><ele>1.4</ele><time>2021-02-18T14:09:12Z</time><name>PT9278</name></trkpt>
<trkpt lat="53.467349" lon="05.901864"><ele>1.6</ele><time>2021-02-18T14:09:13Z</time><name>PT9279</name></trkpt>
<trkpt lat="53.467349" lon="05.901845"><ele>1.6</ele><time>2021-02-18T14:09:14Z</time><name>PT9280</name></trkpt>
<trkpt lat="53.467349" lon="05.901825"><ele>1.7</ele><time>2021-02-18T14:09:15Z</time><name>PT9281</name></trkpt>
<trkpt lat="53.467348" lon="05.901803"><ele>1.7</ele><time>2021-02-18T14:09:16Z</time><name>PT9282</name></trkpt>
<trkpt lat="53.467348" lon="05.901782"><ele>1.6</ele><time>2021-02-18T14:09:17Z</time><name>PT9283</name></trkpt>
<trkpt lat="53.467349" lon="05.901761"><ele>1.6</ele><time>2021-02-18T14:09:18Z</time><name>PT9284</name></trkpt>
<trkpt lat="53.467349" lon="05.901742"><ele>1.5</ele><time>2021-02-18T14:09:19Z</time><name>PT9285</name></trkpt>
<trkpt lat="53.467349" lon="05.901723"><ele>1.5</ele><time>2021-02-18T14:09:20Z</time><name>PT9286</name></trkpt>
<trkpt lat="53.467348" lon="05.901703"><ele>1.3</ele><time>2021-02-18T14:09:21Z</time><name>PT9287</name></trkpt>
<trkpt lat="53.467348" lon="05.901684"><ele>1.2</ele><time>2021-02-18T14:09:22Z</time><name>PT9288</name></trkpt>
<trkpt lat="53.467347" lon="05.901664"><ele>1.2</ele><time>2021-02-18T14:09:23Z</time><name>PT9289</name></trkpt>
<trkpt lat="53.467346" lon="05.901643"><ele>1.1</ele><time>2021-02-18T14:09:24Z</time><name>PT9290</name></trkpt>
<trkpt lat="53.467347" lon="05.901623"><ele>1.2</ele><time>2021-02-18T14:09:25Z</time><name>PT9291</name></trkpt>
<trkpt lat="53.467346" lon="05.901605"><ele>1.4</ele><time>2021-02-18T14:09:26Z</time><name>PT9292</name></trkpt>
<trkpt lat="53.467345" lon="05.901585"><ele>1.4</ele><time>2021-02-18T14:09:27Z</time><name>PT9293</name></trkpt>
<trkpt lat="53.467343" lon="05.901567"><ele>1.3</ele><time>2021-02-18T14:09:28Z</time><name>PT9294</name></trkpt>
<trkpt lat="53.467340" lon="05.901547"><ele>1.3</ele><time>2021-02-18T14:09:29Z</time><name>PT9295</name></trkpt>
<trkpt lat="53.467338" lon="05.901526"><ele>1.2</ele><time>2021-02-18T14:09:30Z</time><name>PT9296</name></trkpt>
<trkpt lat="53.467337" lon="05.901508"><ele>1.2</ele><time>2021-02-18T14:09:31Z</time><name>PT9297</name></trkpt>
<trkpt lat="53.467335" lon="05.901490"><ele>1.2</ele><time>2021-02-18T14:09:32Z</time><name>PT9298</name></trkpt>
<trkpt lat="53.467334" lon="05.901472"><ele>1.1</ele><time>2021-02-18T14:09:33Z</time><name>PT9299</name></trkpt>
<trkpt lat="53.467334" lon="05.901453"><ele>0.8</ele><time>2021-02-18T14:09:34Z</time><name>PT9300</name></trkpt>
<trkpt lat="53.467333" lon="05.901436"><ele>0.8</ele><time>2021-02-18T14:09:35Z</time><name>PT9301</name></trkpt>
<trkpt lat="53.467331" lon="05.901417"><ele>1</ele><time>2021-02-18T14:09:36Z</time><name>PT9302</name></trkpt>
<trkpt lat="53.467331" lon="05.901403"><ele>1</ele><time>2021-02-18T14:09:37Z</time><name>PT9303</name></trkpt>
<trkpt lat="53.467332" lon="05.901387"><ele>1.2</ele><time>2021-02-18T14:09:38Z</time><name>PT9304</name></trkpt>
<trkpt lat="53.467333" lon="05.901370"><ele>1.3</ele><time>2021-02-18T14:09:39Z</time><name>PT9305</name></trkpt>
<trkpt lat="53.467335" lon="05.901350"><ele>1.4</ele><time>2021-02-18T14:09:40Z</time><name>PT9306</name></trkpt>
<trkpt lat="53.467337" lon="05.901330"><ele>1.7</ele><time>2021-02-18T14:09:41Z</time><name>PT9307</name></trkpt>
<trkpt lat="53.467338" lon="05.901311"><ele>1.9</ele><time>2021-02-18T14:09:42Z</time><name>PT9308</name></trkpt>
<trkpt lat="53.467339" lon="05.901292"><ele>2</ele><time>2021-02-18T14:09:43Z</time><name>PT9309</name></trkpt>
<trkpt lat="53.467339" lon="05.901272"><ele>2.1</ele><time>2021-02-18T14:09:44Z</time><name>PT9310</name></trkpt>
<trkpt lat="53.467339" lon="05.901253"><ele>2.2</ele><time>2021-02-18T14:09:45Z</time><name>PT9311</name></trkpt>
<trkpt lat="53.467338" lon="05.901233"><ele>2.2</ele><time>2021-02-18T14:09:46Z</time><name>PT9312</name></trkpt>
<trkpt lat="53.467338" lon="05.901214"><ele>2.2</ele><time>2021-02-18T14:09:47Z</time><name>PT9313</name></trkpt>
<trkpt lat="53.467337" lon="05.901196"><ele>2.2</ele><time>2021-02-18T14:09:48Z</time><name>PT9314</name></trkpt>
<trkpt lat="53.467337" lon="05.901178"><ele>1.9</ele><time>2021-02-18T14:09:49Z</time><name>PT9315</name></trkpt>
<trkpt lat="53.467338" lon="05.901158"><ele>1.8</ele><time>2021-02-18T14:09:50Z</time><name>PT9316</name></trkpt>
<trkpt lat="53.467339" lon="05.901139"><ele>1.7</ele><time>2021-02-18T14:09:51Z</time><name>PT9317</name></trkpt>
<trkpt lat="53.467341" lon="05.901121"><ele>1.6</ele><time>2021-02-18T14:09:52Z</time><name>PT9318</name></trkpt>
<trkpt lat="53.467343" lon="05.901101"><ele>1.7</ele><time>2021-02-18T14:09:53Z</time><name>PT9319</name></trkpt>
<trkpt lat="53.467344" lon="05.901079"><ele>1.7</ele><time>2021-02-18T14:09:54Z</time><name>PT9320</name></trkpt>
<trkpt lat="53.467346" lon="05.901059"><ele>1.7</ele><time>2021-02-18T14:09:55Z</time><name>PT9321</name></trkpt>
<trkpt lat="53.467347" lon="05.901036"><ele>1.7</ele><time>2021-02-18T14:09:56Z</time><name>PT9322</name></trkpt>
<trkpt lat="53.467348" lon="05.901014"><ele>1.7</ele><time>2021-02-18T14:09:57Z</time><name>PT9323</name></trkpt>
<trkpt lat="53.467348" lon="05.900996"><ele>1.9</ele><time>2021-02-18T14:09:58Z</time><name>PT9324</name></trkpt>
<trkpt lat="53.467346" lon="05.900977"><ele>2.1</ele><time>2021-02-18T14:09:59Z</time><name>PT9325</name></trkpt>
<trkpt lat="53.467345" lon="05.900957"><ele>2.3</ele><time>2021-02-18T14:10:00Z</time><name>PT9326</name></trkpt>
<trkpt lat="53.467346" lon="05.900936"><ele>2.3</ele><time>2021-02-18T14:10:01Z</time><name>PT9327</name></trkpt>
<trkpt lat="53.467346" lon="05.900916"><ele>2.2</ele><time>2021-02-18T14:10:02Z</time><name>PT9328</name></trkpt>
<trkpt lat="53.467346" lon="05.900896"><ele>1.7</ele><time>2021-02-18T14:10:03Z</time><name>PT9329</name></trkpt>
<trkpt lat="53.467344" lon="05.900875"><ele>1.7</ele><time>2021-02-18T14:10:04Z</time><name>PT9330</name></trkpt>
<trkpt lat="53.467344" lon="05.900855"><ele>1.5</ele><time>2021-02-18T14:10:05Z</time><name>PT9331</name></trkpt>
<trkpt lat="53.467342" lon="05.900837"><ele>1.3</ele><time>2021-02-18T14:10:06Z</time><name>PT9332</name></trkpt>
<trkpt lat="53.467339" lon="05.900819"><ele>1.6</ele><time>2021-02-18T14:10:07Z</time><name>PT9333</name></trkpt>
<trkpt lat="53.467337" lon="05.900801"><ele>1.5</ele><time>2021-02-18T14:10:08Z</time><name>PT9334</name></trkpt>
<trkpt lat="53.467336" lon="05.900781"><ele>1.6</ele><time>2021-02-18T14:10:09Z</time><name>PT9335</name></trkpt>
<trkpt lat="53.467334" lon="05.900764"><ele>1.7</ele><time>2021-02-18T14:10:10Z</time><name>PT9336</name></trkpt>
<trkpt lat="53.467333" lon="05.900747"><ele>1.7</ele><time>2021-02-18T14:10:11Z</time><name>PT9337</name></trkpt>
<trkpt lat="53.467333" lon="05.900728"><ele>1.5</ele><time>2021-02-18T14:10:12Z</time><name>PT9338</name></trkpt>
<trkpt lat="53.467333" lon="05.900709"><ele>1.4</ele><time>2021-02-18T14:10:13Z</time><name>PT9339</name></trkpt>
<trkpt lat="53.467332" lon="05.900691"><ele>1.3</ele><time>2021-02-18T14:10:14Z</time><name>PT9340</name></trkpt>
<trkpt lat="53.467330" lon="05.900672"><ele>1.2</ele><time>2021-02-18T14:10:15Z</time><name>PT9341</name></trkpt>
<trkpt lat="53.467330" lon="05.900653"><ele>1.3</ele><time>2021-02-18T14:10:16Z</time><name>PT9342</name></trkpt>
<trkpt lat="53.467329" lon="05.900634"><ele>1.2</ele><time>2021-02-18T14:10:17Z</time><name>PT9343</name></trkpt>
<trkpt lat="53.467327" lon="05.900613"><ele>1</ele><time>2021-02-18T14:10:18Z</time><name>PT9344</name></trkpt>
<trkpt lat="53.467328" lon="05.900594"><ele>0.8</ele><time>2021-02-18T14:10:19Z</time><name>PT9345</name></trkpt>
<trkpt lat="53.467329" lon="05.900574"><ele>0.7</ele><time>2021-02-18T14:10:20Z</time><name>PT9346</name></trkpt>
<trkpt lat="53.467330" lon="05.900554"><ele>0.7</ele><time>2021-02-18T14:10:21Z</time><name>PT9347</name></trkpt>
<trkpt lat="53.467330" lon="05.900534"><ele>0.8</ele><time>2021-02-18T14:10:22Z</time><name>PT9348</name></trkpt>
<trkpt lat="53.467331" lon="05.900515"><ele>0.9</ele><time>2021-02-18T14:10:23Z</time><name>PT9349</name></trkpt>
<trkpt lat="53.467333" lon="05.900496"><ele>0.9</ele><time>2021-02-18T14:10:24Z</time><name>PT9350</name></trkpt>
<trkpt lat="53.467332" lon="05.900479"><ele>0.8</ele><time>2021-02-18T14:10:25Z</time><name>PT9351</name></trkpt>
<trkpt lat="53.467331" lon="05.900462"><ele>0.9</ele><time>2021-02-18T14:10:26Z</time><name>PT9352</name></trkpt>
<trkpt lat="53.467329" lon="05.900441"><ele>0.9</ele><time>2021-02-18T14:10:27Z</time><name>PT9353</name></trkpt>
<trkpt lat="53.467328" lon="05.900421"><ele>0.9</ele><time>2021-02-18T14:10:28Z</time><name>PT9354</name></trkpt>
<trkpt lat="53.467327" lon="05.900399"><ele>0.9</ele><time>2021-02-18T14:10:29Z</time><name>PT9355</name></trkpt>
<trkpt lat="53.467326" lon="05.900379"><ele>1</ele><time>2021-02-18T14:10:30Z</time><name>PT9356</name></trkpt>
<trkpt lat="53.467326" lon="05.900362"><ele>1</ele><time>2021-02-18T14:10:31Z</time><name>PT9357</name></trkpt>
<trkpt lat="53.467326" lon="05.900345"><ele>1.1</ele><time>2021-02-18T14:10:32Z</time><name>PT9358</name></trkpt>
<trkpt lat="53.467326" lon="05.900328"><ele>1.1</ele><time>2021-02-18T14:10:33Z</time><name>PT9359</name></trkpt>
<trkpt lat="53.467326" lon="05.900309"><ele>1.3</ele><time>2021-02-18T14:10:34Z</time><name>PT9360</name></trkpt>
<trkpt lat="53.467328" lon="05.900292"><ele>1.5</ele><time>2021-02-18T14:10:35Z</time><name>PT9361</name></trkpt>
<trkpt lat="53.467329" lon="05.900274"><ele>1.7</ele><time>2021-02-18T14:10:36Z</time><name>PT9362</name></trkpt>
<trkpt lat="53.467330" lon="05.900254"><ele>1.7</ele><time>2021-02-18T14:10:37Z</time><name>PT9363</name></trkpt>
<trkpt lat="53.467330" lon="05.900233"><ele>1.6</ele><time>2021-02-18T14:10:38Z</time><name>PT9364</name></trkpt>
<trkpt lat="53.467331" lon="05.900213"><ele>1.3</ele><time>2021-02-18T14:10:39Z</time><name>PT9365</name></trkpt>
<trkpt lat="53.467332" lon="05.900193"><ele>1.5</ele><time>2021-02-18T14:10:40Z</time><name>PT9366</name></trkpt>
<trkpt lat="53.467333" lon="05.900173"><ele>1.6</ele><time>2021-02-18T14:10:41Z</time><name>PT9367</name></trkpt>
<trkpt lat="53.467333" lon="05.900154"><ele>2</ele><time>2021-02-18T14:10:42Z</time><name>PT9368</name></trkpt>
<trkpt lat="53.467333" lon="05.900135"><ele>2.4</ele><time>2021-02-18T14:10:43Z</time><name>PT9369</name></trkpt>
<trkpt lat="53.467331" lon="05.900115"><ele>2.5</ele><time>2021-02-18T14:10:44Z</time><name>PT9370</name></trkpt>
<trkpt lat="53.467330" lon="05.900094"><ele>2.2</ele><time>2021-02-18T14:10:45Z</time><name>PT9371</name></trkpt>
<trkpt lat="53.467330" lon="05.900073"><ele>2</ele><time>2021-02-18T14:10:46Z</time><name>PT9372</name></trkpt>
<trkpt lat="53.467329" lon="05.900052"><ele>2.1</ele><time>2021-02-18T14:10:47Z</time><name>PT9373</name></trkpt>
<trkpt lat="53.467328" lon="05.900033"><ele>2</ele><time>2021-02-18T14:10:48Z</time><name>PT9374</name></trkpt>
<trkpt lat="53.467326" lon="05.900016"><ele>2.1</ele><time>2021-02-18T14:10:49Z</time><name>PT9375</name></trkpt>
<trkpt lat="53.467325" lon="05.900001"><ele>2</ele><time>2021-02-18T14:10:50Z</time><name>PT9376</name></trkpt>
<trkpt lat="53.467325" lon="05.899979"><ele>1.9</ele><time>2021-02-18T14:10:51Z</time><name>PT9377</name></trkpt>
<trkpt lat="53.467325" lon="05.899961"><ele>1.7</ele><time>2021-02-18T14:10:52Z</time><name>PT9378</name></trkpt>
<trkpt lat="53.467325" lon="05.899938"><ele>1.5</ele><time>2021-02-18T14:10:53Z</time><name>PT9379</name></trkpt>
<trkpt lat="53.467325" lon="05.899918"><ele>1.3</ele><time>2021-02-18T14:10:54Z</time><name>PT9380</name></trkpt>
<trkpt lat="53.467324" lon="05.899899"><ele>1</ele><time>2021-02-18T14:10:55Z</time><name>PT9381</name></trkpt>
<trkpt lat="53.467324" lon="05.899878"><ele>0.7</ele><time>2021-02-18T14:10:56Z</time><name>PT9382</name></trkpt>
<trkpt lat="53.467323" lon="05.899857"><ele>0.6</ele><time>2021-02-18T14:10:57Z</time><name>PT9383</name></trkpt>
<trkpt lat="53.467323" lon="05.899836"><ele>0.7</ele><time>2021-02-18T14:10:58Z</time><name>PT9384</name></trkpt>
<trkpt lat="53.467321" lon="05.899815"><ele>0.9</ele><time>2021-02-18T14:10:59Z</time><name>PT9385</name></trkpt>
<trkpt lat="53.467321" lon="05.899798"><ele>0.8</ele><time>2021-02-18T14:11:00Z</time><name>PT9386</name></trkpt>
<trkpt lat="53.467320" lon="05.899780"><ele>1</ele><time>2021-02-18T14:11:01Z</time><name>PT9387</name></trkpt>
<trkpt lat="53.467321" lon="05.899764"><ele>1.1</ele><time>2021-02-18T14:11:02Z</time><name>PT9388</name></trkpt>
<trkpt lat="53.467323" lon="05.899744"><ele>1.3</ele><time>2021-02-18T14:11:03Z</time><name>PT9389</name></trkpt>
<trkpt lat="53.467324" lon="05.899727"><ele>1.5</ele><time>2021-02-18T14:11:04Z</time><name>PT9390</name></trkpt>
<trkpt lat="53.467324" lon="05.899707"><ele>1.4</ele><time>2021-02-18T14:11:05Z</time><name>PT9391</name></trkpt>
<trkpt lat="53.467325" lon="05.899687"><ele>1.6</ele><time>2021-02-18T14:11:06Z</time><name>PT9392</name></trkpt>
<trkpt lat="53.467327" lon="05.899667"><ele>1.4</ele><time>2021-02-18T14:11:07Z</time><name>PT9393</name></trkpt>
<trkpt lat="53.467329" lon="05.899648"><ele>1.4</ele><time>2021-02-18T14:11:08Z</time><name>PT9394</name></trkpt>
<trkpt lat="53.467329" lon="05.899629"><ele>1.5</ele><time>2021-02-18T14:11:09Z</time><name>PT9395</name></trkpt>
<trkpt lat="53.467327" lon="05.899611"><ele>1.4</ele><time>2021-02-18T14:11:10Z</time><name>PT9396</name></trkpt>
<trkpt lat="53.467327" lon="05.899593"><ele>1.3</ele><time>2021-02-18T14:11:11Z</time><name>PT9397</name></trkpt>
<trkpt lat="53.467328" lon="05.899576"><ele>1.3</ele><time>2021-02-18T14:11:12Z</time><name>PT9398</name></trkpt>
<trkpt lat="53.467330" lon="05.899561"><ele>1.4</ele><time>2021-02-18T14:11:13Z</time><name>PT9399</name></trkpt>
<trkpt lat="53.467333" lon="05.899545"><ele>1.3</ele><time>2021-02-18T14:11:14Z</time><name>PT9400</name></trkpt>
<trkpt lat="53.467335" lon="05.899527"><ele>1.5</ele><time>2021-02-18T14:11:15Z</time><name>PT9401</name></trkpt>
<trkpt lat="53.467340" lon="05.899506"><ele>1.6</ele><time>2021-02-18T14:11:16Z</time><name>PT9402</name></trkpt>
<trkpt lat="53.467343" lon="05.899486"><ele>1.5</ele><time>2021-02-18T14:11:17Z</time><name>PT9403</name></trkpt>
<trkpt lat="53.467346" lon="05.899470"><ele>1.4</ele><time>2021-02-18T14:11:18Z</time><name>PT9404</name></trkpt>
<trkpt lat="53.467350" lon="05.899456"><ele>1.3</ele><time>2021-02-18T14:11:19Z</time><name>PT9405</name></trkpt>
<trkpt lat="53.467353" lon="05.899437"><ele>1.2</ele><time>2021-02-18T14:11:20Z</time><name>PT9406</name></trkpt>
<trkpt lat="53.467356" lon="05.899417"><ele>1.2</ele><time>2021-02-18T14:11:21Z</time><name>PT9407</name></trkpt>
<trkpt lat="53.467360" lon="05.899400"><ele>1.2</ele><time>2021-02-18T14:11:22Z</time><name>PT9408</name></trkpt>
<trkpt lat="53.467365" lon="05.899382"><ele>1.2</ele><time>2021-02-18T14:11:23Z</time><name>PT9409</name></trkpt>
<trkpt lat="53.467369" lon="05.899364"><ele>1.3</ele><time>2021-02-18T14:11:24Z</time><name>PT9410</name></trkpt>
<trkpt lat="53.467373" lon="05.899345"><ele>1.4</ele><time>2021-02-18T14:11:25Z</time><name>PT9411</name></trkpt>
<trkpt lat="53.467377" lon="05.899324"><ele>1.4</ele><time>2021-02-18T14:11:26Z</time><name>PT9412</name></trkpt>
<trkpt lat="53.467382" lon="05.899303"><ele>1.5</ele><time>2021-02-18T14:11:27Z</time><name>PT9413</name></trkpt>
<trkpt lat="53.467386" lon="05.899289"><ele>1.6</ele><time>2021-02-18T14:11:28Z</time><name>PT9414</name></trkpt>
<trkpt lat="53.467390" lon="05.899270"><ele>1.5</ele><time>2021-02-18T14:11:29Z</time><name>PT9415</name></trkpt>
<trkpt lat="53.467394" lon="05.899252"><ele>1.5</ele><time>2021-02-18T14:11:30Z</time><name>PT9416</name></trkpt>
<trkpt lat="53.467399" lon="05.899242"><ele>1.4</ele><time>2021-02-18T14:11:31Z</time><name>PT9417</name></trkpt>
<trkpt lat="53.467406" lon="05.899234"><ele>1.3</ele><time>2021-02-18T14:11:32Z</time><name>PT9418</name></trkpt>
<trkpt lat="53.467412" lon="05.899225"><ele>1.3</ele><time>2021-02-18T14:11:33Z</time><name>PT9419</name></trkpt>
<trkpt lat="53.467418" lon="05.899210"><ele>1.5</ele><time>2021-02-18T14:11:34Z</time><name>PT9420</name></trkpt>
<trkpt lat="53.467422" lon="05.899193"><ele>1.6</ele><time>2021-02-18T14:11:35Z</time><name>PT9421</name></trkpt>
<trkpt lat="53.467425" lon="05.899177"><ele>1.6</ele><time>2021-02-18T14:11:36Z</time><name>PT9422</name></trkpt>
<trkpt lat="53.467426" lon="05.899158"><ele>1.4</ele><time>2021-02-18T14:11:37Z</time><name>PT9423</name></trkpt>
<trkpt lat="53.467425" lon="05.899141"><ele>1.2</ele><time>2021-02-18T14:11:38Z</time><name>PT9424</name></trkpt>
<trkpt lat="53.467425" lon="05.899125"><ele>0.8</ele><time>2021-02-18T14:11:39Z</time><name>PT9425</name></trkpt>
<trkpt lat="53.467427" lon="05.899116"><ele>0.7</ele><time>2021-02-18T14:11:40Z</time><name>PT9426</name></trkpt>
<trkpt lat="53.467427" lon="05.899112"><ele>0.6</ele><time>2021-02-18T14:11:41Z</time><name>PT9427</name></trkpt>
<trkpt lat="53.467426" lon="05.899104"><ele>0.7</ele><time>2021-02-18T14:11:42Z</time><name>PT9428</name></trkpt>
<trkpt lat="53.467423" lon="05.899090"><ele>0.7</ele><time>2021-02-18T14:11:43Z</time><name>PT9429</name></trkpt>
<trkpt lat="53.467421" lon="05.899072"><ele>0.6</ele><time>2021-02-18T14:11:44Z</time><name>PT9430</name></trkpt>
<trkpt lat="53.467420" lon="05.899056"><ele>0.7</ele><time>2021-02-18T14:11:45Z</time><name>PT9431</name></trkpt>
<trkpt lat="53.467418" lon="05.899038"><ele>0.7</ele><time>2021-02-18T14:11:46Z</time><name>PT9432</name></trkpt>
<trkpt lat="53.467416" lon="05.899018"><ele>0.6</ele><time>2021-02-18T14:11:47Z</time><name>PT9433</name></trkpt>
<trkpt lat="53.467416" lon="05.898997"><ele>0.4</ele><time>2021-02-18T14:11:48Z</time><name>PT9434</name></trkpt>
<trkpt lat="53.467415" lon="05.898976"><ele>0.3</ele><time>2021-02-18T14:11:49Z</time><name>PT9435</name></trkpt>
<trkpt lat="53.467415" lon="05.898954"><ele>0.3</ele><time>2021-02-18T14:11:50Z</time><name>PT9436</name></trkpt>
<trkpt lat="53.467416" lon="05.898933"><ele>0.6</ele><time>2021-02-18T14:11:51Z</time><name>PT9437</name></trkpt>
<trkpt lat="53.467417" lon="05.898914"><ele>1.1</ele><time>2021-02-18T14:11:52Z</time><name>PT9438</name></trkpt>
<trkpt lat="53.467415" lon="05.898899"><ele>1.3</ele><time>2021-02-18T14:11:53Z</time><name>PT9439</name></trkpt>
<trkpt lat="53.467413" lon="05.898880"><ele>1.2</ele><time>2021-02-18T14:11:54Z</time><name>PT9440</name></trkpt>
<trkpt lat="53.467411" lon="05.898860"><ele>0.8</ele><time>2021-02-18T14:11:55Z</time><name>PT9441</name></trkpt>
<trkpt lat="53.467410" lon="05.898840"><ele>0.5</ele><time>2021-02-18T14:11:56Z</time><name>PT9442</name></trkpt>
<trkpt lat="53.467408" lon="05.898821"><ele>0.2</ele><time>2021-02-18T14:11:57Z</time><name>PT9443</name></trkpt>
<trkpt lat="53.467408" lon="05.898801"><ele>0.1</ele><time>2021-02-18T14:11:58Z</time><name>PT9444</name></trkpt>
<trkpt lat="53.467408" lon="05.898780"><ele>0.2</ele><time>2021-02-18T14:11:59Z</time><name>PT9445</name></trkpt>
<trkpt lat="53.467404" lon="05.898760"><ele>0.4</ele><time>2021-02-18T14:12:00Z</time><name>PT9446</name></trkpt>
<trkpt lat="53.467401" lon="05.898741"><ele>0.7</ele><time>2021-02-18T14:12:01Z</time><name>PT9447</name></trkpt>
<trkpt lat="53.467397" lon="05.898722"><ele>0.8</ele><time>2021-02-18T14:12:02Z</time><name>PT9448</name></trkpt>
<trkpt lat="53.467391" lon="05.898700"><ele>0.8</ele><time>2021-02-18T14:12:03Z</time><name>PT9449</name></trkpt>
<trkpt lat="53.467386" lon="05.898680"><ele>0.9</ele><time>2021-02-18T14:12:04Z</time><name>PT9450</name></trkpt>
<trkpt lat="53.467383" lon="05.898660"><ele>0.8</ele><time>2021-02-18T14:12:05Z</time><name>PT9451</name></trkpt>
<trkpt lat="53.467378" lon="05.898639"><ele>0.8</ele><time>2021-02-18T14:12:06Z</time><name>PT9452</name></trkpt>
<trkpt lat="53.467376" lon="05.898622"><ele>0.7</ele><time>2021-02-18T14:12:07Z</time><name>PT9453</name></trkpt>
<trkpt lat="53.467373" lon="05.898605"><ele>0.7</ele><time>2021-02-18T14:12:08Z</time><name>PT9454</name></trkpt>
<trkpt lat="53.467371" lon="05.898587"><ele>0.7</ele><time>2021-02-18T14:12:09Z</time><name>PT9455</name></trkpt>
<trkpt lat="53.467368" lon="05.898569"><ele>0.4</ele><time>2021-02-18T14:12:10Z</time><name>PT9456</name></trkpt>
<trkpt lat="53.467366" lon="05.898550"><ele>0.3</ele><time>2021-02-18T14:12:11Z</time><name>PT9457</name></trkpt>
<trkpt lat="53.467365" lon="05.898532"><ele>0.4</ele><time>2021-02-18T14:12:12Z</time><name>PT9458</name></trkpt>
<trkpt lat="53.467363" lon="05.898512"><ele>0.6</ele><time>2021-02-18T14:12:13Z</time><name>PT9459</name></trkpt>
<trkpt lat="53.467362" lon="05.898495"><ele>0.6</ele><time>2021-02-18T14:12:14Z</time><name>PT9460</name></trkpt>
<trkpt lat="53.467360" lon="05.898479"><ele>0.7</ele><time>2021-02-18T14:12:15Z</time><name>PT9461</name></trkpt>
<trkpt lat="53.467357" lon="05.898463"><ele>0.8</ele><time>2021-02-18T14:12:16Z</time><name>PT9462</name></trkpt>
<trkpt lat="53.467355" lon="05.898443"><ele>0.7</ele><time>2021-02-18T14:12:17Z</time><name>PT9463</name></trkpt>
<trkpt lat="53.467353" lon="05.898421"><ele>0.7</ele><time>2021-02-18T14:12:18Z</time><name>PT9464</name></trkpt>
<trkpt lat="53.467351" lon="05.898403"><ele>0.5</ele><time>2021-02-18T14:12:19Z</time><name>PT9465</name></trkpt>
<trkpt lat="53.467350" lon="05.898383"><ele>0.6</ele><time>2021-02-18T14:12:20Z</time><name>PT9466</name></trkpt>
<trkpt lat="53.467348" lon="05.898362"><ele>0.5</ele><time>2021-02-18T14:12:21Z</time><name>PT9467</name></trkpt>
<trkpt lat="53.467347" lon="05.898342"><ele>0.6</ele><time>2021-02-18T14:12:22Z</time><name>PT9468</name></trkpt>
<trkpt lat="53.467345" lon="05.898322"><ele>0.7</ele><time>2021-02-18T14:12:23Z</time><name>PT9469</name></trkpt>
<trkpt lat="53.467343" lon="05.898302"><ele>0.7</ele><time>2021-02-18T14:12:24Z</time><name>PT9470</name></trkpt>
<trkpt lat="53.467341" lon="05.898281"><ele>0.7</ele><time>2021-02-18T14:12:25Z</time><name>PT9471</name></trkpt>
<trkpt lat="53.467343" lon="05.898261"><ele>0.7</ele><time>2021-02-18T14:12:26Z</time><name>PT9472</name></trkpt>
<trkpt lat="53.467343" lon="05.898241"><ele>0.9</ele><time>2021-02-18T14:12:27Z</time><name>PT9473</name></trkpt>
<trkpt lat="53.467342" lon="05.898223"><ele>0.9</ele><time>2021-02-18T14:12:28Z</time><name>PT9474</name></trkpt>
<trkpt lat="53.467341" lon="05.898203"><ele>0.8</ele><time>2021-02-18T14:12:29Z</time><name>PT9475</name></trkpt>
<trkpt lat="53.467342" lon="05.898188"><ele>1</ele><time>2021-02-18T14:12:30Z</time><name>PT9476</name></trkpt>
<trkpt lat="53.467341" lon="05.898168"><ele>1</ele><time>2021-02-18T14:12:31Z</time><name>PT9477</name></trkpt>
<trkpt lat="53.467341" lon="05.898147"><ele>1.1</ele><time>2021-02-18T14:12:32Z</time><name>PT9478</name></trkpt>
<trkpt lat="53.467340" lon="05.898127"><ele>1.3</ele><time>2021-02-18T14:12:33Z</time><name>PT9479</name></trkpt>
<trkpt lat="53.467338" lon="05.898107"><ele>1.4</ele><time>2021-02-18T14:12:34Z</time><name>PT9480</name></trkpt>
<trkpt lat="53.467336" lon="05.898090"><ele>1.4</ele><time>2021-02-18T14:12:35Z</time><name>PT9481</name></trkpt>
<trkpt lat="53.467334" lon="05.898073"><ele>1.2</ele><time>2021-02-18T14:12:36Z</time><name>PT9482</name></trkpt>
<trkpt lat="53.467331" lon="05.898052"><ele>1.2</ele><time>2021-02-18T14:12:37Z</time><name>PT9483</name></trkpt>
<trkpt lat="53.467329" lon="05.898031"><ele>1.2</ele><time>2021-02-18T14:12:38Z</time><name>PT9484</name></trkpt>
<trkpt lat="53.467327" lon="05.898010"><ele>1.2</ele><time>2021-02-18T14:12:39Z</time><name>PT9485</name></trkpt>
<trkpt lat="53.467325" lon="05.897990"><ele>1.4</ele><time>2021-02-18T14:12:40Z</time><name>PT9486</name></trkpt>
<trkpt lat="53.467325" lon="05.897970"><ele>1.4</ele><time>2021-02-18T14:12:41Z</time><name>PT9487</name></trkpt>
<trkpt lat="53.467323" lon="05.897949"><ele>1.4</ele><time>2021-02-18T14:12:42Z</time><name>PT9488</name></trkpt>
<trkpt lat="53.467321" lon="05.897927"><ele>1.6</ele><time>2021-02-18T14:12:43Z</time><name>PT9489</name></trkpt>
<trkpt lat="53.467321" lon="05.897905"><ele>1.7</ele><time>2021-02-18T14:12:44Z</time><name>PT9490</name></trkpt>
<trkpt lat="53.467321" lon="05.897887"><ele>1.5</ele><time>2021-02-18T14:12:45Z</time><name>PT9491</name></trkpt>
<trkpt lat="53.467320" lon="05.897869"><ele>1.4</ele><time>2021-02-18T14:12:46Z</time><name>PT9492</name></trkpt>
<trkpt lat="53.467318" lon="05.897852"><ele>1.3</ele><time>2021-02-18T14:12:47Z</time><name>PT9493</name></trkpt>
<trkpt lat="53.467316" lon="05.897834"><ele>1.2</ele><time>2021-02-18T14:12:48Z</time><name>PT9494</name></trkpt>
<trkpt lat="53.467312" lon="05.897815"><ele>1</ele><time>2021-02-18T14:12:49Z</time><name>PT9495</name></trkpt>
<trkpt lat="53.467308" lon="05.897798"><ele>0.9</ele><time>2021-02-18T14:12:50Z</time><name>PT9496</name></trkpt>
<trkpt lat="53.467304" lon="05.897779"><ele>0.7</ele><time>2021-02-18T14:12:51Z</time><name>PT9497</name></trkpt>
<trkpt lat="53.467300" lon="05.897761"><ele>0.7</ele><time>2021-02-18T14:12:52Z</time><name>PT9498</name></trkpt>
<trkpt lat="53.467296" lon="05.897744"><ele>0.7</ele><time>2021-02-18T14:12:53Z</time><name>PT9499</name></trkpt>
<trkpt lat="53.467294" lon="05.897725"><ele>0.7</ele><time>2021-02-18T14:12:54Z</time><name>PT9500</name></trkpt>
<trkpt lat="53.467292" lon="05.897706"><ele>0.9</ele><time>2021-02-18T14:12:55Z</time><name>PT9501</name></trkpt>
<trkpt lat="53.467290" lon="05.897688"><ele>1.2</ele><time>2021-02-18T14:12:56Z</time><name>PT9502</name></trkpt>
<trkpt lat="53.467287" lon="05.897669"><ele>1.2</ele><time>2021-02-18T14:12:57Z</time><name>PT9503</name></trkpt>
<trkpt lat="53.467283" lon="05.897653"><ele>1.3</ele><time>2021-02-18T14:12:58Z</time><name>PT9504</name></trkpt>
<trkpt lat="53.467281" lon="05.897634"><ele>1.3</ele><time>2021-02-18T14:12:59Z</time><name>PT9505</name></trkpt>
<trkpt lat="53.467279" lon="05.897615"><ele>1.2</ele><time>2021-02-18T14:13:00Z</time><name>PT9506</name></trkpt>
<trkpt lat="53.467277" lon="05.897598"><ele>1.1</ele><time>2021-02-18T14:13:01Z</time><name>PT9507</name></trkpt>
<trkpt lat="53.467276" lon="05.897579"><ele>1</ele><time>2021-02-18T14:13:02Z</time><name>PT9508</name></trkpt>
<trkpt lat="53.467276" lon="05.897558"><ele>1.1</ele><time>2021-02-18T14:13:03Z</time><name>PT9509</name></trkpt>
<trkpt lat="53.467274" lon="05.897542"><ele>1.2</ele><time>2021-02-18T14:13:04Z</time><name>PT9510</name></trkpt>
<trkpt lat="53.467273" lon="05.897521"><ele>1.3</ele><time>2021-02-18T14:13:05Z</time><name>PT9511</name></trkpt>
<trkpt lat="53.467272" lon="05.897501"><ele>1.3</ele><time>2021-02-18T14:13:06Z</time><name>PT9512</name></trkpt>
<trkpt lat="53.467271" lon="05.897480"><ele>1.5</ele><time>2021-02-18T14:13:07Z</time><name>PT9513</name></trkpt>
<trkpt lat="53.467272" lon="05.897460"><ele>1.5</ele><time>2021-02-18T14:13:08Z</time><name>PT9514</name></trkpt>
<trkpt lat="53.467271" lon="05.897440"><ele>1.6</ele><time>2021-02-18T14:13:09Z</time><name>PT9515</name></trkpt>
<trkpt lat="53.467271" lon="05.897420"><ele>1.6</ele><time>2021-02-18T14:13:10Z</time><name>PT9516</name></trkpt>
<trkpt lat="53.467269" lon="05.897401"><ele>1.6</ele><time>2021-02-18T14:13:11Z</time><name>PT9517</name></trkpt>
<trkpt lat="53.467268" lon="05.897383"><ele>1.7</ele><time>2021-02-18T14:13:12Z</time><name>PT9518</name></trkpt>
<trkpt lat="53.467266" lon="05.897367"><ele>1.7</ele><time>2021-02-18T14:13:13Z</time><name>PT9519</name></trkpt>
<trkpt lat="53.467265" lon="05.897349"><ele>1.9</ele><time>2021-02-18T14:13:14Z</time><name>PT9520</name></trkpt>
<trkpt lat="53.467263" lon="05.897329"><ele>2</ele><time>2021-02-18T14:13:15Z</time><name>PT9521</name></trkpt>
<trkpt lat="53.467262" lon="05.897311"><ele>1.9</ele><time>2021-02-18T14:13:16Z</time><name>PT9522</name></trkpt>
<trkpt lat="53.467260" lon="05.897292"><ele>1.8</ele><time>2021-02-18T14:13:17Z</time><name>PT9523</name></trkpt>
<trkpt lat="53.467258" lon="05.897274"><ele>1.6</ele><time>2021-02-18T14:13:18Z</time><name>PT9524</name></trkpt>
<trkpt lat="53.467256" lon="05.897257"><ele>1.4</ele><time>2021-02-18T14:13:19Z</time><name>PT9525</name></trkpt>
<trkpt lat="53.467256" lon="05.897240"><ele>1.3</ele><time>2021-02-18T14:13:20Z</time><name>PT9526</name></trkpt>
<trkpt lat="53.467256" lon="05.897221"><ele>1.3</ele><time>2021-02-18T14:13:21Z</time><name>PT9527</name></trkpt>
<trkpt lat="53.467256" lon="05.897200"><ele>1.5</ele><time>2021-02-18T14:13:22Z</time><name>PT9528</name></trkpt>
<trkpt lat="53.467253" lon="05.897180"><ele>1.6</ele><time>2021-02-18T14:13:23Z</time><name>PT9529</name></trkpt>
<trkpt lat="53.467254" lon="05.897163"><ele>1.6</ele><time>2021-02-18T14:13:24Z</time><name>PT9530</name></trkpt>
<trkpt lat="53.467253" lon="05.897146"><ele>1.5</ele><time>2021-02-18T14:13:25Z</time><name>PT9531</name></trkpt>
<trkpt lat="53.467252" lon="05.897127"><ele>1.5</ele><time>2021-02-18T14:13:26Z</time><name>PT9532</name></trkpt>
<trkpt lat="53.467250" lon="05.897109"><ele>1.4</ele><time>2021-02-18T14:13:27Z</time><name>PT9533</name></trkpt>
<trkpt lat="53.467250" lon="05.897090"><ele>1.3</ele><time>2021-02-18T14:13:28Z</time><name>PT9534</name></trkpt>
<trkpt lat="53.467249" lon="05.897073"><ele>1.3</ele><time>2021-02-18T14:13:29Z</time><name>PT9535</name></trkpt>
<trkpt lat="53.467249" lon="05.897057"><ele>1.5</ele><time>2021-02-18T14:13:30Z</time><name>PT9536</name></trkpt>
<trkpt lat="53.467248" lon="05.897039"><ele>1.5</ele><time>2021-02-18T14:13:31Z</time><name>PT9537</name></trkpt>
<trkpt lat="53.467247" lon="05.897019"><ele>1.4</ele><time>2021-02-18T14:13:32Z</time><name>PT9538</name></trkpt>
<trkpt lat="53.467247" lon="05.896999"><ele>1.4</ele><time>2021-02-18T14:13:33Z</time><name>PT9539</name></trkpt>
<trkpt lat="53.467247" lon="05.896981"><ele>1.6</ele><time>2021-02-18T14:13:34Z</time><name>PT9540</name></trkpt>
<trkpt lat="53.467249" lon="05.896962"><ele>1.7</ele><time>2021-02-18T14:13:35Z</time><name>PT9541</name></trkpt>
<trkpt lat="53.467249" lon="05.896945"><ele>1.7</ele><time>2021-02-18T14:13:36Z</time><name>PT9542</name></trkpt>
<trkpt lat="53.467248" lon="05.896929"><ele>1.6</ele><time>2021-02-18T14:13:37Z</time><name>PT9543</name></trkpt>
<trkpt lat="53.467246" lon="05.896912"><ele>1.6</ele><time>2021-02-18T14:13:38Z</time><name>PT9544</name></trkpt>
<trkpt lat="53.467246" lon="05.896894"><ele>1.7</ele><time>2021-02-18T14:13:39Z</time><name>PT9545</name></trkpt>
<trkpt lat="53.467247" lon="05.896878"><ele>1.7</ele><time>2021-02-18T14:13:40Z</time><name>PT9546</name></trkpt>
<trkpt lat="53.467247" lon="05.896861"><ele>1.7</ele><time>2021-02-18T14:13:41Z</time><name>PT9547</name></trkpt>
<trkpt lat="53.467246" lon="05.896843"><ele>1.8</ele><time>2021-02-18T14:13:42Z</time><name>PT9548</name></trkpt>
<trkpt lat="53.467245" lon="05.896828"><ele>1.5</ele><time>2021-02-18T14:13:43Z</time><name>PT9549</name></trkpt>
<trkpt lat="53.467244" lon="05.896813"><ele>1.4</ele><time>2021-02-18T14:13:44Z</time><name>PT9550</name></trkpt>
<trkpt lat="53.467245" lon="05.896797"><ele>1.5</ele><time>2021-02-18T14:13:45Z</time><name>PT9551</name></trkpt>
<trkpt lat="53.467246" lon="05.896780"><ele>1.6</ele><time>2021-02-18T14:13:46Z</time><name>PT9552</name></trkpt>
<trkpt lat="53.467245" lon="05.896763"><ele>1.7</ele><time>2021-02-18T14:13:47Z</time><name>PT9553</name></trkpt>
<trkpt lat="53.467243" lon="05.896745"><ele>2.2</ele><time>2021-02-18T14:13:48Z</time><name>PT9554</name></trkpt>
<trkpt lat="53.467241" lon="05.896725"><ele>2.2</ele><time>2021-02-18T14:13:49Z</time><name>PT9555</name></trkpt>
<trkpt lat="53.467240" lon="05.896706"><ele>2.1</ele><time>2021-02-18T14:13:50Z</time><name>PT9556</name></trkpt>
<trkpt lat="53.467240" lon="05.896691"><ele>2</ele><time>2021-02-18T14:13:51Z</time><name>PT9557</name></trkpt>
<trkpt lat="53.467240" lon="05.896676"><ele>1.7</ele><time>2021-02-18T14:13:52Z</time><name>PT9558</name></trkpt>
<trkpt lat="53.467240" lon="05.896659"><ele>1.4</ele><time>2021-02-18T14:13:53Z</time><name>PT9559</name></trkpt>
<trkpt lat="53.467241" lon="05.896641"><ele>1.2</ele><time>2021-02-18T14:13:54Z</time><name>PT9560</name></trkpt>
<trkpt lat="53.467240" lon="05.896624"><ele>1.3</ele><time>2021-02-18T14:13:55Z</time><name>PT9561</name></trkpt>
<trkpt lat="53.467238" lon="05.896608"><ele>1.3</ele><time>2021-02-18T14:13:56Z</time><name>PT9562</name></trkpt>
<trkpt lat="53.467238" lon="05.896600"><ele>1.5</ele><time>2021-02-18T14:13:57Z</time><name>PT9563</name></trkpt>
<trkpt lat="53.467238" lon="05.896596"><ele>1.7</ele><time>2021-02-18T14:13:58Z</time><name>PT9564</name></trkpt>
<trkpt lat="53.467238" lon="05.896597"><ele>1.7</ele><time>2021-02-18T14:13:59Z</time><name>PT9565</name></trkpt>
<trkpt lat="53.467239" lon="05.896599"><ele>1.7</ele><time>2021-02-18T14:14:00Z</time><name>PT9566</name></trkpt>
<trkpt lat="53.467239" lon="05.896594"><ele>1.6</ele><time>2021-02-18T14:14:08Z</time><name>PT9567</name></trkpt>
<trkpt lat="53.467237" lon="05.896579"><ele>1.6</ele><time>2021-02-18T14:14:09Z</time><name>PT9568</name></trkpt>
<trkpt lat="53.467236" lon="05.896562"><ele>1.3</ele><time>2021-02-18T14:14:10Z</time><name>PT9569</name></trkpt>
<trkpt lat="53.467235" lon="05.896544"><ele>1.2</ele><time>2021-02-18T14:14:11Z</time><name>PT9570</name></trkpt>
<trkpt lat="53.467236" lon="05.896529"><ele>1</ele><time>2021-02-18T14:14:12Z</time><name>PT9571</name></trkpt>
<trkpt lat="53.467238" lon="05.896512"><ele>1.2</ele><time>2021-02-18T14:14:13Z</time><name>PT9572</name></trkpt>
<trkpt lat="53.467239" lon="05.896494"><ele>1.4</ele><time>2021-02-18T14:14:14Z</time><name>PT9573</name></trkpt>
<trkpt lat="53.467239" lon="05.896476"><ele>1.3</ele><time>2021-02-18T14:14:15Z</time><name>PT9574</name></trkpt>
<trkpt lat="53.467242" lon="05.896453"><ele>1.4</ele><time>2021-02-18T14:14:16Z</time><name>PT9575</name></trkpt>
<trkpt lat="53.467244" lon="05.896435"><ele>1.4</ele><time>2021-02-18T14:14:17Z</time><name>PT9576</name></trkpt>
<trkpt lat="53.467244" lon="05.896416"><ele>1.4</ele><time>2021-02-18T14:14:18Z</time><name>PT9577</name></trkpt>
<trkpt lat="53.467243" lon="05.896397"><ele>1.5</ele><time>2021-02-18T14:14:19Z</time><name>PT9578</name></trkpt>
<trkpt lat="53.467242" lon="05.896377"><ele>1.6</ele><time>2021-02-18T14:14:20Z</time><name>PT9579</name></trkpt>
<trkpt lat="53.467239" lon="05.896360"><ele>1.5</ele><time>2021-02-18T14:14:21Z</time><name>PT9580</name></trkpt>
<trkpt lat="53.467238" lon="05.896345"><ele>1.2</ele><time>2021-02-18T14:14:22Z</time><name>PT9581</name></trkpt>
<trkpt lat="53.467233" lon="05.896322"><ele>1.2</ele><time>2021-02-18T14:14:23Z</time><name>PT9582</name></trkpt>
<trkpt lat="53.467231" lon="05.896303"><ele>1</ele><time>2021-02-18T14:14:24Z</time><name>PT9583</name></trkpt>
<trkpt lat="53.467230" lon="05.896287"><ele>1.2</ele><time>2021-02-18T14:14:25Z</time><name>PT9584</name></trkpt>
<trkpt lat="53.467229" lon="05.896266"><ele>1.2</ele><time>2021-02-18T14:14:26Z</time><name>PT9585</name></trkpt>
<trkpt lat="53.467227" lon="05.896245"><ele>1.3</ele><time>2021-02-18T14:14:27Z</time><name>PT9586</name></trkpt>
<trkpt lat="53.467226" lon="05.896225"><ele>1.5</ele><time>2021-02-18T14:14:28Z</time><name>PT9587</name></trkpt>
<trkpt lat="53.467224" lon="05.896206"><ele>1.3</ele><time>2021-02-18T14:14:29Z</time><name>PT9588</name></trkpt>
<trkpt lat="53.467222" lon="05.896186"><ele>1.4</ele><time>2021-02-18T14:14:30Z</time><name>PT9589</name></trkpt>
<trkpt lat="53.467218" lon="05.896166"><ele>1.6</ele><time>2021-02-18T14:14:31Z</time><name>PT9590</name></trkpt>
<trkpt lat="53.467217" lon="05.896145"><ele>1.7</ele><time>2021-02-18T14:14:32Z</time><name>PT9591</name></trkpt>
<trkpt lat="53.467214" lon="05.896127"><ele>1.7</ele><time>2021-02-18T14:14:33Z</time><name>PT9592</name></trkpt>
<trkpt lat="53.467212" lon="05.896107"><ele>1.7</ele><time>2021-02-18T14:14:34Z</time><name>PT9593</name></trkpt>
<trkpt lat="53.467211" lon="05.896089"><ele>1.4</ele><time>2021-02-18T14:14:35Z</time><name>PT9594</name></trkpt>
<trkpt lat="53.467210" lon="05.896072"><ele>1.4</ele><time>2021-02-18T14:14:36Z</time><name>PT9595</name></trkpt>
<trkpt lat="53.467211" lon="05.896052"><ele>1.4</ele><time>2021-02-18T14:14:37Z</time><name>PT9596</name></trkpt>
<trkpt lat="53.467212" lon="05.896032"><ele>1.5</ele><time>2021-02-18T14:14:38Z</time><name>PT9597</name></trkpt>
<trkpt lat="53.467212" lon="05.896011"><ele>1.6</ele><time>2021-02-18T14:14:39Z</time><name>PT9598</name></trkpt>
<trkpt lat="53.467212" lon="05.895994"><ele>1.7</ele><time>2021-02-18T14:14:40Z</time><name>PT9599</name></trkpt>
<trkpt lat="53.467212" lon="05.895976"><ele>1.6</ele><time>2021-02-18T14:14:41Z</time><name>PT9600</name></trkpt>
<trkpt lat="53.467210" lon="05.895958"><ele>1.6</ele><time>2021-02-18T14:14:42Z</time><name>PT9601</name></trkpt>
<trkpt lat="53.467210" lon="05.895942"><ele>1.6</ele><time>2021-02-18T14:14:43Z</time><name>PT9602</name></trkpt>
<trkpt lat="53.467209" lon="05.895924"><ele>1.6</ele><time>2021-02-18T14:14:44Z</time><name>PT9603</name></trkpt>
<trkpt lat="53.467205" lon="05.895906"><ele>1.7</ele><time>2021-02-18T14:14:45Z</time><name>PT9604</name></trkpt>
<trkpt lat="53.467202" lon="05.895891"><ele>1.7</ele><time>2021-02-18T14:14:46Z</time><name>PT9605</name></trkpt>
<trkpt lat="53.467199" lon="05.895874"><ele>1.7</ele><time>2021-02-18T14:14:47Z</time><name>PT9606</name></trkpt>
<trkpt lat="53.467197" lon="05.895856"><ele>1.9</ele><time>2021-02-18T14:14:48Z</time><name>PT9607</name></trkpt>
<trkpt lat="53.467196" lon="05.895838"><ele>1.8</ele><time>2021-02-18T14:14:49Z</time><name>PT9608</name></trkpt>
<trkpt lat="53.467194" lon="05.895818"><ele>1.7</ele><time>2021-02-18T14:14:50Z</time><name>PT9609</name></trkpt>
<trkpt lat="53.467192" lon="05.895795"><ele>1.7</ele><time>2021-02-18T14:14:51Z</time><name>PT9610</name></trkpt>
<trkpt lat="53.467189" lon="05.895776"><ele>1.4</ele><time>2021-02-18T14:14:52Z</time><name>PT9611</name></trkpt>
<trkpt lat="53.467187" lon="05.895758"><ele>1.3</ele><time>2021-02-18T14:14:53Z</time><name>PT9612</name></trkpt>
<trkpt lat="53.467183" lon="05.895739"><ele>1.2</ele><time>2021-02-18T14:14:54Z</time><name>PT9613</name></trkpt>
<trkpt lat="53.467180" lon="05.895719"><ele>1.2</ele><time>2021-02-18T14:14:55Z</time><name>PT9614</name></trkpt>
<trkpt lat="53.467177" lon="05.895702"><ele>1.3</ele><time>2021-02-18T14:14:56Z</time><name>PT9615</name></trkpt>
<trkpt lat="53.467175" lon="05.895683"><ele>1.7</ele><time>2021-02-18T14:14:57Z</time><name>PT9616</name></trkpt>
<trkpt lat="53.467175" lon="05.895664"><ele>1.7</ele><time>2021-02-18T14:14:58Z</time><name>PT9617</name></trkpt>
<trkpt lat="53.467174" lon="05.895644"><ele>1.6</ele><time>2021-02-18T14:14:59Z</time><name>PT9618</name></trkpt>
<trkpt lat="53.467172" lon="05.895626"><ele>1.7</ele><time>2021-02-18T14:15:00Z</time><name>PT9619</name></trkpt>
<trkpt lat="53.467171" lon="05.895606"><ele>1.5</ele><time>2021-02-18T14:15:01Z</time><name>PT9620</name></trkpt>
<trkpt lat="53.467168" lon="05.895585"><ele>1.4</ele><time>2021-02-18T14:15:02Z</time><name>PT9621</name></trkpt>
<trkpt lat="53.467168" lon="05.895568"><ele>1.7</ele><time>2021-02-18T14:15:03Z</time><name>PT9622</name></trkpt>
<trkpt lat="53.467168" lon="05.895549"><ele>1.4</ele><time>2021-02-18T14:15:04Z</time><name>PT9623</name></trkpt>
<trkpt lat="53.467168" lon="05.895529"><ele>1.4</ele><time>2021-02-18T14:15:05Z</time><name>PT9624</name></trkpt>
<trkpt lat="53.467167" lon="05.895506"><ele>1.6</ele><time>2021-02-18T14:15:06Z</time><name>PT9625</name></trkpt>
<trkpt lat="53.467165" lon="05.895485"><ele>1.7</ele><time>2021-02-18T14:15:07Z</time><name>PT9626</name></trkpt>
<trkpt lat="53.467159" lon="05.895463"><ele>1.8</ele><time>2021-02-18T14:15:08Z</time><name>PT9627</name></trkpt>
<trkpt lat="53.467156" lon="05.895443"><ele>1.9</ele><time>2021-02-18T14:15:09Z</time><name>PT9628</name></trkpt>
<trkpt lat="53.467151" lon="05.895425"><ele>1.7</ele><time>2021-02-18T14:15:10Z</time><name>PT9629</name></trkpt>
<trkpt lat="53.467148" lon="05.895408"><ele>1.7</ele><time>2021-02-18T14:15:11Z</time><name>PT9630</name></trkpt>
<trkpt lat="53.467150" lon="05.895384"><ele>1.6</ele><time>2021-02-18T14:15:12Z</time><name>PT9631</name></trkpt>
<trkpt lat="53.467149" lon="05.895364"><ele>1.6</ele><time>2021-02-18T14:15:13Z</time><name>PT9632</name></trkpt>
<trkpt lat="53.467148" lon="05.895342"><ele>1.5</ele><time>2021-02-18T14:15:14Z</time><name>PT9633</name></trkpt>
<trkpt lat="53.467147" lon="05.895324"><ele>1.5</ele><time>2021-02-18T14:15:15Z</time><name>PT9634</name></trkpt>
<trkpt lat="53.467144" lon="05.895304"><ele>1.4</ele><time>2021-02-18T14:15:16Z</time><name>PT9635</name></trkpt>
<trkpt lat="53.467145" lon="05.895286"><ele>1.5</ele><time>2021-02-18T14:15:17Z</time><name>PT9636</name></trkpt>
<trkpt lat="53.467144" lon="05.895267"><ele>1.3</ele><time>2021-02-18T14:15:18Z</time><name>PT9637</name></trkpt>
<trkpt lat="53.467142" lon="05.895249"><ele>1.4</ele><time>2021-02-18T14:15:19Z</time><name>PT9638</name></trkpt>
<trkpt lat="53.467141" lon="05.895232"><ele>1.3</ele><time>2021-02-18T14:15:20Z</time><name>PT9639</name></trkpt>
<trkpt lat="53.467140" lon="05.895214"><ele>1.1</ele><time>2021-02-18T14:15:21Z</time><name>PT9640</name></trkpt>
<trkpt lat="53.467139" lon="05.895196"><ele>1.1</ele><time>2021-02-18T14:15:22Z</time><name>PT9641</name></trkpt>
<trkpt lat="53.467138" lon="05.895179"><ele>0.9</ele><time>2021-02-18T14:15:23Z</time><name>PT9642</name></trkpt>
<trkpt lat="53.467137" lon="05.895159"><ele>0.8</ele><time>2021-02-18T14:15:24Z</time><name>PT9643</name></trkpt>
<trkpt lat="53.467136" lon="05.895140"><ele>0.9</ele><time>2021-02-18T14:15:25Z</time><name>PT9644</name></trkpt>
<trkpt lat="53.467136" lon="05.895121"><ele>1</ele><time>2021-02-18T14:15:26Z</time><name>PT9645</name></trkpt>
<trkpt lat="53.467134" lon="05.895101"><ele>1.2</ele><time>2021-02-18T14:15:27Z</time><name>PT9646</name></trkpt>
<trkpt lat="53.467132" lon="05.895083"><ele>1.1</ele><time>2021-02-18T14:15:28Z</time><name>PT9647</name></trkpt>
<trkpt lat="53.467131" lon="05.895064"><ele>1.3</ele><time>2021-02-18T14:15:29Z</time><name>PT9648</name></trkpt>
<trkpt lat="53.467129" lon="05.895046"><ele>1.4</ele><time>2021-02-18T14:15:30Z</time><name>PT9649</name></trkpt>
<trkpt lat="53.467127" lon="05.895028"><ele>1.5</ele><time>2021-02-18T14:15:31Z</time><name>PT9650</name></trkpt>
<trkpt lat="53.467126" lon="05.895010"><ele>1.5</ele><time>2021-02-18T14:15:32Z</time><name>PT9651</name></trkpt>
<trkpt lat="53.467124" lon="05.894992"><ele>1.6</ele><time>2021-02-18T14:15:33Z</time><name>PT9652</name></trkpt>
<trkpt lat="53.467122" lon="05.894972"><ele>1.4</ele><time>2021-02-18T14:15:34Z</time><name>PT9653</name></trkpt>
<trkpt lat="53.467122" lon="05.894952"><ele>1.4</ele><time>2021-02-18T14:15:35Z</time><name>PT9654</name></trkpt>
<trkpt lat="53.467122" lon="05.894932"><ele>1.3</ele><time>2021-02-18T14:15:36Z</time><name>PT9655</name></trkpt>
<trkpt lat="53.467121" lon="05.894913"><ele>1.5</ele><time>2021-02-18T14:15:37Z</time><name>PT9656</name></trkpt>
<trkpt lat="53.467120" lon="05.894894"><ele>1.5</ele><time>2021-02-18T14:15:38Z</time><name>PT9657</name></trkpt>
<trkpt lat="53.467117" lon="05.894874"><ele>1.5</ele><time>2021-02-18T14:15:39Z</time><name>PT9658</name></trkpt>
<trkpt lat="53.467116" lon="05.894855"><ele>1.4</ele><time>2021-02-18T14:15:40Z</time><name>PT9659</name></trkpt>
<trkpt lat="53.467115" lon="05.894835"><ele>1.3</ele><time>2021-02-18T14:15:41Z</time><name>PT9660</name></trkpt>
<trkpt lat="53.467114" lon="05.894815"><ele>1.2</ele><time>2021-02-18T14:15:42Z</time><name>PT9661</name></trkpt>
<trkpt lat="53.467111" lon="05.894794"><ele>1.1</ele><time>2021-02-18T14:15:43Z</time><name>PT9662</name></trkpt>
<trkpt lat="53.467108" lon="05.894771"><ele>1</ele><time>2021-02-18T14:15:44Z</time><name>PT9663</name></trkpt>
<trkpt lat="53.467104" lon="05.894751"><ele>0.8</ele><time>2021-02-18T14:15:45Z</time><name>PT9664</name></trkpt>
<trkpt lat="53.467102" lon="05.894730"><ele>1</ele><time>2021-02-18T14:15:46Z</time><name>PT9665</name></trkpt>
<trkpt lat="53.467101" lon="05.894709"><ele>1.2</ele><time>2021-02-18T14:15:47Z</time><name>PT9666</name></trkpt>
<trkpt lat="53.467102" lon="05.894690"><ele>1.5</ele><time>2021-02-18T14:15:48Z</time><name>PT9667</name></trkpt>
<trkpt lat="53.467101" lon="05.894672"><ele>1.7</ele><time>2021-02-18T14:15:49Z</time><name>PT9668</name></trkpt>
<trkpt lat="53.467102" lon="05.894652"><ele>1.5</ele><time>2021-02-18T14:15:50Z</time><name>PT9669</name></trkpt>
<trkpt lat="53.467105" lon="05.894631"><ele>1.4</ele><time>2021-02-18T14:15:51Z</time><name>PT9670</name></trkpt>
<trkpt lat="53.467105" lon="05.894608"><ele>1.2</ele><time>2021-02-18T14:15:52Z</time><name>PT9671</name></trkpt>
<trkpt lat="53.467102" lon="05.894588"><ele>1</ele><time>2021-02-18T14:15:53Z</time><name>PT9672</name></trkpt>
<trkpt lat="53.467100" lon="05.894570"><ele>1</ele><time>2021-02-18T14:15:54Z</time><name>PT9673</name></trkpt>
<trkpt lat="53.467099" lon="05.894551"><ele>0.8</ele><time>2021-02-18T14:15:55Z</time><name>PT9674</name></trkpt>
<trkpt lat="53.467094" lon="05.894532"><ele>0.8</ele><time>2021-02-18T14:15:56Z</time><name>PT9675</name></trkpt>
<trkpt lat="53.467091" lon="05.894512"><ele>1.1</ele><time>2021-02-18T14:15:57Z</time><name>PT9676</name></trkpt>
<trkpt lat="53.467089" lon="05.894492"><ele>1.2</ele><time>2021-02-18T14:15:58Z</time><name>PT9677</name></trkpt>
<trkpt lat="53.467088" lon="05.894472"><ele>1.2</ele><time>2021-02-18T14:15:59Z</time><name>PT9678</name></trkpt>
<trkpt lat="53.467087" lon="05.894452"><ele>1.3</ele><time>2021-02-18T14:16:00Z</time><name>PT9679</name></trkpt>
<trkpt lat="53.467088" lon="05.894432"><ele>1.2</ele><time>2021-02-18T14:16:01Z</time><name>PT9680</name></trkpt>
<trkpt lat="53.467088" lon="05.894411"><ele>1.1</ele><time>2021-02-18T14:16:02Z</time><name>PT9681</name></trkpt>
<trkpt lat="53.467086" lon="05.894394"><ele>1.1</ele><time>2021-02-18T14:16:03Z</time><name>PT9682</name></trkpt>
<trkpt lat="53.467084" lon="05.894377"><ele>1</ele><time>2021-02-18T14:16:04Z</time><name>PT9683</name></trkpt>
<trkpt lat="53.467084" lon="05.894360"><ele>1</ele><time>2021-02-18T14:16:05Z</time><name>PT9684</name></trkpt>
<trkpt lat="53.467084" lon="05.894344"><ele>1</ele><time>2021-02-18T14:16:06Z</time><name>PT9685</name></trkpt>
<trkpt lat="53.467085" lon="05.894325"><ele>1.3</ele><time>2021-02-18T14:16:07Z</time><name>PT9686</name></trkpt>
<trkpt lat="53.467085" lon="05.894306"><ele>1.7</ele><time>2021-02-18T14:16:08Z</time><name>PT9687</name></trkpt>
<trkpt lat="53.467083" lon="05.894285"><ele>2.2</ele><time>2021-02-18T14:16:09Z</time><name>PT9688</name></trkpt>
<trkpt lat="53.467082" lon="05.894267"><ele>2.2</ele><time>2021-02-18T14:16:10Z</time><name>PT9689</name></trkpt>
<trkpt lat="53.467081" lon="05.894251"><ele>2</ele><time>2021-02-18T14:16:11Z</time><name>PT9690</name></trkpt>
<trkpt lat="53.467080" lon="05.894232"><ele>1.8</ele><time>2021-02-18T14:16:12Z</time><name>PT9691</name></trkpt>
<trkpt lat="53.467079" lon="05.894214"><ele>1.6</ele><time>2021-02-18T14:16:13Z</time><name>PT9692</name></trkpt>
<trkpt lat="53.467077" lon="05.894195"><ele>1.5</ele><time>2021-02-18T14:16:14Z</time><name>PT9693</name></trkpt>
<trkpt lat="53.467077" lon="05.894175"><ele>1.8</ele><time>2021-02-18T14:16:15Z</time><name>PT9694</name></trkpt>
<trkpt lat="53.467077" lon="05.894156"><ele>1.8</ele><time>2021-02-18T14:16:16Z</time><name>PT9695</name></trkpt>
<trkpt lat="53.467076" lon="05.894137"><ele>1.7</ele><time>2021-02-18T14:16:17Z</time><name>PT9696</name></trkpt>
<trkpt lat="53.467072" lon="05.894122"><ele>1.9</ele><time>2021-02-18T14:16:18Z</time><name>PT9697</name></trkpt>
<trkpt lat="53.467070" lon="05.894106"><ele>1.6</ele><time>2021-02-18T14:16:19Z</time><name>PT9698</name></trkpt>
<trkpt lat="53.467071" lon="05.894089"><ele>1.6</ele><time>2021-02-18T14:16:20Z</time><name>PT9699</name></trkpt>
<trkpt lat="53.467072" lon="05.894068"><ele>1.5</ele><time>2021-02-18T14:16:21Z</time><name>PT9700</name></trkpt>
<trkpt lat="53.467073" lon="05.894049"><ele>1.3</ele><time>2021-02-18T14:16:22Z</time><name>PT9701</name></trkpt>
<trkpt lat="53.467072" lon="05.894030"><ele>1.2</ele><time>2021-02-18T14:16:23Z</time><name>PT9702</name></trkpt>
<trkpt lat="53.467072" lon="05.894010"><ele>1.2</ele><time>2021-02-18T14:16:24Z</time><name>PT9703</name></trkpt>
<trkpt lat="53.467072" lon="05.893990"><ele>1.6</ele><time>2021-02-18T14:16:25Z</time><name>PT9704</name></trkpt>
<trkpt lat="53.467072" lon="05.893970"><ele>1.6</ele><time>2021-02-18T14:16:26Z</time><name>PT9705</name></trkpt>
<trkpt lat="53.467071" lon="05.893951"><ele>1.9</ele><time>2021-02-18T14:16:27Z</time><name>PT9706</name></trkpt>
<trkpt lat="53.467070" lon="05.893932"><ele>2.2</ele><time>2021-02-18T14:16:28Z</time><name>PT9707</name></trkpt>
<trkpt lat="53.467070" lon="05.893911"><ele>2.5</ele><time>2021-02-18T14:16:29Z</time><name>PT9708</name></trkpt>
<trkpt lat="53.467072" lon="05.893889"><ele>2.6</ele><time>2021-02-18T14:16:30Z</time><name>PT9709</name></trkpt>
<trkpt lat="53.467072" lon="05.893870"><ele>2.6</ele><time>2021-02-18T14:16:31Z</time><name>PT9710</name></trkpt>
<trkpt lat="53.467071" lon="05.893849"><ele>2.3</ele><time>2021-02-18T14:16:32Z</time><name>PT9711</name></trkpt>
<trkpt lat="53.467070" lon="05.893829"><ele>2.3</ele><time>2021-02-18T14:16:33Z</time><name>PT9712</name></trkpt>
<trkpt lat="53.467071" lon="05.893810"><ele>2.3</ele><time>2021-02-18T14:16:34Z</time><name>PT9713</name></trkpt>
<trkpt lat="53.467072" lon="05.893791"><ele>2.2</ele><time>2021-02-18T14:16:35Z</time><name>PT9714</name></trkpt>
<trkpt lat="53.467070" lon="05.893773"><ele>2</ele><time>2021-02-18T14:16:36Z</time><name>PT9715</name></trkpt>
<trkpt lat="53.467068" lon="05.893754"><ele>1.7</ele><time>2021-02-18T14:16:37Z</time><name>PT9716</name></trkpt>
<trkpt lat="53.467067" lon="05.893734"><ele>1.3</ele><time>2021-02-18T14:16:38Z</time><name>PT9717</name></trkpt>
<trkpt lat="53.467066" lon="05.893714"><ele>1.1</ele><time>2021-02-18T14:16:39Z</time><name>PT9718</name></trkpt>
<trkpt lat="53.467065" lon="05.893694"><ele>1.2</ele><time>2021-02-18T14:16:40Z</time><name>PT9719</name></trkpt>
<trkpt lat="53.467064" lon="05.893674"><ele>1.2</ele><time>2021-02-18T14:16:41Z</time><name>PT9720</name></trkpt>
<trkpt lat="53.467062" lon="05.893653"><ele>1.6</ele><time>2021-02-18T14:16:42Z</time><name>PT9721</name></trkpt>
<trkpt lat="53.467063" lon="05.893632"><ele>1.7</ele><time>2021-02-18T14:16:43Z</time><name>PT9722</name></trkpt>
<trkpt lat="53.467065" lon="05.893611"><ele>1.8</ele><time>2021-02-18T14:16:44Z</time><name>PT9723</name></trkpt>
<trkpt lat="53.467065" lon="05.893593"><ele>2</ele><time>2021-02-18T14:16:45Z</time><name>PT9724</name></trkpt>
<trkpt lat="53.467066" lon="05.893573"><ele>1.8</ele><time>2021-02-18T14:16:46Z</time><name>PT9725</name></trkpt>
<trkpt lat="53.467063" lon="05.893553"><ele>1.7</ele><time>2021-02-18T14:16:47Z</time><name>PT9726</name></trkpt>
<trkpt lat="53.467059" lon="05.893532"><ele>1.6</ele><time>2021-02-18T14:16:48Z</time><name>PT9727</name></trkpt>
<trkpt lat="53.467056" lon="05.893511"><ele>1.7</ele><time>2021-02-18T14:16:49Z</time><name>PT9728</name></trkpt>
<trkpt lat="53.467053" lon="05.893489"><ele>1.7</ele><time>2021-02-18T14:16:50Z</time><name>PT9729</name></trkpt>
<trkpt lat="53.467051" lon="05.893469"><ele>1.7</ele><time>2021-02-18T14:16:51Z</time><name>PT9730</name></trkpt>
<trkpt lat="53.467049" lon="05.893449"><ele>1.8</ele><time>2021-02-18T14:16:52Z</time><name>PT9731</name></trkpt>
<trkpt lat="53.467048" lon="05.893430"><ele>1.9</ele><time>2021-02-18T14:16:53Z</time><name>PT9732</name></trkpt>
<trkpt lat="53.467047" lon="05.893412"><ele>2</ele><time>2021-02-18T14:16:54Z</time><name>PT9733</name></trkpt>
<trkpt lat="53.467046" lon="05.893392"><ele>2.3</ele><time>2021-02-18T14:16:55Z</time><name>PT9734</name></trkpt>
<trkpt lat="53.467046" lon="05.893375"><ele>2.3</ele><time>2021-02-18T14:16:56Z</time><name>PT9735</name></trkpt>
<trkpt lat="53.467045" lon="05.893359"><ele>2.3</ele><time>2021-02-18T14:16:57Z</time><name>PT9736</name></trkpt>
<trkpt lat="53.467042" lon="05.893343"><ele>2.2</ele><time>2021-02-18T14:16:59Z</time><name>PT9737</name></trkpt>
<trkpt lat="53.467042" lon="05.893324"><ele>2.1</ele><time>2021-02-18T14:16:59Z</time><name>PT9738</name></trkpt>
<trkpt lat="53.467043" lon="05.893306"><ele>2</ele><time>2021-02-18T14:17:00Z</time><name>PT9739</name></trkpt>
<trkpt lat="53.467043" lon="05.893289"><ele>2.1</ele><time>2021-02-18T14:17:01Z</time><name>PT9740</name></trkpt>
<trkpt lat="53.467043" lon="05.893269"><ele>2.2</ele><time>2021-02-18T14:17:02Z</time><name>PT9741</name></trkpt>
<trkpt lat="53.467045" lon="05.893248"><ele>2.2</ele><time>2021-02-18T14:17:03Z</time><name>PT9742</name></trkpt>
<trkpt lat="53.467049" lon="05.893228"><ele>2.4</ele><time>2021-02-18T14:17:04Z</time><name>PT9743</name></trkpt>
<trkpt lat="53.467051" lon="05.893209"><ele>2.3</ele><time>2021-02-18T14:17:05Z</time><name>PT9744</name></trkpt>
<trkpt lat="53.467050" lon="05.893189"><ele>2.2</ele><time>2021-02-18T14:17:06Z</time><name>PT9745</name></trkpt>
<trkpt lat="53.467047" lon="05.893170"><ele>1.8</ele><time>2021-02-18T14:17:07Z</time><name>PT9746</name></trkpt>
<trkpt lat="53.467045" lon="05.893152"><ele>1.9</ele><time>2021-02-18T14:17:08Z</time><name>PT9747</name></trkpt>
<trkpt lat="53.467043" lon="05.893134"><ele>1.7</ele><time>2021-02-18T14:17:09Z</time><name>PT9748</name></trkpt>
<trkpt lat="53.467042" lon="05.893115"><ele>1.7</ele><time>2021-02-18T14:17:10Z</time><name>PT9749</name></trkpt>
<trkpt lat="53.467042" lon="05.893096"><ele>1.7</ele><time>2021-02-18T14:17:11Z</time><name>PT9750</name></trkpt>
<trkpt lat="53.467042" lon="05.893078"><ele>1.6</ele><time>2021-02-18T14:17:12Z</time><name>PT9751</name></trkpt>
<trkpt lat="53.467043" lon="05.893059"><ele>1.7</ele><time>2021-02-18T14:17:13Z</time><name>PT9752</name></trkpt>
<trkpt lat="53.467043" lon="05.893041"><ele>1.7</ele><time>2021-02-18T14:17:14Z</time><name>PT9753</name></trkpt>
<trkpt lat="53.467046" lon="05.893019"><ele>2.2</ele><time>2021-02-18T14:17:15Z</time><name>PT9754</name></trkpt>
<trkpt lat="53.467048" lon="05.892997"><ele>2.5</ele><time>2021-02-18T14:17:16Z</time><name>PT9755</name></trkpt>
<trkpt lat="53.467050" lon="05.892977"><ele>2.5</ele><time>2021-02-18T14:17:17Z</time><name>PT9756</name></trkpt>
<trkpt lat="53.467052" lon="05.892959"><ele>2.4</ele><time>2021-02-18T14:17:18Z</time><name>PT9757</name></trkpt>
<trkpt lat="53.467054" lon="05.892940"><ele>2.4</ele><time>2021-02-18T14:17:19Z</time><name>PT9758</name></trkpt>
<trkpt lat="53.467053" lon="05.892921"><ele>2.3</ele><time>2021-02-18T14:17:20Z</time><name>PT9759</name></trkpt>
<trkpt lat="53.467051" lon="05.892902"><ele>2.2</ele><time>2021-02-18T14:17:21Z</time><name>PT9760</name></trkpt>
<trkpt lat="53.467050" lon="05.892882"><ele>2.4</ele><time>2021-02-18T14:17:22Z</time><name>PT9761</name></trkpt>
<trkpt lat="53.467052" lon="05.892863"><ele>2.4</ele><time>2021-02-18T14:17:23Z</time><name>PT9762</name></trkpt>
<trkpt lat="53.467052" lon="05.892845"><ele>2.2</ele><time>2021-02-18T14:17:24Z</time><name>PT9763</name></trkpt>
<trkpt lat="53.467052" lon="05.892826"><ele>2.2</ele><time>2021-02-18T14:17:25Z</time><name>PT9764</name></trkpt>
<trkpt lat="53.467053" lon="05.892806"><ele>2</ele><time>2021-02-18T14:17:26Z</time><name>PT9765</name></trkpt>
<trkpt lat="53.467053" lon="05.892785"><ele>1.6</ele><time>2021-02-18T14:17:27Z</time><name>PT9766</name></trkpt>
<trkpt lat="53.467054" lon="05.892764"><ele>1.5</ele><time>2021-02-18T14:17:28Z</time><name>PT9767</name></trkpt>
<trkpt lat="53.467054" lon="05.892746"><ele>1.6</ele><time>2021-02-18T14:17:29Z</time><name>PT9768</name></trkpt>
<trkpt lat="53.467053" lon="05.892726"><ele>1.8</ele><time>2021-02-18T14:17:30Z</time><name>PT9769</name></trkpt>
<trkpt lat="53.467053" lon="05.892707"><ele>1.9</ele><time>2021-02-18T14:17:31Z</time><name>PT9770</name></trkpt>
<trkpt lat="53.467053" lon="05.892687"><ele>2</ele><time>2021-02-18T14:17:32Z</time><name>PT9771</name></trkpt>
<trkpt lat="53.467052" lon="05.892668"><ele>2.1</ele><time>2021-02-18T14:17:33Z</time><name>PT9772</name></trkpt>
<trkpt lat="53.467050" lon="05.892650"><ele>2</ele><time>2021-02-18T14:17:34Z</time><name>PT9773</name></trkpt>
<trkpt lat="53.467049" lon="05.892631"><ele>2.1</ele><time>2021-02-18T14:17:35Z</time><name>PT9774</name></trkpt>
<trkpt lat="53.467049" lon="05.892614"><ele>1.9</ele><time>2021-02-18T14:17:36Z</time><name>PT9775</name></trkpt>
<trkpt lat="53.467050" lon="05.892597"><ele>2</ele><time>2021-02-18T14:17:37Z</time><name>PT9776</name></trkpt>
<trkpt lat="53.467052" lon="05.892577"><ele>1.9</ele><time>2021-02-18T14:17:38Z</time><name>PT9777</name></trkpt>
<trkpt lat="53.467053" lon="05.892555"><ele>1.8</ele><time>2021-02-18T14:17:39Z</time><name>PT9778</name></trkpt>
<trkpt lat="53.467054" lon="05.892536"><ele>2</ele><time>2021-02-18T14:17:40Z</time><name>PT9779</name></trkpt>
<trkpt lat="53.467057" lon="05.892516"><ele>2.1</ele><time>2021-02-18T14:17:41Z</time><name>PT9780</name></trkpt>
<trkpt lat="53.467058" lon="05.892497"><ele>2</ele><time>2021-02-18T14:17:42Z</time><name>PT9781</name></trkpt>
<trkpt lat="53.467057" lon="05.892479"><ele>2</ele><time>2021-02-18T14:17:43Z</time><name>PT9782</name></trkpt>
<trkpt lat="53.467054" lon="05.892462"><ele>1.8</ele><time>2021-02-18T14:17:44Z</time><name>PT9783</name></trkpt>
<trkpt lat="53.467053" lon="05.892446"><ele>1.8</ele><time>2021-02-18T14:17:45Z</time><name>PT9784</name></trkpt>
<trkpt lat="53.467051" lon="05.892428"><ele>2</ele><time>2021-02-18T14:17:46Z</time><name>PT9785</name></trkpt>
<trkpt lat="53.467049" lon="05.892412"><ele>2.1</ele><time>2021-02-18T14:17:47Z</time><name>PT9786</name></trkpt>
<trkpt lat="53.467049" lon="05.892395"><ele>2.5</ele><time>2021-02-18T14:17:48Z</time><name>PT9787</name></trkpt>
<trkpt lat="53.467052" lon="05.892375"><ele>2.7</ele><time>2021-02-18T14:17:49Z</time><name>PT9788</name></trkpt>
<trkpt lat="53.467055" lon="05.892354"><ele>2.7</ele><time>2021-02-18T14:17:50Z</time><name>PT9789</name></trkpt>
<trkpt lat="53.467056" lon="05.892333"><ele>2.8</ele><time>2021-02-18T14:17:51Z</time><name>PT9790</name></trkpt>
<trkpt lat="53.467056" lon="05.892313"><ele>2.8</ele><time>2021-02-18T14:17:52Z</time><name>PT9791</name></trkpt>
<trkpt lat="53.467056" lon="05.892293"><ele>2.7</ele><time>2021-02-18T14:17:53Z</time><name>PT9792</name></trkpt>
<trkpt lat="53.467053" lon="05.892275"><ele>2.8</ele><time>2021-02-18T14:17:54Z</time><name>PT9793</name></trkpt>
<trkpt lat="53.467052" lon="05.892256"><ele>2.8</ele><time>2021-02-18T14:17:55Z</time><name>PT9794</name></trkpt>
<trkpt lat="53.467051" lon="05.892236"><ele>2.9</ele><time>2021-02-18T14:17:56Z</time><name>PT9795</name></trkpt>
<trkpt lat="53.467050" lon="05.892215"><ele>3.2</ele><time>2021-02-18T14:17:57Z</time><name>PT9796</name></trkpt>
<trkpt lat="53.467049" lon="05.892193"><ele>3.2</ele><time>2021-02-18T14:17:58Z</time><name>PT9797</name></trkpt>
<trkpt lat="53.467048" lon="05.892173"><ele>2.9</ele><time>2021-02-18T14:17:59Z</time><name>PT9798</name></trkpt>
<trkpt lat="53.467046" lon="05.892157"><ele>2.5</ele><time>2021-02-18T14:18:00Z</time><name>PT9799</name></trkpt>
<trkpt lat="53.467046" lon="05.892140"><ele>1.8</ele><time>2021-02-18T14:18:01Z</time><name>PT9800</name></trkpt>
<trkpt lat="53.467047" lon="05.892121"><ele>1.7</ele><time>2021-02-18T14:18:02Z</time><name>PT9801</name></trkpt>
<trkpt lat="53.467049" lon="05.892103"><ele>1.7</ele><time>2021-02-18T14:18:03Z</time><name>PT9802</name></trkpt>
<trkpt lat="53.467050" lon="05.892083"><ele>1.8</ele><time>2021-02-18T14:18:04Z</time><name>PT9803</name></trkpt>
<trkpt lat="53.467051" lon="05.892061"><ele>1.9</ele><time>2021-02-18T14:18:05Z</time><name>PT9804</name></trkpt>
<trkpt lat="53.467051" lon="05.892040"><ele>2</ele><time>2021-02-18T14:18:06Z</time><name>PT9805</name></trkpt>
<trkpt lat="53.467049" lon="05.892021"><ele>1.7</ele><time>2021-02-18T14:18:07Z</time><name>PT9806</name></trkpt>
<trkpt lat="53.467047" lon="05.892004"><ele>1.8</ele><time>2021-02-18T14:18:08Z</time><name>PT9807</name></trkpt>
<trkpt lat="53.467044" lon="05.891983"><ele>2</ele><time>2021-02-18T14:18:09Z</time><name>PT9808</name></trkpt>
<trkpt lat="53.467044" lon="05.891963"><ele>1.9</ele><time>2021-02-18T14:18:10Z</time><name>PT9809</name></trkpt>
<trkpt lat="53.467042" lon="05.891942"><ele>2</ele><time>2021-02-18T14:18:11Z</time><name>PT9810</name></trkpt>
<trkpt lat="53.467041" lon="05.891923"><ele>2.1</ele><time>2021-02-18T14:18:12Z</time><name>PT9811</name></trkpt>
<trkpt lat="53.467040" lon="05.891903"><ele>1.8</ele><time>2021-02-18T14:18:13Z</time><name>PT9812</name></trkpt>
<trkpt lat="53.467040" lon="05.891884"><ele>1.9</ele><time>2021-02-18T14:18:14Z</time><name>PT9813</name></trkpt>
<trkpt lat="53.467040" lon="05.891865"><ele>1.8</ele><time>2021-02-18T14:18:15Z</time><name>PT9814</name></trkpt>
<trkpt lat="53.467039" lon="05.891845"><ele>1.9</ele><time>2021-02-18T14:18:16Z</time><name>PT9815</name></trkpt>
<trkpt lat="53.467039" lon="05.891827"><ele>2.1</ele><time>2021-02-18T14:18:17Z</time><name>PT9816</name></trkpt>
<trkpt lat="53.467038" lon="05.891809"><ele>2.2</ele><time>2021-02-18T14:18:18Z</time><name>PT9817</name></trkpt>
<trkpt lat="53.467038" lon="05.891791"><ele>2.4</ele><time>2021-02-18T14:18:19Z</time><name>PT9818</name></trkpt>
<trkpt lat="53.467038" lon="05.891772"><ele>2.4</ele><time>2021-02-18T14:18:20Z</time><name>PT9819</name></trkpt>
<trkpt lat="53.467040" lon="05.891750"><ele>2.2</ele><time>2021-02-18T14:18:21Z</time><name>PT9820</name></trkpt>
<trkpt lat="53.467040" lon="05.891730"><ele>2.2</ele><time>2021-02-18T14:18:22Z</time><name>PT9821</name></trkpt>
<trkpt lat="53.467041" lon="05.891710"><ele>2.1</ele><time>2021-02-18T14:18:23Z</time><name>PT9822</name></trkpt>
<trkpt lat="53.467040" lon="05.891689"><ele>1.9</ele><time>2021-02-18T14:18:24Z</time><name>PT9823</name></trkpt>
<trkpt lat="53.467041" lon="05.891668"><ele>2</ele><time>2021-02-18T14:18:25Z</time><name>PT9824</name></trkpt>
<trkpt lat="53.467040" lon="05.891648"><ele>1.8</ele><time>2021-02-18T14:18:26Z</time><name>PT9825</name></trkpt>
<trkpt lat="53.467038" lon="05.891631"><ele>2</ele><time>2021-02-18T14:18:27Z</time><name>PT9826</name></trkpt>
<trkpt lat="53.467038" lon="05.891613"><ele>2.1</ele><time>2021-02-18T14:18:28Z</time><name>PT9827</name></trkpt>
<trkpt lat="53.467037" lon="05.891599"><ele>2.1</ele><time>2021-02-18T14:18:29Z</time><name>PT9828</name></trkpt>
<trkpt lat="53.467036" lon="05.891586"><ele>2.1</ele><time>2021-02-18T14:18:30Z</time><name>PT9829</name></trkpt>
<trkpt lat="53.467035" lon="05.891575"><ele>1.8</ele><time>2021-02-18T14:18:31Z</time><name>PT9830</name></trkpt>
<trkpt lat="53.467034" lon="05.891564"><ele>1.7</ele><time>2021-02-18T14:18:32Z</time><name>PT9831</name></trkpt>
<trkpt lat="53.467034" lon="05.891562"><ele>1.5</ele><time>2021-02-18T14:18:33Z</time><name>PT9832</name></trkpt>
<trkpt lat="53.467034" lon="05.891563"><ele>1.7</ele><time>2021-02-18T14:18:34Z</time><name>PT9833</name></trkpt>
<trkpt lat="53.467035" lon="05.891563"><ele>1.7</ele><time>2021-02-18T14:18:35Z</time><name>PT9834</name></trkpt>
<trkpt lat="53.467034" lon="05.891567"><ele>2.9</ele><time>2021-02-18T14:19:00Z</time><name>PT9835</name></trkpt>
<trkpt lat="53.467032" lon="05.891549"><ele>2.7</ele><time>2021-02-18T14:19:01Z</time><name>PT9836</name></trkpt>
<trkpt lat="53.467031" lon="05.891530"><ele>2.5</ele><time>2021-02-18T14:19:02Z</time><name>PT9837</name></trkpt>
<trkpt lat="53.467028" lon="05.891511"><ele>2.4</ele><time>2021-02-18T14:19:03Z</time><name>PT9838</name></trkpt>
<trkpt lat="53.467025" lon="05.891493"><ele>2.3</ele><time>2021-02-18T14:19:04Z</time><name>PT9839</name></trkpt>
<trkpt lat="53.467027" lon="05.891477"><ele>2.2</ele><time>2021-02-18T14:19:05Z</time><name>PT9840</name></trkpt>
<trkpt lat="53.467028" lon="05.891459"><ele>2.4</ele><time>2021-02-18T14:19:06Z</time><name>PT9841</name></trkpt>
<trkpt lat="53.467030" lon="05.891439"><ele>2.5</ele><time>2021-02-18T14:19:07Z</time><name>PT9842</name></trkpt>
<trkpt lat="53.467031" lon="05.891420"><ele>2.4</ele><time>2021-02-18T14:19:08Z</time><name>PT9843</name></trkpt>
<trkpt lat="53.467032" lon="05.891400"><ele>2.3</ele><time>2021-02-18T14:19:09Z</time><name>PT9844</name></trkpt>
<trkpt lat="53.467032" lon="05.891380"><ele>2.4</ele><time>2021-02-18T14:19:10Z</time><name>PT9845</name></trkpt>
<trkpt lat="53.467029" lon="05.891360"><ele>2.2</ele><time>2021-02-18T14:19:11Z</time><name>PT9846</name></trkpt>
<trkpt lat="53.467023" lon="05.891342"><ele>2.3</ele><time>2021-02-18T14:19:12Z</time><name>PT9847</name></trkpt>
<trkpt lat="53.467019" lon="05.891326"><ele>2.5</ele><time>2021-02-18T14:19:13Z</time><name>PT9848</name></trkpt>
<trkpt lat="53.467016" lon="05.891309"><ele>2.5</ele><time>2021-02-18T14:19:14Z</time><name>PT9849</name></trkpt>
<trkpt lat="53.467016" lon="05.891291"><ele>2.3</ele><time>2021-02-18T14:19:15Z</time><name>PT9850</name></trkpt>
<trkpt lat="53.467016" lon="05.891272"><ele>2</ele><time>2021-02-18T14:19:16Z</time><name>PT9851</name></trkpt>
<trkpt lat="53.467016" lon="05.891253"><ele>1.7</ele><time>2021-02-18T14:19:17Z</time><name>PT9852</name></trkpt>
<trkpt lat="53.467016" lon="05.891232"><ele>1.7</ele><time>2021-02-18T14:19:18Z</time><name>PT9853</name></trkpt>
<trkpt lat="53.467015" lon="05.891213"><ele>1.7</ele><time>2021-02-18T14:19:19Z</time><name>PT9854</name></trkpt>
<trkpt lat="53.467013" lon="05.891194"><ele>1.6</ele><time>2021-02-18T14:19:20Z</time><name>PT9855</name></trkpt>
<trkpt lat="53.467012" lon="05.891175"><ele>1.8</ele><time>2021-02-18T14:19:21Z</time><name>PT9856</name></trkpt>
<trkpt lat="53.467012" lon="05.891156"><ele>1.9</ele><time>2021-02-18T14:19:22Z</time><name>PT9857</name></trkpt>
<trkpt lat="53.467011" lon="05.891140"><ele>2</ele><time>2021-02-18T14:19:23Z</time><name>PT9858</name></trkpt>
<trkpt lat="53.467011" lon="05.891132"><ele>2.2</ele><time>2021-02-18T14:19:24Z</time><name>PT9859</name></trkpt>
<trkpt lat="53.467012" lon="05.891130"><ele>2.2</ele><time>2021-02-18T14:19:25Z</time><name>PT9860</name></trkpt>
<trkpt lat="53.467012" lon="05.891130"><ele>2.2</ele><time>2021-02-18T14:19:26Z</time><name>PT9861</name></trkpt>
<trkpt lat="53.467012" lon="05.891130"><ele>2</ele><time>2021-02-18T14:19:27Z</time><name>PT9862</name></trkpt>
<trkpt lat="53.467011" lon="05.891122"><ele>2.9</ele><time>2021-02-18T14:19:35Z</time><name>PT9863</name></trkpt>
<trkpt lat="53.467010" lon="05.891105"><ele>2.7</ele><time>2021-02-18T14:19:36Z</time><name>PT9864</name></trkpt>
<trkpt lat="53.467008" lon="05.891085"><ele>2.5</ele><time>2021-02-18T14:19:37Z</time><name>PT9865</name></trkpt>
<trkpt lat="53.467008" lon="05.891063"><ele>2.2</ele><time>2021-02-18T14:19:38Z</time><name>PT9866</name></trkpt>
<trkpt lat="53.467007" lon="05.891042"><ele>2.2</ele><time>2021-02-18T14:19:39Z</time><name>PT9867</name></trkpt>
<trkpt lat="53.467005" lon="05.891024"><ele>2.2</ele><time>2021-02-18T14:19:40Z</time><name>PT9868</name></trkpt>
<trkpt lat="53.467002" lon="05.891007"><ele>2.2</ele><time>2021-02-18T14:19:41Z</time><name>PT9869</name></trkpt>
<trkpt lat="53.467002" lon="05.890986"><ele>2.3</ele><time>2021-02-18T14:19:42Z</time><name>PT9870</name></trkpt>
<trkpt lat="53.467002" lon="05.890965"><ele>2.5</ele><time>2021-02-18T14:19:43Z</time><name>PT9871</name></trkpt>
<trkpt lat="53.466998" lon="05.890945"><ele>2.3</ele><time>2021-02-18T14:19:44Z</time><name>PT9872</name></trkpt>
<trkpt lat="53.466996" lon="05.890924"><ele>2.2</ele><time>2021-02-18T14:19:45Z</time><name>PT9873</name></trkpt>
<trkpt lat="53.466995" lon="05.890902"><ele>2.2</ele><time>2021-02-18T14:19:46Z</time><name>PT9874</name></trkpt>
<trkpt lat="53.466996" lon="05.890882"><ele>2.3</ele><time>2021-02-18T14:19:47Z</time><name>PT9875</name></trkpt>
<trkpt lat="53.466994" lon="05.890860"><ele>2.3</ele><time>2021-02-18T14:19:48Z</time><name>PT9876</name></trkpt>
<trkpt lat="53.466992" lon="05.890839"><ele>2.3</ele><time>2021-02-18T14:19:49Z</time><name>PT9877</name></trkpt>
<trkpt lat="53.466991" lon="05.890817"><ele>2.5</ele><time>2021-02-18T14:19:50Z</time><name>PT9878</name></trkpt>
<trkpt lat="53.466991" lon="05.890798"><ele>2.4</ele><time>2021-02-18T14:19:51Z</time><name>PT9879</name></trkpt>
<trkpt lat="53.466991" lon="05.890778"><ele>2.5</ele><time>2021-02-18T14:19:52Z</time><name>PT9880</name></trkpt>
<trkpt lat="53.466990" lon="05.890757"><ele>2.6</ele><time>2021-02-18T14:19:53Z</time><name>PT9881</name></trkpt>
<trkpt lat="53.466987" lon="05.890738"><ele>2.7</ele><time>2021-02-18T14:19:54Z</time><name>PT9882</name></trkpt>
<trkpt lat="53.466983" lon="05.890719"><ele>2.6</ele><time>2021-02-18T14:19:55Z</time><name>PT9883</name></trkpt>
<trkpt lat="53.466978" lon="05.890701"><ele>2.5</ele><time>2021-02-18T14:19:56Z</time><name>PT9884</name></trkpt>
<trkpt lat="53.466977" lon="05.890685"><ele>2.4</ele><time>2021-02-18T14:19:57Z</time><name>PT9885</name></trkpt>
<trkpt lat="53.466976" lon="05.890668"><ele>2.4</ele><time>2021-02-18T14:19:58Z</time><name>PT9886</name></trkpt>
<trkpt lat="53.466975" lon="05.890650"><ele>2.3</ele><time>2021-02-18T14:19:59Z</time><name>PT9887</name></trkpt>
<trkpt lat="53.466975" lon="05.890630"><ele>2.2</ele><time>2021-02-18T14:20:00Z</time><name>PT9888</name></trkpt>
<trkpt lat="53.466977" lon="05.890610"><ele>2.1</ele><time>2021-02-18T14:20:01Z</time><name>PT9889</name></trkpt>
<trkpt lat="53.466979" lon="05.890588"><ele>2</ele><time>2021-02-18T14:20:02Z</time><name>PT9890</name></trkpt>
<trkpt lat="53.466978" lon="05.890567"><ele>1.9</ele><time>2021-02-18T14:20:03Z</time><name>PT9891</name></trkpt>
<trkpt lat="53.466976" lon="05.890548"><ele>1.9</ele><time>2021-02-18T14:20:04Z</time><name>PT9892</name></trkpt>
<trkpt lat="53.466974" lon="05.890531"><ele>2</ele><time>2021-02-18T14:20:05Z</time><name>PT9893</name></trkpt>
<trkpt lat="53.466970" lon="05.890511"><ele>2.1</ele><time>2021-02-18T14:20:06Z</time><name>PT9894</name></trkpt>
<trkpt lat="53.466966" lon="05.890493"><ele>2.2</ele><time>2021-02-18T14:20:07Z</time><name>PT9895</name></trkpt>
<trkpt lat="53.466963" lon="05.890477"><ele>2.3</ele><time>2021-02-18T14:20:08Z</time><name>PT9896</name></trkpt>
<trkpt lat="53.466961" lon="05.890463"><ele>2.2</ele><time>2021-02-18T14:20:09Z</time><name>PT9897</name></trkpt>
<trkpt lat="53.466961" lon="05.890450"><ele>2.2</ele><time>2021-02-18T14:20:10Z</time><name>PT9898</name></trkpt>
<trkpt lat="53.466962" lon="05.890438"><ele>2.3</ele><time>2021-02-18T14:20:11Z</time><name>PT9899</name></trkpt>
<trkpt lat="53.466961" lon="05.890430"><ele>2.6</ele><time>2021-02-18T14:20:12Z</time><name>PT9900</name></trkpt>
<trkpt lat="53.466959" lon="05.890419"><ele>2.7</ele><time>2021-02-18T14:20:13Z</time><name>PT9901</name></trkpt>
<trkpt lat="53.466958" lon="05.890402"><ele>2.8</ele><time>2021-02-18T14:20:14Z</time><name>PT9902</name></trkpt>
<trkpt lat="53.466956" lon="05.890385"><ele>2.7</ele><time>2021-02-18T14:20:15Z</time><name>PT9903</name></trkpt>
<trkpt lat="53.466954" lon="05.890368"><ele>2.4</ele><time>2021-02-18T14:20:16Z</time><name>PT9904</name></trkpt>
<trkpt lat="53.466950" lon="05.890352"><ele>2.3</ele><time>2021-02-18T14:20:17Z</time><name>PT9905</name></trkpt>
<trkpt lat="53.466946" lon="05.890339"><ele>2.4</ele><time>2021-02-18T14:20:18Z</time><name>PT9906</name></trkpt>
<trkpt lat="53.466942" lon="05.890326"><ele>2.5</ele><time>2021-02-18T14:20:19Z</time><name>PT9907</name></trkpt>
<trkpt lat="53.466939" lon="05.890312"><ele>2.7</ele><time>2021-02-18T14:20:20Z</time><name>PT9908</name></trkpt>
<trkpt lat="53.466938" lon="05.890293"><ele>2.7</ele><time>2021-02-18T14:20:21Z</time><name>PT9909</name></trkpt>
<trkpt lat="53.466936" lon="05.890273"><ele>2.7</ele><time>2021-02-18T14:20:22Z</time><name>PT9910</name></trkpt>
<trkpt lat="53.466937" lon="05.890253"><ele>2.6</ele><time>2021-02-18T14:20:23Z</time><name>PT9911</name></trkpt>
<trkpt lat="53.466938" lon="05.890236"><ele>2.4</ele><time>2021-02-18T14:20:24Z</time><name>PT9912</name></trkpt>
<trkpt lat="53.466936" lon="05.890218"><ele>2.2</ele><time>2021-02-18T14:20:25Z</time><name>PT9913</name></trkpt>
<trkpt lat="53.466933" lon="05.890201"><ele>2.2</ele><time>2021-02-18T14:20:26Z</time><name>PT9914</name></trkpt>
<trkpt lat="53.466932" lon="05.890188"><ele>2.2</ele><time>2021-02-18T14:20:27Z</time><name>PT9915</name></trkpt>
<trkpt lat="53.466928" lon="05.890175"><ele>2.1</ele><time>2021-02-18T14:20:28Z</time><name>PT9916</name></trkpt>
<trkpt lat="53.466927" lon="05.890165"><ele>2.2</ele><time>2021-02-18T14:20:29Z</time><name>PT9917</name></trkpt>
<trkpt lat="53.466925" lon="05.890149"><ele>2.2</ele><time>2021-02-18T14:20:30Z</time><name>PT9918</name></trkpt>
<trkpt lat="53.466923" lon="05.890129"><ele>2.3</ele><time>2021-02-18T14:20:31Z</time><name>PT9919</name></trkpt>
<trkpt lat="53.466922" lon="05.890109"><ele>2.4</ele><time>2021-02-18T14:20:32Z</time><name>PT9920</name></trkpt>
<trkpt lat="53.466923" lon="05.890090"><ele>2.3</ele><time>2021-02-18T14:20:33Z</time><name>PT9921</name></trkpt>
<trkpt lat="53.466922" lon="05.890070"><ele>2.5</ele><time>2021-02-18T14:20:34Z</time><name>PT9922</name></trkpt>
<trkpt lat="53.466919" lon="05.890051"><ele>2.7</ele><time>2021-02-18T14:20:35Z</time><name>PT9923</name></trkpt>
<trkpt lat="53.466915" lon="05.890035"><ele>2.7</ele><time>2021-02-18T14:20:36Z</time><name>PT9924</name></trkpt>
<trkpt lat="53.466913" lon="05.890015"><ele>2.8</ele><time>2021-02-18T14:20:37Z</time><name>PT9925</name></trkpt>
<trkpt lat="53.466912" lon="05.889992"><ele>3</ele><time>2021-02-18T14:20:38Z</time><name>PT9926</name></trkpt>
<trkpt lat="53.466911" lon="05.889973"><ele>2.9</ele><time>2021-02-18T14:20:39Z</time><name>PT9927</name></trkpt>
<trkpt lat="53.466908" lon="05.889955"><ele>2.7</ele><time>2021-02-18T14:20:40Z</time><name>PT9928</name></trkpt>
<trkpt lat="53.466904" lon="05.889943"><ele>2.5</ele><time>2021-02-18T14:20:41Z</time><name>PT9929</name></trkpt>
<trkpt lat="53.466898" lon="05.889933"><ele>2</ele><time>2021-02-18T14:20:42Z</time><name>PT9930</name></trkpt>
<trkpt lat="53.466891" lon="05.889917"><ele>2.1</ele><time>2021-02-18T14:20:43Z</time><name>PT9931</name></trkpt>
<trkpt lat="53.466887" lon="05.889895"><ele>2.2</ele><time>2021-02-18T14:20:44Z</time><name>PT9932</name></trkpt>
<trkpt lat="53.466885" lon="05.889875"><ele>2.5</ele><time>2021-02-18T14:20:45Z</time><name>PT9933</name></trkpt>
<trkpt lat="53.466884" lon="05.889853"><ele>3.2</ele><time>2021-02-18T14:20:46Z</time><name>PT9934</name></trkpt>
<trkpt lat="53.466883" lon="05.889836"><ele>3.2</ele><time>2021-02-18T14:20:47Z</time><name>PT9935</name></trkpt>
<trkpt lat="53.466883" lon="05.889818"><ele>3.2</ele><time>2021-02-18T14:20:48Z</time><name>PT9936</name></trkpt>
<trkpt lat="53.466884" lon="05.889800"><ele>3.3</ele><time>2021-02-18T14:20:49Z</time><name>PT9937</name></trkpt>
<trkpt lat="53.466884" lon="05.889780"><ele>3.2</ele><time>2021-02-18T14:20:50Z</time><name>PT9938</name></trkpt>
<trkpt lat="53.466883" lon="05.889763"><ele>3.1</ele><time>2021-02-18T14:20:51Z</time><name>PT9939</name></trkpt>
<trkpt lat="53.466882" lon="05.889745"><ele>2.8</ele><time>2021-02-18T14:20:52Z</time><name>PT9940</name></trkpt>
<trkpt lat="53.466880" lon="05.889725"><ele>2.8</ele><time>2021-02-18T14:20:53Z</time><name>PT9941</name></trkpt>
<trkpt lat="53.466877" lon="05.889707"><ele>2.7</ele><time>2021-02-18T14:20:54Z</time><name>PT9942</name></trkpt>
<trkpt lat="53.466877" lon="05.889689"><ele>2.7</ele><time>2021-02-18T14:20:55Z</time><name>PT9943</name></trkpt>
<trkpt lat="53.466877" lon="05.889671"><ele>2.8</ele><time>2021-02-18T14:20:56Z</time><name>PT9944</name></trkpt>
<trkpt lat="53.466876" lon="05.889653"><ele>2.7</ele><time>2021-02-18T14:20:57Z</time><name>PT9945</name></trkpt>
<trkpt lat="53.466874" lon="05.889635"><ele>2.6</ele><time>2021-02-18T14:20:58Z</time><name>PT9946</name></trkpt>
<trkpt lat="53.466872" lon="05.889618"><ele>2.7</ele><time>2021-02-18T14:20:59Z</time><name>PT9947</name></trkpt>
<trkpt lat="53.466869" lon="05.889601"><ele>2.5</ele><time>2021-02-18T14:21:00Z</time><name>PT9948</name></trkpt>
<trkpt lat="53.466867" lon="05.889582"><ele>2.5</ele><time>2021-02-18T14:21:01Z</time><name>PT9949</name></trkpt>
<trkpt lat="53.466864" lon="05.889566"><ele>2.6</ele><time>2021-02-18T14:21:02Z</time><name>PT9950</name></trkpt>
<trkpt lat="53.466860" lon="05.889550"><ele>2.4</ele><time>2021-02-18T14:21:03Z</time><name>PT9951</name></trkpt>
<trkpt lat="53.466859" lon="05.889534"><ele>2.7</ele><time>2021-02-18T14:21:04Z</time><name>PT9952</name></trkpt>
<trkpt lat="53.466858" lon="05.889518"><ele>2.6</ele><time>2021-02-18T14:21:05Z</time><name>PT9953</name></trkpt>
<trkpt lat="53.466859" lon="05.889499"><ele>2.8</ele><time>2021-02-18T14:21:06Z</time><name>PT9954</name></trkpt>
<trkpt lat="53.466859" lon="05.889482"><ele>2.8</ele><time>2021-02-18T14:21:07Z</time><name>PT9955</name></trkpt>
<trkpt lat="53.466857" lon="05.889465"><ele>2.8</ele><time>2021-02-18T14:21:08Z</time><name>PT9956</name></trkpt>
<trkpt lat="53.466855" lon="05.889448"><ele>2.8</ele><time>2021-02-18T14:21:09Z</time><name>PT9957</name></trkpt>
<trkpt lat="53.466854" lon="05.889433"><ele>2.9</ele><time>2021-02-18T14:21:10Z</time><name>PT9958</name></trkpt>
<trkpt lat="53.466851" lon="05.889419"><ele>3</ele><time>2021-02-18T14:21:11Z</time><name>PT9959</name></trkpt>
<trkpt lat="53.466849" lon="05.889403"><ele>3.1</ele><time>2021-02-18T14:21:12Z</time><name>PT9960</name></trkpt>
<trkpt lat="53.466850" lon="05.889384"><ele>3.2</ele><time>2021-02-18T14:21:13Z</time><name>PT9961</name></trkpt>
<trkpt lat="53.466850" lon="05.889364"><ele>2.9</ele><time>2021-02-18T14:21:14Z</time><name>PT9962</name></trkpt>
<trkpt lat="53.466849" lon="05.889347"><ele>2.9</ele><time>2021-02-18T14:21:15Z</time><name>PT9963</name></trkpt>
<trkpt lat="53.466847" lon="05.889330"><ele>2.7</ele><time>2021-02-18T14:21:16Z</time><name>PT9964</name></trkpt>
<trkpt lat="53.466844" lon="05.889314"><ele>2.7</ele><time>2021-02-18T14:21:17Z</time><name>PT9965</name></trkpt>
<trkpt lat="53.466841" lon="05.889298"><ele>2.5</ele><time>2021-02-18T14:21:18Z</time><name>PT9966</name></trkpt>
<trkpt lat="53.466840" lon="05.889281"><ele>2.3</ele><time>2021-02-18T14:21:19Z</time><name>PT9967</name></trkpt>
<trkpt lat="53.466838" lon="05.889262"><ele>2.3</ele><time>2021-02-18T14:21:20Z</time><name>PT9968</name></trkpt>
<trkpt lat="53.466838" lon="05.889243"><ele>2.2</ele><time>2021-02-18T14:21:21Z</time><name>PT9969</name></trkpt>
<trkpt lat="53.466838" lon="05.889223"><ele>2.2</ele><time>2021-02-18T14:21:22Z</time><name>PT9970</name></trkpt>
<trkpt lat="53.466836" lon="05.889206"><ele>2.2</ele><time>2021-02-18T14:21:23Z</time><name>PT9971</name></trkpt>
<trkpt lat="53.466834" lon="05.889187"><ele>2.3</ele><time>2021-02-18T14:21:24Z</time><name>PT9972</name></trkpt>
<trkpt lat="53.466831" lon="05.889167"><ele>2.3</ele><time>2021-02-18T14:21:25Z</time><name>PT9973</name></trkpt>
<trkpt lat="53.466827" lon="05.889149"><ele>2.4</ele><time>2021-02-18T14:21:26Z</time><name>PT9974</name></trkpt>
<trkpt lat="53.466825" lon="05.889134"><ele>2.3</ele><time>2021-02-18T14:21:27Z</time><name>PT9975</name></trkpt>
<trkpt lat="53.466823" lon="05.889117"><ele>2.2</ele><time>2021-02-18T14:21:28Z</time><name>PT9976</name></trkpt>
<trkpt lat="53.466822" lon="05.889097"><ele>2.1</ele><time>2021-02-18T14:21:29Z</time><name>PT9977</name></trkpt>
<trkpt lat="53.466822" lon="05.889078"><ele>2.1</ele><time>2021-02-18T14:21:30Z</time><name>PT9978</name></trkpt>
<trkpt lat="53.466823" lon="05.889058"><ele>2</ele><time>2021-02-18T14:21:31Z</time><name>PT9979</name></trkpt>
<trkpt lat="53.466824" lon="05.889038"><ele>2.1</ele><time>2021-02-18T14:21:32Z</time><name>PT9980</name></trkpt>
<trkpt lat="53.466823" lon="05.889017"><ele>2.2</ele><time>2021-02-18T14:21:33Z</time><name>PT9981</name></trkpt>
<trkpt lat="53.466822" lon="05.888997"><ele>2.3</ele><time>2021-02-18T14:21:34Z</time><name>PT9982</name></trkpt>
<trkpt lat="53.466820" lon="05.888977"><ele>2.3</ele><time>2021-02-18T14:21:35Z</time><name>PT9983</name></trkpt>
<trkpt lat="53.466817" lon="05.888959"><ele>2.5</ele><time>2021-02-18T14:21:36Z</time><name>PT9984</name></trkpt>
<trkpt lat="53.466815" lon="05.888940"><ele>2.5</ele><time>2021-02-18T14:21:37Z</time><name>PT9985</name></trkpt>
<trkpt lat="53.466812" lon="05.888921"><ele>2.6</ele><time>2021-02-18T14:21:38Z</time><name>PT9986</name></trkpt>
<trkpt lat="53.466809" lon="05.888904"><ele>2.6</ele><time>2021-02-18T14:21:39Z</time><name>PT9987</name></trkpt>
<trkpt lat="53.466807" lon="05.888887"><ele>2.5</ele><time>2021-02-18T14:21:40Z</time><name>PT9988</name></trkpt>
<trkpt lat="53.466805" lon="05.888869"><ele>2.5</ele><time>2021-02-18T14:21:41Z</time><name>PT9989</name></trkpt>
<trkpt lat="53.466803" lon="05.888852"><ele>2.6</ele><time>2021-02-18T14:21:42Z</time><name>PT9990</name></trkpt>
<trkpt lat="53.466803" lon="05.888834"><ele>2.7</ele><time>2021-02-18T14:21:43Z</time><name>PT9991</name></trkpt>
<trkpt lat="53.466801" lon="05.888818"><ele>2.7</ele><time>2021-02-18T14:21:44Z</time><name>PT9992</name></trkpt>
<trkpt lat="53.466797" lon="05.888799"><ele>2.8</ele><time>2021-02-18T14:21:45Z</time><name>PT9993</name></trkpt>
<trkpt lat="53.466796" lon="05.888780"><ele>2.7</ele><time>2021-02-18T14:21:46Z</time><name>PT9994</name></trkpt>
<trkpt lat="53.466793" lon="05.888761"><ele>2.7</ele><time>2021-02-18T14:21:47Z</time><name>PT9995</name></trkpt>
<trkpt lat="53.466789" lon="05.888742"><ele>2.7</ele><time>2021-02-18T14:21:48Z</time><name>PT9996</name></trkpt>
<trkpt lat="53.466787" lon="05.888725"><ele>2.8</ele><time>2021-02-18T14:21:49Z</time><name>PT9997</name></trkpt>
<trkpt lat="53.466784" lon="05.888708"><ele>2.9</ele><time>2021-02-18T14:21:50Z</time><name>PT9998</name></trkpt>
<trkpt lat="53.466782" lon="05.888689"><ele>2.9</ele><time>2021-02-18T14:21:51Z</time><name>PT9999</name></trkpt>
<trkpt lat="53.466780" lon="05.888670"><ele>2.9</ele><time>2021-02-18T14:21:52Z</time><name>PT10000</name></trkpt>
<trkpt lat="53.466780" lon="05.888650"><ele>2.8</ele><time>2021-02-18T14:21:53Z</time><name>PT10001</name></trkpt>
<trkpt lat="53.466778" lon="05.888630"><ele>2.5</ele><time>2021-02-18T14:21:54Z</time><name>PT10002</name></trkpt>
<trkpt lat="53.466775" lon="05.888612"><ele>2.6</ele><time>2021-02-18T14:21:55Z</time><name>PT10003</name></trkpt>
<trkpt lat="53.466772" lon="05.888594"><ele>2.6</ele><time>2021-02-18T14:21:56Z</time><name>PT10004</name></trkpt>
<trkpt lat="53.466768" lon="05.888575"><ele>2.7</ele><time>2021-02-18T14:21:57Z</time><name>PT10005</name></trkpt>
<trkpt lat="53.466764" lon="05.888557"><ele>2.8</ele><time>2021-02-18T14:21:58Z</time><name>PT10006</name></trkpt>
<trkpt lat="53.466760" lon="05.888539"><ele>2.7</ele><time>2021-02-18T14:21:59Z</time><name>PT10007</name></trkpt>
<trkpt lat="53.466756" lon="05.888522"><ele>2.8</ele><time>2021-02-18T14:22:00Z</time><name>PT10008</name></trkpt>
<trkpt lat="53.466753" lon="05.888504"><ele>2.8</ele><time>2021-02-18T14:22:01Z</time><name>PT10009</name></trkpt>
<trkpt lat="53.466750" lon="05.888486"><ele>2.8</ele><time>2021-02-18T14:22:02Z</time><name>PT10010</name></trkpt>
<trkpt lat="53.466748" lon="05.888465"><ele>2.8</ele><time>2021-02-18T14:22:03Z</time><name>PT10011</name></trkpt>
<trkpt lat="53.466747" lon="05.888444"><ele>2.7</ele><time>2021-02-18T14:22:04Z</time><name>PT10012</name></trkpt>
<trkpt lat="53.466747" lon="05.888424"><ele>2.7</ele><time>2021-02-18T14:22:05Z</time><name>PT10013</name></trkpt>
<trkpt lat="53.466747" lon="05.888404"><ele>2.8</ele><time>2021-02-18T14:22:06Z</time><name>PT10014</name></trkpt>
<trkpt lat="53.466747" lon="05.888384"><ele>2.8</ele><time>2021-02-18T14:22:07Z</time><name>PT10015</name></trkpt>
<trkpt lat="53.466745" lon="05.888363"><ele>2.8</ele><time>2021-02-18T14:22:08Z</time><name>PT10016</name></trkpt>
<trkpt lat="53.466743" lon="05.888343"><ele>2.8</ele><time>2021-02-18T14:22:09Z</time><name>PT10017</name></trkpt>
<trkpt lat="53.466742" lon="05.888324"><ele>2.8</ele><time>2021-02-18T14:22:10Z</time><name>PT10018</name></trkpt>
<trkpt lat="53.466739" lon="05.888304"><ele>2.8</ele><time>2021-02-18T14:22:11Z</time><name>PT10019</name></trkpt>
<trkpt lat="53.466736" lon="05.888283"><ele>2.9</ele><time>2021-02-18T14:22:12Z</time><name>PT10020</name></trkpt>
<trkpt lat="53.466733" lon="05.888261"><ele>2.8</ele><time>2021-02-18T14:22:13Z</time><name>PT10021</name></trkpt>
<trkpt lat="53.466731" lon="05.888239"><ele>2.7</ele><time>2021-02-18T14:22:14Z</time><name>PT10022</name></trkpt>
<trkpt lat="53.466728" lon="05.888219"><ele>2.6</ele><time>2021-02-18T14:22:15Z</time><name>PT10023</name></trkpt>
<trkpt lat="53.466724" lon="05.888199"><ele>2.5</ele><time>2021-02-18T14:22:16Z</time><name>PT10024</name></trkpt>
<trkpt lat="53.466721" lon="05.888181"><ele>2.4</ele><time>2021-02-18T14:22:17Z</time><name>PT10025</name></trkpt>
<trkpt lat="53.466718" lon="05.888165"><ele>2.2</ele><time>2021-02-18T14:22:18Z</time><name>PT10026</name></trkpt>
<trkpt lat="53.466715" lon="05.888148"><ele>1.8</ele><time>2021-02-18T14:22:19Z</time><name>PT10027</name></trkpt>
<trkpt lat="53.466713" lon="05.888131"><ele>1.8</ele><time>2021-02-18T14:22:20Z</time><name>PT10028</name></trkpt>
<trkpt lat="53.466713" lon="05.888111"><ele>1.7</ele><time>2021-02-18T14:22:21Z</time><name>PT10029</name></trkpt>
<trkpt lat="53.466713" lon="05.888091"><ele>1.7</ele><time>2021-02-18T14:22:22Z</time><name>PT10030</name></trkpt>
<trkpt lat="53.466712" lon="05.888070"><ele>1.7</ele><time>2021-02-18T14:22:23Z</time><name>PT10031</name></trkpt>
<trkpt lat="53.466712" lon="05.888051"><ele>1.8</ele><time>2021-02-18T14:22:24Z</time><name>PT10032</name></trkpt>
<trkpt lat="53.466710" lon="05.888031"><ele>2.2</ele><time>2021-02-18T14:22:25Z</time><name>PT10033</name></trkpt>
<trkpt lat="53.466708" lon="05.888011"><ele>2.4</ele><time>2021-02-18T14:22:26Z</time><name>PT10034</name></trkpt>
<trkpt lat="53.466704" lon="05.887991"><ele>2.6</ele><time>2021-02-18T14:22:27Z</time><name>PT10035</name></trkpt>
<trkpt lat="53.466699" lon="05.887972"><ele>2.8</ele><time>2021-02-18T14:22:28Z</time><name>PT10036</name></trkpt>
<trkpt lat="53.466695" lon="05.887953"><ele>2.7</ele><time>2021-02-18T14:22:29Z</time><name>PT10037</name></trkpt>
<trkpt lat="53.466693" lon="05.887934"><ele>2.5</ele><time>2021-02-18T14:22:30Z</time><name>PT10038</name></trkpt>
<trkpt lat="53.466689" lon="05.887916"><ele>2.4</ele><time>2021-02-18T14:22:31Z</time><name>PT10039</name></trkpt>
<trkpt lat="53.466687" lon="05.887899"><ele>2.2</ele><time>2021-02-18T14:22:32Z</time><name>PT10040</name></trkpt>
<trkpt lat="53.466686" lon="05.887881"><ele>2.2</ele><time>2021-02-18T14:22:33Z</time><name>PT10041</name></trkpt>
<trkpt lat="53.466684" lon="05.887863"><ele>2.2</ele><time>2021-02-18T14:22:34Z</time><name>PT10042</name></trkpt>
<trkpt lat="53.466684" lon="05.887843"><ele>2.1</ele><time>2021-02-18T14:22:35Z</time><name>PT10043</name></trkpt>
<trkpt lat="53.466686" lon="05.887822"><ele>2.1</ele><time>2021-02-18T14:22:36Z</time><name>PT10044</name></trkpt>
<trkpt lat="53.466686" lon="05.887801"><ele>2.3</ele><time>2021-02-18T14:22:37Z</time><name>PT10045</name></trkpt>
<trkpt lat="53.466686" lon="05.887781"><ele>2.4</ele><time>2021-02-18T14:22:38Z</time><name>PT10046</name></trkpt>
<trkpt lat="53.466686" lon="05.887761"><ele>2.7</ele><time>2021-02-18T14:22:39Z</time><name>PT10047</name></trkpt>
<trkpt lat="53.466682" lon="05.887741"><ele>3</ele><time>2021-02-18T14:22:40Z</time><name>PT10048</name></trkpt>
<trkpt lat="53.466680" lon="05.887722"><ele>3</ele><time>2021-02-18T14:22:41Z</time><name>PT10049</name></trkpt>
<trkpt lat="53.466678" lon="05.887703"><ele>3</ele><time>2021-02-18T14:22:42Z</time><name>PT10050</name></trkpt>
<trkpt lat="53.466675" lon="05.887683"><ele>2.8</ele><time>2021-02-18T14:22:43Z</time><name>PT10051</name></trkpt>
<trkpt lat="53.466672" lon="05.887664"><ele>2.6</ele><time>2021-02-18T14:22:44Z</time><name>PT10052</name></trkpt>
<trkpt lat="53.466670" lon="05.887647"><ele>2.6</ele><time>2021-02-18T14:22:45Z</time><name>PT10053</name></trkpt>
<trkpt lat="53.466667" lon="05.887630"><ele>2.7</ele><time>2021-02-18T14:22:46Z</time><name>PT10054</name></trkpt>
<trkpt lat="53.466664" lon="05.887612"><ele>2.5</ele><time>2021-02-18T14:22:47Z</time><name>PT10055</name></trkpt>
<trkpt lat="53.466660" lon="05.887594"><ele>2.7</ele><time>2021-02-18T14:22:48Z</time><name>PT10056</name></trkpt>
<trkpt lat="53.466659" lon="05.887573"><ele>2.7</ele><time>2021-02-18T14:22:49Z</time><name>PT10057</name></trkpt>
<trkpt lat="53.466658" lon="05.887551"><ele>2.7</ele><time>2021-02-18T14:22:50Z</time><name>PT10058</name></trkpt>
<trkpt lat="53.466658" lon="05.887530"><ele>2.7</ele><time>2021-02-18T14:22:51Z</time><name>PT10059</name></trkpt>
<trkpt lat="53.466656" lon="05.887510"><ele>2.6</ele><time>2021-02-18T14:22:52Z</time><name>PT10060</name></trkpt>
<trkpt lat="53.466652" lon="05.887490"><ele>2.6</ele><time>2021-02-18T14:22:53Z</time><name>PT10061</name></trkpt>
<trkpt lat="53.466651" lon="05.887468"><ele>2.7</ele><time>2021-02-18T14:22:54Z</time><name>PT10062</name></trkpt>
<trkpt lat="53.466650" lon="05.887448"><ele>2.8</ele><time>2021-02-18T14:22:55Z</time><name>PT10063</name></trkpt>
<trkpt lat="53.466646" lon="05.887429"><ele>2.7</ele><time>2021-02-18T14:22:56Z</time><name>PT10064</name></trkpt>
<trkpt lat="53.466644" lon="05.887410"><ele>3.1</ele><time>2021-02-18T14:22:57Z</time><name>PT10065</name></trkpt>
<trkpt lat="53.466642" lon="05.887391"><ele>3.3</ele><time>2021-02-18T14:22:58Z</time><name>PT10066</name></trkpt>
<trkpt lat="53.466638" lon="05.887372"><ele>3.3</ele><time>2021-02-18T14:22:59Z</time><name>PT10067</name></trkpt>
<trkpt lat="53.466636" lon="05.887354"><ele>3.7</ele><time>2021-02-18T14:23:00Z</time><name>PT10068</name></trkpt>
<trkpt lat="53.466634" lon="05.887335"><ele>4</ele><time>2021-02-18T14:23:01Z</time><name>PT10069</name></trkpt>
<trkpt lat="53.466631" lon="05.887317"><ele>3.8</ele><time>2021-02-18T14:23:02Z</time><name>PT10070</name></trkpt>
<trkpt lat="53.466630" lon="05.887299"><ele>4.1</ele><time>2021-02-18T14:23:03Z</time><name>PT10071</name></trkpt>
<trkpt lat="53.466629" lon="05.887278"><ele>4.4</ele><time>2021-02-18T14:23:04Z</time><name>PT10072</name></trkpt>
<trkpt lat="53.466629" lon="05.887257"><ele>4.4</ele><time>2021-02-18T14:23:05Z</time><name>PT10073</name></trkpt>
<trkpt lat="53.466626" lon="05.887240"><ele>4.2</ele><time>2021-02-18T14:23:06Z</time><name>PT10074</name></trkpt>
<trkpt lat="53.466624" lon="05.887222"><ele>4.2</ele><time>2021-02-18T14:23:07Z</time><name>PT10075</name></trkpt>
<trkpt lat="53.466621" lon="05.887204"><ele>4.1</ele><time>2021-02-18T14:23:08Z</time><name>PT10076</name></trkpt>
<trkpt lat="53.466617" lon="05.887184"><ele>4</ele><time>2021-02-18T14:23:09Z</time><name>PT10077</name></trkpt>
<trkpt lat="53.466614" lon="05.887163"><ele>3.9</ele><time>2021-02-18T14:23:10Z</time><name>PT10078</name></trkpt>
<trkpt lat="53.466611" lon="05.887144"><ele>3.9</ele><time>2021-02-18T14:23:11Z</time><name>PT10079</name></trkpt>
<trkpt lat="53.466609" lon="05.887121"><ele>3.8</ele><time>2021-02-18T14:23:12Z</time><name>PT10080</name></trkpt>
<trkpt lat="53.466606" lon="05.887101"><ele>3.4</ele><time>2021-02-18T14:23:13Z</time><name>PT10081</name></trkpt>
<trkpt lat="53.466604" lon="05.887080"><ele>3.3</ele><time>2021-02-18T14:23:14Z</time><name>PT10082</name></trkpt>
<trkpt lat="53.466601" lon="05.887061"><ele>3.5</ele><time>2021-02-18T14:23:15Z</time><name>PT10083</name></trkpt>
<trkpt lat="53.466599" lon="05.887043"><ele>3.4</ele><time>2021-02-18T14:23:16Z</time><name>PT10084</name></trkpt>
<trkpt lat="53.466599" lon="05.887026"><ele>3.6</ele><time>2021-02-18T14:23:17Z</time><name>PT10085</name></trkpt>
<trkpt lat="53.466598" lon="05.887006"><ele>3.7</ele><time>2021-02-18T14:23:18Z</time><name>PT10086</name></trkpt>
<trkpt lat="53.466598" lon="05.886987"><ele>3.7</ele><time>2021-02-18T14:23:19Z</time><name>PT10087</name></trkpt>
<trkpt lat="53.466598" lon="05.886966"><ele>3.7</ele><time>2021-02-18T14:23:20Z</time><name>PT10088</name></trkpt>
<trkpt lat="53.466599" lon="05.886945"><ele>3.9</ele><time>2021-02-18T14:23:21Z</time><name>PT10089</name></trkpt>
<trkpt lat="53.466598" lon="05.886925"><ele>3.8</ele><time>2021-02-18T14:23:22Z</time><name>PT10090</name></trkpt>
<trkpt lat="53.466594" lon="05.886906"><ele>3.7</ele><time>2021-02-18T14:23:23Z</time><name>PT10091</name></trkpt>
<trkpt lat="53.466591" lon="05.886886"><ele>3.8</ele><time>2021-02-18T14:23:24Z</time><name>PT10092</name></trkpt>
<trkpt lat="53.466590" lon="05.886867"><ele>3.9</ele><time>2021-02-18T14:23:25Z</time><name>PT10093</name></trkpt>
<trkpt lat="53.466589" lon="05.886847"><ele>4.1</ele><time>2021-02-18T14:23:26Z</time><name>PT10094</name></trkpt>
<trkpt lat="53.466588" lon="05.886830"><ele>4</ele><time>2021-02-18T14:23:27Z</time><name>PT10095</name></trkpt>
<trkpt lat="53.466587" lon="05.886814"><ele>3.7</ele><time>2021-02-18T14:23:28Z</time><name>PT10096</name></trkpt>
<trkpt lat="53.466585" lon="05.886797"><ele>3.7</ele><time>2021-02-18T14:23:29Z</time><name>PT10097</name></trkpt>
<trkpt lat="53.466586" lon="05.886778"><ele>3.3</ele><time>2021-02-18T14:23:30Z</time><name>PT10098</name></trkpt>
<trkpt lat="53.466588" lon="05.886758"><ele>3.3</ele><time>2021-02-18T14:23:31Z</time><name>PT10099</name></trkpt>
<trkpt lat="53.466587" lon="05.886740"><ele>3.3</ele><time>2021-02-18T14:23:32Z</time><name>PT10100</name></trkpt>
<trkpt lat="53.466584" lon="05.886722"><ele>3.4</ele><time>2021-02-18T14:23:33Z</time><name>PT10101</name></trkpt>
<trkpt lat="53.466581" lon="05.886702"><ele>3.2</ele><time>2021-02-18T14:23:34Z</time><name>PT10102</name></trkpt>
<trkpt lat="53.466577" lon="05.886682"><ele>3.2</ele><time>2021-02-18T14:23:35Z</time><name>PT10103</name></trkpt>
<trkpt lat="53.466576" lon="05.886661"><ele>3</ele><time>2021-02-18T14:23:36Z</time><name>PT10104</name></trkpt>
<trkpt lat="53.466574" lon="05.886644"><ele>3.1</ele><time>2021-02-18T14:23:37Z</time><name>PT10105</name></trkpt>
<trkpt lat="53.466573" lon="05.886628"><ele>3.2</ele><time>2021-02-18T14:23:38Z</time><name>PT10106</name></trkpt>
<trkpt lat="53.466572" lon="05.886611"><ele>3</ele><time>2021-02-18T14:23:39Z</time><name>PT10107</name></trkpt>
<trkpt lat="53.466570" lon="05.886593"><ele>2.9</ele><time>2021-02-18T14:23:40Z</time><name>PT10108</name></trkpt>
<trkpt lat="53.466571" lon="05.886573"><ele>2.8</ele><time>2021-02-18T14:23:41Z</time><name>PT10109</name></trkpt>
<trkpt lat="53.466573" lon="05.886553"><ele>2.5</ele><time>2021-02-18T14:23:42Z</time><name>PT10110</name></trkpt>
<trkpt lat="53.466572" lon="05.886533"><ele>2.6</ele><time>2021-02-18T14:23:43Z</time><name>PT10111</name></trkpt>
<trkpt lat="53.466571" lon="05.886512"><ele>2.6</ele><time>2021-02-18T14:23:44Z</time><name>PT10112</name></trkpt>
<trkpt lat="53.466570" lon="05.886493"><ele>2.7</ele><time>2021-02-18T14:23:45Z</time><name>PT10113</name></trkpt>
<trkpt lat="53.466568" lon="05.886473"><ele>2.8</ele><time>2021-02-18T14:23:46Z</time><name>PT10114</name></trkpt>
<trkpt lat="53.466565" lon="05.886454"><ele>3</ele><time>2021-02-18T14:23:47Z</time><name>PT10115</name></trkpt>
<trkpt lat="53.466561" lon="05.886435"><ele>2.9</ele><time>2021-02-18T14:23:48Z</time><name>PT10116</name></trkpt>
<trkpt lat="53.466558" lon="05.886416"><ele>3</ele><time>2021-02-18T14:23:49Z</time><name>PT10117</name></trkpt>
<trkpt lat="53.466555" lon="05.886397"><ele>2.9</ele><time>2021-02-18T14:23:50Z</time><name>PT10118</name></trkpt>
<trkpt lat="53.466552" lon="05.886381"><ele>3</ele><time>2021-02-18T14:23:51Z</time><name>PT10119</name></trkpt>
<trkpt lat="53.466550" lon="05.886364"><ele>3.2</ele><time>2021-02-18T14:23:52Z</time><name>PT10120</name></trkpt>
<trkpt lat="53.466547" lon="05.886347"><ele>3.2</ele><time>2021-02-18T14:23:53Z</time><name>PT10121</name></trkpt>
<trkpt lat="53.466548" lon="05.886326"><ele>3.2</ele><time>2021-02-18T14:23:54Z</time><name>PT10122</name></trkpt>
<trkpt lat="53.466547" lon="05.886306"><ele>3.1</ele><time>2021-02-18T14:23:55Z</time><name>PT10123</name></trkpt>
<trkpt lat="53.466545" lon="05.886289"><ele>2.8</ele><time>2021-02-18T14:23:56Z</time><name>PT10124</name></trkpt>
<trkpt lat="53.466544" lon="05.886270"><ele>2.9</ele><time>2021-02-18T14:23:57Z</time><name>PT10125</name></trkpt>
<trkpt lat="53.466543" lon="05.886250"><ele>3.2</ele><time>2021-02-18T14:23:58Z</time><name>PT10126</name></trkpt>
<trkpt lat="53.466541" lon="05.886230"><ele>3.2</ele><time>2021-02-18T14:23:59Z</time><name>PT10127</name></trkpt>
<trkpt lat="53.466537" lon="05.886211"><ele>3.5</ele><time>2021-02-18T14:24:00Z</time><name>PT10128</name></trkpt>
<trkpt lat="53.466534" lon="05.886193"><ele>3.6</ele><time>2021-02-18T14:24:01Z</time><name>PT10129</name></trkpt>
<trkpt lat="53.466532" lon="05.886175"><ele>3.8</ele><time>2021-02-18T14:24:02Z</time><name>PT10130</name></trkpt>
<trkpt lat="53.466527" lon="05.886155"><ele>3.7</ele><time>2021-02-18T14:24:03Z</time><name>PT10131</name></trkpt>
<trkpt lat="53.466524" lon="05.886137"><ele>3.7</ele><time>2021-02-18T14:24:04Z</time><name>PT10132</name></trkpt>
<trkpt lat="53.466522" lon="05.886120"><ele>3.7</ele><time>2021-02-18T14:24:05Z</time><name>PT10133</name></trkpt>
<trkpt lat="53.466521" lon="05.886101"><ele>3.4</ele><time>2021-02-18T14:24:06Z</time><name>PT10134</name></trkpt>
<trkpt lat="53.466519" lon="05.886083"><ele>3.2</ele><time>2021-02-18T14:24:07Z</time><name>PT10135</name></trkpt>
<trkpt lat="53.466519" lon="05.886062"><ele>3.3</ele><time>2021-02-18T14:24:08Z</time><name>PT10136</name></trkpt>
<trkpt lat="53.466519" lon="05.886043"><ele>3.1</ele><time>2021-02-18T14:24:09Z</time><name>PT10137</name></trkpt>
<trkpt lat="53.466520" lon="05.886024"><ele>3.3</ele><time>2021-02-18T14:24:10Z</time><name>PT10138</name></trkpt>
<trkpt lat="53.466519" lon="05.886004"><ele>3.3</ele><time>2021-02-18T14:24:11Z</time><name>PT10139</name></trkpt>
<trkpt lat="53.466520" lon="05.885983"><ele>3.3</ele><time>2021-02-18T14:24:12Z</time><name>PT10140</name></trkpt>
<trkpt lat="53.466519" lon="05.885962"><ele>3.4</ele><time>2021-02-18T14:24:13Z</time><name>PT10141</name></trkpt>
<trkpt lat="53.466518" lon="05.885941"><ele>3.4</ele><time>2021-02-18T14:24:14Z</time><name>PT10142</name></trkpt>
<trkpt lat="53.466519" lon="05.885922"><ele>3.3</ele><time>2021-02-18T14:24:15Z</time><name>PT10143</name></trkpt>
<trkpt lat="53.466519" lon="05.885902"><ele>3.2</ele><time>2021-02-18T14:24:16Z</time><name>PT10144</name></trkpt>
<trkpt lat="53.466517" lon="05.885885"><ele>3.2</ele><time>2021-02-18T14:24:17Z</time><name>PT10145</name></trkpt>
<trkpt lat="53.466514" lon="05.885867"><ele>3</ele><time>2021-02-18T14:24:18Z</time><name>PT10146</name></trkpt>
<trkpt lat="53.466511" lon="05.885848"><ele>2.9</ele><time>2021-02-18T14:24:19Z</time><name>PT10147</name></trkpt>
<trkpt lat="53.466507" lon="05.885828"><ele>2.9</ele><time>2021-02-18T14:24:20Z</time><name>PT10148</name></trkpt>
<trkpt lat="53.466504" lon="05.885809"><ele>3.2</ele><time>2021-02-18T14:24:21Z</time><name>PT10149</name></trkpt>
<trkpt lat="53.466500" lon="05.885790"><ele>3.2</ele><time>2021-02-18T14:24:22Z</time><name>PT10150</name></trkpt>
<trkpt lat="53.466497" lon="05.885772"><ele>3.3</ele><time>2021-02-18T14:24:23Z</time><name>PT10151</name></trkpt>
<trkpt lat="53.466494" lon="05.885753"><ele>3.2</ele><time>2021-02-18T14:24:24Z</time><name>PT10152</name></trkpt>
<trkpt lat="53.466493" lon="05.885734"><ele>3.2</ele><time>2021-02-18T14:24:25Z</time><name>PT10153</name></trkpt>
<trkpt lat="53.466491" lon="05.885716"><ele>3.2</ele><time>2021-02-18T14:24:26Z</time><name>PT10154</name></trkpt>
<trkpt lat="53.466490" lon="05.885700"><ele>3.2</ele><time>2021-02-18T14:24:27Z</time><name>PT10155</name></trkpt>
<trkpt lat="53.466490" lon="05.885682"><ele>3.2</ele><time>2021-02-18T14:24:28Z</time><name>PT10156</name></trkpt>
<trkpt lat="53.466490" lon="05.885665"><ele>3.1</ele><time>2021-02-18T14:24:29Z</time><name>PT10157</name></trkpt>
<trkpt lat="53.466490" lon="05.885649"><ele>3.4</ele><time>2021-02-18T14:24:30Z</time><name>PT10158</name></trkpt>
<trkpt lat="53.466491" lon="05.885632"><ele>3.6</ele><time>2021-02-18T14:24:31Z</time><name>PT10159</name></trkpt>
<trkpt lat="53.466491" lon="05.885614"><ele>3.6</ele><time>2021-02-18T14:24:32Z</time><name>PT10160</name></trkpt>
<trkpt lat="53.466490" lon="05.885593"><ele>3.8</ele><time>2021-02-18T14:24:33Z</time><name>PT10161</name></trkpt>
<trkpt lat="53.466489" lon="05.885573"><ele>3.7</ele><time>2021-02-18T14:24:34Z</time><name>PT10162</name></trkpt>
<trkpt lat="53.466488" lon="05.885555"><ele>3.8</ele><time>2021-02-18T14:24:35Z</time><name>PT10163</name></trkpt>
<trkpt lat="53.466488" lon="05.885538"><ele>4</ele><time>2021-02-18T14:24:36Z</time><name>PT10164</name></trkpt>
<trkpt lat="53.466488" lon="05.885521"><ele>3.8</ele><time>2021-02-18T14:24:37Z</time><name>PT10165</name></trkpt>
<trkpt lat="53.466487" lon="05.885504"><ele>3.8</ele><time>2021-02-18T14:24:38Z</time><name>PT10166</name></trkpt>
<trkpt lat="53.466487" lon="05.885484"><ele>3.7</ele><time>2021-02-18T14:24:39Z</time><name>PT10167</name></trkpt>
<trkpt lat="53.466487" lon="05.885463"><ele>3.6</ele><time>2021-02-18T14:24:40Z</time><name>PT10168</name></trkpt>
<trkpt lat="53.466487" lon="05.885443"><ele>3.7</ele><time>2021-02-18T14:24:41Z</time><name>PT10169</name></trkpt>
<trkpt lat="53.466487" lon="05.885424"><ele>4.2</ele><time>2021-02-18T14:24:42Z</time><name>PT10170</name></trkpt>
<trkpt lat="53.466484" lon="05.885406"><ele>4.6</ele><time>2021-02-18T14:24:43Z</time><name>PT10171</name></trkpt>
<trkpt lat="53.466482" lon="05.885387"><ele>4.6</ele><time>2021-02-18T14:24:44Z</time><name>PT10172</name></trkpt>
<trkpt lat="53.466479" lon="05.885370"><ele>4.3</ele><time>2021-02-18T14:24:45Z</time><name>PT10173</name></trkpt>
<trkpt lat="53.466477" lon="05.885351"><ele>3.8</ele><time>2021-02-18T14:24:46Z</time><name>PT10174</name></trkpt>
<trkpt lat="53.466474" lon="05.885332"><ele>3.6</ele><time>2021-02-18T14:24:47Z</time><name>PT10175</name></trkpt>
<trkpt lat="53.466472" lon="05.885316"><ele>3.6</ele><time>2021-02-18T14:24:48Z</time><name>PT10176</name></trkpt>
<trkpt lat="53.466469" lon="05.885307"><ele>3.4</ele><time>2021-02-18T14:24:49Z</time><name>PT10177</name></trkpt>
<trkpt lat="53.466462" lon="05.885297"><ele>3.2</ele><time>2021-02-18T14:24:50Z</time><name>PT10178</name></trkpt>
<trkpt lat="53.466455" lon="05.885284"><ele>3.2</ele><time>2021-02-18T14:24:51Z</time><name>PT10179</name></trkpt>
<trkpt lat="53.466450" lon="05.885267"><ele>3.2</ele><time>2021-02-18T14:24:52Z</time><name>PT10180</name></trkpt>
<trkpt lat="53.466446" lon="05.885250"><ele>3.3</ele><time>2021-02-18T14:24:53Z</time><name>PT10181</name></trkpt>
<trkpt lat="53.466443" lon="05.885236"><ele>3.6</ele><time>2021-02-18T14:24:54Z</time><name>PT10182</name></trkpt>
<trkpt lat="53.466439" lon="05.885220"><ele>3.4</ele><time>2021-02-18T14:24:55Z</time><name>PT10183</name></trkpt>
<trkpt lat="53.466435" lon="05.885202"><ele>3.3</ele><time>2021-02-18T14:24:56Z</time><name>PT10184</name></trkpt>
<trkpt lat="53.466431" lon="05.885182"><ele>3.1</ele><time>2021-02-18T14:24:57Z</time><name>PT10185</name></trkpt>
<trkpt lat="53.466427" lon="05.885164"><ele>3.2</ele><time>2021-02-18T14:24:58Z</time><name>PT10186</name></trkpt>
<trkpt lat="53.466422" lon="05.885147"><ele>3.2</ele><time>2021-02-18T14:24:59Z</time><name>PT10187</name></trkpt>
<trkpt lat="53.466418" lon="05.885130"><ele>2.9</ele><time>2021-02-18T14:25:00Z</time><name>PT10188</name></trkpt>
<trkpt lat="53.466412" lon="05.885113"><ele>3.1</ele><time>2021-02-18T14:25:01Z</time><name>PT10189</name></trkpt>
<trkpt lat="53.466405" lon="05.885094"><ele>3.1</ele><time>2021-02-18T14:25:02Z</time><name>PT10190</name></trkpt>
<trkpt lat="53.466397" lon="05.885082"><ele>3.2</ele><time>2021-02-18T14:25:03Z</time><name>PT10191</name></trkpt>
<trkpt lat="53.466389" lon="05.885070"><ele>3.6</ele><time>2021-02-18T14:25:04Z</time><name>PT10192</name></trkpt>
<trkpt lat="53.466382" lon="05.885045"><ele>3.7</ele><time>2021-02-18T14:25:05Z</time><name>PT10193</name></trkpt>
<trkpt lat="53.466376" lon="05.885024"><ele>3.9</ele><time>2021-02-18T14:25:06Z</time><name>PT10194</name></trkpt>
<trkpt lat="53.466374" lon="05.885006"><ele>4.2</ele><time>2021-02-18T14:25:07Z</time><name>PT10195</name></trkpt>
<trkpt lat="53.466371" lon="05.884988"><ele>4.3</ele><time>2021-02-18T14:25:08Z</time><name>PT10196</name></trkpt>
<trkpt lat="53.466370" lon="05.884970"><ele>4.6</ele><time>2021-02-18T14:25:09Z</time><name>PT10197</name></trkpt>
<trkpt lat="53.466370" lon="05.884947"><ele>4.4</ele><time>2021-02-18T14:25:10Z</time><name>PT10198</name></trkpt>
<trkpt lat="53.466370" lon="05.884927"><ele>4.2</ele><time>2021-02-18T14:25:11Z</time><name>PT10199</name></trkpt>
<trkpt lat="53.466374" lon="05.884909"><ele>4.2</ele><time>2021-02-18T14:25:12Z</time><name>PT10200</name></trkpt>
<trkpt lat="53.466376" lon="05.884892"><ele>4.1</ele><time>2021-02-18T14:25:13Z</time><name>PT10201</name></trkpt>
<trkpt lat="53.466375" lon="05.884874"><ele>4.2</ele><time>2021-02-18T14:25:14Z</time><name>PT10202</name></trkpt>
<trkpt lat="53.466375" lon="05.884857"><ele>4.2</ele><time>2021-02-18T14:25:15Z</time><name>PT10203</name></trkpt>
<trkpt lat="53.466374" lon="05.884841"><ele>4.2</ele><time>2021-02-18T14:25:16Z</time><name>PT10204</name></trkpt>
<trkpt lat="53.466375" lon="05.884828"><ele>4.2</ele><time>2021-02-18T14:25:17Z</time><name>PT10205</name></trkpt>
<trkpt lat="53.466375" lon="05.884813"><ele>4.4</ele><time>2021-02-18T14:25:18Z</time><name>PT10206</name></trkpt>
<trkpt lat="53.466374" lon="05.884798"><ele>4.7</ele><time>2021-02-18T14:25:19Z</time><name>PT10207</name></trkpt>
<trkpt lat="53.466374" lon="05.884783"><ele>4.7</ele><time>2021-02-18T14:25:20Z</time><name>PT10208</name></trkpt>
<trkpt lat="53.466374" lon="05.884767"><ele>4.8</ele><time>2021-02-18T14:25:21Z</time><name>PT10209</name></trkpt>
<trkpt lat="53.466374" lon="05.884750"><ele>4.9</ele><time>2021-02-18T14:25:22Z</time><name>PT10210</name></trkpt>
<trkpt lat="53.466375" lon="05.884730"><ele>5</ele><time>2021-02-18T14:25:23Z</time><name>PT10211</name></trkpt>
<trkpt lat="53.466375" lon="05.884708"><ele>5.2</ele><time>2021-02-18T14:25:24Z</time><name>PT10212</name></trkpt>
<trkpt lat="53.466376" lon="05.884686"><ele>5.2</ele><time>2021-02-18T14:25:25Z</time><name>PT10213</name></trkpt>
<trkpt lat="53.466377" lon="05.884667"><ele>5.2</ele><time>2021-02-18T14:25:26Z</time><name>PT10214</name></trkpt>
<trkpt lat="53.466379" lon="05.884647"><ele>4.8</ele><time>2021-02-18T14:25:27Z</time><name>PT10215</name></trkpt>
<trkpt lat="53.466380" lon="05.884628"><ele>4.3</ele><time>2021-02-18T14:25:28Z</time><name>PT10216</name></trkpt>
<trkpt lat="53.466380" lon="05.884609"><ele>4.2</ele><time>2021-02-18T14:25:29Z</time><name>PT10217</name></trkpt>
<trkpt lat="53.466378" lon="05.884593"><ele>3.9</ele><time>2021-02-18T14:25:30Z</time><name>PT10218</name></trkpt>
<trkpt lat="53.466376" lon="05.884576"><ele>3.8</ele><time>2021-02-18T14:25:31Z</time><name>PT10219</name></trkpt>
<trkpt lat="53.466376" lon="05.884556"><ele>3.7</ele><time>2021-02-18T14:25:32Z</time><name>PT10220</name></trkpt>
<trkpt lat="53.466375" lon="05.884536"><ele>3.7</ele><time>2021-02-18T14:25:33Z</time><name>PT10221</name></trkpt>
<trkpt lat="53.466374" lon="05.884516"><ele>3.8</ele><time>2021-02-18T14:25:34Z</time><name>PT10222</name></trkpt>
<trkpt lat="53.466374" lon="05.884497"><ele>3.7</ele><time>2021-02-18T14:25:35Z</time><name>PT10223</name></trkpt>
<trkpt lat="53.466375" lon="05.884477"><ele>3.7</ele><time>2021-02-18T14:25:36Z</time><name>PT10224</name></trkpt>
<trkpt lat="53.466375" lon="05.884458"><ele>3.7</ele><time>2021-02-18T14:25:37Z</time><name>PT10225</name></trkpt>
<trkpt lat="53.466374" lon="05.884439"><ele>3.7</ele><time>2021-02-18T14:25:38Z</time><name>PT10226</name></trkpt>
<trkpt lat="53.466374" lon="05.884419"><ele>3.8</ele><time>2021-02-18T14:25:39Z</time><name>PT10227</name></trkpt>
<trkpt lat="53.466374" lon="05.884399"><ele>3.9</ele><time>2021-02-18T14:25:40Z</time><name>PT10228</name></trkpt>
<trkpt lat="53.466375" lon="05.884380"><ele>3.9</ele><time>2021-02-18T14:25:41Z</time><name>PT10229</name></trkpt>
<trkpt lat="53.466375" lon="05.884361"><ele>4.2</ele><time>2021-02-18T14:25:42Z</time><name>PT10230</name></trkpt>
<trkpt lat="53.466373" lon="05.884341"><ele>3.9</ele><time>2021-02-18T14:25:43Z</time><name>PT10231</name></trkpt>
<trkpt lat="53.466372" lon="05.884321"><ele>3.9</ele><time>2021-02-18T14:25:44Z</time><name>PT10232</name></trkpt>
<trkpt lat="53.466372" lon="05.884301"><ele>4.1</ele><time>2021-02-18T14:25:45Z</time><name>PT10233</name></trkpt>
<trkpt lat="53.466372" lon="05.884282"><ele>4.1</ele><time>2021-02-18T14:25:46Z</time><name>PT10234</name></trkpt>
<trkpt lat="53.466372" lon="05.884262"><ele>4</ele><time>2021-02-18T14:25:47Z</time><name>PT10235</name></trkpt>
<trkpt lat="53.466372" lon="05.884243"><ele>4.2</ele><time>2021-02-18T14:25:48Z</time><name>PT10236</name></trkpt>
<trkpt lat="53.466371" lon="05.884225"><ele>4.3</ele><time>2021-02-18T14:25:49Z</time><name>PT10237</name></trkpt>
<trkpt lat="53.466370" lon="05.884207"><ele>4.3</ele><time>2021-02-18T14:25:50Z</time><name>PT10238</name></trkpt>
<trkpt lat="53.466370" lon="05.884190"><ele>4.2</ele><time>2021-02-18T14:25:51Z</time><name>PT10239</name></trkpt>
<trkpt lat="53.466370" lon="05.884174"><ele>4.1</ele><time>2021-02-18T14:25:52Z</time><name>PT10240</name></trkpt>
<trkpt lat="53.466371" lon="05.884159"><ele>4</ele><time>2021-02-18T14:25:53Z</time><name>PT10241</name></trkpt>
<trkpt lat="53.466370" lon="05.884142"><ele>3.8</ele><time>2021-02-18T14:25:54Z</time><name>PT10242</name></trkpt>
<trkpt lat="53.466369" lon="05.884125"><ele>4.2</ele><time>2021-02-18T14:25:55Z</time><name>PT10243</name></trkpt>
<trkpt lat="53.466368" lon="05.884108"><ele>4.4</ele><time>2021-02-18T14:25:56Z</time><name>PT10244</name></trkpt>
<trkpt lat="53.466368" lon="05.884089"><ele>4.4</ele><time>2021-02-18T14:25:57Z</time><name>PT10245</name></trkpt>
<trkpt lat="53.466369" lon="05.884069"><ele>4.5</ele><time>2021-02-18T14:25:58Z</time><name>PT10246</name></trkpt>
<trkpt lat="53.466369" lon="05.884049"><ele>4.5</ele><time>2021-02-18T14:25:59Z</time><name>PT10247</name></trkpt>
<trkpt lat="53.466370" lon="05.884027"><ele>4.2</ele><time>2021-02-18T14:26:00Z</time><name>PT10248</name></trkpt>
<trkpt lat="53.466371" lon="05.884006"><ele>4.2</ele><time>2021-02-18T14:26:01Z</time><name>PT10249</name></trkpt>
<trkpt lat="53.466371" lon="05.883986"><ele>4.2</ele><time>2021-02-18T14:26:02Z</time><name>PT10250</name></trkpt>
<trkpt lat="53.466372" lon="05.883967"><ele>4.2</ele><time>2021-02-18T14:26:03Z</time><name>PT10251</name></trkpt>
<trkpt lat="53.466372" lon="05.883948"><ele>4.2</ele><time>2021-02-18T14:26:04Z</time><name>PT10252</name></trkpt>
<trkpt lat="53.466372" lon="05.883931"><ele>4.2</ele><time>2021-02-18T14:26:05Z</time><name>PT10253</name></trkpt>
<trkpt lat="53.466371" lon="05.883912"><ele>4</ele><time>2021-02-18T14:26:06Z</time><name>PT10254</name></trkpt>
<trkpt lat="53.466370" lon="05.883892"><ele>4</ele><time>2021-02-18T14:26:07Z</time><name>PT10255</name></trkpt>
<trkpt lat="53.466369" lon="05.883874"><ele>3.9</ele><time>2021-02-18T14:26:08Z</time><name>PT10256</name></trkpt>
<trkpt lat="53.466366" lon="05.883856"><ele>3.9</ele><time>2021-02-18T14:26:09Z</time><name>PT10257</name></trkpt>
<trkpt lat="53.466364" lon="05.883837"><ele>4</ele><time>2021-02-18T14:26:10Z</time><name>PT10258</name></trkpt>
<trkpt lat="53.466363" lon="05.883819"><ele>4.1</ele><time>2021-02-18T14:26:11Z</time><name>PT10259</name></trkpt>
<trkpt lat="53.466361" lon="05.883804"><ele>4.2</ele><time>2021-02-18T14:26:12Z</time><name>PT10260</name></trkpt>
<trkpt lat="53.466361" lon="05.883786"><ele>4.2</ele><time>2021-02-18T14:26:13Z</time><name>PT10261</name></trkpt>
<trkpt lat="53.466361" lon="05.883769"><ele>4.3</ele><time>2021-02-18T14:26:14Z</time><name>PT10262</name></trkpt>
<trkpt lat="53.466361" lon="05.883750"><ele>4.4</ele><time>2021-02-18T14:26:15Z</time><name>PT10263</name></trkpt>
<trkpt lat="53.466362" lon="05.883729"><ele>4.4</ele><time>2021-02-18T14:26:16Z</time><name>PT10264</name></trkpt>
<trkpt lat="53.466362" lon="05.883711"><ele>4.2</ele><time>2021-02-18T14:26:17Z</time><name>PT10265</name></trkpt>
<trkpt lat="53.466361" lon="05.883693"><ele>4.2</ele><time>2021-02-18T14:26:18Z</time><name>PT10266</name></trkpt>
<trkpt lat="53.466362" lon="05.883673"><ele>3.9</ele><time>2021-02-18T14:26:19Z</time><name>PT10267</name></trkpt>
<trkpt lat="53.466361" lon="05.883653"><ele>3.9</ele><time>2021-02-18T14:26:20Z</time><name>PT10268</name></trkpt>
<trkpt lat="53.466360" lon="05.883634"><ele>3.9</ele><time>2021-02-18T14:26:21Z</time><name>PT10269</name></trkpt>
<trkpt lat="53.466359" lon="05.883615"><ele>3.9</ele><time>2021-02-18T14:26:22Z</time><name>PT10270</name></trkpt>
<trkpt lat="53.466359" lon="05.883595"><ele>4</ele><time>2021-02-18T14:26:23Z</time><name>PT10271</name></trkpt>
<trkpt lat="53.466359" lon="05.883576"><ele>4.2</ele><time>2021-02-18T14:26:24Z</time><name>PT10272</name></trkpt>
<trkpt lat="53.466357" lon="05.883557"><ele>4.2</ele><time>2021-02-18T14:26:25Z</time><name>PT10273</name></trkpt>
<trkpt lat="53.466355" lon="05.883542"><ele>4.2</ele><time>2021-02-18T14:26:26Z</time><name>PT10274</name></trkpt>
<trkpt lat="53.466354" lon="05.883527"><ele>4.2</ele><time>2021-02-18T14:26:27Z</time><name>PT10275</name></trkpt>
<trkpt lat="53.466354" lon="05.883509"><ele>3.9</ele><time>2021-02-18T14:26:28Z</time><name>PT10276</name></trkpt>
<trkpt lat="53.466354" lon="05.883489"><ele>3.9</ele><time>2021-02-18T14:26:29Z</time><name>PT10277</name></trkpt>
<trkpt lat="53.466353" lon="05.883471"><ele>3.8</ele><time>2021-02-18T14:26:30Z</time><name>PT10278</name></trkpt>
<trkpt lat="53.466349" lon="05.883453"><ele>3.9</ele><time>2021-02-18T14:26:31Z</time><name>PT10279</name></trkpt>
<trkpt lat="53.466346" lon="05.883436"><ele>3.9</ele><time>2021-02-18T14:26:32Z</time><name>PT10280</name></trkpt>
<trkpt lat="53.466344" lon="05.883421"><ele>4</ele><time>2021-02-18T14:26:33Z</time><name>PT10281</name></trkpt>
<trkpt lat="53.466342" lon="05.883407"><ele>3.9</ele><time>2021-02-18T14:26:34Z</time><name>PT10282</name></trkpt>
<trkpt lat="53.466340" lon="05.883392"><ele>4.2</ele><time>2021-02-18T14:26:35Z</time><name>PT10283</name></trkpt>
<trkpt lat="53.466342" lon="05.883374"><ele>4.3</ele><time>2021-02-18T14:26:36Z</time><name>PT10284</name></trkpt>
<trkpt lat="53.466343" lon="05.883354"><ele>4.5</ele><time>2021-02-18T14:26:37Z</time><name>PT10285</name></trkpt>
<trkpt lat="53.466344" lon="05.883336"><ele>4.4</ele><time>2021-02-18T14:26:38Z</time><name>PT10286</name></trkpt>
<trkpt lat="53.466342" lon="05.883316"><ele>4.2</ele><time>2021-02-18T14:26:39Z</time><name>PT10287</name></trkpt>
<trkpt lat="53.466340" lon="05.883297"><ele>4.1</ele><time>2021-02-18T14:26:40Z</time><name>PT10288</name></trkpt>
<trkpt lat="53.466338" lon="05.883279"><ele>4</ele><time>2021-02-18T14:26:41Z</time><name>PT10289</name></trkpt>
<trkpt lat="53.466336" lon="05.883260"><ele>3.9</ele><time>2021-02-18T14:26:42Z</time><name>PT10290</name></trkpt>
<trkpt lat="53.466335" lon="05.883245"><ele>3.9</ele><time>2021-02-18T14:26:43Z</time><name>PT10291</name></trkpt>
<trkpt lat="53.466333" lon="05.883227"><ele>4.1</ele><time>2021-02-18T14:26:44Z</time><name>PT10292</name></trkpt>
<trkpt lat="53.466333" lon="05.883209"><ele>4</ele><time>2021-02-18T14:26:45Z</time><name>PT10293</name></trkpt>
<trkpt lat="53.466333" lon="05.883190"><ele>4.3</ele><time>2021-02-18T14:26:46Z</time><name>PT10294</name></trkpt>
<trkpt lat="53.466332" lon="05.883170"><ele>4.5</ele><time>2021-02-18T14:26:47Z</time><name>PT10295</name></trkpt>
<trkpt lat="53.466333" lon="05.883151"><ele>4.5</ele><time>2021-02-18T14:26:48Z</time><name>PT10296</name></trkpt>
<trkpt lat="53.466334" lon="05.883131"><ele>4.5</ele><time>2021-02-18T14:26:49Z</time><name>PT10297</name></trkpt>
<trkpt lat="53.466334" lon="05.883113"><ele>4.3</ele><time>2021-02-18T14:26:50Z</time><name>PT10298</name></trkpt>
<trkpt lat="53.466334" lon="05.883095"><ele>4.3</ele><time>2021-02-18T14:26:51Z</time><name>PT10299</name></trkpt>
<trkpt lat="53.466333" lon="05.883076"><ele>4.3</ele><time>2021-02-18T14:26:52Z</time><name>PT10300</name></trkpt>
<trkpt lat="53.466331" lon="05.883059"><ele>4.3</ele><time>2021-02-18T14:26:53Z</time><name>PT10301</name></trkpt>
<trkpt lat="53.466329" lon="05.883041"><ele>4.3</ele><time>2021-02-18T14:26:54Z</time><name>PT10302</name></trkpt>
<trkpt lat="53.466327" lon="05.883022"><ele>4.2</ele><time>2021-02-18T14:26:55Z</time><name>PT10303</name></trkpt>
<trkpt lat="53.466326" lon="05.883003"><ele>4.3</ele><time>2021-02-18T14:26:56Z</time><name>PT10304</name></trkpt>
<trkpt lat="53.466324" lon="05.882984"><ele>4.3</ele><time>2021-02-18T14:26:57Z</time><name>PT10305</name></trkpt>
<trkpt lat="53.466324" lon="05.882963"><ele>4.4</ele><time>2021-02-18T14:26:58Z</time><name>PT10306</name></trkpt>
<trkpt lat="53.466324" lon="05.882945"><ele>4.4</ele><time>2021-02-18T14:26:59Z</time><name>PT10307</name></trkpt>
<trkpt lat="53.466324" lon="05.882925"><ele>4.4</ele><time>2021-02-18T14:27:00Z</time><name>PT10308</name></trkpt>
<trkpt lat="53.466325" lon="05.882906"><ele>4.2</ele><time>2021-02-18T14:27:01Z</time><name>PT10309</name></trkpt>
<trkpt lat="53.466324" lon="05.882886"><ele>4.3</ele><time>2021-02-18T14:27:02Z</time><name>PT10310</name></trkpt>
<trkpt lat="53.466322" lon="05.882869"><ele>4.2</ele><time>2021-02-18T14:27:03Z</time><name>PT10311</name></trkpt>
<trkpt lat="53.466321" lon="05.882852"><ele>4.2</ele><time>2021-02-18T14:27:04Z</time><name>PT10312</name></trkpt>
<trkpt lat="53.466321" lon="05.882834"><ele>4.2</ele><time>2021-02-18T14:27:05Z</time><name>PT10313</name></trkpt>
<trkpt lat="53.466322" lon="05.882816"><ele>4.1</ele><time>2021-02-18T14:27:06Z</time><name>PT10314</name></trkpt>
<trkpt lat="53.466322" lon="05.882797"><ele>4.1</ele><time>2021-02-18T14:27:07Z</time><name>PT10315</name></trkpt>
<trkpt lat="53.466321" lon="05.882780"><ele>4.2</ele><time>2021-02-18T14:27:08Z</time><name>PT10316</name></trkpt>
<trkpt lat="53.466320" lon="05.882761"><ele>4.5</ele><time>2021-02-18T14:27:09Z</time><name>PT10317</name></trkpt>
<trkpt lat="53.466317" lon="05.882743"><ele>4.7</ele><time>2021-02-18T14:27:10Z</time><name>PT10318</name></trkpt>
<trkpt lat="53.466315" lon="05.882726"><ele>4.8</ele><time>2021-02-18T14:27:11Z</time><name>PT10319</name></trkpt>
<trkpt lat="53.466312" lon="05.882712"><ele>4.7</ele><time>2021-02-18T14:27:12Z</time><name>PT10320</name></trkpt>
<trkpt lat="53.466309" lon="05.882696"><ele>4.5</ele><time>2021-02-18T14:27:13Z</time><name>PT10321</name></trkpt>
<trkpt lat="53.466307" lon="05.882679"><ele>4.2</ele><time>2021-02-18T14:27:14Z</time><name>PT10322</name></trkpt>
<trkpt lat="53.466306" lon="05.882662"><ele>4.2</ele><time>2021-02-18T14:27:15Z</time><name>PT10323</name></trkpt>
<trkpt lat="53.466304" lon="05.882645"><ele>4.1</ele><time>2021-02-18T14:27:16Z</time><name>PT10324</name></trkpt>
<trkpt lat="53.466303" lon="05.882627"><ele>4.1</ele><time>2021-02-18T14:27:17Z</time><name>PT10325</name></trkpt>
<trkpt lat="53.466300" lon="05.882610"><ele>3.9</ele><time>2021-02-18T14:27:18Z</time><name>PT10326</name></trkpt>
<trkpt lat="53.466297" lon="05.882594"><ele>4</ele><time>2021-02-18T14:27:19Z</time><name>PT10327</name></trkpt>
<trkpt lat="53.466296" lon="05.882577"><ele>4.1</ele><time>2021-02-18T14:27:20Z</time><name>PT10328</name></trkpt>
<trkpt lat="53.466294" lon="05.882561"><ele>4</ele><time>2021-02-18T14:27:21Z</time><name>PT10329</name></trkpt>
<trkpt lat="53.466292" lon="05.882543"><ele>4.2</ele><time>2021-02-18T14:27:22Z</time><name>PT10330</name></trkpt>
<trkpt lat="53.466291" lon="05.882523"><ele>4.1</ele><time>2021-02-18T14:27:23Z</time><name>PT10331</name></trkpt>
<trkpt lat="53.466291" lon="05.882503"><ele>4.1</ele><time>2021-02-18T14:27:24Z</time><name>PT10332</name></trkpt>
<trkpt lat="53.466292" lon="05.882484"><ele>4.1</ele><time>2021-02-18T14:27:25Z</time><name>PT10333</name></trkpt>
<trkpt lat="53.466291" lon="05.882465"><ele>4.3</ele><time>2021-02-18T14:27:26Z</time><name>PT10334</name></trkpt>
<trkpt lat="53.466289" lon="05.882448"><ele>4.3</ele><time>2021-02-18T14:27:27Z</time><name>PT10335</name></trkpt>
<trkpt lat="53.466286" lon="05.882430"><ele>4.2</ele><time>2021-02-18T14:27:28Z</time><name>PT10336</name></trkpt>
<trkpt lat="53.466284" lon="05.882414"><ele>4.2</ele><time>2021-02-18T14:27:29Z</time><name>PT10337</name></trkpt>
<trkpt lat="53.466282" lon="05.882399"><ele>4.1</ele><time>2021-02-18T14:27:30Z</time><name>PT10338</name></trkpt>
<trkpt lat="53.466282" lon="05.882383"><ele>4</ele><time>2021-02-18T14:27:31Z</time><name>PT10339</name></trkpt>
<trkpt lat="53.466282" lon="05.882365"><ele>4.2</ele><time>2021-02-18T14:27:32Z</time><name>PT10340</name></trkpt>
<trkpt lat="53.466281" lon="05.882346"><ele>4.2</ele><time>2021-02-18T14:27:33Z</time><name>PT10341</name></trkpt>
<trkpt lat="53.466281" lon="05.882327"><ele>4.4</ele><time>2021-02-18T14:27:34Z</time><name>PT10342</name></trkpt>
<trkpt lat="53.466280" lon="05.882308"><ele>4.5</ele><time>2021-02-18T14:27:35Z</time><name>PT10343</name></trkpt>
<trkpt lat="53.466279" lon="05.882289"><ele>4.6</ele><time>2021-02-18T14:27:36Z</time><name>PT10344</name></trkpt>
<trkpt lat="53.466277" lon="05.882270"><ele>4.7</ele><time>2021-02-18T14:27:37Z</time><name>PT10345</name></trkpt>
<trkpt lat="53.466276" lon="05.882252"><ele>4.7</ele><time>2021-02-18T14:27:38Z</time><name>PT10346</name></trkpt>
<trkpt lat="53.466274" lon="05.882235"><ele>4.3</ele><time>2021-02-18T14:27:39Z</time><name>PT10347</name></trkpt>
<trkpt lat="53.466272" lon="05.882218"><ele>4.2</ele><time>2021-02-18T14:27:40Z</time><name>PT10348</name></trkpt>
<trkpt lat="53.466270" lon="05.882201"><ele>4.2</ele><time>2021-02-18T14:27:41Z</time><name>PT10349</name></trkpt>
<trkpt lat="53.466270" lon="05.882182"><ele>4.4</ele><time>2021-02-18T14:27:42Z</time><name>PT10350</name></trkpt>
<trkpt lat="53.466270" lon="05.882161"><ele>4.4</ele><time>2021-02-18T14:27:43Z</time><name>PT10351</name></trkpt>
<trkpt lat="53.466271" lon="05.882142"><ele>4.5</ele><time>2021-02-18T14:27:44Z</time><name>PT10352</name></trkpt>
<trkpt lat="53.466271" lon="05.882124"><ele>4.5</ele><time>2021-02-18T14:27:45Z</time><name>PT10353</name></trkpt>
<trkpt lat="53.466271" lon="05.882107"><ele>4.3</ele><time>2021-02-18T14:27:46Z</time><name>PT10354</name></trkpt>
<trkpt lat="53.466269" lon="05.882087"><ele>4.4</ele><time>2021-02-18T14:27:47Z</time><name>PT10355</name></trkpt>
<trkpt lat="53.466269" lon="05.882069"><ele>4.3</ele><time>2021-02-18T14:27:48Z</time><name>PT10356</name></trkpt>
<trkpt lat="53.466268" lon="05.882053"><ele>4.2</ele><time>2021-02-18T14:27:49Z</time><name>PT10357</name></trkpt>
<trkpt lat="53.466266" lon="05.882035"><ele>4.3</ele><time>2021-02-18T14:27:50Z</time><name>PT10358</name></trkpt>
<trkpt lat="53.466265" lon="05.882018"><ele>4.2</ele><time>2021-02-18T14:27:51Z</time><name>PT10359</name></trkpt>
<trkpt lat="53.466264" lon="05.881999"><ele>4.1</ele><time>2021-02-18T14:27:52Z</time><name>PT10360</name></trkpt>
<trkpt lat="53.466262" lon="05.881979"><ele>4.1</ele><time>2021-02-18T14:27:53Z</time><name>PT10361</name></trkpt>
<trkpt lat="53.466261" lon="05.881961"><ele>4.1</ele><time>2021-02-18T14:27:54Z</time><name>PT10362</name></trkpt>
<trkpt lat="53.466259" lon="05.881941"><ele>4.1</ele><time>2021-02-18T14:27:55Z</time><name>PT10363</name></trkpt>
<trkpt lat="53.466256" lon="05.881923"><ele>4</ele><time>2021-02-18T14:27:56Z</time><name>PT10364</name></trkpt>
<trkpt lat="53.466254" lon="05.881904"><ele>4.2</ele><time>2021-02-18T14:27:57Z</time><name>PT10365</name></trkpt>
<trkpt lat="53.466251" lon="05.881884"><ele>4.3</ele><time>2021-02-18T14:27:58Z</time><name>PT10366</name></trkpt>
<trkpt lat="53.466250" lon="05.881864"><ele>4.3</ele><time>2021-02-18T14:27:59Z</time><name>PT10367</name></trkpt>
<trkpt lat="53.466249" lon="05.881847"><ele>4.3</ele><time>2021-02-18T14:28:00Z</time><name>PT10368</name></trkpt>
<trkpt lat="53.466248" lon="05.881827"><ele>4.2</ele><time>2021-02-18T14:28:01Z</time><name>PT10369</name></trkpt>
<trkpt lat="53.466248" lon="05.881809"><ele>3.9</ele><time>2021-02-18T14:28:02Z</time><name>PT10370</name></trkpt>
<trkpt lat="53.466248" lon="05.881790"><ele>3.7</ele><time>2021-02-18T14:28:03Z</time><name>PT10371</name></trkpt>
<trkpt lat="53.466247" lon="05.881772"><ele>3.5</ele><time>2021-02-18T14:28:04Z</time><name>PT10372</name></trkpt>
<trkpt lat="53.466247" lon="05.881752"><ele>3.5</ele><time>2021-02-18T14:28:05Z</time><name>PT10373</name></trkpt>
<trkpt lat="53.466249" lon="05.881732"><ele>3.5</ele><time>2021-02-18T14:28:06Z</time><name>PT10374</name></trkpt>
<trkpt lat="53.466250" lon="05.881713"><ele>3.7</ele><time>2021-02-18T14:28:07Z</time><name>PT10375</name></trkpt>
<trkpt lat="53.466248" lon="05.881694"><ele>3.8</ele><time>2021-02-18T14:28:08Z</time><name>PT10376</name></trkpt>
<trkpt lat="53.466246" lon="05.881675"><ele>3.9</ele><time>2021-02-18T14:28:09Z</time><name>PT10377</name></trkpt>
<trkpt lat="53.466245" lon="05.881655"><ele>4.2</ele><time>2021-02-18T14:28:10Z</time><name>PT10378</name></trkpt>
<trkpt lat="53.466244" lon="05.881635"><ele>4.1</ele><time>2021-02-18T14:28:11Z</time><name>PT10379</name></trkpt>
<trkpt lat="53.466242" lon="05.881614"><ele>4.3</ele><time>2021-02-18T14:28:12Z</time><name>PT10380</name></trkpt>
<trkpt lat="53.466241" lon="05.881595"><ele>4.4</ele><time>2021-02-18T14:28:13Z</time><name>PT10381</name></trkpt>
<trkpt lat="53.466240" lon="05.881580"><ele>4.5</ele><time>2021-02-18T14:28:14Z</time><name>PT10382</name></trkpt>
<trkpt lat="53.466240" lon="05.881563"><ele>4.2</ele><time>2021-02-18T14:28:15Z</time><name>PT10383</name></trkpt>
<trkpt lat="53.466237" lon="05.881546"><ele>4</ele><time>2021-02-18T14:28:16Z</time><name>PT10384</name></trkpt>
<trkpt lat="53.466235" lon="05.881525"><ele>3.9</ele><time>2021-02-18T14:28:17Z</time><name>PT10385</name></trkpt>
<trkpt lat="53.466233" lon="05.881507"><ele>3.7</ele><time>2021-02-18T14:28:18Z</time><name>PT10386</name></trkpt>
<trkpt lat="53.466232" lon="05.881488"><ele>4.1</ele><time>2021-02-18T14:28:19Z</time><name>PT10387</name></trkpt>
<trkpt lat="53.466231" lon="05.881469"><ele>4.2</ele><time>2021-02-18T14:28:20Z</time><name>PT10388</name></trkpt>
<trkpt lat="53.466231" lon="05.881451"><ele>4.5</ele><time>2021-02-18T14:28:21Z</time><name>PT10389</name></trkpt>
<trkpt lat="53.466229" lon="05.881433"><ele>4.6</ele><time>2021-02-18T14:28:22Z</time><name>PT10390</name></trkpt>
<trkpt lat="53.466226" lon="05.881415"><ele>4.4</ele><time>2021-02-18T14:28:23Z</time><name>PT10391</name></trkpt>
<trkpt lat="53.466225" lon="05.881397"><ele>4.6</ele><time>2021-02-18T14:28:24Z</time><name>PT10392</name></trkpt>
<trkpt lat="53.466224" lon="05.881379"><ele>4.7</ele><time>2021-02-18T14:28:25Z</time><name>PT10393</name></trkpt>
<trkpt lat="53.466221" lon="05.881361"><ele>4.7</ele><time>2021-02-18T14:28:26Z</time><name>PT10394</name></trkpt>
<trkpt lat="53.466219" lon="05.881342"><ele>4.8</ele><time>2021-02-18T14:28:27Z</time><name>PT10395</name></trkpt>
<trkpt lat="53.466218" lon="05.881321"><ele>4.4</ele><time>2021-02-18T14:28:28Z</time><name>PT10396</name></trkpt>
<trkpt lat="53.466216" lon="05.881300"><ele>4.2</ele><time>2021-02-18T14:28:29Z</time><name>PT10397</name></trkpt>
<trkpt lat="53.466215" lon="05.881280"><ele>4.2</ele><time>2021-02-18T14:28:30Z</time><name>PT10398</name></trkpt>
<trkpt lat="53.466215" lon="05.881261"><ele>4.1</ele><time>2021-02-18T14:28:31Z</time><name>PT10399</name></trkpt>
<trkpt lat="53.466215" lon="05.881239"><ele>4</ele><time>2021-02-18T14:28:32Z</time><name>PT10400</name></trkpt>
<trkpt lat="53.466214" lon="05.881217"><ele>3.8</ele><time>2021-02-18T14:28:33Z</time><name>PT10401</name></trkpt>
<trkpt lat="53.466214" lon="05.881195"><ele>3.8</ele><time>2021-02-18T14:28:34Z</time><name>PT10402</name></trkpt>
<trkpt lat="53.466214" lon="05.881177"><ele>3.8</ele><time>2021-02-18T14:28:35Z</time><name>PT10403</name></trkpt>
<trkpt lat="53.466214" lon="05.881159"><ele>3.9</ele><time>2021-02-18T14:28:36Z</time><name>PT10404</name></trkpt>
<trkpt lat="53.466211" lon="05.881139"><ele>4.2</ele><time>2021-02-18T14:28:37Z</time><name>PT10405</name></trkpt>
<trkpt lat="53.466212" lon="05.881118"><ele>4.3</ele><time>2021-02-18T14:28:38Z</time><name>PT10406</name></trkpt>
<trkpt lat="53.466210" lon="05.881100"><ele>4.4</ele><time>2021-02-18T14:28:39Z</time><name>PT10407</name></trkpt>
<trkpt lat="53.466208" lon="05.881083"><ele>4.4</ele><time>2021-02-18T14:28:40Z</time><name>PT10408</name></trkpt>
<trkpt lat="53.466206" lon="05.881065"><ele>4.4</ele><time>2021-02-18T14:28:41Z</time><name>PT10409</name></trkpt>
<trkpt lat="53.466206" lon="05.881047"><ele>4.6</ele><time>2021-02-18T14:28:42Z</time><name>PT10410</name></trkpt>
<trkpt lat="53.466205" lon="05.881029"><ele>4.6</ele><time>2021-02-18T14:28:43Z</time><name>PT10411</name></trkpt>
<trkpt lat="53.466204" lon="05.881012"><ele>4.7</ele><time>2021-02-18T14:28:44Z</time><name>PT10412</name></trkpt>
<trkpt lat="53.466205" lon="05.880992"><ele>5.2</ele><time>2021-02-18T14:28:45Z</time><name>PT10413</name></trkpt>
<trkpt lat="53.466204" lon="05.880973"><ele>5.1</ele><time>2021-02-18T14:28:46Z</time><name>PT10414</name></trkpt>
<trkpt lat="53.466202" lon="05.880958"><ele>5.1</ele><time>2021-02-18T14:28:47Z</time><name>PT10415</name></trkpt>
<trkpt lat="53.466199" lon="05.880940"><ele>5</ele><time>2021-02-18T14:28:48Z</time><name>PT10416</name></trkpt>
<trkpt lat="53.466197" lon="05.880920"><ele>4.8</ele><time>2021-02-18T14:28:49Z</time><name>PT10417</name></trkpt>
<trkpt lat="53.466195" lon="05.880902"><ele>4.7</ele><time>2021-02-18T14:28:50Z</time><name>PT10418</name></trkpt>
<trkpt lat="53.466195" lon="05.880884"><ele>4.9</ele><time>2021-02-18T14:28:51Z</time><name>PT10419</name></trkpt>
<trkpt lat="53.466194" lon="05.880867"><ele>5</ele><time>2021-02-18T14:28:52Z</time><name>PT10420</name></trkpt>
<trkpt lat="53.466193" lon="05.880850"><ele>5.2</ele><time>2021-02-18T14:28:53Z</time><name>PT10421</name></trkpt>
<trkpt lat="53.466193" lon="05.880833"><ele>5.1</ele><time>2021-02-18T14:28:54Z</time><name>PT10422</name></trkpt>
<trkpt lat="53.466195" lon="05.880817"><ele>4.8</ele><time>2021-02-18T14:28:55Z</time><name>PT10423</name></trkpt>
<trkpt lat="53.466194" lon="05.880798"><ele>4.7</ele><time>2021-02-18T14:28:56Z</time><name>PT10424</name></trkpt>
<trkpt lat="53.466192" lon="05.880780"><ele>4.6</ele><time>2021-02-18T14:28:57Z</time><name>PT10425</name></trkpt>
<trkpt lat="53.466191" lon="05.880761"><ele>4.3</ele><time>2021-02-18T14:28:58Z</time><name>PT10426</name></trkpt>
<trkpt lat="53.466189" lon="05.880743"><ele>4.2</ele><time>2021-02-18T14:28:59Z</time><name>PT10427</name></trkpt>
<trkpt lat="53.466189" lon="05.880727"><ele>4.3</ele><time>2021-02-18T14:29:00Z</time><name>PT10428</name></trkpt>
<trkpt lat="53.466188" lon="05.880710"><ele>4.2</ele><time>2021-02-18T14:29:01Z</time><name>PT10429</name></trkpt>
<trkpt lat="53.466188" lon="05.880692"><ele>4.5</ele><time>2021-02-18T14:29:02Z</time><name>PT10430</name></trkpt>
<trkpt lat="53.466189" lon="05.880672"><ele>4.3</ele><time>2021-02-18T14:29:03Z</time><name>PT10431</name></trkpt>
<trkpt lat="53.466190" lon="05.880654"><ele>4.2</ele><time>2021-02-18T14:29:04Z</time><name>PT10432</name></trkpt>
<trkpt lat="53.466190" lon="05.880636"><ele>4</ele><time>2021-02-18T14:29:05Z</time><name>PT10433</name></trkpt>
<trkpt lat="53.466190" lon="05.880619"><ele>3.8</ele><time>2021-02-18T14:29:06Z</time><name>PT10434</name></trkpt>
<trkpt lat="53.466188" lon="05.880601"><ele>3.9</ele><time>2021-02-18T14:29:07Z</time><name>PT10435</name></trkpt>
<trkpt lat="53.466187" lon="05.880583"><ele>4.2</ele><time>2021-02-18T14:29:08Z</time><name>PT10436</name></trkpt>
<trkpt lat="53.466186" lon="05.880566"><ele>4.5</ele><time>2021-02-18T14:29:09Z</time><name>PT10437</name></trkpt>
<trkpt lat="53.466187" lon="05.880549"><ele>4.6</ele><time>2021-02-18T14:29:10Z</time><name>PT10438</name></trkpt>
<trkpt lat="53.466188" lon="05.880533"><ele>4.7</ele><time>2021-02-18T14:29:11Z</time><name>PT10439</name></trkpt>
<trkpt lat="53.466190" lon="05.880515"><ele>4.7</ele><time>2021-02-18T14:29:12Z</time><name>PT10440</name></trkpt>
<trkpt lat="53.466191" lon="05.880497"><ele>4.3</ele><time>2021-02-18T14:29:13Z</time><name>PT10441</name></trkpt>
<trkpt lat="53.466189" lon="05.880480"><ele>4.4</ele><time>2021-02-18T14:29:14Z</time><name>PT10442</name></trkpt>
<trkpt lat="53.466187" lon="05.880462"><ele>4.3</ele><time>2021-02-18T14:29:15Z</time><name>PT10443</name></trkpt>
<trkpt lat="53.466186" lon="05.880450"><ele>4.3</ele><time>2021-02-18T14:29:16Z</time><name>PT10444</name></trkpt>
<trkpt lat="53.466185" lon="05.880435"><ele>4.3</ele><time>2021-02-18T14:29:17Z</time><name>PT10445</name></trkpt>
<trkpt lat="53.466185" lon="05.880418"><ele>4.3</ele><time>2021-02-18T14:29:18Z</time><name>PT10446</name></trkpt>
<trkpt lat="53.466184" lon="05.880402"><ele>4.5</ele><time>2021-02-18T14:29:19Z</time><name>PT10447</name></trkpt>
<trkpt lat="53.466183" lon="05.880384"><ele>4.6</ele><time>2021-02-18T14:29:20Z</time><name>PT10448</name></trkpt>
<trkpt lat="53.466184" lon="05.880366"><ele>4.8</ele><time>2021-02-18T14:29:21Z</time><name>PT10449</name></trkpt>
<trkpt lat="53.466185" lon="05.880345"><ele>4.9</ele><time>2021-02-18T14:29:22Z</time><name>PT10450</name></trkpt>
<trkpt lat="53.466187" lon="05.880325"><ele>4.9</ele><time>2021-02-18T14:29:23Z</time><name>PT10451</name></trkpt>
<trkpt lat="53.466188" lon="05.880308"><ele>4.7</ele><time>2021-02-18T14:29:24Z</time><name>PT10452</name></trkpt>
<trkpt lat="53.466189" lon="05.880289"><ele>4.6</ele><time>2021-02-18T14:29:25Z</time><name>PT10453</name></trkpt>
<trkpt lat="53.466188" lon="05.880271"><ele>4.6</ele><time>2021-02-18T14:29:26Z</time><name>PT10454</name></trkpt>
<trkpt lat="53.466188" lon="05.880252"><ele>4.6</ele><time>2021-02-18T14:29:27Z</time><name>PT10455</name></trkpt>
<trkpt lat="53.466187" lon="05.880233"><ele>4.4</ele><time>2021-02-18T14:29:28Z</time><name>PT10456</name></trkpt>
<trkpt lat="53.466185" lon="05.880214"><ele>4.5</ele><time>2021-02-18T14:29:29Z</time><name>PT10457</name></trkpt>
<trkpt lat="53.466184" lon="05.880194"><ele>4.4</ele><time>2021-02-18T14:29:30Z</time><name>PT10458</name></trkpt>
<trkpt lat="53.466184" lon="05.880175"><ele>4.2</ele><time>2021-02-18T14:29:31Z</time><name>PT10459</name></trkpt>
<trkpt lat="53.466182" lon="05.880159"><ele>4.2</ele><time>2021-02-18T14:29:32Z</time><name>PT10460</name></trkpt>
<trkpt lat="53.466181" lon="05.880141"><ele>4.3</ele><time>2021-02-18T14:29:33Z</time><name>PT10461</name></trkpt>
<trkpt lat="53.466178" lon="05.880124"><ele>4.4</ele><time>2021-02-18T14:29:34Z</time><name>PT10462</name></trkpt>
<trkpt lat="53.466177" lon="05.880105"><ele>4.3</ele><time>2021-02-18T14:29:35Z</time><name>PT10463</name></trkpt>
<trkpt lat="53.466178" lon="05.880086"><ele>4.6</ele><time>2021-02-18T14:29:36Z</time><name>PT10464</name></trkpt>
<trkpt lat="53.466179" lon="05.880067"><ele>4.6</ele><time>2021-02-18T14:29:37Z</time><name>PT10465</name></trkpt>
<trkpt lat="53.466179" lon="05.880048"><ele>4.4</ele><time>2021-02-18T14:29:38Z</time><name>PT10466</name></trkpt>
<trkpt lat="53.466178" lon="05.880029"><ele>4.3</ele><time>2021-02-18T14:29:39Z</time><name>PT10467</name></trkpt>
<trkpt lat="53.466178" lon="05.880011"><ele>4.4</ele><time>2021-02-18T14:29:40Z</time><name>PT10468</name></trkpt>
<trkpt lat="53.466178" lon="05.879992"><ele>4.3</ele><time>2021-02-18T14:29:41Z</time><name>PT10469</name></trkpt>
<trkpt lat="53.466176" lon="05.879975"><ele>4.4</ele><time>2021-02-18T14:29:42Z</time><name>PT10470</name></trkpt>
<trkpt lat="53.466174" lon="05.879958"><ele>4.6</ele><time>2021-02-18T14:29:43Z</time><name>PT10471</name></trkpt>
<trkpt lat="53.466175" lon="05.879943"><ele>4.7</ele><time>2021-02-18T14:29:44Z</time><name>PT10472</name></trkpt>
<trkpt lat="53.466177" lon="05.879927"><ele>4.6</ele><time>2021-02-18T14:29:45Z</time><name>PT10473</name></trkpt>
<trkpt lat="53.466179" lon="05.879911"><ele>4.7</ele><time>2021-02-18T14:29:46Z</time><name>PT10474</name></trkpt>
<trkpt lat="53.466181" lon="05.879895"><ele>4.7</ele><time>2021-02-18T14:29:47Z</time><name>PT10475</name></trkpt>
<trkpt lat="53.466181" lon="05.879879"><ele>4.5</ele><time>2021-02-18T14:29:48Z</time><name>PT10476</name></trkpt>
<trkpt lat="53.466181" lon="05.879863"><ele>4.5</ele><time>2021-02-18T14:29:49Z</time><name>PT10477</name></trkpt>
<trkpt lat="53.466178" lon="05.879845"><ele>4.2</ele><time>2021-02-18T14:29:50Z</time><name>PT10478</name></trkpt>
<trkpt lat="53.466176" lon="05.879826"><ele>4.3</ele><time>2021-02-18T14:29:51Z</time><name>PT10479</name></trkpt>
<trkpt lat="53.466175" lon="05.879810"><ele>4.3</ele><time>2021-02-18T14:29:52Z</time><name>PT10480</name></trkpt>
<trkpt lat="53.466173" lon="05.879794"><ele>4.2</ele><time>2021-02-18T14:29:53Z</time><name>PT10481</name></trkpt>
<trkpt lat="53.466171" lon="05.879776"><ele>4.2</ele><time>2021-02-18T14:29:54Z</time><name>PT10482</name></trkpt>
<trkpt lat="53.466170" lon="05.879756"><ele>4.1</ele><time>2021-02-18T14:29:55Z</time><name>PT10483</name></trkpt>
<trkpt lat="53.466170" lon="05.879737"><ele>4</ele><time>2021-02-18T14:29:56Z</time><name>PT10484</name></trkpt>
<trkpt lat="53.466170" lon="05.879718"><ele>4.1</ele><time>2021-02-18T14:29:57Z</time><name>PT10485</name></trkpt>
<trkpt lat="53.466169" lon="05.879699"><ele>4.3</ele><time>2021-02-18T14:29:58Z</time><name>PT10486</name></trkpt>
<trkpt lat="53.466168" lon="05.879680"><ele>4.2</ele><time>2021-02-18T14:29:59Z</time><name>PT10487</name></trkpt>
<trkpt lat="53.466167" lon="05.879660"><ele>4.4</ele><time>2021-02-18T14:30:00Z</time><name>PT10488</name></trkpt>
<trkpt lat="53.466165" lon="05.879642"><ele>4.4</ele><time>2021-02-18T14:30:01Z</time><name>PT10489</name></trkpt>
<trkpt lat="53.466163" lon="05.879626"><ele>4.3</ele><time>2021-02-18T14:30:02Z</time><name>PT10490</name></trkpt>
<trkpt lat="53.466164" lon="05.879609"><ele>4.2</ele><time>2021-02-18T14:30:03Z</time><name>PT10491</name></trkpt>
<trkpt lat="53.466164" lon="05.879593"><ele>3.9</ele><time>2021-02-18T14:30:04Z</time><name>PT10492</name></trkpt>
<trkpt lat="53.466162" lon="05.879576"><ele>3.9</ele><time>2021-02-18T14:30:05Z</time><name>PT10493</name></trkpt>
<trkpt lat="53.466161" lon="05.879558"><ele>3.8</ele><time>2021-02-18T14:30:06Z</time><name>PT10494</name></trkpt>
<trkpt lat="53.466161" lon="05.879539"><ele>3.9</ele><time>2021-02-18T14:30:07Z</time><name>PT10495</name></trkpt>
<trkpt lat="53.466159" lon="05.879525"><ele>4</ele><time>2021-02-18T14:30:08Z</time><name>PT10496</name></trkpt>
<trkpt lat="53.466156" lon="05.879511"><ele>4.1</ele><time>2021-02-18T14:30:09Z</time><name>PT10497</name></trkpt>
<trkpt lat="53.466157" lon="05.879494"><ele>4</ele><time>2021-02-18T14:30:10Z</time><name>PT10498</name></trkpt>
<trkpt lat="53.466159" lon="05.879479"><ele>4.1</ele><time>2021-02-18T14:30:11Z</time><name>PT10499</name></trkpt>
<trkpt lat="53.466159" lon="05.879463"><ele>4.1</ele><time>2021-02-18T14:30:12Z</time><name>PT10500</name></trkpt>
<trkpt lat="53.466157" lon="05.879446"><ele>4.1</ele><time>2021-02-18T14:30:13Z</time><name>PT10501</name></trkpt>
<trkpt lat="53.466154" lon="05.879428"><ele>4.2</ele><time>2021-02-18T14:30:14Z</time><name>PT10502</name></trkpt>
<trkpt lat="53.466151" lon="05.879414"><ele>4.2</ele><time>2021-02-18T14:30:15Z</time><name>PT10503</name></trkpt>
<trkpt lat="53.466149" lon="05.879401"><ele>4.3</ele><time>2021-02-18T14:30:16Z</time><name>PT10504</name></trkpt>
<trkpt lat="53.466147" lon="05.879383"><ele>4.4</ele><time>2021-02-18T14:30:17Z</time><name>PT10505</name></trkpt>
<trkpt lat="53.466147" lon="05.879366"><ele>4.6</ele><time>2021-02-18T14:30:18Z</time><name>PT10506</name></trkpt>
<trkpt lat="53.466146" lon="05.879349"><ele>4.7</ele><time>2021-02-18T14:30:19Z</time><name>PT10507</name></trkpt>
<trkpt lat="53.466144" lon="05.879332"><ele>4.7</ele><time>2021-02-18T14:30:20Z</time><name>PT10508</name></trkpt>
<trkpt lat="53.466143" lon="05.879313"><ele>4.5</ele><time>2021-02-18T14:30:21Z</time><name>PT10509</name></trkpt>
<trkpt lat="53.466143" lon="05.879296"><ele>4.3</ele><time>2021-02-18T14:30:22Z</time><name>PT10510</name></trkpt>
<trkpt lat="53.466142" lon="05.879279"><ele>4.2</ele><time>2021-02-18T14:30:23Z</time><name>PT10511</name></trkpt>
<trkpt lat="53.466141" lon="05.879263"><ele>4.2</ele><time>2021-02-18T14:30:24Z</time><name>PT10512</name></trkpt>
<trkpt lat="53.466140" lon="05.879247"><ele>4.1</ele><time>2021-02-18T14:30:25Z</time><name>PT10513</name></trkpt>
<trkpt lat="53.466140" lon="05.879228"><ele>4.3</ele><time>2021-02-18T14:30:26Z</time><name>PT10514</name></trkpt>
<trkpt lat="53.466141" lon="05.879209"><ele>4.4</ele><time>2021-02-18T14:30:27Z</time><name>PT10515</name></trkpt>
<trkpt lat="53.466140" lon="05.879193"><ele>4.4</ele><time>2021-02-18T14:30:28Z</time><name>PT10516</name></trkpt>
<trkpt lat="53.466138" lon="05.879180"><ele>4.5</ele><time>2021-02-18T14:30:29Z</time><name>PT10517</name></trkpt>
<trkpt lat="53.466133" lon="05.879169"><ele>4.5</ele><time>2021-02-18T14:30:30Z</time><name>PT10518</name></trkpt>
<trkpt lat="53.466129" lon="05.879157"><ele>4.6</ele><time>2021-02-18T14:30:31Z</time><name>PT10519</name></trkpt>
<trkpt lat="53.466126" lon="05.879144"><ele>4.7</ele><time>2021-02-18T14:30:32Z</time><name>PT10520</name></trkpt>
<trkpt lat="53.466125" lon="05.879129"><ele>4.5</ele><time>2021-02-18T14:30:33Z</time><name>PT10521</name></trkpt>
<trkpt lat="53.466124" lon="05.879114"><ele>4.2</ele><time>2021-02-18T14:30:34Z</time><name>PT10522</name></trkpt>
<trkpt lat="53.466123" lon="05.879098"><ele>4.1</ele><time>2021-02-18T14:30:35Z</time><name>PT10523</name></trkpt>
<trkpt lat="53.466123" lon="05.879081"><ele>3.7</ele><time>2021-02-18T14:30:36Z</time><name>PT10524</name></trkpt>
<trkpt lat="53.466122" lon="05.879065"><ele>3.7</ele><time>2021-02-18T14:30:37Z</time><name>PT10525</name></trkpt>
<trkpt lat="53.466121" lon="05.879050"><ele>3.7</ele><time>2021-02-18T14:30:38Z</time><name>PT10526</name></trkpt>
<trkpt lat="53.466120" lon="05.879034"><ele>3.7</ele><time>2021-02-18T14:30:39Z</time><name>PT10527</name></trkpt>
<trkpt lat="53.466120" lon="05.879016"><ele>3.7</ele><time>2021-02-18T14:30:40Z</time><name>PT10528</name></trkpt>
<trkpt lat="53.466118" lon="05.879000"><ele>3.8</ele><time>2021-02-18T14:30:41Z</time><name>PT10529</name></trkpt>
<trkpt lat="53.466116" lon="05.878984"><ele>3.7</ele><time>2021-02-18T14:30:42Z</time><name>PT10530</name></trkpt>
<trkpt lat="53.466113" lon="05.878967"><ele>4</ele><time>2021-02-18T14:30:43Z</time><name>PT10531</name></trkpt>
<trkpt lat="53.466114" lon="05.878951"><ele>4.2</ele><time>2021-02-18T14:30:44Z</time><name>PT10532</name></trkpt>
<trkpt lat="53.466113" lon="05.878936"><ele>4.5</ele><time>2021-02-18T14:30:45Z</time><name>PT10533</name></trkpt>
<trkpt lat="53.466110" lon="05.878920"><ele>4.6</ele><time>2021-02-18T14:30:46Z</time><name>PT10534</name></trkpt>
<trkpt lat="53.466110" lon="05.878904"><ele>4.7</ele><time>2021-02-18T14:30:47Z</time><name>PT10535</name></trkpt>
<trkpt lat="53.466109" lon="05.878890"><ele>4.5</ele><time>2021-02-18T14:30:48Z</time><name>PT10536</name></trkpt>
<trkpt lat="53.466109" lon="05.878873"><ele>4</ele><time>2021-02-18T14:30:49Z</time><name>PT10537</name></trkpt>
<trkpt lat="53.466109" lon="05.878857"><ele>3.9</ele><time>2021-02-18T14:30:50Z</time><name>PT10538</name></trkpt>
<trkpt lat="53.466110" lon="05.878841"><ele>4.1</ele><time>2021-02-18T14:30:51Z</time><name>PT10539</name></trkpt>
<trkpt lat="53.466111" lon="05.878827"><ele>4.2</ele><time>2021-02-18T14:30:52Z</time><name>PT10540</name></trkpt>
<trkpt lat="53.466111" lon="05.878813"><ele>4.1</ele><time>2021-02-18T14:30:53Z</time><name>PT10541</name></trkpt>
<trkpt lat="53.466111" lon="05.878797"><ele>4.2</ele><time>2021-02-18T14:30:54Z</time><name>PT10542</name></trkpt>
<trkpt lat="53.466111" lon="05.878780"><ele>4.2</ele><time>2021-02-18T14:30:55Z</time><name>PT10543</name></trkpt>
<trkpt lat="53.466109" lon="05.878764"><ele>4.2</ele><time>2021-02-18T14:30:56Z</time><name>PT10544</name></trkpt>
<trkpt lat="53.466108" lon="05.878749"><ele>4.4</ele><time>2021-02-18T14:30:57Z</time><name>PT10545</name></trkpt>
<trkpt lat="53.466106" lon="05.878733"><ele>4.4</ele><time>2021-02-18T14:30:58Z</time><name>PT10546</name></trkpt>
<trkpt lat="53.466105" lon="05.878719"><ele>4.5</ele><time>2021-02-18T14:30:59Z</time><name>PT10547</name></trkpt>
<trkpt lat="53.466105" lon="05.878705"><ele>4.6</ele><time>2021-02-18T14:31:00Z</time><name>PT10548</name></trkpt>
<trkpt lat="53.466106" lon="05.878687"><ele>4.6</ele><time>2021-02-18T14:31:01Z</time><name>PT10549</name></trkpt>
<trkpt lat="53.466105" lon="05.878670"><ele>4.6</ele><time>2021-02-18T14:31:02Z</time><name>PT10550</name></trkpt>
<trkpt lat="53.466103" lon="05.878654"><ele>4.5</ele><time>2021-02-18T14:31:03Z</time><name>PT10551</name></trkpt>
<trkpt lat="53.466099" lon="05.878638"><ele>4.3</ele><time>2021-02-18T14:31:04Z</time><name>PT10552</name></trkpt>
<trkpt lat="53.466098" lon="05.878623"><ele>4.2</ele><time>2021-02-18T14:31:05Z</time><name>PT10553</name></trkpt>
<trkpt lat="53.466096" lon="05.878608"><ele>4.2</ele><time>2021-02-18T14:31:06Z</time><name>PT10554</name></trkpt>
<trkpt lat="53.466095" lon="05.878590"><ele>3.9</ele><time>2021-02-18T14:31:07Z</time><name>PT10555</name></trkpt>
<trkpt lat="53.466096" lon="05.878570"><ele>3.9</ele><time>2021-02-18T14:31:08Z</time><name>PT10556</name></trkpt>
<trkpt lat="53.466094" lon="05.878550"><ele>3.8</ele><time>2021-02-18T14:31:09Z</time><name>PT10557</name></trkpt>
<trkpt lat="53.466093" lon="05.878532"><ele>3.7</ele><time>2021-02-18T14:31:10Z</time><name>PT10558</name></trkpt>
<trkpt lat="53.466092" lon="05.878515"><ele>4</ele><time>2021-02-18T14:31:11Z</time><name>PT10559</name></trkpt>
<trkpt lat="53.466090" lon="05.878502"><ele>4</ele><time>2021-02-18T14:31:12Z</time><name>PT10560</name></trkpt>
<trkpt lat="53.466088" lon="05.878488"><ele>4.1</ele><time>2021-02-18T14:31:13Z</time><name>PT10561</name></trkpt>
<trkpt lat="53.466089" lon="05.878472"><ele>4.1</ele><time>2021-02-18T14:31:14Z</time><name>PT10562</name></trkpt>
<trkpt lat="53.466089" lon="05.878455"><ele>4.1</ele><time>2021-02-18T14:31:15Z</time><name>PT10563</name></trkpt>
<trkpt lat="53.466089" lon="05.878438"><ele>4.2</ele><time>2021-02-18T14:31:16Z</time><name>PT10564</name></trkpt>
<trkpt lat="53.466089" lon="05.878419"><ele>4.2</ele><time>2021-02-18T14:31:17Z</time><name>PT10565</name></trkpt>
<trkpt lat="53.466089" lon="05.878403"><ele>4.2</ele><time>2021-02-18T14:31:18Z</time><name>PT10566</name></trkpt>
<trkpt lat="53.466089" lon="05.878387"><ele>4.4</ele><time>2021-02-18T14:31:19Z</time><name>PT10567</name></trkpt>
<trkpt lat="53.466089" lon="05.878368"><ele>4.5</ele><time>2021-02-18T14:31:20Z</time><name>PT10568</name></trkpt>
<trkpt lat="53.466091" lon="05.878348"><ele>4.7</ele><time>2021-02-18T14:31:21Z</time><name>PT10569</name></trkpt>
<trkpt lat="53.466092" lon="05.878329"><ele>4.7</ele><time>2021-02-18T14:31:22Z</time><name>PT10570</name></trkpt>
<trkpt lat="53.466093" lon="05.878310"><ele>4.7</ele><time>2021-02-18T14:31:23Z</time><name>PT10571</name></trkpt>
<trkpt lat="53.466093" lon="05.878290"><ele>4.7</ele><time>2021-02-18T14:31:24Z</time><name>PT10572</name></trkpt>
<trkpt lat="53.466093" lon="05.878271"><ele>4.6</ele><time>2021-02-18T14:31:25Z</time><name>PT10573</name></trkpt>
<trkpt lat="53.466092" lon="05.878253"><ele>4.5</ele><time>2021-02-18T14:31:26Z</time><name>PT10574</name></trkpt>
<trkpt lat="53.466091" lon="05.878237"><ele>4.6</ele><time>2021-02-18T14:31:27Z</time><name>PT10575</name></trkpt>
<trkpt lat="53.466092" lon="05.878220"><ele>4.5</ele><time>2021-02-18T14:31:28Z</time><name>PT10576</name></trkpt>
<trkpt lat="53.466092" lon="05.878201"><ele>4.3</ele><time>2021-02-18T14:31:29Z</time><name>PT10577</name></trkpt>
<trkpt lat="53.466092" lon="05.878183"><ele>4.6</ele><time>2021-02-18T14:31:30Z</time><name>PT10578</name></trkpt>
<trkpt lat="53.466091" lon="05.878166"><ele>5</ele><time>2021-02-18T14:31:31Z</time><name>PT10579</name></trkpt>
<trkpt lat="53.466091" lon="05.878148"><ele>5</ele><time>2021-02-18T14:31:32Z</time><name>PT10580</name></trkpt>
<trkpt lat="53.466089" lon="05.878132"><ele>5.2</ele><time>2021-02-18T14:31:33Z</time><name>PT10581</name></trkpt>
<trkpt lat="53.466087" lon="05.878116"><ele>5.2</ele><time>2021-02-18T14:31:34Z</time><name>PT10582</name></trkpt>
<trkpt lat="53.466087" lon="05.878099"><ele>4.8</ele><time>2021-02-18T14:31:35Z</time><name>PT10583</name></trkpt>
<trkpt lat="53.466088" lon="05.878081"><ele>4.6</ele><time>2021-02-18T14:31:36Z</time><name>PT10584</name></trkpt>
<trkpt lat="53.466090" lon="05.878062"><ele>4.4</ele><time>2021-02-18T14:31:37Z</time><name>PT10585</name></trkpt>
<trkpt lat="53.466091" lon="05.878044"><ele>4.4</ele><time>2021-02-18T14:31:38Z</time><name>PT10586</name></trkpt>
<trkpt lat="53.466092" lon="05.878024"><ele>4.6</ele><time>2021-02-18T14:31:39Z</time><name>PT10587</name></trkpt>
<trkpt lat="53.466091" lon="05.878004"><ele>4.6</ele><time>2021-02-18T14:31:40Z</time><name>PT10588</name></trkpt>
<trkpt lat="53.466090" lon="05.877984"><ele>4.6</ele><time>2021-02-18T14:31:41Z</time><name>PT10589</name></trkpt>
<trkpt lat="53.466088" lon="05.877965"><ele>4.6</ele><time>2021-02-18T14:31:42Z</time><name>PT10590</name></trkpt>
<trkpt lat="53.466087" lon="05.877946"><ele>4.7</ele><time>2021-02-18T14:31:43Z</time><name>PT10591</name></trkpt>
<trkpt lat="53.466085" lon="05.877927"><ele>4.9</ele><time>2021-02-18T14:31:44Z</time><name>PT10592</name></trkpt>
<trkpt lat="53.466085" lon="05.877911"><ele>5</ele><time>2021-02-18T14:31:45Z</time><name>PT10593</name></trkpt>
<trkpt lat="53.466085" lon="05.877893"><ele>5.1</ele><time>2021-02-18T14:31:46Z</time><name>PT10594</name></trkpt>
<trkpt lat="53.466085" lon="05.877874"><ele>5.1</ele><time>2021-02-18T14:31:47Z</time><name>PT10595</name></trkpt>
<trkpt lat="53.466085" lon="05.877855"><ele>4.9</ele><time>2021-02-18T14:31:48Z</time><name>PT10596</name></trkpt>
<trkpt lat="53.466085" lon="05.877838"><ele>4.9</ele><time>2021-02-18T14:31:49Z</time><name>PT10597</name></trkpt>
<trkpt lat="53.466084" lon="05.877821"><ele>5.1</ele><time>2021-02-18T14:31:50Z</time><name>PT10598</name></trkpt>
<trkpt lat="53.466082" lon="05.877802"><ele>4.8</ele><time>2021-02-18T14:31:51Z</time><name>PT10599</name></trkpt>
<trkpt lat="53.466080" lon="05.877784"><ele>4.7</ele><time>2021-02-18T14:31:52Z</time><name>PT10600</name></trkpt>
<trkpt lat="53.466079" lon="05.877764"><ele>4.7</ele><time>2021-02-18T14:31:53Z</time><name>PT10601</name></trkpt>
<trkpt lat="53.466077" lon="05.877744"><ele>4.3</ele><time>2021-02-18T14:31:54Z</time><name>PT10602</name></trkpt>
<trkpt lat="53.466075" lon="05.877726"><ele>4.3</ele><time>2021-02-18T14:31:55Z</time><name>PT10603</name></trkpt>
<trkpt lat="53.466073" lon="05.877711"><ele>4.4</ele><time>2021-02-18T14:31:56Z</time><name>PT10604</name></trkpt>
<trkpt lat="53.466071" lon="05.877693"><ele>4.6</ele><time>2021-02-18T14:31:57Z</time><name>PT10605</name></trkpt>
<trkpt lat="53.466071" lon="05.877674"><ele>4.8</ele><time>2021-02-18T14:31:58Z</time><name>PT10606</name></trkpt>
<trkpt lat="53.466072" lon="05.877653"><ele>4.8</ele><time>2021-02-18T14:31:59Z</time><name>PT10607</name></trkpt>
<trkpt lat="53.466072" lon="05.877632"><ele>4.8</ele><time>2021-02-18T14:32:00Z</time><name>PT10608</name></trkpt>
<trkpt lat="53.466072" lon="05.877613"><ele>4.7</ele><time>2021-02-18T14:32:01Z</time><name>PT10609</name></trkpt>
<trkpt lat="53.466073" lon="05.877595"><ele>4.8</ele><time>2021-02-18T14:32:02Z</time><name>PT10610</name></trkpt>
<trkpt lat="53.466073" lon="05.877577"><ele>4.7</ele><time>2021-02-18T14:32:03Z</time><name>PT10611</name></trkpt>
<trkpt lat="53.466071" lon="05.877559"><ele>4.7</ele><time>2021-02-18T14:32:04Z</time><name>PT10612</name></trkpt>
<trkpt lat="53.466068" lon="05.877541"><ele>4.6</ele><time>2021-02-18T14:32:05Z</time><name>PT10613</name></trkpt>
<trkpt lat="53.466067" lon="05.877522"><ele>4.6</ele><time>2021-02-18T14:32:06Z</time><name>PT10614</name></trkpt>
<trkpt lat="53.466066" lon="05.877504"><ele>4.5</ele><time>2021-02-18T14:32:07Z</time><name>PT10615</name></trkpt>
<trkpt lat="53.466065" lon="05.877488"><ele>4.5</ele><time>2021-02-18T14:32:08Z</time><name>PT10616</name></trkpt>
<trkpt lat="53.466065" lon="05.877471"><ele>4.4</ele><time>2021-02-18T14:32:09Z</time><name>PT10617</name></trkpt>
<trkpt lat="53.466067" lon="05.877453"><ele>4.2</ele><time>2021-02-18T14:32:10Z</time><name>PT10618</name></trkpt>
<trkpt lat="53.466067" lon="05.877434"><ele>4.3</ele><time>2021-02-18T14:32:11Z</time><name>PT10619</name></trkpt>
<trkpt lat="53.466068" lon="05.877415"><ele>4.4</ele><time>2021-02-18T14:32:12Z</time><name>PT10620</name></trkpt>
<trkpt lat="53.466072" lon="05.877397"><ele>4.6</ele><time>2021-02-18T14:32:13Z</time><name>PT10621</name></trkpt>
<trkpt lat="53.466073" lon="05.877377"><ele>4.6</ele><time>2021-02-18T14:32:14Z</time><name>PT10622</name></trkpt>
<trkpt lat="53.466077" lon="05.877357"><ele>4.6</ele><time>2021-02-18T14:32:15Z</time><name>PT10623</name></trkpt>
<trkpt lat="53.466078" lon="05.877338"><ele>4.6</ele><time>2021-02-18T14:32:16Z</time><name>PT10624</name></trkpt>
<trkpt lat="53.466077" lon="05.877319"><ele>4.5</ele><time>2021-02-18T14:32:17Z</time><name>PT10625</name></trkpt>
<trkpt lat="53.466076" lon="05.877300"><ele>4.7</ele><time>2021-02-18T14:32:18Z</time><name>PT10626</name></trkpt>
<trkpt lat="53.466077" lon="05.877283"><ele>4.6</ele><time>2021-02-18T14:32:19Z</time><name>PT10627</name></trkpt>
<trkpt lat="53.466079" lon="05.877266"><ele>4.5</ele><time>2021-02-18T14:32:20Z</time><name>PT10628</name></trkpt>
<trkpt lat="53.466080" lon="05.877250"><ele>4.4</ele><time>2021-02-18T14:32:21Z</time><name>PT10629</name></trkpt>
<trkpt lat="53.466081" lon="05.877231"><ele>4.2</ele><time>2021-02-18T14:32:22Z</time><name>PT10630</name></trkpt>
<trkpt lat="53.466083" lon="05.877210"><ele>4.2</ele><time>2021-02-18T14:32:23Z</time><name>PT10631</name></trkpt>
<trkpt lat="53.466085" lon="05.877192"><ele>4.1</ele><time>2021-02-18T14:32:24Z</time><name>PT10632</name></trkpt>
<trkpt lat="53.466085" lon="05.877173"><ele>4.2</ele><time>2021-02-18T14:32:25Z</time><name>PT10633</name></trkpt>
<trkpt lat="53.466083" lon="05.877153"><ele>4.2</ele><time>2021-02-18T14:32:26Z</time><name>PT10634</name></trkpt>
<trkpt lat="53.466080" lon="05.877134"><ele>4.2</ele><time>2021-02-18T14:32:27Z</time><name>PT10635</name></trkpt>
<trkpt lat="53.466078" lon="05.877116"><ele>4.3</ele><time>2021-02-18T14:32:28Z</time><name>PT10636</name></trkpt>
<trkpt lat="53.466077" lon="05.877100"><ele>4.2</ele><time>2021-02-18T14:32:29Z</time><name>PT10637</name></trkpt>
<trkpt lat="53.466075" lon="05.877084"><ele>4.6</ele><time>2021-02-18T14:32:30Z</time><name>PT10638</name></trkpt>
<trkpt lat="53.466074" lon="05.877066"><ele>4.8</ele><time>2021-02-18T14:32:31Z</time><name>PT10639</name></trkpt>
<trkpt lat="53.466073" lon="05.877045"><ele>4.9</ele><time>2021-02-18T14:32:32Z</time><name>PT10640</name></trkpt>
<trkpt lat="53.466071" lon="05.877027"><ele>5.1</ele><time>2021-02-18T14:32:33Z</time><name>PT10641</name></trkpt>
<trkpt lat="53.466069" lon="05.877008"><ele>4.9</ele><time>2021-02-18T14:32:34Z</time><name>PT10642</name></trkpt>
<trkpt lat="53.466067" lon="05.876990"><ele>4.8</ele><time>2021-02-18T14:32:35Z</time><name>PT10643</name></trkpt>
<trkpt lat="53.466065" lon="05.876971"><ele>4.7</ele><time>2021-02-18T14:32:36Z</time><name>PT10644</name></trkpt>
<trkpt lat="53.466062" lon="05.876952"><ele>4.7</ele><time>2021-02-18T14:32:37Z</time><name>PT10645</name></trkpt>
<trkpt lat="53.466060" lon="05.876933"><ele>4.7</ele><time>2021-02-18T14:32:38Z</time><name>PT10646</name></trkpt>
<trkpt lat="53.466058" lon="05.876915"><ele>4.8</ele><time>2021-02-18T14:32:39Z</time><name>PT10647</name></trkpt>
<trkpt lat="53.466057" lon="05.876897"><ele>4.7</ele><time>2021-02-18T14:32:40Z</time><name>PT10648</name></trkpt>
<trkpt lat="53.466057" lon="05.876879"><ele>4.7</ele><time>2021-02-18T14:32:41Z</time><name>PT10649</name></trkpt>
<trkpt lat="53.466057" lon="05.876861"><ele>4.7</ele><time>2021-02-18T14:32:42Z</time><name>PT10650</name></trkpt>
<trkpt lat="53.466056" lon="05.876840"><ele>4.6</ele><time>2021-02-18T14:32:43Z</time><name>PT10651</name></trkpt>
<trkpt lat="53.466055" lon="05.876820"><ele>4.7</ele><time>2021-02-18T14:32:44Z</time><name>PT10652</name></trkpt>
<trkpt lat="53.466054" lon="05.876802"><ele>4.6</ele><time>2021-02-18T14:32:45Z</time><name>PT10653</name></trkpt>
<trkpt lat="53.466052" lon="05.876783"><ele>4.5</ele><time>2021-02-18T14:32:46Z</time><name>PT10654</name></trkpt>
<trkpt lat="53.466051" lon="05.876766"><ele>4.7</ele><time>2021-02-18T14:32:47Z</time><name>PT10655</name></trkpt>
<trkpt lat="53.466050" lon="05.876748"><ele>4.8</ele><time>2021-02-18T14:32:48Z</time><name>PT10656</name></trkpt>
<trkpt lat="53.466047" lon="05.876729"><ele>5.2</ele><time>2021-02-18T14:32:49Z</time><name>PT10657</name></trkpt>
<trkpt lat="53.466046" lon="05.876713"><ele>5.2</ele><time>2021-02-18T14:32:50Z</time><name>PT10658</name></trkpt>
<trkpt lat="53.466045" lon="05.876697"><ele>5.2</ele><time>2021-02-18T14:32:51Z</time><name>PT10659</name></trkpt>
<trkpt lat="53.466044" lon="05.876679"><ele>5.1</ele><time>2021-02-18T14:32:52Z</time><name>PT10660</name></trkpt>
<trkpt lat="53.466044" lon="05.876660"><ele>5.2</ele><time>2021-02-18T14:32:53Z</time><name>PT10661</name></trkpt>
<trkpt lat="53.466045" lon="05.876641"><ele>5.2</ele><time>2021-02-18T14:32:54Z</time><name>PT10662</name></trkpt>
<trkpt lat="53.466044" lon="05.876620"><ele>5.2</ele><time>2021-02-18T14:32:55Z</time><name>PT10663</name></trkpt>
<trkpt lat="53.466043" lon="05.876601"><ele>4.8</ele><time>2021-02-18T14:32:56Z</time><name>PT10664</name></trkpt>
<trkpt lat="53.466041" lon="05.876582"><ele>4.7</ele><time>2021-02-18T14:32:57Z</time><name>PT10665</name></trkpt>
<trkpt lat="53.466040" lon="05.876564"><ele>4.6</ele><time>2021-02-18T14:32:58Z</time><name>PT10666</name></trkpt>
<trkpt lat="53.466039" lon="05.876547"><ele>4.7</ele><time>2021-02-18T14:32:59Z</time><name>PT10667</name></trkpt>
<trkpt lat="53.466038" lon="05.876530"><ele>5.2</ele><time>2021-02-18T14:33:00Z</time><name>PT10668</name></trkpt>
<trkpt lat="53.466036" lon="05.876513"><ele>5.3</ele><time>2021-02-18T14:33:01Z</time><name>PT10669</name></trkpt>
<trkpt lat="53.466036" lon="05.876493"><ele>5.5</ele><time>2021-02-18T14:33:02Z</time><name>PT10670</name></trkpt>
<trkpt lat="53.466037" lon="05.876472"><ele>5.2</ele><time>2021-02-18T14:33:03Z</time><name>PT10671</name></trkpt>
<trkpt lat="53.466037" lon="05.876452"><ele>5.1</ele><time>2021-02-18T14:33:04Z</time><name>PT10672</name></trkpt>
<trkpt lat="53.466036" lon="05.876433"><ele>5</ele><time>2021-02-18T14:33:05Z</time><name>PT10673</name></trkpt>
<trkpt lat="53.466034" lon="05.876413"><ele>5</ele><time>2021-02-18T14:33:06Z</time><name>PT10674</name></trkpt>
<trkpt lat="53.466033" lon="05.876393"><ele>4.9</ele><time>2021-02-18T14:33:07Z</time><name>PT10675</name></trkpt>
<trkpt lat="53.466029" lon="05.876373"><ele>4.9</ele><time>2021-02-18T14:33:08Z</time><name>PT10676</name></trkpt>
<trkpt lat="53.466028" lon="05.876354"><ele>4.9</ele><time>2021-02-18T14:33:09Z</time><name>PT10677</name></trkpt>
<trkpt lat="53.466026" lon="05.876334"><ele>4.7</ele><time>2021-02-18T14:33:10Z</time><name>PT10678</name></trkpt>
<trkpt lat="53.466025" lon="05.876317"><ele>4.7</ele><time>2021-02-18T14:33:11Z</time><name>PT10679</name></trkpt>
<trkpt lat="53.466024" lon="05.876300"><ele>4.9</ele><time>2021-02-18T14:33:12Z</time><name>PT10680</name></trkpt>
<trkpt lat="53.466024" lon="05.876282"><ele>5.1</ele><time>2021-02-18T14:33:13Z</time><name>PT10681</name></trkpt>
<trkpt lat="53.466025" lon="05.876263"><ele>5.2</ele><time>2021-02-18T14:33:14Z</time><name>PT10682</name></trkpt>
<trkpt lat="53.466025" lon="05.876243"><ele>5.3</ele><time>2021-02-18T14:33:15Z</time><name>PT10683</name></trkpt>
<trkpt lat="53.466026" lon="05.876222"><ele>5.4</ele><time>2021-02-18T14:33:16Z</time><name>PT10684</name></trkpt>
<trkpt lat="53.466025" lon="05.876204"><ele>5.2</ele><time>2021-02-18T14:33:17Z</time><name>PT10685</name></trkpt>
<trkpt lat="53.466025" lon="05.876187"><ele>4.9</ele><time>2021-02-18T14:33:18Z</time><name>PT10686</name></trkpt>
<trkpt lat="53.466023" lon="05.876169"><ele>4.9</ele><time>2021-02-18T14:33:19Z</time><name>PT10687</name></trkpt>
<trkpt lat="53.466022" lon="05.876151"><ele>4.8</ele><time>2021-02-18T14:33:20Z</time><name>PT10688</name></trkpt>
<trkpt lat="53.466021" lon="05.876132"><ele>4.8</ele><time>2021-02-18T14:33:21Z</time><name>PT10689</name></trkpt>
<trkpt lat="53.466021" lon="05.876116"><ele>4.7</ele><time>2021-02-18T14:33:22Z</time><name>PT10690</name></trkpt>
<trkpt lat="53.466020" lon="05.876099"><ele>4.5</ele><time>2021-02-18T14:33:23Z</time><name>PT10691</name></trkpt>
<trkpt lat="53.466019" lon="05.876082"><ele>4.5</ele><time>2021-02-18T14:33:24Z</time><name>PT10692</name></trkpt>
<trkpt lat="53.466017" lon="05.876064"><ele>4.5</ele><time>2021-02-18T14:33:25Z</time><name>PT10693</name></trkpt>
<trkpt lat="53.466017" lon="05.876044"><ele>4.5</ele><time>2021-02-18T14:33:26Z</time><name>PT10694</name></trkpt>
<trkpt lat="53.466017" lon="05.876022"><ele>4.5</ele><time>2021-02-18T14:33:27Z</time><name>PT10695</name></trkpt>
<trkpt lat="53.466017" lon="05.876002"><ele>4.5</ele><time>2021-02-18T14:33:28Z</time><name>PT10696</name></trkpt>
<trkpt lat="53.466016" lon="05.875985"><ele>4.5</ele><time>2021-02-18T14:33:29Z</time><name>PT10697</name></trkpt>
<trkpt lat="53.466015" lon="05.875966"><ele>4.6</ele><time>2021-02-18T14:33:30Z</time><name>PT10698</name></trkpt>
<trkpt lat="53.466013" lon="05.875947"><ele>4.7</ele><time>2021-02-18T14:33:31Z</time><name>PT10699</name></trkpt>
<trkpt lat="53.466012" lon="05.875929"><ele>4.8</ele><time>2021-02-18T14:33:32Z</time><name>PT10700</name></trkpt>
<trkpt lat="53.466012" lon="05.875913"><ele>4.9</ele><time>2021-02-18T14:33:33Z</time><name>PT10701</name></trkpt>
<trkpt lat="53.466012" lon="05.875896"><ele>4.9</ele><time>2021-02-18T14:33:34Z</time><name>PT10702</name></trkpt>
<trkpt lat="53.466013" lon="05.875878"><ele>5</ele><time>2021-02-18T14:33:35Z</time><name>PT10703</name></trkpt>
<trkpt lat="53.466015" lon="05.875858"><ele>5.1</ele><time>2021-02-18T14:33:36Z</time><name>PT10704</name></trkpt>
<trkpt lat="53.466015" lon="05.875839"><ele>5.2</ele><time>2021-02-18T14:33:37Z</time><name>PT10705</name></trkpt>
<trkpt lat="53.466015" lon="05.875820"><ele>5.1</ele><time>2021-02-18T14:33:38Z</time><name>PT10706</name></trkpt>
<trkpt lat="53.466015" lon="05.875800"><ele>5.1</ele><time>2021-02-18T14:33:39Z</time><name>PT10707</name></trkpt>
<trkpt lat="53.466016" lon="05.875782"><ele>5</ele><time>2021-02-18T14:33:40Z</time><name>PT10708</name></trkpt>
<trkpt lat="53.466015" lon="05.875765"><ele>5</ele><time>2021-02-18T14:33:41Z</time><name>PT10709</name></trkpt>
<trkpt lat="53.466013" lon="05.875748"><ele>4.8</ele><time>2021-02-18T14:33:42Z</time><name>PT10710</name></trkpt>
<trkpt lat="53.466013" lon="05.875732"><ele>4.7</ele><time>2021-02-18T14:33:43Z</time><name>PT10711</name></trkpt>
<trkpt lat="53.466015" lon="05.875714"><ele>4.7</ele><time>2021-02-18T14:33:44Z</time><name>PT10712</name></trkpt>
<trkpt lat="53.466015" lon="05.875695"><ele>4.8</ele><time>2021-02-18T14:33:45Z</time><name>PT10713</name></trkpt>
<trkpt lat="53.466012" lon="05.875678"><ele>4.8</ele><time>2021-02-18T14:33:46Z</time><name>PT10714</name></trkpt>
<trkpt lat="53.466009" lon="05.875661"><ele>4.7</ele><time>2021-02-18T14:33:47Z</time><name>PT10715</name></trkpt>
<trkpt lat="53.466006" lon="05.875642"><ele>4.8</ele><time>2021-02-18T14:33:48Z</time><name>PT10716</name></trkpt>
<trkpt lat="53.466003" lon="05.875623"><ele>4.6</ele><time>2021-02-18T14:33:49Z</time><name>PT10717</name></trkpt>
<trkpt lat="53.466001" lon="05.875603"><ele>4.6</ele><time>2021-02-18T14:33:50Z</time><name>PT10718</name></trkpt>
<trkpt lat="53.465999" lon="05.875584"><ele>4.8</ele><time>2021-02-18T14:33:51Z</time><name>PT10719</name></trkpt>
<trkpt lat="53.465999" lon="05.875568"><ele>5</ele><time>2021-02-18T14:33:52Z</time><name>PT10720</name></trkpt>
<trkpt lat="53.465998" lon="05.875550"><ele>5.2</ele><time>2021-02-18T14:33:53Z</time><name>PT10721</name></trkpt>
<trkpt lat="53.466000" lon="05.875528"><ele>5.4</ele><time>2021-02-18T14:33:54Z</time><name>PT10722</name></trkpt>
<trkpt lat="53.466000" lon="05.875507"><ele>5.4</ele><time>2021-02-18T14:33:55Z</time><name>PT10723</name></trkpt>
<trkpt lat="53.465999" lon="05.875488"><ele>5.3</ele><time>2021-02-18T14:33:56Z</time><name>PT10724</name></trkpt>
<trkpt lat="53.465999" lon="05.875469"><ele>5.2</ele><time>2021-02-18T14:33:57Z</time><name>PT10725</name></trkpt>
<trkpt lat="53.465998" lon="05.875450"><ele>5</ele><time>2021-02-18T14:33:58Z</time><name>PT10726</name></trkpt>
<trkpt lat="53.465996" lon="05.875431"><ele>4.9</ele><time>2021-02-18T14:33:59Z</time><name>PT10727</name></trkpt>
<trkpt lat="53.465994" lon="05.875413"><ele>5</ele><time>2021-02-18T14:34:00Z</time><name>PT10728</name></trkpt>
<trkpt lat="53.465993" lon="05.875396"><ele>5.2</ele><time>2021-02-18T14:34:01Z</time><name>PT10729</name></trkpt>
<trkpt lat="53.465991" lon="05.875380"><ele>5.1</ele><time>2021-02-18T14:34:02Z</time><name>PT10730</name></trkpt>
<trkpt lat="53.465989" lon="05.875363"><ele>5.2</ele><time>2021-02-18T14:34:03Z</time><name>PT10731</name></trkpt>
<trkpt lat="53.465988" lon="05.875342"><ele>5.2</ele><time>2021-02-18T14:34:04Z</time><name>PT10732</name></trkpt>
<trkpt lat="53.465988" lon="05.875320"><ele>5.1</ele><time>2021-02-18T14:34:05Z</time><name>PT10733</name></trkpt>
<trkpt lat="53.465988" lon="05.875298"><ele>5</ele><time>2021-02-18T14:34:06Z</time><name>PT10734</name></trkpt>
<trkpt lat="53.465988" lon="05.875279"><ele>5</ele><time>2021-02-18T14:34:07Z</time><name>PT10735</name></trkpt>
<trkpt lat="53.465987" lon="05.875259"><ele>4.9</ele><time>2021-02-18T14:34:08Z</time><name>PT10736</name></trkpt>
<trkpt lat="53.465985" lon="05.875240"><ele>5</ele><time>2021-02-18T14:34:09Z</time><name>PT10737</name></trkpt>
<trkpt lat="53.465982" lon="05.875221"><ele>5</ele><time>2021-02-18T14:34:10Z</time><name>PT10738</name></trkpt>
<trkpt lat="53.465982" lon="05.875204"><ele>5.1</ele><time>2021-02-18T14:34:11Z</time><name>PT10739</name></trkpt>
<trkpt lat="53.465980" lon="05.875187"><ele>4.9</ele><time>2021-02-18T14:34:12Z</time><name>PT10740</name></trkpt>
<trkpt lat="53.465980" lon="05.875171"><ele>5.1</ele><time>2021-02-18T14:34:13Z</time><name>PT10741</name></trkpt>
<trkpt lat="53.465980" lon="05.875154"><ele>5.2</ele><time>2021-02-18T14:34:14Z</time><name>PT10742</name></trkpt>
<trkpt lat="53.465980" lon="05.875136"><ele>4.9</ele><time>2021-02-18T14:34:15Z</time><name>PT10743</name></trkpt>
<trkpt lat="53.465980" lon="05.875117"><ele>5.1</ele><time>2021-02-18T14:34:16Z</time><name>PT10744</name></trkpt>
<trkpt lat="53.465980" lon="05.875098"><ele>5.1</ele><time>2021-02-18T14:34:17Z</time><name>PT10745</name></trkpt>
<trkpt lat="53.465978" lon="05.875079"><ele>4.9</ele><time>2021-02-18T14:34:18Z</time><name>PT10746</name></trkpt>
<trkpt lat="53.465976" lon="05.875060"><ele>5.2</ele><time>2021-02-18T14:34:19Z</time><name>PT10747</name></trkpt>
<trkpt lat="53.465973" lon="05.875040"><ele>5.2</ele><time>2021-02-18T14:34:20Z</time><name>PT10748</name></trkpt>
<trkpt lat="53.465971" lon="05.875022"><ele>5.2</ele><time>2021-02-18T14:34:21Z</time><name>PT10749</name></trkpt>
<trkpt lat="53.465968" lon="05.875003"><ele>5.4</ele><time>2021-02-18T14:34:22Z</time><name>PT10750</name></trkpt>
<trkpt lat="53.465967" lon="05.874983"><ele>5.4</ele><time>2021-02-18T14:34:23Z</time><name>PT10751</name></trkpt>
<trkpt lat="53.465966" lon="05.874963"><ele>5.5</ele><time>2021-02-18T14:34:24Z</time><name>PT10752</name></trkpt>
<trkpt lat="53.465966" lon="05.874942"><ele>5.6</ele><time>2021-02-18T14:34:25Z</time><name>PT10753</name></trkpt>
<trkpt lat="53.465965" lon="05.874922"><ele>5.7</ele><time>2021-02-18T14:34:26Z</time><name>PT10754</name></trkpt>
<trkpt lat="53.465964" lon="05.874905"><ele>5.7</ele><time>2021-02-18T14:34:27Z</time><name>PT10755</name></trkpt>
<trkpt lat="53.465962" lon="05.874887"><ele>5.5</ele><time>2021-02-18T14:34:28Z</time><name>PT10756</name></trkpt>
<trkpt lat="53.465960" lon="05.874870"><ele>5.4</ele><time>2021-02-18T14:34:29Z</time><name>PT10757</name></trkpt>
<trkpt lat="53.465959" lon="05.874855"><ele>5.2</ele><time>2021-02-18T14:34:30Z</time><name>PT10758</name></trkpt>
<trkpt lat="53.465957" lon="05.874840"><ele>5.2</ele><time>2021-02-18T14:34:31Z</time><name>PT10759</name></trkpt>
<trkpt lat="53.465956" lon="05.874821"><ele>5.1</ele><time>2021-02-18T14:34:32Z</time><name>PT10760</name></trkpt>
<trkpt lat="53.465955" lon="05.874802"><ele>5</ele><time>2021-02-18T14:34:33Z</time><name>PT10761</name></trkpt>
<trkpt lat="53.465954" lon="05.874783"><ele>5</ele><time>2021-02-18T14:34:34Z</time><name>PT10762</name></trkpt>
<trkpt lat="53.465954" lon="05.874765"><ele>5.1</ele><time>2021-02-18T14:34:35Z</time><name>PT10763</name></trkpt>
<trkpt lat="53.465951" lon="05.874746"><ele>5.2</ele><time>2021-02-18T14:34:36Z</time><name>PT10764</name></trkpt>
<trkpt lat="53.465949" lon="05.874728"><ele>5.3</ele><time>2021-02-18T14:34:37Z</time><name>PT10765</name></trkpt>
<trkpt lat="53.465946" lon="05.874712"><ele>5.4</ele><time>2021-02-18T14:34:38Z</time><name>PT10766</name></trkpt>
<trkpt lat="53.465945" lon="05.874696"><ele>5.5</ele><time>2021-02-18T14:34:39Z</time><name>PT10767</name></trkpt>
<trkpt lat="53.465943" lon="05.874680"><ele>5.4</ele><time>2021-02-18T14:34:40Z</time><name>PT10768</name></trkpt>
<trkpt lat="53.465943" lon="05.874658"><ele>5.3</ele><time>2021-02-18T14:34:41Z</time><name>PT10769</name></trkpt>
<trkpt lat="53.465941" lon="05.874639"><ele>5.2</ele><time>2021-02-18T14:34:42Z</time><name>PT10770</name></trkpt>
<trkpt lat="53.465940" lon="05.874622"><ele>5.1</ele><time>2021-02-18T14:34:43Z</time><name>PT10771</name></trkpt>
<trkpt lat="53.465939" lon="05.874603"><ele>5.1</ele><time>2021-02-18T14:34:44Z</time><name>PT10772</name></trkpt>
<trkpt lat="53.465938" lon="05.874584"><ele>5.2</ele><time>2021-02-18T14:34:45Z</time><name>PT10773</name></trkpt>
<trkpt lat="53.465936" lon="05.874566"><ele>5.3</ele><time>2021-02-18T14:34:46Z</time><name>PT10774</name></trkpt>
<trkpt lat="53.465936" lon="05.874550"><ele>5.2</ele><time>2021-02-18T14:34:47Z</time><name>PT10775</name></trkpt>
<trkpt lat="53.465934" lon="05.874534"><ele>5.4</ele><time>2021-02-18T14:34:48Z</time><name>PT10776</name></trkpt>
<trkpt lat="53.465933" lon="05.874515"><ele>5.2</ele><time>2021-02-18T14:34:49Z</time><name>PT10777</name></trkpt>
<trkpt lat="53.465934" lon="05.874493"><ele>5.2</ele><time>2021-02-18T14:34:50Z</time><name>PT10778</name></trkpt>
<trkpt lat="53.465934" lon="05.874472"><ele>5.2</ele><time>2021-02-18T14:34:51Z</time><name>PT10779</name></trkpt>
<trkpt lat="53.465934" lon="05.874453"><ele>5.3</ele><time>2021-02-18T14:34:52Z</time><name>PT10780</name></trkpt>
<trkpt lat="53.465932" lon="05.874434"><ele>5.4</ele><time>2021-02-18T14:34:53Z</time><name>PT10781</name></trkpt>
<trkpt lat="53.465930" lon="05.874414"><ele>5.5</ele><time>2021-02-18T14:34:54Z</time><name>PT10782</name></trkpt>
<trkpt lat="53.465928" lon="05.874394"><ele>5.6</ele><time>2021-02-18T14:34:55Z</time><name>PT10783</name></trkpt>
<trkpt lat="53.465925" lon="05.874377"><ele>5.3</ele><time>2021-02-18T14:34:56Z</time><name>PT10784</name></trkpt>
<trkpt lat="53.465923" lon="05.874361"><ele>5.3</ele><time>2021-02-18T14:34:57Z</time><name>PT10785</name></trkpt>
<trkpt lat="53.465923" lon="05.874343"><ele>5.2</ele><time>2021-02-18T14:34:58Z</time><name>PT10786</name></trkpt>
<trkpt lat="53.465924" lon="05.874322"><ele>5.2</ele><time>2021-02-18T14:34:59Z</time><name>PT10787</name></trkpt>
<trkpt lat="53.465925" lon="05.874301"><ele>5.3</ele><time>2021-02-18T14:35:00Z</time><name>PT10788</name></trkpt>
<trkpt lat="53.465925" lon="05.874281"><ele>5.4</ele><time>2021-02-18T14:35:01Z</time><name>PT10789</name></trkpt>
<trkpt lat="53.465925" lon="05.874262"><ele>5.5</ele><time>2021-02-18T14:35:02Z</time><name>PT10790</name></trkpt>
<trkpt lat="53.465924" lon="05.874242"><ele>5.6</ele><time>2021-02-18T14:35:03Z</time><name>PT10791</name></trkpt>
<trkpt lat="53.465923" lon="05.874222"><ele>5.6</ele><time>2021-02-18T14:35:04Z</time><name>PT10792</name></trkpt>
<trkpt lat="53.465923" lon="05.874202"><ele>5.7</ele><time>2021-02-18T14:35:05Z</time><name>PT10793</name></trkpt>
<trkpt lat="53.465923" lon="05.874182"><ele>5.8</ele><time>2021-02-18T14:35:06Z</time><name>PT10794</name></trkpt>
<trkpt lat="53.465922" lon="05.874164"><ele>5.7</ele><time>2021-02-18T14:35:07Z</time><name>PT10795</name></trkpt>
<trkpt lat="53.465920" lon="05.874146"><ele>5.7</ele><time>2021-02-18T14:35:08Z</time><name>PT10796</name></trkpt>
<trkpt lat="53.465921" lon="05.874128"><ele>5.7</ele><time>2021-02-18T14:35:09Z</time><name>PT10797</name></trkpt>
<trkpt lat="53.465921" lon="05.874107"><ele>5.5</ele><time>2021-02-18T14:35:10Z</time><name>PT10798</name></trkpt>
<trkpt lat="53.465920" lon="05.874087"><ele>5.3</ele><time>2021-02-18T14:35:11Z</time><name>PT10799</name></trkpt>
<trkpt lat="53.465919" lon="05.874069"><ele>5.2</ele><time>2021-02-18T14:35:12Z</time><name>PT10800</name></trkpt>
<trkpt lat="53.465917" lon="05.874048"><ele>5</ele><time>2021-02-18T14:35:13Z</time><name>PT10801</name></trkpt>
<trkpt lat="53.465916" lon="05.874030"><ele>5</ele><time>2021-02-18T14:35:14Z</time><name>PT10802</name></trkpt>
<trkpt lat="53.465914" lon="05.874013"><ele>5</ele><time>2021-02-18T14:35:15Z</time><name>PT10803</name></trkpt>
<trkpt lat="53.465914" lon="05.873996"><ele>5.2</ele><time>2021-02-18T14:35:16Z</time><name>PT10804</name></trkpt>
<trkpt lat="53.465915" lon="05.873979"><ele>5.4</ele><time>2021-02-18T14:35:17Z</time><name>PT10805</name></trkpt>
<trkpt lat="53.465914" lon="05.873961"><ele>5.5</ele><time>2021-02-18T14:35:18Z</time><name>PT10806</name></trkpt>
<trkpt lat="53.465913" lon="05.873942"><ele>5.5</ele><time>2021-02-18T14:35:19Z</time><name>PT10807</name></trkpt>
<trkpt lat="53.465914" lon="05.873922"><ele>5.5</ele><time>2021-02-18T14:35:20Z</time><name>PT10808</name></trkpt>
<trkpt lat="53.465916" lon="05.873902"><ele>5.3</ele><time>2021-02-18T14:35:21Z</time><name>PT10809</name></trkpt>
<trkpt lat="53.465917" lon="05.873882"><ele>5.2</ele><time>2021-02-18T14:35:22Z</time><name>PT10810</name></trkpt>
<trkpt lat="53.465918" lon="05.873862"><ele>5.2</ele><time>2021-02-18T14:35:23Z</time><name>PT10811</name></trkpt>
<trkpt lat="53.465919" lon="05.873844"><ele>5.3</ele><time>2021-02-18T14:35:24Z</time><name>PT10812</name></trkpt>
<trkpt lat="53.465919" lon="05.873826"><ele>5.4</ele><time>2021-02-18T14:35:25Z</time><name>PT10813</name></trkpt>
<trkpt lat="53.465919" lon="05.873809"><ele>5.2</ele><time>2021-02-18T14:35:26Z</time><name>PT10814</name></trkpt>
<trkpt lat="53.465918" lon="05.873793"><ele>5.2</ele><time>2021-02-18T14:35:27Z</time><name>PT10815</name></trkpt>
<trkpt lat="53.465918" lon="05.873775"><ele>5.2</ele><time>2021-02-18T14:35:28Z</time><name>PT10816</name></trkpt>
<trkpt lat="53.465917" lon="05.873756"><ele>5</ele><time>2021-02-18T14:35:29Z</time><name>PT10817</name></trkpt>
<trkpt lat="53.465917" lon="05.873736"><ele>4.9</ele><time>2021-02-18T14:35:30Z</time><name>PT10818</name></trkpt>
<trkpt lat="53.465917" lon="05.873716"><ele>4.8</ele><time>2021-02-18T14:35:31Z</time><name>PT10819</name></trkpt>
<trkpt lat="53.465917" lon="05.873696"><ele>4.8</ele><time>2021-02-18T14:35:32Z</time><name>PT10820</name></trkpt>
<trkpt lat="53.465916" lon="05.873678"><ele>5</ele><time>2021-02-18T14:35:33Z</time><name>PT10821</name></trkpt>
<trkpt lat="53.465916" lon="05.873660"><ele>5.2</ele><time>2021-02-18T14:35:34Z</time><name>PT10822</name></trkpt>
<trkpt lat="53.465916" lon="05.873642"><ele>5.3</ele><time>2021-02-18T14:35:35Z</time><name>PT10823</name></trkpt>
<trkpt lat="53.465914" lon="05.873623"><ele>5.3</ele><time>2021-02-18T14:35:36Z</time><name>PT10824</name></trkpt>
<trkpt lat="53.465913" lon="05.873605"><ele>5.4</ele><time>2021-02-18T14:35:37Z</time><name>PT10825</name></trkpt>
<trkpt lat="53.465912" lon="05.873589"><ele>5.2</ele><time>2021-02-18T14:35:38Z</time><name>PT10826</name></trkpt>
<trkpt lat="53.465912" lon="05.873573"><ele>5.2</ele><time>2021-02-18T14:35:39Z</time><name>PT10827</name></trkpt>
<trkpt lat="53.465912" lon="05.873556"><ele>5.4</ele><time>2021-02-18T14:35:40Z</time><name>PT10828</name></trkpt>
<trkpt lat="53.465913" lon="05.873538"><ele>5.4</ele><time>2021-02-18T14:35:41Z</time><name>PT10829</name></trkpt>
<trkpt lat="53.465913" lon="05.873518"><ele>5.6</ele><time>2021-02-18T14:35:42Z</time><name>PT10830</name></trkpt>
<trkpt lat="53.465914" lon="05.873500"><ele>5.5</ele><time>2021-02-18T14:35:43Z</time><name>PT10831</name></trkpt>
<trkpt lat="53.465915" lon="05.873482"><ele>5.6</ele><time>2021-02-18T14:35:44Z</time><name>PT10832</name></trkpt>
<trkpt lat="53.465916" lon="05.873463"><ele>5.6</ele><time>2021-02-18T14:35:45Z</time><name>PT10833</name></trkpt>
<trkpt lat="53.465917" lon="05.873442"><ele>5.4</ele><time>2021-02-18T14:35:46Z</time><name>PT10834</name></trkpt>
<trkpt lat="53.465917" lon="05.873424"><ele>5.4</ele><time>2021-02-18T14:35:47Z</time><name>PT10835</name></trkpt>
<trkpt lat="53.465916" lon="05.873405"><ele>5.4</ele><time>2021-02-18T14:35:48Z</time><name>PT10836</name></trkpt>
<trkpt lat="53.465915" lon="05.873387"><ele>5.2</ele><time>2021-02-18T14:35:49Z</time><name>PT10837</name></trkpt>
<trkpt lat="53.465913" lon="05.873369"><ele>5.2</ele><time>2021-02-18T14:35:50Z</time><name>PT10838</name></trkpt>
<trkpt lat="53.465912" lon="05.873353"><ele>5.3</ele><time>2021-02-18T14:35:51Z</time><name>PT10839</name></trkpt>
<trkpt lat="53.465913" lon="05.873336"><ele>5.3</ele><time>2021-02-18T14:35:52Z</time><name>PT10840</name></trkpt>
<trkpt lat="53.465914" lon="05.873320"><ele>5.4</ele><time>2021-02-18T14:35:53Z</time><name>PT10841</name></trkpt>
<trkpt lat="53.465916" lon="05.873302"><ele>5.7</ele><time>2021-02-18T14:35:54Z</time><name>PT10842</name></trkpt>
<trkpt lat="53.465917" lon="05.873282"><ele>6.1</ele><time>2021-02-18T14:35:55Z</time><name>PT10843</name></trkpt>
<trkpt lat="53.465917" lon="05.873263"><ele>6.2</ele><time>2021-02-18T14:35:56Z</time><name>PT10844</name></trkpt>
<trkpt lat="53.465918" lon="05.873244"><ele>6.4</ele><time>2021-02-18T14:35:57Z</time><name>PT10845</name></trkpt>
<trkpt lat="53.465917" lon="05.873228"><ele>6.4</ele><time>2021-02-18T14:35:58Z</time><name>PT10846</name></trkpt>
<trkpt lat="53.465916" lon="05.873212"><ele>6.2</ele><time>2021-02-18T14:35:59Z</time><name>PT10847</name></trkpt>
<trkpt lat="53.465913" lon="05.873195"><ele>6.1</ele><time>2021-02-18T14:36:00Z</time><name>PT10848</name></trkpt>
<trkpt lat="53.465911" lon="05.873179"><ele>6</ele><time>2021-02-18T14:36:01Z</time><name>PT10849</name></trkpt>
<trkpt lat="53.465912" lon="05.873162"><ele>5.9</ele><time>2021-02-18T14:36:02Z</time><name>PT10850</name></trkpt>
<trkpt lat="53.465912" lon="05.873143"><ele>5.8</ele><time>2021-02-18T14:36:03Z</time><name>PT10851</name></trkpt>
<trkpt lat="53.465912" lon="05.873123"><ele>5.8</ele><time>2021-02-18T14:36:04Z</time><name>PT10852</name></trkpt>
<trkpt lat="53.465912" lon="05.873103"><ele>5.9</ele><time>2021-02-18T14:36:05Z</time><name>PT10853</name></trkpt>
<trkpt lat="53.465912" lon="05.873084"><ele>6.1</ele><time>2021-02-18T14:36:06Z</time><name>PT10854</name></trkpt>
<trkpt lat="53.465911" lon="05.873066"><ele>6.2</ele><time>2021-02-18T14:36:07Z</time><name>PT10855</name></trkpt>
<trkpt lat="53.465910" lon="05.873047"><ele>6.5</ele><time>2021-02-18T14:36:08Z</time><name>PT10856</name></trkpt>
<trkpt lat="53.465908" lon="05.873028"><ele>6.7</ele><time>2021-02-18T14:36:09Z</time><name>PT10857</name></trkpt>
<trkpt lat="53.465907" lon="05.873011"><ele>6.6</ele><time>2021-02-18T14:36:10Z</time><name>PT10858</name></trkpt>
<trkpt lat="53.465907" lon="05.872995"><ele>6.5</ele><time>2021-02-18T14:36:11Z</time><name>PT10859</name></trkpt>
<trkpt lat="53.465906" lon="05.872978"><ele>6.3</ele><time>2021-02-18T14:36:12Z</time><name>PT10860</name></trkpt>
<trkpt lat="53.465906" lon="05.872958"><ele>6</ele><time>2021-02-18T14:36:13Z</time><name>PT10861</name></trkpt>
<trkpt lat="53.465906" lon="05.872938"><ele>6</ele><time>2021-02-18T14:36:14Z</time><name>PT10862</name></trkpt>
<trkpt lat="53.465906" lon="05.872918"><ele>6.2</ele><time>2021-02-18T14:36:15Z</time><name>PT10863</name></trkpt>
<trkpt lat="53.465904" lon="05.872898"><ele>6.4</ele><time>2021-02-18T14:36:16Z</time><name>PT10864</name></trkpt>
<trkpt lat="53.465902" lon="05.872880"><ele>6.6</ele><time>2021-02-18T14:36:17Z</time><name>PT10865</name></trkpt>
<trkpt lat="53.465901" lon="05.872861"><ele>6.9</ele><time>2021-02-18T14:36:18Z</time><name>PT10866</name></trkpt>
<trkpt lat="53.465898" lon="05.872844"><ele>6.9</ele><time>2021-02-18T14:36:19Z</time><name>PT10867</name></trkpt>
<trkpt lat="53.465897" lon="05.872826"><ele>7.1</ele><time>2021-02-18T14:36:20Z</time><name>PT10868</name></trkpt>
<trkpt lat="53.465895" lon="05.872807"><ele>7</ele><time>2021-02-18T14:36:21Z</time><name>PT10869</name></trkpt>
<trkpt lat="53.465895" lon="05.872788"><ele>6.7</ele><time>2021-02-18T14:36:22Z</time><name>PT10870</name></trkpt>
<trkpt lat="53.465896" lon="05.872768"><ele>6.6</ele><time>2021-02-18T14:36:23Z</time><name>PT10871</name></trkpt>
<trkpt lat="53.465896" lon="05.872747"><ele>6.4</ele><time>2021-02-18T14:36:24Z</time><name>PT10872</name></trkpt>
<trkpt lat="53.465896" lon="05.872729"><ele>6.6</ele><time>2021-02-18T14:36:25Z</time><name>PT10873</name></trkpt>
<trkpt lat="53.465895" lon="05.872710"><ele>6.7</ele><time>2021-02-18T14:36:26Z</time><name>PT10874</name></trkpt>
<trkpt lat="53.465892" lon="05.872692"><ele>6.8</ele><time>2021-02-18T14:36:27Z</time><name>PT10875</name></trkpt>
<trkpt lat="53.465890" lon="05.872675"><ele>6.6</ele><time>2021-02-18T14:36:28Z</time><name>PT10876</name></trkpt>
<trkpt lat="53.465889" lon="05.872658"><ele>6.4</ele><time>2021-02-18T14:36:29Z</time><name>PT10877</name></trkpt>
<trkpt lat="53.465889" lon="05.872642"><ele>6.2</ele><time>2021-02-18T14:36:30Z</time><name>PT10878</name></trkpt>
<trkpt lat="53.465889" lon="05.872624"><ele>6.2</ele><time>2021-02-18T14:36:31Z</time><name>PT10879</name></trkpt>
<trkpt lat="53.465891" lon="05.872604"><ele>6.2</ele><time>2021-02-18T14:36:32Z</time><name>PT10880</name></trkpt>
<trkpt lat="53.465891" lon="05.872584"><ele>6.3</ele><time>2021-02-18T14:36:33Z</time><name>PT10881</name></trkpt>
<trkpt lat="53.465890" lon="05.872567"><ele>6.2</ele><time>2021-02-18T14:36:34Z</time><name>PT10882</name></trkpt>
<trkpt lat="53.465888" lon="05.872549"><ele>6.2</ele><time>2021-02-18T14:36:35Z</time><name>PT10883</name></trkpt>
<trkpt lat="53.465885" lon="05.872531"><ele>6.2</ele><time>2021-02-18T14:36:36Z</time><name>PT10884</name></trkpt>
<trkpt lat="53.465883" lon="05.872512"><ele>6.2</ele><time>2021-02-18T14:36:37Z</time><name>PT10885</name></trkpt>
<trkpt lat="53.465881" lon="05.872494"><ele>6.2</ele><time>2021-02-18T14:36:38Z</time><name>PT10886</name></trkpt>
<trkpt lat="53.465881" lon="05.872478"><ele>6.2</ele><time>2021-02-18T14:36:39Z</time><name>PT10887</name></trkpt>
<trkpt lat="53.465882" lon="05.872461"><ele>6.6</ele><time>2021-02-18T14:36:40Z</time><name>PT10888</name></trkpt>
<trkpt lat="53.465882" lon="05.872443"><ele>6.6</ele><time>2021-02-18T14:36:41Z</time><name>PT10889</name></trkpt>
<trkpt lat="53.465881" lon="05.872423"><ele>6.5</ele><time>2021-02-18T14:36:42Z</time><name>PT10890</name></trkpt>
<trkpt lat="53.465881" lon="05.872405"><ele>6.3</ele><time>2021-02-18T14:36:43Z</time><name>PT10891</name></trkpt>
<trkpt lat="53.465879" lon="05.872386"><ele>6.4</ele><time>2021-02-18T14:36:44Z</time><name>PT10892</name></trkpt>
<trkpt lat="53.465877" lon="05.872368"><ele>6.2</ele><time>2021-02-18T14:36:45Z</time><name>PT10893</name></trkpt>
<trkpt lat="53.465875" lon="05.872350"><ele>6.6</ele><time>2021-02-18T14:36:46Z</time><name>PT10894</name></trkpt>
<trkpt lat="53.465874" lon="05.872332"><ele>6.6</ele><time>2021-02-18T14:36:47Z</time><name>PT10895</name></trkpt>
<trkpt lat="53.465871" lon="05.872314"><ele>6.7</ele><time>2021-02-18T14:36:48Z</time><name>PT10896</name></trkpt>
<trkpt lat="53.465870" lon="05.872298"><ele>6.5</ele><time>2021-02-18T14:36:49Z</time><name>PT10897</name></trkpt>
<trkpt lat="53.465870" lon="05.872283"><ele>6.4</ele><time>2021-02-18T14:36:50Z</time><name>PT10898</name></trkpt>
<trkpt lat="53.465869" lon="05.872266"><ele>6.4</ele><time>2021-02-18T14:36:51Z</time><name>PT10899</name></trkpt>
<trkpt lat="53.465869" lon="05.872247"><ele>6.2</ele><time>2021-02-18T14:36:52Z</time><name>PT10900</name></trkpt>
<trkpt lat="53.465869" lon="05.872231"><ele>6.2</ele><time>2021-02-18T14:36:53Z</time><name>PT10901</name></trkpt>
<trkpt lat="53.465867" lon="05.872214"><ele>6.3</ele><time>2021-02-18T14:36:54Z</time><name>PT10902</name></trkpt>
<trkpt lat="53.465866" lon="05.872195"><ele>6.3</ele><time>2021-02-18T14:36:55Z</time><name>PT10903</name></trkpt>
<trkpt lat="53.465864" lon="05.872178"><ele>6.5</ele><time>2021-02-18T14:36:56Z</time><name>PT10904</name></trkpt>
<trkpt lat="53.465862" lon="05.872162"><ele>6.8</ele><time>2021-02-18T14:36:57Z</time><name>PT10905</name></trkpt>
<trkpt lat="53.465860" lon="05.872146"><ele>6.8</ele><time>2021-02-18T14:36:58Z</time><name>PT10906</name></trkpt>
<trkpt lat="53.465860" lon="05.872127"><ele>6.7</ele><time>2021-02-18T14:36:59Z</time><name>PT10907</name></trkpt>
<trkpt lat="53.465860" lon="05.872109"><ele>6.5</ele><time>2021-02-18T14:37:00Z</time><name>PT10908</name></trkpt>
<trkpt lat="53.465859" lon="05.872090"><ele>6.4</ele><time>2021-02-18T14:37:01Z</time><name>PT10909</name></trkpt>
<trkpt lat="53.465858" lon="05.872071"><ele>6.5</ele><time>2021-02-18T14:37:02Z</time><name>PT10910</name></trkpt>
<trkpt lat="53.465855" lon="05.872053"><ele>6.6</ele><time>2021-02-18T14:37:03Z</time><name>PT10911</name></trkpt>
<trkpt lat="53.465852" lon="05.872037"><ele>6.5</ele><time>2021-02-18T14:37:04Z</time><name>PT10912</name></trkpt>
<trkpt lat="53.465852" lon="05.872020"><ele>6.4</ele><time>2021-02-18T14:37:05Z</time><name>PT10913</name></trkpt>
<trkpt lat="53.465852" lon="05.872002"><ele>6.3</ele><time>2021-02-18T14:37:06Z</time><name>PT10914</name></trkpt>
<trkpt lat="53.465852" lon="05.871985"><ele>6.2</ele><time>2021-02-18T14:37:07Z</time><name>PT10915</name></trkpt>
<trkpt lat="53.465852" lon="05.871969"><ele>6.3</ele><time>2021-02-18T14:37:08Z</time><name>PT10916</name></trkpt>
<trkpt lat="53.465851" lon="05.871950"><ele>6.6</ele><time>2021-02-18T14:37:09Z</time><name>PT10917</name></trkpt>
<trkpt lat="53.465849" lon="05.871934"><ele>6.6</ele><time>2021-02-18T14:37:10Z</time><name>PT10918</name></trkpt>
<trkpt lat="53.465847" lon="05.871919"><ele>6.6</ele><time>2021-02-18T14:37:11Z</time><name>PT10919</name></trkpt>
<trkpt lat="53.465846" lon="05.871902"><ele>6.5</ele><time>2021-02-18T14:37:12Z</time><name>PT10920</name></trkpt>
<trkpt lat="53.465847" lon="05.871882"><ele>6.6</ele><time>2021-02-18T14:37:13Z</time><name>PT10921</name></trkpt>
<trkpt lat="53.465847" lon="05.871865"><ele>6.7</ele><time>2021-02-18T14:37:14Z</time><name>PT10922</name></trkpt>
<trkpt lat="53.465845" lon="05.871848"><ele>6.8</ele><time>2021-02-18T14:37:15Z</time><name>PT10923</name></trkpt>
<trkpt lat="53.465843" lon="05.871830"><ele>6.7</ele><time>2021-02-18T14:37:16Z</time><name>PT10924</name></trkpt>
<trkpt lat="53.465840" lon="05.871813"><ele>6.7</ele><time>2021-02-18T14:37:17Z</time><name>PT10925</name></trkpt>
<trkpt lat="53.465839" lon="05.871798"><ele>6.6</ele><time>2021-02-18T14:37:18Z</time><name>PT10926</name></trkpt>
<trkpt lat="53.465839" lon="05.871782"><ele>6.4</ele><time>2021-02-18T14:37:19Z</time><name>PT10927</name></trkpt>
<trkpt lat="53.465839" lon="05.871764"><ele>6.5</ele><time>2021-02-18T14:37:20Z</time><name>PT10928</name></trkpt>
<trkpt lat="53.465838" lon="05.871746"><ele>6.6</ele><time>2021-02-18T14:37:21Z</time><name>PT10929</name></trkpt>
<trkpt lat="53.465838" lon="05.871729"><ele>6.5</ele><time>2021-02-18T14:37:22Z</time><name>PT10930</name></trkpt>
<trkpt lat="53.465837" lon="05.871712"><ele>6.5</ele><time>2021-02-18T14:37:23Z</time><name>PT10931</name></trkpt>
<trkpt lat="53.465835" lon="05.871694"><ele>6.5</ele><time>2021-02-18T14:37:24Z</time><name>PT10932</name></trkpt>
<trkpt lat="53.465832" lon="05.871680"><ele>6.4</ele><time>2021-02-18T14:37:25Z</time><name>PT10933</name></trkpt>
<trkpt lat="53.465829" lon="05.871664"><ele>6.5</ele><time>2021-02-18T14:37:26Z</time><name>PT10934</name></trkpt>
<trkpt lat="53.465825" lon="05.871647"><ele>6.6</ele><time>2021-02-18T14:37:27Z</time><name>PT10935</name></trkpt>
<trkpt lat="53.465825" lon="05.871628"><ele>6.7</ele><time>2021-02-18T14:37:28Z</time><name>PT10936</name></trkpt>
<trkpt lat="53.465825" lon="05.871611"><ele>6.8</ele><time>2021-02-18T14:37:29Z</time><name>PT10937</name></trkpt>
<trkpt lat="53.465825" lon="05.871595"><ele>7.2</ele><time>2021-02-18T14:37:30Z</time><name>PT10938</name></trkpt>
<trkpt lat="53.465826" lon="05.871578"><ele>7.2</ele><time>2021-02-18T14:37:31Z</time><name>PT10939</name></trkpt>
<trkpt lat="53.465825" lon="05.871562"><ele>7.2</ele><time>2021-02-18T14:37:32Z</time><name>PT10940</name></trkpt>
<trkpt lat="53.465823" lon="05.871545"><ele>7.1</ele><time>2021-02-18T14:37:33Z</time><name>PT10941</name></trkpt>
<trkpt lat="53.465822" lon="05.871527"><ele>7</ele><time>2021-02-18T14:37:34Z</time><name>PT10942</name></trkpt>
<trkpt lat="53.465820" lon="05.871509"><ele>7</ele><time>2021-02-18T14:37:35Z</time><name>PT10943</name></trkpt>
<trkpt lat="53.465819" lon="05.871493"><ele>6.7</ele><time>2021-02-18T14:37:36Z</time><name>PT10944</name></trkpt>
<trkpt lat="53.465819" lon="05.871477"><ele>6.7</ele><time>2021-02-18T14:37:37Z</time><name>PT10945</name></trkpt>
<trkpt lat="53.465817" lon="05.871459"><ele>6.5</ele><time>2021-02-18T14:37:38Z</time><name>PT10946</name></trkpt>
<trkpt lat="53.465817" lon="05.871440"><ele>6.3</ele><time>2021-02-18T14:37:39Z</time><name>PT10947</name></trkpt>
<trkpt lat="53.465817" lon="05.871421"><ele>6.4</ele><time>2021-02-18T14:37:40Z</time><name>PT10948</name></trkpt>
<trkpt lat="53.465817" lon="05.871403"><ele>6.5</ele><time>2021-02-18T14:37:41Z</time><name>PT10949</name></trkpt>
<trkpt lat="53.465816" lon="05.871385"><ele>6.6</ele><time>2021-02-18T14:37:42Z</time><name>PT10950</name></trkpt>
<trkpt lat="53.465814" lon="05.871368"><ele>6.8</ele><time>2021-02-18T14:37:43Z</time><name>PT10951</name></trkpt>
<trkpt lat="53.465811" lon="05.871352"><ele>6.9</ele><time>2021-02-18T14:37:44Z</time><name>PT10952</name></trkpt>
<trkpt lat="53.465810" lon="05.871335"><ele>6.9</ele><time>2021-02-18T14:37:45Z</time><name>PT10953</name></trkpt>
<trkpt lat="53.465810" lon="05.871321"><ele>7.1</ele><time>2021-02-18T14:37:46Z</time><name>PT10954</name></trkpt>
<trkpt lat="53.465809" lon="05.871305"><ele>7.1</ele><time>2021-02-18T14:37:47Z</time><name>PT10955</name></trkpt>
<trkpt lat="53.465808" lon="05.871287"><ele>7</ele><time>2021-02-18T14:37:48Z</time><name>PT10956</name></trkpt>
<trkpt lat="53.465806" lon="05.871268"><ele>7.1</ele><time>2021-02-18T14:37:49Z</time><name>PT10957</name></trkpt>
<trkpt lat="53.465804" lon="05.871252"><ele>6.8</ele><time>2021-02-18T14:37:50Z</time><name>PT10958</name></trkpt>
<trkpt lat="53.465801" lon="05.871235"><ele>6.7</ele><time>2021-02-18T14:37:51Z</time><name>PT10959</name></trkpt>
<trkpt lat="53.465798" lon="05.871218"><ele>6.4</ele><time>2021-02-18T14:37:52Z</time><name>PT10960</name></trkpt>
<trkpt lat="53.465795" lon="05.871202"><ele>6.3</ele><time>2021-02-18T14:37:53Z</time><name>PT10961</name></trkpt>
<trkpt lat="53.465794" lon="05.871187"><ele>6.4</ele><time>2021-02-18T14:37:54Z</time><name>PT10962</name></trkpt>
<trkpt lat="53.465794" lon="05.871171"><ele>6.6</ele><time>2021-02-18T14:37:55Z</time><name>PT10963</name></trkpt>
<trkpt lat="53.465794" lon="05.871157"><ele>6.7</ele><time>2021-02-18T14:37:56Z</time><name>PT10964</name></trkpt>
<trkpt lat="53.465794" lon="05.871145"><ele>6.9</ele><time>2021-02-18T14:37:57Z</time><name>PT10965</name></trkpt>
<trkpt lat="53.465792" lon="05.871135"><ele>6.9</ele><time>2021-02-18T14:37:58Z</time><name>PT10966</name></trkpt>
<trkpt lat="53.465790" lon="05.871121"><ele>6.8</ele><time>2021-02-18T14:37:59Z</time><name>PT10967</name></trkpt>
<trkpt lat="53.465789" lon="05.871104"><ele>6.7</ele><time>2021-02-18T14:38:00Z</time><name>PT10968</name></trkpt>
<trkpt lat="53.465787" lon="05.871087"><ele>6.7</ele><time>2021-02-18T14:38:01Z</time><name>PT10969</name></trkpt>
<trkpt lat="53.465785" lon="05.871069"><ele>6.7</ele><time>2021-02-18T14:38:02Z</time><name>PT10970</name></trkpt>
<trkpt lat="53.465784" lon="05.871050"><ele>6.7</ele><time>2021-02-18T14:38:03Z</time><name>PT10971</name></trkpt>
<trkpt lat="53.465782" lon="05.871032"><ele>6.8</ele><time>2021-02-18T14:38:04Z</time><name>PT10972</name></trkpt>
<trkpt lat="53.465780" lon="05.871015"><ele>6.9</ele><time>2021-02-18T14:38:05Z</time><name>PT10973</name></trkpt>
<trkpt lat="53.465779" lon="05.870999"><ele>7.2</ele><time>2021-02-18T14:38:06Z</time><name>PT10974</name></trkpt>
<trkpt lat="53.465779" lon="05.870982"><ele>7.4</ele><time>2021-02-18T14:38:07Z</time><name>PT10975</name></trkpt>
<trkpt lat="53.465777" lon="05.870963"><ele>7.4</ele><time>2021-02-18T14:38:08Z</time><name>PT10976</name></trkpt>
<trkpt lat="53.465775" lon="05.870946"><ele>7.4</ele><time>2021-02-18T14:38:09Z</time><name>PT10977</name></trkpt>
<trkpt lat="53.465772" lon="05.870933"><ele>7.2</ele><time>2021-02-18T14:38:10Z</time><name>PT10978</name></trkpt>
<trkpt lat="53.465772" lon="05.870928"><ele>7.2</ele><time>2021-02-18T14:38:11Z</time><name>PT10979</name></trkpt>
<trkpt lat="53.465770" lon="05.870929"><ele>7.2</ele><time>2021-02-18T14:38:12Z</time><name>PT10980</name></trkpt>
<trkpt lat="53.465770" lon="05.870929"><ele>7.5</ele><time>2021-02-18T14:38:13Z</time><name>PT10981</name></trkpt>
<trkpt lat="53.465770" lon="05.870930"><ele>7.4</ele><time>2021-02-18T14:38:14Z</time><name>PT10982</name></trkpt>
<trkpt lat="53.465769" lon="05.870930"><ele>7.5</ele><time>2021-02-18T14:38:15Z</time><name>PT10983</name></trkpt>
<trkpt lat="53.465769" lon="05.870924"><ele>6.8</ele><time>2021-02-18T14:38:19Z</time><name>PT10984</name></trkpt>
<trkpt lat="53.465768" lon="05.870904"><ele>6.9</ele><time>2021-02-18T14:38:20Z</time><name>PT10985</name></trkpt>
<trkpt lat="53.465766" lon="05.870884"><ele>7</ele><time>2021-02-18T14:38:21Z</time><name>PT10986</name></trkpt>
<trkpt lat="53.465766" lon="05.870866"><ele>7.1</ele><time>2021-02-18T14:38:23Z</time><name>PT10987</name></trkpt>
<trkpt lat="53.465764" lon="05.870847"><ele>7.2</ele><time>2021-02-18T14:38:23Z</time><name>PT10988</name></trkpt>
<trkpt lat="53.465763" lon="05.870828"><ele>7.1</ele><time>2021-02-18T14:38:24Z</time><name>PT10989</name></trkpt>
<trkpt lat="53.465761" lon="05.870808"><ele>6.9</ele><time>2021-02-18T14:38:25Z</time><name>PT10990</name></trkpt>
<trkpt lat="53.465759" lon="05.870789"><ele>6.8</ele><time>2021-02-18T14:38:26Z</time><name>PT10991</name></trkpt>
<trkpt lat="53.465758" lon="05.870770"><ele>6.7</ele><time>2021-02-18T14:38:27Z</time><name>PT10992</name></trkpt>
<trkpt lat="53.465756" lon="05.870752"><ele>6.7</ele><time>2021-02-18T14:38:28Z</time><name>PT10993</name></trkpt>
<trkpt lat="53.465756" lon="05.870732"><ele>6.7</ele><time>2021-02-18T14:38:29Z</time><name>PT10994</name></trkpt>
<trkpt lat="53.465755" lon="05.870712"><ele>6.7</ele><time>2021-02-18T14:38:30Z</time><name>PT10995</name></trkpt>
<trkpt lat="53.465755" lon="05.870694"><ele>6.7</ele><time>2021-02-18T14:38:31Z</time><name>PT10996</name></trkpt>
<trkpt lat="53.465757" lon="05.870673"><ele>6.6</ele><time>2021-02-18T14:38:32Z</time><name>PT10997</name></trkpt>
<trkpt lat="53.465758" lon="05.870653"><ele>6.6</ele><time>2021-02-18T14:38:33Z</time><name>PT10998</name></trkpt>
<trkpt lat="53.465758" lon="05.870631"><ele>6.7</ele><time>2021-02-18T14:38:34Z</time><name>PT10999</name></trkpt>
<trkpt lat="53.465756" lon="05.870609"><ele>6.7</ele><time>2021-02-18T14:38:35Z</time><name>PT11000</name></trkpt>
<trkpt lat="53.465754" lon="05.870587"><ele>6.7</ele><time>2021-02-18T14:38:36Z</time><name>PT11001</name></trkpt>
<trkpt lat="53.465753" lon="05.870568"><ele>7</ele><time>2021-02-18T14:38:37Z</time><name>PT11002</name></trkpt>
<trkpt lat="53.465752" lon="05.870550"><ele>6.9</ele><time>2021-02-18T14:38:38Z</time><name>PT11003</name></trkpt>
<trkpt lat="53.465753" lon="05.870533"><ele>7</ele><time>2021-02-18T14:38:39Z</time><name>PT11004</name></trkpt>
<trkpt lat="53.465753" lon="05.870514"><ele>7.3</ele><time>2021-02-18T14:38:40Z</time><name>PT11005</name></trkpt>
<trkpt lat="53.465750" lon="05.870495"><ele>7.2</ele><time>2021-02-18T14:38:41Z</time><name>PT11006</name></trkpt>
<trkpt lat="53.465748" lon="05.870475"><ele>7.2</ele><time>2021-02-18T14:38:42Z</time><name>PT11007</name></trkpt>
<trkpt lat="53.465746" lon="05.870457"><ele>7.2</ele><time>2021-02-18T14:38:43Z</time><name>PT11008</name></trkpt>
<trkpt lat="53.465745" lon="05.870440"><ele>7</ele><time>2021-02-18T14:38:44Z</time><name>PT11009</name></trkpt>
<trkpt lat="53.465744" lon="05.870422"><ele>6.9</ele><time>2021-02-18T14:38:45Z</time><name>PT11010</name></trkpt>
<trkpt lat="53.465744" lon="05.870404"><ele>7.1</ele><time>2021-02-18T14:38:46Z</time><name>PT11011</name></trkpt>
<trkpt lat="53.465745" lon="05.870385"><ele>7.2</ele><time>2021-02-18T14:38:47Z</time><name>PT11012</name></trkpt>
<trkpt lat="53.465748" lon="05.870364"><ele>7.1</ele><time>2021-02-18T14:38:48Z</time><name>PT11013</name></trkpt>
<trkpt lat="53.465749" lon="05.870342"><ele>7.2</ele><time>2021-02-18T14:38:49Z</time><name>PT11014</name></trkpt>
<trkpt lat="53.465751" lon="05.870323"><ele>7.1</ele><time>2021-02-18T14:38:50Z</time><name>PT11015</name></trkpt>
<trkpt lat="53.465751" lon="05.870304"><ele>7.2</ele><time>2021-02-18T14:38:51Z</time><name>PT11016</name></trkpt>
<trkpt lat="53.465749" lon="05.870285"><ele>7.4</ele><time>2021-02-18T14:38:52Z</time><name>PT11017</name></trkpt>
<trkpt lat="53.465746" lon="05.870267"><ele>7.4</ele><time>2021-02-18T14:38:53Z</time><name>PT11018</name></trkpt>
<trkpt lat="53.465745" lon="05.870249"><ele>7.5</ele><time>2021-02-18T14:38:54Z</time><name>PT11019</name></trkpt>
<trkpt lat="53.465744" lon="05.870231"><ele>7.2</ele><time>2021-02-18T14:38:55Z</time><name>PT11020</name></trkpt>
<trkpt lat="53.465743" lon="05.870211"><ele>7.1</ele><time>2021-02-18T14:38:56Z</time><name>PT11021</name></trkpt>
<trkpt lat="53.465742" lon="05.870190"><ele>7.1</ele><time>2021-02-18T14:38:57Z</time><name>PT11022</name></trkpt>
<trkpt lat="53.465740" lon="05.870172"><ele>7</ele><time>2021-02-18T14:38:58Z</time><name>PT11023</name></trkpt>
<trkpt lat="53.465739" lon="05.870155"><ele>7</ele><time>2021-02-18T14:38:59Z</time><name>PT11024</name></trkpt>
<trkpt lat="53.465738" lon="05.870137"><ele>7.3</ele><time>2021-02-18T14:39:00Z</time><name>PT11025</name></trkpt>
<trkpt lat="53.465737" lon="05.870119"><ele>7.6</ele><time>2021-02-18T14:39:01Z</time><name>PT11026</name></trkpt>
<trkpt lat="53.465736" lon="05.870099"><ele>7.9</ele><time>2021-02-18T14:39:02Z</time><name>PT11027</name></trkpt>
<trkpt lat="53.465735" lon="05.870078"><ele>8.3</ele><time>2021-02-18T14:39:03Z</time><name>PT11028</name></trkpt>
<trkpt lat="53.465732" lon="05.870058"><ele>8.5</ele><time>2021-02-18T14:39:04Z</time><name>PT11029</name></trkpt>
<trkpt lat="53.465731" lon="05.870037"><ele>8.6</ele><time>2021-02-18T14:39:05Z</time><name>PT11030</name></trkpt>
<trkpt lat="53.465730" lon="05.870017"><ele>8.6</ele><time>2021-02-18T14:39:06Z</time><name>PT11031</name></trkpt>
<trkpt lat="53.465729" lon="05.869997"><ele>8.7</ele><time>2021-02-18T14:39:07Z</time><name>PT11032</name></trkpt>
<trkpt lat="53.465727" lon="05.869978"><ele>8.7</ele><time>2021-02-18T14:39:08Z</time><name>PT11033</name></trkpt>
<trkpt lat="53.465725" lon="05.869959"><ele>8.5</ele><time>2021-02-18T14:39:09Z</time><name>PT11034</name></trkpt>
<trkpt lat="53.465722" lon="05.869942"><ele>8.3</ele><time>2021-02-18T14:39:10Z</time><name>PT11035</name></trkpt>
<trkpt lat="53.465720" lon="05.869925"><ele>8.3</ele><time>2021-02-18T14:39:11Z</time><name>PT11036</name></trkpt>
<trkpt lat="53.465718" lon="05.869907"><ele>8</ele><time>2021-02-18T14:39:12Z</time><name>PT11037</name></trkpt>
<trkpt lat="53.465717" lon="05.869888"><ele>7.8</ele><time>2021-02-18T14:39:13Z</time><name>PT11038</name></trkpt>
<trkpt lat="53.465717" lon="05.869869"><ele>7.7</ele><time>2021-02-18T14:39:14Z</time><name>PT11039</name></trkpt>
<trkpt lat="53.465716" lon="05.869850"><ele>7.5</ele><time>2021-02-18T14:39:15Z</time><name>PT11040</name></trkpt>
<trkpt lat="53.465714" lon="05.869830"><ele>7.4</ele><time>2021-02-18T14:39:16Z</time><name>PT11041</name></trkpt>
<trkpt lat="53.465713" lon="05.869809"><ele>7.7</ele><time>2021-02-18T14:39:17Z</time><name>PT11042</name></trkpt>
<trkpt lat="53.465712" lon="05.869789"><ele>7.9</ele><time>2021-02-18T14:39:18Z</time><name>PT11043</name></trkpt>
<trkpt lat="53.465710" lon="05.869771"><ele>8.2</ele><time>2021-02-18T14:39:19Z</time><name>PT11044</name></trkpt>
<trkpt lat="53.465707" lon="05.869755"><ele>8.1</ele><time>2021-02-18T14:39:20Z</time><name>PT11045</name></trkpt>
<trkpt lat="53.465704" lon="05.869736"><ele>7.7</ele><time>2021-02-18T14:39:21Z</time><name>PT11046</name></trkpt>
<trkpt lat="53.465702" lon="05.869719"><ele>7.4</ele><time>2021-02-18T14:39:22Z</time><name>PT11047</name></trkpt>
<trkpt lat="53.465700" lon="05.869701"><ele>7.2</ele><time>2021-02-18T14:39:23Z</time><name>PT11048</name></trkpt>
<trkpt lat="53.465699" lon="05.869682"><ele>7</ele><time>2021-02-18T14:39:24Z</time><name>PT11049</name></trkpt>
<trkpt lat="53.465699" lon="05.869662"><ele>6.9</ele><time>2021-02-18T14:39:25Z</time><name>PT11050</name></trkpt>
<trkpt lat="53.465699" lon="05.869641"><ele>7</ele><time>2021-02-18T14:39:26Z</time><name>PT11051</name></trkpt>
<trkpt lat="53.465699" lon="05.869621"><ele>7.1</ele><time>2021-02-18T14:39:27Z</time><name>PT11052</name></trkpt>
<trkpt lat="53.465699" lon="05.869601"><ele>7.2</ele><time>2021-02-18T14:39:28Z</time><name>PT11053</name></trkpt>
<trkpt lat="53.465699" lon="05.869581"><ele>7.2</ele><time>2021-02-18T14:39:29Z</time><name>PT11054</name></trkpt>
<trkpt lat="53.465697" lon="05.869563"><ele>7.3</ele><time>2021-02-18T14:39:30Z</time><name>PT11055</name></trkpt>
<trkpt lat="53.465696" lon="05.869544"><ele>7.3</ele><time>2021-02-18T14:39:31Z</time><name>PT11056</name></trkpt>
<trkpt lat="53.465694" lon="05.869525"><ele>7.5</ele><time>2021-02-18T14:39:32Z</time><name>PT11057</name></trkpt>
<trkpt lat="53.465693" lon="05.869505"><ele>7.7</ele><time>2021-02-18T14:39:33Z</time><name>PT11058</name></trkpt>
<trkpt lat="53.465691" lon="05.869486"><ele>8.2</ele><time>2021-02-18T14:39:34Z</time><name>PT11059</name></trkpt>
<trkpt lat="53.465689" lon="05.869469"><ele>8.5</ele><time>2021-02-18T14:39:35Z</time><name>PT11060</name></trkpt>
<trkpt lat="53.465689" lon="05.869451"><ele>9</ele><time>2021-02-18T14:39:36Z</time><name>PT11061</name></trkpt>
<trkpt lat="53.465688" lon="05.869431"><ele>9.1</ele><time>2021-02-18T14:39:37Z</time><name>PT11062</name></trkpt>
<trkpt lat="53.465687" lon="05.869410"><ele>9.2</ele><time>2021-02-18T14:39:38Z</time><name>PT11063</name></trkpt>
<trkpt lat="53.465686" lon="05.869392"><ele>9.2</ele><time>2021-02-18T14:39:39Z</time><name>PT11064</name></trkpt>
<trkpt lat="53.465685" lon="05.869374"><ele>8.8</ele><time>2021-02-18T14:39:40Z</time><name>PT11065</name></trkpt>
<trkpt lat="53.465683" lon="05.869358"><ele>8.4</ele><time>2021-02-18T14:39:41Z</time><name>PT11066</name></trkpt>
<trkpt lat="53.465680" lon="05.869342"><ele>7.9</ele><time>2021-02-18T14:39:42Z</time><name>PT11067</name></trkpt>
<trkpt lat="53.465676" lon="05.869327"><ele>7.7</ele><time>2021-02-18T14:39:43Z</time><name>PT11068</name></trkpt>
<trkpt lat="53.465672" lon="05.869311"><ele>7.8</ele><time>2021-02-18T14:39:44Z</time><name>PT11069</name></trkpt>
<trkpt lat="53.465670" lon="05.869294"><ele>7.9</ele><time>2021-02-18T14:39:45Z</time><name>PT11070</name></trkpt>
<trkpt lat="53.465666" lon="05.869275"><ele>8.1</ele><time>2021-02-18T14:39:46Z</time><name>PT11071</name></trkpt>
<trkpt lat="53.465664" lon="05.869256"><ele>8.3</ele><time>2021-02-18T14:39:47Z</time><name>PT11072</name></trkpt>
<trkpt lat="53.465660" lon="05.869238"><ele>8.3</ele><time>2021-02-18T14:39:48Z</time><name>PT11073</name></trkpt>
<trkpt lat="53.465657" lon="05.869221"><ele>8.3</ele><time>2021-02-18T14:39:49Z</time><name>PT11074</name></trkpt>
<trkpt lat="53.465653" lon="05.869204"><ele>8.3</ele><time>2021-02-18T14:39:50Z</time><name>PT11075</name></trkpt>
<trkpt lat="53.465647" lon="05.869186"><ele>8.6</ele><time>2021-02-18T14:39:51Z</time><name>PT11076</name></trkpt>
<trkpt lat="53.465642" lon="05.869169"><ele>8.7</ele><time>2021-02-18T14:39:52Z</time><name>PT11077</name></trkpt>
<trkpt lat="53.465637" lon="05.869154"><ele>8.8</ele><time>2021-02-18T14:39:53Z</time><name>PT11078</name></trkpt>
<trkpt lat="53.465633" lon="05.869139"><ele>8.8</ele><time>2021-02-18T14:39:54Z</time><name>PT11079</name></trkpt>
<trkpt lat="53.465629" lon="05.869122"><ele>8.4</ele><time>2021-02-18T14:39:55Z</time><name>PT11080</name></trkpt>
<trkpt lat="53.465626" lon="05.869103"><ele>8.2</ele><time>2021-02-18T14:39:56Z</time><name>PT11081</name></trkpt>
<trkpt lat="53.465624" lon="05.869083"><ele>7.8</ele><time>2021-02-18T14:39:57Z</time><name>PT11082</name></trkpt>
<trkpt lat="53.465622" lon="05.869065"><ele>7.6</ele><time>2021-02-18T14:39:58Z</time><name>PT11083</name></trkpt>
<trkpt lat="53.465618" lon="05.869047"><ele>7.3</ele><time>2021-02-18T14:39:59Z</time><name>PT11084</name></trkpt>
<trkpt lat="53.465614" lon="05.869029"><ele>7.2</ele><time>2021-02-18T14:40:00Z</time><name>PT11085</name></trkpt>
<trkpt lat="53.465611" lon="05.869011"><ele>7.3</ele><time>2021-02-18T14:40:01Z</time><name>PT11086</name></trkpt>
<trkpt lat="53.465608" lon="05.868994"><ele>7.3</ele><time>2021-02-18T14:40:02Z</time><name>PT11087</name></trkpt>
<trkpt lat="53.465602" lon="05.868976"><ele>7.4</ele><time>2021-02-18T14:40:03Z</time><name>PT11088</name></trkpt>
<trkpt lat="53.465597" lon="05.868959"><ele>7.4</ele><time>2021-02-18T14:40:04Z</time><name>PT11089</name></trkpt>
<trkpt lat="53.465592" lon="05.868945"><ele>7.4</ele><time>2021-02-18T14:40:05Z</time><name>PT11090</name></trkpt>
<trkpt lat="53.465587" lon="05.868929"><ele>7.5</ele><time>2021-02-18T14:40:06Z</time><name>PT11091</name></trkpt>
<trkpt lat="53.465584" lon="05.868911"><ele>7.6</ele><time>2021-02-18T14:40:07Z</time><name>PT11092</name></trkpt>
<trkpt lat="53.465582" lon="05.868893"><ele>7.6</ele><time>2021-02-18T14:40:08Z</time><name>PT11093</name></trkpt>
<trkpt lat="53.465579" lon="05.868874"><ele>7.7</ele><time>2021-02-18T14:40:09Z</time><name>PT11094</name></trkpt>
<trkpt lat="53.465576" lon="05.868856"><ele>7.7</ele><time>2021-02-18T14:40:10Z</time><name>PT11095</name></trkpt>
<trkpt lat="53.465573" lon="05.868839"><ele>7.5</ele><time>2021-02-18T14:40:11Z</time><name>PT11096</name></trkpt>
<trkpt lat="53.465570" lon="05.868821"><ele>7.5</ele><time>2021-02-18T14:40:12Z</time><name>PT11097</name></trkpt>
<trkpt lat="53.465566" lon="05.868803"><ele>7.4</ele><time>2021-02-18T14:40:13Z</time><name>PT11098</name></trkpt>
<trkpt lat="53.465562" lon="05.868785"><ele>7.2</ele><time>2021-02-18T14:40:14Z</time><name>PT11099</name></trkpt>
<trkpt lat="53.465558" lon="05.868768"><ele>7.2</ele><time>2021-02-18T14:40:15Z</time><name>PT11100</name></trkpt>
<trkpt lat="53.465554" lon="05.868750"><ele>7.2</ele><time>2021-02-18T14:40:16Z</time><name>PT11101</name></trkpt>
<trkpt lat="53.465551" lon="05.868735"><ele>7.1</ele><time>2021-02-18T14:40:17Z</time><name>PT11102</name></trkpt>
<trkpt lat="53.465548" lon="05.868717"><ele>6.9</ele><time>2021-02-18T14:40:18Z</time><name>PT11103</name></trkpt>
<trkpt lat="53.465545" lon="05.868699"><ele>7</ele><time>2021-02-18T14:40:19Z</time><name>PT11104</name></trkpt>
<trkpt lat="53.465542" lon="05.868680"><ele>7.1</ele><time>2021-02-18T14:40:20Z</time><name>PT11105</name></trkpt>
<trkpt lat="53.465538" lon="05.868663"><ele>7.2</ele><time>2021-02-18T14:40:21Z</time><name>PT11106</name></trkpt>
<trkpt lat="53.465535" lon="05.868644"><ele>7.2</ele><time>2021-02-18T14:40:22Z</time><name>PT11107</name></trkpt>
<trkpt lat="53.465532" lon="05.868624"><ele>7.2</ele><time>2021-02-18T14:40:23Z</time><name>PT11108</name></trkpt>
<trkpt lat="53.465530" lon="05.868606"><ele>7</ele><time>2021-02-18T14:40:24Z</time><name>PT11109</name></trkpt>
<trkpt lat="53.465527" lon="05.868589"><ele>7</ele><time>2021-02-18T14:40:25Z</time><name>PT11110</name></trkpt>
<trkpt lat="53.465523" lon="05.868572"><ele>7.2</ele><time>2021-02-18T14:40:26Z</time><name>PT11111</name></trkpt>
<trkpt lat="53.465519" lon="05.868554"><ele>7.4</ele><time>2021-02-18T14:40:27Z</time><name>PT11112</name></trkpt>
<trkpt lat="53.465516" lon="05.868537"><ele>7.7</ele><time>2021-02-18T14:40:28Z</time><name>PT11113</name></trkpt>
<trkpt lat="53.465512" lon="05.868522"><ele>7.7</ele><time>2021-02-18T14:40:29Z</time><name>PT11114</name></trkpt>
<trkpt lat="53.465510" lon="05.868507"><ele>7.9</ele><time>2021-02-18T14:40:30Z</time><name>PT11115</name></trkpt>
<trkpt lat="53.465507" lon="05.868488"><ele>7.7</ele><time>2021-02-18T14:40:31Z</time><name>PT11116</name></trkpt>
<trkpt lat="53.465507" lon="05.868471"><ele>7.7</ele><time>2021-02-18T14:40:32Z</time><name>PT11117</name></trkpt>
<trkpt lat="53.465506" lon="05.868454"><ele>7.7</ele><time>2021-02-18T14:40:33Z</time><name>PT11118</name></trkpt>
<trkpt lat="53.465503" lon="05.868436"><ele>7.6</ele><time>2021-02-18T14:40:34Z</time><name>PT11119</name></trkpt>
<trkpt lat="53.465500" lon="05.868418"><ele>7.7</ele><time>2021-02-18T14:40:35Z</time><name>PT11120</name></trkpt>
<trkpt lat="53.465495" lon="05.868401"><ele>7.7</ele><time>2021-02-18T14:40:36Z</time><name>PT11121</name></trkpt>
<trkpt lat="53.465492" lon="05.868382"><ele>7.7</ele><time>2021-02-18T14:40:37Z</time><name>PT11122</name></trkpt>
<trkpt lat="53.465489" lon="05.868363"><ele>7.6</ele><time>2021-02-18T14:40:38Z</time><name>PT11123</name></trkpt>
<trkpt lat="53.465485" lon="05.868346"><ele>7.7</ele><time>2021-02-18T14:40:39Z</time><name>PT11124</name></trkpt>
<trkpt lat="53.465483" lon="05.868330"><ele>7.8</ele><time>2021-02-18T14:40:40Z</time><name>PT11125</name></trkpt>
<trkpt lat="53.465480" lon="05.868313"><ele>7.9</ele><time>2021-02-18T14:40:41Z</time><name>PT11126</name></trkpt>
<trkpt lat="53.465477" lon="05.868296"><ele>8</ele><time>2021-02-18T14:40:42Z</time><name>PT11127</name></trkpt>
<trkpt lat="53.465474" lon="05.868279"><ele>8.2</ele><time>2021-02-18T14:40:43Z</time><name>PT11128</name></trkpt>
<trkpt lat="53.465471" lon="05.868261"><ele>7.9</ele><time>2021-02-18T14:40:44Z</time><name>PT11129</name></trkpt>
<trkpt lat="53.465469" lon="05.868242"><ele>7.8</ele><time>2021-02-18T14:40:45Z</time><name>PT11130</name></trkpt>
<trkpt lat="53.465468" lon="05.868224"><ele>7.9</ele><time>2021-02-18T14:40:46Z</time><name>PT11131</name></trkpt>
<trkpt lat="53.465468" lon="05.868207"><ele>7.8</ele><time>2021-02-18T14:40:47Z</time><name>PT11132</name></trkpt>
<trkpt lat="53.465466" lon="05.868190"><ele>7.9</ele><time>2021-02-18T14:40:48Z</time><name>PT11133</name></trkpt>
<trkpt lat="53.465464" lon="05.868173"><ele>7.8</ele><time>2021-02-18T14:40:49Z</time><name>PT11134</name></trkpt>
<trkpt lat="53.465461" lon="05.868156"><ele>7.7</ele><time>2021-02-18T14:40:50Z</time><name>PT11135</name></trkpt>
<trkpt lat="53.465459" lon="05.868140"><ele>7.7</ele><time>2021-02-18T14:40:51Z</time><name>PT11136</name></trkpt>
<trkpt lat="53.465457" lon="05.868125"><ele>7.8</ele><time>2021-02-18T14:40:52Z</time><name>PT11137</name></trkpt>
<trkpt lat="53.465455" lon="05.868109"><ele>7.9</ele><time>2021-02-18T14:40:53Z</time><name>PT11138</name></trkpt>
<trkpt lat="53.465453" lon="05.868092"><ele>8</ele><time>2021-02-18T14:40:54Z</time><name>PT11139</name></trkpt>
<trkpt lat="53.465451" lon="05.868075"><ele>8.1</ele><time>2021-02-18T14:40:55Z</time><name>PT11140</name></trkpt>
<trkpt lat="53.465450" lon="05.868058"><ele>8.2</ele><time>2021-02-18T14:40:56Z</time><name>PT11141</name></trkpt>
<trkpt lat="53.465449" lon="05.868042"><ele>8.1</ele><time>2021-02-18T14:40:57Z</time><name>PT11142</name></trkpt>
<trkpt lat="53.465446" lon="05.868026"><ele>8</ele><time>2021-02-18T14:40:58Z</time><name>PT11143</name></trkpt>
<trkpt lat="53.465442" lon="05.868010"><ele>8.1</ele><time>2021-02-18T14:40:59Z</time><name>PT11144</name></trkpt>
<trkpt lat="53.465436" lon="05.867993"><ele>8</ele><time>2021-02-18T14:41:00Z</time><name>PT11145</name></trkpt>
<trkpt lat="53.465431" lon="05.867976"><ele>8.1</ele><time>2021-02-18T14:41:01Z</time><name>PT11146</name></trkpt>
<trkpt lat="53.465427" lon="05.867960"><ele>8.4</ele><time>2021-02-18T14:41:02Z</time><name>PT11147</name></trkpt>
<trkpt lat="53.465424" lon="05.867943"><ele>9</ele><time>2021-02-18T14:41:03Z</time><name>PT11148</name></trkpt>
<trkpt lat="53.465421" lon="05.867926"><ele>9.2</ele><time>2021-02-18T14:41:04Z</time><name>PT11149</name></trkpt>
<trkpt lat="53.465417" lon="05.867910"><ele>9.1</ele><time>2021-02-18T14:41:05Z</time><name>PT11150</name></trkpt>
<trkpt lat="53.465412" lon="05.867894"><ele>8.8</ele><time>2021-02-18T14:41:06Z</time><name>PT11151</name></trkpt>
<trkpt lat="53.465409" lon="05.867876"><ele>8.4</ele><time>2021-02-18T14:41:07Z</time><name>PT11152</name></trkpt>
<trkpt lat="53.465406" lon="05.867861"><ele>8.3</ele><time>2021-02-18T14:41:08Z</time><name>PT11153</name></trkpt>
<trkpt lat="53.465402" lon="05.867846"><ele>8.2</ele><time>2021-02-18T14:41:09Z</time><name>PT11154</name></trkpt>
<trkpt lat="53.465398" lon="05.867828"><ele>8</ele><time>2021-02-18T14:41:10Z</time><name>PT11155</name></trkpt>
<trkpt lat="53.465394" lon="05.867812"><ele>7.8</ele><time>2021-02-18T14:41:11Z</time><name>PT11156</name></trkpt>
<trkpt lat="53.465389" lon="05.867796"><ele>7.7</ele><time>2021-02-18T14:41:12Z</time><name>PT11157</name></trkpt>
<trkpt lat="53.465384" lon="05.867781"><ele>7.8</ele><time>2021-02-18T14:41:13Z</time><name>PT11158</name></trkpt>
<trkpt lat="53.465380" lon="05.867765"><ele>7.9</ele><time>2021-02-18T14:41:14Z</time><name>PT11159</name></trkpt>
<trkpt lat="53.465376" lon="05.867751"><ele>8.2</ele><time>2021-02-18T14:41:15Z</time><name>PT11160</name></trkpt>
<trkpt lat="53.465372" lon="05.867735"><ele>8.1</ele><time>2021-02-18T14:41:16Z</time><name>PT11161</name></trkpt>
<trkpt lat="53.465368" lon="05.867718"><ele>8</ele><time>2021-02-18T14:41:17Z</time><name>PT11162</name></trkpt>
<trkpt lat="53.465365" lon="05.867702"><ele>7.9</ele><time>2021-02-18T14:41:18Z</time><name>PT11163</name></trkpt>
<trkpt lat="53.465362" lon="05.867685"><ele>7.9</ele><time>2021-02-18T14:41:19Z</time><name>PT11164</name></trkpt>
<trkpt lat="53.465360" lon="05.867668"><ele>8</ele><time>2021-02-18T14:41:20Z</time><name>PT11165</name></trkpt>
<trkpt lat="53.465356" lon="05.867652"><ele>8.2</ele><time>2021-02-18T14:41:21Z</time><name>PT11166</name></trkpt>
<trkpt lat="53.465353" lon="05.867637"><ele>8.2</ele><time>2021-02-18T14:41:22Z</time><name>PT11167</name></trkpt>
<trkpt lat="53.465348" lon="05.867621"><ele>8.3</ele><time>2021-02-18T14:41:23Z</time><name>PT11168</name></trkpt>
<trkpt lat="53.465342" lon="05.867609"><ele>8.6</ele><time>2021-02-18T14:41:24Z</time><name>PT11169</name></trkpt>
<trkpt lat="53.465338" lon="05.867597"><ele>8.6</ele><time>2021-02-18T14:41:25Z</time><name>PT11170</name></trkpt>
<trkpt lat="53.465334" lon="05.867583"><ele>8.8</ele><time>2021-02-18T14:41:26Z</time><name>PT11171</name></trkpt>
<trkpt lat="53.465329" lon="05.867569"><ele>8.7</ele><time>2021-02-18T14:41:27Z</time><name>PT11172</name></trkpt>
<trkpt lat="53.465323" lon="05.867554"><ele>8.5</ele><time>2021-02-18T14:41:28Z</time><name>PT11173</name></trkpt>
<trkpt lat="53.465318" lon="05.867541"><ele>8.3</ele><time>2021-02-18T14:41:29Z</time><name>PT11174</name></trkpt>
<trkpt lat="53.465313" lon="05.867528"><ele>8.2</ele><time>2021-02-18T14:41:30Z</time><name>PT11175</name></trkpt>
<trkpt lat="53.465306" lon="05.867514"><ele>8</ele><time>2021-02-18T14:41:31Z</time><name>PT11176</name></trkpt>
<trkpt lat="53.465300" lon="05.867501"><ele>8</ele><time>2021-02-18T14:41:32Z</time><name>PT11177</name></trkpt>
<trkpt lat="53.465293" lon="05.867487"><ele>7.9</ele><time>2021-02-18T14:41:33Z</time><name>PT11178</name></trkpt>
<trkpt lat="53.465287" lon="05.867475"><ele>8.1</ele><time>2021-02-18T14:41:34Z</time><name>PT11179</name></trkpt>
<trkpt lat="53.465281" lon="05.867465"><ele>8.2</ele><time>2021-02-18T14:41:35Z</time><name>PT11180</name></trkpt>
<trkpt lat="53.465275" lon="05.867455"><ele>8.3</ele><time>2021-02-18T14:41:36Z</time><name>PT11181</name></trkpt>
<trkpt lat="53.465270" lon="05.867441"><ele>8.5</ele><time>2021-02-18T14:41:37Z</time><name>PT11182</name></trkpt>
<trkpt lat="53.465265" lon="05.867425"><ele>8.4</ele><time>2021-02-18T14:41:38Z</time><name>PT11183</name></trkpt>
<trkpt lat="53.465260" lon="05.867411"><ele>8.5</ele><time>2021-02-18T14:41:39Z</time><name>PT11184</name></trkpt>
<trkpt lat="53.465256" lon="05.867398"><ele>8.9</ele><time>2021-02-18T14:41:40Z</time><name>PT11185</name></trkpt>
<trkpt lat="53.465250" lon="05.867385"><ele>9.1</ele><time>2021-02-18T14:41:41Z</time><name>PT11186</name></trkpt>
<trkpt lat="53.465244" lon="05.867374"><ele>9.2</ele><time>2021-02-18T14:41:42Z</time><name>PT11187</name></trkpt>
<trkpt lat="53.465239" lon="05.867363"><ele>9.3</ele><time>2021-02-18T14:41:43Z</time><name>PT11188</name></trkpt>
<trkpt lat="53.465235" lon="05.867350"><ele>9.2</ele><time>2021-02-18T14:41:44Z</time><name>PT11189</name></trkpt>
<trkpt lat="53.465230" lon="05.867337"><ele>9</ele><time>2021-02-18T14:41:45Z</time><name>PT11190</name></trkpt>
<trkpt lat="53.465225" lon="05.867324"><ele>9</ele><time>2021-02-18T14:41:46Z</time><name>PT11191</name></trkpt>
<trkpt lat="53.465219" lon="05.867312"><ele>8.8</ele><time>2021-02-18T14:41:47Z</time><name>PT11192</name></trkpt>
<trkpt lat="53.465212" lon="05.867300"><ele>8.8</ele><time>2021-02-18T14:41:48Z</time><name>PT11193</name></trkpt>
<trkpt lat="53.465208" lon="05.867288"><ele>8.8</ele><time>2021-02-18T14:41:49Z</time><name>PT11194</name></trkpt>
<trkpt lat="53.465204" lon="05.867274"><ele>8.8</ele><time>2021-02-18T14:41:50Z</time><name>PT11195</name></trkpt>
<trkpt lat="53.465198" lon="05.867262"><ele>9</ele><time>2021-02-18T14:41:51Z</time><name>PT11196</name></trkpt>
<trkpt lat="53.465192" lon="05.867251"><ele>9.2</ele><time>2021-02-18T14:41:52Z</time><name>PT11197</name></trkpt>
<trkpt lat="53.465187" lon="05.867241"><ele>9.3</ele><time>2021-02-18T14:41:53Z</time><name>PT11198</name></trkpt>
<trkpt lat="53.465184" lon="05.867230"><ele>9.8</ele><time>2021-02-18T14:41:54Z</time><name>PT11199</name></trkpt>
<trkpt lat="53.465183" lon="05.867218"><ele>9.8</ele><time>2021-02-18T14:41:55Z</time><name>PT11200</name></trkpt>
<trkpt lat="53.465184" lon="05.867204"><ele>10</ele><time>2021-02-18T14:41:56Z</time><name>PT11201</name></trkpt>
<trkpt lat="53.465184" lon="05.867187"><ele>9.8</ele><time>2021-02-18T14:41:57Z</time><name>PT11202</name></trkpt>
<trkpt lat="53.465182" lon="05.867169"><ele>9.9</ele><time>2021-02-18T14:41:58Z</time><name>PT11203</name></trkpt>
<trkpt lat="53.465179" lon="05.867150"><ele>9.8</ele><time>2021-02-18T14:41:59Z</time><name>PT11204</name></trkpt>
<trkpt lat="53.465176" lon="05.867132"><ele>9.7</ele><time>2021-02-18T14:42:00Z</time><name>PT11205</name></trkpt>
<trkpt lat="53.465172" lon="05.867114"><ele>9.6</ele><time>2021-02-18T14:42:01Z</time><name>PT11206</name></trkpt>
<trkpt lat="53.465169" lon="05.867098"><ele>9.4</ele><time>2021-02-18T14:42:02Z</time><name>PT11207</name></trkpt>
<trkpt lat="53.465168" lon="05.867083"><ele>8.9</ele><time>2021-02-18T14:42:03Z</time><name>PT11208</name></trkpt>
<trkpt lat="53.465168" lon="05.867066"><ele>8.8</ele><time>2021-02-18T14:42:04Z</time><name>PT11209</name></trkpt>
<trkpt lat="53.465168" lon="05.867050"><ele>8.8</ele><time>2021-02-18T14:42:05Z</time><name>PT11210</name></trkpt>
<trkpt lat="53.465168" lon="05.867033"><ele>8.8</ele><time>2021-02-18T14:42:06Z</time><name>PT11211</name></trkpt>
<trkpt lat="53.465167" lon="05.867016"><ele>8.8</ele><time>2021-02-18T14:42:07Z</time><name>PT11212</name></trkpt>
<trkpt lat="53.465165" lon="05.867000"><ele>8.9</ele><time>2021-02-18T14:42:08Z</time><name>PT11213</name></trkpt>
<trkpt lat="53.465163" lon="05.866983"><ele>9</ele><time>2021-02-18T14:42:09Z</time><name>PT11214</name></trkpt>
<trkpt lat="53.465162" lon="05.866967"><ele>8.9</ele><time>2021-02-18T14:42:10Z</time><name>PT11215</name></trkpt>
<trkpt lat="53.465161" lon="05.866953"><ele>9.1</ele><time>2021-02-18T14:42:11Z</time><name>PT11216</name></trkpt>
<trkpt lat="53.465160" lon="05.866937"><ele>9</ele><time>2021-02-18T14:42:12Z</time><name>PT11217</name></trkpt>
<trkpt lat="53.465161" lon="05.866921"><ele>8.8</ele><time>2021-02-18T14:42:13Z</time><name>PT11218</name></trkpt>
<trkpt lat="53.465160" lon="05.866904"><ele>8.9</ele><time>2021-02-18T14:42:14Z</time><name>PT11219</name></trkpt>
<trkpt lat="53.465161" lon="05.866887"><ele>8.9</ele><time>2021-02-18T14:42:15Z</time><name>PT11220</name></trkpt>
<trkpt lat="53.465160" lon="05.866871"><ele>9.1</ele><time>2021-02-18T14:42:16Z</time><name>PT11221</name></trkpt>
<trkpt lat="53.465159" lon="05.866853"><ele>9.2</ele><time>2021-02-18T14:42:17Z</time><name>PT11222</name></trkpt>
<trkpt lat="53.465157" lon="05.866835"><ele>9.3</ele><time>2021-02-18T14:42:18Z</time><name>PT11223</name></trkpt>
<trkpt lat="53.465156" lon="05.866820"><ele>9.4</ele><time>2021-02-18T14:42:19Z</time><name>PT11224</name></trkpt>
<trkpt lat="53.465155" lon="05.866807"><ele>9.4</ele><time>2021-02-18T14:42:20Z</time><name>PT11225</name></trkpt>
<trkpt lat="53.465154" lon="05.866792"><ele>9.4</ele><time>2021-02-18T14:42:21Z</time><name>PT11226</name></trkpt>
<trkpt lat="53.465154" lon="05.866776"><ele>9.5</ele><time>2021-02-18T14:42:22Z</time><name>PT11227</name></trkpt>
<trkpt lat="53.465153" lon="05.866761"><ele>9.6</ele><time>2021-02-18T14:42:23Z</time><name>PT11228</name></trkpt>
<trkpt lat="53.465152" lon="05.866746"><ele>9.5</ele><time>2021-02-18T14:42:24Z</time><name>PT11229</name></trkpt>
<trkpt lat="53.465151" lon="05.866731"><ele>9.3</ele><time>2021-02-18T14:42:25Z</time><name>PT11230</name></trkpt>
<trkpt lat="53.465149" lon="05.866716"><ele>9.3</ele><time>2021-02-18T14:42:26Z</time><name>PT11231</name></trkpt>
<trkpt lat="53.465146" lon="05.866701"><ele>9.3</ele><time>2021-02-18T14:42:27Z</time><name>PT11232</name></trkpt>
<trkpt lat="53.465143" lon="05.866686"><ele>9.3</ele><time>2021-02-18T14:42:28Z</time><name>PT11233</name></trkpt>
<trkpt lat="53.465141" lon="05.866670"><ele>9.3</ele><time>2021-02-18T14:42:29Z</time><name>PT11234</name></trkpt>
<trkpt lat="53.465140" lon="05.866656"><ele>9.4</ele><time>2021-02-18T14:42:30Z</time><name>PT11235</name></trkpt>
<trkpt lat="53.465140" lon="05.866641"><ele>9.5</ele><time>2021-02-18T14:42:31Z</time><name>PT11236</name></trkpt>
<trkpt lat="53.465140" lon="05.866625"><ele>9.5</ele><time>2021-02-18T14:42:32Z</time><name>PT11237</name></trkpt>
<trkpt lat="53.465140" lon="05.866609"><ele>9.3</ele><time>2021-02-18T14:42:33Z</time><name>PT11238</name></trkpt>
<trkpt lat="53.465142" lon="05.866591"><ele>9.3</ele><time>2021-02-18T14:42:34Z</time><name>PT11239</name></trkpt>
<trkpt lat="53.465145" lon="05.866576"><ele>9.3</ele><time>2021-02-18T14:42:35Z</time><name>PT11240</name></trkpt>
<trkpt lat="53.465147" lon="05.866563"><ele>9</ele><time>2021-02-18T14:42:36Z</time><name>PT11241</name></trkpt>
<trkpt lat="53.465149" lon="05.866549"><ele>9</ele><time>2021-02-18T14:42:37Z</time><name>PT11242</name></trkpt>
<trkpt lat="53.465152" lon="05.866536"><ele>9.1</ele><time>2021-02-18T14:42:38Z</time><name>PT11243</name></trkpt>
<trkpt lat="53.465154" lon="05.866522"><ele>8.9</ele><time>2021-02-18T14:42:39Z</time><name>PT11244</name></trkpt>
<trkpt lat="53.465157" lon="05.866506"><ele>9.1</ele><time>2021-02-18T14:42:40Z</time><name>PT11245</name></trkpt>
<trkpt lat="53.465158" lon="05.866490"><ele>9.4</ele><time>2021-02-18T14:42:41Z</time><name>PT11246</name></trkpt>
<trkpt lat="53.465160" lon="05.866475"><ele>9.5</ele><time>2021-02-18T14:42:42Z</time><name>PT11247</name></trkpt>
<trkpt lat="53.465161" lon="05.866459"><ele>9.6</ele><time>2021-02-18T14:42:43Z</time><name>PT11248</name></trkpt>
<trkpt lat="53.465162" lon="05.866444"><ele>9.7</ele><time>2021-02-18T14:42:44Z</time><name>PT11249</name></trkpt>
<trkpt lat="53.465161" lon="05.866429"><ele>9.6</ele><time>2021-02-18T14:42:45Z</time><name>PT11250</name></trkpt>
<trkpt lat="53.465162" lon="05.866414"><ele>9.6</ele><time>2021-02-18T14:42:46Z</time><name>PT11251</name></trkpt>
<trkpt lat="53.465165" lon="05.866399"><ele>9.6</ele><time>2021-02-18T14:42:47Z</time><name>PT11252</name></trkpt>
<trkpt lat="53.465167" lon="05.866383"><ele>9.5</ele><time>2021-02-18T14:42:48Z</time><name>PT11253</name></trkpt>
<trkpt lat="53.465168" lon="05.866366"><ele>9.6</ele><time>2021-02-18T14:42:49Z</time><name>PT11254</name></trkpt>
<trkpt lat="53.465169" lon="05.866349"><ele>9.4</ele><time>2021-02-18T14:42:50Z</time><name>PT11255</name></trkpt>
<trkpt lat="53.465169" lon="05.866332"><ele>9.4</ele><time>2021-02-18T14:42:51Z</time><name>PT11256</name></trkpt>
<trkpt lat="53.465167" lon="05.866316"><ele>9.3</ele><time>2021-02-18T14:42:52Z</time><name>PT11257</name></trkpt>
<trkpt lat="53.465165" lon="05.866299"><ele>9.3</ele><time>2021-02-18T14:42:53Z</time><name>PT11258</name></trkpt>
<trkpt lat="53.465164" lon="05.866284"><ele>9.3</ele><time>2021-02-18T14:42:54Z</time><name>PT11259</name></trkpt>
<trkpt lat="53.465165" lon="05.866269"><ele>9.1</ele><time>2021-02-18T14:42:55Z</time><name>PT11260</name></trkpt>
<trkpt lat="53.465167" lon="05.866254"><ele>9.1</ele><time>2021-02-18T14:42:56Z</time><name>PT11261</name></trkpt>
<trkpt lat="53.465166" lon="05.866237"><ele>9</ele><time>2021-02-18T14:42:57Z</time><name>PT11262</name></trkpt>
<trkpt lat="53.465167" lon="05.866220"><ele>8.8</ele><time>2021-02-18T14:42:58Z</time><name>PT11263</name></trkpt>
<trkpt lat="53.465167" lon="05.866203"><ele>8.8</ele><time>2021-02-18T14:42:59Z</time><name>PT11264</name></trkpt>
<trkpt lat="53.465165" lon="05.866189"><ele>8.8</ele><time>2021-02-18T14:43:00Z</time><name>PT11265</name></trkpt>
<trkpt lat="53.465163" lon="05.866177"><ele>8.9</ele><time>2021-02-18T14:43:01Z</time><name>PT11266</name></trkpt>
<trkpt lat="53.465162" lon="05.866162"><ele>9.1</ele><time>2021-02-18T14:43:02Z</time><name>PT11267</name></trkpt>
<trkpt lat="53.465162" lon="05.866148"><ele>9.2</ele><time>2021-02-18T14:43:03Z</time><name>PT11268</name></trkpt>
<trkpt lat="53.465160" lon="05.866137"><ele>9.2</ele><time>2021-02-18T14:43:04Z</time><name>PT11269</name></trkpt>
<trkpt lat="53.465157" lon="05.866129"><ele>9</ele><time>2021-02-18T14:43:05Z</time><name>PT11270</name></trkpt>
<trkpt lat="53.465157" lon="05.866119"><ele>9</ele><time>2021-02-18T14:43:06Z</time><name>PT11271</name></trkpt>
<trkpt lat="53.465157" lon="05.866107"><ele>9.1</ele><time>2021-02-18T14:43:07Z</time><name>PT11272</name></trkpt>
<trkpt lat="53.465157" lon="05.866097"><ele>9.1</ele><time>2021-02-18T14:43:08Z</time><name>PT11273</name></trkpt>
<trkpt lat="53.465157" lon="05.866088"><ele>9.2</ele><time>2021-02-18T14:43:09Z</time><name>PT11274</name></trkpt>
<trkpt lat="53.465156" lon="05.866079"><ele>9.1</ele><time>2021-02-18T14:43:10Z</time><name>PT11275</name></trkpt>
<trkpt lat="53.465155" lon="05.866070"><ele>9</ele><time>2021-02-18T14:43:11Z</time><name>PT11276</name></trkpt>
<trkpt lat="53.465154" lon="05.866061"><ele>9.1</ele><time>2021-02-18T14:43:12Z</time><name>PT11277</name></trkpt>
<trkpt lat="53.465154" lon="05.866054"><ele>9.1</ele><time>2021-02-18T14:43:13Z</time><name>PT11278</name></trkpt>
<trkpt lat="53.465155" lon="05.866051"><ele>9.1</ele><time>2021-02-18T14:43:18Z</time><name>PT11279</name></trkpt>
<trkpt lat="53.465156" lon="05.866051"><ele>9.1</ele><time>2021-02-18T14:43:19Z</time><name>PT11280</name></trkpt>
<trkpt lat="53.465155" lon="05.865929"><ele>9.2</ele><time>2021-02-18T14:45:18Z</time><name>PT11281</name></trkpt>
<trkpt lat="53.465157" lon="05.865874"><ele>9.1</ele><time>2021-02-18T14:45:19Z</time><name>PT11282</name></trkpt>
<trkpt lat="53.465163" lon="05.865828"><ele>9.2</ele><time>2021-02-18T14:45:20Z</time><name>PT11283</name></trkpt>
<trkpt lat="53.465165" lon="05.865801"><ele>9.3</ele><time>2021-02-18T14:45:21Z</time><name>PT11284</name></trkpt>
<trkpt lat="53.465167" lon="05.865768"><ele>9.3</ele><time>2021-02-18T14:45:22Z</time><name>PT11285</name></trkpt>
<trkpt lat="53.465170" lon="05.865735"><ele>9.2</ele><time>2021-02-18T14:45:23Z</time><name>PT11286</name></trkpt>
<trkpt lat="53.465173" lon="05.865704"><ele>9.1</ele><time>2021-02-18T14:45:24Z</time><name>PT11287</name></trkpt>
<trkpt lat="53.465177" lon="05.865673"><ele>9</ele><time>2021-02-18T14:45:25Z</time><name>PT11288</name></trkpt>
<trkpt lat="53.465180" lon="05.865644"><ele>9.1</ele><time>2021-02-18T14:45:26Z</time><name>PT11289</name></trkpt>
<trkpt lat="53.465185" lon="05.865617"><ele>9.3</ele><time>2021-02-18T14:45:27Z</time><name>PT11290</name></trkpt>
<trkpt lat="53.465190" lon="05.865589"><ele>9.1</ele><time>2021-02-18T14:45:28Z</time><name>PT11291</name></trkpt>
<trkpt lat="53.465193" lon="05.865563"><ele>9</ele><time>2021-02-18T14:45:29Z</time><name>PT11292</name></trkpt>
<trkpt lat="53.465196" lon="05.865539"><ele>9.1</ele><time>2021-02-18T14:45:30Z</time><name>PT11293</name></trkpt>
<trkpt lat="53.465201" lon="05.865515"><ele>9.1</ele><time>2021-02-18T14:45:31Z</time><name>PT11294</name></trkpt>
<trkpt lat="53.465205" lon="05.865493"><ele>9.1</ele><time>2021-02-18T14:45:32Z</time><name>PT11295</name></trkpt>
<trkpt lat="53.465208" lon="05.865472"><ele>9.3</ele><time>2021-02-18T14:45:33Z</time><name>PT11296</name></trkpt>
<trkpt lat="53.465212" lon="05.865449"><ele>9.3</ele><time>2021-02-18T14:45:34Z</time><name>PT11297</name></trkpt>
<trkpt lat="53.465215" lon="05.865428"><ele>9.3</ele><time>2021-02-18T14:45:35Z</time><name>PT11298</name></trkpt>
<trkpt lat="53.465219" lon="05.865406"><ele>9.5</ele><time>2021-02-18T14:45:36Z</time><name>PT11299</name></trkpt>
<trkpt lat="53.465225" lon="05.865388"><ele>9.4</ele><time>2021-02-18T14:45:37Z</time><name>PT11300</name></trkpt>
<trkpt lat="53.465229" lon="05.865372"><ele>9.4</ele><time>2021-02-18T14:45:38Z</time><name>PT11301</name></trkpt>
<trkpt lat="53.465231" lon="05.865359"><ele>9.3</ele><time>2021-02-18T14:45:39Z</time><name>PT11302</name></trkpt>
<trkpt lat="53.465232" lon="05.865348"><ele>8.7</ele><time>2021-02-18T14:45:40Z</time><name>PT11303</name></trkpt>
<trkpt lat="53.465232" lon="05.865341"><ele>8.6</ele><time>2021-02-18T14:45:41Z</time><name>PT11304</name></trkpt>
<trkpt lat="53.465232" lon="05.865334"><ele>8.4</ele><time>2021-02-18T14:45:42Z</time><name>PT11305</name></trkpt>
<trkpt lat="53.465234" lon="05.865308"><ele>8.8</ele><time>2021-02-18T14:45:57Z</time><name>PT11306</name></trkpt>
<trkpt lat="53.465237" lon="05.865287"><ele>8.7</ele><time>2021-02-18T14:45:58Z</time><name>PT11307</name></trkpt>
<trkpt lat="53.465239" lon="05.865269"><ele>8.8</ele><time>2021-02-18T14:45:59Z</time><name>PT11308</name></trkpt>
<trkpt lat="53.465243" lon="05.865253"><ele>8.7</ele><time>2021-02-18T14:46:00Z</time><name>PT11309</name></trkpt>
<trkpt lat="53.465246" lon="05.865238"><ele>8.8</ele><time>2021-02-18T14:46:01Z</time><name>PT11310</name></trkpt>
<trkpt lat="53.465248" lon="05.865219"><ele>9</ele><time>2021-02-18T14:46:02Z</time><name>PT11311</name></trkpt>
<trkpt lat="53.465250" lon="05.865186"><ele>9.2</ele><time>2021-02-18T14:46:03Z</time><name>PT11312</name></trkpt>
<trkpt lat="53.465251" lon="05.865155"><ele>9.4</ele><time>2021-02-18T14:46:04Z</time><name>PT11313</name></trkpt>
<trkpt lat="53.465253" lon="05.865133"><ele>9.3</ele><time>2021-02-18T14:46:05Z</time><name>PT11314</name></trkpt>
<trkpt lat="53.465250" lon="05.865108"><ele>9.5</ele><time>2021-02-18T14:46:07Z</time><name>PT11315</name></trkpt>
<trkpt lat="53.465255" lon="05.865097"><ele>9.4</ele><time>2021-02-18T14:46:08Z</time><name>PT11316</name></trkpt>
<trkpt lat="53.465257" lon="05.865091"><ele>9.3</ele><time>2021-02-18T14:46:09Z</time><name>PT11317</name></trkpt>
<trkpt lat="53.465257" lon="05.865079"><ele>9.4</ele><time>2021-02-18T14:46:10Z</time><name>PT11318</name></trkpt>
<trkpt lat="53.465257" lon="05.865068"><ele>9.6</ele><time>2021-02-18T14:46:11Z</time><name>PT11319</name></trkpt>
<trkpt lat="53.465258" lon="05.865057"><ele>9.7</ele><time>2021-02-18T14:46:12Z</time><name>PT11320</name></trkpt>
<trkpt lat="53.465258" lon="05.865049"><ele>9.6</ele><time>2021-02-18T14:46:13Z</time><name>PT11321</name></trkpt>
<trkpt lat="53.465258" lon="05.865042"><ele>9.4</ele><time>2021-02-18T14:46:14Z</time><name>PT11322</name></trkpt>
<trkpt lat="53.465259" lon="05.865040"><ele>9.3</ele><time>2021-02-18T14:46:15Z</time><name>PT11323</name></trkpt>
<trkpt lat="53.465261" lon="05.865040"><ele>8.7</ele><time>2021-02-18T14:46:27Z</time><name>PT11324</name></trkpt>
<trkpt lat="53.465268" lon="05.865044"><ele>8.8</ele><time>2021-02-18T14:46:28Z</time><name>PT11325</name></trkpt>
<trkpt lat="53.465274" lon="05.865043"><ele>8.7</ele><time>2021-02-18T14:46:29Z</time><name>PT11326</name></trkpt>
<trkpt lat="53.465281" lon="05.865041"><ele>8.8</ele><time>2021-02-18T14:46:30Z</time><name>PT11327</name></trkpt>
<trkpt lat="53.465285" lon="05.865040"><ele>8.8</ele><time>2021-02-18T14:46:31Z</time><name>PT11328</name></trkpt>
<trkpt lat="53.465287" lon="05.865039"><ele>8.8</ele><time>2021-02-18T14:46:32Z</time><name>PT11329</name></trkpt>
<trkpt lat="53.465286" lon="05.865036"><ele>8.8</ele><time>2021-02-18T14:46:33Z</time><name>PT11330</name></trkpt>
<trkpt lat="53.465283" lon="05.865032"><ele>9</ele><time>2021-02-18T14:46:34Z</time><name>PT11331</name></trkpt>
<trkpt lat="53.465283" lon="05.865021"><ele>8.9</ele><time>2021-02-18T14:46:35Z</time><name>PT11332</name></trkpt>
<trkpt lat="53.465284" lon="05.865013"><ele>9.1</ele><time>2021-02-18T14:46:36Z</time><name>PT11333</name></trkpt>
<trkpt lat="53.465284" lon="05.865004"><ele>9</ele><time>2021-02-18T14:46:37Z</time><name>PT11334</name></trkpt>
<trkpt lat="53.465285" lon="05.864992"><ele>8.9</ele><time>2021-02-18T14:46:38Z</time><name>PT11335</name></trkpt>
<trkpt lat="53.465286" lon="05.864982"><ele>8.9</ele><time>2021-02-18T14:46:39Z</time><name>PT11336</name></trkpt>
<trkpt lat="53.465289" lon="05.864979"><ele>8.8</ele><time>2021-02-18T14:46:40Z</time><name>PT11337</name></trkpt>
<trkpt lat="53.465291" lon="05.864981"><ele>8.6</ele><time>2021-02-18T14:46:41Z</time><name>PT11338</name></trkpt>
<trkpt lat="53.465292" lon="05.864979"><ele>8.3</ele><time>2021-02-18T14:46:42Z</time><name>PT11339</name></trkpt>
<trkpt lat="53.465297" lon="05.864977"><ele>8.1</ele><time>2021-02-18T14:46:43Z</time><name>PT11340</name></trkpt>
<trkpt lat="53.465299" lon="05.864979"><ele>8</ele><time>2021-02-18T14:46:44Z</time><name>PT11341</name></trkpt>
<trkpt lat="53.465299" lon="05.864981"><ele>8.1</ele><time>2021-02-18T14:46:45Z</time><name>PT11342</name></trkpt>
<trkpt lat="53.465299" lon="05.864983"><ele>8.2</ele><time>2021-02-18T14:46:46Z</time><name>PT11343</name></trkpt>
<trkpt lat="53.465294" lon="05.864983"><ele>8.1</ele><time>2021-02-18T14:46:54Z</time><name>PT11344</name></trkpt>
<trkpt lat="53.465287" lon="05.864986"><ele>7.7</ele><time>2021-02-18T14:46:55Z</time><name>PT11345</name></trkpt>
<trkpt lat="53.465283" lon="05.864985"><ele>7.7</ele><time>2021-02-18T14:46:56Z</time><name>PT11346</name></trkpt>
<trkpt lat="53.465285" lon="05.864987"><ele>7.9</ele><time>2021-02-18T14:46:57Z</time><name>PT11347</name></trkpt>
<trkpt lat="53.465284" lon="05.864985"><ele>8.3</ele><time>2021-02-18T14:46:58Z</time><name>PT11348</name></trkpt>
<trkpt lat="53.465285" lon="05.864981"><ele>8.5</ele><time>2021-02-18T14:46:59Z</time><name>PT11349</name></trkpt>
<trkpt lat="53.465286" lon="05.864981"><ele>8.7</ele><time>2021-02-18T14:47:00Z</time><name>PT11350</name></trkpt>
<trkpt lat="53.465288" lon="05.864982"><ele>8.7</ele><time>2021-02-18T14:47:01Z</time><name>PT11351</name></trkpt>
<trkpt lat="53.465288" lon="05.864982"><ele>8.3</ele><time>2021-02-18T14:47:02Z</time><name>PT11352</name></trkpt>
<trkpt lat="53.465289" lon="05.864982"><ele>8.1</ele><time>2021-02-18T14:47:03Z</time><name>PT11353</name></trkpt>
<trkpt lat="53.465289" lon="05.864983"><ele>7.8</ele><time>2021-02-18T14:47:04Z</time><name>PT11354</name></trkpt>
<trkpt lat="53.465289" lon="05.864982"><ele>7.8</ele><time>2021-02-18T14:47:05Z</time><name>PT11355</name></trkpt>
<trkpt lat="53.465284" lon="05.864984"><ele>7.9</ele><time>2021-02-18T14:47:08Z</time><name>PT11356</name></trkpt>
<trkpt lat="53.465272" lon="05.864974"><ele>8.1</ele><time>2021-02-18T14:47:09Z</time><name>PT11357</name></trkpt>
<trkpt lat="53.465258" lon="05.864968"><ele>8.4</ele><time>2021-02-18T14:47:10Z</time><name>PT11358</name></trkpt>
<trkpt lat="53.465248" lon="05.864951"><ele>8.5</ele><time>2021-02-18T14:47:11Z</time><name>PT11359</name></trkpt>
<trkpt lat="53.465237" lon="05.864936"><ele>8.7</ele><time>2021-02-18T14:47:12Z</time><name>PT11360</name></trkpt>
<trkpt lat="53.465228" lon="05.864922"><ele>8.7</ele><time>2021-02-18T14:47:13Z</time><name>PT11361</name></trkpt>
<trkpt lat="53.465219" lon="05.864914"><ele>8.6</ele><time>2021-02-18T14:47:14Z</time><name>PT11362</name></trkpt>
<trkpt lat="53.465210" lon="05.864908"><ele>8.4</ele><time>2021-02-18T14:47:15Z</time><name>PT11363</name></trkpt>
<trkpt lat="53.465201" lon="05.864907"><ele>8.4</ele><time>2021-02-18T14:47:16Z</time><name>PT11364</name></trkpt>
<trkpt lat="53.465190" lon="05.864904"><ele>8.3</ele><time>2021-02-18T14:47:17Z</time><name>PT11365</name></trkpt>
<trkpt lat="53.465181" lon="05.864900"><ele>8.3</ele><time>2021-02-18T14:47:18Z</time><name>PT11366</name></trkpt>
<trkpt lat="53.465173" lon="05.864900"><ele>8.3</ele><time>2021-02-18T14:47:19Z</time><name>PT11367</name></trkpt>
<trkpt lat="53.465169" lon="05.864894"><ele>8.3</ele><time>2021-02-18T14:47:20Z</time><name>PT11368</name></trkpt>
<trkpt lat="53.465170" lon="05.864890"><ele>8.8</ele><time>2021-02-18T14:47:21Z</time><name>PT11369</name></trkpt>
<trkpt lat="53.465168" lon="05.864890"><ele>8.9</ele><time>2021-02-18T14:47:22Z</time><name>PT11370</name></trkpt>
<trkpt lat="53.465161" lon="05.864890"><ele>9.1</ele><time>2021-02-18T14:47:23Z</time><name>PT11371</name></trkpt>
<trkpt lat="53.465152" lon="05.864885"><ele>9.3</ele><time>2021-02-18T14:47:24Z</time><name>PT11372</name></trkpt>
<trkpt lat="53.465146" lon="05.864878"><ele>9.2</ele><time>2021-02-18T14:47:25Z</time><name>PT11373</name></trkpt>
<trkpt lat="53.465142" lon="05.864864"><ele>9.3</ele><time>2021-02-18T14:47:26Z</time><name>PT11374</name></trkpt>
<trkpt lat="53.465137" lon="05.864851"><ele>9.3</ele><time>2021-02-18T14:47:27Z</time><name>PT11375</name></trkpt>
<trkpt lat="53.465133" lon="05.864836"><ele>9.3</ele><time>2021-02-18T14:47:28Z</time><name>PT11376</name></trkpt>
<trkpt lat="53.465128" lon="05.864820"><ele>9.1</ele><time>2021-02-18T14:47:29Z</time><name>PT11377</name></trkpt>
<trkpt lat="53.465123" lon="05.864808"><ele>9</ele><time>2021-02-18T14:47:30Z</time><name>PT11378</name></trkpt>
<trkpt lat="53.465116" lon="05.864797"><ele>9.1</ele><time>2021-02-18T14:47:31Z</time><name>PT11379</name></trkpt>
<trkpt lat="53.465109" lon="05.864785"><ele>9.3</ele><time>2021-02-18T14:47:32Z</time><name>PT11380</name></trkpt>
<trkpt lat="53.465102" lon="05.864776"><ele>9.6</ele><time>2021-02-18T14:47:33Z</time><name>PT11381</name></trkpt>
<trkpt lat="53.465097" lon="05.864765"><ele>9.8</ele><time>2021-02-18T14:47:34Z</time><name>PT11382</name></trkpt>
<trkpt lat="53.465091" lon="05.864750"><ele>10</ele><time>2021-02-18T14:47:35Z</time><name>PT11383</name></trkpt>
<trkpt lat="53.465086" lon="05.864735"><ele>10</ele><time>2021-02-18T14:47:36Z</time><name>PT11384</name></trkpt>
<trkpt lat="53.465082" lon="05.864720"><ele>10.2</ele><time>2021-02-18T14:47:37Z</time><name>PT11385</name></trkpt>
<trkpt lat="53.465076" lon="05.864705"><ele>10.2</ele><time>2021-02-18T14:47:38Z</time><name>PT11386</name></trkpt>
<trkpt lat="53.465073" lon="05.864690"><ele>10.1</ele><time>2021-02-18T14:47:39Z</time><name>PT11387</name></trkpt>
<trkpt lat="53.465070" lon="05.864686"><ele>10.1</ele><time>2021-02-18T14:47:40Z</time><name>PT11388</name></trkpt>
<trkpt lat="53.465066" lon="05.864685"><ele>9.8</ele><time>2021-02-18T14:47:41Z</time><name>PT11389</name></trkpt>
<trkpt lat="53.465060" lon="05.864686"><ele>9.6</ele><time>2021-02-18T14:47:42Z</time><name>PT11390</name></trkpt>
<trkpt lat="53.465050" lon="05.864683"><ele>9.5</ele><time>2021-02-18T14:47:43Z</time><name>PT11391</name></trkpt>
<trkpt lat="53.465042" lon="05.864677"><ele>9.5</ele><time>2021-02-18T14:47:44Z</time><name>PT11392</name></trkpt>
<trkpt lat="53.465041" lon="05.864674"><ele>9.9</ele><time>2021-02-18T14:47:45Z</time><name>PT11393</name></trkpt>
<trkpt lat="53.465034" lon="05.864669"><ele>10.3</ele><time>2021-02-18T14:47:46Z</time><name>PT11394</name></trkpt>
<trkpt lat="53.465028" lon="05.864665"><ele>10.3</ele><time>2021-02-18T14:47:47Z</time><name>PT11395</name></trkpt>
<trkpt lat="53.465024" lon="05.864662"><ele>10.3</ele><time>2021-02-18T14:47:48Z</time><name>PT11396</name></trkpt>
<trkpt lat="53.465019" lon="05.864657"><ele>9.8</ele><time>2021-02-18T14:47:49Z</time><name>PT11397</name></trkpt>
<trkpt lat="53.465017" lon="05.864655"><ele>9.8</ele><time>2021-02-18T14:47:50Z</time><name>PT11398</name></trkpt>
<trkpt lat="53.465016" lon="05.864657"><ele>10.2</ele><time>2021-02-18T14:47:51Z</time><name>PT11399</name></trkpt>
<trkpt lat="53.465016" lon="05.864656"><ele>10.5</ele><time>2021-02-18T14:47:52Z</time><name>PT11400</name></trkpt>
<trkpt lat="53.465013" lon="05.864654"><ele>10.8</ele><time>2021-02-18T14:47:53Z</time><name>PT11401</name></trkpt>
<trkpt lat="53.465012" lon="05.864650"><ele>10.9</ele><time>2021-02-18T14:47:54Z</time><name>PT11402</name></trkpt>
<trkpt lat="53.465007" lon="05.864645"><ele>10.8</ele><time>2021-02-18T14:47:55Z</time><name>PT11403</name></trkpt>
<trkpt lat="53.464997" lon="05.864642"><ele>10.7</ele><time>2021-02-18T14:47:56Z</time><name>PT11404</name></trkpt>
<trkpt lat="53.464989" lon="05.864638"><ele>10.8</ele><time>2021-02-18T14:47:57Z</time><name>PT11405</name></trkpt>
<trkpt lat="53.464981" lon="05.864635"><ele>10.7</ele><time>2021-02-18T14:47:58Z</time><name>PT11406</name></trkpt>
<trkpt lat="53.464973" lon="05.864631"><ele>10.7</ele><time>2021-02-18T14:47:59Z</time><name>PT11407</name></trkpt>
<trkpt lat="53.464965" lon="05.864630"><ele>10.3</ele><time>2021-02-18T14:48:00Z</time><name>PT11408</name></trkpt>
<trkpt lat="53.464957" lon="05.864627"><ele>10</ele><time>2021-02-18T14:48:01Z</time><name>PT11409</name></trkpt>
<trkpt lat="53.464949" lon="05.864624"><ele>9.9</ele><time>2021-02-18T14:48:02Z</time><name>PT11410</name></trkpt>
<trkpt lat="53.464942" lon="05.864621"><ele>10</ele><time>2021-02-18T14:48:03Z</time><name>PT11411</name></trkpt>
<trkpt lat="53.464934" lon="05.864621"><ele>10</ele><time>2021-02-18T14:48:04Z</time><name>PT11412</name></trkpt>
<trkpt lat="53.464926" lon="05.864620"><ele>10.1</ele><time>2021-02-18T14:48:05Z</time><name>PT11413</name></trkpt>
<trkpt lat="53.464919" lon="05.864619"><ele>10</ele><time>2021-02-18T14:48:06Z</time><name>PT11414</name></trkpt>
<trkpt lat="53.464912" lon="05.864617"><ele>9.9</ele><time>2021-02-18T14:48:07Z</time><name>PT11415</name></trkpt>
<trkpt lat="53.464903" lon="05.864615"><ele>9.8</ele><time>2021-02-18T14:48:08Z</time><name>PT11416</name></trkpt>
<trkpt lat="53.464894" lon="05.864615"><ele>9.8</ele><time>2021-02-18T14:48:09Z</time><name>PT11417</name></trkpt>
<trkpt lat="53.464884" lon="05.864615"><ele>9.8</ele><time>2021-02-18T14:48:10Z</time><name>PT11418</name></trkpt>
<trkpt lat="53.464876" lon="05.864611"><ele>9.6</ele><time>2021-02-18T14:48:11Z</time><name>PT11419</name></trkpt>
<trkpt lat="53.464869" lon="05.864605"><ele>9.8</ele><time>2021-02-18T14:48:12Z</time><name>PT11420</name></trkpt>
<trkpt lat="53.464861" lon="05.864602"><ele>10</ele><time>2021-02-18T14:48:13Z</time><name>PT11421</name></trkpt>
<trkpt lat="53.464854" lon="05.864602"><ele>9.9</ele><time>2021-02-18T14:48:14Z</time><name>PT11422</name></trkpt>
<trkpt lat="53.464845" lon="05.864600"><ele>10.3</ele><time>2021-02-18T14:48:15Z</time><name>PT11423</name></trkpt>
<trkpt lat="53.464837" lon="05.864597"><ele>10.3</ele><time>2021-02-18T14:48:16Z</time><name>PT11424</name></trkpt>
<trkpt lat="53.464828" lon="05.864594"><ele>10.3</ele><time>2021-02-18T14:48:17Z</time><name>PT11425</name></trkpt>
<trkpt lat="53.464819" lon="05.864592"><ele>10.5</ele><time>2021-02-18T14:48:18Z</time><name>PT11426</name></trkpt>
<trkpt lat="53.464812" lon="05.864591"><ele>10.6</ele><time>2021-02-18T14:48:19Z</time><name>PT11427</name></trkpt>
<trkpt lat="53.464802" lon="05.864588"><ele>10.4</ele><time>2021-02-18T14:48:20Z</time><name>PT11428</name></trkpt>
<trkpt lat="53.464796" lon="05.864587"><ele>10.3</ele><time>2021-02-18T14:48:21Z</time><name>PT11429</name></trkpt>
<trkpt lat="53.464791" lon="05.864590"><ele>10.2</ele><time>2021-02-18T14:48:22Z</time><name>PT11430</name></trkpt>
<trkpt lat="53.464783" lon="05.864594"><ele>10.3</ele><time>2021-02-18T14:48:23Z</time><name>PT11431</name></trkpt>
<trkpt lat="53.464777" lon="05.864601"><ele>10.5</ele><time>2021-02-18T14:48:24Z</time><name>PT11432</name></trkpt>
<trkpt lat="53.464771" lon="05.864606"><ele>10.8</ele><time>2021-02-18T14:48:25Z</time><name>PT11433</name></trkpt>
<trkpt lat="53.464764" lon="05.864608"><ele>10.8</ele><time>2021-02-18T14:48:26Z</time><name>PT11434</name></trkpt>
<trkpt lat="53.464756" lon="05.864606"><ele>11</ele><time>2021-02-18T14:48:27Z</time><name>PT11435</name></trkpt>
<trkpt lat="53.464750" lon="05.864604"><ele>10.9</ele><time>2021-02-18T14:48:28Z</time><name>PT11436</name></trkpt>
<trkpt lat="53.464745" lon="05.864603"><ele>10.8</ele><time>2021-02-18T14:48:29Z</time><name>PT11437</name></trkpt>
<trkpt lat="53.464739" lon="05.864601"><ele>10.9</ele><time>2021-02-18T14:48:30Z</time><name>PT11438</name></trkpt>
<trkpt lat="53.464732" lon="05.864597"><ele>10.8</ele><time>2021-02-18T14:48:31Z</time><name>PT11439</name></trkpt>
<trkpt lat="53.464725" lon="05.864594"><ele>10.8</ele><time>2021-02-18T14:48:32Z</time><name>PT11440</name></trkpt>
<trkpt lat="53.464720" lon="05.864593"><ele>10.7</ele><time>2021-02-18T14:48:33Z</time><name>PT11441</name></trkpt>
<trkpt lat="53.464714" lon="05.864589"><ele>10.6</ele><time>2021-02-18T14:48:34Z</time><name>PT11442</name></trkpt>
<trkpt lat="53.464710" lon="05.864587"><ele>10.5</ele><time>2021-02-18T14:48:35Z</time><name>PT11443</name></trkpt>
<trkpt lat="53.464710" lon="05.864587"><ele>10.5</ele><time>2021-02-18T14:48:36Z</time><name>PT11444</name></trkpt>
<trkpt lat="53.464710" lon="05.864587"><ele>10.7</ele><time>2021-02-18T14:48:37Z</time><name>PT11445</name></trkpt>
<trkpt lat="53.464710" lon="05.864587"><ele>10.7</ele><time>2021-02-18T14:48:38Z</time><name>PT11446</name></trkpt>
<trkpt lat="53.464710" lon="05.864581"><ele>11</ele><time>2021-02-18T14:48:42Z</time><name>PT11447</name></trkpt>
<trkpt lat="53.464703" lon="05.864570"><ele>11.1</ele><time>2021-02-18T14:48:43Z</time><name>PT11448</name></trkpt>
<trkpt lat="53.464696" lon="05.864563"><ele>11.2</ele><time>2021-02-18T14:48:44Z</time><name>PT11449</name></trkpt>
<trkpt lat="53.464688" lon="05.864557"><ele>11.5</ele><time>2021-02-18T14:48:45Z</time><name>PT11450</name></trkpt>
<trkpt lat="53.464678" lon="05.864557"><ele>11.7</ele><time>2021-02-18T14:48:46Z</time><name>PT11451</name></trkpt>
<trkpt lat="53.464668" lon="05.864556"><ele>11.7</ele><time>2021-02-18T14:48:47Z</time><name>PT11452</name></trkpt>
<trkpt lat="53.464660" lon="05.864555"><ele>11.7</ele><time>2021-02-18T14:48:48Z</time><name>PT11453</name></trkpt>
<trkpt lat="53.464655" lon="05.864559"><ele>11.4</ele><time>2021-02-18T14:48:49Z</time><name>PT11454</name></trkpt>
<trkpt lat="53.464648" lon="05.864558"><ele>11.4</ele><time>2021-02-18T14:48:50Z</time><name>PT11455</name></trkpt>
<trkpt lat="53.464641" lon="05.864557"><ele>11.3</ele><time>2021-02-18T14:48:51Z</time><name>PT11456</name></trkpt>
<trkpt lat="53.464636" lon="05.864563"><ele>11.5</ele><time>2021-02-18T14:48:52Z</time><name>PT11457</name></trkpt>
<trkpt lat="53.464630" lon="05.864570"><ele>11.8</ele><time>2021-02-18T14:48:53Z</time><name>PT11458</name></trkpt>
<trkpt lat="53.464622" lon="05.864576"><ele>11.8</ele><time>2021-02-18T14:48:54Z</time><name>PT11459</name></trkpt>
<trkpt lat="53.464616" lon="05.864583"><ele>11.9</ele><time>2021-02-18T14:48:55Z</time><name>PT11460</name></trkpt>
<trkpt lat="53.464611" lon="05.864584"><ele>11.8</ele><time>2021-02-18T14:48:56Z</time><name>PT11461</name></trkpt>
<trkpt lat="53.464604" lon="05.864586"><ele>12.1</ele><time>2021-02-18T14:48:57Z</time><name>PT11462</name></trkpt>
<trkpt lat="53.464599" lon="05.864591"><ele>12.2</ele><time>2021-02-18T14:48:58Z</time><name>PT11463</name></trkpt>
<trkpt lat="53.464588" lon="05.864594"><ele>12.4</ele><time>2021-02-18T14:48:59Z</time><name>PT11464</name></trkpt>
<trkpt lat="53.464583" lon="05.864598"><ele>12.6</ele><time>2021-02-18T14:49:00Z</time><name>PT11465</name></trkpt>
<trkpt lat="53.464578" lon="05.864598"><ele>12.6</ele><time>2021-02-18T14:49:01Z</time><name>PT11466</name></trkpt>
<trkpt lat="53.464572" lon="05.864600"><ele>12.6</ele><time>2021-02-18T14:49:02Z</time><name>PT11467</name></trkpt>
<trkpt lat="53.464565" lon="05.864602"><ele>12.5</ele><time>2021-02-18T14:49:03Z</time><name>PT11468</name></trkpt>
<trkpt lat="53.464557" lon="05.864605"><ele>12.4</ele><time>2021-02-18T14:49:04Z</time><name>PT11469</name></trkpt>
<trkpt lat="53.464551" lon="05.864607"><ele>12.3</ele><time>2021-02-18T14:49:05Z</time><name>PT11470</name></trkpt>
<trkpt lat="53.464545" lon="05.864613"><ele>12.6</ele><time>2021-02-18T14:49:06Z</time><name>PT11471</name></trkpt>
<trkpt lat="53.464538" lon="05.864615"><ele>12.6</ele><time>2021-02-18T14:49:07Z</time><name>PT11472</name></trkpt>
<trkpt lat="53.464534" lon="05.864615"><ele>12.6</ele><time>2021-02-18T14:49:08Z</time><name>PT11473</name></trkpt>
<trkpt lat="53.464529" lon="05.864618"><ele>12.8</ele><time>2021-02-18T14:49:09Z</time><name>PT11474</name></trkpt>
<trkpt lat="53.464523" lon="05.864618"><ele>12.6</ele><time>2021-02-18T14:49:10Z</time><name>PT11475</name></trkpt>
<trkpt lat="53.464519" lon="05.864620"><ele>12.5</ele><time>2021-02-18T14:49:11Z</time><name>PT11476</name></trkpt>
<trkpt lat="53.464512" lon="05.864620"><ele>12.7</ele><time>2021-02-18T14:49:12Z</time><name>PT11477</name></trkpt>
<trkpt lat="53.464504" lon="05.864621"><ele>13.1</ele><time>2021-02-18T14:49:13Z</time><name>PT11478</name></trkpt>
<trkpt lat="53.464495" lon="05.864621"><ele>13.3</ele><time>2021-02-18T14:49:14Z</time><name>PT11479</name></trkpt>
<trkpt lat="53.464486" lon="05.864617"><ele>13.5</ele><time>2021-02-18T14:49:15Z</time><name>PT11480</name></trkpt>
<trkpt lat="53.464478" lon="05.864610"><ele>13.4</ele><time>2021-02-18T14:49:16Z</time><name>PT11481</name></trkpt>
<trkpt lat="53.464472" lon="05.864601"><ele>13.2</ele><time>2021-02-18T14:49:17Z</time><name>PT11482</name></trkpt>
<trkpt lat="53.464467" lon="05.864595"><ele>12.8</ele><time>2021-02-18T14:49:18Z</time><name>PT11483</name></trkpt>
<trkpt lat="53.464460" lon="05.864587"><ele>12.8</ele><time>2021-02-18T14:49:19Z</time><name>PT11484</name></trkpt>
<trkpt lat="53.464452" lon="05.864577"><ele>12.6</ele><time>2021-02-18T14:49:20Z</time><name>PT11485</name></trkpt>
<trkpt lat="53.464445" lon="05.864570"><ele>12.7</ele><time>2021-02-18T14:49:21Z</time><name>PT11486</name></trkpt>
<trkpt lat="53.464438" lon="05.864568"><ele>12.8</ele><time>2021-02-18T14:49:22Z</time><name>PT11487</name></trkpt>
<trkpt lat="53.464430" lon="05.864571"><ele>12.9</ele><time>2021-02-18T14:49:23Z</time><name>PT11488</name></trkpt>
<trkpt lat="53.464423" lon="05.864572"><ele>12.9</ele><time>2021-02-18T14:49:24Z</time><name>PT11489</name></trkpt>
<trkpt lat="53.464417" lon="05.864572"><ele>13.1</ele><time>2021-02-18T14:49:25Z</time><name>PT11490</name></trkpt>
<trkpt lat="53.464410" lon="05.864570"><ele>13.3</ele><time>2021-02-18T14:49:26Z</time><name>PT11491</name></trkpt>
<trkpt lat="53.464401" lon="05.864573"><ele>13.4</ele><time>2021-02-18T14:49:27Z</time><name>PT11492</name></trkpt>
<trkpt lat="53.464395" lon="05.864577"><ele>13.5</ele><time>2021-02-18T14:49:28Z</time><name>PT11493</name></trkpt>
<trkpt lat="53.464389" lon="05.864581"><ele>13.6</ele><time>2021-02-18T14:49:29Z</time><name>PT11494</name></trkpt>
<trkpt lat="53.464384" lon="05.864585"><ele>13.8</ele><time>2021-02-18T14:49:30Z</time><name>PT11495</name></trkpt>
<trkpt lat="53.464381" lon="05.864591"><ele>14</ele><time>2021-02-18T14:49:31Z</time><name>PT11496</name></trkpt>
<trkpt lat="53.464375" lon="05.864597"><ele>14.2</ele><time>2021-02-18T14:49:32Z</time><name>PT11497</name></trkpt>
<trkpt lat="53.464368" lon="05.864600"><ele>14.9</ele><time>2021-02-18T14:49:33Z</time><name>PT11498</name></trkpt>
<trkpt lat="53.464363" lon="05.864605"><ele>15.5</ele><time>2021-02-18T14:49:34Z</time><name>PT11499</name></trkpt>
<trkpt lat="53.464359" lon="05.864611"><ele>15.7</ele><time>2021-02-18T14:49:35Z</time><name>PT11500</name></trkpt>
<trkpt lat="53.464352" lon="05.864619"><ele>15.9</ele><time>2021-02-18T14:49:36Z</time><name>PT11501</name></trkpt>
<trkpt lat="53.464345" lon="05.864624"><ele>16.1</ele><time>2021-02-18T14:49:37Z</time><name>PT11502</name></trkpt>
<trkpt lat="53.464337" lon="05.864629"><ele>16.2</ele><time>2021-02-18T14:49:38Z</time><name>PT11503</name></trkpt>
<trkpt lat="53.464329" lon="05.864627"><ele>16</ele><time>2021-02-18T14:49:39Z</time><name>PT11504</name></trkpt>
<trkpt lat="53.464318" lon="05.864620"><ele>15.8</ele><time>2021-02-18T14:49:40Z</time><name>PT11505</name></trkpt>
<trkpt lat="53.464307" lon="05.864614"><ele>15.8</ele><time>2021-02-18T14:49:41Z</time><name>PT11506</name></trkpt>
<trkpt lat="53.464299" lon="05.864608"><ele>15.9</ele><time>2021-02-18T14:49:42Z</time><name>PT11507</name></trkpt>
<trkpt lat="53.464291" lon="05.864605"><ele>15.9</ele><time>2021-02-18T14:49:43Z</time><name>PT11508</name></trkpt>
<trkpt lat="53.464284" lon="05.864603"><ele>16.1</ele><time>2021-02-18T14:49:44Z</time><name>PT11509</name></trkpt>
<trkpt lat="53.464276" lon="05.864602"><ele>16.1</ele><time>2021-02-18T14:49:45Z</time><name>PT11510</name></trkpt>
<trkpt lat="53.464269" lon="05.864601"><ele>16</ele><time>2021-02-18T14:49:46Z</time><name>PT11511</name></trkpt>
<trkpt lat="53.464262" lon="05.864595"><ele>15.9</ele><time>2021-02-18T14:49:47Z</time><name>PT11512</name></trkpt>
<trkpt lat="53.464256" lon="05.864583"><ele>15.6</ele><time>2021-02-18T14:49:48Z</time><name>PT11513</name></trkpt>
<trkpt lat="53.464247" lon="05.864572"><ele>15.4</ele><time>2021-02-18T14:49:49Z</time><name>PT11514</name></trkpt>
<trkpt lat="53.464239" lon="05.864566"><ele>15.1</ele><time>2021-02-18T14:49:50Z</time><name>PT11515</name></trkpt>
<trkpt lat="53.464230" lon="05.864558"><ele>14.9</ele><time>2021-02-18T14:49:51Z</time><name>PT11516</name></trkpt>
<trkpt lat="53.464221" lon="05.864549"><ele>15</ele><time>2021-02-18T14:49:52Z</time><name>PT11517</name></trkpt>
<trkpt lat="53.464215" lon="05.864547"><ele>15.4</ele><time>2021-02-18T14:49:53Z</time><name>PT11518</name></trkpt>
<trkpt lat="53.464212" lon="05.864553"><ele>15.5</ele><time>2021-02-18T14:49:54Z</time><name>PT11519</name></trkpt>
<trkpt lat="53.464207" lon="05.864561"><ele>16.1</ele><time>2021-02-18T14:49:55Z</time><name>PT11520</name></trkpt>
<trkpt lat="53.464202" lon="05.864564"><ele>16.3</ele><time>2021-02-18T14:49:56Z</time><name>PT11521</name></trkpt>
<trkpt lat="53.464195" lon="05.864567"><ele>16.7</ele><time>2021-02-18T14:49:57Z</time><name>PT11522</name></trkpt>
<trkpt lat="53.464189" lon="05.864572"><ele>16.8</ele><time>2021-02-18T14:49:58Z</time><name>PT11523</name></trkpt>
<trkpt lat="53.464182" lon="05.864573"><ele>16.7</ele><time>2021-02-18T14:49:59Z</time><name>PT11524</name></trkpt>
<trkpt lat="53.464175" lon="05.864573"><ele>16.4</ele><time>2021-02-18T14:50:00Z</time><name>PT11525</name></trkpt>
<trkpt lat="53.464168" lon="05.864574"><ele>16.2</ele><time>2021-02-18T14:50:01Z</time><name>PT11526</name></trkpt>
<trkpt lat="53.464158" lon="05.864572"><ele>16.4</ele><time>2021-02-18T14:50:02Z</time><name>PT11527</name></trkpt>
<trkpt lat="53.464149" lon="05.864576"><ele>16.9</ele><time>2021-02-18T14:50:03Z</time><name>PT11528</name></trkpt>
<trkpt lat="53.464141" lon="05.864579"><ele>17.4</ele><time>2021-02-18T14:50:04Z</time><name>PT11529</name></trkpt>
<trkpt lat="53.464131" lon="05.864581"><ele>17.5</ele><time>2021-02-18T14:50:05Z</time><name>PT11530</name></trkpt>
<trkpt lat="53.464123" lon="05.864582"><ele>17.5</ele><time>2021-02-18T14:50:06Z</time><name>PT11531</name></trkpt>
<trkpt lat="53.464115" lon="05.864585"><ele>17.5</ele><time>2021-02-18T14:50:07Z</time><name>PT11532</name></trkpt>
<trkpt lat="53.464106" lon="05.864586"><ele>17.5</ele><time>2021-02-18T14:50:08Z</time><name>PT11533</name></trkpt>
<trkpt lat="53.464099" lon="05.864584"><ele>17.4</ele><time>2021-02-18T14:50:09Z</time><name>PT11534</name></trkpt>
<trkpt lat="53.464090" lon="05.864579"><ele>17.5</ele><time>2021-02-18T14:50:10Z</time><name>PT11535</name></trkpt>
<trkpt lat="53.464083" lon="05.864577"><ele>17.5</ele><time>2021-02-18T14:50:11Z</time><name>PT11536</name></trkpt>
<trkpt lat="53.464076" lon="05.864577"><ele>17.5</ele><time>2021-02-18T14:50:12Z</time><name>PT11537</name></trkpt>
<trkpt lat="53.464068" lon="05.864579"><ele>17.5</ele><time>2021-02-18T14:50:13Z</time><name>PT11538</name></trkpt>
<trkpt lat="53.464060" lon="05.864579"><ele>17.6</ele><time>2021-02-18T14:50:14Z</time><name>PT11539</name></trkpt>
<trkpt lat="53.464053" lon="05.864578"><ele>17.7</ele><time>2021-02-18T14:50:15Z</time><name>PT11540</name></trkpt>
<trkpt lat="53.464043" lon="05.864577"><ele>17.5</ele><time>2021-02-18T14:50:16Z</time><name>PT11541</name></trkpt>
<trkpt lat="53.464033" lon="05.864577"><ele>17.5</ele><time>2021-02-18T14:50:17Z</time><name>PT11542</name></trkpt>
<trkpt lat="53.464022" lon="05.864576"><ele>17.8</ele><time>2021-02-18T14:50:18Z</time><name>PT11543</name></trkpt>
<trkpt lat="53.464013" lon="05.864577"><ele>17.9</ele><time>2021-02-18T14:50:19Z</time><name>PT11544</name></trkpt>
<trkpt lat="53.464003" lon="05.864578"><ele>18.1</ele><time>2021-02-18T14:50:20Z</time><name>PT11545</name></trkpt>
<trkpt lat="53.463993" lon="05.864579"><ele>18.4</ele><time>2021-02-18T14:50:21Z</time><name>PT11546</name></trkpt>
<trkpt lat="53.463984" lon="05.864584"><ele>18.5</ele><time>2021-02-18T14:50:22Z</time><name>PT11547</name></trkpt>
<trkpt lat="53.463974" lon="05.864590"><ele>18.8</ele><time>2021-02-18T14:50:23Z</time><name>PT11548</name></trkpt>
<trkpt lat="53.463968" lon="05.864595"><ele>18.9</ele><time>2021-02-18T14:50:24Z</time><name>PT11549</name></trkpt>
<trkpt lat="53.463960" lon="05.864598"><ele>18.9</ele><time>2021-02-18T14:50:25Z</time><name>PT11550</name></trkpt>
<trkpt lat="53.463951" lon="05.864597"><ele>18.9</ele><time>2021-02-18T14:50:26Z</time><name>PT11551</name></trkpt>
<trkpt lat="53.463941" lon="05.864596"><ele>18.6</ele><time>2021-02-18T14:50:27Z</time><name>PT11552</name></trkpt>
<trkpt lat="53.463932" lon="05.864595"><ele>18.4</ele><time>2021-02-18T14:50:28Z</time><name>PT11553</name></trkpt>
<trkpt lat="53.463923" lon="05.864596"><ele>18.4</ele><time>2021-02-18T14:50:29Z</time><name>PT11554</name></trkpt>
<trkpt lat="53.463914" lon="05.864597"><ele>18.2</ele><time>2021-02-18T14:50:30Z</time><name>PT11555</name></trkpt>
<trkpt lat="53.463906" lon="05.864599"><ele>18.1</ele><time>2021-02-18T14:50:31Z</time><name>PT11556</name></trkpt>
<trkpt lat="53.463899" lon="05.864597"><ele>17.9</ele><time>2021-02-18T14:50:32Z</time><name>PT11557</name></trkpt>
<trkpt lat="53.463891" lon="05.864596"><ele>17.9</ele><time>2021-02-18T14:50:33Z</time><name>PT11558</name></trkpt>
<trkpt lat="53.463882" lon="05.864595"><ele>17.9</ele><time>2021-02-18T14:50:34Z</time><name>PT11559</name></trkpt>
<trkpt lat="53.463874" lon="05.864595"><ele>17.9</ele><time>2021-02-18T14:50:35Z</time><name>PT11560</name></trkpt>
<trkpt lat="53.463865" lon="05.864596"><ele>18</ele><time>2021-02-18T14:50:36Z</time><name>PT11561</name></trkpt>
<trkpt lat="53.463857" lon="05.864599"><ele>17.9</ele><time>2021-02-18T14:50:37Z</time><name>PT11562</name></trkpt>
<trkpt lat="53.463849" lon="05.864600"><ele>17.6</ele><time>2021-02-18T14:50:38Z</time><name>PT11563</name></trkpt>
<trkpt lat="53.463842" lon="05.864598"><ele>17.8</ele><time>2021-02-18T14:50:39Z</time><name>PT11564</name></trkpt>
<trkpt lat="53.463833" lon="05.864595"><ele>17.5</ele><time>2021-02-18T14:50:40Z</time><name>PT11565</name></trkpt>
<trkpt lat="53.463825" lon="05.864588"><ele>17.4</ele><time>2021-02-18T14:50:41Z</time><name>PT11566</name></trkpt>
<trkpt lat="53.463816" lon="05.864580"><ele>17.1</ele><time>2021-02-18T14:50:42Z</time><name>PT11567</name></trkpt>
<trkpt lat="53.463806" lon="05.864571"><ele>16.9</ele><time>2021-02-18T14:50:43Z</time><name>PT11568</name></trkpt>
<trkpt lat="53.463798" lon="05.864564"><ele>16.8</ele><time>2021-02-18T14:50:44Z</time><name>PT11569</name></trkpt>
<trkpt lat="53.463790" lon="05.864562"><ele>16.8</ele><time>2021-02-18T14:50:45Z</time><name>PT11570</name></trkpt>
<trkpt lat="53.463786" lon="05.864564"><ele>16.7</ele><time>2021-02-18T14:50:46Z</time><name>PT11571</name></trkpt>
<trkpt lat="53.463779" lon="05.864563"><ele>16.7</ele><time>2021-02-18T14:50:47Z</time><name>PT11572</name></trkpt>
<trkpt lat="53.463772" lon="05.864564"><ele>16.4</ele><time>2021-02-18T14:50:48Z</time><name>PT11573</name></trkpt>
<trkpt lat="53.463767" lon="05.864568"><ele>16.2</ele><time>2021-02-18T14:50:49Z</time><name>PT11574</name></trkpt>
<trkpt lat="53.463761" lon="05.864571"><ele>15.9</ele><time>2021-02-18T14:50:50Z</time><name>PT11575</name></trkpt>
<trkpt lat="53.463753" lon="05.864577"><ele>15.9</ele><time>2021-02-18T14:50:51Z</time><name>PT11576</name></trkpt>
<trkpt lat="53.463748" lon="05.864582"><ele>15.9</ele><time>2021-02-18T14:50:52Z</time><name>PT11577</name></trkpt>
<trkpt lat="53.463739" lon="05.864587"><ele>15.9</ele><time>2021-02-18T14:50:53Z</time><name>PT11578</name></trkpt>
<trkpt lat="53.463732" lon="05.864589"><ele>16</ele><time>2021-02-18T14:50:54Z</time><name>PT11579</name></trkpt>
<trkpt lat="53.463726" lon="05.864591"><ele>16</ele><time>2021-02-18T14:50:55Z</time><name>PT11580</name></trkpt>
<trkpt lat="53.463721" lon="05.864594"><ele>15.9</ele><time>2021-02-18T14:50:56Z</time><name>PT11581</name></trkpt>
<trkpt lat="53.463715" lon="05.864594"><ele>15.6</ele><time>2021-02-18T14:50:57Z</time><name>PT11582</name></trkpt>
<trkpt lat="53.463707" lon="05.864593"><ele>15.5</ele><time>2021-02-18T14:50:58Z</time><name>PT11583</name></trkpt>
<trkpt lat="53.463701" lon="05.864592"><ele>15.4</ele><time>2021-02-18T14:50:59Z</time><name>PT11584</name></trkpt>
<trkpt lat="53.463696" lon="05.864592"><ele>15.1</ele><time>2021-02-18T14:51:00Z</time><name>PT11585</name></trkpt>
<trkpt lat="53.463688" lon="05.864591"><ele>15</ele><time>2021-02-18T14:51:01Z</time><name>PT11586</name></trkpt>
<trkpt lat="53.463680" lon="05.864592"><ele>14.8</ele><time>2021-02-18T14:51:02Z</time><name>PT11587</name></trkpt>
<trkpt lat="53.463674" lon="05.864592"><ele>14.5</ele><time>2021-02-18T14:51:03Z</time><name>PT11588</name></trkpt>
<trkpt lat="53.463669" lon="05.864590"><ele>14.4</ele><time>2021-02-18T14:51:04Z</time><name>PT11589</name></trkpt>
<trkpt lat="53.463664" lon="05.864587"><ele>14.3</ele><time>2021-02-18T14:51:05Z</time><name>PT11590</name></trkpt>
<trkpt lat="53.463660" lon="05.864587"><ele>14.3</ele><time>2021-02-18T14:51:06Z</time><name>PT11591</name></trkpt>
<trkpt lat="53.463653" lon="05.864583"><ele>14.1</ele><time>2021-02-18T14:51:07Z</time><name>PT11592</name></trkpt>
<trkpt lat="53.463646" lon="05.864578"><ele>14</ele><time>2021-02-18T14:51:08Z</time><name>PT11593</name></trkpt>
<trkpt lat="53.463638" lon="05.864574"><ele>13.6</ele><time>2021-02-18T14:51:09Z</time><name>PT11594</name></trkpt>
<trkpt lat="53.463632" lon="05.864571"><ele>13</ele><time>2021-02-18T14:51:10Z</time><name>PT11595</name></trkpt>
<trkpt lat="53.463625" lon="05.864566"><ele>12.8</ele><time>2021-02-18T14:51:11Z</time><name>PT11596</name></trkpt>
<trkpt lat="53.463618" lon="05.864559"><ele>12.8</ele><time>2021-02-18T14:51:12Z</time><name>PT11597</name></trkpt>
<trkpt lat="53.463611" lon="05.864555"><ele>12.8</ele><time>2021-02-18T14:51:13Z</time><name>PT11598</name></trkpt>
<trkpt lat="53.463604" lon="05.864553"><ele>12.8</ele><time>2021-02-18T14:51:14Z</time><name>PT11599</name></trkpt>
<trkpt lat="53.463596" lon="05.864552"><ele>13</ele><time>2021-02-18T14:51:15Z</time><name>PT11600</name></trkpt>
<trkpt lat="53.463587" lon="05.864553"><ele>12.8</ele><time>2021-02-18T14:51:16Z</time><name>PT11601</name></trkpt>
<trkpt lat="53.463573" lon="05.864556"><ele>12.8</ele><time>2021-02-18T14:51:17Z</time><name>PT11602</name></trkpt>
<trkpt lat="53.463558" lon="05.864563"><ele>12.6</ele><time>2021-02-18T14:51:18Z</time><name>PT11603</name></trkpt>
<trkpt lat="53.463545" lon="05.864570"><ele>12.2</ele><time>2021-02-18T14:51:19Z</time><name>PT11604</name></trkpt>
<trkpt lat="53.463537" lon="05.864578"><ele>12</ele><time>2021-02-18T14:51:20Z</time><name>PT11605</name></trkpt>
<trkpt lat="53.463529" lon="05.864585"><ele>12</ele><time>2021-02-18T14:51:21Z</time><name>PT11606</name></trkpt>
<trkpt lat="53.463522" lon="05.864593"><ele>12</ele><time>2021-02-18T14:51:22Z</time><name>PT11607</name></trkpt>
<trkpt lat="53.463515" lon="05.864600"><ele>12</ele><time>2021-02-18T14:51:23Z</time><name>PT11608</name></trkpt>
<trkpt lat="53.463508" lon="05.864605"><ele>12.1</ele><time>2021-02-18T14:51:24Z</time><name>PT11609</name></trkpt>
<trkpt lat="53.463500" lon="05.864610"><ele>12.3</ele><time>2021-02-18T14:51:25Z</time><name>PT11610</name></trkpt>
<trkpt lat="53.463491" lon="05.864616"><ele>12.4</ele><time>2021-02-18T14:51:26Z</time><name>PT11611</name></trkpt>
<trkpt lat="53.463483" lon="05.864618"><ele>12.5</ele><time>2021-02-18T14:51:27Z</time><name>PT11612</name></trkpt>
<trkpt lat="53.463475" lon="05.864615"><ele>12.5</ele><time>2021-02-18T14:51:28Z</time><name>PT11613</name></trkpt>
<trkpt lat="53.463466" lon="05.864608"><ele>12.3</ele><time>2021-02-18T14:51:29Z</time><name>PT11614</name></trkpt>
<trkpt lat="53.463457" lon="05.864604"><ele>12.2</ele><time>2021-02-18T14:51:30Z</time><name>PT11615</name></trkpt>
<trkpt lat="53.463448" lon="05.864601"><ele>11.8</ele><time>2021-02-18T14:51:31Z</time><name>PT11616</name></trkpt>
<trkpt lat="53.463439" lon="05.864597"><ele>11.6</ele><time>2021-02-18T14:51:32Z</time><name>PT11617</name></trkpt>
<trkpt lat="53.463432" lon="05.864597"><ele>11.2</ele><time>2021-02-18T14:51:33Z</time><name>PT11618</name></trkpt>
<trkpt lat="53.463427" lon="05.864601"><ele>11</ele><time>2021-02-18T14:51:34Z</time><name>PT11619</name></trkpt>
<trkpt lat="53.463421" lon="05.864606"><ele>11.2</ele><time>2021-02-18T14:51:35Z</time><name>PT11620</name></trkpt>
<trkpt lat="53.463415" lon="05.864608"><ele>11.1</ele><time>2021-02-18T14:51:36Z</time><name>PT11621</name></trkpt>
<trkpt lat="53.463411" lon="05.864609"><ele>11.2</ele><time>2021-02-18T14:51:37Z</time><name>PT11622</name></trkpt>
<trkpt lat="53.463407" lon="05.864610"><ele>11.2</ele><time>2021-02-18T14:51:38Z</time><name>PT11623</name></trkpt>
<trkpt lat="53.463404" lon="05.864613"><ele>11.2</ele><time>2021-02-18T14:51:39Z</time><name>PT11624</name></trkpt>
<trkpt lat="53.463387" lon="05.864621"><ele>11.3</ele><time>2021-02-18T14:51:48Z</time><name>PT11625</name></trkpt>
<trkpt lat="53.463369" lon="05.864624"><ele>11.4</ele><time>2021-02-18T14:51:49Z</time><name>PT11626</name></trkpt>
<trkpt lat="53.463351" lon="05.864627"><ele>11.4</ele><time>2021-02-18T14:51:50Z</time><name>PT11627</name></trkpt>
<trkpt lat="53.463338" lon="05.864627"><ele>11.6</ele><time>2021-02-18T14:51:51Z</time><name>PT11628</name></trkpt>
<trkpt lat="53.463323" lon="05.864630"><ele>11.7</ele><time>2021-02-18T14:51:52Z</time><name>PT11629</name></trkpt>
<trkpt lat="53.463312" lon="05.864630"><ele>11.5</ele><time>2021-02-18T14:51:53Z</time><name>PT11630</name></trkpt>
<trkpt lat="53.463302" lon="05.864629"><ele>11.3</ele><time>2021-02-18T14:51:54Z</time><name>PT11631</name></trkpt>
<trkpt lat="53.463291" lon="05.864629"><ele>11.2</ele><time>2021-02-18T14:51:55Z</time><name>PT11632</name></trkpt>
<trkpt lat="53.463281" lon="05.864629"><ele>11.2</ele><time>2021-02-18T14:51:56Z</time><name>PT11633</name></trkpt>
<trkpt lat="53.463273" lon="05.864626"><ele>11.4</ele><time>2021-02-18T14:51:57Z</time><name>PT11634</name></trkpt>
<trkpt lat="53.463265" lon="05.864625"><ele>11.6</ele><time>2021-02-18T14:51:58Z</time><name>PT11635</name></trkpt>
<trkpt lat="53.463255" lon="05.864621"><ele>11.6</ele><time>2021-02-18T14:51:59Z</time><name>PT11636</name></trkpt>
<trkpt lat="53.463249" lon="05.864618"><ele>11.8</ele><time>2021-02-18T14:52:00Z</time><name>PT11637</name></trkpt>
<trkpt lat="53.463243" lon="05.864613"><ele>11.8</ele><time>2021-02-18T14:52:01Z</time><name>PT11638</name></trkpt>
<trkpt lat="53.463236" lon="05.864610"><ele>12</ele><time>2021-02-18T14:52:02Z</time><name>PT11639</name></trkpt>
<trkpt lat="53.463229" lon="05.864606"><ele>12</ele><time>2021-02-18T14:52:03Z</time><name>PT11640</name></trkpt>
<trkpt lat="53.463220" lon="05.864599"><ele>12</ele><time>2021-02-18T14:52:04Z</time><name>PT11641</name></trkpt>
<trkpt lat="53.463212" lon="05.864599"><ele>12.2</ele><time>2021-02-18T14:52:05Z</time><name>PT11642</name></trkpt>
<trkpt lat="53.463206" lon="05.864598"><ele>12.4</ele><time>2021-02-18T14:52:06Z</time><name>PT11643</name></trkpt>
<trkpt lat="53.463196" lon="05.864595"><ele>12.5</ele><time>2021-02-18T14:52:07Z</time><name>PT11644</name></trkpt>
<trkpt lat="53.463187" lon="05.864597"><ele>12.6</ele><time>2021-02-18T14:52:08Z</time><name>PT11645</name></trkpt>
<trkpt lat="53.463180" lon="05.864597"><ele>12.5</ele><time>2021-02-18T14:52:09Z</time><name>PT11646</name></trkpt>
<trkpt lat="53.463170" lon="05.864594"><ele>12.3</ele><time>2021-02-18T14:52:10Z</time><name>PT11647</name></trkpt>
<trkpt lat="53.463163" lon="05.864594"><ele>12.3</ele><time>2021-02-18T14:52:11Z</time><name>PT11648</name></trkpt>
<trkpt lat="53.463155" lon="05.864591"><ele>12.3</ele><time>2021-02-18T14:52:12Z</time><name>PT11649</name></trkpt>
<trkpt lat="53.463150" lon="05.864590"><ele>12.3</ele><time>2021-02-18T14:52:13Z</time><name>PT11650</name></trkpt>
<trkpt lat="53.463144" lon="05.864589"><ele>12.3</ele><time>2021-02-18T14:52:14Z</time><name>PT11651</name></trkpt>
<trkpt lat="53.463121" lon="05.864588"><ele>13.3</ele><time>2021-02-18T14:52:29Z</time><name>PT11652</name></trkpt>
<trkpt lat="53.463097" lon="05.864586"><ele>13.2</ele><time>2021-02-18T14:52:30Z</time><name>PT11653</name></trkpt>
<trkpt lat="53.463078" lon="05.864581"><ele>13</ele><time>2021-02-18T14:52:31Z</time><name>PT11654</name></trkpt>
<trkpt lat="53.463064" lon="05.864577"><ele>13.1</ele><time>2021-02-18T14:52:32Z</time><name>PT11655</name></trkpt>
<trkpt lat="53.463051" lon="05.864575"><ele>13</ele><time>2021-02-18T14:52:33Z</time><name>PT11656</name></trkpt>
<trkpt lat="53.463039" lon="05.864573"><ele>13.1</ele><time>2021-02-18T14:52:34Z</time><name>PT11657</name></trkpt>
<trkpt lat="53.463028" lon="05.864574"><ele>13.3</ele><time>2021-02-18T14:52:35Z</time><name>PT11658</name></trkpt>
<trkpt lat="53.463016" lon="05.864573"><ele>13.3</ele><time>2021-02-18T14:52:36Z</time><name>PT11659</name></trkpt>
<trkpt lat="53.463004" lon="05.864572"><ele>13.1</ele><time>2021-02-18T14:52:37Z</time><name>PT11660</name></trkpt>
<trkpt lat="53.462992" lon="05.864570"><ele>13</ele><time>2021-02-18T14:52:38Z</time><name>PT11661</name></trkpt>
<trkpt lat="53.462980" lon="05.864567"><ele>12.9</ele><time>2021-02-18T14:52:39Z</time><name>PT11662</name></trkpt>
<trkpt lat="53.462966" lon="05.864564"><ele>12.9</ele><time>2021-02-18T14:52:40Z</time><name>PT11663</name></trkpt>
<trkpt lat="53.462953" lon="05.864561"><ele>12.8</ele><time>2021-02-18T14:52:41Z</time><name>PT11664</name></trkpt>
<trkpt lat="53.462941" lon="05.864560"><ele>12.9</ele><time>2021-02-18T14:52:42Z</time><name>PT11665</name></trkpt>
<trkpt lat="53.462929" lon="05.864558"><ele>12.9</ele><time>2021-02-18T14:52:43Z</time><name>PT11666</name></trkpt>
<trkpt lat="53.462918" lon="05.864557"><ele>12.8</ele><time>2021-02-18T14:52:44Z</time><name>PT11667</name></trkpt>
<trkpt lat="53.462905" lon="05.864560"><ele>12.7</ele><time>2021-02-18T14:52:45Z</time><name>PT11668</name></trkpt>
<trkpt lat="53.462892" lon="05.864563"><ele>12.6</ele><time>2021-02-18T14:52:46Z</time><name>PT11669</name></trkpt>
<trkpt lat="53.462881" lon="05.864567"><ele>12.4</ele><time>2021-02-18T14:52:47Z</time><name>PT11670</name></trkpt>
<trkpt lat="53.462870" lon="05.864570"><ele>12.4</ele><time>2021-02-18T14:52:48Z</time><name>PT11671</name></trkpt>
<trkpt lat="53.462861" lon="05.864571"><ele>12.6</ele><time>2021-02-18T14:52:49Z</time><name>PT11672</name></trkpt>
<trkpt lat="53.462849" lon="05.864574"><ele>12.5</ele><time>2021-02-18T14:52:50Z</time><name>PT11673</name></trkpt>
<trkpt lat="53.462838" lon="05.864578"><ele>12.4</ele><time>2021-02-18T14:52:51Z</time><name>PT11674</name></trkpt>
<trkpt lat="53.462826" lon="05.864579"><ele>12.3</ele><time>2021-02-18T14:52:52Z</time><name>PT11675</name></trkpt>
<trkpt lat="53.462816" lon="05.864580"><ele>12.3</ele><time>2021-02-18T14:52:53Z</time><name>PT11676</name></trkpt>
<trkpt lat="53.462806" lon="05.864583"><ele>12.3</ele><time>2021-02-18T14:52:54Z</time><name>PT11677</name></trkpt>
<trkpt lat="53.462796" lon="05.864586"><ele>12.3</ele><time>2021-02-18T14:52:55Z</time><name>PT11678</name></trkpt>
<trkpt lat="53.462790" lon="05.864589"><ele>12.4</ele><time>2021-02-18T14:52:56Z</time><name>PT11679</name></trkpt>
<trkpt lat="53.462781" lon="05.864593"><ele>12.4</ele><time>2021-02-18T14:52:57Z</time><name>PT11680</name></trkpt>
<trkpt lat="53.462771" lon="05.864595"><ele>12.1</ele><time>2021-02-18T14:52:58Z</time><name>PT11681</name></trkpt>
<trkpt lat="53.462761" lon="05.864595"><ele>12</ele><time>2021-02-18T14:52:59Z</time><name>PT11682</name></trkpt>
<trkpt lat="53.462751" lon="05.864592"><ele>11.8</ele><time>2021-02-18T14:53:00Z</time><name>PT11683</name></trkpt>
<trkpt lat="53.462739" lon="05.864590"><ele>11.5</ele><time>2021-02-18T14:53:01Z</time><name>PT11684</name></trkpt>
<trkpt lat="53.462731" lon="05.864590"><ele>11.5</ele><time>2021-02-18T14:53:02Z</time><name>PT11685</name></trkpt>
<trkpt lat="53.462718" lon="05.864588"><ele>11.6</ele><time>2021-02-18T14:53:03Z</time><name>PT11686</name></trkpt>
<trkpt lat="53.462708" lon="05.864584"><ele>11.5</ele><time>2021-02-18T14:53:04Z</time><name>PT11687</name></trkpt>
<trkpt lat="53.462701" lon="05.864581"><ele>11.6</ele><time>2021-02-18T14:53:05Z</time><name>PT11688</name></trkpt>
<trkpt lat="53.462692" lon="05.864576"><ele>11.3</ele><time>2021-02-18T14:53:06Z</time><name>PT11689</name></trkpt>
<trkpt lat="53.462683" lon="05.864570"><ele>11.2</ele><time>2021-02-18T14:53:07Z</time><name>PT11690</name></trkpt>
<trkpt lat="53.462674" lon="05.864568"><ele>11.2</ele><time>2021-02-18T14:53:08Z</time><name>PT11691</name></trkpt>
<trkpt lat="53.462665" lon="05.864566"><ele>11.2</ele><time>2021-02-18T14:53:09Z</time><name>PT11692</name></trkpt>
<trkpt lat="53.462654" lon="05.864559"><ele>11</ele><time>2021-02-18T14:53:10Z</time><name>PT11693</name></trkpt>
<trkpt lat="53.462645" lon="05.864551"><ele>11</ele><time>2021-02-18T14:53:11Z</time><name>PT11694</name></trkpt>
<trkpt lat="53.462635" lon="05.864542"><ele>10.8</ele><time>2021-02-18T14:53:12Z</time><name>PT11695</name></trkpt>
<trkpt lat="53.462626" lon="05.864535"><ele>10.7</ele><time>2021-02-18T14:53:13Z</time><name>PT11696</name></trkpt>
<trkpt lat="53.462615" lon="05.864530"><ele>10.6</ele><time>2021-02-18T14:53:14Z</time><name>PT11697</name></trkpt>
<trkpt lat="53.462605" lon="05.864527"><ele>10.4</ele><time>2021-02-18T14:53:15Z</time><name>PT11698</name></trkpt>
<trkpt lat="53.462595" lon="05.864527"><ele>10.3</ele><time>2021-02-18T14:53:16Z</time><name>PT11699</name></trkpt>
<trkpt lat="53.462585" lon="05.864523"><ele>10.1</ele><time>2021-02-18T14:53:17Z</time><name>PT11700</name></trkpt>
<trkpt lat="53.462574" lon="05.864517"><ele>10</ele><time>2021-02-18T14:53:18Z</time><name>PT11701</name></trkpt>
<trkpt lat="53.462563" lon="05.864508"><ele>9.9</ele><time>2021-02-18T14:53:19Z</time><name>PT11702</name></trkpt>
<trkpt lat="53.462552" lon="05.864499"><ele>9.9</ele><time>2021-02-18T14:53:20Z</time><name>PT11703</name></trkpt>
<trkpt lat="53.462541" lon="05.864492"><ele>10.2</ele><time>2021-02-18T14:53:21Z</time><name>PT11704</name></trkpt>
<trkpt lat="53.462532" lon="05.864488"><ele>10.3</ele><time>2021-02-18T14:53:22Z</time><name>PT11705</name></trkpt>
<trkpt lat="53.462524" lon="05.864486"><ele>10.4</ele><time>2021-02-18T14:53:23Z</time><name>PT11706</name></trkpt>
<trkpt lat="53.462515" lon="05.864484"><ele>10.6</ele><time>2021-02-18T14:53:24Z</time><name>PT11707</name></trkpt>
<trkpt lat="53.462506" lon="05.864480"><ele>10.6</ele><time>2021-02-18T14:53:25Z</time><name>PT11708</name></trkpt>
<trkpt lat="53.462495" lon="05.864473"><ele>10.8</ele><time>2021-02-18T14:53:26Z</time><name>PT11709</name></trkpt>
<trkpt lat="53.462485" lon="05.864466"><ele>11</ele><time>2021-02-18T14:53:27Z</time><name>PT11710</name></trkpt>
<trkpt lat="53.462474" lon="05.864461"><ele>11.1</ele><time>2021-02-18T14:53:28Z</time><name>PT11711</name></trkpt>
<trkpt lat="53.462462" lon="05.864451"><ele>11.1</ele><time>2021-02-18T14:53:29Z</time><name>PT11712</name></trkpt>
<trkpt lat="53.462451" lon="05.864443"><ele>11.1</ele><time>2021-02-18T14:53:30Z</time><name>PT11713</name></trkpt>
<trkpt lat="53.462441" lon="05.864436"><ele>11.2</ele><time>2021-02-18T14:53:31Z</time><name>PT11714</name></trkpt>
<trkpt lat="53.462431" lon="05.864430"><ele>11.1</ele><time>2021-02-18T14:53:32Z</time><name>PT11715</name></trkpt>
<trkpt lat="53.462421" lon="05.864423"><ele>11</ele><time>2021-02-18T14:53:33Z</time><name>PT11716</name></trkpt>
<trkpt lat="53.462411" lon="05.864419"><ele>10.4</ele><time>2021-02-18T14:53:34Z</time><name>PT11717</name></trkpt>
<trkpt lat="53.462399" lon="05.864417"><ele>10.2</ele><time>2021-02-18T14:53:35Z</time><name>PT11718</name></trkpt>
<trkpt lat="53.462387" lon="05.864416"><ele>9.8</ele><time>2021-02-18T14:53:36Z</time><name>PT11719</name></trkpt>
<trkpt lat="53.462377" lon="05.864411"><ele>9.8</ele><time>2021-02-18T14:53:37Z</time><name>PT11720</name></trkpt>
<trkpt lat="53.462366" lon="05.864407"><ele>9.8</ele><time>2021-02-18T14:53:38Z</time><name>PT11721</name></trkpt>
<trkpt lat="53.462355" lon="05.864404"><ele>9.8</ele><time>2021-02-18T14:53:39Z</time><name>PT11722</name></trkpt>
<trkpt lat="53.462344" lon="05.864398"><ele>9.8</ele><time>2021-02-18T14:53:40Z</time><name>PT11723</name></trkpt>
<trkpt lat="53.462331" lon="05.864389"><ele>9.8</ele><time>2021-02-18T14:53:41Z</time><name>PT11724</name></trkpt>
<trkpt lat="53.462318" lon="05.864379"><ele>9.7</ele><time>2021-02-18T14:53:42Z</time><name>PT11725</name></trkpt>
<trkpt lat="53.462306" lon="05.864369"><ele>9.9</ele><time>2021-02-18T14:53:43Z</time><name>PT11726</name></trkpt>
<trkpt lat="53.462294" lon="05.864362"><ele>10</ele><time>2021-02-18T14:53:44Z</time><name>PT11727</name></trkpt>
<trkpt lat="53.462282" lon="05.864355"><ele>10</ele><time>2021-02-18T14:53:45Z</time><name>PT11728</name></trkpt>
<trkpt lat="53.462271" lon="05.864351"><ele>10.1</ele><time>2021-02-18T14:53:46Z</time><name>PT11729</name></trkpt>
<trkpt lat="53.462260" lon="05.864348"><ele>10.1</ele><time>2021-02-18T14:53:47Z</time><name>PT11730</name></trkpt>
<trkpt lat="53.462249" lon="05.864341"><ele>9.8</ele><time>2021-02-18T14:53:48Z</time><name>PT11731</name></trkpt>
<trkpt lat="53.462238" lon="05.864334"><ele>9.7</ele><time>2021-02-18T14:53:49Z</time><name>PT11732</name></trkpt>
<trkpt lat="53.462227" lon="05.864325"><ele>9.6</ele><time>2021-02-18T14:53:50Z</time><name>PT11733</name></trkpt>
<trkpt lat="53.462217" lon="05.864315"><ele>9.8</ele><time>2021-02-18T14:53:51Z</time><name>PT11734</name></trkpt>
<trkpt lat="53.462205" lon="05.864306"><ele>10.1</ele><time>2021-02-18T14:53:52Z</time><name>PT11735</name></trkpt>
<trkpt lat="53.462194" lon="05.864300"><ele>10.2</ele><time>2021-02-18T14:53:53Z</time><name>PT11736</name></trkpt>
<trkpt lat="53.462184" lon="05.864296"><ele>10.3</ele><time>2021-02-18T14:53:54Z</time><name>PT11737</name></trkpt>
<trkpt lat="53.462175" lon="05.864294"><ele>10.2</ele><time>2021-02-18T14:53:55Z</time><name>PT11738</name></trkpt>
<trkpt lat="53.462166" lon="05.864293"><ele>10.1</ele><time>2021-02-18T14:53:56Z</time><name>PT11739</name></trkpt>
<trkpt lat="53.462157" lon="05.864288"><ele>10.1</ele><time>2021-02-18T14:53:57Z</time><name>PT11740</name></trkpt>
<trkpt lat="53.462148" lon="05.864284"><ele>10.2</ele><time>2021-02-18T14:53:58Z</time><name>PT11741</name></trkpt>
<trkpt lat="53.462140" lon="05.864282"><ele>10.2</ele><time>2021-02-18T14:53:59Z</time><name>PT11742</name></trkpt>
<trkpt lat="53.462129" lon="05.864279"><ele>10.1</ele><time>2021-02-18T14:54:00Z</time><name>PT11743</name></trkpt>
<trkpt lat="53.462120" lon="05.864278"><ele>10.1</ele><time>2021-02-18T14:54:01Z</time><name>PT11744</name></trkpt>
<trkpt lat="53.462109" lon="05.864276"><ele>10.1</ele><time>2021-02-18T14:54:02Z</time><name>PT11745</name></trkpt>
<trkpt lat="53.462098" lon="05.864277"><ele>10.1</ele><time>2021-02-18T14:54:03Z</time><name>PT11746</name></trkpt>
<trkpt lat="53.462088" lon="05.864277"><ele>9.9</ele><time>2021-02-18T14:54:04Z</time><name>PT11747</name></trkpt>
<trkpt lat="53.462078" lon="05.864276"><ele>9.9</ele><time>2021-02-18T14:54:05Z</time><name>PT11748</name></trkpt>
<trkpt lat="53.462067" lon="05.864272"><ele>9.8</ele><time>2021-02-18T14:54:06Z</time><name>PT11749</name></trkpt>
<trkpt lat="53.462053" lon="05.864269"><ele>9.4</ele><time>2021-02-18T14:54:07Z</time><name>PT11750</name></trkpt>
<trkpt lat="53.462042" lon="05.864269"><ele>9.5</ele><time>2021-02-18T14:54:08Z</time><name>PT11751</name></trkpt>
<trkpt lat="53.462033" lon="05.864270"><ele>9.3</ele><time>2021-02-18T14:54:09Z</time><name>PT11752</name></trkpt>
<trkpt lat="53.462023" lon="05.864269"><ele>9.8</ele><time>2021-02-18T14:54:10Z</time><name>PT11753</name></trkpt>
<trkpt lat="53.462014" lon="05.864272"><ele>10.3</ele><time>2021-02-18T14:54:11Z</time><name>PT11754</name></trkpt>
<trkpt lat="53.462005" lon="05.864271"><ele>10.3</ele><time>2021-02-18T14:54:12Z</time><name>PT11755</name></trkpt>
<trkpt lat="53.461995" lon="05.864268"><ele>10.7</ele><time>2021-02-18T14:54:13Z</time><name>PT11756</name></trkpt>
<trkpt lat="53.461984" lon="05.864264"><ele>10.8</ele><time>2021-02-18T14:54:14Z</time><name>PT11757</name></trkpt>
<trkpt lat="53.461973" lon="05.864260"><ele>10.8</ele><time>2021-02-18T14:54:15Z</time><name>PT11758</name></trkpt>
<trkpt lat="53.461964" lon="05.864255"><ele>11</ele><time>2021-02-18T14:54:16Z</time><name>PT11759</name></trkpt>
<trkpt lat="53.461955" lon="05.864251"><ele>11</ele><time>2021-02-18T14:54:17Z</time><name>PT11760</name></trkpt>
<trkpt lat="53.461945" lon="05.864244"><ele>10.7</ele><time>2021-02-18T14:54:18Z</time><name>PT11761</name></trkpt>
<trkpt lat="53.461934" lon="05.864239"><ele>10.7</ele><time>2021-02-18T14:54:19Z</time><name>PT11762</name></trkpt>
<trkpt lat="53.461924" lon="05.864235"><ele>10.7</ele><time>2021-02-18T14:54:20Z</time><name>PT11763</name></trkpt>
<trkpt lat="53.461915" lon="05.864226"><ele>10.5</ele><time>2021-02-18T14:54:21Z</time><name>PT11764</name></trkpt>
<trkpt lat="53.461905" lon="05.864217"><ele>10.6</ele><time>2021-02-18T14:54:22Z</time><name>PT11765</name></trkpt>
<trkpt lat="53.461895" lon="05.864206"><ele>10.5</ele><time>2021-02-18T14:54:23Z</time><name>PT11766</name></trkpt>
<trkpt lat="53.461884" lon="05.864192"><ele>10.3</ele><time>2021-02-18T14:54:24Z</time><name>PT11767</name></trkpt>
<trkpt lat="53.461875" lon="05.864180"><ele>10.6</ele><time>2021-02-18T14:54:25Z</time><name>PT11768</name></trkpt>
<trkpt lat="53.461864" lon="05.864170"><ele>10.7</ele><time>2021-02-18T14:54:26Z</time><name>PT11769</name></trkpt>
<trkpt lat="53.461854" lon="05.864161"><ele>10.9</ele><time>2021-02-18T14:54:27Z</time><name>PT11770</name></trkpt>
<trkpt lat="53.461845" lon="05.864154"><ele>10.9</ele><time>2021-02-18T14:54:28Z</time><name>PT11771</name></trkpt>
<trkpt lat="53.461835" lon="05.864147"><ele>11</ele><time>2021-02-18T14:54:29Z</time><name>PT11772</name></trkpt>
<trkpt lat="53.461827" lon="05.864138"><ele>10.9</ele><time>2021-02-18T14:54:30Z</time><name>PT11773</name></trkpt>
<trkpt lat="53.461818" lon="05.864131"><ele>10.9</ele><time>2021-02-18T14:54:31Z</time><name>PT11774</name></trkpt>
<trkpt lat="53.461811" lon="05.864121"><ele>11.1</ele><time>2021-02-18T14:54:32Z</time><name>PT11775</name></trkpt>
<trkpt lat="53.461801" lon="05.864109"><ele>11.1</ele><time>2021-02-18T14:54:33Z</time><name>PT11776</name></trkpt>
<trkpt lat="53.461791" lon="05.864097"><ele>11.1</ele><time>2021-02-18T14:54:34Z</time><name>PT11777</name></trkpt>
<trkpt lat="53.461783" lon="05.864088"><ele>11.3</ele><time>2021-02-18T14:54:35Z</time><name>PT11778</name></trkpt>
<trkpt lat="53.461775" lon="05.864077"><ele>11.3</ele><time>2021-02-18T14:54:36Z</time><name>PT11779</name></trkpt>
<trkpt lat="53.461767" lon="05.864067"><ele>11.3</ele><time>2021-02-18T14:54:37Z</time><name>PT11780</name></trkpt>
<trkpt lat="53.461759" lon="05.864055"><ele>11.5</ele><time>2021-02-18T14:54:38Z</time><name>PT11781</name></trkpt>
<trkpt lat="53.461751" lon="05.864040"><ele>11.6</ele><time>2021-02-18T14:54:39Z</time><name>PT11782</name></trkpt>
<trkpt lat="53.461743" lon="05.864028"><ele>11.6</ele><time>2021-02-18T14:54:40Z</time><name>PT11783</name></trkpt>
<trkpt lat="53.461735" lon="05.864017"><ele>11.5</ele><time>2021-02-18T14:54:41Z</time><name>PT11784</name></trkpt>
<trkpt lat="53.461727" lon="05.864004"><ele>11.5</ele><time>2021-02-18T14:54:42Z</time><name>PT11785</name></trkpt>
<trkpt lat="53.461720" lon="05.863988"><ele>11.5</ele><time>2021-02-18T14:54:43Z</time><name>PT11786</name></trkpt>
<trkpt lat="53.461715" lon="05.863976"><ele>11.5</ele><time>2021-02-18T14:54:44Z</time><name>PT11787</name></trkpt>
<trkpt lat="53.461710" lon="05.863962"><ele>11.8</ele><time>2021-02-18T14:54:45Z</time><name>PT11788</name></trkpt>
<trkpt lat="53.461705" lon="05.863950"><ele>11.8</ele><time>2021-02-18T14:54:46Z</time><name>PT11789</name></trkpt>
<trkpt lat="53.461698" lon="05.863934"><ele>11.8</ele><time>2021-02-18T14:54:47Z</time><name>PT11790</name></trkpt>
<trkpt lat="53.461692" lon="05.863916"><ele>11.6</ele><time>2021-02-18T14:54:48Z</time><name>PT11791</name></trkpt>
<trkpt lat="53.461686" lon="05.863901"><ele>11.5</ele><time>2021-02-18T14:54:49Z</time><name>PT11792</name></trkpt>
<trkpt lat="53.461681" lon="05.863886"><ele>11.3</ele><time>2021-02-18T14:54:50Z</time><name>PT11793</name></trkpt>
<trkpt lat="53.461676" lon="05.863869"><ele>11.4</ele><time>2021-02-18T14:54:51Z</time><name>PT11794</name></trkpt>
<trkpt lat="53.461672" lon="05.863849"><ele>11.6</ele><time>2021-02-18T14:54:52Z</time><name>PT11795</name></trkpt>
<trkpt lat="53.461669" lon="05.863832"><ele>11.5</ele><time>2021-02-18T14:54:53Z</time><name>PT11796</name></trkpt>
<trkpt lat="53.461665" lon="05.863817"><ele>11.5</ele><time>2021-02-18T14:54:54Z</time><name>PT11797</name></trkpt>
<trkpt lat="53.461662" lon="05.863799"><ele>11.8</ele><time>2021-02-18T14:54:55Z</time><name>PT11798</name></trkpt>
<trkpt lat="53.461660" lon="05.863778"><ele>11.8</ele><time>2021-02-18T14:54:56Z</time><name>PT11799</name></trkpt>
<trkpt lat="53.461660" lon="05.863758"><ele>11.8</ele><time>2021-02-18T14:54:57Z</time><name>PT11800</name></trkpt>
<trkpt lat="53.461662" lon="05.863739"><ele>12.3</ele><time>2021-02-18T14:54:58Z</time><name>PT11801</name></trkpt>
<trkpt lat="53.461665" lon="05.863721"><ele>12.3</ele><time>2021-02-18T14:54:59Z</time><name>PT11802</name></trkpt>
<trkpt lat="53.461665" lon="05.863703"><ele>12.3</ele><time>2021-02-18T14:55:00Z</time><name>PT11803</name></trkpt>
<trkpt lat="53.461664" lon="05.863683"><ele>12.3</ele><time>2021-02-18T14:55:01Z</time><name>PT11804</name></trkpt>
<trkpt lat="53.461664" lon="05.863662"><ele>12.3</ele><time>2021-02-18T14:55:02Z</time><name>PT11805</name></trkpt>
<trkpt lat="53.461664" lon="05.863641"><ele>12</ele><time>2021-02-18T14:55:03Z</time><name>PT11806</name></trkpt>
<trkpt lat="53.461665" lon="05.863623"><ele>12</ele><time>2021-02-18T14:55:04Z</time><name>PT11807</name></trkpt>
<trkpt lat="53.461664" lon="05.863605"><ele>11.9</ele><time>2021-02-18T14:55:05Z</time><name>PT11808</name></trkpt>
<trkpt lat="53.461666" lon="05.863588"><ele>11.9</ele><time>2021-02-18T14:55:06Z</time><name>PT11809</name></trkpt>
<trkpt lat="53.461668" lon="05.863573"><ele>11.9</ele><time>2021-02-18T14:55:07Z</time><name>PT11810</name></trkpt>
<trkpt lat="53.461668" lon="05.863557"><ele>11.8</ele><time>2021-02-18T14:55:08Z</time><name>PT11811</name></trkpt>
<trkpt lat="53.461668" lon="05.863539"><ele>11.7</ele><time>2021-02-18T14:55:09Z</time><name>PT11812</name></trkpt>
<trkpt lat="53.461669" lon="05.863521"><ele>11.6</ele><time>2021-02-18T14:55:10Z</time><name>PT11813</name></trkpt>
<trkpt lat="53.461672" lon="05.863503"><ele>11.5</ele><time>2021-02-18T14:55:11Z</time><name>PT11814</name></trkpt>
<trkpt lat="53.461675" lon="05.863484"><ele>11.5</ele><time>2021-02-18T14:55:12Z</time><name>PT11815</name></trkpt>
<trkpt lat="53.461677" lon="05.863465"><ele>11.4</ele><time>2021-02-18T14:55:13Z</time><name>PT11816</name></trkpt>
<trkpt lat="53.461678" lon="05.863448"><ele>11.6</ele><time>2021-02-18T14:55:14Z</time><name>PT11817</name></trkpt>
<trkpt lat="53.461678" lon="05.863431"><ele>11.4</ele><time>2021-02-18T14:55:15Z</time><name>PT11818</name></trkpt>
<trkpt lat="53.461678" lon="05.863413"><ele>11.5</ele><time>2021-02-18T14:55:16Z</time><name>PT11819</name></trkpt>
<trkpt lat="53.461677" lon="05.863398"><ele>11.6</ele><time>2021-02-18T14:55:17Z</time><name>PT11820</name></trkpt>
<trkpt lat="53.461678" lon="05.863380"><ele>11.6</ele><time>2021-02-18T14:55:18Z</time><name>PT11821</name></trkpt>
<trkpt lat="53.461678" lon="05.863360"><ele>11.8</ele><time>2021-02-18T14:55:19Z</time><name>PT11822</name></trkpt>
<trkpt lat="53.461679" lon="05.863342"><ele>11.8</ele><time>2021-02-18T14:55:20Z</time><name>PT11823</name></trkpt>
<trkpt lat="53.461680" lon="05.863324"><ele>11.8</ele><time>2021-02-18T14:55:21Z</time><name>PT11824</name></trkpt>
<trkpt lat="53.461681" lon="05.863307"><ele>11.9</ele><time>2021-02-18T14:55:22Z</time><name>PT11825</name></trkpt>
<trkpt lat="53.461681" lon="05.863290"><ele>12.1</ele><time>2021-02-18T14:55:23Z</time><name>PT11826</name></trkpt>
<trkpt lat="53.461681" lon="05.863273"><ele>12.3</ele><time>2021-02-18T14:55:24Z</time><name>PT11827</name></trkpt>
<trkpt lat="53.461680" lon="05.863257"><ele>12.3</ele><time>2021-02-18T14:55:25Z</time><name>PT11828</name></trkpt>
<trkpt lat="53.461681" lon="05.863242"><ele>12.3</ele><time>2021-02-18T14:55:26Z</time><name>PT11829</name></trkpt>
<trkpt lat="53.461681" lon="05.863227"><ele>12.3</ele><time>2021-02-18T14:55:27Z</time><name>PT11830</name></trkpt>
<trkpt lat="53.461684" lon="05.863210"><ele>12.3</ele><time>2021-02-18T14:55:28Z</time><name>PT11831</name></trkpt>
<trkpt lat="53.461686" lon="05.863194"><ele>12.3</ele><time>2021-02-18T14:55:29Z</time><name>PT11832</name></trkpt>
<trkpt lat="53.461686" lon="05.863178"><ele>12.5</ele><time>2021-02-18T14:55:30Z</time><name>PT11833</name></trkpt>
<trkpt lat="53.461685" lon="05.863162"><ele>12.6</ele><time>2021-02-18T14:55:31Z</time><name>PT11834</name></trkpt>
<trkpt lat="53.461685" lon="05.863149"><ele>12.6</ele><time>2021-02-18T14:55:32Z</time><name>PT11835</name></trkpt>
<trkpt lat="53.461687" lon="05.863138"><ele>12.7</ele><time>2021-02-18T14:55:33Z</time><name>PT11836</name></trkpt>
<trkpt lat="53.461686" lon="05.863126"><ele>12.8</ele><time>2021-02-18T14:55:34Z</time><name>PT11837</name></trkpt>
<trkpt lat="53.461683" lon="05.863109"><ele>12.8</ele><time>2021-02-18T14:55:35Z</time><name>PT11838</name></trkpt>
<trkpt lat="53.461681" lon="05.863098"><ele>13</ele><time>2021-02-18T14:55:36Z</time><name>PT11839</name></trkpt>
<trkpt lat="53.461681" lon="05.863087"><ele>13.2</ele><time>2021-02-18T14:55:37Z</time><name>PT11840</name></trkpt>
<trkpt lat="53.461679" lon="05.863078"><ele>13.2</ele><time>2021-02-18T14:55:38Z</time><name>PT11841</name></trkpt>
<trkpt lat="53.461677" lon="05.863071"><ele>13.4</ele><time>2021-02-18T14:55:39Z</time><name>PT11842</name></trkpt>
<trkpt lat="53.461677" lon="05.863063"><ele>13.4</ele><time>2021-02-18T14:55:40Z</time><name>PT11843</name></trkpt>
<trkpt lat="53.461675" lon="05.863048"><ele>13.2</ele><time>2021-02-18T14:55:41Z</time><name>PT11844</name></trkpt>
<trkpt lat="53.461675" lon="05.863039"><ele>13.3</ele><time>2021-02-18T14:55:42Z</time><name>PT11845</name></trkpt>
<trkpt lat="53.461677" lon="05.863031"><ele>13.1</ele><time>2021-02-18T14:55:43Z</time><name>PT11846</name></trkpt>
<trkpt lat="53.461679" lon="05.863026"><ele>13.2</ele><time>2021-02-18T14:55:44Z</time><name>PT11847</name></trkpt>
<trkpt lat="53.461674" lon="05.863015"><ele>13</ele><time>2021-02-18T14:55:45Z</time><name>PT11848</name></trkpt>
<trkpt lat="53.461670" lon="05.863008"><ele>13.1</ele><time>2021-02-18T14:55:46Z</time><name>PT11849</name></trkpt>
<trkpt lat="53.461667" lon="05.863004"><ele>13.1</ele><time>2021-02-18T14:55:47Z</time><name>PT11850</name></trkpt>
<trkpt lat="53.461666" lon="05.862988"><ele>12.9</ele><time>2021-02-18T14:57:01Z</time><name>PT11851</name></trkpt>
<trkpt lat="53.461666" lon="05.862966"><ele>13</ele><time>2021-02-18T14:57:02Z</time><name>PT11852</name></trkpt>
<trkpt lat="53.461665" lon="05.862950"><ele>12.8</ele><time>2021-02-18T14:57:03Z</time><name>PT11853</name></trkpt>
<trkpt lat="53.461665" lon="05.862932"><ele>12.6</ele><time>2021-02-18T14:57:04Z</time><name>PT11854</name></trkpt>
<trkpt lat="53.461665" lon="05.862917"><ele>12.7</ele><time>2021-02-18T14:57:05Z</time><name>PT11855</name></trkpt>
<trkpt lat="53.461662" lon="05.862903"><ele>12.6</ele><time>2021-02-18T14:57:06Z</time><name>PT11856</name></trkpt>
<trkpt lat="53.461658" lon="05.862894"><ele>12.8</ele><time>2021-02-18T14:57:07Z</time><name>PT11857</name></trkpt>
<trkpt lat="53.461656" lon="05.862883"><ele>12.8</ele><time>2021-02-18T14:57:08Z</time><name>PT11858</name></trkpt>
<trkpt lat="53.461654" lon="05.862870"><ele>12.8</ele><time>2021-02-18T14:57:09Z</time><name>PT11859</name></trkpt>
<trkpt lat="53.461652" lon="05.862858"><ele>12.8</ele><time>2021-02-18T14:57:10Z</time><name>PT11860</name></trkpt>
<trkpt lat="53.461649" lon="05.862845"><ele>12.8</ele><time>2021-02-18T14:57:11Z</time><name>PT11861</name></trkpt>
<trkpt lat="53.461645" lon="05.862827"><ele>12.7</ele><time>2021-02-18T14:57:12Z</time><name>PT11862</name></trkpt>
<trkpt lat="53.461640" lon="05.862814"><ele>12.5</ele><time>2021-02-18T14:57:13Z</time><name>PT11863</name></trkpt>
<trkpt lat="53.461635" lon="05.862803"><ele>12.6</ele><time>2021-02-18T14:57:14Z</time><name>PT11864</name></trkpt>
<trkpt lat="53.461629" lon="05.862795"><ele>12.4</ele><time>2021-02-18T14:57:15Z</time><name>PT11865</name></trkpt>
<trkpt lat="53.461623" lon="05.862783"><ele>12.3</ele><time>2021-02-18T14:57:16Z</time><name>PT11866</name></trkpt>
<trkpt lat="53.461620" lon="05.862768"><ele>12.3</ele><time>2021-02-18T14:57:17Z</time><name>PT11867</name></trkpt>
<trkpt lat="53.461615" lon="05.862753"><ele>12.3</ele><time>2021-02-18T14:57:18Z</time><name>PT11868</name></trkpt>
<trkpt lat="53.461609" lon="05.862738"><ele>12.3</ele><time>2021-02-18T14:57:19Z</time><name>PT11869</name></trkpt>
<trkpt lat="53.461605" lon="05.862722"><ele>12.3</ele><time>2021-02-18T14:57:20Z</time><name>PT11870</name></trkpt>
<trkpt lat="53.461602" lon="05.862708"><ele>12.3</ele><time>2021-02-18T14:57:21Z</time><name>PT11871</name></trkpt>
<trkpt lat="53.461598" lon="05.862695"><ele>12.5</ele><time>2021-02-18T14:57:22Z</time><name>PT11872</name></trkpt>
<trkpt lat="53.461593" lon="05.862681"><ele>12.6</ele><time>2021-02-18T14:57:23Z</time><name>PT11873</name></trkpt>
<trkpt lat="53.461590" lon="05.862667"><ele>12.7</ele><time>2021-02-18T14:57:24Z</time><name>PT11874</name></trkpt>
<trkpt lat="53.461587" lon="05.862652"><ele>12.7</ele><time>2021-02-18T14:57:25Z</time><name>PT11875</name></trkpt>
<trkpt lat="53.461583" lon="05.862639"><ele>12.8</ele><time>2021-02-18T14:57:26Z</time><name>PT11876</name></trkpt>
<trkpt lat="53.461578" lon="05.862624"><ele>12.8</ele><time>2021-02-18T14:57:27Z</time><name>PT11877</name></trkpt>
<trkpt lat="53.461576" lon="05.862610"><ele>12.8</ele><time>2021-02-18T14:57:28Z</time><name>PT11878</name></trkpt>
<trkpt lat="53.461572" lon="05.862596"><ele>12.6</ele><time>2021-02-18T14:57:29Z</time><name>PT11879</name></trkpt>
<trkpt lat="53.461571" lon="05.862580"><ele>12.6</ele><time>2021-02-18T14:57:30Z</time><name>PT11880</name></trkpt>
<trkpt lat="53.461572" lon="05.862563"><ele>12.6</ele><time>2021-02-18T14:57:31Z</time><name>PT11881</name></trkpt>
<trkpt lat="53.461571" lon="05.862554"><ele>12.5</ele><time>2021-02-18T14:57:32Z</time><name>PT11882</name></trkpt>
<trkpt lat="53.461572" lon="05.862551"><ele>12.5</ele><time>2021-02-18T14:57:33Z</time><name>PT11883</name></trkpt>
<trkpt lat="53.461572" lon="05.862553"><ele>12.6</ele><time>2021-02-18T14:57:34Z</time><name>PT11884</name></trkpt>
<trkpt lat="53.461571" lon="05.862553"><ele>12.5</ele><time>2021-02-18T14:57:35Z</time><name>PT11885</name></trkpt>
<trkpt lat="53.461570" lon="05.862547"><ele>12.5</ele><time>2021-02-18T14:57:38Z</time><name>PT11886</name></trkpt>
<trkpt lat="53.461564" lon="05.862533"><ele>12.6</ele><time>2021-02-18T14:57:39Z</time><name>PT11887</name></trkpt>
<trkpt lat="53.461558" lon="05.862517"><ele>12.5</ele><time>2021-02-18T14:57:40Z</time><name>PT11888</name></trkpt>
<trkpt lat="53.461555" lon="05.862501"><ele>12.6</ele><time>2021-02-18T14:57:41Z</time><name>PT11889</name></trkpt>
<trkpt lat="53.461552" lon="05.862488"><ele>12.6</ele><time>2021-02-18T14:57:42Z</time><name>PT11890</name></trkpt>
<trkpt lat="53.461551" lon="05.862470"><ele>12.5</ele><time>2021-02-18T14:57:43Z</time><name>PT11891</name></trkpt>
<trkpt lat="53.461548" lon="05.862453"><ele>12.3</ele><time>2021-02-18T14:57:44Z</time><name>PT11892</name></trkpt>
<trkpt lat="53.461544" lon="05.862434"><ele>12.1</ele><time>2021-02-18T14:57:45Z</time><name>PT11893</name></trkpt>
<trkpt lat="53.461540" lon="05.862415"><ele>11.8</ele><time>2021-02-18T14:57:46Z</time><name>PT11894</name></trkpt>
<trkpt lat="53.461535" lon="05.862397"><ele>11.8</ele><time>2021-02-18T14:57:47Z</time><name>PT11895</name></trkpt>
<trkpt lat="53.461528" lon="05.862383"><ele>11.8</ele><time>2021-02-18T14:57:48Z</time><name>PT11896</name></trkpt>
<trkpt lat="53.461521" lon="05.862373"><ele>12.1</ele><time>2021-02-18T14:57:49Z</time><name>PT11897</name></trkpt>
<trkpt lat="53.461514" lon="05.862363"><ele>12.2</ele><time>2021-02-18T14:57:50Z</time><name>PT11898</name></trkpt>
<trkpt lat="53.461507" lon="05.862357"><ele>12.2</ele><time>2021-02-18T14:57:51Z</time><name>PT11899</name></trkpt>
<trkpt lat="53.461498" lon="05.862351"><ele>12.3</ele><time>2021-02-18T14:57:52Z</time><name>PT11900</name></trkpt>
<trkpt lat="53.461493" lon="05.862343"><ele>12.3</ele><time>2021-02-18T14:57:53Z</time><name>PT11901</name></trkpt>
<trkpt lat="53.461487" lon="05.862336"><ele>12.4</ele><time>2021-02-18T14:57:54Z</time><name>PT11902</name></trkpt>
<trkpt lat="53.461479" lon="05.862329"><ele>12.3</ele><time>2021-02-18T14:57:55Z</time><name>PT11903</name></trkpt>
<trkpt lat="53.461472" lon="05.862325"><ele>12.2</ele><time>2021-02-18T14:57:56Z</time><name>PT11904</name></trkpt>
<trkpt lat="53.461468" lon="05.862318"><ele>12</ele><time>2021-02-18T14:57:57Z</time><name>PT11905</name></trkpt>
<trkpt lat="53.461464" lon="05.862311"><ele>12</ele><time>2021-02-18T14:57:58Z</time><name>PT11906</name></trkpt>
<trkpt lat="53.461458" lon="05.862307"><ele>12.1</ele><time>2021-02-18T14:57:59Z</time><name>PT11907</name></trkpt>
<trkpt lat="53.461451" lon="05.862301"><ele>12.4</ele><time>2021-02-18T14:58:00Z</time><name>PT11908</name></trkpt>
<trkpt lat="53.461443" lon="05.862297"><ele>12.4</ele><time>2021-02-18T14:58:01Z</time><name>PT11909</name></trkpt>
<trkpt lat="53.461437" lon="05.862292"><ele>12.3</ele><time>2021-02-18T14:58:02Z</time><name>PT11910</name></trkpt>
<trkpt lat="53.461429" lon="05.862285"><ele>12.4</ele><time>2021-02-18T14:58:03Z</time><name>PT11911</name></trkpt>
<trkpt lat="53.461420" lon="05.862278"><ele>12</ele><time>2021-02-18T14:58:04Z</time><name>PT11912</name></trkpt>
<trkpt lat="53.461411" lon="05.862271"><ele>11.8</ele><time>2021-02-18T14:58:05Z</time><name>PT11913</name></trkpt>
<trkpt lat="53.461405" lon="05.862265"><ele>12.2</ele><time>2021-02-18T14:58:06Z</time><name>PT11914</name></trkpt>
<trkpt lat="53.461402" lon="05.862259"><ele>12.2</ele><time>2021-02-18T14:58:07Z</time><name>PT11915</name></trkpt>
<trkpt lat="53.461398" lon="05.862253"><ele>12.4</ele><time>2021-02-18T14:58:08Z</time><name>PT11916</name></trkpt>
<trkpt lat="53.461392" lon="05.862251"><ele>12.8</ele><time>2021-02-18T14:58:09Z</time><name>PT11917</name></trkpt>
<trkpt lat="53.461385" lon="05.862247"><ele>12.9</ele><time>2021-02-18T14:58:10Z</time><name>PT11918</name></trkpt>
<trkpt lat="53.461379" lon="05.862242"><ele>12.9</ele><time>2021-02-18T14:58:11Z</time><name>PT11919</name></trkpt>
<trkpt lat="53.461373" lon="05.862234"><ele>12.8</ele><time>2021-02-18T14:58:12Z</time><name>PT11920</name></trkpt>
<trkpt lat="53.461367" lon="05.862225"><ele>12.7</ele><time>2021-02-18T14:58:13Z</time><name>PT11921</name></trkpt>
<trkpt lat="53.461363" lon="05.862218"><ele>12.9</ele><time>2021-02-18T14:58:14Z</time><name>PT11922</name></trkpt>
<trkpt lat="53.461355" lon="05.862205"><ele>12.8</ele><time>2021-02-18T14:58:15Z</time><name>PT11923</name></trkpt>
<trkpt lat="53.461351" lon="05.862192"><ele>12.4</ele><time>2021-02-18T14:58:16Z</time><name>PT11924</name></trkpt>
<trkpt lat="53.461343" lon="05.862179"><ele>12.7</ele><time>2021-02-18T14:58:17Z</time><name>PT11925</name></trkpt>
<trkpt lat="53.461343" lon="05.862179"><ele>12.6</ele><time>2021-02-18T14:58:18Z</time><name>PT11926</name></trkpt>
<trkpt lat="53.461343" lon="05.862178"><ele>12.6</ele><time>2021-02-18T14:58:19Z</time><name>PT11927</name></trkpt>
<trkpt lat="53.461342" lon="05.862178"><ele>12.8</ele><time>2021-02-18T14:58:20Z</time><name>PT11928</name></trkpt>
<trkpt lat="53.461343" lon="05.862168"><ele>12.8</ele><time>2021-02-18T14:58:24Z</time><name>PT11929</name></trkpt>
<trkpt lat="53.461337" lon="05.862156"><ele>12.9</ele><time>2021-02-18T14:58:25Z</time><name>PT11930</name></trkpt>
<trkpt lat="53.461332" lon="05.862149"><ele>12.9</ele><time>2021-02-18T14:58:26Z</time><name>PT11931</name></trkpt>
<trkpt lat="53.461327" lon="05.862146"><ele>12.9</ele><time>2021-02-18T14:58:27Z</time><name>PT11932</name></trkpt>
<trkpt lat="53.461321" lon="05.862145"><ele>12.8</ele><time>2021-02-18T14:58:28Z</time><name>PT11933</name></trkpt>
<trkpt lat="53.461317" lon="05.862139"><ele>12.5</ele><time>2021-02-18T14:58:29Z</time><name>PT11934</name></trkpt>
<trkpt lat="53.461312" lon="05.862132"><ele>12.5</ele><time>2021-02-18T14:58:30Z</time><name>PT11935</name></trkpt>
<trkpt lat="53.461309" lon="05.862126"><ele>12.5</ele><time>2021-02-18T14:58:31Z</time><name>PT11936</name></trkpt>
<trkpt lat="53.461305" lon="05.862119"><ele>12.5</ele><time>2021-02-18T14:58:32Z</time><name>PT11937</name></trkpt>
<trkpt lat="53.461302" lon="05.862108"><ele>12.5</ele><time>2021-02-18T14:58:33Z</time><name>PT11938</name></trkpt>
<trkpt lat="53.461299" lon="05.862097"><ele>12.6</ele><time>2021-02-18T14:58:34Z</time><name>PT11939</name></trkpt>
<trkpt lat="53.461296" lon="05.862088"><ele>12.6</ele><time>2021-02-18T14:58:35Z</time><name>PT11940</name></trkpt>
<trkpt lat="53.461293" lon="05.862082"><ele>12.5</ele><time>2021-02-18T14:58:36Z</time><name>PT11941</name></trkpt>
<trkpt lat="53.461294" lon="05.862079"><ele>12.4</ele><time>2021-02-18T14:58:37Z</time><name>PT11942</name></trkpt>
<trkpt lat="53.461293" lon="05.862078"><ele>12.4</ele><time>2021-02-18T14:58:38Z</time><name>PT11943</name></trkpt>
<trkpt lat="53.461292" lon="05.862077"><ele>12.5</ele><time>2021-02-18T14:58:39Z</time><name>PT11944</name></trkpt>
<trkpt lat="53.461292" lon="05.862066"><ele>13.1</ele><time>2021-02-18T14:59:09Z</time><name>PT11945</name></trkpt>
<trkpt lat="53.461291" lon="05.862057"><ele>13.1</ele><time>2021-02-18T14:59:10Z</time><name>PT11946</name></trkpt>
<trkpt lat="53.461293" lon="05.862054"><ele>12.8</ele><time>2021-02-18T14:59:11Z</time><name>PT11947</name></trkpt>
<trkpt lat="53.461293" lon="05.862050"><ele>12.6</ele><time>2021-02-18T14:59:12Z</time><name>PT11948</name></trkpt>
<trkpt lat="53.461291" lon="05.862050"><ele>12.3</ele><time>2021-02-18T14:59:13Z</time><name>PT11949</name></trkpt>
<trkpt lat="53.461291" lon="05.862049"><ele>12.3</ele><time>2021-02-18T14:59:14Z</time><name>PT11950</name></trkpt>
<trkpt lat="53.461290" lon="05.862048"><ele>12.3</ele><time>2021-02-18T14:59:15Z</time><name>PT11951</name></trkpt>
<trkpt lat="53.461287" lon="05.862043"><ele>12.8</ele><time>2021-02-18T15:01:49Z</time><name>PT11952</name></trkpt>
<trkpt lat="53.461281" lon="05.862033"><ele>12.8</ele><time>2021-02-18T15:01:50Z</time><name>PT11953</name></trkpt>
<trkpt lat="53.461276" lon="05.862026"><ele>12.7</ele><time>2021-02-18T15:01:51Z</time><name>PT11954</name></trkpt>
<trkpt lat="53.461273" lon="05.862019"><ele>12.5</ele><time>2021-02-18T15:01:52Z</time><name>PT11955</name></trkpt>
<trkpt lat="53.461272" lon="05.862020"><ele>12.4</ele><time>2021-02-18T15:01:53Z</time><name>PT11956</name></trkpt>
<trkpt lat="53.461272" lon="05.862021"><ele>12.4</ele><time>2021-02-18T15:01:54Z</time><name>PT11957</name></trkpt>
<trkpt lat="53.461272" lon="05.862021"><ele>12.7</ele><time>2021-02-18T15:01:55Z</time><name>PT11958</name></trkpt>
<trkpt lat="53.461269" lon="05.862020"><ele>12.8</ele><time>2021-02-18T15:02:00Z</time><name>PT11959</name></trkpt>
<trkpt lat="53.461266" lon="05.862018"><ele>12.7</ele><time>2021-02-18T15:02:01Z</time><name>PT11960</name></trkpt>
<trkpt lat="53.461264" lon="05.862013"><ele>12.7</ele><time>2021-02-18T15:02:02Z</time><name>PT11961</name></trkpt>
<trkpt lat="53.461261" lon="05.862004"><ele>12.4</ele><time>2021-02-18T15:02:03Z</time><name>PT11962</name></trkpt>
<trkpt lat="53.461257" lon="05.861996"><ele>12.4</ele><time>2021-02-18T15:02:04Z</time><name>PT11963</name></trkpt>
<trkpt lat="53.461254" lon="05.861993"><ele>12.6</ele><time>2021-02-18T15:02:05Z</time><name>PT11964</name></trkpt>
<trkpt lat="53.461250" lon="05.861996"><ele>12.5</ele><time>2021-02-18T15:02:06Z</time><name>PT11965</name></trkpt>
<trkpt lat="53.461245" lon="05.861999"><ele>12.4</ele><time>2021-02-18T15:02:07Z</time><name>PT11966</name></trkpt>
<trkpt lat="53.461243" lon="05.862001"><ele>12.4</ele><time>2021-02-18T15:02:08Z</time><name>PT11967</name></trkpt>
<trkpt lat="53.461243" lon="05.862003"><ele>12.5</ele><time>2021-02-18T15:02:09Z</time><name>PT11968</name></trkpt>
<trkpt lat="53.461244" lon="05.862003"><ele>12.3</ele><time>2021-02-18T15:02:10Z</time><name>PT11969</name></trkpt>
<trkpt lat="53.461247" lon="05.861997"><ele>12.7</ele><time>2021-02-18T15:02:14Z</time><name>PT11970</name></trkpt>
<trkpt lat="53.461244" lon="05.861986"><ele>12.8</ele><time>2021-02-18T15:02:15Z</time><name>PT11971</name></trkpt>
<trkpt lat="53.461240" lon="05.861973"><ele>12.9</ele><time>2021-02-18T15:02:16Z</time><name>PT11972</name></trkpt>
<trkpt lat="53.461237" lon="05.861964"><ele>12.9</ele><time>2021-02-18T15:02:17Z</time><name>PT11973</name></trkpt>
<trkpt lat="53.461237" lon="05.861954"><ele>12.9</ele><time>2021-02-18T15:02:18Z</time><name>PT11974</name></trkpt>
<trkpt lat="53.461234" lon="05.861947"><ele>12.9</ele><time>2021-02-18T15:02:19Z</time><name>PT11975</name></trkpt>
<trkpt lat="53.461230" lon="05.861941"><ele>12.9</ele><time>2021-02-18T15:02:20Z</time><name>PT11976</name></trkpt>
<trkpt lat="53.461225" lon="05.861937"><ele>13</ele><time>2021-02-18T15:02:21Z</time><name>PT11977</name></trkpt>
<trkpt lat="53.461222" lon="05.861932"><ele>13.1</ele><time>2021-02-18T15:02:22Z</time><name>PT11978</name></trkpt>
<trkpt lat="53.461218" lon="05.861925"><ele>13.1</ele><time>2021-02-18T15:02:23Z</time><name>PT11979</name></trkpt>
<trkpt lat="53.461214" lon="05.861915"><ele>13.2</ele><time>2021-02-18T15:02:24Z</time><name>PT11980</name></trkpt>
<trkpt lat="53.461213" lon="05.861904"><ele>13.3</ele><time>2021-02-18T15:02:25Z</time><name>PT11981</name></trkpt>
<trkpt lat="53.461215" lon="05.861891"><ele>13.3</ele><time>2021-02-18T15:02:26Z</time><name>PT11982</name></trkpt>
<trkpt lat="53.461217" lon="05.861876"><ele>13.2</ele><time>2021-02-18T15:02:27Z</time><name>PT11983</name></trkpt>
<trkpt lat="53.461217" lon="05.861863"><ele>13.3</ele><time>2021-02-18T15:02:28Z</time><name>PT11984</name></trkpt>
<trkpt lat="53.461218" lon="05.861850"><ele>13.3</ele><time>2021-02-18T15:02:29Z</time><name>PT11985</name></trkpt>
<trkpt lat="53.461220" lon="05.861835"><ele>13.2</ele><time>2021-02-18T15:02:30Z</time><name>PT11986</name></trkpt>
<trkpt lat="53.461221" lon="05.861821"><ele>13.2</ele><time>2021-02-18T15:02:31Z</time><name>PT11987</name></trkpt>
<trkpt lat="53.461221" lon="05.861806"><ele>13.2</ele><time>2021-02-18T15:02:32Z</time><name>PT11988</name></trkpt>
<trkpt lat="53.461221" lon="05.861793"><ele>13</ele><time>2021-02-18T15:02:33Z</time><name>PT11989</name></trkpt>
<trkpt lat="53.461222" lon="05.861779"><ele>13</ele><time>2021-02-18T15:02:34Z</time><name>PT11990</name></trkpt>
<trkpt lat="53.461223" lon="05.861764"><ele>13.1</ele><time>2021-02-18T15:02:35Z</time><name>PT11991</name></trkpt>
<trkpt lat="53.461224" lon="05.861749"><ele>13.2</ele><time>2021-02-18T15:02:36Z</time><name>PT11992</name></trkpt>
<trkpt lat="53.461224" lon="05.861732"><ele>13.1</ele><time>2021-02-18T15:02:37Z</time><name>PT11993</name></trkpt>
<trkpt lat="53.461223" lon="05.861716"><ele>13</ele><time>2021-02-18T15:02:38Z</time><name>PT11994</name></trkpt>
<trkpt lat="53.461222" lon="05.861700"><ele>13.1</ele><time>2021-02-18T15:02:39Z</time><name>PT11995</name></trkpt>
<trkpt lat="53.461222" lon="05.861683"><ele>13</ele><time>2021-02-18T15:02:40Z</time><name>PT11996</name></trkpt>
<trkpt lat="53.461226" lon="05.861666"><ele>13</ele><time>2021-02-18T15:02:41Z</time><name>PT11997</name></trkpt>
<trkpt lat="53.461227" lon="05.861652"><ele>13.2</ele><time>2021-02-18T15:02:42Z</time><name>PT11998</name></trkpt>
<trkpt lat="53.461225" lon="05.861637"><ele>13.2</ele><time>2021-02-18T15:02:43Z</time><name>PT11999</name></trkpt>
<trkpt lat="53.461223" lon="05.861621"><ele>13.2</ele><time>2021-02-18T15:02:44Z</time><name>PT12000</name></trkpt>
<trkpt lat="53.461221" lon="05.861604"><ele>13.1</ele><time>2021-02-18T15:02:45Z</time><name>PT12001</name></trkpt>
<trkpt lat="53.461220" lon="05.861588"><ele>13.1</ele><time>2021-02-18T15:02:46Z</time><name>PT12002</name></trkpt>
<trkpt lat="53.461221" lon="05.861571"><ele>13.1</ele><time>2021-02-18T15:02:47Z</time><name>PT12003</name></trkpt>
<trkpt lat="53.461223" lon="05.861552"><ele>13.1</ele><time>2021-02-18T15:02:48Z</time><name>PT12004</name></trkpt>
<trkpt lat="53.461225" lon="05.861534"><ele>13.1</ele><time>2021-02-18T15:02:49Z</time><name>PT12005</name></trkpt>
<trkpt lat="53.461227" lon="05.861515"><ele>13.2</ele><time>2021-02-18T15:02:50Z</time><name>PT12006</name></trkpt>
<trkpt lat="53.461230" lon="05.861495"><ele>13.3</ele><time>2021-02-18T15:02:51Z</time><name>PT12007</name></trkpt>
<trkpt lat="53.461231" lon="05.861475"><ele>13.4</ele><time>2021-02-18T15:02:52Z</time><name>PT12008</name></trkpt>
<trkpt lat="53.461230" lon="05.861455"><ele>13.4</ele><time>2021-02-18T15:02:53Z</time><name>PT12009</name></trkpt>
<trkpt lat="53.461229" lon="05.861437"><ele>13.6</ele><time>2021-02-18T15:02:54Z</time><name>PT12010</name></trkpt>
<trkpt lat="53.461230" lon="05.861422"><ele>13.6</ele><time>2021-02-18T15:02:55Z</time><name>PT12011</name></trkpt>
<trkpt lat="53.461231" lon="05.861405"><ele>13.6</ele><time>2021-02-18T15:02:56Z</time><name>PT12012</name></trkpt>
<trkpt lat="53.461232" lon="05.861385"><ele>13.5</ele><time>2021-02-18T15:02:57Z</time><name>PT12013</name></trkpt>
<trkpt lat="53.461232" lon="05.861365"><ele>13.5</ele><time>2021-02-18T15:02:58Z</time><name>PT12014</name></trkpt>
<trkpt lat="53.461234" lon="05.861346"><ele>13.5</ele><time>2021-02-18T15:02:59Z</time><name>PT12015</name></trkpt>
<trkpt lat="53.461233" lon="05.861327"><ele>13.4</ele><time>2021-02-18T15:03:00Z</time><name>PT12016</name></trkpt>
<trkpt lat="53.461233" lon="05.861309"><ele>13.4</ele><time>2021-02-18T15:03:01Z</time><name>PT12017</name></trkpt>
<trkpt lat="53.461231" lon="05.861291"><ele>13.4</ele><time>2021-02-18T15:03:02Z</time><name>PT12018</name></trkpt>
<trkpt lat="53.461230" lon="05.861273"><ele>13.5</ele><time>2021-02-18T15:03:03Z</time><name>PT12019</name></trkpt>
<trkpt lat="53.461230" lon="05.861255"><ele>13.5</ele><time>2021-02-18T15:03:04Z</time><name>PT12020</name></trkpt>
<trkpt lat="53.461231" lon="05.861237"><ele>13.5</ele><time>2021-02-18T15:03:05Z</time><name>PT12021</name></trkpt>
<trkpt lat="53.461232" lon="05.861220"><ele>13.5</ele><time>2021-02-18T15:03:06Z</time><name>PT12022</name></trkpt>
<trkpt lat="53.461234" lon="05.861200"><ele>13.5</ele><time>2021-02-18T15:03:07Z</time><name>PT12023</name></trkpt>
<trkpt lat="53.461236" lon="05.861179"><ele>13.5</ele><time>2021-02-18T15:03:08Z</time><name>PT12024</name></trkpt>
<trkpt lat="53.461237" lon="05.861158"><ele>13.4</ele><time>2021-02-18T15:03:09Z</time><name>PT12025</name></trkpt>
<trkpt lat="53.461238" lon="05.861138"><ele>13.4</ele><time>2021-02-18T15:03:10Z</time><name>PT12026</name></trkpt>
<trkpt lat="53.461240" lon="05.861119"><ele>13.3</ele><time>2021-02-18T15:03:11Z</time><name>PT12027</name></trkpt>
<trkpt lat="53.461240" lon="05.861099"><ele>13.3</ele><time>2021-02-18T15:03:12Z</time><name>PT12028</name></trkpt>
<trkpt lat="53.461240" lon="05.861079"><ele>13.1</ele><time>2021-02-18T15:03:13Z</time><name>PT12029</name></trkpt>
<trkpt lat="53.461240" lon="05.861060"><ele>13.3</ele><time>2021-02-18T15:03:14Z</time><name>PT12030</name></trkpt>
<trkpt lat="53.461240" lon="05.861041"><ele>13.3</ele><time>2021-02-18T15:03:15Z</time><name>PT12031</name></trkpt>
<trkpt lat="53.461239" lon="05.861020"><ele>13.5</ele><time>2021-02-18T15:03:16Z</time><name>PT12032</name></trkpt>
<trkpt lat="53.461239" lon="05.861000"><ele>13.4</ele><time>2021-02-18T15:03:17Z</time><name>PT12033</name></trkpt>
<trkpt lat="53.461240" lon="05.860979"><ele>13.5</ele><time>2021-02-18T15:03:18Z</time><name>PT12034</name></trkpt>
<trkpt lat="53.461240" lon="05.860960"><ele>13.5</ele><time>2021-02-18T15:03:19Z</time><name>PT12035</name></trkpt>
<trkpt lat="53.461241" lon="05.860942"><ele>13.4</ele><time>2021-02-18T15:03:20Z</time><name>PT12036</name></trkpt>
<trkpt lat="53.461241" lon="05.860926"><ele>13.4</ele><time>2021-02-18T15:03:21Z</time><name>PT12037</name></trkpt>
<trkpt lat="53.461242" lon="05.860909"><ele>13.3</ele><time>2021-02-18T15:03:22Z</time><name>PT12038</name></trkpt>
<trkpt lat="53.461244" lon="05.860890"><ele>13.3</ele><time>2021-02-18T15:03:23Z</time><name>PT12039</name></trkpt>
<trkpt lat="53.461246" lon="05.860870"><ele>13.3</ele><time>2021-02-18T15:03:24Z</time><name>PT12040</name></trkpt>
<trkpt lat="53.461248" lon="05.860849"><ele>13.3</ele><time>2021-02-18T15:03:25Z</time><name>PT12041</name></trkpt>
<trkpt lat="53.461247" lon="05.860827"><ele>13.2</ele><time>2021-02-18T15:03:26Z</time><name>PT12042</name></trkpt>
<trkpt lat="53.461248" lon="05.860805"><ele>13.4</ele><time>2021-02-18T15:03:27Z</time><name>PT12043</name></trkpt>
<trkpt lat="53.461250" lon="05.860784"><ele>13.5</ele><time>2021-02-18T15:03:28Z</time><name>PT12044</name></trkpt>
<trkpt lat="53.461250" lon="05.860763"><ele>13.4</ele><time>2021-02-18T15:03:29Z</time><name>PT12045</name></trkpt>
<trkpt lat="53.461250" lon="05.860742"><ele>13.3</ele><time>2021-02-18T15:03:30Z</time><name>PT12046</name></trkpt>
<trkpt lat="53.461250" lon="05.860721"><ele>13.3</ele><time>2021-02-18T15:03:31Z</time><name>PT12047</name></trkpt>
<trkpt lat="53.461250" lon="05.860701"><ele>13.2</ele><time>2021-02-18T15:03:32Z</time><name>PT12048</name></trkpt>
<trkpt lat="53.461249" lon="05.860684"><ele>13</ele><time>2021-02-18T15:03:33Z</time><name>PT12049</name></trkpt>
<trkpt lat="53.461251" lon="05.860667"><ele>12.9</ele><time>2021-02-18T15:03:34Z</time><name>PT12050</name></trkpt>
<trkpt lat="53.461252" lon="05.860650"><ele>12.9</ele><time>2021-02-18T15:03:35Z</time><name>PT12051</name></trkpt>
<trkpt lat="53.461252" lon="05.860631"><ele>13.1</ele><time>2021-02-18T15:03:36Z</time><name>PT12052</name></trkpt>
<trkpt lat="53.461253" lon="05.860611"><ele>13.1</ele><time>2021-02-18T15:03:37Z</time><name>PT12053</name></trkpt>
<trkpt lat="53.461255" lon="05.860590"><ele>13</ele><time>2021-02-18T15:03:38Z</time><name>PT12054</name></trkpt>
<trkpt lat="53.461255" lon="05.860569"><ele>12.9</ele><time>2021-02-18T15:03:39Z</time><name>PT12055</name></trkpt>
<trkpt lat="53.461256" lon="05.860549"><ele>12.8</ele><time>2021-02-18T15:03:40Z</time><name>PT12056</name></trkpt>
<trkpt lat="53.461257" lon="05.860529"><ele>12.8</ele><time>2021-02-18T15:03:41Z</time><name>PT12057</name></trkpt>
<trkpt lat="53.461258" lon="05.860510"><ele>12.8</ele><time>2021-02-18T15:03:42Z</time><name>PT12058</name></trkpt>
<trkpt lat="53.461258" lon="05.860491"><ele>12.8</ele><time>2021-02-18T15:03:43Z</time><name>PT12059</name></trkpt>
<trkpt lat="53.461259" lon="05.860472"><ele>12.8</ele><time>2021-02-18T15:03:44Z</time><name>PT12060</name></trkpt>
<trkpt lat="53.461259" lon="05.860454"><ele>12.8</ele><time>2021-02-18T15:03:45Z</time><name>PT12061</name></trkpt>
<trkpt lat="53.461258" lon="05.860435"><ele>12.5</ele><time>2021-02-18T15:03:46Z</time><name>PT12062</name></trkpt>
<trkpt lat="53.461258" lon="05.860416"><ele>12.4</ele><time>2021-02-18T15:03:47Z</time><name>PT12063</name></trkpt>
<trkpt lat="53.461259" lon="05.860397"><ele>12.4</ele><time>2021-02-18T15:03:48Z</time><name>PT12064</name></trkpt>
<trkpt lat="53.461259" lon="05.860377"><ele>12.3</ele><time>2021-02-18T15:03:49Z</time><name>PT12065</name></trkpt>
<trkpt lat="53.461259" lon="05.860357"><ele>12.3</ele><time>2021-02-18T15:03:50Z</time><name>PT12066</name></trkpt>
<trkpt lat="53.461261" lon="05.860335"><ele>12.5</ele><time>2021-02-18T15:03:51Z</time><name>PT12067</name></trkpt>
<trkpt lat="53.461263" lon="05.860315"><ele>12.7</ele><time>2021-02-18T15:03:52Z</time><name>PT12068</name></trkpt>
<trkpt lat="53.461262" lon="05.860295"><ele>12.7</ele><time>2021-02-18T15:03:53Z</time><name>PT12069</name></trkpt>
<trkpt lat="53.461264" lon="05.860277"><ele>12.8</ele><time>2021-02-18T15:03:54Z</time><name>PT12070</name></trkpt>
<trkpt lat="53.461263" lon="05.860258"><ele>12.8</ele><time>2021-02-18T15:03:55Z</time><name>PT12071</name></trkpt>
<trkpt lat="53.461263" lon="05.860240"><ele>12.8</ele><time>2021-02-18T15:03:56Z</time><name>PT12072</name></trkpt>
<trkpt lat="53.461261" lon="05.860224"><ele>12.8</ele><time>2021-02-18T15:03:57Z</time><name>PT12073</name></trkpt>
<trkpt lat="53.461261" lon="05.860207"><ele>12.8</ele><time>2021-02-18T15:03:58Z</time><name>PT12074</name></trkpt>
<trkpt lat="53.461260" lon="05.860190"><ele>12.8</ele><time>2021-02-18T15:03:59Z</time><name>PT12075</name></trkpt>
<trkpt lat="53.461262" lon="05.860173"><ele>12.8</ele><time>2021-02-18T15:04:00Z</time><name>PT12076</name></trkpt>
<trkpt lat="53.461265" lon="05.860153"><ele>12.9</ele><time>2021-02-18T15:04:01Z</time><name>PT12077</name></trkpt>
<trkpt lat="53.461266" lon="05.860131"><ele>12.9</ele><time>2021-02-18T15:04:02Z</time><name>PT12078</name></trkpt>
<trkpt lat="53.461269" lon="05.860110"><ele>12.9</ele><time>2021-02-18T15:04:03Z</time><name>PT12079</name></trkpt>
<trkpt lat="53.461270" lon="05.860090"><ele>12.9</ele><time>2021-02-18T15:04:04Z</time><name>PT12080</name></trkpt>
<trkpt lat="53.461270" lon="05.860069"><ele>12.8</ele><time>2021-02-18T15:04:05Z</time><name>PT12081</name></trkpt>
<trkpt lat="53.461270" lon="05.860049"><ele>13</ele><time>2021-02-18T15:04:06Z</time><name>PT12082</name></trkpt>
<trkpt lat="53.461271" lon="05.860030"><ele>12.9</ele><time>2021-02-18T15:04:07Z</time><name>PT12083</name></trkpt>
<trkpt lat="53.461270" lon="05.860009"><ele>12.9</ele><time>2021-02-18T15:04:08Z</time><name>PT12084</name></trkpt>
<trkpt lat="53.461269" lon="05.859990"><ele>13</ele><time>2021-02-18T15:04:09Z</time><name>PT12085</name></trkpt>
<trkpt lat="53.461270" lon="05.859972"><ele>13</ele><time>2021-02-18T15:04:10Z</time><name>PT12086</name></trkpt>
<trkpt lat="53.461270" lon="05.859954"><ele>12.8</ele><time>2021-02-18T15:04:11Z</time><name>PT12087</name></trkpt>
<trkpt lat="53.461270" lon="05.859936"><ele>12.8</ele><time>2021-02-18T15:04:12Z</time><name>PT12088</name></trkpt>
<trkpt lat="53.461270" lon="05.859917"><ele>12.6</ele><time>2021-02-18T15:04:13Z</time><name>PT12089</name></trkpt>
<trkpt lat="53.461270" lon="05.859896"><ele>12.4</ele><time>2021-02-18T15:04:14Z</time><name>PT12090</name></trkpt>
<trkpt lat="53.461272" lon="05.859875"><ele>12.5</ele><time>2021-02-18T15:04:15Z</time><name>PT12091</name></trkpt>
<trkpt lat="53.461275" lon="05.859854"><ele>12.4</ele><time>2021-02-18T15:04:16Z</time><name>PT12092</name></trkpt>
<trkpt lat="53.461277" lon="05.859834"><ele>12.4</ele><time>2021-02-18T15:04:17Z</time><name>PT12093</name></trkpt>
<trkpt lat="53.461279" lon="05.859814"><ele>12.5</ele><time>2021-02-18T15:04:18Z</time><name>PT12094</name></trkpt>
<trkpt lat="53.461281" lon="05.859794"><ele>12.5</ele><time>2021-02-18T15:04:19Z</time><name>PT12095</name></trkpt>
<trkpt lat="53.461281" lon="05.859774"><ele>12.5</ele><time>2021-02-18T15:04:20Z</time><name>PT12096</name></trkpt>
<trkpt lat="53.461281" lon="05.859754"><ele>12.7</ele><time>2021-02-18T15:04:21Z</time><name>PT12097</name></trkpt>
<trkpt lat="53.461280" lon="05.859735"><ele>12.6</ele><time>2021-02-18T15:04:22Z</time><name>PT12098</name></trkpt>
<trkpt lat="53.461279" lon="05.859718"><ele>12.7</ele><time>2021-02-18T15:04:23Z</time><name>PT12099</name></trkpt>
<trkpt lat="53.461281" lon="05.859699"><ele>12.8</ele><time>2021-02-18T15:04:24Z</time><name>PT12100</name></trkpt>
<trkpt lat="53.461283" lon="05.859680"><ele>12.8</ele><time>2021-02-18T15:04:25Z</time><name>PT12101</name></trkpt>
<trkpt lat="53.461285" lon="05.859660"><ele>12.8</ele><time>2021-02-18T15:04:26Z</time><name>PT12102</name></trkpt>
<trkpt lat="53.461286" lon="05.859640"><ele>12.6</ele><time>2021-02-18T15:04:27Z</time><name>PT12103</name></trkpt>
<trkpt lat="53.461288" lon="05.859620"><ele>12.7</ele><time>2021-02-18T15:04:28Z</time><name>PT12104</name></trkpt>
<trkpt lat="53.461289" lon="05.859601"><ele>12.7</ele><time>2021-02-18T15:04:29Z</time><name>PT12105</name></trkpt>
<trkpt lat="53.461289" lon="05.859581"><ele>12.8</ele><time>2021-02-18T15:04:30Z</time><name>PT12106</name></trkpt>
<trkpt lat="53.461291" lon="05.859560"><ele>12.9</ele><time>2021-02-18T15:04:31Z</time><name>PT12107</name></trkpt>
<trkpt lat="53.461292" lon="05.859540"><ele>12.9</ele><time>2021-02-18T15:04:32Z</time><name>PT12108</name></trkpt>
<trkpt lat="53.461293" lon="05.859519"><ele>12.8</ele><time>2021-02-18T15:04:33Z</time><name>PT12109</name></trkpt>
<trkpt lat="53.461292" lon="05.859500"><ele>12.8</ele><time>2021-02-18T15:04:34Z</time><name>PT12110</name></trkpt>
<trkpt lat="53.461291" lon="05.859480"><ele>12.7</ele><time>2021-02-18T15:04:35Z</time><name>PT12111</name></trkpt>
<trkpt lat="53.461291" lon="05.859463"><ele>12.7</ele><time>2021-02-18T15:04:36Z</time><name>PT12112</name></trkpt>
<trkpt lat="53.461291" lon="05.859446"><ele>12.8</ele><time>2021-02-18T15:04:37Z</time><name>PT12113</name></trkpt>
<trkpt lat="53.461291" lon="05.859428"><ele>12.8</ele><time>2021-02-18T15:04:38Z</time><name>PT12114</name></trkpt>
<trkpt lat="53.461292" lon="05.859409"><ele>12.8</ele><time>2021-02-18T15:04:39Z</time><name>PT12115</name></trkpt>
<trkpt lat="53.461293" lon="05.859389"><ele>12.6</ele><time>2021-02-18T15:04:40Z</time><name>PT12116</name></trkpt>
<trkpt lat="53.461294" lon="05.859370"><ele>12.6</ele><time>2021-02-18T15:04:41Z</time><name>PT12117</name></trkpt>
<trkpt lat="53.461297" lon="05.859352"><ele>12.6</ele><time>2021-02-18T15:04:42Z</time><name>PT12118</name></trkpt>
<trkpt lat="53.461299" lon="05.859333"><ele>12.6</ele><time>2021-02-18T15:04:43Z</time><name>PT12119</name></trkpt>
<trkpt lat="53.461301" lon="05.859312"><ele>12.8</ele><time>2021-02-18T15:04:44Z</time><name>PT12120</name></trkpt>
<trkpt lat="53.461302" lon="05.859291"><ele>12.8</ele><time>2021-02-18T15:04:45Z</time><name>PT12121</name></trkpt>
<trkpt lat="53.461304" lon="05.859270"><ele>12.6</ele><time>2021-02-18T15:04:46Z</time><name>PT12122</name></trkpt>
<trkpt lat="53.461306" lon="05.859250"><ele>12.5</ele><time>2021-02-18T15:04:47Z</time><name>PT12123</name></trkpt>
<trkpt lat="53.461307" lon="05.859230"><ele>12.4</ele><time>2021-02-18T15:04:48Z</time><name>PT12124</name></trkpt>
<trkpt lat="53.461307" lon="05.859210"><ele>12.4</ele><time>2021-02-18T15:04:49Z</time><name>PT12125</name></trkpt>
<trkpt lat="53.461307" lon="05.859190"><ele>12.4</ele><time>2021-02-18T15:04:50Z</time><name>PT12126</name></trkpt>
<trkpt lat="53.461305" lon="05.859172"><ele>12.3</ele><time>2021-02-18T15:04:51Z</time><name>PT12127</name></trkpt>
<trkpt lat="53.461304" lon="05.859153"><ele>12.5</ele><time>2021-02-18T15:04:52Z</time><name>PT12128</name></trkpt>
<trkpt lat="53.461304" lon="05.859134"><ele>12.5</ele><time>2021-02-18T15:04:53Z</time><name>PT12129</name></trkpt>
<trkpt lat="53.461305" lon="05.859116"><ele>12.3</ele><time>2021-02-18T15:04:54Z</time><name>PT12130</name></trkpt>
<trkpt lat="53.461306" lon="05.859097"><ele>12.3</ele><time>2021-02-18T15:04:55Z</time><name>PT12131</name></trkpt>
<trkpt lat="53.461306" lon="05.859078"><ele>12.3</ele><time>2021-02-18T15:04:56Z</time><name>PT12132</name></trkpt>
<trkpt lat="53.461307" lon="05.859060"><ele>12.2</ele><time>2021-02-18T15:04:57Z</time><name>PT12133</name></trkpt>
<trkpt lat="53.461308" lon="05.859040"><ele>12.3</ele><time>2021-02-18T15:04:58Z</time><name>PT12134</name></trkpt>
<trkpt lat="53.461310" lon="05.859020"><ele>12.2</ele><time>2021-02-18T15:04:59Z</time><name>PT12135</name></trkpt>
<trkpt lat="53.461310" lon="05.858999"><ele>12.3</ele><time>2021-02-18T15:05:00Z</time><name>PT12136</name></trkpt>
<trkpt lat="53.461310" lon="05.858978"><ele>12.3</ele><time>2021-02-18T15:05:01Z</time><name>PT12137</name></trkpt>
<trkpt lat="53.461310" lon="05.858959"><ele>12.3</ele><time>2021-02-18T15:05:02Z</time><name>PT12138</name></trkpt>
<trkpt lat="53.461310" lon="05.858942"><ele>12.3</ele><time>2021-02-18T15:05:03Z</time><name>PT12139</name></trkpt>
<trkpt lat="53.461311" lon="05.858925"><ele>12.4</ele><time>2021-02-18T15:05:04Z</time><name>PT12140</name></trkpt>
<trkpt lat="53.461313" lon="05.858906"><ele>12.4</ele><time>2021-02-18T15:05:05Z</time><name>PT12141</name></trkpt>
<trkpt lat="53.461315" lon="05.858888"><ele>12.4</ele><time>2021-02-18T15:05:06Z</time><name>PT12142</name></trkpt>
<trkpt lat="53.461316" lon="05.858869"><ele>12.3</ele><time>2021-02-18T15:05:07Z</time><name>PT12143</name></trkpt>
<trkpt lat="53.461317" lon="05.858850"><ele>12.3</ele><time>2021-02-18T15:05:08Z</time><name>PT12144</name></trkpt>
<trkpt lat="53.461316" lon="05.858834"><ele>12.3</ele><time>2021-02-18T15:05:09Z</time><name>PT12145</name></trkpt>
<trkpt lat="53.461315" lon="05.858818"><ele>12.6</ele><time>2021-02-18T15:05:10Z</time><name>PT12146</name></trkpt>
<trkpt lat="53.461315" lon="05.858801"><ele>12.8</ele><time>2021-02-18T15:05:11Z</time><name>PT12147</name></trkpt>
<trkpt lat="53.461316" lon="05.858784"><ele>12.9</ele><time>2021-02-18T15:05:12Z</time><name>PT12148</name></trkpt>
<trkpt lat="53.461318" lon="05.858765"><ele>13.1</ele><time>2021-02-18T15:05:13Z</time><name>PT12149</name></trkpt>
<trkpt lat="53.461319" lon="05.858745"><ele>13</ele><time>2021-02-18T15:05:14Z</time><name>PT12150</name></trkpt>
<trkpt lat="53.461320" lon="05.858726"><ele>12.8</ele><time>2021-02-18T15:05:15Z</time><name>PT12151</name></trkpt>
<trkpt lat="53.461322" lon="05.858708"><ele>12.8</ele><time>2021-02-18T15:05:16Z</time><name>PT12152</name></trkpt>
<trkpt lat="53.461322" lon="05.858691"><ele>12.6</ele><time>2021-02-18T15:05:17Z</time><name>PT12153</name></trkpt>
<trkpt lat="53.461322" lon="05.858678"><ele>12.7</ele><time>2021-02-18T15:05:18Z</time><name>PT12154</name></trkpt>
<trkpt lat="53.461323" lon="05.858668"><ele>12.8</ele><time>2021-02-18T15:05:19Z</time><name>PT12155</name></trkpt>
<trkpt lat="53.461322" lon="05.858661"><ele>12.9</ele><time>2021-02-18T15:05:20Z</time><name>PT12156</name></trkpt>
<trkpt lat="53.461322" lon="05.858658"><ele>12.9</ele><time>2021-02-18T15:05:21Z</time><name>PT12157</name></trkpt>
<trkpt lat="53.461322" lon="05.858657"><ele>13</ele><time>2021-02-18T15:05:22Z</time><name>PT12158</name></trkpt>
<trkpt lat="53.461322" lon="05.858657"><ele>12.9</ele><time>2021-02-18T15:05:23Z</time><name>PT12159</name></trkpt>
<trkpt lat="53.461320" lon="05.858643"><ele>13</ele><time>2021-02-18T15:05:40Z</time><name>PT12160</name></trkpt>
<trkpt lat="53.461319" lon="05.858637"><ele>12.9</ele><time>2021-02-18T15:05:41Z</time><name>PT12161</name></trkpt>
<trkpt lat="53.461321" lon="05.858635"><ele>12.8</ele><time>2021-02-18T15:05:42Z</time><name>PT12162</name></trkpt>
<trkpt lat="53.461321" lon="05.858631"><ele>13.3</ele><time>2021-02-18T15:05:46Z</time><name>PT12163</name></trkpt>
<trkpt lat="53.461325" lon="05.858630"><ele>13.2</ele><time>2021-02-18T15:05:47Z</time><name>PT12164</name></trkpt>
<trkpt lat="53.461328" lon="05.858630"><ele>13.1</ele><time>2021-02-18T15:05:48Z</time><name>PT12165</name></trkpt>
<trkpt lat="53.461327" lon="05.858627"><ele>13.2</ele><time>2021-02-18T15:05:49Z</time><name>PT12166</name></trkpt>
<trkpt lat="53.461326" lon="05.858622"><ele>13.2</ele><time>2021-02-18T15:05:50Z</time><name>PT12167</name></trkpt>
<trkpt lat="53.461326" lon="05.858620"><ele>13</ele><time>2021-02-18T15:05:51Z</time><name>PT12168</name></trkpt>
<trkpt lat="53.461324" lon="05.858614"><ele>13</ele><time>2021-02-18T15:05:52Z</time><name>PT12169</name></trkpt>
<trkpt lat="53.461322" lon="05.858605"><ele>13</ele><time>2021-02-18T15:05:53Z</time><name>PT12170</name></trkpt>
<trkpt lat="53.461323" lon="05.858598"><ele>12.9</ele><time>2021-02-18T15:05:54Z</time><name>PT12171</name></trkpt>
<trkpt lat="53.461322" lon="05.858588"><ele>12.9</ele><time>2021-02-18T15:05:55Z</time><name>PT12172</name></trkpt>
<trkpt lat="53.461321" lon="05.858573"><ele>12.9</ele><time>2021-02-18T15:05:56Z</time><name>PT12173</name></trkpt>
<trkpt lat="53.461321" lon="05.858559"><ele>13</ele><time>2021-02-18T15:05:57Z</time><name>PT12174</name></trkpt>
<trkpt lat="53.461322" lon="05.858546"><ele>13.1</ele><time>2021-02-18T15:05:58Z</time><name>PT12175</name></trkpt>
<trkpt lat="53.461325" lon="05.858530"><ele>13.3</ele><time>2021-02-18T15:05:59Z</time><name>PT12176</name></trkpt>
<trkpt lat="53.461327" lon="05.858514"><ele>13.3</ele><time>2021-02-18T15:06:00Z</time><name>PT12177</name></trkpt>
<trkpt lat="53.461328" lon="05.858497"><ele>13.3</ele><time>2021-02-18T15:06:01Z</time><name>PT12178</name></trkpt>
<trkpt lat="53.461328" lon="05.858479"><ele>13.3</ele><time>2021-02-18T15:06:02Z</time><name>PT12179</name></trkpt>
<trkpt lat="53.461327" lon="05.858464"><ele>13.2</ele><time>2021-02-18T15:06:03Z</time><name>PT12180</name></trkpt>
<trkpt lat="53.461328" lon="05.858447"><ele>13</ele><time>2021-02-18T15:06:04Z</time><name>PT12181</name></trkpt>
<trkpt lat="53.461329" lon="05.858431"><ele>13.1</ele><time>2021-02-18T15:06:05Z</time><name>PT12182</name></trkpt>
<trkpt lat="53.461330" lon="05.858412"><ele>13</ele><time>2021-02-18T15:06:06Z</time><name>PT12183</name></trkpt>
<trkpt lat="53.461331" lon="05.858396"><ele>13.2</ele><time>2021-02-18T15:06:07Z</time><name>PT12184</name></trkpt>
<trkpt lat="53.461332" lon="05.858377"><ele>13.2</ele><time>2021-02-18T15:06:08Z</time><name>PT12185</name></trkpt>
<trkpt lat="53.461332" lon="05.858356"><ele>13.3</ele><time>2021-02-18T15:06:09Z</time><name>PT12186</name></trkpt>
<trkpt lat="53.461333" lon="05.858336"><ele>13.3</ele><time>2021-02-18T15:06:10Z</time><name>PT12187</name></trkpt>
<trkpt lat="53.461333" lon="05.858318"><ele>13.4</ele><time>2021-02-18T15:06:11Z</time><name>PT12188</name></trkpt>
<trkpt lat="53.461331" lon="05.858301"><ele>13.3</ele><time>2021-02-18T15:06:12Z</time><name>PT12189</name></trkpt>
<trkpt lat="53.461331" lon="05.858284"><ele>13.3</ele><time>2021-02-18T15:06:13Z</time><name>PT12190</name></trkpt>
<trkpt lat="53.461333" lon="05.858266"><ele>13.2</ele><time>2021-02-18T15:06:14Z</time><name>PT12191</name></trkpt>
<trkpt lat="53.461335" lon="05.858246"><ele>13</ele><time>2021-02-18T15:06:15Z</time><name>PT12192</name></trkpt>
<trkpt lat="53.461335" lon="05.858227"><ele>12.9</ele><time>2021-02-18T15:06:16Z</time><name>PT12193</name></trkpt>
<trkpt lat="53.461337" lon="05.858206"><ele>12.8</ele><time>2021-02-18T15:06:17Z</time><name>PT12194</name></trkpt>
<trkpt lat="53.461338" lon="05.858185"><ele>12.8</ele><time>2021-02-18T15:06:18Z</time><name>PT12195</name></trkpt>
<trkpt lat="53.461338" lon="05.858165"><ele>12.8</ele><time>2021-02-18T15:06:19Z</time><name>PT12196</name></trkpt>
<trkpt lat="53.461338" lon="05.858145"><ele>13</ele><time>2021-02-18T15:06:20Z</time><name>PT12197</name></trkpt>
<trkpt lat="53.461337" lon="05.858127"><ele>13.1</ele><time>2021-02-18T15:06:21Z</time><name>PT12198</name></trkpt>
<trkpt lat="53.461337" lon="05.858109"><ele>13</ele><time>2021-02-18T15:06:22Z</time><name>PT12199</name></trkpt>
<trkpt lat="53.461337" lon="05.858094"><ele>13</ele><time>2021-02-18T15:06:23Z</time><name>PT12200</name></trkpt>
<trkpt lat="53.461338" lon="05.858077"><ele>12.9</ele><time>2021-02-18T15:06:24Z</time><name>PT12201</name></trkpt>
<trkpt lat="53.461338" lon="05.858060"><ele>12.7</ele><time>2021-02-18T15:06:25Z</time><name>PT12202</name></trkpt>
<trkpt lat="53.461338" lon="05.858040"><ele>12.5</ele><time>2021-02-18T15:06:26Z</time><name>PT12203</name></trkpt>
<trkpt lat="53.461337" lon="05.858021"><ele>12.8</ele><time>2021-02-18T15:06:27Z</time><name>PT12204</name></trkpt>
<trkpt lat="53.461335" lon="05.858004"><ele>12.8</ele><time>2021-02-18T15:06:28Z</time><name>PT12205</name></trkpt>
<trkpt lat="53.461332" lon="05.857983"><ele>12.8</ele><time>2021-02-18T15:06:29Z</time><name>PT12206</name></trkpt>
<trkpt lat="53.461331" lon="05.857963"><ele>12.8</ele><time>2021-02-18T15:06:30Z</time><name>PT12207</name></trkpt>
<trkpt lat="53.461330" lon="05.857943"><ele>12.9</ele><time>2021-02-18T15:06:31Z</time><name>PT12208</name></trkpt>
<trkpt lat="53.461331" lon="05.857925"><ele>12.8</ele><time>2021-02-18T15:06:32Z</time><name>PT12209</name></trkpt>
<trkpt lat="53.461330" lon="05.857908"><ele>12.8</ele><time>2021-02-18T15:06:33Z</time><name>PT12210</name></trkpt>
<trkpt lat="53.461332" lon="05.857888"><ele>12.9</ele><time>2021-02-18T15:06:34Z</time><name>PT12211</name></trkpt>
<trkpt lat="53.461334" lon="05.857867"><ele>13</ele><time>2021-02-18T15:06:35Z</time><name>PT12212</name></trkpt>
<trkpt lat="53.461334" lon="05.857847"><ele>13.1</ele><time>2021-02-18T15:06:36Z</time><name>PT12213</name></trkpt>
<trkpt lat="53.461336" lon="05.857826"><ele>13.3</ele><time>2021-02-18T15:06:37Z</time><name>PT12214</name></trkpt>
<trkpt lat="53.461337" lon="05.857804"><ele>13.3</ele><time>2021-02-18T15:06:38Z</time><name>PT12215</name></trkpt>
<trkpt lat="53.461339" lon="05.857783"><ele>13.1</ele><time>2021-02-18T15:06:39Z</time><name>PT12216</name></trkpt>
<trkpt lat="53.461340" lon="05.857762"><ele>13.2</ele><time>2021-02-18T15:06:40Z</time><name>PT12217</name></trkpt>
<trkpt lat="53.461340" lon="05.857740"><ele>13.2</ele><time>2021-02-18T15:06:41Z</time><name>PT12218</name></trkpt>
<trkpt lat="53.461340" lon="05.857721"><ele>13.1</ele><time>2021-02-18T15:06:42Z</time><name>PT12219</name></trkpt>
<trkpt lat="53.461340" lon="05.857703"><ele>13.1</ele><time>2021-02-18T15:06:43Z</time><name>PT12220</name></trkpt>
<trkpt lat="53.461340" lon="05.857687"><ele>13.1</ele><time>2021-02-18T15:06:44Z</time><name>PT12221</name></trkpt>
<trkpt lat="53.461339" lon="05.857668"><ele>13</ele><time>2021-02-18T15:06:45Z</time><name>PT12222</name></trkpt>
<trkpt lat="53.461339" lon="05.857649"><ele>13</ele><time>2021-02-18T15:06:46Z</time><name>PT12223</name></trkpt>
<trkpt lat="53.461339" lon="05.857631"><ele>13</ele><time>2021-02-18T15:06:47Z</time><name>PT12224</name></trkpt>
<trkpt lat="53.461340" lon="05.857610"><ele>13</ele><time>2021-02-18T15:06:48Z</time><name>PT12225</name></trkpt>
<trkpt lat="53.461341" lon="05.857590"><ele>12.9</ele><time>2021-02-18T15:06:49Z</time><name>PT12226</name></trkpt>
<trkpt lat="53.461341" lon="05.857569"><ele>13.1</ele><time>2021-02-18T15:06:50Z</time><name>PT12227</name></trkpt>
<trkpt lat="53.461342" lon="05.857548"><ele>13.1</ele><time>2021-02-18T15:06:51Z</time><name>PT12228</name></trkpt>
<trkpt lat="53.461342" lon="05.857527"><ele>13.2</ele><time>2021-02-18T15:06:52Z</time><name>PT12229</name></trkpt>
<trkpt lat="53.461342" lon="05.857506"><ele>13.2</ele><time>2021-02-18T15:06:53Z</time><name>PT12230</name></trkpt>
<trkpt lat="53.461342" lon="05.857487"><ele>13.3</ele><time>2021-02-18T15:06:54Z</time><name>PT12231</name></trkpt>
<trkpt lat="53.461343" lon="05.857466"><ele>13.3</ele><time>2021-02-18T15:06:55Z</time><name>PT12232</name></trkpt>
<trkpt lat="53.461343" lon="05.857445"><ele>13.3</ele><time>2021-02-18T15:06:56Z</time><name>PT12233</name></trkpt>
<trkpt lat="53.461344" lon="05.857423"><ele>13.4</ele><time>2021-02-18T15:06:57Z</time><name>PT12234</name></trkpt>
<trkpt lat="53.461344" lon="05.857402"><ele>13.4</ele><time>2021-02-18T15:06:58Z</time><name>PT12235</name></trkpt>
<trkpt lat="53.461344" lon="05.857382"><ele>13.4</ele><time>2021-02-18T15:06:59Z</time><name>PT12236</name></trkpt>
<trkpt lat="53.461345" lon="05.857365"><ele>13.3</ele><time>2021-02-18T15:07:00Z</time><name>PT12237</name></trkpt>
<trkpt lat="53.461344" lon="05.857347"><ele>13.2</ele><time>2021-02-18T15:07:01Z</time><name>PT12238</name></trkpt>
<trkpt lat="53.461345" lon="05.857329"><ele>13.1</ele><time>2021-02-18T15:07:02Z</time><name>PT12239</name></trkpt>
<trkpt lat="53.461347" lon="05.857312"><ele>13.1</ele><time>2021-02-18T15:07:03Z</time><name>PT12240</name></trkpt>
<trkpt lat="53.461350" lon="05.857294"><ele>13.3</ele><time>2021-02-18T15:07:04Z</time><name>PT12241</name></trkpt>
<trkpt lat="53.461353" lon="05.857275"><ele>13.3</ele><time>2021-02-18T15:07:05Z</time><name>PT12242</name></trkpt>
<trkpt lat="53.461357" lon="05.857255"><ele>13.3</ele><time>2021-02-18T15:07:06Z</time><name>PT12243</name></trkpt>
<trkpt lat="53.461361" lon="05.857233"><ele>13.3</ele><time>2021-02-18T15:07:07Z</time><name>PT12244</name></trkpt>
<trkpt lat="53.461365" lon="05.857213"><ele>13.3</ele><time>2021-02-18T15:07:08Z</time><name>PT12245</name></trkpt>
<trkpt lat="53.461369" lon="05.857194"><ele>13</ele><time>2021-02-18T15:07:09Z</time><name>PT12246</name></trkpt>
<trkpt lat="53.461375" lon="05.857176"><ele>12.8</ele><time>2021-02-18T15:07:10Z</time><name>PT12247</name></trkpt>
<trkpt lat="53.461380" lon="05.857156"><ele>12.7</ele><time>2021-02-18T15:07:11Z</time><name>PT12248</name></trkpt>
<trkpt lat="53.461385" lon="05.857136"><ele>12.6</ele><time>2021-02-18T15:07:12Z</time><name>PT12249</name></trkpt>
<trkpt lat="53.461390" lon="05.857116"><ele>12.6</ele><time>2021-02-18T15:07:13Z</time><name>PT12250</name></trkpt>
<trkpt lat="53.461395" lon="05.857095"><ele>12.4</ele><time>2021-02-18T15:07:14Z</time><name>PT12251</name></trkpt>
<trkpt lat="53.461400" lon="05.857078"><ele>12.6</ele><time>2021-02-18T15:07:15Z</time><name>PT12252</name></trkpt>
<trkpt lat="53.461405" lon="05.857061"><ele>12.8</ele><time>2021-02-18T15:07:16Z</time><name>PT12253</name></trkpt>
<trkpt lat="53.461411" lon="05.857046"><ele>12.8</ele><time>2021-02-18T15:07:17Z</time><name>PT12254</name></trkpt>
<trkpt lat="53.461416" lon="05.857031"><ele>12.7</ele><time>2021-02-18T15:07:18Z</time><name>PT12255</name></trkpt>
<trkpt lat="53.461422" lon="05.857016"><ele>12.8</ele><time>2021-02-18T15:07:19Z</time><name>PT12256</name></trkpt>
<trkpt lat="53.461429" lon="05.856999"><ele>12.8</ele><time>2021-02-18T15:07:20Z</time><name>PT12257</name></trkpt>
<trkpt lat="53.461437" lon="05.856983"><ele>12.7</ele><time>2021-02-18T15:07:21Z</time><name>PT12258</name></trkpt>
<trkpt lat="53.461445" lon="05.856966"><ele>12.8</ele><time>2021-02-18T15:07:22Z</time><name>PT12259</name></trkpt>
<trkpt lat="53.461452" lon="05.856951"><ele>12.8</ele><time>2021-02-18T15:07:23Z</time><name>PT12260</name></trkpt>
<trkpt lat="53.461461" lon="05.856936"><ele>12.8</ele><time>2021-02-18T15:07:24Z</time><name>PT12261</name></trkpt>
<trkpt lat="53.461468" lon="05.856920"><ele>12.6</ele><time>2021-02-18T15:07:25Z</time><name>PT12262</name></trkpt>
<trkpt lat="53.461474" lon="05.856903"><ele>12.6</ele><time>2021-02-18T15:07:26Z</time><name>PT12263</name></trkpt>
<trkpt lat="53.461480" lon="05.856886"><ele>12.6</ele><time>2021-02-18T15:07:27Z</time><name>PT12264</name></trkpt>
<trkpt lat="53.461487" lon="05.856869"><ele>12.4</ele><time>2021-02-18T15:07:28Z</time><name>PT12265</name></trkpt>
<trkpt lat="53.461492" lon="05.856851"><ele>12.4</ele><time>2021-02-18T15:07:29Z</time><name>PT12266</name></trkpt>
<trkpt lat="53.461497" lon="05.856832"><ele>12.5</ele><time>2021-02-18T15:07:30Z</time><name>PT12267</name></trkpt>
<trkpt lat="53.461502" lon="05.856816"><ele>12.7</ele><time>2021-02-18T15:07:31Z</time><name>PT12268</name></trkpt>
<trkpt lat="53.461507" lon="05.856801"><ele>12.6</ele><time>2021-02-18T15:07:32Z</time><name>PT12269</name></trkpt>
<trkpt lat="53.461511" lon="05.856787"><ele>12.8</ele><time>2021-02-18T15:07:33Z</time><name>PT12270</name></trkpt>
<trkpt lat="53.461515" lon="05.856771"><ele>12.8</ele><time>2021-02-18T15:07:34Z</time><name>PT12271</name></trkpt>
<trkpt lat="53.461520" lon="05.856755"><ele>12.9</ele><time>2021-02-18T15:07:35Z</time><name>PT12272</name></trkpt>
<trkpt lat="53.461525" lon="05.856738"><ele>12.9</ele><time>2021-02-18T15:07:36Z</time><name>PT12273</name></trkpt>
<trkpt lat="53.461530" lon="05.856721"><ele>12.9</ele><time>2021-02-18T15:07:37Z</time><name>PT12274</name></trkpt>
<trkpt lat="53.461536" lon="05.856703"><ele>12.9</ele><time>2021-02-18T15:07:38Z</time><name>PT12275</name></trkpt>
<trkpt lat="53.461541" lon="05.856686"><ele>12.8</ele><time>2021-02-18T15:07:39Z</time><name>PT12276</name></trkpt>
<trkpt lat="53.461546" lon="05.856669"><ele>12.9</ele><time>2021-02-18T15:07:40Z</time><name>PT12277</name></trkpt>
<trkpt lat="53.461550" lon="05.856649"><ele>12.9</ele><time>2021-02-18T15:07:41Z</time><name>PT12278</name></trkpt>
<trkpt lat="53.461555" lon="05.856630"><ele>12.8</ele><time>2021-02-18T15:07:42Z</time><name>PT12279</name></trkpt>
<trkpt lat="53.461560" lon="05.856611"><ele>13</ele><time>2021-02-18T15:07:43Z</time><name>PT12280</name></trkpt>
<trkpt lat="53.461564" lon="05.856593"><ele>12.9</ele><time>2021-02-18T15:07:44Z</time><name>PT12281</name></trkpt>
<trkpt lat="53.461567" lon="05.856575"><ele>13</ele><time>2021-02-18T15:07:45Z</time><name>PT12282</name></trkpt>
<trkpt lat="53.461570" lon="05.856558"><ele>13.1</ele><time>2021-02-18T15:07:46Z</time><name>PT12283</name></trkpt>
<trkpt lat="53.461573" lon="05.856541"><ele>13.2</ele><time>2021-02-18T15:07:47Z</time><name>PT12284</name></trkpt>
<trkpt lat="53.461577" lon="05.856524"><ele>13.1</ele><time>2021-02-18T15:07:48Z</time><name>PT12285</name></trkpt>
<trkpt lat="53.461581" lon="05.856506"><ele>13.3</ele><time>2021-02-18T15:07:49Z</time><name>PT12286</name></trkpt>
<trkpt lat="53.461586" lon="05.856487"><ele>13.3</ele><time>2021-02-18T15:07:50Z</time><name>PT12287</name></trkpt>
<trkpt lat="53.461591" lon="05.856469"><ele>13.2</ele><time>2021-02-18T15:07:51Z</time><name>PT12288</name></trkpt>
<trkpt lat="53.461596" lon="05.856451"><ele>13.2</ele><time>2021-02-18T15:07:52Z</time><name>PT12289</name></trkpt>
<trkpt lat="53.461601" lon="05.856433"><ele>13.2</ele><time>2021-02-18T15:07:53Z</time><name>PT12290</name></trkpt>
<trkpt lat="53.461605" lon="05.856414"><ele>13</ele><time>2021-02-18T15:07:54Z</time><name>PT12291</name></trkpt>
<trkpt lat="53.461609" lon="05.856396"><ele>13.1</ele><time>2021-02-18T15:07:55Z</time><name>PT12292</name></trkpt>
<trkpt lat="53.461614" lon="05.856376"><ele>13.2</ele><time>2021-02-18T15:07:56Z</time><name>PT12293</name></trkpt>
<trkpt lat="53.461617" lon="05.856357"><ele>13.3</ele><time>2021-02-18T15:07:57Z</time><name>PT12294</name></trkpt>
<trkpt lat="53.461620" lon="05.856338"><ele>13.5</ele><time>2021-02-18T15:07:58Z</time><name>PT12295</name></trkpt>
<trkpt lat="53.461623" lon="05.856320"><ele>13.6</ele><time>2021-02-18T15:07:59Z</time><name>PT12296</name></trkpt>
<trkpt lat="53.461624" lon="05.856302"><ele>13.5</ele><time>2021-02-18T15:08:00Z</time><name>PT12297</name></trkpt>
<trkpt lat="53.461626" lon="05.856285"><ele>13.6</ele><time>2021-02-18T15:08:01Z</time><name>PT12298</name></trkpt>
<trkpt lat="53.461629" lon="05.856269"><ele>13.5</ele><time>2021-02-18T15:08:02Z</time><name>PT12299</name></trkpt>
<trkpt lat="53.461634" lon="05.856251"><ele>13.3</ele><time>2021-02-18T15:08:03Z</time><name>PT12300</name></trkpt>
<trkpt lat="53.461639" lon="05.856232"><ele>13.5</ele><time>2021-02-18T15:08:04Z</time><name>PT12301</name></trkpt>
<trkpt lat="53.461643" lon="05.856213"><ele>13.7</ele><time>2021-02-18T15:08:05Z</time><name>PT12302</name></trkpt>
<trkpt lat="53.461648" lon="05.856194"><ele>13.8</ele><time>2021-02-18T15:08:06Z</time><name>PT12303</name></trkpt>
<trkpt lat="53.461652" lon="05.856175"><ele>14</ele><time>2021-02-18T15:08:07Z</time><name>PT12304</name></trkpt>
<trkpt lat="53.461656" lon="05.856157"><ele>14</ele><time>2021-02-18T15:08:08Z</time><name>PT12305</name></trkpt>
<trkpt lat="53.461659" lon="05.856138"><ele>13.8</ele><time>2021-02-18T15:08:09Z</time><name>PT12306</name></trkpt>
<trkpt lat="53.461663" lon="05.856119"><ele>13.7</ele><time>2021-02-18T15:08:10Z</time><name>PT12307</name></trkpt>
<trkpt lat="53.461667" lon="05.856100"><ele>13.7</ele><time>2021-02-18T15:08:11Z</time><name>PT12308</name></trkpt>
<trkpt lat="53.461670" lon="05.856080"><ele>13.9</ele><time>2021-02-18T15:08:12Z</time><name>PT12309</name></trkpt>
<trkpt lat="53.461673" lon="05.856060"><ele>14.3</ele><time>2021-02-18T15:08:13Z</time><name>PT12310</name></trkpt>
<trkpt lat="53.461675" lon="05.856040"><ele>14.4</ele><time>2021-02-18T15:08:14Z</time><name>PT12311</name></trkpt>
<trkpt lat="53.461677" lon="05.856022"><ele>14.3</ele><time>2021-02-18T15:08:15Z</time><name>PT12312</name></trkpt>
<trkpt lat="53.461680" lon="05.856005"><ele>14.3</ele><time>2021-02-18T15:08:16Z</time><name>PT12313</name></trkpt>
<trkpt lat="53.461683" lon="05.855988"><ele>14.3</ele><time>2021-02-18T15:08:17Z</time><name>PT12314</name></trkpt>
<trkpt lat="53.461686" lon="05.855970"><ele>14.1</ele><time>2021-02-18T15:08:18Z</time><name>PT12315</name></trkpt>
<trkpt lat="53.461689" lon="05.855953"><ele>14.2</ele><time>2021-02-18T15:08:19Z</time><name>PT12316</name></trkpt>
<trkpt lat="53.461692" lon="05.855936"><ele>14.3</ele><time>2021-02-18T15:08:20Z</time><name>PT12317</name></trkpt>
<trkpt lat="53.461696" lon="05.855917"><ele>14.4</ele><time>2021-02-18T15:08:21Z</time><name>PT12318</name></trkpt>
<trkpt lat="53.461700" lon="05.855898"><ele>14.7</ele><time>2021-02-18T15:08:22Z</time><name>PT12319</name></trkpt>
<trkpt lat="53.461704" lon="05.855879"><ele>14.7</ele><time>2021-02-18T15:08:23Z</time><name>PT12320</name></trkpt>
<trkpt lat="53.461707" lon="05.855860"><ele>14.7</ele><time>2021-02-18T15:08:24Z</time><name>PT12321</name></trkpt>
<trkpt lat="53.461710" lon="05.855840"><ele>14.6</ele><time>2021-02-18T15:08:25Z</time><name>PT12322</name></trkpt>
<trkpt lat="53.461713" lon="05.855820"><ele>14.4</ele><time>2021-02-18T15:08:26Z</time><name>PT12323</name></trkpt>
<trkpt lat="53.461715" lon="05.855800"><ele>14.3</ele><time>2021-02-18T15:08:27Z</time><name>PT12324</name></trkpt>
<trkpt lat="53.461717" lon="05.855781"><ele>14.4</ele><time>2021-02-18T15:08:28Z</time><name>PT12325</name></trkpt>
<trkpt lat="53.461719" lon="05.855763"><ele>14.5</ele><time>2021-02-18T15:08:29Z</time><name>PT12326</name></trkpt>
<trkpt lat="53.461722" lon="05.855744"><ele>14.7</ele><time>2021-02-18T15:08:30Z</time><name>PT12327</name></trkpt>
<trkpt lat="53.461725" lon="05.855726"><ele>14.9</ele><time>2021-02-18T15:08:31Z</time><name>PT12328</name></trkpt>
<trkpt lat="53.461727" lon="05.855710"><ele>14.9</ele><time>2021-02-18T15:08:32Z</time><name>PT12329</name></trkpt>
<trkpt lat="53.461731" lon="05.855694"><ele>15</ele><time>2021-02-18T15:08:33Z</time><name>PT12330</name></trkpt>
<trkpt lat="53.461736" lon="05.855679"><ele>14.9</ele><time>2021-02-18T15:08:34Z</time><name>PT12331</name></trkpt>
<trkpt lat="53.461739" lon="05.855663"><ele>14.9</ele><time>2021-02-18T15:08:35Z</time><name>PT12332</name></trkpt>
<trkpt lat="53.461743" lon="05.855646"><ele>14.6</ele><time>2021-02-18T15:08:36Z</time><name>PT12333</name></trkpt>
<trkpt lat="53.461748" lon="05.855628"><ele>14.6</ele><time>2021-02-18T15:08:37Z</time><name>PT12334</name></trkpt>
<trkpt lat="53.461755" lon="05.855609"><ele>14.5</ele><time>2021-02-18T15:08:38Z</time><name>PT12335</name></trkpt>
<trkpt lat="53.461761" lon="05.855591"><ele>14.5</ele><time>2021-02-18T15:08:39Z</time><name>PT12336</name></trkpt>
<trkpt lat="53.461767" lon="05.855572"><ele>14.3</ele><time>2021-02-18T15:08:40Z</time><name>PT12337</name></trkpt>
<trkpt lat="53.461772" lon="05.855553"><ele>14.2</ele><time>2021-02-18T15:08:41Z</time><name>PT12338</name></trkpt>
<trkpt lat="53.461777" lon="05.855536"><ele>14.1</ele><time>2021-02-18T15:08:42Z</time><name>PT12339</name></trkpt>
<trkpt lat="53.461782" lon="05.855517"><ele>13.8</ele><time>2021-02-18T15:08:43Z</time><name>PT12340</name></trkpt>
<trkpt lat="53.461787" lon="05.855498"><ele>13.8</ele><time>2021-02-18T15:08:44Z</time><name>PT12341</name></trkpt>
<trkpt lat="53.461792" lon="05.855481"><ele>13.7</ele><time>2021-02-18T15:08:45Z</time><name>PT12342</name></trkpt>
<trkpt lat="53.461797" lon="05.855466"><ele>13.6</ele><time>2021-02-18T15:08:47Z</time><name>PT12343</name></trkpt>
<trkpt lat="53.461802" lon="05.855449"><ele>13.7</ele><time>2021-02-18T15:08:47Z</time><name>PT12344</name></trkpt>
<trkpt lat="53.461807" lon="05.855433"><ele>13.8</ele><time>2021-02-18T15:08:48Z</time><name>PT12345</name></trkpt>
<trkpt lat="53.461812" lon="05.855417"><ele>13.6</ele><time>2021-02-18T15:08:49Z</time><name>PT12346</name></trkpt>
<trkpt lat="53.461818" lon="05.855402"><ele>13.7</ele><time>2021-02-18T15:08:50Z</time><name>PT12347</name></trkpt>
<trkpt lat="53.461825" lon="05.855387"><ele>13.6</ele><time>2021-02-18T15:08:51Z</time><name>PT12348</name></trkpt>
<trkpt lat="53.461832" lon="05.855372"><ele>13.4</ele><time>2021-02-18T15:08:52Z</time><name>PT12349</name></trkpt>
<trkpt lat="53.461840" lon="05.855357"><ele>13.3</ele><time>2021-02-18T15:08:53Z</time><name>PT12350</name></trkpt>
<trkpt lat="53.461847" lon="05.855341"><ele>13.3</ele><time>2021-02-18T15:08:54Z</time><name>PT12351</name></trkpt>
<trkpt lat="53.461855" lon="05.855324"><ele>13.3</ele><time>2021-02-18T15:08:55Z</time><name>PT12352</name></trkpt>
<trkpt lat="53.461864" lon="05.855308"><ele>13.3</ele><time>2021-02-18T15:08:56Z</time><name>PT12353</name></trkpt>
<trkpt lat="53.461872" lon="05.855293"><ele>13.6</ele><time>2021-02-18T15:08:57Z</time><name>PT12354</name></trkpt>
<trkpt lat="53.461880" lon="05.855278"><ele>13.7</ele><time>2021-02-18T15:08:58Z</time><name>PT12355</name></trkpt>
<trkpt lat="53.461888" lon="05.855262"><ele>13.6</ele><time>2021-02-18T15:08:59Z</time><name>PT12356</name></trkpt>
<trkpt lat="53.461895" lon="05.855247"><ele>13.8</ele><time>2021-02-18T15:09:00Z</time><name>PT12357</name></trkpt>
<trkpt lat="53.461902" lon="05.855230"><ele>14</ele><time>2021-02-18T15:09:01Z</time><name>PT12358</name></trkpt>
<trkpt lat="53.461909" lon="05.855214"><ele>14.1</ele><time>2021-02-18T15:09:02Z</time><name>PT12359</name></trkpt>
<trkpt lat="53.461915" lon="05.855197"><ele>14.1</ele><time>2021-02-18T15:09:03Z</time><name>PT12360</name></trkpt>
<trkpt lat="53.461922" lon="05.855180"><ele>14.3</ele><time>2021-02-18T15:09:04Z</time><name>PT12361</name></trkpt>
<trkpt lat="53.461928" lon="05.855164"><ele>14.3</ele><time>2021-02-18T15:09:05Z</time><name>PT12362</name></trkpt>
<trkpt lat="53.461934" lon="05.855149"><ele>14.3</ele><time>2021-02-18T15:09:06Z</time><name>PT12363</name></trkpt>
<trkpt lat="53.461940" lon="05.855134"><ele>14.5</ele><time>2021-02-18T15:09:07Z</time><name>PT12364</name></trkpt>
<trkpt lat="53.461947" lon="05.855120"><ele>14.4</ele><time>2021-02-18T15:09:08Z</time><name>PT12365</name></trkpt>
<trkpt lat="53.461954" lon="05.855106"><ele>14.4</ele><time>2021-02-18T15:09:09Z</time><name>PT12366</name></trkpt>
<trkpt lat="53.461962" lon="05.855090"><ele>14.3</ele><time>2021-02-18T15:09:10Z</time><name>PT12367</name></trkpt>
<trkpt lat="53.461970" lon="05.855075"><ele>14.3</ele><time>2021-02-18T15:09:11Z</time><name>PT12368</name></trkpt>
<trkpt lat="53.461977" lon="05.855059"><ele>14.3</ele><time>2021-02-18T15:09:12Z</time><name>PT12369</name></trkpt>
<trkpt lat="53.461984" lon="05.855044"><ele>14.3</ele><time>2021-02-18T15:09:13Z</time><name>PT12370</name></trkpt>
<trkpt lat="53.461993" lon="05.855030"><ele>14.3</ele><time>2021-02-18T15:09:14Z</time><name>PT12371</name></trkpt>
<trkpt lat="53.462002" lon="05.855016"><ele>14.3</ele><time>2021-02-18T15:09:15Z</time><name>PT12372</name></trkpt>
<trkpt lat="53.462009" lon="05.854999"><ele>14.3</ele><time>2021-02-18T15:09:16Z</time><name>PT12373</name></trkpt>
<trkpt lat="53.462017" lon="05.854981"><ele>14.2</ele><time>2021-02-18T15:09:17Z</time><name>PT12374</name></trkpt>
<trkpt lat="53.462025" lon="05.854964"><ele>14.2</ele><time>2021-02-18T15:09:18Z</time><name>PT12375</name></trkpt>
<trkpt lat="53.462032" lon="05.854946"><ele>14.3</ele><time>2021-02-18T15:09:19Z</time><name>PT12376</name></trkpt>
<trkpt lat="53.462038" lon="05.854928"><ele>14.3</ele><time>2021-02-18T15:09:20Z</time><name>PT12377</name></trkpt>
<trkpt lat="53.462042" lon="05.854911"><ele>14.1</ele><time>2021-02-18T15:09:21Z</time><name>PT12378</name></trkpt>
<trkpt lat="53.462048" lon="05.854896"><ele>14.3</ele><time>2021-02-18T15:09:22Z</time><name>PT12379</name></trkpt>
<trkpt lat="53.462052" lon="05.854880"><ele>14.3</ele><time>2021-02-18T15:09:23Z</time><name>PT12380</name></trkpt>
<trkpt lat="53.462056" lon="05.854864"><ele>14.2</ele><time>2021-02-18T15:09:24Z</time><name>PT12381</name></trkpt>
<trkpt lat="53.462062" lon="05.854848"><ele>14.3</ele><time>2021-02-18T15:09:25Z</time><name>PT12382</name></trkpt>
<trkpt lat="53.462069" lon="05.854832"><ele>14.4</ele><time>2021-02-18T15:09:26Z</time><name>PT12383</name></trkpt>
<trkpt lat="53.462075" lon="05.854815"><ele>14.4</ele><time>2021-02-18T15:09:27Z</time><name>PT12384</name></trkpt>
<trkpt lat="53.462082" lon="05.854798"><ele>14.5</ele><time>2021-02-18T15:09:28Z</time><name>PT12385</name></trkpt>
<trkpt lat="53.462089" lon="05.854781"><ele>14.6</ele><time>2021-02-18T15:09:29Z</time><name>PT12386</name></trkpt>
<trkpt lat="53.462095" lon="05.854764"><ele>14.6</ele><time>2021-02-18T15:09:30Z</time><name>PT12387</name></trkpt>
<trkpt lat="53.462102" lon="05.854746"><ele>14.8</ele><time>2021-02-18T15:09:31Z</time><name>PT12388</name></trkpt>
<trkpt lat="53.462107" lon="05.854729"><ele>14.8</ele><time>2021-02-18T15:09:32Z</time><name>PT12389</name></trkpt>
<trkpt lat="53.462113" lon="05.854711"><ele>14.9</ele><time>2021-02-18T15:09:33Z</time><name>PT12390</name></trkpt>
<trkpt lat="53.462119" lon="05.854693"><ele>14.8</ele><time>2021-02-18T15:09:34Z</time><name>PT12391</name></trkpt>
<trkpt lat="53.462125" lon="05.854675"><ele>14.8</ele><time>2021-02-18T15:09:35Z</time><name>PT12392</name></trkpt>
<trkpt lat="53.462130" lon="05.854657"><ele>14.7</ele><time>2021-02-18T15:09:36Z</time><name>PT12393</name></trkpt>
<trkpt lat="53.462135" lon="05.854638"><ele>14.7</ele><time>2021-02-18T15:09:37Z</time><name>PT12394</name></trkpt>
<trkpt lat="53.462139" lon="05.854621"><ele>14.7</ele><time>2021-02-18T15:09:38Z</time><name>PT12395</name></trkpt>
<trkpt lat="53.462143" lon="05.854606"><ele>14.8</ele><time>2021-02-18T15:09:39Z</time><name>PT12396</name></trkpt>
<trkpt lat="53.462148" lon="05.854592"><ele>14.7</ele><time>2021-02-18T15:09:40Z</time><name>PT12397</name></trkpt>
<trkpt lat="53.462151" lon="05.854579"><ele>14.8</ele><time>2021-02-18T15:09:41Z</time><name>PT12398</name></trkpt>
<trkpt lat="53.462156" lon="05.854565"><ele>14.8</ele><time>2021-02-18T15:09:42Z</time><name>PT12399</name></trkpt>
<trkpt lat="53.462163" lon="05.854551"><ele>14.9</ele><time>2021-02-18T15:09:43Z</time><name>PT12400</name></trkpt>
<trkpt lat="53.462169" lon="05.854536"><ele>15</ele><time>2021-02-18T15:09:44Z</time><name>PT12401</name></trkpt>
<trkpt lat="53.462177" lon="05.854522"><ele>15.2</ele><time>2021-02-18T15:09:45Z</time><name>PT12402</name></trkpt>
<trkpt lat="53.462184" lon="05.854508"><ele>15.3</ele><time>2021-02-18T15:09:46Z</time><name>PT12403</name></trkpt>
<trkpt lat="53.462191" lon="05.854492"><ele>15.3</ele><time>2021-02-18T15:09:47Z</time><name>PT12404</name></trkpt>
<trkpt lat="53.462198" lon="05.854476"><ele>15.7</ele><time>2021-02-18T15:09:48Z</time><name>PT12405</name></trkpt>
<trkpt lat="53.462203" lon="05.854460"><ele>15.9</ele><time>2021-02-18T15:09:49Z</time><name>PT12406</name></trkpt>
<trkpt lat="53.462208" lon="05.854442"><ele>15.9</ele><time>2021-02-18T15:09:50Z</time><name>PT12407</name></trkpt>
<trkpt lat="53.462214" lon="05.854426"><ele>16</ele><time>2021-02-18T15:09:51Z</time><name>PT12408</name></trkpt>
<trkpt lat="53.462219" lon="05.854411"><ele>16.2</ele><time>2021-02-18T15:09:52Z</time><name>PT12409</name></trkpt>
<trkpt lat="53.462222" lon="05.854396"><ele>16</ele><time>2021-02-18T15:09:53Z</time><name>PT12410</name></trkpt>
<trkpt lat="53.462228" lon="05.854381"><ele>15.9</ele><time>2021-02-18T15:09:54Z</time><name>PT12411</name></trkpt>
<trkpt lat="53.462233" lon="05.854366"><ele>15.9</ele><time>2021-02-18T15:09:55Z</time><name>PT12412</name></trkpt>
<trkpt lat="53.462238" lon="05.854351"><ele>15.9</ele><time>2021-02-18T15:09:56Z</time><name>PT12413</name></trkpt>
<trkpt lat="53.462244" lon="05.854334"><ele>15.9</ele><time>2021-02-18T15:09:57Z</time><name>PT12414</name></trkpt>
<trkpt lat="53.462250" lon="05.854317"><ele>16.1</ele><time>2021-02-18T15:09:58Z</time><name>PT12415</name></trkpt>
<trkpt lat="53.462258" lon="05.854302"><ele>16.3</ele><time>2021-02-18T15:09:59Z</time><name>PT12416</name></trkpt>
<trkpt lat="53.462265" lon="05.854285"><ele>16.4</ele><time>2021-02-18T15:10:00Z</time><name>PT12417</name></trkpt>
<trkpt lat="53.462270" lon="05.854267"><ele>16.4</ele><time>2021-02-18T15:10:01Z</time><name>PT12418</name></trkpt>
<trkpt lat="53.462275" lon="05.854246"><ele>16.4</ele><time>2021-02-18T15:10:02Z</time><name>PT12419</name></trkpt>
<trkpt lat="53.462278" lon="05.854227"><ele>16.4</ele><time>2021-02-18T15:10:03Z</time><name>PT12420</name></trkpt>
<trkpt lat="53.462283" lon="05.854210"><ele>16.4</ele><time>2021-02-18T15:10:04Z</time><name>PT12421</name></trkpt>
<trkpt lat="53.462285" lon="05.854191"><ele>16.4</ele><time>2021-02-18T15:10:05Z</time><name>PT12422</name></trkpt>
<trkpt lat="53.462287" lon="05.854171"><ele>16.5</ele><time>2021-02-18T15:10:06Z</time><name>PT12423</name></trkpt>
<trkpt lat="53.462288" lon="05.854152"><ele>16.4</ele><time>2021-02-18T15:10:07Z</time><name>PT12424</name></trkpt>
<trkpt lat="53.462291" lon="05.854135"><ele>16.4</ele><time>2021-02-18T15:10:08Z</time><name>PT12425</name></trkpt>
<trkpt lat="53.462292" lon="05.854118"><ele>16.5</ele><time>2021-02-18T15:10:09Z</time><name>PT12426</name></trkpt>
<trkpt lat="53.462292" lon="05.854098"><ele>16.4</ele><time>2021-02-18T15:10:10Z</time><name>PT12427</name></trkpt>
<trkpt lat="53.462293" lon="05.854079"><ele>16.3</ele><time>2021-02-18T15:10:11Z</time><name>PT12428</name></trkpt>
<trkpt lat="53.462293" lon="05.854060"><ele>16.4</ele><time>2021-02-18T15:10:12Z</time><name>PT12429</name></trkpt>
<trkpt lat="53.462292" lon="05.854041"><ele>16.3</ele><time>2021-02-18T15:10:13Z</time><name>PT12430</name></trkpt>
<trkpt lat="53.462293" lon="05.854023"><ele>16.2</ele><time>2021-02-18T15:10:14Z</time><name>PT12431</name></trkpt>
<trkpt lat="53.462293" lon="05.854001"><ele>16.3</ele><time>2021-02-18T15:10:15Z</time><name>PT12432</name></trkpt>
<trkpt lat="53.462292" lon="05.853980"><ele>16.4</ele><time>2021-02-18T15:10:16Z</time><name>PT12433</name></trkpt>
<trkpt lat="53.462291" lon="05.853958"><ele>16.3</ele><time>2021-02-18T15:10:17Z</time><name>PT12434</name></trkpt>
<trkpt lat="53.462290" lon="05.853938"><ele>16.4</ele><time>2021-02-18T15:10:18Z</time><name>PT12435</name></trkpt>
<trkpt lat="53.462289" lon="05.853918"><ele>16.2</ele><time>2021-02-18T15:10:19Z</time><name>PT12436</name></trkpt>
<trkpt lat="53.462287" lon="05.853898"><ele>16.2</ele><time>2021-02-18T15:10:20Z</time><name>PT12437</name></trkpt>
<trkpt lat="53.462284" lon="05.853879"><ele>16.1</ele><time>2021-02-18T15:10:21Z</time><name>PT12438</name></trkpt>
<trkpt lat="53.462281" lon="05.853861"><ele>16.2</ele><time>2021-02-18T15:10:22Z</time><name>PT12439</name></trkpt>
<trkpt lat="53.462278" lon="05.853843"><ele>16.1</ele><time>2021-02-18T15:10:23Z</time><name>PT12440</name></trkpt>
<trkpt lat="53.462274" lon="05.853826"><ele>16.3</ele><time>2021-02-18T15:10:24Z</time><name>PT12441</name></trkpt>
<trkpt lat="53.462269" lon="05.853810"><ele>16.4</ele><time>2021-02-18T15:10:25Z</time><name>PT12442</name></trkpt>
<trkpt lat="53.462265" lon="05.853795"><ele>16.4</ele><time>2021-02-18T15:10:26Z</time><name>PT12443</name></trkpt>
<trkpt lat="53.462263" lon="05.853779"><ele>16.5</ele><time>2021-02-18T15:10:27Z</time><name>PT12444</name></trkpt>
<trkpt lat="53.462260" lon="05.853762"><ele>16.4</ele><time>2021-02-18T15:10:28Z</time><name>PT12445</name></trkpt>
<trkpt lat="53.462258" lon="05.853743"><ele>16.3</ele><time>2021-02-18T15:10:29Z</time><name>PT12446</name></trkpt>
<trkpt lat="53.462257" lon="05.853724"><ele>16</ele><time>2021-02-18T15:10:30Z</time><name>PT12447</name></trkpt>
<trkpt lat="53.462256" lon="05.853706"><ele>16</ele><time>2021-02-18T15:10:31Z</time><name>PT12448</name></trkpt>
<trkpt lat="53.462254" lon="05.853688"><ele>15.9</ele><time>2021-02-18T15:10:32Z</time><name>PT12449</name></trkpt>
<trkpt lat="53.462251" lon="05.853670"><ele>15.9</ele><time>2021-02-18T15:10:33Z</time><name>PT12450</name></trkpt>
<trkpt lat="53.462250" lon="05.853650"><ele>15.9</ele><time>2021-02-18T15:10:34Z</time><name>PT12451</name></trkpt>
<trkpt lat="53.462250" lon="05.853630"><ele>15.9</ele><time>2021-02-18T15:10:35Z</time><name>PT12452</name></trkpt>
<trkpt lat="53.462248" lon="05.853613"><ele>15.6</ele><time>2021-02-18T15:10:36Z</time><name>PT12453</name></trkpt>
<trkpt lat="53.462246" lon="05.853598"><ele>15.6</ele><time>2021-02-18T15:10:37Z</time><name>PT12454</name></trkpt>
<trkpt lat="53.462244" lon="05.853582"><ele>15.4</ele><time>2021-02-18T15:10:38Z</time><name>PT12455</name></trkpt>
<trkpt lat="53.462245" lon="05.853564"><ele>15.5</ele><time>2021-02-18T15:10:39Z</time><name>PT12456</name></trkpt>
<trkpt lat="53.462247" lon="05.853545"><ele>15.4</ele><time>2021-02-18T15:10:40Z</time><name>PT12457</name></trkpt>
<trkpt lat="53.462249" lon="05.853525"><ele>15.4</ele><time>2021-02-18T15:10:41Z</time><name>PT12458</name></trkpt>
<trkpt lat="53.462251" lon="05.853504"><ele>15.4</ele><time>2021-02-18T15:10:42Z</time><name>PT12459</name></trkpt>
<trkpt lat="53.462252" lon="05.853483"><ele>15.4</ele><time>2021-02-18T15:10:43Z</time><name>PT12460</name></trkpt>
<trkpt lat="53.462254" lon="05.853462"><ele>15.4</ele><time>2021-02-18T15:10:44Z</time><name>PT12461</name></trkpt>
<trkpt lat="53.462254" lon="05.853441"><ele>15.4</ele><time>2021-02-18T15:10:45Z</time><name>PT12462</name></trkpt>
<trkpt lat="53.462255" lon="05.853420"><ele>15.4</ele><time>2021-02-18T15:10:46Z</time><name>PT12463</name></trkpt>
<trkpt lat="53.462256" lon="05.853398"><ele>15.4</ele><time>2021-02-18T15:10:47Z</time><name>PT12464</name></trkpt>
<trkpt lat="53.462256" lon="05.853378"><ele>15.3</ele><time>2021-02-18T15:10:48Z</time><name>PT12465</name></trkpt>
<trkpt lat="53.462255" lon="05.853361"><ele>15.1</ele><time>2021-02-18T15:10:49Z</time><name>PT12466</name></trkpt>
<trkpt lat="53.462255" lon="05.853344"><ele>15.1</ele><time>2021-02-18T15:10:50Z</time><name>PT12467</name></trkpt>
<trkpt lat="53.462254" lon="05.853326"><ele>15</ele><time>2021-02-18T15:10:51Z</time><name>PT12468</name></trkpt>
<trkpt lat="53.462254" lon="05.853309"><ele>15</ele><time>2021-02-18T15:10:52Z</time><name>PT12469</name></trkpt>
<trkpt lat="53.462255" lon="05.853291"><ele>15.2</ele><time>2021-02-18T15:10:53Z</time><name>PT12470</name></trkpt>
<trkpt lat="53.462255" lon="05.853271"><ele>15.4</ele><time>2021-02-18T15:10:54Z</time><name>PT12471</name></trkpt>
<trkpt lat="53.462257" lon="05.853251"><ele>15.3</ele><time>2021-02-18T15:10:55Z</time><name>PT12472</name></trkpt>
<trkpt lat="53.462258" lon="05.853231"><ele>15.3</ele><time>2021-02-18T15:10:56Z</time><name>PT12473</name></trkpt>
<trkpt lat="53.462258" lon="05.853211"><ele>15.1</ele><time>2021-02-18T15:10:57Z</time><name>PT12474</name></trkpt>
<trkpt lat="53.462258" lon="05.853190"><ele>14.9</ele><time>2021-02-18T15:10:58Z</time><name>PT12475</name></trkpt>
<trkpt lat="53.462258" lon="05.853169"><ele>14.9</ele><time>2021-02-18T15:10:59Z</time><name>PT12476</name></trkpt>
<trkpt lat="53.462257" lon="05.853152"><ele>14.9</ele><time>2021-02-18T15:11:00Z</time><name>PT12477</name></trkpt>
<trkpt lat="53.462257" lon="05.853137"><ele>15.2</ele><time>2021-02-18T15:11:01Z</time><name>PT12478</name></trkpt>
<trkpt lat="53.462256" lon="05.853120"><ele>15.1</ele><time>2021-02-18T15:11:02Z</time><name>PT12479</name></trkpt>
<trkpt lat="53.462256" lon="05.853103"><ele>14.9</ele><time>2021-02-18T15:11:03Z</time><name>PT12480</name></trkpt>
<trkpt lat="53.462255" lon="05.853084"><ele>14.8</ele><time>2021-02-18T15:11:04Z</time><name>PT12481</name></trkpt>
<trkpt lat="53.462255" lon="05.853063"><ele>14.9</ele><time>2021-02-18T15:11:05Z</time><name>PT12482</name></trkpt>
<trkpt lat="53.462255" lon="05.853045"><ele>14.9</ele><time>2021-02-18T15:11:06Z</time><name>PT12483</name></trkpt>
<trkpt lat="53.462254" lon="05.853027"><ele>14.9</ele><time>2021-02-18T15:11:07Z</time><name>PT12484</name></trkpt>
<trkpt lat="53.462252" lon="05.853008"><ele>15</ele><time>2021-02-18T15:11:08Z</time><name>PT12485</name></trkpt>
<trkpt lat="53.462250" lon="05.852989"><ele>15</ele><time>2021-02-18T15:11:09Z</time><name>PT12486</name></trkpt>
<trkpt lat="53.462248" lon="05.852970"><ele>14.9</ele><time>2021-02-18T15:11:10Z</time><name>PT12487</name></trkpt>
<trkpt lat="53.462246" lon="05.852952"><ele>14.9</ele><time>2021-02-18T15:11:11Z</time><name>PT12488</name></trkpt>
<trkpt lat="53.462244" lon="05.852937"><ele>14.9</ele><time>2021-02-18T15:11:12Z</time><name>PT12489</name></trkpt>
<trkpt lat="53.462242" lon="05.852922"><ele>15</ele><time>2021-02-18T15:11:13Z</time><name>PT12490</name></trkpt>
<trkpt lat="53.462242" lon="05.852904"><ele>14.9</ele><time>2021-02-18T15:11:14Z</time><name>PT12491</name></trkpt>
<trkpt lat="53.462241" lon="05.852886"><ele>14.9</ele><time>2021-02-18T15:11:15Z</time><name>PT12492</name></trkpt>
<trkpt lat="53.462239" lon="05.852865"><ele>14.9</ele><time>2021-02-18T15:11:16Z</time><name>PT12493</name></trkpt>
<trkpt lat="53.462237" lon="05.852844"><ele>14.6</ele><time>2021-02-18T15:11:17Z</time><name>PT12494</name></trkpt>
<trkpt lat="53.462235" lon="05.852823"><ele>14.4</ele><time>2021-02-18T15:11:18Z</time><name>PT12495</name></trkpt>
<trkpt lat="53.462233" lon="05.852803"><ele>14.6</ele><time>2021-02-18T15:11:19Z</time><name>PT12496</name></trkpt>
<trkpt lat="53.462230" lon="05.852782"><ele>14.7</ele><time>2021-02-18T15:11:20Z</time><name>PT12497</name></trkpt>
<trkpt lat="53.462227" lon="05.852762"><ele>14.6</ele><time>2021-02-18T15:11:21Z</time><name>PT12498</name></trkpt>
<trkpt lat="53.462224" lon="05.852745"><ele>14.7</ele><time>2021-02-18T15:11:22Z</time><name>PT12499</name></trkpt>
<trkpt lat="53.462222" lon="05.852728"><ele>14.7</ele><time>2021-02-18T15:11:23Z</time><name>PT12500</name></trkpt>
<trkpt lat="53.462220" lon="05.852710"><ele>14.6</ele><time>2021-02-18T15:11:24Z</time><name>PT12501</name></trkpt>
<trkpt lat="53.462217" lon="05.852693"><ele>14.6</ele><time>2021-02-18T15:11:25Z</time><name>PT12502</name></trkpt>
<trkpt lat="53.462216" lon="05.852674"><ele>14.6</ele><time>2021-02-18T15:11:26Z</time><name>PT12503</name></trkpt>
<trkpt lat="53.462215" lon="05.852656"><ele>14.6</ele><time>2021-02-18T15:11:27Z</time><name>PT12504</name></trkpt>
<trkpt lat="53.462214" lon="05.852637"><ele>14.5</ele><time>2021-02-18T15:11:28Z</time><name>PT12505</name></trkpt>
<trkpt lat="53.462214" lon="05.852617"><ele>14.5</ele><time>2021-02-18T15:11:29Z</time><name>PT12506</name></trkpt>
<trkpt lat="53.462213" lon="05.852597"><ele>14.4</ele><time>2021-02-18T15:11:30Z</time><name>PT12507</name></trkpt>
<trkpt lat="53.462212" lon="05.852574"><ele>14.3</ele><time>2021-02-18T15:11:31Z</time><name>PT12508</name></trkpt>
<trkpt lat="53.462211" lon="05.852553"><ele>14.3</ele><time>2021-02-18T15:11:32Z</time><name>PT12509</name></trkpt>
<trkpt lat="53.462211" lon="05.852531"><ele>14.3</ele><time>2021-02-18T15:11:33Z</time><name>PT12510</name></trkpt>
<trkpt lat="53.462209" lon="05.852511"><ele>14.3</ele><time>2021-02-18T15:11:34Z</time><name>PT12511</name></trkpt>
<trkpt lat="53.462207" lon="05.852493"><ele>14.3</ele><time>2021-02-18T15:11:35Z</time><name>PT12512</name></trkpt>
<trkpt lat="53.462205" lon="05.852475"><ele>14.4</ele><time>2021-02-18T15:11:36Z</time><name>PT12513</name></trkpt>
<trkpt lat="53.462204" lon="05.852459"><ele>14.5</ele><time>2021-02-18T15:11:37Z</time><name>PT12514</name></trkpt>
<trkpt lat="53.462204" lon="05.852441"><ele>14.7</ele><time>2021-02-18T15:11:38Z</time><name>PT12515</name></trkpt>
<trkpt lat="53.462204" lon="05.852422"><ele>14.8</ele><time>2021-02-18T15:11:39Z</time><name>PT12516</name></trkpt>
<trkpt lat="53.462205" lon="05.852402"><ele>14.9</ele><time>2021-02-18T15:11:40Z</time><name>PT12517</name></trkpt>
<trkpt lat="53.462207" lon="05.852383"><ele>14.9</ele><time>2021-02-18T15:11:41Z</time><name>PT12518</name></trkpt>
<trkpt lat="53.462209" lon="05.852362"><ele>14.9</ele><time>2021-02-18T15:11:42Z</time><name>PT12519</name></trkpt>
<trkpt lat="53.462212" lon="05.852342"><ele>14.8</ele><time>2021-02-18T15:11:43Z</time><name>PT12520</name></trkpt>
<trkpt lat="53.462214" lon="05.852321"><ele>14.7</ele><time>2021-02-18T15:11:44Z</time><name>PT12521</name></trkpt>
<trkpt lat="53.462216" lon="05.852300"><ele>14.6</ele><time>2021-02-18T15:11:45Z</time><name>PT12522</name></trkpt>
<trkpt lat="53.462219" lon="05.852279"><ele>14.8</ele><time>2021-02-18T15:11:46Z</time><name>PT12523</name></trkpt>
<trkpt lat="53.462222" lon="05.852257"><ele>14.9</ele><time>2021-02-18T15:11:47Z</time><name>PT12524</name></trkpt>
<trkpt lat="53.462225" lon="05.852237"><ele>14.8</ele><time>2021-02-18T15:11:48Z</time><name>PT12525</name></trkpt>
<trkpt lat="53.462227" lon="05.852217"><ele>14.7</ele><time>2021-02-18T15:11:49Z</time><name>PT12526</name></trkpt>
<trkpt lat="53.462229" lon="05.852199"><ele>14.6</ele><time>2021-02-18T15:11:50Z</time><name>PT12527</name></trkpt>
<trkpt lat="53.462231" lon="05.852183"><ele>14.6</ele><time>2021-02-18T15:11:51Z</time><name>PT12528</name></trkpt>
<trkpt lat="53.462233" lon="05.852167"><ele>14.7</ele><time>2021-02-18T15:11:52Z</time><name>PT12529</name></trkpt>
<trkpt lat="53.462236" lon="05.852152"><ele>14.8</ele><time>2021-02-18T15:11:53Z</time><name>PT12530</name></trkpt>
<trkpt lat="53.462240" lon="05.852136"><ele>14.9</ele><time>2021-02-18T15:11:54Z</time><name>PT12531</name></trkpt>
<trkpt lat="53.462245" lon="05.852119"><ele>15.3</ele><time>2021-02-18T15:11:55Z</time><name>PT12532</name></trkpt>
<trkpt lat="53.462250" lon="05.852102"><ele>15.3</ele><time>2021-02-18T15:11:56Z</time><name>PT12533</name></trkpt>
<trkpt lat="53.462254" lon="05.852085"><ele>15.3</ele><time>2021-02-18T15:11:57Z</time><name>PT12534</name></trkpt>
<trkpt lat="53.462259" lon="05.852069"><ele>15.2</ele><time>2021-02-18T15:11:58Z</time><name>PT12535</name></trkpt>
<trkpt lat="53.462263" lon="05.852052"><ele>15.4</ele><time>2021-02-18T15:11:59Z</time><name>PT12536</name></trkpt>
<trkpt lat="53.462268" lon="05.852034"><ele>15.2</ele><time>2021-02-18T15:12:00Z</time><name>PT12537</name></trkpt>
<trkpt lat="53.462273" lon="05.852015"><ele>15.2</ele><time>2021-02-18T15:12:01Z</time><name>PT12538</name></trkpt>
<trkpt lat="53.462278" lon="05.851997"><ele>15.3</ele><time>2021-02-18T15:12:02Z</time><name>PT12539</name></trkpt>
<trkpt lat="53.462282" lon="05.851978"><ele>15.2</ele><time>2021-02-18T15:12:03Z</time><name>PT12540</name></trkpt>
<trkpt lat="53.462285" lon="05.851960"><ele>15.2</ele><time>2021-02-18T15:12:04Z</time><name>PT12541</name></trkpt>
<trkpt lat="53.462288" lon="05.851943"><ele>15.2</ele><time>2021-02-18T15:12:05Z</time><name>PT12542</name></trkpt>
<trkpt lat="53.462291" lon="05.851926"><ele>15.2</ele><time>2021-02-18T15:12:06Z</time><name>PT12543</name></trkpt>
<trkpt lat="53.462295" lon="05.851909"><ele>15.2</ele><time>2021-02-18T15:12:07Z</time><name>PT12544</name></trkpt>
<trkpt lat="53.462299" lon="05.851891"><ele>15.3</ele><time>2021-02-18T15:12:08Z</time><name>PT12545</name></trkpt>
<trkpt lat="53.462302" lon="05.851873"><ele>15.1</ele><time>2021-02-18T15:12:09Z</time><name>PT12546</name></trkpt>
<trkpt lat="53.462307" lon="05.851856"><ele>15.2</ele><time>2021-02-18T15:12:10Z</time><name>PT12547</name></trkpt>
<trkpt lat="53.462312" lon="05.851840"><ele>15.4</ele><time>2021-02-18T15:12:11Z</time><name>PT12548</name></trkpt>
<trkpt lat="53.462314" lon="05.851822"><ele>15.5</ele><time>2021-02-18T15:12:12Z</time><name>PT12549</name></trkpt>
<trkpt lat="53.462317" lon="05.851803"><ele>15.5</ele><time>2021-02-18T15:12:13Z</time><name>PT12550</name></trkpt>
<trkpt lat="53.462320" lon="05.851783"><ele>15.5</ele><time>2021-02-18T15:12:14Z</time><name>PT12551</name></trkpt>
<trkpt lat="53.462323" lon="05.851763"><ele>15.5</ele><time>2021-02-18T15:12:15Z</time><name>PT12552</name></trkpt>
<trkpt lat="53.462325" lon="05.851741"><ele>15.4</ele><time>2021-02-18T15:12:16Z</time><name>PT12553</name></trkpt>
<trkpt lat="53.462326" lon="05.851720"><ele>15.4</ele><time>2021-02-18T15:12:17Z</time><name>PT12554</name></trkpt>
<trkpt lat="53.462327" lon="05.851701"><ele>15.5</ele><time>2021-02-18T15:12:18Z</time><name>PT12555</name></trkpt>
<trkpt lat="53.462328" lon="05.851683"><ele>15.7</ele><time>2021-02-18T15:12:19Z</time><name>PT12556</name></trkpt>
<trkpt lat="53.462329" lon="05.851664"><ele>15.8</ele><time>2021-02-18T15:12:20Z</time><name>PT12557</name></trkpt>
<trkpt lat="53.462330" lon="05.851645"><ele>15.9</ele><time>2021-02-18T15:12:21Z</time><name>PT12558</name></trkpt>
<trkpt lat="53.462331" lon="05.851626"><ele>16</ele><time>2021-02-18T15:12:22Z</time><name>PT12559</name></trkpt>
<trkpt lat="53.462332" lon="05.851608"><ele>16.3</ele><time>2021-02-18T15:12:23Z</time><name>PT12560</name></trkpt>
<trkpt lat="53.462331" lon="05.851589"><ele>16.2</ele><time>2021-02-18T15:12:24Z</time><name>PT12561</name></trkpt>
<trkpt lat="53.462330" lon="05.851569"><ele>16</ele><time>2021-02-18T15:12:25Z</time><name>PT12562</name></trkpt>
<trkpt lat="53.462330" lon="05.851551"><ele>15.9</ele><time>2021-02-18T15:12:26Z</time><name>PT12563</name></trkpt>
<trkpt lat="53.462331" lon="05.851532"><ele>15.8</ele><time>2021-02-18T15:12:27Z</time><name>PT12564</name></trkpt>
<trkpt lat="53.462332" lon="05.851513"><ele>15.6</ele><time>2021-02-18T15:12:28Z</time><name>PT12565</name></trkpt>
<trkpt lat="53.462334" lon="05.851494"><ele>15.8</ele><time>2021-02-18T15:12:29Z</time><name>PT12566</name></trkpt>
<trkpt lat="53.462336" lon="05.851477"><ele>15.8</ele><time>2021-02-18T15:12:30Z</time><name>PT12567</name></trkpt>
<trkpt lat="53.462339" lon="05.851459"><ele>15.9</ele><time>2021-02-18T15:12:31Z</time><name>PT12568</name></trkpt>
<trkpt lat="53.462343" lon="05.851440"><ele>16</ele><time>2021-02-18T15:12:32Z</time><name>PT12569</name></trkpt>
<trkpt lat="53.462346" lon="05.851421"><ele>16</ele><time>2021-02-18T15:12:33Z</time><name>PT12570</name></trkpt>
<trkpt lat="53.462351" lon="05.851403"><ele>15.9</ele><time>2021-02-18T15:12:34Z</time><name>PT12571</name></trkpt>
<trkpt lat="53.462354" lon="05.851384"><ele>15.9</ele><time>2021-02-18T15:12:35Z</time><name>PT12572</name></trkpt>
<trkpt lat="53.462356" lon="05.851366"><ele>15.8</ele><time>2021-02-18T15:12:36Z</time><name>PT12573</name></trkpt>
<trkpt lat="53.462358" lon="05.851346"><ele>15.6</ele><time>2021-02-18T15:12:37Z</time><name>PT12574</name></trkpt>
<trkpt lat="53.462360" lon="05.851325"><ele>15.6</ele><time>2021-02-18T15:12:38Z</time><name>PT12575</name></trkpt>
<trkpt lat="53.462364" lon="05.851308"><ele>15.4</ele><time>2021-02-18T15:12:39Z</time><name>PT12576</name></trkpt>
<trkpt lat="53.462366" lon="05.851290"><ele>15.5</ele><time>2021-02-18T15:12:40Z</time><name>PT12577</name></trkpt>
<trkpt lat="53.462368" lon="05.851274"><ele>15.6</ele><time>2021-02-18T15:12:41Z</time><name>PT12578</name></trkpt>
<trkpt lat="53.462370" lon="05.851257"><ele>15.8</ele><time>2021-02-18T15:12:42Z</time><name>PT12579</name></trkpt>
<trkpt lat="53.462372" lon="05.851240"><ele>15.9</ele><time>2021-02-18T15:12:43Z</time><name>PT12580</name></trkpt>
<trkpt lat="53.462372" lon="05.851225"><ele>16</ele><time>2021-02-18T15:12:44Z</time><name>PT12581</name></trkpt>
<trkpt lat="53.462376" lon="05.851208"><ele>16.1</ele><time>2021-02-18T15:12:45Z</time><name>PT12582</name></trkpt>
<trkpt lat="53.462379" lon="05.851191"><ele>16.1</ele><time>2021-02-18T15:12:46Z</time><name>PT12583</name></trkpt>
<trkpt lat="53.462381" lon="05.851176"><ele>16</ele><time>2021-02-18T15:12:47Z</time><name>PT12584</name></trkpt>
<trkpt lat="53.462384" lon="05.851159"><ele>15.9</ele><time>2021-02-18T15:12:48Z</time><name>PT12585</name></trkpt>
<trkpt lat="53.462388" lon="05.851139"><ele>15.6</ele><time>2021-02-18T15:12:49Z</time><name>PT12586</name></trkpt>
<trkpt lat="53.462392" lon="05.851119"><ele>15.6</ele><time>2021-02-18T15:12:50Z</time><name>PT12587</name></trkpt>
<trkpt lat="53.462397" lon="05.851098"><ele>15.5</ele><time>2021-02-18T15:12:51Z</time><name>PT12588</name></trkpt>
<trkpt lat="53.462400" lon="05.851079"><ele>15.5</ele><time>2021-02-18T15:12:52Z</time><name>PT12589</name></trkpt>
<trkpt lat="53.462402" lon="05.851059"><ele>15.4</ele><time>2021-02-18T15:12:53Z</time><name>PT12590</name></trkpt>
<trkpt lat="53.462404" lon="05.851041"><ele>15.4</ele><time>2021-02-18T15:12:54Z</time><name>PT12591</name></trkpt>
<trkpt lat="53.462406" lon="05.851022"><ele>15.5</ele><time>2021-02-18T15:12:55Z</time><name>PT12592</name></trkpt>
<trkpt lat="53.462408" lon="05.851002"><ele>15.6</ele><time>2021-02-18T15:12:56Z</time><name>PT12593</name></trkpt>
<trkpt lat="53.462409" lon="05.850982"><ele>15.6</ele><time>2021-02-18T15:12:57Z</time><name>PT12594</name></trkpt>
<trkpt lat="53.462409" lon="05.850961"><ele>15.6</ele><time>2021-02-18T15:12:58Z</time><name>PT12595</name></trkpt>
<trkpt lat="53.462410" lon="05.850941"><ele>15.6</ele><time>2021-02-18T15:12:59Z</time><name>PT12596</name></trkpt>
<trkpt lat="53.462410" lon="05.850922"><ele>15.5</ele><time>2021-02-18T15:13:00Z</time><name>PT12597</name></trkpt>
<trkpt lat="53.462410" lon="05.850904"><ele>15.7</ele><time>2021-02-18T15:13:01Z</time><name>PT12598</name></trkpt>
<trkpt lat="53.462410" lon="05.850887"><ele>15.8</ele><time>2021-02-18T15:13:02Z</time><name>PT12599</name></trkpt>
<trkpt lat="53.462410" lon="05.850871"><ele>15.9</ele><time>2021-02-18T15:13:03Z</time><name>PT12600</name></trkpt>
<trkpt lat="53.462410" lon="05.850852"><ele>15.9</ele><time>2021-02-18T15:13:04Z</time><name>PT12601</name></trkpt>
<trkpt lat="53.462411" lon="05.850835"><ele>15.9</ele><time>2021-02-18T15:13:05Z</time><name>PT12602</name></trkpt>
<trkpt lat="53.462412" lon="05.850817"><ele>15.9</ele><time>2021-02-18T15:13:06Z</time><name>PT12603</name></trkpt>
<trkpt lat="53.462413" lon="05.850798"><ele>15.9</ele><time>2021-02-18T15:13:07Z</time><name>PT12604</name></trkpt>
<trkpt lat="53.462413" lon="05.850780"><ele>15.9</ele><time>2021-02-18T15:13:08Z</time><name>PT12605</name></trkpt>
<trkpt lat="53.462414" lon="05.850761"><ele>15.9</ele><time>2021-02-18T15:13:09Z</time><name>PT12606</name></trkpt>
<trkpt lat="53.462414" lon="05.850741"><ele>15.8</ele><time>2021-02-18T15:13:10Z</time><name>PT12607</name></trkpt>
<trkpt lat="53.462414" lon="05.850720"><ele>15.7</ele><time>2021-02-18T15:13:11Z</time><name>PT12608</name></trkpt>
<trkpt lat="53.462412" lon="05.850700"><ele>15.6</ele><time>2021-02-18T15:13:12Z</time><name>PT12609</name></trkpt>
<trkpt lat="53.462411" lon="05.850679"><ele>15.6</ele><time>2021-02-18T15:13:13Z</time><name>PT12610</name></trkpt>
<trkpt lat="53.462409" lon="05.850660"><ele>15.4</ele><time>2021-02-18T15:13:14Z</time><name>PT12611</name></trkpt>
<trkpt lat="53.462409" lon="05.850642"><ele>15.4</ele><time>2021-02-18T15:13:15Z</time><name>PT12612</name></trkpt>
<trkpt lat="53.462409" lon="05.850623"><ele>15.3</ele><time>2021-02-18T15:13:16Z</time><name>PT12613</name></trkpt>
<trkpt lat="53.462409" lon="05.850605"><ele>15.3</ele><time>2021-02-18T15:13:17Z</time><name>PT12614</name></trkpt>
<trkpt lat="53.462409" lon="05.850587"><ele>15.3</ele><time>2021-02-18T15:13:18Z</time><name>PT12615</name></trkpt>
<trkpt lat="53.462410" lon="05.850567"><ele>15.2</ele><time>2021-02-18T15:13:19Z</time><name>PT12616</name></trkpt>
<trkpt lat="53.462410" lon="05.850547"><ele>15.2</ele><time>2021-02-18T15:13:20Z</time><name>PT12617</name></trkpt>
<trkpt lat="53.462410" lon="05.850527"><ele>15.1</ele><time>2021-02-18T15:13:21Z</time><name>PT12618</name></trkpt>
<trkpt lat="53.462409" lon="05.850506"><ele>14.9</ele><time>2021-02-18T15:13:22Z</time><name>PT12619</name></trkpt>
<trkpt lat="53.462408" lon="05.850488"><ele>14.9</ele><time>2021-02-18T15:13:23Z</time><name>PT12620</name></trkpt>
<trkpt lat="53.462406" lon="05.850469"><ele>14.8</ele><time>2021-02-18T15:13:24Z</time><name>PT12621</name></trkpt>
<trkpt lat="53.462402" lon="05.850449"><ele>14.7</ele><time>2021-02-18T15:13:25Z</time><name>PT12622</name></trkpt>
<trkpt lat="53.462398" lon="05.850431"><ele>14.5</ele><time>2021-02-18T15:13:26Z</time><name>PT12623</name></trkpt>
<trkpt lat="53.462393" lon="05.850413"><ele>14.7</ele><time>2021-02-18T15:13:27Z</time><name>PT12624</name></trkpt>
<trkpt lat="53.462388" lon="05.850397"><ele>14.9</ele><time>2021-02-18T15:13:28Z</time><name>PT12625</name></trkpt>
<trkpt lat="53.462384" lon="05.850380"><ele>15</ele><time>2021-02-18T15:13:29Z</time><name>PT12626</name></trkpt>
<trkpt lat="53.462380" lon="05.850363"><ele>15</ele><time>2021-02-18T15:13:30Z</time><name>PT12627</name></trkpt>
<trkpt lat="53.462373" lon="05.850343"><ele>14.9</ele><time>2021-02-18T15:13:31Z</time><name>PT12628</name></trkpt>
<trkpt lat="53.462367" lon="05.850326"><ele>14.9</ele><time>2021-02-18T15:13:32Z</time><name>PT12629</name></trkpt>
<trkpt lat="53.462360" lon="05.850309"><ele>14.7</ele><time>2021-02-18T15:13:33Z</time><name>PT12630</name></trkpt>
<trkpt lat="53.462356" lon="05.850293"><ele>14.6</ele><time>2021-02-18T15:13:34Z</time><name>PT12631</name></trkpt>
<trkpt lat="53.462349" lon="05.850277"><ele>14.6</ele><time>2021-02-18T15:13:35Z</time><name>PT12632</name></trkpt>
<trkpt lat="53.462343" lon="05.850260"><ele>14.6</ele><time>2021-02-18T15:13:36Z</time><name>PT12633</name></trkpt>
<trkpt lat="53.462338" lon="05.850244"><ele>14.5</ele><time>2021-02-18T15:13:37Z</time><name>PT12634</name></trkpt>
<trkpt lat="53.462334" lon="05.850229"><ele>14.5</ele><time>2021-02-18T15:13:38Z</time><name>PT12635</name></trkpt>
<trkpt lat="53.462329" lon="05.850212"><ele>14.4</ele><time>2021-02-18T15:13:39Z</time><name>PT12636</name></trkpt>
<trkpt lat="53.462324" lon="05.850193"><ele>14.3</ele><time>2021-02-18T15:13:40Z</time><name>PT12637</name></trkpt>
<trkpt lat="53.462319" lon="05.850172"><ele>14.3</ele><time>2021-02-18T15:13:41Z</time><name>PT12638</name></trkpt>
<trkpt lat="53.462312" lon="05.850151"><ele>14.3</ele><time>2021-02-18T15:13:42Z</time><name>PT12639</name></trkpt>
<trkpt lat="53.462306" lon="05.850133"><ele>14.3</ele><time>2021-02-18T15:13:43Z</time><name>PT12640</name></trkpt>
<trkpt lat="53.462301" lon="05.850117"><ele>14.3</ele><time>2021-02-18T15:13:44Z</time><name>PT12641</name></trkpt>
<trkpt lat="53.462295" lon="05.850101"><ele>14.3</ele><time>2021-02-18T15:13:45Z</time><name>PT12642</name></trkpt>
<trkpt lat="53.462288" lon="05.850085"><ele>14.3</ele><time>2021-02-18T15:13:46Z</time><name>PT12643</name></trkpt>
<trkpt lat="53.462284" lon="05.850069"><ele>14.2</ele><time>2021-02-18T15:13:47Z</time><name>PT12644</name></trkpt>
<trkpt lat="53.462278" lon="05.850051"><ele>14.1</ele><time>2021-02-18T15:13:48Z</time><name>PT12645</name></trkpt>
<trkpt lat="53.462274" lon="05.850036"><ele>14.1</ele><time>2021-02-18T15:13:49Z</time><name>PT12646</name></trkpt>
<trkpt lat="53.462270" lon="05.850018"><ele>14.2</ele><time>2021-02-18T15:13:50Z</time><name>PT12647</name></trkpt>
<trkpt lat="53.462264" lon="05.850001"><ele>14.3</ele><time>2021-02-18T15:13:51Z</time><name>PT12648</name></trkpt>
<trkpt lat="53.462258" lon="05.849983"><ele>14.2</ele><time>2021-02-18T15:13:52Z</time><name>PT12649</name></trkpt>
<trkpt lat="53.462253" lon="05.849964"><ele>14.2</ele><time>2021-02-18T15:13:53Z</time><name>PT12650</name></trkpt>
<trkpt lat="53.462248" lon="05.849944"><ele>14.3</ele><time>2021-02-18T15:13:54Z</time><name>PT12651</name></trkpt>
<trkpt lat="53.462244" lon="05.849923"><ele>14.1</ele><time>2021-02-18T15:13:55Z</time><name>PT12652</name></trkpt>
<trkpt lat="53.462242" lon="05.849904"><ele>13.9</ele><time>2021-02-18T15:13:56Z</time><name>PT12653</name></trkpt>
<trkpt lat="53.462238" lon="05.849886"><ele>13.9</ele><time>2021-02-18T15:13:57Z</time><name>PT12654</name></trkpt>
<trkpt lat="53.462234" lon="05.849869"><ele>13.8</ele><time>2021-02-18T15:13:58Z</time><name>PT12655</name></trkpt>
<trkpt lat="53.462232" lon="05.849851"><ele>13.7</ele><time>2021-02-18T15:13:59Z</time><name>PT12656</name></trkpt>
<trkpt lat="53.462230" lon="05.849834"><ele>13.8</ele><time>2021-02-18T15:14:00Z</time><name>PT12657</name></trkpt>
<trkpt lat="53.462229" lon="05.849816"><ele>13.8</ele><time>2021-02-18T15:14:01Z</time><name>PT12658</name></trkpt>
<trkpt lat="53.462226" lon="05.849796"><ele>13.9</ele><time>2021-02-18T15:14:02Z</time><name>PT12659</name></trkpt>
<trkpt lat="53.462225" lon="05.849775"><ele>14.1</ele><time>2021-02-18T15:14:03Z</time><name>PT12660</name></trkpt>
<trkpt lat="53.462225" lon="05.849756"><ele>14</ele><time>2021-02-18T15:14:04Z</time><name>PT12661</name></trkpt>
<trkpt lat="53.462224" lon="05.849736"><ele>14.1</ele><time>2021-02-18T15:14:05Z</time><name>PT12662</name></trkpt>
<trkpt lat="53.462225" lon="05.849717"><ele>14.3</ele><time>2021-02-18T15:14:06Z</time><name>PT12663</name></trkpt>
<trkpt lat="53.462226" lon="05.849699"><ele>14.4</ele><time>2021-02-18T15:14:07Z</time><name>PT12664</name></trkpt>
<trkpt lat="53.462226" lon="05.849680"><ele>14.3</ele><time>2021-02-18T15:14:08Z</time><name>PT12665</name></trkpt>
<trkpt lat="53.462227" lon="05.849660"><ele>14.5</ele><time>2021-02-18T15:14:09Z</time><name>PT12666</name></trkpt>
<trkpt lat="53.462229" lon="05.849639"><ele>14.6</ele><time>2021-02-18T15:14:10Z</time><name>PT12667</name></trkpt>
<trkpt lat="53.462231" lon="05.849618"><ele>14.6</ele><time>2021-02-18T15:14:11Z</time><name>PT12668</name></trkpt>
<trkpt lat="53.462233" lon="05.849598"><ele>14.7</ele><time>2021-02-18T15:14:12Z</time><name>PT12669</name></trkpt>
<trkpt lat="53.462232" lon="05.849578"><ele>14.9</ele><time>2021-02-18T15:14:13Z</time><name>PT12670</name></trkpt>
<trkpt lat="53.462233" lon="05.849558"><ele>14.9</ele><time>2021-02-18T15:14:14Z</time><name>PT12671</name></trkpt>
<trkpt lat="53.462231" lon="05.849539"><ele>14.9</ele><time>2021-02-18T15:14:15Z</time><name>PT12672</name></trkpt>
<trkpt lat="53.462231" lon="05.849520"><ele>14.9</ele><time>2021-02-18T15:14:16Z</time><name>PT12673</name></trkpt>
<trkpt lat="53.462231" lon="05.849499"><ele>14.9</ele><time>2021-02-18T15:14:17Z</time><name>PT12674</name></trkpt>
<trkpt lat="53.462230" lon="05.849480"><ele>14.9</ele><time>2021-02-18T15:14:18Z</time><name>PT12675</name></trkpt>
<trkpt lat="53.462229" lon="05.849460"><ele>14.8</ele><time>2021-02-18T15:14:19Z</time><name>PT12676</name></trkpt>
<trkpt lat="53.462227" lon="05.849439"><ele>14.7</ele><time>2021-02-18T15:14:20Z</time><name>PT12677</name></trkpt>
<trkpt lat="53.462226" lon="05.849420"><ele>14.7</ele><time>2021-02-18T15:14:21Z</time><name>PT12678</name></trkpt>
<trkpt lat="53.462224" lon="05.849401"><ele>14.9</ele><time>2021-02-18T15:14:22Z</time><name>PT12679</name></trkpt>
<trkpt lat="53.462222" lon="05.849383"><ele>14.9</ele><time>2021-02-18T15:14:23Z</time><name>PT12680</name></trkpt>
<trkpt lat="53.462221" lon="05.849366"><ele>14.9</ele><time>2021-02-18T15:14:24Z</time><name>PT12681</name></trkpt>
<trkpt lat="53.462220" lon="05.849347"><ele>15.1</ele><time>2021-02-18T15:14:25Z</time><name>PT12682</name></trkpt>
<trkpt lat="53.462219" lon="05.849328"><ele>15.1</ele><time>2021-02-18T15:14:26Z</time><name>PT12683</name></trkpt>
<trkpt lat="53.462218" lon="05.849309"><ele>14.9</ele><time>2021-02-18T15:14:27Z</time><name>PT12684</name></trkpt>
<trkpt lat="53.462218" lon="05.849289"><ele>14.9</ele><time>2021-02-18T15:14:28Z</time><name>PT12685</name></trkpt>
<trkpt lat="53.462217" lon="05.849267"><ele>14.8</ele><time>2021-02-18T15:14:29Z</time><name>PT12686</name></trkpt>
<trkpt lat="53.462216" lon="05.849245"><ele>14.9</ele><time>2021-02-18T15:14:30Z</time><name>PT12687</name></trkpt>
<trkpt lat="53.462214" lon="05.849226"><ele>14.8</ele><time>2021-02-18T15:14:31Z</time><name>PT12688</name></trkpt>
<trkpt lat="53.462212" lon="05.849205"><ele>14.8</ele><time>2021-02-18T15:14:32Z</time><name>PT12689</name></trkpt>
<trkpt lat="53.462210" lon="05.849185"><ele>14.6</ele><time>2021-02-18T15:14:33Z</time><name>PT12690</name></trkpt>
<trkpt lat="53.462207" lon="05.849165"><ele>14.5</ele><time>2021-02-18T15:14:34Z</time><name>PT12691</name></trkpt>
<trkpt lat="53.462205" lon="05.849146"><ele>14.5</ele><time>2021-02-18T15:14:35Z</time><name>PT12692</name></trkpt>
<trkpt lat="53.462202" lon="05.849128"><ele>14.6</ele><time>2021-02-18T15:14:36Z</time><name>PT12693</name></trkpt>
<trkpt lat="53.462200" lon="05.849111"><ele>14.7</ele><time>2021-02-18T15:14:37Z</time><name>PT12694</name></trkpt>
<trkpt lat="53.462196" lon="05.849092"><ele>14.4</ele><time>2021-02-18T15:14:38Z</time><name>PT12695</name></trkpt>
<trkpt lat="53.462192" lon="05.849072"><ele>14.4</ele><time>2021-02-18T15:14:39Z</time><name>PT12696</name></trkpt>
<trkpt lat="53.462190" lon="05.849052"><ele>14.4</ele><time>2021-02-18T15:14:40Z</time><name>PT12697</name></trkpt>
<trkpt lat="53.462187" lon="05.849034"><ele>14.3</ele><time>2021-02-18T15:14:41Z</time><name>PT12698</name></trkpt>
<trkpt lat="53.462185" lon="05.849016"><ele>14.2</ele><time>2021-02-18T15:14:42Z</time><name>PT12699</name></trkpt>
<trkpt lat="53.462183" lon="05.848997"><ele>14.3</ele><time>2021-02-18T15:14:43Z</time><name>PT12700</name></trkpt>
<trkpt lat="53.462181" lon="05.848978"><ele>14.3</ele><time>2021-02-18T15:14:44Z</time><name>PT12701</name></trkpt>
<trkpt lat="53.462179" lon="05.848957"><ele>14.3</ele><time>2021-02-18T15:14:45Z</time><name>PT12702</name></trkpt>
<trkpt lat="53.462179" lon="05.848936"><ele>14.3</ele><time>2021-02-18T15:14:46Z</time><name>PT12703</name></trkpt>
<trkpt lat="53.462178" lon="05.848916"><ele>14.4</ele><time>2021-02-18T15:14:47Z</time><name>PT12704</name></trkpt>
<trkpt lat="53.462176" lon="05.848896"><ele>14.3</ele><time>2021-02-18T15:14:48Z</time><name>PT12705</name></trkpt>
<trkpt lat="53.462174" lon="05.848876"><ele>14.3</ele><time>2021-02-18T15:14:49Z</time><name>PT12706</name></trkpt>
<trkpt lat="53.462173" lon="05.848856"><ele>14.2</ele><time>2021-02-18T15:14:50Z</time><name>PT12707</name></trkpt>
<trkpt lat="53.462172" lon="05.848835"><ele>14.3</ele><time>2021-02-18T15:14:51Z</time><name>PT12708</name></trkpt>
<trkpt lat="53.462171" lon="05.848815"><ele>14.2</ele><time>2021-02-18T15:14:52Z</time><name>PT12709</name></trkpt>
<trkpt lat="53.462171" lon="05.848795"><ele>14.1</ele><time>2021-02-18T15:14:53Z</time><name>PT12710</name></trkpt>
<trkpt lat="53.462170" lon="05.848776"><ele>14</ele><time>2021-02-18T15:14:54Z</time><name>PT12711</name></trkpt>
<trkpt lat="53.462170" lon="05.848758"><ele>14</ele><time>2021-02-18T15:14:55Z</time><name>PT12712</name></trkpt>
<trkpt lat="53.462169" lon="05.848738"><ele>13.9</ele><time>2021-02-18T15:14:56Z</time><name>PT12713</name></trkpt>
<trkpt lat="53.462170" lon="05.848718"><ele>13.9</ele><time>2021-02-18T15:14:57Z</time><name>PT12714</name></trkpt>
<trkpt lat="53.462171" lon="05.848698"><ele>14.1</ele><time>2021-02-18T15:14:58Z</time><name>PT12715</name></trkpt>
<trkpt lat="53.462175" lon="05.848678"><ele>14.1</ele><time>2021-02-18T15:14:59Z</time><name>PT12716</name></trkpt>
<trkpt lat="53.462177" lon="05.848658"><ele>14.2</ele><time>2021-02-18T15:15:00Z</time><name>PT12717</name></trkpt>
<trkpt lat="53.462181" lon="05.848638"><ele>14.2</ele><time>2021-02-18T15:15:01Z</time><name>PT12718</name></trkpt>
<trkpt lat="53.462185" lon="05.848617"><ele>14.1</ele><time>2021-02-18T15:15:02Z</time><name>PT12719</name></trkpt>
<trkpt lat="53.462189" lon="05.848596"><ele>13.9</ele><time>2021-02-18T15:15:03Z</time><name>PT12720</name></trkpt>
<trkpt lat="53.462191" lon="05.848575"><ele>14.1</ele><time>2021-02-18T15:15:04Z</time><name>PT12721</name></trkpt>
<trkpt lat="53.462193" lon="05.848555"><ele>14</ele><time>2021-02-18T15:15:05Z</time><name>PT12722</name></trkpt>
<trkpt lat="53.462195" lon="05.848535"><ele>14</ele><time>2021-02-18T15:15:06Z</time><name>PT12723</name></trkpt>
<trkpt lat="53.462197" lon="05.848515"><ele>14.2</ele><time>2021-02-18T15:15:07Z</time><name>PT12724</name></trkpt>
<trkpt lat="53.462199" lon="05.848493"><ele>14.3</ele><time>2021-02-18T15:15:08Z</time><name>PT12725</name></trkpt>
<trkpt lat="53.462201" lon="05.848473"><ele>14</ele><time>2021-02-18T15:15:09Z</time><name>PT12726</name></trkpt>
<trkpt lat="53.462202" lon="05.848452"><ele>13.9</ele><time>2021-02-18T15:15:10Z</time><name>PT12727</name></trkpt>
<trkpt lat="53.462204" lon="05.848432"><ele>13.9</ele><time>2021-02-18T15:15:11Z</time><name>PT12728</name></trkpt>
<trkpt lat="53.462205" lon="05.848411"><ele>13.8</ele><time>2021-02-18T15:15:12Z</time><name>PT12729</name></trkpt>
<trkpt lat="53.462206" lon="05.848390"><ele>13.8</ele><time>2021-02-18T15:15:13Z</time><name>PT12730</name></trkpt>
<trkpt lat="53.462207" lon="05.848370"><ele>13.9</ele><time>2021-02-18T15:15:14Z</time><name>PT12731</name></trkpt>
<trkpt lat="53.462208" lon="05.848351"><ele>13.9</ele><time>2021-02-18T15:15:15Z</time><name>PT12732</name></trkpt>
<trkpt lat="53.462210" lon="05.848332"><ele>13.9</ele><time>2021-02-18T15:15:16Z</time><name>PT12733</name></trkpt>
<trkpt lat="53.462213" lon="05.848314"><ele>13.9</ele><time>2021-02-18T15:15:17Z</time><name>PT12734</name></trkpt>
<trkpt lat="53.462215" lon="05.848295"><ele>14</ele><time>2021-02-18T15:15:18Z</time><name>PT12735</name></trkpt>
<trkpt lat="53.462219" lon="05.848275"><ele>14</ele><time>2021-02-18T15:15:19Z</time><name>PT12736</name></trkpt>
<trkpt lat="53.462222" lon="05.848254"><ele>14</ele><time>2021-02-18T15:15:20Z</time><name>PT12737</name></trkpt>
<trkpt lat="53.462224" lon="05.848233"><ele>13.9</ele><time>2021-02-18T15:15:21Z</time><name>PT12738</name></trkpt>
<trkpt lat="53.462226" lon="05.848212"><ele>14</ele><time>2021-02-18T15:15:22Z</time><name>PT12739</name></trkpt>
<trkpt lat="53.462228" lon="05.848192"><ele>13.9</ele><time>2021-02-18T15:15:23Z</time><name>PT12740</name></trkpt>
<trkpt lat="53.462230" lon="05.848173"><ele>14.1</ele><time>2021-02-18T15:15:24Z</time><name>PT12741</name></trkpt>
<trkpt lat="53.462232" lon="05.848154"><ele>14.1</ele><time>2021-02-18T15:15:25Z</time><name>PT12742</name></trkpt>
<trkpt lat="53.462234" lon="05.848134"><ele>14.1</ele><time>2021-02-18T15:15:26Z</time><name>PT12743</name></trkpt>
<trkpt lat="53.462236" lon="05.848116"><ele>14.1</ele><time>2021-02-18T15:15:27Z</time><name>PT12744</name></trkpt>
<trkpt lat="53.462237" lon="05.848099"><ele>13.9</ele><time>2021-02-18T15:15:28Z</time><name>PT12745</name></trkpt>
<trkpt lat="53.462240" lon="05.848081"><ele>13.9</ele><time>2021-02-18T15:15:29Z</time><name>PT12746</name></trkpt>
<trkpt lat="53.462243" lon="05.848064"><ele>13.8</ele><time>2021-02-18T15:15:30Z</time><name>PT12747</name></trkpt>
<trkpt lat="53.462248" lon="05.848049"><ele>13.8</ele><time>2021-02-18T15:15:31Z</time><name>PT12748</name></trkpt>
<trkpt lat="53.462252" lon="05.848033"><ele>13.8</ele><time>2021-02-18T15:15:32Z</time><name>PT12749</name></trkpt>
<trkpt lat="53.462257" lon="05.848016"><ele>13.8</ele><time>2021-02-18T15:15:33Z</time><name>PT12750</name></trkpt>
<trkpt lat="53.462261" lon="05.848000"><ele>13.8</ele><time>2021-02-18T15:15:34Z</time><name>PT12751</name></trkpt>
<trkpt lat="53.462265" lon="05.847987"><ele>13.8</ele><time>2021-02-18T15:15:35Z</time><name>PT12752</name></trkpt>
<trkpt lat="53.462266" lon="05.847971"><ele>13.7</ele><time>2021-02-18T15:15:36Z</time><name>PT12753</name></trkpt>
<trkpt lat="53.462267" lon="05.847952"><ele>13.7</ele><time>2021-02-18T15:15:37Z</time><name>PT12754</name></trkpt>
<trkpt lat="53.462270" lon="05.847936"><ele>13.7</ele><time>2021-02-18T15:15:38Z</time><name>PT12755</name></trkpt>
<trkpt lat="53.462273" lon="05.847922"><ele>13.8</ele><time>2021-02-18T15:15:39Z</time><name>PT12756</name></trkpt>
<trkpt lat="53.462274" lon="05.847909"><ele>13.8</ele><time>2021-02-18T15:15:40Z</time><name>PT12757</name></trkpt>
<trkpt lat="53.462278" lon="05.847905"><ele>13.6</ele><time>2021-02-18T15:15:41Z</time><name>PT12758</name></trkpt>
<trkpt lat="53.462278" lon="05.847902"><ele>13.3</ele><time>2021-02-18T15:15:42Z</time><name>PT12759</name></trkpt>
<trkpt lat="53.462279" lon="05.847893"><ele>13.1</ele><time>2021-02-18T15:15:43Z</time><name>PT12760</name></trkpt>
<trkpt lat="53.462281" lon="05.847882"><ele>12.9</ele><time>2021-02-18T15:15:44Z</time><name>PT12761</name></trkpt>
<trkpt lat="53.462284" lon="05.847870"><ele>12.9</ele><time>2021-02-18T15:15:45Z</time><name>PT12762</name></trkpt>
<trkpt lat="53.462285" lon="05.847859"><ele>13.2</ele><time>2021-02-18T15:15:46Z</time><name>PT12763</name></trkpt>
<trkpt lat="53.462285" lon="05.847853"><ele>13.3</ele><time>2021-02-18T15:15:47Z</time><name>PT12764</name></trkpt>
<trkpt lat="53.462284" lon="05.847852"><ele>13.3</ele><time>2021-02-18T15:15:48Z</time><name>PT12765</name></trkpt>
<trkpt lat="53.462283" lon="05.847850"><ele>13.4</ele><time>2021-02-18T15:15:49Z</time><name>PT12766</name></trkpt>
<trkpt lat="53.462278" lon="05.847846"><ele>12.9</ele><time>2021-02-18T15:15:59Z</time><name>PT12767</name></trkpt>
<trkpt lat="53.462274" lon="05.847846"><ele>13</ele><time>2021-02-18T15:16:00Z</time><name>PT12768</name></trkpt>
<trkpt lat="53.462274" lon="05.847848"><ele>12.9</ele><time>2021-02-18T15:16:01Z</time><name>PT12769</name></trkpt>
<trkpt lat="53.462277" lon="05.847843"><ele>13.3</ele><time>2021-02-18T15:16:05Z</time><name>PT12770</name></trkpt>
<trkpt lat="53.462281" lon="05.847830"><ele>13.3</ele><time>2021-02-18T15:16:06Z</time><name>PT12771</name></trkpt>
<trkpt lat="53.462284" lon="05.847818"><ele>13.3</ele><time>2021-02-18T15:16:07Z</time><name>PT12772</name></trkpt>
<trkpt lat="53.462284" lon="05.847807"><ele>13.3</ele><time>2021-02-18T15:16:08Z</time><name>PT12773</name></trkpt>
<trkpt lat="53.462283" lon="05.847787"><ele>13.2</ele><time>2021-02-18T15:16:09Z</time><name>PT12774</name></trkpt>
<trkpt lat="53.462284" lon="05.847770"><ele>13.1</ele><time>2021-02-18T15:16:10Z</time><name>PT12775</name></trkpt>
<trkpt lat="53.462287" lon="05.847754"><ele>13</ele><time>2021-02-18T15:16:11Z</time><name>PT12776</name></trkpt>
<trkpt lat="53.462289" lon="05.847740"><ele>13.1</ele><time>2021-02-18T15:16:12Z</time><name>PT12777</name></trkpt>
<trkpt lat="53.462291" lon="05.847722"><ele>12.9</ele><time>2021-02-18T15:16:13Z</time><name>PT12778</name></trkpt>
<trkpt lat="53.462292" lon="05.847708"><ele>12.9</ele><time>2021-02-18T15:16:14Z</time><name>PT12779</name></trkpt>
<trkpt lat="53.462294" lon="05.847699"><ele>12.8</ele><time>2021-02-18T15:16:15Z</time><name>PT12780</name></trkpt>
<trkpt lat="53.462294" lon="05.847688"><ele>12.7</ele><time>2021-02-18T15:16:16Z</time><name>PT12781</name></trkpt>
<trkpt lat="53.462298" lon="05.847677"><ele>12.7</ele><time>2021-02-18T15:16:17Z</time><name>PT12782</name></trkpt>
<trkpt lat="53.462300" lon="05.847665"><ele>12.7</ele><time>2021-02-18T15:16:18Z</time><name>PT12783</name></trkpt>
<trkpt lat="53.462303" lon="05.847648"><ele>12.8</ele><time>2021-02-18T15:16:19Z</time><name>PT12784</name></trkpt>
<trkpt lat="53.462305" lon="05.847629"><ele>12.8</ele><time>2021-02-18T15:16:20Z</time><name>PT12785</name></trkpt>
<trkpt lat="53.462307" lon="05.847615"><ele>12.8</ele><time>2021-02-18T15:16:21Z</time><name>PT12786</name></trkpt>
<trkpt lat="53.462307" lon="05.847600"><ele>12.8</ele><time>2021-02-18T15:16:22Z</time><name>PT12787</name></trkpt>
<trkpt lat="53.462307" lon="05.847583"><ele>12.7</ele><time>2021-02-18T15:16:23Z</time><name>PT12788</name></trkpt>
<trkpt lat="53.462308" lon="05.847568"><ele>12.6</ele><time>2021-02-18T15:16:24Z</time><name>PT12789</name></trkpt>
<trkpt lat="53.462314" lon="05.847558"><ele>12.7</ele><time>2021-02-18T15:16:25Z</time><name>PT12790</name></trkpt>
<trkpt lat="53.462314" lon="05.847542"><ele>12.7</ele><time>2021-02-18T15:16:26Z</time><name>PT12791</name></trkpt>
<trkpt lat="53.462314" lon="05.847525"><ele>12.7</ele><time>2021-02-18T15:16:27Z</time><name>PT12792</name></trkpt>
<trkpt lat="53.462315" lon="05.847508"><ele>12.7</ele><time>2021-02-18T15:16:28Z</time><name>PT12793</name></trkpt>
<trkpt lat="53.462314" lon="05.847489"><ele>12.7</ele><time>2021-02-18T15:16:29Z</time><name>PT12794</name></trkpt>
<trkpt lat="53.462314" lon="05.847469"><ele>12.7</ele><time>2021-02-18T15:16:30Z</time><name>PT12795</name></trkpt>
<trkpt lat="53.462313" lon="05.847449"><ele>12.8</ele><time>2021-02-18T15:16:31Z</time><name>PT12796</name></trkpt>
<trkpt lat="53.462312" lon="05.847427"><ele>12.8</ele><time>2021-02-18T15:16:32Z</time><name>PT12797</name></trkpt>
<trkpt lat="53.462312" lon="05.847404"><ele>13</ele><time>2021-02-18T15:16:33Z</time><name>PT12798</name></trkpt>
<trkpt lat="53.462313" lon="05.847383"><ele>13</ele><time>2021-02-18T15:16:34Z</time><name>PT12799</name></trkpt>
<trkpt lat="53.462311" lon="05.847367"><ele>13</ele><time>2021-02-18T15:16:35Z</time><name>PT12800</name></trkpt>
<trkpt lat="53.462311" lon="05.847350"><ele>13.1</ele><time>2021-02-18T15:16:36Z</time><name>PT12801</name></trkpt>
<trkpt lat="53.462315" lon="05.847333"><ele>13</ele><time>2021-02-18T15:16:37Z</time><name>PT12802</name></trkpt>
<trkpt lat="53.462317" lon="05.847314"><ele>13</ele><time>2021-02-18T15:16:38Z</time><name>PT12803</name></trkpt>
<trkpt lat="53.462319" lon="05.847292"><ele>13.1</ele><time>2021-02-18T15:16:39Z</time><name>PT12804</name></trkpt>
<trkpt lat="53.462321" lon="05.847268"><ele>13.1</ele><time>2021-02-18T15:16:40Z</time><name>PT12805</name></trkpt>
<trkpt lat="53.462324" lon="05.847251"><ele>13.2</ele><time>2021-02-18T15:16:41Z</time><name>PT12806</name></trkpt>
<trkpt lat="53.462327" lon="05.847232"><ele>13.2</ele><time>2021-02-18T15:16:42Z</time><name>PT12807</name></trkpt>
<trkpt lat="53.462329" lon="05.847213"><ele>13.3</ele><time>2021-02-18T15:16:43Z</time><name>PT12808</name></trkpt>
<trkpt lat="53.462330" lon="05.847192"><ele>13.4</ele><time>2021-02-18T15:16:44Z</time><name>PT12809</name></trkpt>
<trkpt lat="53.462332" lon="05.847171"><ele>13.5</ele><time>2021-02-18T15:16:45Z</time><name>PT12810</name></trkpt>
<trkpt lat="53.462334" lon="05.847154"><ele>13.4</ele><time>2021-02-18T15:16:46Z</time><name>PT12811</name></trkpt>
<trkpt lat="53.462337" lon="05.847136"><ele>13.5</ele><time>2021-02-18T15:16:47Z</time><name>PT12812</name></trkpt>
<trkpt lat="53.462340" lon="05.847117"><ele>13.5</ele><time>2021-02-18T15:16:48Z</time><name>PT12813</name></trkpt>
<trkpt lat="53.462345" lon="05.847100"><ele>13.5</ele><time>2021-02-18T15:16:49Z</time><name>PT12814</name></trkpt>
<trkpt lat="53.462350" lon="05.847082"><ele>13.5</ele><time>2021-02-18T15:16:50Z</time><name>PT12815</name></trkpt>
<trkpt lat="53.462356" lon="05.847064"><ele>13.7</ele><time>2021-02-18T15:16:51Z</time><name>PT12816</name></trkpt>
<trkpt lat="53.462362" lon="05.847046"><ele>13.8</ele><time>2021-02-18T15:16:52Z</time><name>PT12817</name></trkpt>
<trkpt lat="53.462366" lon="05.847027"><ele>13.9</ele><time>2021-02-18T15:16:53Z</time><name>PT12818</name></trkpt>
<trkpt lat="53.462370" lon="05.847008"><ele>14.1</ele><time>2021-02-18T15:16:54Z</time><name>PT12819</name></trkpt>
<trkpt lat="53.462375" lon="05.846990"><ele>14</ele><time>2021-02-18T15:16:55Z</time><name>PT12820</name></trkpt>
<trkpt lat="53.462380" lon="05.846969"><ele>14</ele><time>2021-02-18T15:16:56Z</time><name>PT12821</name></trkpt>
<trkpt lat="53.462383" lon="05.846950"><ele>14.2</ele><time>2021-02-18T15:16:57Z</time><name>PT12822</name></trkpt>
<trkpt lat="53.462386" lon="05.846931"><ele>14.1</ele><time>2021-02-18T15:16:58Z</time><name>PT12823</name></trkpt>
<trkpt lat="53.462391" lon="05.846913"><ele>14</ele><time>2021-02-18T15:16:59Z</time><name>PT12824</name></trkpt>
<trkpt lat="53.462394" lon="05.846894"><ele>14.1</ele><time>2021-02-18T15:17:00Z</time><name>PT12825</name></trkpt>
<trkpt lat="53.462398" lon="05.846875"><ele>14.1</ele><time>2021-02-18T15:17:01Z</time><name>PT12826</name></trkpt>
<trkpt lat="53.462400" lon="05.846857"><ele>14</ele><time>2021-02-18T15:17:02Z</time><name>PT12827</name></trkpt>
<trkpt lat="53.462402" lon="05.846840"><ele>13.8</ele><time>2021-02-18T15:17:03Z</time><name>PT12828</name></trkpt>
<trkpt lat="53.462404" lon="05.846822"><ele>13.8</ele><time>2021-02-18T15:17:04Z</time><name>PT12829</name></trkpt>
<trkpt lat="53.462407" lon="05.846806"><ele>13.8</ele><time>2021-02-18T15:17:05Z</time><name>PT12830</name></trkpt>
<trkpt lat="53.462410" lon="05.846790"><ele>13.8</ele><time>2021-02-18T15:17:06Z</time><name>PT12831</name></trkpt>
<trkpt lat="53.462412" lon="05.846773"><ele>14</ele><time>2021-02-18T15:17:07Z</time><name>PT12832</name></trkpt>
<trkpt lat="53.462414" lon="05.846757"><ele>14.3</ele><time>2021-02-18T15:17:08Z</time><name>PT12833</name></trkpt>
<trkpt lat="53.462416" lon="05.846741"><ele>14.3</ele><time>2021-02-18T15:17:09Z</time><name>PT12834</name></trkpt>
<trkpt lat="53.462418" lon="05.846723"><ele>14.4</ele><time>2021-02-18T15:17:10Z</time><name>PT12835</name></trkpt>
<trkpt lat="53.462421" lon="05.846705"><ele>14.4</ele><time>2021-02-18T15:17:11Z</time><name>PT12836</name></trkpt>
<trkpt lat="53.462423" lon="05.846685"><ele>14.5</ele><time>2021-02-18T15:17:12Z</time><name>PT12837</name></trkpt>
<trkpt lat="53.462425" lon="05.846667"><ele>14.7</ele><time>2021-02-18T15:17:13Z</time><name>PT12838</name></trkpt>
<trkpt lat="53.462426" lon="05.846646"><ele>14.8</ele><time>2021-02-18T15:17:14Z</time><name>PT12839</name></trkpt>
<trkpt lat="53.462428" lon="05.846625"><ele>14.9</ele><time>2021-02-18T15:17:15Z</time><name>PT12840</name></trkpt>
<trkpt lat="53.462429" lon="05.846606"><ele>14.9</ele><time>2021-02-18T15:17:16Z</time><name>PT12841</name></trkpt>
<trkpt lat="53.462429" lon="05.846588"><ele>14.7</ele><time>2021-02-18T15:17:17Z</time><name>PT12842</name></trkpt>
<trkpt lat="53.462428" lon="05.846566"><ele>14.4</ele><time>2021-02-18T15:17:18Z</time><name>PT12843</name></trkpt>
<trkpt lat="53.462427" lon="05.846546"><ele>14.5</ele><time>2021-02-18T15:17:19Z</time><name>PT12844</name></trkpt>
<trkpt lat="53.462425" lon="05.846527"><ele>14.6</ele><time>2021-02-18T15:17:20Z</time><name>PT12845</name></trkpt>
<trkpt lat="53.462423" lon="05.846504"><ele>14.6</ele><time>2021-02-18T15:17:21Z</time><name>PT12846</name></trkpt>
<trkpt lat="53.462423" lon="05.846483"><ele>14.5</ele><time>2021-02-18T15:17:22Z</time><name>PT12847</name></trkpt>
<trkpt lat="53.462422" lon="05.846463"><ele>14.5</ele><time>2021-02-18T15:17:23Z</time><name>PT12848</name></trkpt>
<trkpt lat="53.462421" lon="05.846444"><ele>14.5</ele><time>2021-02-18T15:17:24Z</time><name>PT12849</name></trkpt>
<trkpt lat="53.462420" lon="05.846428"><ele>14.3</ele><time>2021-02-18T15:17:25Z</time><name>PT12850</name></trkpt>
<trkpt lat="53.462419" lon="05.846410"><ele>14.3</ele><time>2021-02-18T15:17:26Z</time><name>PT12851</name></trkpt>
<trkpt lat="53.462418" lon="05.846392"><ele>14.5</ele><time>2021-02-18T15:17:27Z</time><name>PT12852</name></trkpt>
<trkpt lat="53.462418" lon="05.846372"><ele>14.4</ele><time>2021-02-18T15:17:28Z</time><name>PT12853</name></trkpt>
<trkpt lat="53.462418" lon="05.846351"><ele>14.4</ele><time>2021-02-18T15:17:29Z</time><name>PT12854</name></trkpt>
<trkpt lat="53.462419" lon="05.846329"><ele>14.6</ele><time>2021-02-18T15:17:30Z</time><name>PT12855</name></trkpt>
<trkpt lat="53.462420" lon="05.846308"><ele>14.4</ele><time>2021-02-18T15:17:31Z</time><name>PT12856</name></trkpt>
<trkpt lat="53.462419" lon="05.846287"><ele>14.4</ele><time>2021-02-18T15:17:32Z</time><name>PT12857</name></trkpt>
<trkpt lat="53.462419" lon="05.846266"><ele>14.3</ele><time>2021-02-18T15:17:33Z</time><name>PT12858</name></trkpt>
<trkpt lat="53.462419" lon="05.846246"><ele>14.4</ele><time>2021-02-18T15:17:34Z</time><name>PT12859</name></trkpt>
<trkpt lat="53.462419" lon="05.846226"><ele>14.6</ele><time>2021-02-18T15:17:35Z</time><name>PT12860</name></trkpt>
<trkpt lat="53.462419" lon="05.846205"><ele>14.8</ele><time>2021-02-18T15:17:36Z</time><name>PT12861</name></trkpt>
<trkpt lat="53.462418" lon="05.846186"><ele>14.9</ele><time>2021-02-18T15:17:37Z</time><name>PT12862</name></trkpt>
<trkpt lat="53.462417" lon="05.846165"><ele>14.9</ele><time>2021-02-18T15:17:38Z</time><name>PT12863</name></trkpt>
<trkpt lat="53.462416" lon="05.846144"><ele>15</ele><time>2021-02-18T15:17:39Z</time><name>PT12864</name></trkpt>
<trkpt lat="53.462416" lon="05.846124"><ele>14.8</ele><time>2021-02-18T15:17:40Z</time><name>PT12865</name></trkpt>
<trkpt lat="53.462415" lon="05.846102"><ele>14.6</ele><time>2021-02-18T15:17:41Z</time><name>PT12866</name></trkpt>
<trkpt lat="53.462414" lon="05.846080"><ele>14.4</ele><time>2021-02-18T15:17:42Z</time><name>PT12867</name></trkpt>
<trkpt lat="53.462413" lon="05.846059"><ele>14.1</ele><time>2021-02-18T15:17:43Z</time><name>PT12868</name></trkpt>
<trkpt lat="53.462412" lon="05.846041"><ele>13.9</ele><time>2021-02-18T15:17:44Z</time><name>PT12869</name></trkpt>
<trkpt lat="53.462411" lon="05.846023"><ele>13.9</ele><time>2021-02-18T15:17:45Z</time><name>PT12870</name></trkpt>
<trkpt lat="53.462410" lon="05.846003"><ele>14.1</ele><time>2021-02-18T15:17:46Z</time><name>PT12871</name></trkpt>
<trkpt lat="53.462409" lon="05.845986"><ele>14</ele><time>2021-02-18T15:17:47Z</time><name>PT12872</name></trkpt>
<trkpt lat="53.462408" lon="05.845967"><ele>14.1</ele><time>2021-02-18T15:17:48Z</time><name>PT12873</name></trkpt>
<trkpt lat="53.462406" lon="05.845950"><ele>14.3</ele><time>2021-02-18T15:17:49Z</time><name>PT12874</name></trkpt>
<trkpt lat="53.462406" lon="05.845933"><ele>14.3</ele><time>2021-02-18T15:17:50Z</time><name>PT12875</name></trkpt>
<trkpt lat="53.462406" lon="05.845914"><ele>14.3</ele><time>2021-02-18T15:17:51Z</time><name>PT12876</name></trkpt>
<trkpt lat="53.462407" lon="05.845894"><ele>14.2</ele><time>2021-02-18T15:17:52Z</time><name>PT12877</name></trkpt>
<trkpt lat="53.462408" lon="05.845875"><ele>14.3</ele><time>2021-02-18T15:17:53Z</time><name>PT12878</name></trkpt>
<trkpt lat="53.462407" lon="05.845856"><ele>14.3</ele><time>2021-02-18T15:17:54Z</time><name>PT12879</name></trkpt>
<trkpt lat="53.462407" lon="05.845837"><ele>14.3</ele><time>2021-02-18T15:17:55Z</time><name>PT12880</name></trkpt>
<trkpt lat="53.462405" lon="05.845818"><ele>14.4</ele><time>2021-02-18T15:17:56Z</time><name>PT12881</name></trkpt>
<trkpt lat="53.462403" lon="05.845799"><ele>14.7</ele><time>2021-02-18T15:17:57Z</time><name>PT12882</name></trkpt>
<trkpt lat="53.462402" lon="05.845781"><ele>14.9</ele><time>2021-02-18T15:17:58Z</time><name>PT12883</name></trkpt>
<trkpt lat="53.462399" lon="05.845763"><ele>14.8</ele><time>2021-02-18T15:17:59Z</time><name>PT12884</name></trkpt>
<trkpt lat="53.462397" lon="05.845744"><ele>14.7</ele><time>2021-02-18T15:18:00Z</time><name>PT12885</name></trkpt>
<trkpt lat="53.462396" lon="05.845725"><ele>14.8</ele><time>2021-02-18T15:18:01Z</time><name>PT12886</name></trkpt>
<trkpt lat="53.462395" lon="05.845708"><ele>14.8</ele><time>2021-02-18T15:18:02Z</time><name>PT12887</name></trkpt>
<trkpt lat="53.462393" lon="05.845689"><ele>14.6</ele><time>2021-02-18T15:18:03Z</time><name>PT12888</name></trkpt>
<trkpt lat="53.462391" lon="05.845672"><ele>14.7</ele><time>2021-02-18T15:18:04Z</time><name>PT12889</name></trkpt>
<trkpt lat="53.462391" lon="05.845655"><ele>14.7</ele><time>2021-02-18T15:18:05Z</time><name>PT12890</name></trkpt>
<trkpt lat="53.462388" lon="05.845637"><ele>14.4</ele><time>2021-02-18T15:18:06Z</time><name>PT12891</name></trkpt>
<trkpt lat="53.462386" lon="05.845621"><ele>14.4</ele><time>2021-02-18T15:18:07Z</time><name>PT12892</name></trkpt>
<trkpt lat="53.462386" lon="05.845602"><ele>14.6</ele><time>2021-02-18T15:18:08Z</time><name>PT12893</name></trkpt>
<trkpt lat="53.462385" lon="05.845582"><ele>14.6</ele><time>2021-02-18T15:18:09Z</time><name>PT12894</name></trkpt>
<trkpt lat="53.462385" lon="05.845562"><ele>14.8</ele><time>2021-02-18T15:18:10Z</time><name>PT12895</name></trkpt>
<trkpt lat="53.462384" lon="05.845542"><ele>14.9</ele><time>2021-02-18T15:18:11Z</time><name>PT12896</name></trkpt>
<trkpt lat="53.462384" lon="05.845522"><ele>14.7</ele><time>2021-02-18T15:18:12Z</time><name>PT12897</name></trkpt>
<trkpt lat="53.462383" lon="05.845503"><ele>14.6</ele><time>2021-02-18T15:18:13Z</time><name>PT12898</name></trkpt>
<trkpt lat="53.462382" lon="05.845483"><ele>14.5</ele><time>2021-02-18T15:18:14Z</time><name>PT12899</name></trkpt>
<trkpt lat="53.462380" lon="05.845464"><ele>14.4</ele><time>2021-02-18T15:18:15Z</time><name>PT12900</name></trkpt>
<trkpt lat="53.462379" lon="05.845444"><ele>14.5</ele><time>2021-02-18T15:18:16Z</time><name>PT12901</name></trkpt>
<trkpt lat="53.462377" lon="05.845424"><ele>14.5</ele><time>2021-02-18T15:18:17Z</time><name>PT12902</name></trkpt>
<trkpt lat="53.462376" lon="05.845407"><ele>14.4</ele><time>2021-02-18T15:18:18Z</time><name>PT12903</name></trkpt>
<trkpt lat="53.462374" lon="05.845386"><ele>14.3</ele><time>2021-02-18T15:18:19Z</time><name>PT12904</name></trkpt>
<trkpt lat="53.462373" lon="05.845365"><ele>14.3</ele><time>2021-02-18T15:18:20Z</time><name>PT12905</name></trkpt>
<trkpt lat="53.462372" lon="05.845342"><ele>14.1</ele><time>2021-02-18T15:18:21Z</time><name>PT12906</name></trkpt>
<trkpt lat="53.462370" lon="05.845321"><ele>14.1</ele><time>2021-02-18T15:18:22Z</time><name>PT12907</name></trkpt>
<trkpt lat="53.462367" lon="05.845302"><ele>14.1</ele><time>2021-02-18T15:18:23Z</time><name>PT12908</name></trkpt>
<trkpt lat="53.462365" lon="05.845284"><ele>14.1</ele><time>2021-02-18T15:18:24Z</time><name>PT12909</name></trkpt>
<trkpt lat="53.462365" lon="05.845269"><ele>14.2</ele><time>2021-02-18T15:18:25Z</time><name>PT12910</name></trkpt>
<trkpt lat="53.462366" lon="05.845255"><ele>14.1</ele><time>2021-02-18T15:18:26Z</time><name>PT12911</name></trkpt>
<trkpt lat="53.462367" lon="05.845237"><ele>14.1</ele><time>2021-02-18T15:18:27Z</time><name>PT12912</name></trkpt>
<trkpt lat="53.462369" lon="05.845218"><ele>14.1</ele><time>2021-02-18T15:18:28Z</time><name>PT12913</name></trkpt>
<trkpt lat="53.462370" lon="05.845198"><ele>14</ele><time>2021-02-18T15:18:29Z</time><name>PT12914</name></trkpt>
<trkpt lat="53.462370" lon="05.845179"><ele>14</ele><time>2021-02-18T15:18:30Z</time><name>PT12915</name></trkpt>
<trkpt lat="53.462371" lon="05.845160"><ele>14.1</ele><time>2021-02-18T15:18:31Z</time><name>PT12916</name></trkpt>
<trkpt lat="53.462370" lon="05.845142"><ele>14.3</ele><time>2021-02-18T15:18:32Z</time><name>PT12917</name></trkpt>
<trkpt lat="53.462370" lon="05.845123"><ele>14.2</ele><time>2021-02-18T15:18:33Z</time><name>PT12918</name></trkpt>
<trkpt lat="53.462368" lon="05.845103"><ele>14.3</ele><time>2021-02-18T15:18:34Z</time><name>PT12919</name></trkpt>
<trkpt lat="53.462368" lon="05.845085"><ele>14.3</ele><time>2021-02-18T15:18:35Z</time><name>PT12920</name></trkpt>
<trkpt lat="53.462367" lon="05.845066"><ele>14.3</ele><time>2021-02-18T15:18:36Z</time><name>PT12921</name></trkpt>
<trkpt lat="53.462366" lon="05.845046"><ele>14.3</ele><time>2021-02-18T15:18:37Z</time><name>PT12922</name></trkpt>
<trkpt lat="53.462365" lon="05.845028"><ele>14.3</ele><time>2021-02-18T15:18:38Z</time><name>PT12923</name></trkpt>
<trkpt lat="53.462366" lon="05.845012"><ele>14.1</ele><time>2021-02-18T15:18:39Z</time><name>PT12924</name></trkpt>
<trkpt lat="53.462366" lon="05.844996"><ele>14.2</ele><time>2021-02-18T15:18:40Z</time><name>PT12925</name></trkpt>
<trkpt lat="53.462367" lon="05.844980"><ele>14.3</ele><time>2021-02-18T15:18:41Z</time><name>PT12926</name></trkpt>
<trkpt lat="53.462369" lon="05.844962"><ele>14.2</ele><time>2021-02-18T15:18:42Z</time><name>PT12927</name></trkpt>
<trkpt lat="53.462371" lon="05.844943"><ele>14.3</ele><time>2021-02-18T15:18:43Z</time><name>PT12928</name></trkpt>
<trkpt lat="53.462372" lon="05.844924"><ele>14.3</ele><time>2021-02-18T15:18:44Z</time><name>PT12929</name></trkpt>
<trkpt lat="53.462374" lon="05.844906"><ele>14.3</ele><time>2021-02-18T15:18:45Z</time><name>PT12930</name></trkpt>
<trkpt lat="53.462377" lon="05.844887"><ele>14.4</ele><time>2021-02-18T15:18:46Z</time><name>PT12931</name></trkpt>
<trkpt lat="53.462379" lon="05.844869"><ele>14.5</ele><time>2021-02-18T15:18:47Z</time><name>PT12932</name></trkpt>
<trkpt lat="53.462380" lon="05.844852"><ele>14.5</ele><time>2021-02-18T15:18:48Z</time><name>PT12933</name></trkpt>
<trkpt lat="53.462381" lon="05.844837"><ele>14.9</ele><time>2021-02-18T15:18:49Z</time><name>PT12934</name></trkpt>
<trkpt lat="53.462380" lon="05.844820"><ele>14.9</ele><time>2021-02-18T15:18:50Z</time><name>PT12935</name></trkpt>
<trkpt lat="53.462380" lon="05.844801"><ele>15.1</ele><time>2021-02-18T15:18:51Z</time><name>PT12936</name></trkpt>
<trkpt lat="53.462380" lon="05.844781"><ele>15.3</ele><time>2021-02-18T15:18:52Z</time><name>PT12937</name></trkpt>
<trkpt lat="53.462380" lon="05.844763"><ele>15.4</ele><time>2021-02-18T15:18:53Z</time><name>PT12938</name></trkpt>
<trkpt lat="53.462378" lon="05.844745"><ele>15.5</ele><time>2021-02-18T15:18:54Z</time><name>PT12939</name></trkpt>
<trkpt lat="53.462377" lon="05.844726"><ele>15.4</ele><time>2021-02-18T15:18:55Z</time><name>PT12940</name></trkpt>
<trkpt lat="53.462377" lon="05.844708"><ele>15.7</ele><time>2021-02-18T15:18:56Z</time><name>PT12941</name></trkpt>
<trkpt lat="53.462377" lon="05.844691"><ele>15.8</ele><time>2021-02-18T15:18:57Z</time><name>PT12942</name></trkpt>
<trkpt lat="53.462377" lon="05.844675"><ele>15.7</ele><time>2021-02-18T15:18:58Z</time><name>PT12943</name></trkpt>
<trkpt lat="53.462378" lon="05.844658"><ele>15.8</ele><time>2021-02-18T15:18:59Z</time><name>PT12944</name></trkpt>
<trkpt lat="53.462379" lon="05.844638"><ele>15.9</ele><time>2021-02-18T15:19:00Z</time><name>PT12945</name></trkpt>
<trkpt lat="53.462381" lon="05.844617"><ele>15.7</ele><time>2021-02-18T15:19:01Z</time><name>PT12946</name></trkpt>
<trkpt lat="53.462382" lon="05.844598"><ele>15.9</ele><time>2021-02-18T15:19:02Z</time><name>PT12947</name></trkpt>
<trkpt lat="53.462384" lon="05.844582"><ele>16</ele><time>2021-02-18T15:19:03Z</time><name>PT12948</name></trkpt>
<trkpt lat="53.462384" lon="05.844567"><ele>16.1</ele><time>2021-02-18T15:19:04Z</time><name>PT12949</name></trkpt>
<trkpt lat="53.462383" lon="05.844550"><ele>16.1</ele><time>2021-02-18T15:19:05Z</time><name>PT12950</name></trkpt>
<trkpt lat="53.462381" lon="05.844533"><ele>16.2</ele><time>2021-02-18T15:19:06Z</time><name>PT12951</name></trkpt>
<trkpt lat="53.462381" lon="05.844515"><ele>16.1</ele><time>2021-02-18T15:19:07Z</time><name>PT12952</name></trkpt>
<trkpt lat="53.462379" lon="05.844497"><ele>16.1</ele><time>2021-02-18T15:19:08Z</time><name>PT12953</name></trkpt>
<trkpt lat="53.462378" lon="05.844481"><ele>16.3</ele><time>2021-02-18T15:19:09Z</time><name>PT12954</name></trkpt>
<trkpt lat="53.462379" lon="05.844466"><ele>16.5</ele><time>2021-02-18T15:19:10Z</time><name>PT12955</name></trkpt>
<trkpt lat="53.462381" lon="05.844450"><ele>16.6</ele><time>2021-02-18T15:19:11Z</time><name>PT12956</name></trkpt>
<trkpt lat="53.462383" lon="05.844431"><ele>16.6</ele><time>2021-02-18T15:19:12Z</time><name>PT12957</name></trkpt>
<trkpt lat="53.462384" lon="05.844411"><ele>16.6</ele><time>2021-02-18T15:19:13Z</time><name>PT12958</name></trkpt>
<trkpt lat="53.462382" lon="05.844393"><ele>16.6</ele><time>2021-02-18T15:19:14Z</time><name>PT12959</name></trkpt>
<trkpt lat="53.462381" lon="05.844373"><ele>16.6</ele><time>2021-02-18T15:19:15Z</time><name>PT12960</name></trkpt>
<trkpt lat="53.462380" lon="05.844354"><ele>16.4</ele><time>2021-02-18T15:19:16Z</time><name>PT12961</name></trkpt>
<trkpt lat="53.462377" lon="05.844333"><ele>16.5</ele><time>2021-02-18T15:19:17Z</time><name>PT12962</name></trkpt>
<trkpt lat="53.462375" lon="05.844312"><ele>16.5</ele><time>2021-02-18T15:19:18Z</time><name>PT12963</name></trkpt>
<trkpt lat="53.462373" lon="05.844295"><ele>16.3</ele><time>2021-02-18T15:19:19Z</time><name>PT12964</name></trkpt>
<trkpt lat="53.462371" lon="05.844279"><ele>16.3</ele><time>2021-02-18T15:19:20Z</time><name>PT12965</name></trkpt>
<trkpt lat="53.462369" lon="05.844261"><ele>16.1</ele><time>2021-02-18T15:19:21Z</time><name>PT12966</name></trkpt>
<trkpt lat="53.462367" lon="05.844242"><ele>16.1</ele><time>2021-02-18T15:19:22Z</time><name>PT12967</name></trkpt>
<trkpt lat="53.462366" lon="05.844222"><ele>16.1</ele><time>2021-02-18T15:19:23Z</time><name>PT12968</name></trkpt>
<trkpt lat="53.462364" lon="05.844202"><ele>15.9</ele><time>2021-02-18T15:19:24Z</time><name>PT12969</name></trkpt>
<trkpt lat="53.462362" lon="05.844185"><ele>16</ele><time>2021-02-18T15:19:25Z</time><name>PT12970</name></trkpt>
<trkpt lat="53.462360" lon="05.844168"><ele>15.9</ele><time>2021-02-18T15:19:26Z</time><name>PT12971</name></trkpt>
<trkpt lat="53.462360" lon="05.844148"><ele>15.7</ele><time>2021-02-18T15:19:27Z</time><name>PT12972</name></trkpt>
<trkpt lat="53.462358" lon="05.844127"><ele>15.4</ele><time>2021-02-18T15:19:28Z</time><name>PT12973</name></trkpt>
<trkpt lat="53.462359" lon="05.844107"><ele>15.6</ele><time>2021-02-18T15:19:29Z</time><name>PT12974</name></trkpt>
<trkpt lat="53.462359" lon="05.844087"><ele>15.3</ele><time>2021-02-18T15:19:30Z</time><name>PT12975</name></trkpt>
<trkpt lat="53.462359" lon="05.844067"><ele>15.4</ele><time>2021-02-18T15:19:31Z</time><name>PT12976</name></trkpt>
<trkpt lat="53.462359" lon="05.844047"><ele>15.3</ele><time>2021-02-18T15:19:32Z</time><name>PT12977</name></trkpt>
<trkpt lat="53.462360" lon="05.844026"><ele>15.1</ele><time>2021-02-18T15:19:33Z</time><name>PT12978</name></trkpt>
<trkpt lat="53.462360" lon="05.844007"><ele>15.2</ele><time>2021-02-18T15:19:34Z</time><name>PT12979</name></trkpt>
<trkpt lat="53.462361" lon="05.843988"><ele>15.3</ele><time>2021-02-18T15:19:35Z</time><name>PT12980</name></trkpt>
<trkpt lat="53.462361" lon="05.843966"><ele>15.1</ele><time>2021-02-18T15:19:36Z</time><name>PT12981</name></trkpt>
<trkpt lat="53.462364" lon="05.843943"><ele>14.9</ele><time>2021-02-18T15:19:37Z</time><name>PT12982</name></trkpt>
<trkpt lat="53.462365" lon="05.843921"><ele>14.9</ele><time>2021-02-18T15:19:38Z</time><name>PT12983</name></trkpt>
<trkpt lat="53.462366" lon="05.843901"><ele>14.9</ele><time>2021-02-18T15:19:39Z</time><name>PT12984</name></trkpt>
<trkpt lat="53.462368" lon="05.843880"><ele>14.9</ele><time>2021-02-18T15:19:40Z</time><name>PT12985</name></trkpt>
<trkpt lat="53.462370" lon="05.843862"><ele>14.7</ele><time>2021-02-18T15:19:41Z</time><name>PT12986</name></trkpt>
<trkpt lat="53.462373" lon="05.843842"><ele>14.9</ele><time>2021-02-18T15:19:42Z</time><name>PT12987</name></trkpt>
<trkpt lat="53.462376" lon="05.843823"><ele>14.9</ele><time>2021-02-18T15:19:43Z</time><name>PT12988</name></trkpt>
<trkpt lat="53.462378" lon="05.843803"><ele>14.9</ele><time>2021-02-18T15:19:44Z</time><name>PT12989</name></trkpt>
<trkpt lat="53.462380" lon="05.843784"><ele>14.7</ele><time>2021-02-18T15:19:45Z</time><name>PT12990</name></trkpt>
<trkpt lat="53.462383" lon="05.843765"><ele>14.9</ele><time>2021-02-18T15:19:46Z</time><name>PT12991</name></trkpt>
<trkpt lat="53.462386" lon="05.843746"><ele>14.8</ele><time>2021-02-18T15:19:47Z</time><name>PT12992</name></trkpt>
<trkpt lat="53.462389" lon="05.843728"><ele>14.7</ele><time>2021-02-18T15:19:48Z</time><name>PT12993</name></trkpt>
<trkpt lat="53.462393" lon="05.843710"><ele>14.9</ele><time>2021-02-18T15:19:49Z</time><name>PT12994</name></trkpt>
<trkpt lat="53.462399" lon="05.843691"><ele>14.9</ele><time>2021-02-18T15:19:50Z</time><name>PT12995</name></trkpt>
<trkpt lat="53.462403" lon="05.843671"><ele>14.8</ele><time>2021-02-18T15:19:51Z</time><name>PT12996</name></trkpt>
<trkpt lat="53.462409" lon="05.843650"><ele>14.9</ele><time>2021-02-18T15:19:52Z</time><name>PT12997</name></trkpt>
<trkpt lat="53.462413" lon="05.843629"><ele>14.8</ele><time>2021-02-18T15:19:53Z</time><name>PT12998</name></trkpt>
<trkpt lat="53.462417" lon="05.843610"><ele>14.7</ele><time>2021-02-18T15:19:54Z</time><name>PT12999</name></trkpt>
<trkpt lat="53.462421" lon="05.843590"><ele>14.7</ele><time>2021-02-18T15:19:55Z</time><name>PT13000</name></trkpt>
<trkpt lat="53.462424" lon="05.843571"><ele>14.7</ele><time>2021-02-18T15:19:56Z</time><name>PT13001</name></trkpt>
<trkpt lat="53.462427" lon="05.843551"><ele>14.5</ele><time>2021-02-18T15:19:57Z</time><name>PT13002</name></trkpt>
<trkpt lat="53.462429" lon="05.843531"><ele>14.4</ele><time>2021-02-18T15:19:58Z</time><name>PT13003</name></trkpt>
<trkpt lat="53.462430" lon="05.843510"><ele>14.3</ele><time>2021-02-18T15:19:59Z</time><name>PT13004</name></trkpt>
<trkpt lat="53.462431" lon="05.843489"><ele>14.3</ele><time>2021-02-18T15:20:00Z</time><name>PT13005</name></trkpt>
<trkpt lat="53.462434" lon="05.843469"><ele>14.3</ele><time>2021-02-18T15:20:01Z</time><name>PT13006</name></trkpt>
<trkpt lat="53.462436" lon="05.843450"><ele>14.2</ele><time>2021-02-18T15:20:02Z</time><name>PT13007</name></trkpt>
<trkpt lat="53.462438" lon="05.843432"><ele>14.3</ele><time>2021-02-18T15:20:03Z</time><name>PT13008</name></trkpt>
<trkpt lat="53.462439" lon="05.843414"><ele>14.1</ele><time>2021-02-18T15:20:04Z</time><name>PT13009</name></trkpt>
<trkpt lat="53.462441" lon="05.843397"><ele>14.2</ele><time>2021-02-18T15:20:05Z</time><name>PT13010</name></trkpt>
<trkpt lat="53.462441" lon="05.843377"><ele>14.2</ele><time>2021-02-18T15:20:06Z</time><name>PT13011</name></trkpt>
<trkpt lat="53.462440" lon="05.843357"><ele>14.3</ele><time>2021-02-18T15:20:07Z</time><name>PT13012</name></trkpt>
<trkpt lat="53.462441" lon="05.843339"><ele>14.3</ele><time>2021-02-18T15:20:08Z</time><name>PT13013</name></trkpt>
<trkpt lat="53.462441" lon="05.843318"><ele>14.3</ele><time>2021-02-18T15:20:09Z</time><name>PT13014</name></trkpt>
<trkpt lat="53.462440" lon="05.843295"><ele>14.2</ele><time>2021-02-18T15:20:10Z</time><name>PT13015</name></trkpt>
<trkpt lat="53.462441" lon="05.843274"><ele>14.1</ele><time>2021-02-18T15:20:11Z</time><name>PT13016</name></trkpt>
<trkpt lat="53.462442" lon="05.843254"><ele>14.1</ele><time>2021-02-18T15:20:12Z</time><name>PT13017</name></trkpt>
<trkpt lat="53.462442" lon="05.843234"><ele>14.2</ele><time>2021-02-18T15:20:13Z</time><name>PT13018</name></trkpt>
<trkpt lat="53.462441" lon="05.843214"><ele>14</ele><time>2021-02-18T15:20:14Z</time><name>PT13019</name></trkpt>
<trkpt lat="53.462441" lon="05.843194"><ele>14</ele><time>2021-02-18T15:20:15Z</time><name>PT13020</name></trkpt>
<trkpt lat="53.462439" lon="05.843176"><ele>13.7</ele><time>2021-02-18T15:20:16Z</time><name>PT13021</name></trkpt>
<trkpt lat="53.462437" lon="05.843157"><ele>13.8</ele><time>2021-02-18T15:20:17Z</time><name>PT13022</name></trkpt>
<trkpt lat="53.462436" lon="05.843137"><ele>13.8</ele><time>2021-02-18T15:20:18Z</time><name>PT13023</name></trkpt>
<trkpt lat="53.462433" lon="05.843117"><ele>14</ele><time>2021-02-18T15:20:19Z</time><name>PT13024</name></trkpt>
<trkpt lat="53.462431" lon="05.843097"><ele>14.1</ele><time>2021-02-18T15:20:20Z</time><name>PT13025</name></trkpt>
<trkpt lat="53.462429" lon="05.843078"><ele>14.2</ele><time>2021-02-18T15:20:21Z</time><name>PT13026</name></trkpt>
<trkpt lat="53.462427" lon="05.843059"><ele>14.2</ele><time>2021-02-18T15:20:22Z</time><name>PT13027</name></trkpt>
<trkpt lat="53.462424" lon="05.843042"><ele>14.2</ele><time>2021-02-18T15:20:23Z</time><name>PT13028</name></trkpt>
<trkpt lat="53.462422" lon="05.843026"><ele>14.1</ele><time>2021-02-18T15:20:24Z</time><name>PT13029</name></trkpt>
<trkpt lat="53.462421" lon="05.843008"><ele>14</ele><time>2021-02-18T15:20:25Z</time><name>PT13030</name></trkpt>
<trkpt lat="53.462420" lon="05.842990"><ele>14.3</ele><time>2021-02-18T15:20:26Z</time><name>PT13031</name></trkpt>
<trkpt lat="53.462418" lon="05.842970"><ele>14.3</ele><time>2021-02-18T15:20:27Z</time><name>PT13032</name></trkpt>
<trkpt lat="53.462416" lon="05.842951"><ele>14.5</ele><time>2021-02-18T15:20:28Z</time><name>PT13033</name></trkpt>
<trkpt lat="53.462414" lon="05.842930"><ele>14.5</ele><time>2021-02-18T15:20:29Z</time><name>PT13034</name></trkpt>
<trkpt lat="53.462414" lon="05.842908"><ele>14.6</ele><time>2021-02-18T15:20:30Z</time><name>PT13035</name></trkpt>
<trkpt lat="53.462415" lon="05.842886"><ele>14.4</ele><time>2021-02-18T15:20:31Z</time><name>PT13036</name></trkpt>
<trkpt lat="53.462414" lon="05.842866"><ele>14.5</ele><time>2021-02-18T15:20:32Z</time><name>PT13037</name></trkpt>
<trkpt lat="53.462412" lon="05.842846"><ele>14.5</ele><time>2021-02-18T15:20:33Z</time><name>PT13038</name></trkpt>
<trkpt lat="53.462411" lon="05.842825"><ele>14.6</ele><time>2021-02-18T15:20:34Z</time><name>PT13039</name></trkpt>
<trkpt lat="53.462409" lon="05.842805"><ele>14.7</ele><time>2021-02-18T15:20:35Z</time><name>PT13040</name></trkpt>
<trkpt lat="53.462409" lon="05.842786"><ele>14.9</ele><time>2021-02-18T15:20:36Z</time><name>PT13041</name></trkpt>
<trkpt lat="53.462407" lon="05.842767"><ele>14.9</ele><time>2021-02-18T15:20:37Z</time><name>PT13042</name></trkpt>
<trkpt lat="53.462405" lon="05.842753"><ele>14.9</ele><time>2021-02-18T15:20:38Z</time><name>PT13043</name></trkpt>
<trkpt lat="53.462403" lon="05.842735"><ele>14.7</ele><time>2021-02-18T15:20:39Z</time><name>PT13044</name></trkpt>
<trkpt lat="53.462403" lon="05.842716"><ele>14.7</ele><time>2021-02-18T15:20:40Z</time><name>PT13045</name></trkpt>
<trkpt lat="53.462400" lon="05.842696"><ele>14.5</ele><time>2021-02-18T15:20:41Z</time><name>PT13046</name></trkpt>
<trkpt lat="53.462399" lon="05.842677"><ele>14.6</ele><time>2021-02-18T15:20:42Z</time><name>PT13047</name></trkpt>
<trkpt lat="53.462397" lon="05.842659"><ele>14.9</ele><time>2021-02-18T15:20:43Z</time><name>PT13048</name></trkpt>
<trkpt lat="53.462394" lon="05.842641"><ele>14.9</ele><time>2021-02-18T15:20:44Z</time><name>PT13049</name></trkpt>
<trkpt lat="53.462392" lon="05.842622"><ele>15.2</ele><time>2021-02-18T15:20:45Z</time><name>PT13050</name></trkpt>
<trkpt lat="53.462389" lon="05.842603"><ele>15.4</ele><time>2021-02-18T15:20:46Z</time><name>PT13051</name></trkpt>
<trkpt lat="53.462388" lon="05.842583"><ele>15.4</ele><time>2021-02-18T15:20:47Z</time><name>PT13052</name></trkpt>
<trkpt lat="53.462386" lon="05.842564"><ele>15.5</ele><time>2021-02-18T15:20:48Z</time><name>PT13053</name></trkpt>
<trkpt lat="53.462384" lon="05.842546"><ele>15.6</ele><time>2021-02-18T15:20:49Z</time><name>PT13054</name></trkpt>
<trkpt lat="53.462382" lon="05.842529"><ele>15.7</ele><time>2021-02-18T15:20:50Z</time><name>PT13055</name></trkpt>
<trkpt lat="53.462381" lon="05.842511"><ele>15.8</ele><time>2021-02-18T15:20:51Z</time><name>PT13056</name></trkpt>
<trkpt lat="53.462380" lon="05.842492"><ele>15.9</ele><time>2021-02-18T15:20:52Z</time><name>PT13057</name></trkpt>
<trkpt lat="53.462380" lon="05.842474"><ele>15.9</ele><time>2021-02-18T15:20:53Z</time><name>PT13058</name></trkpt>
<trkpt lat="53.462380" lon="05.842457"><ele>15.9</ele><time>2021-02-18T15:20:54Z</time><name>PT13059</name></trkpt>
<trkpt lat="53.462379" lon="05.842439"><ele>15.7</ele><time>2021-02-18T15:20:55Z</time><name>PT13060</name></trkpt>
<trkpt lat="53.462378" lon="05.842418"><ele>15.7</ele><time>2021-02-18T15:20:56Z</time><name>PT13061</name></trkpt>
<trkpt lat="53.462378" lon="05.842399"><ele>15.9</ele><time>2021-02-18T15:20:57Z</time><name>PT13062</name></trkpt>
<trkpt lat="53.462378" lon="05.842379"><ele>16</ele><time>2021-02-18T15:20:58Z</time><name>PT13063</name></trkpt>
<trkpt lat="53.462377" lon="05.842362"><ele>16</ele><time>2021-02-18T15:20:59Z</time><name>PT13064</name></trkpt>
<trkpt lat="53.462377" lon="05.842344"><ele>16.2</ele><time>2021-02-18T15:21:00Z</time><name>PT13065</name></trkpt>
<trkpt lat="53.462376" lon="05.842327"><ele>16.3</ele><time>2021-02-18T15:21:01Z</time><name>PT13066</name></trkpt>
<trkpt lat="53.462374" lon="05.842310"><ele>16.3</ele><time>2021-02-18T15:21:02Z</time><name>PT13067</name></trkpt>
<trkpt lat="53.462373" lon="05.842292"><ele>16.5</ele><time>2021-02-18T15:21:03Z</time><name>PT13068</name></trkpt>
<trkpt lat="53.462371" lon="05.842273"><ele>16.7</ele><time>2021-02-18T15:21:04Z</time><name>PT13069</name></trkpt>
<trkpt lat="53.462370" lon="05.842254"><ele>16.9</ele><time>2021-02-18T15:21:05Z</time><name>PT13070</name></trkpt>
<trkpt lat="53.462369" lon="05.842233"><ele>17.2</ele><time>2021-02-18T15:21:06Z</time><name>PT13071</name></trkpt>
<trkpt lat="53.462369" lon="05.842213"><ele>17.3</ele><time>2021-02-18T15:21:07Z</time><name>PT13072</name></trkpt>
<trkpt lat="53.462367" lon="05.842194"><ele>17.3</ele><time>2021-02-18T15:21:08Z</time><name>PT13073</name></trkpt>
<trkpt lat="53.462365" lon="05.842174"><ele>17.2</ele><time>2021-02-18T15:21:09Z</time><name>PT13074</name></trkpt>
<trkpt lat="53.462363" lon="05.842154"><ele>17</ele><time>2021-02-18T15:21:10Z</time><name>PT13075</name></trkpt>
<trkpt lat="53.462361" lon="05.842135"><ele>17.1</ele><time>2021-02-18T15:21:11Z</time><name>PT13076</name></trkpt>
<trkpt lat="53.462359" lon="05.842117"><ele>17.4</ele><time>2021-02-18T15:21:12Z</time><name>PT13077</name></trkpt>
<trkpt lat="53.462357" lon="05.842100"><ele>17.3</ele><time>2021-02-18T15:21:13Z</time><name>PT13078</name></trkpt>
<trkpt lat="53.462356" lon="05.842079"><ele>17.4</ele><time>2021-02-18T15:21:14Z</time><name>PT13079</name></trkpt>
<trkpt lat="53.462356" lon="05.842060"><ele>17.6</ele><time>2021-02-18T15:21:15Z</time><name>PT13080</name></trkpt>
<trkpt lat="53.462357" lon="05.842040"><ele>17.4</ele><time>2021-02-18T15:21:16Z</time><name>PT13081</name></trkpt>
<trkpt lat="53.462357" lon="05.842022"><ele>17.4</ele><time>2021-02-18T15:21:17Z</time><name>PT13082</name></trkpt>
<trkpt lat="53.462357" lon="05.842004"><ele>17.4</ele><time>2021-02-18T15:21:18Z</time><name>PT13083</name></trkpt>
<trkpt lat="53.462358" lon="05.841987"><ele>17.5</ele><time>2021-02-18T15:21:19Z</time><name>PT13084</name></trkpt>
<trkpt lat="53.462360" lon="05.841969"><ele>17.5</ele><time>2021-02-18T15:21:20Z</time><name>PT13085</name></trkpt>
<trkpt lat="53.462362" lon="05.841949"><ele>17.7</ele><time>2021-02-18T15:21:21Z</time><name>PT13086</name></trkpt>
<trkpt lat="53.462365" lon="05.841926"><ele>17.9</ele><time>2021-02-18T15:21:22Z</time><name>PT13087</name></trkpt>
<trkpt lat="53.462367" lon="05.841906"><ele>18</ele><time>2021-02-18T15:21:23Z</time><name>PT13088</name></trkpt>
<trkpt lat="53.462369" lon="05.841886"><ele>18.1</ele><time>2021-02-18T15:21:24Z</time><name>PT13089</name></trkpt>
<trkpt lat="53.462371" lon="05.841866"><ele>18.1</ele><time>2021-02-18T15:21:25Z</time><name>PT13090</name></trkpt>
<trkpt lat="53.462371" lon="05.841847"><ele>17.9</ele><time>2021-02-18T15:21:26Z</time><name>PT13091</name></trkpt>
<trkpt lat="53.462371" lon="05.841828"><ele>17.9</ele><time>2021-02-18T15:21:27Z</time><name>PT13092</name></trkpt>
<trkpt lat="53.462374" lon="05.841807"><ele>17.9</ele><time>2021-02-18T15:21:28Z</time><name>PT13093</name></trkpt>
<trkpt lat="53.462376" lon="05.841787"><ele>17.9</ele><time>2021-02-18T15:21:29Z</time><name>PT13094</name></trkpt>
<trkpt lat="53.462377" lon="05.841764"><ele>18</ele><time>2021-02-18T15:21:30Z</time><name>PT13095</name></trkpt>
<trkpt lat="53.462378" lon="05.841744"><ele>18.1</ele><time>2021-02-18T15:21:31Z</time><name>PT13096</name></trkpt>
<trkpt lat="53.462381" lon="05.841724"><ele>18.1</ele><time>2021-02-18T15:21:32Z</time><name>PT13097</name></trkpt>
<trkpt lat="53.462382" lon="05.841706"><ele>18.2</ele><time>2021-02-18T15:21:33Z</time><name>PT13098</name></trkpt>
<trkpt lat="53.462383" lon="05.841691"><ele>18.1</ele><time>2021-02-18T15:21:34Z</time><name>PT13099</name></trkpt>
<trkpt lat="53.462383" lon="05.841676"><ele>18.1</ele><time>2021-02-18T15:21:35Z</time><name>PT13100</name></trkpt>
<trkpt lat="53.462385" lon="05.841659"><ele>18.1</ele><time>2021-02-18T15:21:36Z</time><name>PT13101</name></trkpt>
<trkpt lat="53.462388" lon="05.841641"><ele>18.1</ele><time>2021-02-18T15:21:37Z</time><name>PT13102</name></trkpt>
<trkpt lat="53.462392" lon="05.841622"><ele>18.3</ele><time>2021-02-18T15:21:38Z</time><name>PT13103</name></trkpt>
<trkpt lat="53.462395" lon="05.841602"><ele>18.5</ele><time>2021-02-18T15:21:39Z</time><name>PT13104</name></trkpt>
<trkpt lat="53.462397" lon="05.841582"><ele>18.6</ele><time>2021-02-18T15:21:40Z</time><name>PT13105</name></trkpt>
<trkpt lat="53.462398" lon="05.841562"><ele>18.6</ele><time>2021-02-18T15:21:41Z</time><name>PT13106</name></trkpt>
<trkpt lat="53.462398" lon="05.841544"><ele>18.6</ele><time>2021-02-18T15:21:42Z</time><name>PT13107</name></trkpt>
<trkpt lat="53.462398" lon="05.841525"><ele>18.6</ele><time>2021-02-18T15:21:43Z</time><name>PT13108</name></trkpt>
<trkpt lat="53.462398" lon="05.841507"><ele>18.5</ele><time>2021-02-18T15:21:44Z</time><name>PT13109</name></trkpt>
<trkpt lat="53.462399" lon="05.841489"><ele>18.4</ele><time>2021-02-18T15:21:45Z</time><name>PT13110</name></trkpt>
<trkpt lat="53.462399" lon="05.841471"><ele>18.4</ele><time>2021-02-18T15:21:46Z</time><name>PT13111</name></trkpt>
<trkpt lat="53.462399" lon="05.841452"><ele>18.4</ele><time>2021-02-18T15:21:47Z</time><name>PT13112</name></trkpt>
<trkpt lat="53.462401" lon="05.841432"><ele>18.4</ele><time>2021-02-18T15:21:48Z</time><name>PT13113</name></trkpt>
<trkpt lat="53.462401" lon="05.841415"><ele>18.4</ele><time>2021-02-18T15:21:49Z</time><name>PT13114</name></trkpt>
<trkpt lat="53.462402" lon="05.841401"><ele>18.5</ele><time>2021-02-18T15:21:50Z</time><name>PT13115</name></trkpt>
<trkpt lat="53.462405" lon="05.841386"><ele>18.4</ele><time>2021-02-18T15:21:51Z</time><name>PT13116</name></trkpt>
<trkpt lat="53.462407" lon="05.841373"><ele>18.3</ele><time>2021-02-18T15:21:52Z</time><name>PT13117</name></trkpt>
<trkpt lat="53.462409" lon="05.841355"><ele>18.3</ele><time>2021-02-18T15:21:53Z</time><name>PT13118</name></trkpt>
<trkpt lat="53.462410" lon="05.841335"><ele>18.4</ele><time>2021-02-18T15:21:54Z</time><name>PT13119</name></trkpt>
<trkpt lat="53.462409" lon="05.841314"><ele>18.4</ele><time>2021-02-18T15:21:55Z</time><name>PT13120</name></trkpt>
<trkpt lat="53.462406" lon="05.841293"><ele>18.4</ele><time>2021-02-18T15:21:56Z</time><name>PT13121</name></trkpt>
<trkpt lat="53.462405" lon="05.841275"><ele>18.5</ele><time>2021-02-18T15:21:57Z</time><name>PT13122</name></trkpt>
<trkpt lat="53.462404" lon="05.841254"><ele>18.8</ele><time>2021-02-18T15:21:58Z</time><name>PT13123</name></trkpt>
<trkpt lat="53.462403" lon="05.841234"><ele>18.8</ele><time>2021-02-18T15:21:59Z</time><name>PT13124</name></trkpt>
<trkpt lat="53.462401" lon="05.841215"><ele>19</ele><time>2021-02-18T15:22:00Z</time><name>PT13125</name></trkpt>
<trkpt lat="53.462400" lon="05.841197"><ele>19</ele><time>2021-02-18T15:22:01Z</time><name>PT13126</name></trkpt>
<trkpt lat="53.462399" lon="05.841180"><ele>19.1</ele><time>2021-02-18T15:22:02Z</time><name>PT13127</name></trkpt>
<trkpt lat="53.462398" lon="05.841164"><ele>19.2</ele><time>2021-02-18T15:22:03Z</time><name>PT13128</name></trkpt>
<trkpt lat="53.462398" lon="05.841147"><ele>18.9</ele><time>2021-02-18T15:22:04Z</time><name>PT13129</name></trkpt>
<trkpt lat="53.462397" lon="05.841130"><ele>18.8</ele><time>2021-02-18T15:22:05Z</time><name>PT13130</name></trkpt>
<trkpt lat="53.462395" lon="05.841115"><ele>18.9</ele><time>2021-02-18T15:22:06Z</time><name>PT13131</name></trkpt>
<trkpt lat="53.462395" lon="05.841094"><ele>18.9</ele><time>2021-02-18T15:22:07Z</time><name>PT13132</name></trkpt>
<trkpt lat="53.462396" lon="05.841074"><ele>19.1</ele><time>2021-02-18T15:22:08Z</time><name>PT13133</name></trkpt>
<trkpt lat="53.462395" lon="05.841055"><ele>19.1</ele><time>2021-02-18T15:22:09Z</time><name>PT13134</name></trkpt>
<trkpt lat="53.462394" lon="05.841037"><ele>19.1</ele><time>2021-02-18T15:22:10Z</time><name>PT13135</name></trkpt>
<trkpt lat="53.462392" lon="05.841018"><ele>19</ele><time>2021-02-18T15:22:11Z</time><name>PT13136</name></trkpt>
<trkpt lat="53.462391" lon="05.840999"><ele>18.9</ele><time>2021-02-18T15:22:12Z</time><name>PT13137</name></trkpt>
<trkpt lat="53.462389" lon="05.840977"><ele>18.7</ele><time>2021-02-18T15:22:13Z</time><name>PT13138</name></trkpt>
<trkpt lat="53.462386" lon="05.840959"><ele>18.5</ele><time>2021-02-18T15:22:14Z</time><name>PT13139</name></trkpt>
<trkpt lat="53.462384" lon="05.840941"><ele>18.4</ele><time>2021-02-18T15:22:15Z</time><name>PT13140</name></trkpt>
<trkpt lat="53.462382" lon="05.840923"><ele>18.6</ele><time>2021-02-18T15:22:16Z</time><name>PT13141</name></trkpt>
<trkpt lat="53.462381" lon="05.840903"><ele>18.6</ele><time>2021-02-18T15:22:17Z</time><name>PT13142</name></trkpt>
<trkpt lat="53.462379" lon="05.840884"><ele>18.5</ele><time>2021-02-18T15:22:18Z</time><name>PT13143</name></trkpt>
<trkpt lat="53.462376" lon="05.840867"><ele>19</ele><time>2021-02-18T15:22:19Z</time><name>PT13144</name></trkpt>
<trkpt lat="53.462373" lon="05.840850"><ele>19.4</ele><time>2021-02-18T15:22:20Z</time><name>PT13145</name></trkpt>
<trkpt lat="53.462374" lon="05.840832"><ele>19.6</ele><time>2021-02-18T15:22:21Z</time><name>PT13146</name></trkpt>
<trkpt lat="53.462372" lon="05.840815"><ele>19.9</ele><time>2021-02-18T15:22:22Z</time><name>PT13147</name></trkpt>
<trkpt lat="53.462372" lon="05.840797"><ele>20</ele><time>2021-02-18T15:22:23Z</time><name>PT13148</name></trkpt>
<trkpt lat="53.462371" lon="05.840778"><ele>20.1</ele><time>2021-02-18T15:22:24Z</time><name>PT13149</name></trkpt>
<trkpt lat="53.462371" lon="05.840759"><ele>20.1</ele><time>2021-02-18T15:22:25Z</time><name>PT13150</name></trkpt>
<trkpt lat="53.462371" lon="05.840739"><ele>20</ele><time>2021-02-18T15:22:26Z</time><name>PT13151</name></trkpt>
<trkpt lat="53.462371" lon="05.840721"><ele>19.9</ele><time>2021-02-18T15:22:27Z</time><name>PT13152</name></trkpt>
<trkpt lat="53.462369" lon="05.840704"><ele>19.9</ele><time>2021-02-18T15:22:28Z</time><name>PT13153</name></trkpt>
<trkpt lat="53.462367" lon="05.840688"><ele>19.9</ele><time>2021-02-18T15:22:29Z</time><name>PT13154</name></trkpt>
<trkpt lat="53.462366" lon="05.840671"><ele>19.9</ele><time>2021-02-18T15:22:30Z</time><name>PT13155</name></trkpt>
<trkpt lat="53.462364" lon="05.840651"><ele>19.9</ele><time>2021-02-18T15:22:31Z</time><name>PT13156</name></trkpt>
<trkpt lat="53.462363" lon="05.840633"><ele>19.9</ele><time>2021-02-18T15:22:32Z</time><name>PT13157</name></trkpt>
<trkpt lat="53.462362" lon="05.840617"><ele>19.8</ele><time>2021-02-18T15:22:33Z</time><name>PT13158</name></trkpt>
<trkpt lat="53.462358" lon="05.840598"><ele>19.8</ele><time>2021-02-18T15:22:34Z</time><name>PT13159</name></trkpt>
<trkpt lat="53.462355" lon="05.840582"><ele>19.8</ele><time>2021-02-18T15:22:35Z</time><name>PT13160</name></trkpt>
<trkpt lat="53.462351" lon="05.840567"><ele>19.8</ele><time>2021-02-18T15:22:36Z</time><name>PT13161</name></trkpt>
<trkpt lat="53.462348" lon="05.840551"><ele>19.7</ele><time>2021-02-18T15:22:37Z</time><name>PT13162</name></trkpt>
<trkpt lat="53.462345" lon="05.840537"><ele>19.5</ele><time>2021-02-18T15:22:38Z</time><name>PT13163</name></trkpt>
<trkpt lat="53.462341" lon="05.840522"><ele>19.4</ele><time>2021-02-18T15:22:39Z</time><name>PT13164</name></trkpt>
<trkpt lat="53.462337" lon="05.840504"><ele>19.3</ele><time>2021-02-18T15:22:40Z</time><name>PT13165</name></trkpt>
<trkpt lat="53.462330" lon="05.840481"><ele>19.3</ele><time>2021-02-18T15:22:41Z</time><name>PT13166</name></trkpt>
<trkpt lat="53.462330" lon="05.840462"><ele>18.9</ele><time>2021-02-18T15:22:42Z</time><name>PT13167</name></trkpt>
<trkpt lat="53.462328" lon="05.840444"><ele>19</ele><time>2021-02-18T15:22:43Z</time><name>PT13168</name></trkpt>
<trkpt lat="53.462322" lon="05.840422"><ele>18.9</ele><time>2021-02-18T15:22:44Z</time><name>PT13169</name></trkpt>
<trkpt lat="53.462318" lon="05.840404"><ele>19</ele><time>2021-02-18T15:22:45Z</time><name>PT13170</name></trkpt>
<trkpt lat="53.462314" lon="05.840388"><ele>19.4</ele><time>2021-02-18T15:22:46Z</time><name>PT13171</name></trkpt>
<trkpt lat="53.462308" lon="05.840373"><ele>19.4</ele><time>2021-02-18T15:22:47Z</time><name>PT13172</name></trkpt>
<trkpt lat="53.462304" lon="05.840359"><ele>19.6</ele><time>2021-02-18T15:22:48Z</time><name>PT13173</name></trkpt>
<trkpt lat="53.462298" lon="05.840344"><ele>19.7</ele><time>2021-02-18T15:22:49Z</time><name>PT13174</name></trkpt>
<trkpt lat="53.462292" lon="05.840329"><ele>19.7</ele><time>2021-02-18T15:22:50Z</time><name>PT13175</name></trkpt>
<trkpt lat="53.462286" lon="05.840309"><ele>19.6</ele><time>2021-02-18T15:22:51Z</time><name>PT13176</name></trkpt>
<trkpt lat="53.462281" lon="05.840293"><ele>19.3</ele><time>2021-02-18T15:22:52Z</time><name>PT13177</name></trkpt>
<trkpt lat="53.462276" lon="05.840277"><ele>19.3</ele><time>2021-02-18T15:22:53Z</time><name>PT13178</name></trkpt>
<trkpt lat="53.462272" lon="05.840260"><ele>19.4</ele><time>2021-02-18T15:22:54Z</time><name>PT13179</name></trkpt>
<trkpt lat="53.462266" lon="05.840242"><ele>19.4</ele><time>2021-02-18T15:22:55Z</time><name>PT13180</name></trkpt>
<trkpt lat="53.462261" lon="05.840224"><ele>19.3</ele><time>2021-02-18T15:22:56Z</time><name>PT13181</name></trkpt>
<trkpt lat="53.462256" lon="05.840206"><ele>19.4</ele><time>2021-02-18T15:22:57Z</time><name>PT13182</name></trkpt>
<trkpt lat="53.462252" lon="05.840189"><ele>19.4</ele><time>2021-02-18T15:22:58Z</time><name>PT13183</name></trkpt>
<trkpt lat="53.462249" lon="05.840171"><ele>19.4</ele><time>2021-02-18T15:22:59Z</time><name>PT13184</name></trkpt>
<trkpt lat="53.462245" lon="05.840155"><ele>19.5</ele><time>2021-02-18T15:23:00Z</time><name>PT13185</name></trkpt>
<trkpt lat="53.462241" lon="05.840137"><ele>19.9</ele><time>2021-02-18T15:23:01Z</time><name>PT13186</name></trkpt>
<trkpt lat="53.462237" lon="05.840121"><ele>20</ele><time>2021-02-18T15:23:02Z</time><name>PT13187</name></trkpt>
<trkpt lat="53.462233" lon="05.840105"><ele>20.2</ele><time>2021-02-18T15:23:03Z</time><name>PT13188</name></trkpt>
<trkpt lat="53.462227" lon="05.840089"><ele>20.2</ele><time>2021-02-18T15:23:04Z</time><name>PT13189</name></trkpt>
<trkpt lat="53.462222" lon="05.840073"><ele>20.2</ele><time>2021-02-18T15:23:05Z</time><name>PT13190</name></trkpt>
<trkpt lat="53.462215" lon="05.840058"><ele>20.1</ele><time>2021-02-18T15:23:06Z</time><name>PT13191</name></trkpt>
<trkpt lat="53.462209" lon="05.840042"><ele>20.2</ele><time>2021-02-18T15:23:07Z</time><name>PT13192</name></trkpt>
<trkpt lat="53.462204" lon="05.840026"><ele>20.2</ele><time>2021-02-18T15:23:08Z</time><name>PT13193</name></trkpt>
<trkpt lat="53.462200" lon="05.840009"><ele>20</ele><time>2021-02-18T15:23:09Z</time><name>PT13194</name></trkpt>
<trkpt lat="53.462196" lon="05.839992"><ele>20</ele><time>2021-02-18T15:23:10Z</time><name>PT13195</name></trkpt>
<trkpt lat="53.462191" lon="05.839975"><ele>19.9</ele><time>2021-02-18T15:23:11Z</time><name>PT13196</name></trkpt>
<trkpt lat="53.462186" lon="05.839957"><ele>19.9</ele><time>2021-02-18T15:23:12Z</time><name>PT13197</name></trkpt>
<trkpt lat="53.462180" lon="05.839939"><ele>20</ele><time>2021-02-18T15:23:13Z</time><name>PT13198</name></trkpt>
<trkpt lat="53.462175" lon="05.839921"><ele>19.9</ele><time>2021-02-18T15:23:14Z</time><name>PT13199</name></trkpt>
<trkpt lat="53.462171" lon="05.839904"><ele>20.2</ele><time>2021-02-18T15:23:15Z</time><name>PT13200</name></trkpt>
<trkpt lat="53.462166" lon="05.839888"><ele>20.1</ele><time>2021-02-18T15:23:16Z</time><name>PT13201</name></trkpt>
<trkpt lat="53.462161" lon="05.839873"><ele>20.1</ele><time>2021-02-18T15:23:17Z</time><name>PT13202</name></trkpt>
<trkpt lat="53.462157" lon="05.839859"><ele>20</ele><time>2021-02-18T15:23:18Z</time><name>PT13203</name></trkpt>
<trkpt lat="53.462151" lon="05.839840"><ele>20</ele><time>2021-02-18T15:23:19Z</time><name>PT13204</name></trkpt>
<trkpt lat="53.462146" lon="05.839824"><ele>19.9</ele><time>2021-02-18T15:23:20Z</time><name>PT13205</name></trkpt>
<trkpt lat="53.462141" lon="05.839813"><ele>19.8</ele><time>2021-02-18T15:23:21Z</time><name>PT13206</name></trkpt>
<trkpt lat="53.462136" lon="05.839807"><ele>19.7</ele><time>2021-02-18T15:23:22Z</time><name>PT13207</name></trkpt>
<trkpt lat="53.462134" lon="05.839802"><ele>19.8</ele><time>2021-02-18T15:23:23Z</time><name>PT13208</name></trkpt>
<trkpt lat="53.462134" lon="05.839801"><ele>19.9</ele><time>2021-02-18T15:23:24Z</time><name>PT13209</name></trkpt>
<trkpt lat="53.462134" lon="05.839802"><ele>19.8</ele><time>2021-02-18T15:23:25Z</time><name>PT13210</name></trkpt>
<trkpt lat="53.462134" lon="05.839800"><ele>19.9</ele><time>2021-02-18T15:23:26Z</time><name>PT13211</name></trkpt>
<trkpt lat="53.462135" lon="05.839798"><ele>19.9</ele><time>2021-02-18T15:23:27Z</time><name>PT13212</name></trkpt>
<trkpt lat="53.462134" lon="05.839801"><ele>20.1</ele><time>2021-02-18T15:23:28Z</time><name>PT13213</name></trkpt>
<trkpt lat="53.462134" lon="05.839801"><ele>20</ele><time>2021-02-18T15:23:29Z</time><name>PT13214</name></trkpt>
<trkpt lat="53.462134" lon="05.839802"><ele>20.1</ele><time>2021-02-18T15:23:30Z</time><name>PT13215</name></trkpt>
<trkpt lat="53.462133" lon="05.839803"><ele>19.8</ele><time>2021-02-18T15:23:31Z</time><name>PT13216</name></trkpt>
<trkpt lat="53.462132" lon="05.839803"><ele>19.7</ele><time>2021-02-18T15:23:32Z</time><name>PT13217</name></trkpt>
<trkpt lat="53.462130" lon="05.839801"><ele>19.4</ele><time>2021-02-18T15:23:36Z</time><name>PT13218</name></trkpt>
<trkpt lat="53.462129" lon="05.839792"><ele>19.3</ele><time>2021-02-18T15:23:37Z</time><name>PT13219</name></trkpt>
<trkpt lat="53.462126" lon="05.839790"><ele>19.4</ele><time>2021-02-18T15:23:38Z</time><name>PT13220</name></trkpt>
<trkpt lat="53.462124" lon="05.839782"><ele>19.3</ele><time>2021-02-18T15:23:39Z</time><name>PT13221</name></trkpt>
<trkpt lat="53.462121" lon="05.839765"><ele>19.3</ele><time>2021-02-18T15:23:40Z</time><name>PT13222</name></trkpt>
<trkpt lat="53.462117" lon="05.839753"><ele>19.4</ele><time>2021-02-18T15:23:41Z</time><name>PT13223</name></trkpt>
<trkpt lat="53.462113" lon="05.839744"><ele>19.5</ele><time>2021-02-18T15:23:42Z</time><name>PT13224</name></trkpt>
<trkpt lat="53.462111" lon="05.839737"><ele>19.4</ele><time>2021-02-18T15:23:43Z</time><name>PT13225</name></trkpt>
<trkpt lat="53.462107" lon="05.839728"><ele>19.4</ele><time>2021-02-18T15:23:44Z</time><name>PT13226</name></trkpt>
<trkpt lat="53.462105" lon="05.839717"><ele>19.4</ele><time>2021-02-18T15:23:45Z</time><name>PT13227</name></trkpt>
<trkpt lat="53.462103" lon="05.839709"><ele>19.2</ele><time>2021-02-18T15:23:46Z</time><name>PT13228</name></trkpt>
<trkpt lat="53.462101" lon="05.839703"><ele>19.2</ele><time>2021-02-18T15:23:47Z</time><name>PT13229</name></trkpt>
<trkpt lat="53.462100" lon="05.839702"><ele>19.1</ele><time>2021-02-18T15:23:48Z</time><name>PT13230</name></trkpt>
<trkpt lat="53.462100" lon="05.839701"><ele>19</ele><time>2021-02-18T15:23:49Z</time><name>PT13231</name></trkpt>
<trkpt lat="53.462099" lon="05.839701"><ele>18.9</ele><time>2021-02-18T15:23:50Z</time><name>PT13232</name></trkpt>
<trkpt lat="53.462098" lon="05.839702"><ele>19.1</ele><time>2021-02-18T15:23:56Z</time><name>PT13233</name></trkpt>
<trkpt lat="53.462092" lon="05.839694"><ele>19.2</ele><time>2021-02-18T15:23:57Z</time><name>PT13234</name></trkpt>
<trkpt lat="53.462086" lon="05.839680"><ele>18.9</ele><time>2021-02-18T15:23:58Z</time><name>PT13235</name></trkpt>
<trkpt lat="53.462081" lon="05.839665"><ele>18.9</ele><time>2021-02-18T15:23:59Z</time><name>PT13236</name></trkpt>
<trkpt lat="53.462075" lon="05.839650"><ele>18.7</ele><time>2021-02-18T15:24:00Z</time><name>PT13237</name></trkpt>
<trkpt lat="53.462069" lon="05.839637"><ele>18.4</ele><time>2021-02-18T15:24:01Z</time><name>PT13238</name></trkpt>
<trkpt lat="53.462064" lon="05.839622"><ele>18.3</ele><time>2021-02-18T15:24:02Z</time><name>PT13239</name></trkpt>
<trkpt lat="53.462058" lon="05.839606"><ele>18.4</ele><time>2021-02-18T15:24:03Z</time><name>PT13240</name></trkpt>
<trkpt lat="53.462050" lon="05.839592"><ele>18.5</ele><time>2021-02-18T15:24:04Z</time><name>PT13241</name></trkpt>
<trkpt lat="53.462044" lon="05.839577"><ele>18.6</ele><time>2021-02-18T15:24:05Z</time><name>PT13242</name></trkpt>
<trkpt lat="53.462036" lon="05.839562"><ele>18.9</ele><time>2021-02-18T15:24:06Z</time><name>PT13243</name></trkpt>
<trkpt lat="53.462029" lon="05.839548"><ele>18.9</ele><time>2021-02-18T15:24:07Z</time><name>PT13244</name></trkpt>
<trkpt lat="53.462022" lon="05.839534"><ele>18.9</ele><time>2021-02-18T15:24:08Z</time><name>PT13245</name></trkpt>
<trkpt lat="53.462015" lon="05.839520"><ele>18.9</ele><time>2021-02-18T15:24:09Z</time><name>PT13246</name></trkpt>
<trkpt lat="53.462010" lon="05.839504"><ele>19.1</ele><time>2021-02-18T15:24:10Z</time><name>PT13247</name></trkpt>
<trkpt lat="53.462003" lon="05.839488"><ele>19.2</ele><time>2021-02-18T15:24:11Z</time><name>PT13248</name></trkpt>
<trkpt lat="53.461995" lon="05.839471"><ele>19.1</ele><time>2021-02-18T15:24:12Z</time><name>PT13249</name></trkpt>
<trkpt lat="53.461988" lon="05.839456"><ele>19.1</ele><time>2021-02-18T15:24:13Z</time><name>PT13250</name></trkpt>
<trkpt lat="53.461983" lon="05.839439"><ele>19</ele><time>2021-02-18T15:24:14Z</time><name>PT13251</name></trkpt>
<trkpt lat="53.461976" lon="05.839424"><ele>18.7</ele><time>2021-02-18T15:24:15Z</time><name>PT13252</name></trkpt>
<trkpt lat="53.461972" lon="05.839409"><ele>18.5</ele><time>2021-02-18T15:24:16Z</time><name>PT13253</name></trkpt>
<trkpt lat="53.461966" lon="05.839394"><ele>18.5</ele><time>2021-02-18T15:24:17Z</time><name>PT13254</name></trkpt>
<trkpt lat="53.461960" lon="05.839380"><ele>18.4</ele><time>2021-02-18T15:24:18Z</time><name>PT13255</name></trkpt>
<trkpt lat="53.461953" lon="05.839365"><ele>18.2</ele><time>2021-02-18T15:24:19Z</time><name>PT13256</name></trkpt>
<trkpt lat="53.461946" lon="05.839349"><ele>18.1</ele><time>2021-02-18T15:24:20Z</time><name>PT13257</name></trkpt>
<trkpt lat="53.461939" lon="05.839333"><ele>17.9</ele><time>2021-02-18T15:24:21Z</time><name>PT13258</name></trkpt>
<trkpt lat="53.461933" lon="05.839316"><ele>17.9</ele><time>2021-02-18T15:24:22Z</time><name>PT13259</name></trkpt>
<trkpt lat="53.461927" lon="05.839297"><ele>18</ele><time>2021-02-18T15:24:23Z</time><name>PT13260</name></trkpt>
<trkpt lat="53.461921" lon="05.839279"><ele>18.2</ele><time>2021-02-18T15:24:24Z</time><name>PT13261</name></trkpt>
<trkpt lat="53.461916" lon="05.839260"><ele>18.2</ele><time>2021-02-18T15:24:25Z</time><name>PT13262</name></trkpt>
<trkpt lat="53.461910" lon="05.839241"><ele>18.2</ele><time>2021-02-18T15:24:26Z</time><name>PT13263</name></trkpt>
<trkpt lat="53.461905" lon="05.839223"><ele>18.2</ele><time>2021-02-18T15:24:27Z</time><name>PT13264</name></trkpt>
<trkpt lat="53.461901" lon="05.839206"><ele>18.4</ele><time>2021-02-18T15:24:28Z</time><name>PT13265</name></trkpt>
<trkpt lat="53.461898" lon="05.839191"><ele>18.4</ele><time>2021-02-18T15:24:29Z</time><name>PT13266</name></trkpt>
<trkpt lat="53.461895" lon="05.839176"><ele>18.5</ele><time>2021-02-18T15:24:30Z</time><name>PT13267</name></trkpt>
<trkpt lat="53.461892" lon="05.839161"><ele>18.5</ele><time>2021-02-18T15:24:31Z</time><name>PT13268</name></trkpt>
<trkpt lat="53.461889" lon="05.839143"><ele>18.5</ele><time>2021-02-18T15:24:32Z</time><name>PT13269</name></trkpt>
<trkpt lat="53.461885" lon="05.839123"><ele>18.4</ele><time>2021-02-18T15:24:33Z</time><name>PT13270</name></trkpt>
<trkpt lat="53.461881" lon="05.839104"><ele>18.4</ele><time>2021-02-18T15:24:34Z</time><name>PT13271</name></trkpt>
<trkpt lat="53.461876" lon="05.839086"><ele>18.4</ele><time>2021-02-18T15:24:35Z</time><name>PT13272</name></trkpt>
<trkpt lat="53.461873" lon="05.839067"><ele>18.4</ele><time>2021-02-18T15:24:36Z</time><name>PT13273</name></trkpt>
<trkpt lat="53.461870" lon="05.839046"><ele>18.5</ele><time>2021-02-18T15:24:37Z</time><name>PT13274</name></trkpt>
<trkpt lat="53.461868" lon="05.839026"><ele>18.6</ele><time>2021-02-18T15:24:38Z</time><name>PT13275</name></trkpt>
<trkpt lat="53.461866" lon="05.839007"><ele>18.6</ele><time>2021-02-18T15:24:39Z</time><name>PT13276</name></trkpt>
<trkpt lat="53.461864" lon="05.838985"><ele>18.7</ele><time>2021-02-18T15:24:40Z</time><name>PT13277</name></trkpt>
<trkpt lat="53.461862" lon="05.838965"><ele>18.7</ele><time>2021-02-18T15:24:41Z</time><name>PT13278</name></trkpt>
<trkpt lat="53.461861" lon="05.838946"><ele>18.6</ele><time>2021-02-18T15:24:42Z</time><name>PT13279</name></trkpt>
<trkpt lat="53.461858" lon="05.838929"><ele>18.3</ele><time>2021-02-18T15:24:43Z</time><name>PT13280</name></trkpt>
<trkpt lat="53.461855" lon="05.838912"><ele>18.2</ele><time>2021-02-18T15:24:44Z</time><name>PT13281</name></trkpt>
<trkpt lat="53.461852" lon="05.838895"><ele>17.9</ele><time>2021-02-18T15:24:45Z</time><name>PT13282</name></trkpt>
<trkpt lat="53.461846" lon="05.838884"><ele>17.7</ele><time>2021-02-18T15:24:46Z</time><name>PT13283</name></trkpt>
<trkpt lat="53.461844" lon="05.838886"><ele>17.6</ele><time>2021-02-18T15:24:47Z</time><name>PT13284</name></trkpt>
<trkpt lat="53.461846" lon="05.838881"><ele>17.6</ele><time>2021-02-18T15:24:48Z</time><name>PT13285</name></trkpt>
<trkpt lat="53.461847" lon="05.838870"><ele>17.9</ele><time>2021-02-18T15:24:49Z</time><name>PT13286</name></trkpt>
<trkpt lat="53.461843" lon="05.838856"><ele>17.8</ele><time>2021-02-18T15:24:50Z</time><name>PT13287</name></trkpt>
<trkpt lat="53.461839" lon="05.838839"><ele>17.9</ele><time>2021-02-18T15:24:51Z</time><name>PT13288</name></trkpt>
<trkpt lat="53.461834" lon="05.838822"><ele>17.8</ele><time>2021-02-18T15:24:52Z</time><name>PT13289</name></trkpt>
<trkpt lat="53.461827" lon="05.838805"><ele>18</ele><time>2021-02-18T15:24:53Z</time><name>PT13290</name></trkpt>
<trkpt lat="53.461820" lon="05.838790"><ele>17.9</ele><time>2021-02-18T15:24:54Z</time><name>PT13291</name></trkpt>
<trkpt lat="53.461813" lon="05.838773"><ele>17.9</ele><time>2021-02-18T15:24:55Z</time><name>PT13292</name></trkpt>
<trkpt lat="53.461804" lon="05.838757"><ele>17.9</ele><time>2021-02-18T15:24:56Z</time><name>PT13293</name></trkpt>
<trkpt lat="53.461797" lon="05.838741"><ele>17.9</ele><time>2021-02-18T15:24:57Z</time><name>PT13294</name></trkpt>
<trkpt lat="53.461789" lon="05.838727"><ele>17.8</ele><time>2021-02-18T15:24:58Z</time><name>PT13295</name></trkpt>
<trkpt lat="53.461780" lon="05.838713"><ele>17.9</ele><time>2021-02-18T15:24:59Z</time><name>PT13296</name></trkpt>
<trkpt lat="53.461772" lon="05.838698"><ele>18</ele><time>2021-02-18T15:25:00Z</time><name>PT13297</name></trkpt>
<trkpt lat="53.461764" lon="05.838684"><ele>18</ele><time>2021-02-18T15:25:01Z</time><name>PT13298</name></trkpt>
<trkpt lat="53.461756" lon="05.838672"><ele>17.9</ele><time>2021-02-18T15:25:02Z</time><name>PT13299</name></trkpt>
<trkpt lat="53.461747" lon="05.838658"><ele>18</ele><time>2021-02-18T15:25:03Z</time><name>PT13300</name></trkpt>
<trkpt lat="53.461739" lon="05.838646"><ele>18.1</ele><time>2021-02-18T15:25:04Z</time><name>PT13301</name></trkpt>
<trkpt lat="53.461730" lon="05.838636"><ele>17.9</ele><time>2021-02-18T15:25:05Z</time><name>PT13302</name></trkpt>
<trkpt lat="53.461720" lon="05.838626"><ele>17.9</ele><time>2021-02-18T15:25:06Z</time><name>PT13303</name></trkpt>
<trkpt lat="53.461710" lon="05.838615"><ele>17.8</ele><time>2021-02-18T15:25:07Z</time><name>PT13304</name></trkpt>
<trkpt lat="53.461700" lon="05.838605"><ele>17.7</ele><time>2021-02-18T15:25:08Z</time><name>PT13305</name></trkpt>
<trkpt lat="53.461689" lon="05.838593"><ele>17.7</ele><time>2021-02-18T15:25:09Z</time><name>PT13306</name></trkpt>
<trkpt lat="53.461680" lon="05.838582"><ele>17.6</ele><time>2021-02-18T15:25:10Z</time><name>PT13307</name></trkpt>
<trkpt lat="53.461669" lon="05.838572"><ele>17.6</ele><time>2021-02-18T15:25:11Z</time><name>PT13308</name></trkpt>
<trkpt lat="53.461659" lon="05.838563"><ele>17.5</ele><time>2021-02-18T15:25:12Z</time><name>PT13309</name></trkpt>
<trkpt lat="53.461650" lon="05.838552"><ele>17.6</ele><time>2021-02-18T15:25:13Z</time><name>PT13310</name></trkpt>
<trkpt lat="53.461639" lon="05.838541"><ele>17.5</ele><time>2021-02-18T15:25:14Z</time><name>PT13311</name></trkpt>
<trkpt lat="53.461629" lon="05.838529"><ele>17.5</ele><time>2021-02-18T15:25:15Z</time><name>PT13312</name></trkpt>
<trkpt lat="53.461617" lon="05.838522"><ele>17.3</ele><time>2021-02-18T15:25:16Z</time><name>PT13313</name></trkpt>
<trkpt lat="53.461607" lon="05.838516"><ele>17.1</ele><time>2021-02-18T15:25:17Z</time><name>PT13314</name></trkpt>
<trkpt lat="53.461597" lon="05.838507"><ele>16.9</ele><time>2021-02-18T15:25:18Z</time><name>PT13315</name></trkpt>
<trkpt lat="53.461588" lon="05.838498"><ele>16.7</ele><time>2021-02-18T15:25:19Z</time><name>PT13316</name></trkpt>
<trkpt lat="53.461578" lon="05.838489"><ele>16.7</ele><time>2021-02-18T15:25:20Z</time><name>PT13317</name></trkpt>
<trkpt lat="53.461569" lon="05.838478"><ele>17</ele><time>2021-02-18T15:25:21Z</time><name>PT13318</name></trkpt>
<trkpt lat="53.461560" lon="05.838465"><ele>17.2</ele><time>2021-02-18T15:25:22Z</time><name>PT13319</name></trkpt>
<trkpt lat="53.461552" lon="05.838454"><ele>17.1</ele><time>2021-02-18T15:25:23Z</time><name>PT13320</name></trkpt>
<trkpt lat="53.461542" lon="05.838444"><ele>17</ele><time>2021-02-18T15:25:24Z</time><name>PT13321</name></trkpt>
<trkpt lat="53.461531" lon="05.838433"><ele>17.4</ele><time>2021-02-18T15:25:25Z</time><name>PT13322</name></trkpt>
<trkpt lat="53.461521" lon="05.838425"><ele>17.5</ele><time>2021-02-18T15:25:26Z</time><name>PT13323</name></trkpt>
<trkpt lat="53.461513" lon="05.838414"><ele>17.5</ele><time>2021-02-18T15:25:27Z</time><name>PT13324</name></trkpt>
<trkpt lat="53.461505" lon="05.838403"><ele>17.9</ele><time>2021-02-18T15:25:28Z</time><name>PT13325</name></trkpt>
<trkpt lat="53.461500" lon="05.838389"><ele>18.2</ele><time>2021-02-18T15:25:29Z</time><name>PT13326</name></trkpt>
<trkpt lat="53.461495" lon="05.838375"><ele>18.1</ele><time>2021-02-18T15:25:30Z</time><name>PT13327</name></trkpt>
<trkpt lat="53.461491" lon="05.838361"><ele>18.1</ele><time>2021-02-18T15:25:31Z</time><name>PT13328</name></trkpt>
<trkpt lat="53.461486" lon="05.838348"><ele>18</ele><time>2021-02-18T15:25:32Z</time><name>PT13329</name></trkpt>
<trkpt lat="53.461482" lon="05.838337"><ele>18.2</ele><time>2021-02-18T15:25:33Z</time><name>PT13330</name></trkpt>
<trkpt lat="53.461478" lon="05.838328"><ele>18</ele><time>2021-02-18T15:25:34Z</time><name>PT13331</name></trkpt>
<trkpt lat="53.461477" lon="05.838321"><ele>18.1</ele><time>2021-02-18T15:25:35Z</time><name>PT13332</name></trkpt>
<trkpt lat="53.461476" lon="05.838311"><ele>18.2</ele><time>2021-02-18T15:25:36Z</time><name>PT13333</name></trkpt>
<trkpt lat="53.461473" lon="05.838298"><ele>18.3</ele><time>2021-02-18T15:25:37Z</time><name>PT13334</name></trkpt>
<trkpt lat="53.461470" lon="05.838284"><ele>18.4</ele><time>2021-02-18T15:25:38Z</time><name>PT13335</name></trkpt>
<trkpt lat="53.461470" lon="05.838267"><ele>18.5</ele><time>2021-02-18T15:25:39Z</time><name>PT13336</name></trkpt>
<trkpt lat="53.461468" lon="05.838249"><ele>18.6</ele><time>2021-02-18T15:25:40Z</time><name>PT13337</name></trkpt>
<trkpt lat="53.461466" lon="05.838231"><ele>18.6</ele><time>2021-02-18T15:25:41Z</time><name>PT13338</name></trkpt>
<trkpt lat="53.461465" lon="05.838212"><ele>19</ele><time>2021-02-18T15:25:42Z</time><name>PT13339</name></trkpt>
<trkpt lat="53.461464" lon="05.838193"><ele>19.3</ele><time>2021-02-18T15:25:43Z</time><name>PT13340</name></trkpt>
<trkpt lat="53.461465" lon="05.838174"><ele>19.4</ele><time>2021-02-18T15:25:44Z</time><name>PT13341</name></trkpt>
<trkpt lat="53.461466" lon="05.838154"><ele>19.3</ele><time>2021-02-18T15:25:45Z</time><name>PT13342</name></trkpt>
<trkpt lat="53.461466" lon="05.838133"><ele>19</ele><time>2021-02-18T15:25:46Z</time><name>PT13343</name></trkpt>
<trkpt lat="53.461467" lon="05.838114"><ele>18.9</ele><time>2021-02-18T15:25:47Z</time><name>PT13344</name></trkpt>
<trkpt lat="53.461470" lon="05.838096"><ele>18.6</ele><time>2021-02-18T15:25:48Z</time><name>PT13345</name></trkpt>
<trkpt lat="53.461471" lon="05.838076"><ele>18.4</ele><time>2021-02-18T15:25:49Z</time><name>PT13346</name></trkpt>
<trkpt lat="53.461471" lon="05.838057"><ele>18.4</ele><time>2021-02-18T15:25:50Z</time><name>PT13347</name></trkpt>
<trkpt lat="53.461472" lon="05.838041"><ele>18.5</ele><time>2021-02-18T15:25:51Z</time><name>PT13348</name></trkpt>
<trkpt lat="53.461474" lon="05.838024"><ele>18.5</ele><time>2021-02-18T15:25:52Z</time><name>PT13349</name></trkpt>
<trkpt lat="53.461474" lon="05.838005"><ele>18.7</ele><time>2021-02-18T15:25:53Z</time><name>PT13350</name></trkpt>
<trkpt lat="53.461473" lon="05.837986"><ele>18.9</ele><time>2021-02-18T15:25:54Z</time><name>PT13351</name></trkpt>
<trkpt lat="53.461474" lon="05.837966"><ele>18.7</ele><time>2021-02-18T15:25:55Z</time><name>PT13352</name></trkpt>
<trkpt lat="53.461474" lon="05.837947"><ele>18.6</ele><time>2021-02-18T15:25:56Z</time><name>PT13353</name></trkpt>
<trkpt lat="53.461476" lon="05.837927"><ele>18.5</ele><time>2021-02-18T15:25:57Z</time><name>PT13354</name></trkpt>
<trkpt lat="53.461477" lon="05.837907"><ele>18.4</ele><time>2021-02-18T15:25:58Z</time><name>PT13355</name></trkpt>
<trkpt lat="53.461477" lon="05.837889"><ele>18.3</ele><time>2021-02-18T15:25:59Z</time><name>PT13356</name></trkpt>
<trkpt lat="53.461478" lon="05.837871"><ele>18.3</ele><time>2021-02-18T15:26:00Z</time><name>PT13357</name></trkpt>
<trkpt lat="53.461480" lon="05.837853"><ele>18.2</ele><time>2021-02-18T15:26:01Z</time><name>PT13358</name></trkpt>
<trkpt lat="53.461480" lon="05.837835"><ele>18.2</ele><time>2021-02-18T15:26:02Z</time><name>PT13359</name></trkpt>
<trkpt lat="53.461479" lon="05.837817"><ele>18.1</ele><time>2021-02-18T15:26:03Z</time><name>PT13360</name></trkpt>
<trkpt lat="53.461480" lon="05.837797"><ele>18</ele><time>2021-02-18T15:26:04Z</time><name>PT13361</name></trkpt>
<trkpt lat="53.461480" lon="05.837778"><ele>17.9</ele><time>2021-02-18T15:26:05Z</time><name>PT13362</name></trkpt>
<trkpt lat="53.461481" lon="05.837759"><ele>18</ele><time>2021-02-18T15:26:06Z</time><name>PT13363</name></trkpt>
<trkpt lat="53.461482" lon="05.837740"><ele>17.8</ele><time>2021-02-18T15:26:07Z</time><name>PT13364</name></trkpt>
<trkpt lat="53.461484" lon="05.837720"><ele>17.9</ele><time>2021-02-18T15:26:08Z</time><name>PT13365</name></trkpt>
<trkpt lat="53.461485" lon="05.837701"><ele>17.9</ele><time>2021-02-18T15:26:09Z</time><name>PT13366</name></trkpt>
<trkpt lat="53.461487" lon="05.837683"><ele>17.7</ele><time>2021-02-18T15:26:10Z</time><name>PT13367</name></trkpt>
<trkpt lat="53.461489" lon="05.837668"><ele>17.8</ele><time>2021-02-18T15:26:11Z</time><name>PT13368</name></trkpt>
<trkpt lat="53.461492" lon="05.837653"><ele>17.6</ele><time>2021-02-18T15:26:12Z</time><name>PT13369</name></trkpt>
<trkpt lat="53.461493" lon="05.837634"><ele>17.4</ele><time>2021-02-18T15:26:13Z</time><name>PT13370</name></trkpt>
<trkpt lat="53.461494" lon="05.837614"><ele>17.4</ele><time>2021-02-18T15:26:14Z</time><name>PT13371</name></trkpt>
<trkpt lat="53.461494" lon="05.837593"><ele>17.6</ele><time>2021-02-18T15:26:15Z</time><name>PT13372</name></trkpt>
<trkpt lat="53.461493" lon="05.837573"><ele>17.6</ele><time>2021-02-18T15:26:16Z</time><name>PT13373</name></trkpt>
<trkpt lat="53.461491" lon="05.837554"><ele>17.8</ele><time>2021-02-18T15:26:17Z</time><name>PT13374</name></trkpt>
<trkpt lat="53.461490" lon="05.837535"><ele>17.8</ele><time>2021-02-18T15:26:18Z</time><name>PT13375</name></trkpt>
<trkpt lat="53.461491" lon="05.837516"><ele>17.9</ele><time>2021-02-18T15:26:19Z</time><name>PT13376</name></trkpt>
<trkpt lat="53.461493" lon="05.837497"><ele>17.9</ele><time>2021-02-18T15:26:20Z</time><name>PT13377</name></trkpt>
<trkpt lat="53.461494" lon="05.837477"><ele>18.1</ele><time>2021-02-18T15:26:21Z</time><name>PT13378</name></trkpt>
<trkpt lat="53.461494" lon="05.837458"><ele>18.2</ele><time>2021-02-18T15:26:22Z</time><name>PT13379</name></trkpt>
<trkpt lat="53.461495" lon="05.837440"><ele>18.4</ele><time>2021-02-18T15:26:23Z</time><name>PT13380</name></trkpt>
<trkpt lat="53.461495" lon="05.837422"><ele>18.4</ele><time>2021-02-18T15:26:24Z</time><name>PT13381</name></trkpt>
<trkpt lat="53.461497" lon="05.837402"><ele>18.3</ele><time>2021-02-18T15:26:25Z</time><name>PT13382</name></trkpt>
<trkpt lat="53.461497" lon="05.837383"><ele>18.2</ele><time>2021-02-18T15:26:26Z</time><name>PT13383</name></trkpt>
<trkpt lat="53.461496" lon="05.837363"><ele>18</ele><time>2021-02-18T15:26:27Z</time><name>PT13384</name></trkpt>
<trkpt lat="53.461495" lon="05.837344"><ele>17.8</ele><time>2021-02-18T15:26:28Z</time><name>PT13385</name></trkpt>
<trkpt lat="53.461495" lon="05.837323"><ele>17.7</ele><time>2021-02-18T15:26:29Z</time><name>PT13386</name></trkpt>
<trkpt lat="53.461497" lon="05.837302"><ele>17.4</ele><time>2021-02-18T15:26:30Z</time><name>PT13387</name></trkpt>
<trkpt lat="53.461498" lon="05.837282"><ele>17.5</ele><time>2021-02-18T15:26:31Z</time><name>PT13388</name></trkpt>
<trkpt lat="53.461500" lon="05.837264"><ele>17.7</ele><time>2021-02-18T15:26:32Z</time><name>PT13389</name></trkpt>
<trkpt lat="53.461500" lon="05.837245"><ele>17.7</ele><time>2021-02-18T15:26:33Z</time><name>PT13390</name></trkpt>
<trkpt lat="53.461500" lon="05.837225"><ele>17.7</ele><time>2021-02-18T15:26:34Z</time><name>PT13391</name></trkpt>
<trkpt lat="53.461500" lon="05.837205"><ele>17.7</ele><time>2021-02-18T15:26:35Z</time><name>PT13392</name></trkpt>
<trkpt lat="53.461502" lon="05.837187"><ele>17.4</ele><time>2021-02-18T15:26:36Z</time><name>PT13393</name></trkpt>
<trkpt lat="53.461502" lon="05.837168"><ele>17.5</ele><time>2021-02-18T15:26:37Z</time><name>PT13394</name></trkpt>
<trkpt lat="53.461502" lon="05.837148"><ele>17.6</ele><time>2021-02-18T15:26:38Z</time><name>PT13395</name></trkpt>
<trkpt lat="53.461503" lon="05.837129"><ele>17.5</ele><time>2021-02-18T15:26:39Z</time><name>PT13396</name></trkpt>
<trkpt lat="53.461503" lon="05.837110"><ele>17.9</ele><time>2021-02-18T15:26:40Z</time><name>PT13397</name></trkpt>
<trkpt lat="53.461503" lon="05.837091"><ele>17.9</ele><time>2021-02-18T15:26:41Z</time><name>PT13398</name></trkpt>
<trkpt lat="53.461504" lon="05.837073"><ele>17.8</ele><time>2021-02-18T15:26:42Z</time><name>PT13399</name></trkpt>
<trkpt lat="53.461504" lon="05.837052"><ele>17.8</ele><time>2021-02-18T15:26:43Z</time><name>PT13400</name></trkpt>
<trkpt lat="53.461504" lon="05.837031"><ele>17.8</ele><time>2021-02-18T15:26:44Z</time><name>PT13401</name></trkpt>
<trkpt lat="53.461505" lon="05.837012"><ele>17.7</ele><time>2021-02-18T15:26:45Z</time><name>PT13402</name></trkpt>
<trkpt lat="53.461507" lon="05.836993"><ele>17.5</ele><time>2021-02-18T15:26:46Z</time><name>PT13403</name></trkpt>
<trkpt lat="53.461508" lon="05.836974"><ele>17.5</ele><time>2021-02-18T15:26:47Z</time><name>PT13404</name></trkpt>
<trkpt lat="53.461509" lon="05.836957"><ele>17.4</ele><time>2021-02-18T15:26:48Z</time><name>PT13405</name></trkpt>
<trkpt lat="53.461510" lon="05.836939"><ele>17.4</ele><time>2021-02-18T15:26:49Z</time><name>PT13406</name></trkpt>
<trkpt lat="53.461510" lon="05.836921"><ele>17.3</ele><time>2021-02-18T15:26:50Z</time><name>PT13407</name></trkpt>
<trkpt lat="53.461510" lon="05.836903"><ele>17.4</ele><time>2021-02-18T15:26:51Z</time><name>PT13408</name></trkpt>
<trkpt lat="53.461510" lon="05.836885"><ele>17.4</ele><time>2021-02-18T15:26:52Z</time><name>PT13409</name></trkpt>
<trkpt lat="53.461510" lon="05.836867"><ele>17.4</ele><time>2021-02-18T15:26:53Z</time><name>PT13410</name></trkpt>
<trkpt lat="53.461510" lon="05.836847"><ele>17.4</ele><time>2021-02-18T15:26:54Z</time><name>PT13411</name></trkpt>
<trkpt lat="53.461510" lon="05.836827"><ele>17.4</ele><time>2021-02-18T15:26:55Z</time><name>PT13412</name></trkpt>
<trkpt lat="53.461510" lon="05.836807"><ele>17.4</ele><time>2021-02-18T15:26:56Z</time><name>PT13413</name></trkpt>
<trkpt lat="53.461511" lon="05.836787"><ele>17.3</ele><time>2021-02-18T15:26:57Z</time><name>PT13414</name></trkpt>
<trkpt lat="53.461513" lon="05.836769"><ele>17.1</ele><time>2021-02-18T15:26:58Z</time><name>PT13415</name></trkpt>
<trkpt lat="53.461514" lon="05.836750"><ele>17</ele><time>2021-02-18T15:26:59Z</time><name>PT13416</name></trkpt>
<trkpt lat="53.461514" lon="05.836731"><ele>17</ele><time>2021-02-18T15:27:00Z</time><name>PT13417</name></trkpt>
<trkpt lat="53.461515" lon="05.836710"><ele>16.8</ele><time>2021-02-18T15:27:01Z</time><name>PT13418</name></trkpt>
<trkpt lat="53.461515" lon="05.836692"><ele>16.7</ele><time>2021-02-18T15:27:02Z</time><name>PT13419</name></trkpt>
<trkpt lat="53.461516" lon="05.836675"><ele>16.6</ele><time>2021-02-18T15:27:03Z</time><name>PT13420</name></trkpt>
<trkpt lat="53.461516" lon="05.836659"><ele>16.7</ele><time>2021-02-18T15:27:04Z</time><name>PT13421</name></trkpt>
<trkpt lat="53.461518" lon="05.836642"><ele>16.5</ele><time>2021-02-18T15:27:05Z</time><name>PT13422</name></trkpt>
<trkpt lat="53.461518" lon="05.836624"><ele>16.6</ele><time>2021-02-18T15:27:06Z</time><name>PT13423</name></trkpt>
<trkpt lat="53.461519" lon="05.836606"><ele>16.8</ele><time>2021-02-18T15:27:07Z</time><name>PT13424</name></trkpt>
<trkpt lat="53.461519" lon="05.836588"><ele>16.9</ele><time>2021-02-18T15:27:08Z</time><name>PT13425</name></trkpt>
<trkpt lat="53.461520" lon="05.836569"><ele>16.9</ele><time>2021-02-18T15:27:09Z</time><name>PT13426</name></trkpt>
<trkpt lat="53.461521" lon="05.836549"><ele>16.9</ele><time>2021-02-18T15:27:10Z</time><name>PT13427</name></trkpt>
<trkpt lat="53.461522" lon="05.836530"><ele>16.9</ele><time>2021-02-18T15:27:11Z</time><name>PT13428</name></trkpt>
<trkpt lat="53.461522" lon="05.836510"><ele>16.8</ele><time>2021-02-18T15:27:12Z</time><name>PT13429</name></trkpt>
<trkpt lat="53.461523" lon="05.836492"><ele>16.8</ele><time>2021-02-18T15:27:13Z</time><name>PT13430</name></trkpt>
<trkpt lat="53.461523" lon="05.836472"><ele>16.6</ele><time>2021-02-18T15:27:14Z</time><name>PT13431</name></trkpt>
<trkpt lat="53.461524" lon="05.836452"><ele>16.6</ele><time>2021-02-18T15:27:15Z</time><name>PT13432</name></trkpt>
<trkpt lat="53.461525" lon="05.836432"><ele>16.6</ele><time>2021-02-18T15:27:16Z</time><name>PT13433</name></trkpt>
<trkpt lat="53.461527" lon="05.836413"><ele>16.7</ele><time>2021-02-18T15:27:17Z</time><name>PT13434</name></trkpt>
<trkpt lat="53.461528" lon="05.836394"><ele>16.6</ele><time>2021-02-18T15:27:18Z</time><name>PT13435</name></trkpt>
<trkpt lat="53.461529" lon="05.836377"><ele>16.6</ele><time>2021-02-18T15:27:19Z</time><name>PT13436</name></trkpt>
<trkpt lat="53.461529" lon="05.836358"><ele>16.6</ele><time>2021-02-18T15:27:20Z</time><name>PT13437</name></trkpt>
<trkpt lat="53.461530" lon="05.836339"><ele>16.4</ele><time>2021-02-18T15:27:21Z</time><name>PT13438</name></trkpt>
<trkpt lat="53.461531" lon="05.836322"><ele>16.3</ele><time>2021-02-18T15:27:22Z</time><name>PT13439</name></trkpt>
<trkpt lat="53.461531" lon="05.836303"><ele>16.1</ele><time>2021-02-18T15:27:23Z</time><name>PT13440</name></trkpt>
<trkpt lat="53.461531" lon="05.836284"><ele>16.1</ele><time>2021-02-18T15:27:24Z</time><name>PT13441</name></trkpt>
<trkpt lat="53.461532" lon="05.836266"><ele>16.3</ele><time>2021-02-18T15:27:25Z</time><name>PT13442</name></trkpt>
<trkpt lat="53.461533" lon="05.836247"><ele>16.4</ele><time>2021-02-18T15:27:26Z</time><name>PT13443</name></trkpt>
<trkpt lat="53.461534" lon="05.836227"><ele>16.4</ele><time>2021-02-18T15:27:27Z</time><name>PT13444</name></trkpt>
<trkpt lat="53.461536" lon="05.836207"><ele>16.4</ele><time>2021-02-18T15:27:28Z</time><name>PT13445</name></trkpt>
<trkpt lat="53.461538" lon="05.836189"><ele>16.4</ele><time>2021-02-18T15:27:29Z</time><name>PT13446</name></trkpt>
<trkpt lat="53.461540" lon="05.836172"><ele>16.3</ele><time>2021-02-18T15:27:30Z</time><name>PT13447</name></trkpt>
<trkpt lat="53.461540" lon="05.836154"><ele>16.2</ele><time>2021-02-18T15:27:31Z</time><name>PT13448</name></trkpt>
<trkpt lat="53.461541" lon="05.836135"><ele>16.3</ele><time>2021-02-18T15:27:32Z</time><name>PT13449</name></trkpt>
<trkpt lat="53.461542" lon="05.836117"><ele>16.4</ele><time>2021-02-18T15:27:33Z</time><name>PT13450</name></trkpt>
<trkpt lat="53.461543" lon="05.836098"><ele>16.5</ele><time>2021-02-18T15:27:34Z</time><name>PT13451</name></trkpt>
<trkpt lat="53.461543" lon="05.836079"><ele>16.5</ele><time>2021-02-18T15:27:35Z</time><name>PT13452</name></trkpt>
<trkpt lat="53.461543" lon="05.836060"><ele>16.5</ele><time>2021-02-18T15:27:36Z</time><name>PT13453</name></trkpt>
<trkpt lat="53.461543" lon="05.836043"><ele>16.5</ele><time>2021-02-18T15:27:37Z</time><name>PT13454</name></trkpt>
<trkpt lat="53.461543" lon="05.836024"><ele>16.4</ele><time>2021-02-18T15:27:38Z</time><name>PT13455</name></trkpt>
<trkpt lat="53.461544" lon="05.836005"><ele>16.5</ele><time>2021-02-18T15:27:39Z</time><name>PT13456</name></trkpt>
<trkpt lat="53.461545" lon="05.835987"><ele>16.7</ele><time>2021-02-18T15:27:40Z</time><name>PT13457</name></trkpt>
<trkpt lat="53.461547" lon="05.835969"><ele>16.5</ele><time>2021-02-18T15:27:41Z</time><name>PT13458</name></trkpt>
<trkpt lat="53.461548" lon="05.835951"><ele>16.4</ele><time>2021-02-18T15:27:42Z</time><name>PT13459</name></trkpt>
<trkpt lat="53.461549" lon="05.835934"><ele>16.4</ele><time>2021-02-18T15:27:43Z</time><name>PT13460</name></trkpt>
<trkpt lat="53.461549" lon="05.835916"><ele>16.4</ele><time>2021-02-18T15:27:44Z</time><name>PT13461</name></trkpt>
<trkpt lat="53.461549" lon="05.835897"><ele>16.2</ele><time>2021-02-18T15:27:45Z</time><name>PT13462</name></trkpt>
<trkpt lat="53.461549" lon="05.835879"><ele>16.1</ele><time>2021-02-18T15:27:46Z</time><name>PT13463</name></trkpt>
<trkpt lat="53.461550" lon="05.835862"><ele>16.2</ele><time>2021-02-18T15:27:47Z</time><name>PT13464</name></trkpt>
<trkpt lat="53.461551" lon="05.835843"><ele>16.4</ele><time>2021-02-18T15:27:48Z</time><name>PT13465</name></trkpt>
<trkpt lat="53.461551" lon="05.835822"><ele>16.4</ele><time>2021-02-18T15:27:49Z</time><name>PT13466</name></trkpt>
<trkpt lat="53.461551" lon="05.835803"><ele>16.5</ele><time>2021-02-18T15:27:50Z</time><name>PT13467</name></trkpt>
<trkpt lat="53.461551" lon="05.835785"><ele>16.4</ele><time>2021-02-18T15:27:51Z</time><name>PT13468</name></trkpt>
<trkpt lat="53.461553" lon="05.835767"><ele>16.4</ele><time>2021-02-18T15:27:52Z</time><name>PT13469</name></trkpt>
<trkpt lat="53.461554" lon="05.835749"><ele>16.4</ele><time>2021-02-18T15:27:53Z</time><name>PT13470</name></trkpt>
<trkpt lat="53.461555" lon="05.835733"><ele>16.4</ele><time>2021-02-18T15:27:54Z</time><name>PT13471</name></trkpt>
<trkpt lat="53.461555" lon="05.835716"><ele>16.4</ele><time>2021-02-18T15:27:55Z</time><name>PT13472</name></trkpt>
<trkpt lat="53.461554" lon="05.835699"><ele>16.4</ele><time>2021-02-18T15:27:56Z</time><name>PT13473</name></trkpt>
<trkpt lat="53.461555" lon="05.835681"><ele>16.4</ele><time>2021-02-18T15:27:57Z</time><name>PT13474</name></trkpt>
<trkpt lat="53.461555" lon="05.835662"><ele>16.4</ele><time>2021-02-18T15:27:58Z</time><name>PT13475</name></trkpt>
<trkpt lat="53.461554" lon="05.835643"><ele>16.4</ele><time>2021-02-18T15:27:59Z</time><name>PT13476</name></trkpt>
<trkpt lat="53.461554" lon="05.835621"><ele>16.4</ele><time>2021-02-18T15:28:00Z</time><name>PT13477</name></trkpt>
<trkpt lat="53.461555" lon="05.835600"><ele>16.4</ele><time>2021-02-18T15:28:01Z</time><name>PT13478</name></trkpt>
<trkpt lat="53.461556" lon="05.835580"><ele>16.4</ele><time>2021-02-18T15:28:02Z</time><name>PT13479</name></trkpt>
<trkpt lat="53.461557" lon="05.835558"><ele>16.4</ele><time>2021-02-18T15:28:03Z</time><name>PT13480</name></trkpt>
<trkpt lat="53.461559" lon="05.835540"><ele>16.1</ele><time>2021-02-18T15:28:04Z</time><name>PT13481</name></trkpt>
<trkpt lat="53.461560" lon="05.835521"><ele>15.9</ele><time>2021-02-18T15:28:05Z</time><name>PT13482</name></trkpt>
<trkpt lat="53.461560" lon="05.835502"><ele>15.9</ele><time>2021-02-18T15:28:06Z</time><name>PT13483</name></trkpt>
<trkpt lat="53.461559" lon="05.835484"><ele>15.8</ele><time>2021-02-18T15:28:07Z</time><name>PT13484</name></trkpt>
<trkpt lat="53.461560" lon="05.835467"><ele>15.7</ele><time>2021-02-18T15:28:08Z</time><name>PT13485</name></trkpt>
<trkpt lat="53.461560" lon="05.835450"><ele>15.8</ele><time>2021-02-18T15:28:09Z</time><name>PT13486</name></trkpt>
<trkpt lat="53.461561" lon="05.835434"><ele>15.9</ele><time>2021-02-18T15:28:10Z</time><name>PT13487</name></trkpt>
<trkpt lat="53.461562" lon="05.835416"><ele>15.8</ele><time>2021-02-18T15:28:11Z</time><name>PT13488</name></trkpt>
<trkpt lat="53.461567" lon="05.835401"><ele>15.9</ele><time>2021-02-18T15:28:12Z</time><name>PT13489</name></trkpt>
<trkpt lat="53.461569" lon="05.835384"><ele>15.8</ele><time>2021-02-18T15:28:13Z</time><name>PT13490</name></trkpt>
<trkpt lat="53.461571" lon="05.835367"><ele>15.8</ele><time>2021-02-18T15:28:14Z</time><name>PT13491</name></trkpt>
<trkpt lat="53.461573" lon="05.835351"><ele>15.9</ele><time>2021-02-18T15:28:15Z</time><name>PT13492</name></trkpt>
<trkpt lat="53.461573" lon="05.835332"><ele>16.1</ele><time>2021-02-18T15:28:16Z</time><name>PT13493</name></trkpt>
<trkpt lat="53.461574" lon="05.835313"><ele>16.1</ele><time>2021-02-18T15:28:17Z</time><name>PT13494</name></trkpt>
<trkpt lat="53.461575" lon="05.835293"><ele>16.4</ele><time>2021-02-18T15:28:18Z</time><name>PT13495</name></trkpt>
<trkpt lat="53.461576" lon="05.835273"><ele>16.4</ele><time>2021-02-18T15:28:19Z</time><name>PT13496</name></trkpt>
<trkpt lat="53.461578" lon="05.835253"><ele>16.2</ele><time>2021-02-18T15:28:20Z</time><name>PT13497</name></trkpt>
<trkpt lat="53.461578" lon="05.835232"><ele>16</ele><time>2021-02-18T15:28:21Z</time><name>PT13498</name></trkpt>
<trkpt lat="53.461580" lon="05.835213"><ele>15.9</ele><time>2021-02-18T15:28:22Z</time><name>PT13499</name></trkpt>
<trkpt lat="53.461582" lon="05.835193"><ele>15.8</ele><time>2021-02-18T15:28:23Z</time><name>PT13500</name></trkpt>
<trkpt lat="53.461584" lon="05.835175"><ele>15.9</ele><time>2021-02-18T15:28:24Z</time><name>PT13501</name></trkpt>
<trkpt lat="53.461585" lon="05.835158"><ele>16.1</ele><time>2021-02-18T15:28:25Z</time><name>PT13502</name></trkpt>
<trkpt lat="53.461586" lon="05.835139"><ele>16.1</ele><time>2021-02-18T15:28:26Z</time><name>PT13503</name></trkpt>
<trkpt lat="53.461586" lon="05.835120"><ele>16</ele><time>2021-02-18T15:28:27Z</time><name>PT13504</name></trkpt>
<trkpt lat="53.461586" lon="05.835100"><ele>15.9</ele><time>2021-02-18T15:28:28Z</time><name>PT13505</name></trkpt>
<trkpt lat="53.461585" lon="05.835080"><ele>15.9</ele><time>2021-02-18T15:28:29Z</time><name>PT13506</name></trkpt>
<trkpt lat="53.461586" lon="05.835060"><ele>15.7</ele><time>2021-02-18T15:28:30Z</time><name>PT13507</name></trkpt>
<trkpt lat="53.461587" lon="05.835041"><ele>15.7</ele><time>2021-02-18T15:28:31Z</time><name>PT13508</name></trkpt>
<trkpt lat="53.461588" lon="05.835024"><ele>15.7</ele><time>2021-02-18T15:28:32Z</time><name>PT13509</name></trkpt>
<trkpt lat="53.461590" lon="05.835009"><ele>15.8</ele><time>2021-02-18T15:28:33Z</time><name>PT13510</name></trkpt>
<trkpt lat="53.461591" lon="05.834992"><ele>15.8</ele><time>2021-02-18T15:28:34Z</time><name>PT13511</name></trkpt>
<trkpt lat="53.461591" lon="05.834976"><ele>15.8</ele><time>2021-02-18T15:28:35Z</time><name>PT13512</name></trkpt>
<trkpt lat="53.461591" lon="05.834958"><ele>15.8</ele><time>2021-02-18T15:28:36Z</time><name>PT13513</name></trkpt>
<trkpt lat="53.461590" lon="05.834938"><ele>15.6</ele><time>2021-02-18T15:28:37Z</time><name>PT13514</name></trkpt>
<trkpt lat="53.461591" lon="05.834919"><ele>15.5</ele><time>2021-02-18T15:28:38Z</time><name>PT13515</name></trkpt>
<trkpt lat="53.461593" lon="05.834901"><ele>15.6</ele><time>2021-02-18T15:28:39Z</time><name>PT13516</name></trkpt>
<trkpt lat="53.461595" lon="05.834884"><ele>15.8</ele><time>2021-02-18T15:28:40Z</time><name>PT13517</name></trkpt>
<trkpt lat="53.461596" lon="05.834869"><ele>15.8</ele><time>2021-02-18T15:28:41Z</time><name>PT13518</name></trkpt>
<trkpt lat="53.461597" lon="05.834854"><ele>15.9</ele><time>2021-02-18T15:28:42Z</time><name>PT13519</name></trkpt>
<trkpt lat="53.461597" lon="05.834838"><ele>15.9</ele><time>2021-02-18T15:28:43Z</time><name>PT13520</name></trkpt>
<trkpt lat="53.461598" lon="05.834821"><ele>15.9</ele><time>2021-02-18T15:28:44Z</time><name>PT13521</name></trkpt>
<trkpt lat="53.461598" lon="05.834803"><ele>15.5</ele><time>2021-02-18T15:28:45Z</time><name>PT13522</name></trkpt>
<trkpt lat="53.461600" lon="05.834785"><ele>15.5</ele><time>2021-02-18T15:28:46Z</time><name>PT13523</name></trkpt>
<trkpt lat="53.461600" lon="05.834768"><ele>15.4</ele><time>2021-02-18T15:28:47Z</time><name>PT13524</name></trkpt>
<trkpt lat="53.461600" lon="05.834753"><ele>15.5</ele><time>2021-02-18T15:28:48Z</time><name>PT13525</name></trkpt>
<trkpt lat="53.461598" lon="05.834738"><ele>15.6</ele><time>2021-02-18T15:28:49Z</time><name>PT13526</name></trkpt>
<trkpt lat="53.461595" lon="05.834724"><ele>15.7</ele><time>2021-02-18T15:28:50Z</time><name>PT13527</name></trkpt>
<trkpt lat="53.461593" lon="05.834709"><ele>15.8</ele><time>2021-02-18T15:28:51Z</time><name>PT13528</name></trkpt>
<trkpt lat="53.461591" lon="05.834696"><ele>16</ele><time>2021-02-18T15:28:52Z</time><name>PT13529</name></trkpt>
<trkpt lat="53.461588" lon="05.834685"><ele>16.1</ele><time>2021-02-18T15:28:53Z</time><name>PT13530</name></trkpt>
<trkpt lat="53.461586" lon="05.834679"><ele>16</ele><time>2021-02-18T15:28:54Z</time><name>PT13531</name></trkpt>
<trkpt lat="53.461584" lon="05.834671"><ele>15.9</ele><time>2021-02-18T15:28:55Z</time><name>PT13532</name></trkpt>
<trkpt lat="53.461583" lon="05.834668"><ele>15.9</ele><time>2021-02-18T15:28:56Z</time><name>PT13533</name></trkpt>
<trkpt lat="53.461582" lon="05.834668"><ele>15.8</ele><time>2021-02-18T15:28:57Z</time><name>PT13534</name></trkpt>
<trkpt lat="53.461582" lon="05.834668"><ele>15.5</ele><time>2021-02-18T15:28:58Z</time><name>PT13535</name></trkpt>
<trkpt lat="53.461581" lon="05.834667"><ele>15.9</ele><time>2021-02-18T15:29:00Z</time><name>PT13536</name></trkpt>
<trkpt lat="53.461577" lon="05.834659"><ele>16</ele><time>2021-02-18T15:29:01Z</time><name>PT13537</name></trkpt>
<trkpt lat="53.461574" lon="05.834655"><ele>16</ele><time>2021-02-18T15:29:02Z</time><name>PT13538</name></trkpt>
<trkpt lat="53.461573" lon="05.834653"><ele>15.9</ele><time>2021-02-18T15:29:03Z</time><name>PT13539</name></trkpt>
<trkpt lat="53.461571" lon="05.834650"><ele>15.7</ele><time>2021-02-18T15:29:04Z</time><name>PT13540</name></trkpt>
<trkpt lat="53.461570" lon="05.834640"><ele>15.6</ele><time>2021-02-18T15:29:05Z</time><name>PT13541</name></trkpt>
<trkpt lat="53.461574" lon="05.834638"><ele>15.7</ele><time>2021-02-18T15:29:13Z</time><name>PT13542</name></trkpt>
<trkpt lat="53.461574" lon="05.834622"><ele>15.8</ele><time>2021-02-18T15:29:14Z</time><name>PT13543</name></trkpt>
<trkpt lat="53.461575" lon="05.834610"><ele>15.8</ele><time>2021-02-18T15:29:15Z</time><name>PT13544</name></trkpt>
<trkpt lat="53.461572" lon="05.834595"><ele>15.7</ele><time>2021-02-18T15:29:16Z</time><name>PT13545</name></trkpt>
<trkpt lat="53.461567" lon="05.834583"><ele>15.7</ele><time>2021-02-18T15:29:17Z</time><name>PT13546</name></trkpt>
<trkpt lat="53.461562" lon="05.834574"><ele>15.4</ele><time>2021-02-18T15:29:18Z</time><name>PT13547</name></trkpt>
<trkpt lat="53.461558" lon="05.834565"><ele>15.4</ele><time>2021-02-18T15:29:19Z</time><name>PT13548</name></trkpt>
<trkpt lat="53.461555" lon="05.834553"><ele>15.4</ele><time>2021-02-18T15:29:20Z</time><name>PT13549</name></trkpt>
<trkpt lat="53.461554" lon="05.834540"><ele>15.6</ele><time>2021-02-18T15:29:21Z</time><name>PT13550</name></trkpt>
<trkpt lat="53.461554" lon="05.834529"><ele>15.5</ele><time>2021-02-18T15:29:22Z</time><name>PT13551</name></trkpt>
<trkpt lat="53.461551" lon="05.834518"><ele>15.8</ele><time>2021-02-18T15:29:23Z</time><name>PT13552</name></trkpt>
<trkpt lat="53.461547" lon="05.834506"><ele>15.9</ele><time>2021-02-18T15:29:24Z</time><name>PT13553</name></trkpt>
<trkpt lat="53.461543" lon="05.834493"><ele>15.9</ele><time>2021-02-18T15:29:25Z</time><name>PT13554</name></trkpt>
<trkpt lat="53.461540" lon="05.834484"><ele>15.9</ele><time>2021-02-18T15:29:26Z</time><name>PT13555</name></trkpt>
<trkpt lat="53.461535" lon="05.834475"><ele>15.9</ele><time>2021-02-18T15:29:27Z</time><name>PT13556</name></trkpt>
<trkpt lat="53.461532" lon="05.834465"><ele>16</ele><time>2021-02-18T15:29:28Z</time><name>PT13557</name></trkpt>
<trkpt lat="53.461530" lon="05.834453"><ele>16</ele><time>2021-02-18T15:29:29Z</time><name>PT13558</name></trkpt>
<trkpt lat="53.461527" lon="05.834442"><ele>16.3</ele><time>2021-02-18T15:29:30Z</time><name>PT13559</name></trkpt>
<trkpt lat="53.461523" lon="05.834435"><ele>16.2</ele><time>2021-02-18T15:29:31Z</time><name>PT13560</name></trkpt>
<trkpt lat="53.461520" lon="05.834427"><ele>16.4</ele><time>2021-02-18T15:29:32Z</time><name>PT13561</name></trkpt>
<trkpt lat="53.461517" lon="05.834422"><ele>16.5</ele><time>2021-02-18T15:29:33Z</time><name>PT13562</name></trkpt>
<trkpt lat="53.461515" lon="05.834417"><ele>16.3</ele><time>2021-02-18T15:29:34Z</time><name>PT13563</name></trkpt>
<trkpt lat="53.461514" lon="05.834410"><ele>16.4</ele><time>2021-02-18T15:29:35Z</time><name>PT13564</name></trkpt>
<trkpt lat="53.461513" lon="05.834403"><ele>16.8</ele><time>2021-02-18T15:29:36Z</time><name>PT13565</name></trkpt>
<trkpt lat="53.461514" lon="05.834397"><ele>16.4</ele><time>2021-02-18T15:29:37Z</time><name>PT13566</name></trkpt>
<trkpt lat="53.461516" lon="05.834393"><ele>16.4</ele><time>2021-02-18T15:29:38Z</time><name>PT13567</name></trkpt>
<trkpt lat="53.461519" lon="05.834391"><ele>16.4</ele><time>2021-02-18T15:29:39Z</time><name>PT13568</name></trkpt>
<trkpt lat="53.461520" lon="05.834388"><ele>16.2</ele><time>2021-02-18T15:29:40Z</time><name>PT13569</name></trkpt>
<trkpt lat="53.461519" lon="05.834388"><ele>16</ele><time>2021-02-18T15:29:41Z</time><name>PT13570</name></trkpt>
<trkpt lat="53.461519" lon="05.834389"><ele>16.3</ele><time>2021-02-18T15:29:42Z</time><name>PT13571</name></trkpt>
<trkpt lat="53.461518" lon="05.834388"><ele>16.3</ele><time>2021-02-18T15:29:43Z</time><name>PT13572</name></trkpt>
<trkpt lat="53.461518" lon="05.834388"><ele>16.4</ele><time>2021-02-18T15:29:44Z</time><name>PT13573</name></trkpt>
<trkpt lat="53.461514" lon="05.834367"><ele>17.4</ele><time>2021-02-18T15:45:48Z</time><name>PT13574</name></trkpt>
<trkpt lat="53.461512" lon="05.834376"><ele>17.9</ele><time>2021-02-18T15:45:56Z</time><name>PT13575</name></trkpt>
<trkpt lat="53.461511" lon="05.834383"><ele>17.9</ele><time>2021-02-18T15:45:57Z</time><name>PT13576</name></trkpt>
<trkpt lat="53.461510" lon="05.834392"><ele>17.9</ele><time>2021-02-18T15:45:58Z</time><name>PT13577</name></trkpt>
<trkpt lat="53.461510" lon="05.834396"><ele>17.9</ele><time>2021-02-18T15:45:59Z</time><name>PT13578</name></trkpt>
<trkpt lat="53.461510" lon="05.834407"><ele>17.8</ele><time>2021-02-18T15:46:00Z</time><name>PT13579</name></trkpt>
<trkpt lat="53.461512" lon="05.834416"><ele>17.9</ele><time>2021-02-18T15:46:01Z</time><name>PT13580</name></trkpt>
<trkpt lat="53.461515" lon="05.834421"><ele>17.9</ele><time>2021-02-18T15:46:02Z</time><name>PT13581</name></trkpt>
<trkpt lat="53.461515" lon="05.834424"><ele>18.1</ele><time>2021-02-18T15:46:03Z</time><name>PT13582</name></trkpt>
<trkpt lat="53.461520" lon="05.834428"><ele>18.2</ele><time>2021-02-18T15:46:04Z</time><name>PT13583</name></trkpt>
<trkpt lat="53.461524" lon="05.834444"><ele>18.1</ele><time>2021-02-18T15:46:05Z</time><name>PT13584</name></trkpt>
<trkpt lat="53.461526" lon="05.834461"><ele>17.9</ele><time>2021-02-18T15:46:06Z</time><name>PT13585</name></trkpt>
<trkpt lat="53.461528" lon="05.834476"><ele>17.9</ele><time>2021-02-18T15:46:07Z</time><name>PT13586</name></trkpt>
<trkpt lat="53.461531" lon="05.834487"><ele>17.8</ele><time>2021-02-18T15:46:08Z</time><name>PT13587</name></trkpt>
<trkpt lat="53.461534" lon="05.834498"><ele>17.9</ele><time>2021-02-18T15:46:09Z</time><name>PT13588</name></trkpt>
<trkpt lat="53.461535" lon="05.834513"><ele>17.8</ele><time>2021-02-18T15:46:10Z</time><name>PT13589</name></trkpt>
<trkpt lat="53.461535" lon="05.834529"><ele>17.6</ele><time>2021-02-18T15:46:11Z</time><name>PT13590</name></trkpt>
<trkpt lat="53.461533" lon="05.834547"><ele>17.5</ele><time>2021-02-18T15:46:12Z</time><name>PT13591</name></trkpt>
<trkpt lat="53.461530" lon="05.834562"><ele>17.4</ele><time>2021-02-18T15:46:13Z</time><name>PT13592</name></trkpt>
<trkpt lat="53.461525" lon="05.834571"><ele>17.4</ele><time>2021-02-18T15:46:14Z</time><name>PT13593</name></trkpt>
<trkpt lat="53.461517" lon="05.834569"><ele>17.2</ele><time>2021-02-18T15:46:15Z</time><name>PT13594</name></trkpt>
<trkpt lat="53.461509" lon="05.834563"><ele>17.3</ele><time>2021-02-18T15:46:16Z</time><name>PT13595</name></trkpt>
<trkpt lat="53.461500" lon="05.834557"><ele>17.3</ele><time>2021-02-18T15:46:17Z</time><name>PT13596</name></trkpt>
<trkpt lat="53.461491" lon="05.834557"><ele>17.3</ele><time>2021-02-18T15:46:18Z</time><name>PT13597</name></trkpt>
<trkpt lat="53.461486" lon="05.834561"><ele>17.4</ele><time>2021-02-18T15:46:19Z</time><name>PT13598</name></trkpt>
<trkpt lat="53.461478" lon="05.834561"><ele>17.4</ele><time>2021-02-18T15:46:20Z</time><name>PT13599</name></trkpt>
<trkpt lat="53.461469" lon="05.834557"><ele>17.4</ele><time>2021-02-18T15:46:21Z</time><name>PT13600</name></trkpt>
<trkpt lat="53.461460" lon="05.834555"><ele>17.7</ele><time>2021-02-18T15:46:22Z</time><name>PT13601</name></trkpt>
<trkpt lat="53.461450" lon="05.834554"><ele>17.8</ele><time>2021-02-18T15:46:23Z</time><name>PT13602</name></trkpt>
<trkpt lat="53.461440" lon="05.834551"><ele>18</ele><time>2021-02-18T15:46:24Z</time><name>PT13603</name></trkpt>
<trkpt lat="53.461430" lon="05.834547"><ele>18.4</ele><time>2021-02-18T15:46:25Z</time><name>PT13604</name></trkpt>
<trkpt lat="53.461421" lon="05.834544"><ele>18.2</ele><time>2021-02-18T15:46:26Z</time><name>PT13605</name></trkpt>
<trkpt lat="53.461414" lon="05.834543"><ele>18.5</ele><time>2021-02-18T15:46:27Z</time><name>PT13606</name></trkpt>
<trkpt lat="53.461405" lon="05.834542"><ele>18.7</ele><time>2021-02-18T15:46:28Z</time><name>PT13607</name></trkpt>
<trkpt lat="53.461396" lon="05.834541"><ele>18.8</ele><time>2021-02-18T15:46:29Z</time><name>PT13608</name></trkpt>
<trkpt lat="53.461386" lon="05.834538"><ele>18.9</ele><time>2021-02-18T15:46:30Z</time><name>PT13609</name></trkpt>
<trkpt lat="53.461376" lon="05.834536"><ele>18.9</ele><time>2021-02-18T15:46:31Z</time><name>PT13610</name></trkpt>
<trkpt lat="53.461366" lon="05.834535"><ele>18.8</ele><time>2021-02-18T15:46:32Z</time><name>PT13611</name></trkpt>
<trkpt lat="53.461356" lon="05.834536"><ele>18.8</ele><time>2021-02-18T15:46:33Z</time><name>PT13612</name></trkpt>
<trkpt lat="53.461345" lon="05.834534"><ele>18.9</ele><time>2021-02-18T15:46:34Z</time><name>PT13613</name></trkpt>
<trkpt lat="53.461335" lon="05.834531"><ele>19</ele><time>2021-02-18T15:46:35Z</time><name>PT13614</name></trkpt>
<trkpt lat="53.461326" lon="05.834530"><ele>19.1</ele><time>2021-02-18T15:46:36Z</time><name>PT13615</name></trkpt>
<trkpt lat="53.461316" lon="05.834529"><ele>19.4</ele><time>2021-02-18T15:46:37Z</time><name>PT13616</name></trkpt>
<trkpt lat="53.461307" lon="05.834527"><ele>19.5</ele><time>2021-02-18T15:46:38Z</time><name>PT13617</name></trkpt>
<trkpt lat="53.461297" lon="05.834526"><ele>19.4</ele><time>2021-02-18T15:46:39Z</time><name>PT13618</name></trkpt>
<trkpt lat="53.461287" lon="05.834525"><ele>19.3</ele><time>2021-02-18T15:46:40Z</time><name>PT13619</name></trkpt>
<trkpt lat="53.461276" lon="05.834526"><ele>19.4</ele><time>2021-02-18T15:46:41Z</time><name>PT13620</name></trkpt>
<trkpt lat="53.461265" lon="05.834524"><ele>19.5</ele><time>2021-02-18T15:46:42Z</time><name>PT13621</name></trkpt>
<trkpt lat="53.461253" lon="05.834522"><ele>19.7</ele><time>2021-02-18T15:46:43Z</time><name>PT13622</name></trkpt>
<trkpt lat="53.461242" lon="05.834519"><ele>19.8</ele><time>2021-02-18T15:46:44Z</time><name>PT13623</name></trkpt>
<trkpt lat="53.461230" lon="05.834518"><ele>19.9</ele><time>2021-02-18T15:46:45Z</time><name>PT13624</name></trkpt>
<trkpt lat="53.461220" lon="05.834516"><ele>20.2</ele><time>2021-02-18T15:46:46Z</time><name>PT13625</name></trkpt>
<trkpt lat="53.461212" lon="05.834514"><ele>20.3</ele><time>2021-02-18T15:46:47Z</time><name>PT13626</name></trkpt>
<trkpt lat="53.461204" lon="05.834512"><ele>20.5</ele><time>2021-02-18T15:46:48Z</time><name>PT13627</name></trkpt>
<trkpt lat="53.461194" lon="05.834511"><ele>20.8</ele><time>2021-02-18T15:46:49Z</time><name>PT13628</name></trkpt>
<trkpt lat="53.461184" lon="05.834510"><ele>20.6</ele><time>2021-02-18T15:46:50Z</time><name>PT13629</name></trkpt>
<trkpt lat="53.461174" lon="05.834508"><ele>20.9</ele><time>2021-02-18T15:46:51Z</time><name>PT13630</name></trkpt>
<trkpt lat="53.461165" lon="05.834505"><ele>21</ele><time>2021-02-18T15:46:52Z</time><name>PT13631</name></trkpt>
<trkpt lat="53.461156" lon="05.834501"><ele>21</ele><time>2021-02-18T15:46:53Z</time><name>PT13632</name></trkpt>
<trkpt lat="53.461145" lon="05.834500"><ele>21.1</ele><time>2021-02-18T15:46:54Z</time><name>PT13633</name></trkpt>
<trkpt lat="53.461135" lon="05.834499"><ele>21</ele><time>2021-02-18T15:46:55Z</time><name>PT13634</name></trkpt>
<trkpt lat="53.461126" lon="05.834498"><ele>21</ele><time>2021-02-18T15:46:56Z</time><name>PT13635</name></trkpt>
<trkpt lat="53.461117" lon="05.834495"><ele>21</ele><time>2021-02-18T15:46:57Z</time><name>PT13636</name></trkpt>
<trkpt lat="53.461107" lon="05.834491"><ele>21</ele><time>2021-02-18T15:46:58Z</time><name>PT13637</name></trkpt>
<trkpt lat="53.461095" lon="05.834483"><ele>21</ele><time>2021-02-18T15:46:59Z</time><name>PT13638</name></trkpt>
<trkpt lat="53.461084" lon="05.834479"><ele>21</ele><time>2021-02-18T15:47:00Z</time><name>PT13639</name></trkpt>
<trkpt lat="53.461072" lon="05.834478"><ele>21</ele><time>2021-02-18T15:47:01Z</time><name>PT13640</name></trkpt>
<trkpt lat="53.461060" lon="05.834478"><ele>21.4</ele><time>2021-02-18T15:47:02Z</time><name>PT13641</name></trkpt>
<trkpt lat="53.461050" lon="05.834479"><ele>21.5</ele><time>2021-02-18T15:47:03Z</time><name>PT13642</name></trkpt>
<trkpt lat="53.461042" lon="05.834479"><ele>21.4</ele><time>2021-02-18T15:47:04Z</time><name>PT13643</name></trkpt>
<trkpt lat="53.461033" lon="05.834477"><ele>21.5</ele><time>2021-02-18T15:47:05Z</time><name>PT13644</name></trkpt>
<trkpt lat="53.461023" lon="05.834472"><ele>20.8</ele><time>2021-02-18T15:47:06Z</time><name>PT13645</name></trkpt>
<trkpt lat="53.461013" lon="05.834469"><ele>20.5</ele><time>2021-02-18T15:47:07Z</time><name>PT13646</name></trkpt>
<trkpt lat="53.461003" lon="05.834464"><ele>20.4</ele><time>2021-02-18T15:47:08Z</time><name>PT13647</name></trkpt>
<trkpt lat="53.460994" lon="05.834462"><ele>20</ele><time>2021-02-18T15:47:09Z</time><name>PT13648</name></trkpt>
<trkpt lat="53.460986" lon="05.834463"><ele>19.9</ele><time>2021-02-18T15:47:10Z</time><name>PT13649</name></trkpt>
<trkpt lat="53.460979" lon="05.834464"><ele>19.9</ele><time>2021-02-18T15:47:11Z</time><name>PT13650</name></trkpt>
<trkpt lat="53.460973" lon="05.834465"><ele>19.9</ele><time>2021-02-18T15:47:12Z</time><name>PT13651</name></trkpt>
<trkpt lat="53.460967" lon="05.834463"><ele>19.9</ele><time>2021-02-18T15:47:13Z</time><name>PT13652</name></trkpt>
<trkpt lat="53.460960" lon="05.834459"><ele>19.9</ele><time>2021-02-18T15:47:14Z</time><name>PT13653</name></trkpt>
<trkpt lat="53.460953" lon="05.834455"><ele>19.9</ele><time>2021-02-18T15:47:15Z</time><name>PT13654</name></trkpt>
<trkpt lat="53.460945" lon="05.834450"><ele>19.5</ele><time>2021-02-18T15:47:16Z</time><name>PT13655</name></trkpt>
<trkpt lat="53.460936" lon="05.834443"><ele>19.4</ele><time>2021-02-18T15:47:17Z</time><name>PT13656</name></trkpt>
<trkpt lat="53.460929" lon="05.834436"><ele>19.2</ele><time>2021-02-18T15:47:18Z</time><name>PT13657</name></trkpt>
<trkpt lat="53.460926" lon="05.834425"><ele>19.2</ele><time>2021-02-18T15:47:19Z</time><name>PT13658</name></trkpt>
<trkpt lat="53.460920" lon="05.834414"><ele>19.2</ele><time>2021-02-18T15:47:20Z</time><name>PT13659</name></trkpt>
<trkpt lat="53.460917" lon="05.834399"><ele>19.1</ele><time>2021-02-18T15:47:21Z</time><name>PT13660</name></trkpt>
<trkpt lat="53.460913" lon="05.834386"><ele>19.1</ele><time>2021-02-18T15:47:22Z</time><name>PT13661</name></trkpt>
<trkpt lat="53.460909" lon="05.834374"><ele>19</ele><time>2021-02-18T15:47:23Z</time><name>PT13662</name></trkpt>
<trkpt lat="53.460905" lon="05.834361"><ele>18.8</ele><time>2021-02-18T15:47:24Z</time><name>PT13663</name></trkpt>
<trkpt lat="53.460901" lon="05.834348"><ele>19</ele><time>2021-02-18T15:47:25Z</time><name>PT13664</name></trkpt>
<trkpt lat="53.460899" lon="05.834334"><ele>19</ele><time>2021-02-18T15:47:26Z</time><name>PT13665</name></trkpt>
<trkpt lat="53.460898" lon="05.834320"><ele>18.9</ele><time>2021-02-18T15:47:27Z</time><name>PT13666</name></trkpt>
<trkpt lat="53.460896" lon="05.834306"><ele>18.8</ele><time>2021-02-18T15:47:28Z</time><name>PT13667</name></trkpt>
<trkpt lat="53.460894" lon="05.834294"><ele>18.7</ele><time>2021-02-18T15:47:29Z</time><name>PT13668</name></trkpt>
<trkpt lat="53.460891" lon="05.834283"><ele>18.8</ele><time>2021-02-18T15:47:30Z</time><name>PT13669</name></trkpt>
<trkpt lat="53.460890" lon="05.834272"><ele>19.1</ele><time>2021-02-18T15:47:31Z</time><name>PT13670</name></trkpt>
<trkpt lat="53.460890" lon="05.834257"><ele>19.1</ele><time>2021-02-18T15:47:32Z</time><name>PT13671</name></trkpt>
<trkpt lat="53.460889" lon="05.834242"><ele>19.5</ele><time>2021-02-18T15:47:33Z</time><name>PT13672</name></trkpt>
<trkpt lat="53.460888" lon="05.834231"><ele>19.7</ele><time>2021-02-18T15:47:34Z</time><name>PT13673</name></trkpt>
<trkpt lat="53.460889" lon="05.834219"><ele>19.7</ele><time>2021-02-18T15:47:35Z</time><name>PT13674</name></trkpt>
<trkpt lat="53.460887" lon="05.834211"><ele>19.9</ele><time>2021-02-18T15:47:36Z</time><name>PT13675</name></trkpt>
<trkpt lat="53.460886" lon="05.834203"><ele>19.8</ele><time>2021-02-18T15:47:37Z</time><name>PT13676</name></trkpt>
<trkpt lat="53.460886" lon="05.834192"><ele>19.6</ele><time>2021-02-18T15:47:38Z</time><name>PT13677</name></trkpt>
<trkpt lat="53.460887" lon="05.834179"><ele>19.7</ele><time>2021-02-18T15:47:39Z</time><name>PT13678</name></trkpt>
<trkpt lat="53.460887" lon="05.834166"><ele>19.9</ele><time>2021-02-18T15:47:40Z</time><name>PT13679</name></trkpt>
<trkpt lat="53.460889" lon="05.834154"><ele>19.9</ele><time>2021-02-18T15:47:41Z</time><name>PT13680</name></trkpt>
<trkpt lat="53.460892" lon="05.834144"><ele>20.1</ele><time>2021-02-18T15:47:42Z</time><name>PT13681</name></trkpt>
<trkpt lat="53.460895" lon="05.834135"><ele>20.4</ele><time>2021-02-18T15:47:43Z</time><name>PT13682</name></trkpt>
<trkpt lat="53.460898" lon="05.834130"><ele>20.5</ele><time>2021-02-18T15:47:44Z</time><name>PT13683</name></trkpt>
<trkpt lat="53.460898" lon="05.834124"><ele>20.3</ele><time>2021-02-18T15:47:45Z</time><name>PT13684</name></trkpt>
<trkpt lat="53.460896" lon="05.834122"><ele>20.1</ele><time>2021-02-18T15:47:46Z</time><name>PT13685</name></trkpt>
<trkpt lat="53.460896" lon="05.834119"><ele>19.8</ele><time>2021-02-18T15:47:47Z</time><name>PT13686</name></trkpt>
<trkpt lat="53.460895" lon="05.834114"><ele>19.8</ele><time>2021-02-18T15:47:48Z</time><name>PT13687</name></trkpt>
<trkpt lat="53.460892" lon="05.834113"><ele>20.2</ele><time>2021-02-18T15:47:49Z</time><name>PT13688</name></trkpt>
<trkpt lat="53.460894" lon="05.834109"><ele>20.1</ele><time>2021-02-18T15:47:50Z</time><name>PT13689</name></trkpt>
<trkpt lat="53.460898" lon="05.834109"><ele>21</ele><time>2021-02-18T15:47:51Z</time><name>PT13690</name></trkpt>
<trkpt lat="53.460902" lon="05.834113"><ele>21</ele><time>2021-02-18T15:47:52Z</time><name>PT13691</name></trkpt>
<trkpt lat="53.460903" lon="05.834116"><ele>20.7</ele><time>2021-02-18T15:47:53Z</time><name>PT13692</name></trkpt>
<trkpt lat="53.460903" lon="05.834115"><ele>20.6</ele><time>2021-02-18T15:47:54Z</time><name>PT13693</name></trkpt>
<trkpt lat="53.460903" lon="05.834114"><ele>20.2</ele><time>2021-02-18T15:47:55Z</time><name>PT13694</name></trkpt>
<trkpt lat="53.460904" lon="05.834114"><ele>20.2</ele><time>2021-02-18T15:47:56Z</time><name>PT13695</name></trkpt>
<trkpt lat="53.460904" lon="05.834113"><ele>20.4</ele><time>2021-02-18T15:47:57Z</time><name>PT13696</name></trkpt>
<trkpt lat="53.460906" lon="05.834115"><ele>20.5</ele><time>2021-02-18T15:47:59Z</time><name>PT13697</name></trkpt>
<trkpt lat="53.460906" lon="05.834114"><ele>20.7</ele><time>2021-02-18T15:48:00Z</time><name>PT13698</name></trkpt>
<trkpt lat="53.460907" lon="05.834115"><ele>20.6</ele><time>2021-02-18T15:48:01Z</time><name>PT13699</name></trkpt>
<trkpt lat="53.460907" lon="05.834114"><ele>20.7</ele><time>2021-02-18T15:48:02Z</time><name>PT13700</name></trkpt>
<trkpt lat="53.460907" lon="05.834114"><ele>20.7</ele><time>2021-02-18T15:48:03Z</time><name>PT13701</name></trkpt>
<trkpt lat="53.460907" lon="05.834113"><ele>20.7</ele><time>2021-02-18T15:48:04Z</time><name>PT13702</name></trkpt>
<trkpt lat="53.460907" lon="05.834109"><ele>20.1</ele><time>2021-02-18T15:48:13Z</time><name>PT13703</name></trkpt>
<trkpt lat="53.460906" lon="05.834107"><ele>20</ele><time>2021-02-18T15:48:14Z</time><name>PT13704</name></trkpt>
<trkpt lat="53.460905" lon="05.834105"><ele>20.2</ele><time>2021-02-18T15:48:15Z</time><name>PT13705</name></trkpt>
<trkpt lat="53.460899" lon="05.834103"><ele>20.1</ele><time>2021-02-18T15:48:16Z</time><name>PT13706</name></trkpt>
<trkpt lat="53.460895" lon="05.834098"><ele>20.4</ele><time>2021-02-18T15:48:17Z</time><name>PT13707</name></trkpt>
<trkpt lat="53.460891" lon="05.834092"><ele>20.3</ele><time>2021-02-18T15:48:18Z</time><name>PT13708</name></trkpt>
<trkpt lat="53.460891" lon="05.834085"><ele>20.1</ele><time>2021-02-18T15:48:19Z</time><name>PT13709</name></trkpt>
<trkpt lat="53.460890" lon="05.834072"><ele>19.9</ele><time>2021-02-18T15:48:20Z</time><name>PT13710</name></trkpt>
<trkpt lat="53.460890" lon="05.834059"><ele>20</ele><time>2021-02-18T15:48:21Z</time><name>PT13711</name></trkpt>
<trkpt lat="53.460891" lon="05.834046"><ele>20</ele><time>2021-02-18T15:48:22Z</time><name>PT13712</name></trkpt>
<trkpt lat="53.460891" lon="05.834033"><ele>19.9</ele><time>2021-02-18T15:48:23Z</time><name>PT13713</name></trkpt>
<trkpt lat="53.460892" lon="05.834019"><ele>20.2</ele><time>2021-02-18T15:48:24Z</time><name>PT13714</name></trkpt>
<trkpt lat="53.460891" lon="05.834004"><ele>20.2</ele><time>2021-02-18T15:48:25Z</time><name>PT13715</name></trkpt>
<trkpt lat="53.460890" lon="05.833990"><ele>20.2</ele><time>2021-02-18T15:48:26Z</time><name>PT13716</name></trkpt>
<trkpt lat="53.460889" lon="05.833977"><ele>20.3</ele><time>2021-02-18T15:48:27Z</time><name>PT13717</name></trkpt>
<trkpt lat="53.460889" lon="05.833961"><ele>20.1</ele><time>2021-02-18T15:48:28Z</time><name>PT13718</name></trkpt>
<trkpt lat="53.460891" lon="05.833945"><ele>20.2</ele><time>2021-02-18T15:48:29Z</time><name>PT13719</name></trkpt>
<trkpt lat="53.460894" lon="05.833928"><ele>20.2</ele><time>2021-02-18T15:48:30Z</time><name>PT13720</name></trkpt>
<trkpt lat="53.460897" lon="05.833910"><ele>20.5</ele><time>2021-02-18T15:48:31Z</time><name>PT13721</name></trkpt>
<trkpt lat="53.460897" lon="05.833895"><ele>20.8</ele><time>2021-02-18T15:48:32Z</time><name>PT13722</name></trkpt>
<trkpt lat="53.460896" lon="05.833882"><ele>21</ele><time>2021-02-18T15:48:33Z</time><name>PT13723</name></trkpt>
<trkpt lat="53.460897" lon="05.833869"><ele>21.1</ele><time>2021-02-18T15:48:34Z</time><name>PT13724</name></trkpt>
<trkpt lat="53.460900" lon="05.833855"><ele>21.1</ele><time>2021-02-18T15:48:35Z</time><name>PT13725</name></trkpt>
<trkpt lat="53.460904" lon="05.833838"><ele>21</ele><time>2021-02-18T15:48:36Z</time><name>PT13726</name></trkpt>
<trkpt lat="53.460906" lon="05.833823"><ele>21</ele><time>2021-02-18T15:48:37Z</time><name>PT13727</name></trkpt>
<trkpt lat="53.460904" lon="05.833809"><ele>20.9</ele><time>2021-02-18T15:48:38Z</time><name>PT13728</name></trkpt>
<trkpt lat="53.460904" lon="05.833795"><ele>20.9</ele><time>2021-02-18T15:48:39Z</time><name>PT13729</name></trkpt>
<trkpt lat="53.460906" lon="05.833781"><ele>21</ele><time>2021-02-18T15:48:40Z</time><name>PT13730</name></trkpt>
<trkpt lat="53.460907" lon="05.833769"><ele>21.1</ele><time>2021-02-18T15:48:41Z</time><name>PT13731</name></trkpt>
<trkpt lat="53.460909" lon="05.833756"><ele>21</ele><time>2021-02-18T15:48:42Z</time><name>PT13732</name></trkpt>
<trkpt lat="53.460911" lon="05.833742"><ele>21.1</ele><time>2021-02-18T15:48:43Z</time><name>PT13733</name></trkpt>
<trkpt lat="53.460912" lon="05.833728"><ele>21.2</ele><time>2021-02-18T15:48:44Z</time><name>PT13734</name></trkpt>
<trkpt lat="53.460912" lon="05.833713"><ele>21.2</ele><time>2021-02-18T15:48:45Z</time><name>PT13735</name></trkpt>
<trkpt lat="53.460913" lon="05.833697"><ele>21.3</ele><time>2021-02-18T15:48:46Z</time><name>PT13736</name></trkpt>
<trkpt lat="53.460917" lon="05.833685"><ele>21.5</ele><time>2021-02-18T15:48:47Z</time><name>PT13737</name></trkpt>
<trkpt lat="53.460919" lon="05.833672"><ele>21.7</ele><time>2021-02-18T15:48:48Z</time><name>PT13738</name></trkpt>
<trkpt lat="53.460921" lon="05.833656"><ele>21.6</ele><time>2021-02-18T15:48:49Z</time><name>PT13739</name></trkpt>
<trkpt lat="53.460923" lon="05.833640"><ele>21.6</ele><time>2021-02-18T15:48:50Z</time><name>PT13740</name></trkpt>
<trkpt lat="53.460925" lon="05.833624"><ele>21.7</ele><time>2021-02-18T15:48:51Z</time><name>PT13741</name></trkpt>
<trkpt lat="53.460926" lon="05.833610"><ele>21.9</ele><time>2021-02-18T15:48:52Z</time><name>PT13742</name></trkpt>
<trkpt lat="53.460927" lon="05.833595"><ele>21.9</ele><time>2021-02-18T15:48:53Z</time><name>PT13743</name></trkpt>
<trkpt lat="53.460929" lon="05.833580"><ele>22.2</ele><time>2021-02-18T15:48:54Z</time><name>PT13744</name></trkpt>
<trkpt lat="53.460933" lon="05.833564"><ele>22.4</ele><time>2021-02-18T15:48:55Z</time><name>PT13745</name></trkpt>
<trkpt lat="53.460937" lon="05.833549"><ele>22.5</ele><time>2021-02-18T15:48:56Z</time><name>PT13746</name></trkpt>
<trkpt lat="53.460941" lon="05.833535"><ele>22.6</ele><time>2021-02-18T15:48:57Z</time><name>PT13747</name></trkpt>
<trkpt lat="53.460946" lon="05.833520"><ele>22.7</ele><time>2021-02-18T15:48:58Z</time><name>PT13748</name></trkpt>
<trkpt lat="53.460949" lon="05.833506"><ele>22.9</ele><time>2021-02-18T15:48:59Z</time><name>PT13749</name></trkpt>
<trkpt lat="53.460953" lon="05.833490"><ele>23.1</ele><time>2021-02-18T15:49:00Z</time><name>PT13750</name></trkpt>
<trkpt lat="53.460955" lon="05.833475"><ele>23.1</ele><time>2021-02-18T15:49:01Z</time><name>PT13751</name></trkpt>
<trkpt lat="53.460956" lon="05.833460"><ele>23.2</ele><time>2021-02-18T15:49:02Z</time><name>PT13752</name></trkpt>
<trkpt lat="53.460958" lon="05.833447"><ele>23.3</ele><time>2021-02-18T15:49:03Z</time><name>PT13753</name></trkpt>
<trkpt lat="53.460962" lon="05.833436"><ele>23.3</ele><time>2021-02-18T15:49:04Z</time><name>PT13754</name></trkpt>
<trkpt lat="53.460966" lon="05.833423"><ele>23.5</ele><time>2021-02-18T15:49:05Z</time><name>PT13755</name></trkpt>
<trkpt lat="53.460968" lon="05.833409"><ele>23.5</ele><time>2021-02-18T15:49:06Z</time><name>PT13756</name></trkpt>
<trkpt lat="53.460969" lon="05.833393"><ele>23.5</ele><time>2021-02-18T15:49:07Z</time><name>PT13757</name></trkpt>
<trkpt lat="53.460970" lon="05.833382"><ele>23.8</ele><time>2021-02-18T15:49:08Z</time><name>PT13758</name></trkpt>
<trkpt lat="53.460973" lon="05.833374"><ele>24</ele><time>2021-02-18T15:49:09Z</time><name>PT13759</name></trkpt>
<trkpt lat="53.460976" lon="05.833365"><ele>24</ele><time>2021-02-18T15:49:10Z</time><name>PT13760</name></trkpt>
<trkpt lat="53.460977" lon="05.833358"><ele>24</ele><time>2021-02-18T15:49:11Z</time><name>PT13761</name></trkpt>
<trkpt lat="53.460977" lon="05.833356"><ele>24.4</ele><time>2021-02-18T15:49:12Z</time><name>PT13762</name></trkpt>
<trkpt lat="53.460977" lon="05.833356"><ele>24.3</ele><time>2021-02-18T15:49:13Z</time><name>PT13763</name></trkpt>
<trkpt lat="53.460977" lon="05.833356"><ele>24.2</ele><time>2021-02-18T15:49:14Z</time><name>PT13764</name></trkpt>
<trkpt lat="53.460977" lon="05.833353"><ele>24.5</ele><time>2021-02-18T15:49:23Z</time><name>PT13765</name></trkpt>
<trkpt lat="53.460981" lon="05.833340"><ele>24.4</ele><time>2021-02-18T15:49:24Z</time><name>PT13766</name></trkpt>
<trkpt lat="53.460985" lon="05.833330"><ele>24.5</ele><time>2021-02-18T15:49:25Z</time><name>PT13767</name></trkpt>
<trkpt lat="53.460987" lon="05.833318"><ele>24.6</ele><time>2021-02-18T15:49:26Z</time><name>PT13768</name></trkpt>
<trkpt lat="53.460985" lon="05.833297"><ele>24.5</ele><time>2021-02-18T15:49:27Z</time><name>PT13769</name></trkpt>
<trkpt lat="53.460986" lon="05.833285"><ele>24.5</ele><time>2021-02-18T15:49:28Z</time><name>PT13770</name></trkpt>
<trkpt lat="53.460988" lon="05.833271"><ele>24.8</ele><time>2021-02-18T15:49:29Z</time><name>PT13771</name></trkpt>
<trkpt lat="53.460990" lon="05.833260"><ele>24.9</ele><time>2021-02-18T15:49:30Z</time><name>PT13772</name></trkpt>
<trkpt lat="53.460995" lon="05.833249"><ele>24.9</ele><time>2021-02-18T15:49:31Z</time><name>PT13773</name></trkpt>
<trkpt lat="53.460998" lon="05.833238"><ele>25</ele><time>2021-02-18T15:49:32Z</time><name>PT13774</name></trkpt>
<trkpt lat="53.461000" lon="05.833225"><ele>25</ele><time>2021-02-18T15:49:33Z</time><name>PT13775</name></trkpt>
<trkpt lat="53.461002" lon="05.833210"><ele>25</ele><time>2021-02-18T15:49:34Z</time><name>PT13776</name></trkpt>
<trkpt lat="53.461004" lon="05.833196"><ele>25</ele><time>2021-02-18T15:49:35Z</time><name>PT13777</name></trkpt>
<trkpt lat="53.461008" lon="05.833183"><ele>25</ele><time>2021-02-18T15:49:36Z</time><name>PT13778</name></trkpt>
<trkpt lat="53.461013" lon="05.833171"><ele>25.1</ele><time>2021-02-18T15:49:37Z</time><name>PT13779</name></trkpt>
<trkpt lat="53.461016" lon="05.833159"><ele>25.3</ele><time>2021-02-18T15:49:38Z</time><name>PT13780</name></trkpt>
<trkpt lat="53.461017" lon="05.833140"><ele>25.4</ele><time>2021-02-18T15:49:39Z</time><name>PT13781</name></trkpt>
<trkpt lat="53.461020" lon="05.833123"><ele>25.6</ele><time>2021-02-18T15:49:40Z</time><name>PT13782</name></trkpt>
<trkpt lat="53.461023" lon="05.833104"><ele>25.8</ele><time>2021-02-18T15:49:41Z</time><name>PT13783</name></trkpt>
<trkpt lat="53.461026" lon="05.833090"><ele>26</ele><time>2021-02-18T15:49:42Z</time><name>PT13784</name></trkpt>
<trkpt lat="53.461027" lon="05.833072"><ele>25.8</ele><time>2021-02-18T15:49:43Z</time><name>PT13785</name></trkpt>
<trkpt lat="53.461027" lon="05.833057"><ele>25.9</ele><time>2021-02-18T15:49:44Z</time><name>PT13786</name></trkpt>
<trkpt lat="53.461022" lon="05.833044"><ele>26</ele><time>2021-02-18T15:49:45Z</time><name>PT13787</name></trkpt>
<trkpt lat="53.461021" lon="05.833037"><ele>26</ele><time>2021-02-18T15:49:46Z</time><name>PT13788</name></trkpt>
<trkpt lat="53.461024" lon="05.833035"><ele>26.2</ele><time>2021-02-18T15:49:47Z</time><name>PT13789</name></trkpt>
<trkpt lat="53.461029" lon="05.833029"><ele>26.3</ele><time>2021-02-18T15:49:48Z</time><name>PT13790</name></trkpt>
<trkpt lat="53.461032" lon="05.833022"><ele>26.4</ele><time>2021-02-18T15:49:49Z</time><name>PT13791</name></trkpt>
<trkpt lat="53.461032" lon="05.833011"><ele>26.6</ele><time>2021-02-18T15:49:50Z</time><name>PT13792</name></trkpt>
<trkpt lat="53.461032" lon="05.833003"><ele>26.6</ele><time>2021-02-18T15:49:51Z</time><name>PT13793</name></trkpt>
<trkpt lat="53.461033" lon="05.832992"><ele>26.6</ele><time>2021-02-18T15:49:52Z</time><name>PT13794</name></trkpt>
<trkpt lat="53.461033" lon="05.832982"><ele>26.6</ele><time>2021-02-18T15:49:53Z</time><name>PT13795</name></trkpt>
<trkpt lat="53.461031" lon="05.832971"><ele>26.5</ele><time>2021-02-18T15:49:54Z</time><name>PT13796</name></trkpt>
<trkpt lat="53.461025" lon="05.832934"><ele>26.5</ele><time>2021-02-18T15:49:55Z</time><name>PT13797</name></trkpt>
<trkpt lat="53.461023" lon="05.832918"><ele>26.6</ele><time>2021-02-18T15:49:56Z</time><name>PT13798</name></trkpt>
<trkpt lat="53.461019" lon="05.832899"><ele>26.7</ele><time>2021-02-18T15:49:57Z</time><name>PT13799</name></trkpt>
<trkpt lat="53.461015" lon="05.832878"><ele>26.8</ele><time>2021-02-18T15:49:58Z</time><name>PT13800</name></trkpt>
<trkpt lat="53.461011" lon="05.832861"><ele>27</ele><time>2021-02-18T15:49:59Z</time><name>PT13801</name></trkpt>
<trkpt lat="53.461009" lon="05.832847"><ele>27.1</ele><time>2021-02-18T15:50:00Z</time><name>PT13802</name></trkpt>
<trkpt lat="53.461006" lon="05.832832"><ele>27</ele><time>2021-02-18T15:50:01Z</time><name>PT13803</name></trkpt>
<trkpt lat="53.461004" lon="05.832814"><ele>27</ele><time>2021-02-18T15:50:02Z</time><name>PT13804</name></trkpt>
<trkpt lat="53.461004" lon="05.832798"><ele>27</ele><time>2021-02-18T15:50:03Z</time><name>PT13805</name></trkpt>
<trkpt lat="53.461002" lon="05.832780"><ele>27</ele><time>2021-02-18T15:50:04Z</time><name>PT13806</name></trkpt>
<trkpt lat="53.460999" lon="05.832762"><ele>26.9</ele><time>2021-02-18T15:50:05Z</time><name>PT13807</name></trkpt>
<trkpt lat="53.460996" lon="05.832747"><ele>27.1</ele><time>2021-02-18T15:50:06Z</time><name>PT13808</name></trkpt>
<trkpt lat="53.460991" lon="05.832732"><ele>27.1</ele><time>2021-02-18T15:50:07Z</time><name>PT13809</name></trkpt>
<trkpt lat="53.460986" lon="05.832717"><ele>27.1</ele><time>2021-02-18T15:50:08Z</time><name>PT13810</name></trkpt>
<trkpt lat="53.460982" lon="05.832703"><ele>27.2</ele><time>2021-02-18T15:50:09Z</time><name>PT13811</name></trkpt>
<trkpt lat="53.460977" lon="05.832689"><ele>27.3</ele><time>2021-02-18T15:50:10Z</time><name>PT13812</name></trkpt>
<trkpt lat="53.460971" lon="05.832674"><ele>27.1</ele><time>2021-02-18T15:50:11Z</time><name>PT13813</name></trkpt>
<trkpt lat="53.460967" lon="05.832659"><ele>27.2</ele><time>2021-02-18T15:50:12Z</time><name>PT13814</name></trkpt>
<trkpt lat="53.460962" lon="05.832643"><ele>27.3</ele><time>2021-02-18T15:50:13Z</time><name>PT13815</name></trkpt>
<trkpt lat="53.460957" lon="05.832630"><ele>27.5</ele><time>2021-02-18T15:50:14Z</time><name>PT13816</name></trkpt>
<trkpt lat="53.460954" lon="05.832617"><ele>27.7</ele><time>2021-02-18T15:50:15Z</time><name>PT13817</name></trkpt>
<trkpt lat="53.460949" lon="05.832606"><ele>27.7</ele><time>2021-02-18T15:50:16Z</time><name>PT13818</name></trkpt>
<trkpt lat="53.460944" lon="05.832598"><ele>27.6</ele><time>2021-02-18T15:50:17Z</time><name>PT13819</name></trkpt>
<trkpt lat="53.460938" lon="05.832590"><ele>27.8</ele><time>2021-02-18T15:50:18Z</time><name>PT13820</name></trkpt>
<trkpt lat="53.460934" lon="05.832583"><ele>27.6</ele><time>2021-02-18T15:50:19Z</time><name>PT13821</name></trkpt>
<trkpt lat="53.460931" lon="05.832577"><ele>27.9</ele><time>2021-02-18T15:50:20Z</time><name>PT13822</name></trkpt>
<trkpt lat="53.460926" lon="05.832569"><ele>28.1</ele><time>2021-02-18T15:50:21Z</time><name>PT13823</name></trkpt>
<trkpt lat="53.460921" lon="05.832562"><ele>28.3</ele><time>2021-02-18T15:50:22Z</time><name>PT13824</name></trkpt>
<trkpt lat="53.460920" lon="05.832555"><ele>28.3</ele><time>2021-02-18T15:50:23Z</time><name>PT13825</name></trkpt>
<trkpt lat="53.460918" lon="05.832549"><ele>28.1</ele><time>2021-02-18T15:50:24Z</time><name>PT13826</name></trkpt>
<trkpt lat="53.460917" lon="05.832547"><ele>28.2</ele><time>2021-02-18T15:50:25Z</time><name>PT13827</name></trkpt>
<trkpt lat="53.460917" lon="05.832549"><ele>28.1</ele><time>2021-02-18T15:50:26Z</time><name>PT13828</name></trkpt>
<trkpt lat="53.460917" lon="05.832550"><ele>28.3</ele><time>2021-02-18T15:50:27Z</time><name>PT13829</name></trkpt>
<trkpt lat="53.460920" lon="05.832553"><ele>28.5</ele><time>2021-02-18T15:50:44Z</time><name>PT13830</name></trkpt>
<trkpt lat="53.460913" lon="05.832548"><ele>28.3</ele><time>2021-02-18T15:50:45Z</time><name>PT13831</name></trkpt>
<trkpt lat="53.460907" lon="05.832538"><ele>28.2</ele><time>2021-02-18T15:50:46Z</time><name>PT13832</name></trkpt>
<trkpt lat="53.460902" lon="05.832528"><ele>28.3</ele><time>2021-02-18T15:50:47Z</time><name>PT13833</name></trkpt>
<trkpt lat="53.460900" lon="05.832518"><ele>28.4</ele><time>2021-02-18T15:50:48Z</time><name>PT13834</name></trkpt>
<trkpt lat="53.460896" lon="05.832506"><ele>28.4</ele><time>2021-02-18T15:50:49Z</time><name>PT13835</name></trkpt>
<trkpt lat="53.460891" lon="05.832499"><ele>28.5</ele><time>2021-02-18T15:50:50Z</time><name>PT13836</name></trkpt>
<trkpt lat="53.460888" lon="05.832492"><ele>28.4</ele><time>2021-02-18T15:50:51Z</time><name>PT13837</name></trkpt>
<trkpt lat="53.460885" lon="05.832482"><ele>28.5</ele><time>2021-02-18T15:50:52Z</time><name>PT13838</name></trkpt>
<trkpt lat="53.460883" lon="05.832475"><ele>28.3</ele><time>2021-02-18T15:50:53Z</time><name>PT13839</name></trkpt>
<trkpt lat="53.460880" lon="05.832470"><ele>28.6</ele><time>2021-02-18T15:50:54Z</time><name>PT13840</name></trkpt>
<trkpt lat="53.460879" lon="05.832466"><ele>28.8</ele><time>2021-02-18T15:50:55Z</time><name>PT13841</name></trkpt>
<trkpt lat="53.460879" lon="05.832466"><ele>29</ele><time>2021-02-18T15:50:56Z</time><name>PT13842</name></trkpt>
<trkpt lat="53.460879" lon="05.832464"><ele>29.1</ele><time>2021-02-18T15:50:57Z</time><name>PT13843</name></trkpt>
<trkpt lat="53.460874" lon="05.832453"><ele>28.6</ele><time>2021-02-18T15:50:58Z</time><name>PT13844</name></trkpt>
<trkpt lat="53.460867" lon="05.832441"><ele>28.3</ele><time>2021-02-18T15:50:59Z</time><name>PT13845</name></trkpt>
<trkpt lat="53.460860" lon="05.832434"><ele>27.8</ele><time>2021-02-18T15:51:00Z</time><name>PT13846</name></trkpt>
<trkpt lat="53.460852" lon="05.832423"><ele>27.8</ele><time>2021-02-18T15:51:01Z</time><name>PT13847</name></trkpt>
<trkpt lat="53.460843" lon="05.832409"><ele>27.8</ele><time>2021-02-18T15:51:02Z</time><name>PT13848</name></trkpt>
<trkpt lat="53.460836" lon="05.832397"><ele>28.1</ele><time>2021-02-18T15:51:03Z</time><name>PT13849</name></trkpt>
<trkpt lat="53.460828" lon="05.832384"><ele>28.4</ele><time>2021-02-18T15:51:04Z</time><name>PT13850</name></trkpt>
<trkpt lat="53.460821" lon="05.832370"><ele>28.6</ele><time>2021-02-18T15:51:05Z</time><name>PT13851</name></trkpt>
<trkpt lat="53.460813" lon="05.832359"><ele>28.4</ele><time>2021-02-18T15:51:06Z</time><name>PT13852</name></trkpt>
<trkpt lat="53.460806" lon="05.832346"><ele>28.3</ele><time>2021-02-18T15:51:07Z</time><name>PT13853</name></trkpt>
<trkpt lat="53.460799" lon="05.832334"><ele>28.5</ele><time>2021-02-18T15:51:08Z</time><name>PT13854</name></trkpt>
<trkpt lat="53.460792" lon="05.832320"><ele>28.3</ele><time>2021-02-18T15:51:09Z</time><name>PT13855</name></trkpt>
<trkpt lat="53.460785" lon="05.832306"><ele>28.3</ele><time>2021-02-18T15:51:10Z</time><name>PT13856</name></trkpt>
<trkpt lat="53.460778" lon="05.832298"><ele>28.3</ele><time>2021-02-18T15:51:11Z</time><name>PT13857</name></trkpt>
<trkpt lat="53.460769" lon="05.832287"><ele>28.1</ele><time>2021-02-18T15:51:12Z</time><name>PT13858</name></trkpt>
<trkpt lat="53.460761" lon="05.832277"><ele>28</ele><time>2021-02-18T15:51:13Z</time><name>PT13859</name></trkpt>
<trkpt lat="53.460753" lon="05.832265"><ele>28</ele><time>2021-02-18T15:51:14Z</time><name>PT13860</name></trkpt>
<trkpt lat="53.460746" lon="05.832251"><ele>28.2</ele><time>2021-02-18T15:51:15Z</time><name>PT13861</name></trkpt>
<trkpt lat="53.460739" lon="05.832235"><ele>28.7</ele><time>2021-02-18T15:51:16Z</time><name>PT13862</name></trkpt>
<trkpt lat="53.460732" lon="05.832220"><ele>28.8</ele><time>2021-02-18T15:51:17Z</time><name>PT13863</name></trkpt>
<trkpt lat="53.460726" lon="05.832206"><ele>29.1</ele><time>2021-02-18T15:51:18Z</time><name>PT13864</name></trkpt>
<trkpt lat="53.460720" lon="05.832193"><ele>29</ele><time>2021-02-18T15:51:19Z</time><name>PT13865</name></trkpt>
<trkpt lat="53.460711" lon="05.832179"><ele>28.7</ele><time>2021-02-18T15:51:20Z</time><name>PT13866</name></trkpt>
<trkpt lat="53.460703" lon="05.832167"><ele>28.3</ele><time>2021-02-18T15:51:21Z</time><name>PT13867</name></trkpt>
<trkpt lat="53.460695" lon="05.832158"><ele>28.1</ele><time>2021-02-18T15:51:22Z</time><name>PT13868</name></trkpt>
<trkpt lat="53.460685" lon="05.832145"><ele>28</ele><time>2021-02-18T15:51:23Z</time><name>PT13869</name></trkpt>
<trkpt lat="53.460677" lon="05.832136"><ele>27.6</ele><time>2021-02-18T15:51:24Z</time><name>PT13870</name></trkpt>
<trkpt lat="53.460670" lon="05.832123"><ele>27.6</ele><time>2021-02-18T15:51:25Z</time><name>PT13871</name></trkpt>
<trkpt lat="53.460662" lon="05.832108"><ele>27.6</ele><time>2021-02-18T15:51:26Z</time><name>PT13872</name></trkpt>
<trkpt lat="53.460655" lon="05.832092"><ele>27.3</ele><time>2021-02-18T15:51:27Z</time><name>PT13873</name></trkpt>
<trkpt lat="53.460646" lon="05.832078"><ele>27.7</ele><time>2021-02-18T15:51:28Z</time><name>PT13874</name></trkpt>
<trkpt lat="53.460638" lon="05.832063"><ele>28.1</ele><time>2021-02-18T15:51:29Z</time><name>PT13875</name></trkpt>
<trkpt lat="53.460629" lon="05.832051"><ele>28.3</ele><time>2021-02-18T15:51:30Z</time><name>PT13876</name></trkpt>
<trkpt lat="53.460620" lon="05.832040"><ele>28.5</ele><time>2021-02-18T15:51:31Z</time><name>PT13877</name></trkpt>
<trkpt lat="53.460611" lon="05.832028"><ele>28.3</ele><time>2021-02-18T15:51:32Z</time><name>PT13878</name></trkpt>
<trkpt lat="53.460605" lon="05.832013"><ele>28.1</ele><time>2021-02-18T15:51:33Z</time><name>PT13879</name></trkpt>
<trkpt lat="53.460598" lon="05.831996"><ele>27.8</ele><time>2021-02-18T15:51:34Z</time><name>PT13880</name></trkpt>
<trkpt lat="53.460591" lon="05.831981"><ele>27.6</ele><time>2021-02-18T15:51:35Z</time><name>PT13881</name></trkpt>
<trkpt lat="53.460585" lon="05.831966"><ele>27.2</ele><time>2021-02-18T15:51:36Z</time><name>PT13882</name></trkpt>
<trkpt lat="53.460580" lon="05.831948"><ele>27</ele><time>2021-02-18T15:51:37Z</time><name>PT13883</name></trkpt>
<trkpt lat="53.460573" lon="05.831931"><ele>27.1</ele><time>2021-02-18T15:51:38Z</time><name>PT13884</name></trkpt>
<trkpt lat="53.460565" lon="05.831916"><ele>27.2</ele><time>2021-02-18T15:51:39Z</time><name>PT13885</name></trkpt>
<trkpt lat="53.460559" lon="05.831896"><ele>27.6</ele><time>2021-02-18T15:51:40Z</time><name>PT13886</name></trkpt>
<trkpt lat="53.460552" lon="05.831881"><ele>27.9</ele><time>2021-02-18T15:51:41Z</time><name>PT13887</name></trkpt>
<trkpt lat="53.460546" lon="05.831866"><ele>28.2</ele><time>2021-02-18T15:51:42Z</time><name>PT13888</name></trkpt>
<trkpt lat="53.460539" lon="05.831849"><ele>28.1</ele><time>2021-02-18T15:51:43Z</time><name>PT13889</name></trkpt>
<trkpt lat="53.460532" lon="05.831834"><ele>28.1</ele><time>2021-02-18T15:51:44Z</time><name>PT13890</name></trkpt>
<trkpt lat="53.460526" lon="05.831820"><ele>27.6</ele><time>2021-02-18T15:51:45Z</time><name>PT13891</name></trkpt>
<trkpt lat="53.460522" lon="05.831803"><ele>27.1</ele><time>2021-02-18T15:51:46Z</time><name>PT13892</name></trkpt>
<trkpt lat="53.460518" lon="05.831786"><ele>27.1</ele><time>2021-02-18T15:51:47Z</time><name>PT13893</name></trkpt>
<trkpt lat="53.460514" lon="05.831769"><ele>27</ele><time>2021-02-18T15:51:48Z</time><name>PT13894</name></trkpt>
<trkpt lat="53.460509" lon="05.831752"><ele>27.1</ele><time>2021-02-18T15:51:49Z</time><name>PT13895</name></trkpt>
<trkpt lat="53.460506" lon="05.831734"><ele>27.5</ele><time>2021-02-18T15:51:50Z</time><name>PT13896</name></trkpt>
<trkpt lat="53.460501" lon="05.831715"><ele>27.6</ele><time>2021-02-18T15:51:51Z</time><name>PT13897</name></trkpt>
<trkpt lat="53.460497" lon="05.831697"><ele>27.9</ele><time>2021-02-18T15:51:52Z</time><name>PT13898</name></trkpt>
<trkpt lat="53.460496" lon="05.831682"><ele>27.9</ele><time>2021-02-18T15:51:53Z</time><name>PT13899</name></trkpt>
<trkpt lat="53.460497" lon="05.831676"><ele>28</ele><time>2021-02-18T15:51:54Z</time><name>PT13900</name></trkpt>
<trkpt lat="53.460497" lon="05.831675"><ele>28.2</ele><time>2021-02-18T15:51:55Z</time><name>PT13901</name></trkpt>
<trkpt lat="53.460498" lon="05.831667"><ele>28.1</ele><time>2021-02-18T15:51:56Z</time><name>PT13902</name></trkpt>
<trkpt lat="53.460496" lon="05.831651"><ele>27.8</ele><time>2021-02-18T15:51:57Z</time><name>PT13903</name></trkpt>
<trkpt lat="53.460491" lon="05.831636"><ele>27.6</ele><time>2021-02-18T15:51:58Z</time><name>PT13904</name></trkpt>
<trkpt lat="53.460486" lon="05.831620"><ele>27.4</ele><time>2021-02-18T15:51:59Z</time><name>PT13905</name></trkpt>
<trkpt lat="53.460482" lon="05.831604"><ele>26.9</ele><time>2021-02-18T15:52:00Z</time><name>PT13906</name></trkpt>
<trkpt lat="53.460478" lon="05.831584"><ele>26.8</ele><time>2021-02-18T15:52:01Z</time><name>PT13907</name></trkpt>
<trkpt lat="53.460474" lon="05.831567"><ele>26.7</ele><time>2021-02-18T15:52:02Z</time><name>PT13908</name></trkpt>
<trkpt lat="53.460471" lon="05.831550"><ele>26.7</ele><time>2021-02-18T15:52:03Z</time><name>PT13909</name></trkpt>
<trkpt lat="53.460469" lon="05.831533"><ele>26.6</ele><time>2021-02-18T15:52:04Z</time><name>PT13910</name></trkpt>
<trkpt lat="53.460467" lon="05.831515"><ele>26.6</ele><time>2021-02-18T15:52:05Z</time><name>PT13911</name></trkpt>
<trkpt lat="53.460466" lon="05.831498"><ele>26.6</ele><time>2021-02-18T15:52:06Z</time><name>PT13912</name></trkpt>
<trkpt lat="53.460464" lon="05.831480"><ele>26.5</ele><time>2021-02-18T15:52:07Z</time><name>PT13913</name></trkpt>
<trkpt lat="53.460462" lon="05.831462"><ele>26.3</ele><time>2021-02-18T15:52:08Z</time><name>PT13914</name></trkpt>
<trkpt lat="53.460458" lon="05.831443"><ele>26.1</ele><time>2021-02-18T15:52:09Z</time><name>PT13915</name></trkpt>
<trkpt lat="53.460456" lon="05.831425"><ele>26</ele><time>2021-02-18T15:52:10Z</time><name>PT13916</name></trkpt>
<trkpt lat="53.460452" lon="05.831408"><ele>26.1</ele><time>2021-02-18T15:52:11Z</time><name>PT13917</name></trkpt>
<trkpt lat="53.460450" lon="05.831394"><ele>25.7</ele><time>2021-02-18T15:52:12Z</time><name>PT13918</name></trkpt>
<trkpt lat="53.460446" lon="05.831378"><ele>25.7</ele><time>2021-02-18T15:52:13Z</time><name>PT13919</name></trkpt>
<trkpt lat="53.460442" lon="05.831362"><ele>25.7</ele><time>2021-02-18T15:52:14Z</time><name>PT13920</name></trkpt>
<trkpt lat="53.460438" lon="05.831348"><ele>25.6</ele><time>2021-02-18T15:52:15Z</time><name>PT13921</name></trkpt>
<trkpt lat="53.460436" lon="05.831335"><ele>25.8</ele><time>2021-02-18T15:52:16Z</time><name>PT13922</name></trkpt>
<trkpt lat="53.460433" lon="05.831323"><ele>25.8</ele><time>2021-02-18T15:52:17Z</time><name>PT13923</name></trkpt>
<trkpt lat="53.460429" lon="05.831310"><ele>25.7</ele><time>2021-02-18T15:52:18Z</time><name>PT13924</name></trkpt>
<trkpt lat="53.460423" lon="05.831296"><ele>25.8</ele><time>2021-02-18T15:52:19Z</time><name>PT13925</name></trkpt>
<trkpt lat="53.460419" lon="05.831281"><ele>25.7</ele><time>2021-02-18T15:52:20Z</time><name>PT13926</name></trkpt>
<trkpt lat="53.460416" lon="05.831265"><ele>25.4</ele><time>2021-02-18T15:52:21Z</time><name>PT13927</name></trkpt>
<trkpt lat="53.460414" lon="05.831249"><ele>25.5</ele><time>2021-02-18T15:52:22Z</time><name>PT13928</name></trkpt>
<trkpt lat="53.460412" lon="05.831233"><ele>25.3</ele><time>2021-02-18T15:52:23Z</time><name>PT13929</name></trkpt>
<trkpt lat="53.460408" lon="05.831215"><ele>25.1</ele><time>2021-02-18T15:52:24Z</time><name>PT13930</name></trkpt>
<trkpt lat="53.460402" lon="05.831198"><ele>25</ele><time>2021-02-18T15:52:25Z</time><name>PT13931</name></trkpt>
<trkpt lat="53.460397" lon="05.831180"><ele>24.8</ele><time>2021-02-18T15:52:26Z</time><name>PT13932</name></trkpt>
<trkpt lat="53.460392" lon="05.831162"><ele>24.3</ele><time>2021-02-18T15:52:27Z</time><name>PT13933</name></trkpt>
<trkpt lat="53.460388" lon="05.831144"><ele>24</ele><time>2021-02-18T15:52:28Z</time><name>PT13934</name></trkpt>
<trkpt lat="53.460382" lon="05.831123"><ele>23.9</ele><time>2021-02-18T15:52:29Z</time><name>PT13935</name></trkpt>
<trkpt lat="53.460378" lon="05.831104"><ele>23.7</ele><time>2021-02-18T15:52:30Z</time><name>PT13936</name></trkpt>
<trkpt lat="53.460371" lon="05.831086"><ele>23.6</ele><time>2021-02-18T15:52:31Z</time><name>PT13937</name></trkpt>
<trkpt lat="53.460366" lon="05.831067"><ele>23.5</ele><time>2021-02-18T15:52:32Z</time><name>PT13938</name></trkpt>
<trkpt lat="53.460360" lon="05.831048"><ele>23.2</ele><time>2021-02-18T15:52:33Z</time><name>PT13939</name></trkpt>
<trkpt lat="53.460356" lon="05.831029"><ele>23.1</ele><time>2021-02-18T15:52:34Z</time><name>PT13940</name></trkpt>
<trkpt lat="53.460352" lon="05.831011"><ele>23</ele><time>2021-02-18T15:52:35Z</time><name>PT13941</name></trkpt>
<trkpt lat="53.460347" lon="05.830995"><ele>22.7</ele><time>2021-02-18T15:52:36Z</time><name>PT13942</name></trkpt>
<trkpt lat="53.460342" lon="05.830979"><ele>22.6</ele><time>2021-02-18T15:52:37Z</time><name>PT13943</name></trkpt>
<trkpt lat="53.460338" lon="05.830962"><ele>22.4</ele><time>2021-02-18T15:52:38Z</time><name>PT13944</name></trkpt>
<trkpt lat="53.460335" lon="05.830945"><ele>22</ele><time>2021-02-18T15:52:39Z</time><name>PT13945</name></trkpt>
<trkpt lat="53.460330" lon="05.830927"><ele>22</ele><time>2021-02-18T15:52:40Z</time><name>PT13946</name></trkpt>
<trkpt lat="53.460326" lon="05.830910"><ele>21.9</ele><time>2021-02-18T15:52:41Z</time><name>PT13947</name></trkpt>
<trkpt lat="53.460321" lon="05.830891"><ele>21.7</ele><time>2021-02-18T15:52:42Z</time><name>PT13948</name></trkpt>
<trkpt lat="53.460317" lon="05.830871"><ele>21.9</ele><time>2021-02-18T15:52:43Z</time><name>PT13949</name></trkpt>
<trkpt lat="53.460313" lon="05.830853"><ele>21.8</ele><time>2021-02-18T15:52:44Z</time><name>PT13950</name></trkpt>
<trkpt lat="53.460307" lon="05.830834"><ele>21.8</ele><time>2021-02-18T15:52:45Z</time><name>PT13951</name></trkpt>
<trkpt lat="53.460302" lon="05.830818"><ele>21.6</ele><time>2021-02-18T15:52:46Z</time><name>PT13952</name></trkpt>
<trkpt lat="53.460299" lon="05.830798"><ele>21.5</ele><time>2021-02-18T15:52:47Z</time><name>PT13953</name></trkpt>
<trkpt lat="53.460293" lon="05.830780"><ele>21.3</ele><time>2021-02-18T15:52:48Z</time><name>PT13954</name></trkpt>
<trkpt lat="53.460289" lon="05.830763"><ele>21</ele><time>2021-02-18T15:52:49Z</time><name>PT13955</name></trkpt>
<trkpt lat="53.460283" lon="05.830745"><ele>20.8</ele><time>2021-02-18T15:52:50Z</time><name>PT13956</name></trkpt>
<trkpt lat="53.460279" lon="05.830727"><ele>20.7</ele><time>2021-02-18T15:52:51Z</time><name>PT13957</name></trkpt>
<trkpt lat="53.460275" lon="05.830708"><ele>20.4</ele><time>2021-02-18T15:52:52Z</time><name>PT13958</name></trkpt>
<trkpt lat="53.460270" lon="05.830688"><ele>20.4</ele><time>2021-02-18T15:52:53Z</time><name>PT13959</name></trkpt>
<trkpt lat="53.460266" lon="05.830669"><ele>20</ele><time>2021-02-18T15:52:54Z</time><name>PT13960</name></trkpt>
<trkpt lat="53.460261" lon="05.830650"><ele>19.9</ele><time>2021-02-18T15:52:55Z</time><name>PT13961</name></trkpt>
<trkpt lat="53.460257" lon="05.830632"><ele>19.8</ele><time>2021-02-18T15:52:56Z</time><name>PT13962</name></trkpt>
<trkpt lat="53.460252" lon="05.830614"><ele>19.9</ele><time>2021-02-18T15:52:57Z</time><name>PT13963</name></trkpt>
<trkpt lat="53.460248" lon="05.830598"><ele>19.9</ele><time>2021-02-18T15:52:58Z</time><name>PT13964</name></trkpt>
<trkpt lat="53.460245" lon="05.830582"><ele>19.8</ele><time>2021-02-18T15:52:59Z</time><name>PT13965</name></trkpt>
<trkpt lat="53.460240" lon="05.830567"><ele>19.5</ele><time>2021-02-18T15:53:00Z</time><name>PT13966</name></trkpt>
<trkpt lat="53.460237" lon="05.830550"><ele>19.6</ele><time>2021-02-18T15:53:01Z</time><name>PT13967</name></trkpt>
<trkpt lat="53.460234" lon="05.830534"><ele>19.4</ele><time>2021-02-18T15:53:02Z</time><name>PT13968</name></trkpt>
<trkpt lat="53.460230" lon="05.830520"><ele>19.4</ele><time>2021-02-18T15:53:03Z</time><name>PT13969</name></trkpt>
<trkpt lat="53.460229" lon="05.830506"><ele>19.6</ele><time>2021-02-18T15:53:04Z</time><name>PT13970</name></trkpt>
<trkpt lat="53.460228" lon="05.830490"><ele>19.6</ele><time>2021-02-18T15:53:05Z</time><name>PT13971</name></trkpt>
<trkpt lat="53.460225" lon="05.830471"><ele>19.4</ele><time>2021-02-18T15:53:06Z</time><name>PT13972</name></trkpt>
<trkpt lat="53.460221" lon="05.830453"><ele>19.1</ele><time>2021-02-18T15:53:07Z</time><name>PT13973</name></trkpt>
<trkpt lat="53.460219" lon="05.830435"><ele>18.9</ele><time>2021-02-18T15:53:08Z</time><name>PT13974</name></trkpt>
<trkpt lat="53.460216" lon="05.830415"><ele>18.6</ele><time>2021-02-18T15:53:09Z</time><name>PT13975</name></trkpt>
<trkpt lat="53.460213" lon="05.830394"><ele>18.4</ele><time>2021-02-18T15:53:10Z</time><name>PT13976</name></trkpt>
<trkpt lat="53.460208" lon="05.830375"><ele>18.6</ele><time>2021-02-18T15:53:11Z</time><name>PT13977</name></trkpt>
<trkpt lat="53.460202" lon="05.830358"><ele>18.3</ele><time>2021-02-18T15:53:12Z</time><name>PT13978</name></trkpt>
<trkpt lat="53.460196" lon="05.830344"><ele>18.1</ele><time>2021-02-18T15:53:13Z</time><name>PT13979</name></trkpt>
<trkpt lat="53.460193" lon="05.830330"><ele>17.9</ele><time>2021-02-18T15:53:14Z</time><name>PT13980</name></trkpt>
<trkpt lat="53.460190" lon="05.830314"><ele>17.8</ele><time>2021-02-18T15:53:15Z</time><name>PT13981</name></trkpt>
<trkpt lat="53.460186" lon="05.830299"><ele>17.7</ele><time>2021-02-18T15:53:16Z</time><name>PT13982</name></trkpt>
<trkpt lat="53.460183" lon="05.830283"><ele>17.7</ele><time>2021-02-18T15:53:17Z</time><name>PT13983</name></trkpt>
<trkpt lat="53.460179" lon="05.830266"><ele>17.7</ele><time>2021-02-18T15:53:18Z</time><name>PT13984</name></trkpt>
<trkpt lat="53.460174" lon="05.830249"><ele>17.8</ele><time>2021-02-18T15:53:19Z</time><name>PT13985</name></trkpt>
<trkpt lat="53.460171" lon="05.830231"><ele>17.8</ele><time>2021-02-18T15:53:20Z</time><name>PT13986</name></trkpt>
<trkpt lat="53.460168" lon="05.830217"><ele>17.7</ele><time>2021-02-18T15:53:21Z</time><name>PT13987</name></trkpt>
<trkpt lat="53.460164" lon="05.830198"><ele>17.6</ele><time>2021-02-18T15:53:22Z</time><name>PT13988</name></trkpt>
<trkpt lat="53.460159" lon="05.830179"><ele>17.7</ele><time>2021-02-18T15:53:23Z</time><name>PT13989</name></trkpt>
<trkpt lat="53.460155" lon="05.830159"><ele>17.8</ele><time>2021-02-18T15:53:24Z</time><name>PT13990</name></trkpt>
<trkpt lat="53.460151" lon="05.830141"><ele>17.9</ele><time>2021-02-18T15:53:25Z</time><name>PT13991</name></trkpt>
<trkpt lat="53.460149" lon="05.830125"><ele>17.9</ele><time>2021-02-18T15:53:26Z</time><name>PT13992</name></trkpt>
<trkpt lat="53.460148" lon="05.830110"><ele>17.9</ele><time>2021-02-18T15:53:27Z</time><name>PT13993</name></trkpt>
<trkpt lat="53.460147" lon="05.830095"><ele>18.1</ele><time>2021-02-18T15:53:28Z</time><name>PT13994</name></trkpt>
<trkpt lat="53.460145" lon="05.830078"><ele>18.1</ele><time>2021-02-18T15:53:29Z</time><name>PT13995</name></trkpt>
<trkpt lat="53.460143" lon="05.830061"><ele>18.2</ele><time>2021-02-18T15:53:30Z</time><name>PT13996</name></trkpt>
<trkpt lat="53.460141" lon="05.830043"><ele>18.4</ele><time>2021-02-18T15:53:31Z</time><name>PT13997</name></trkpt>
<trkpt lat="53.460139" lon="05.830024"><ele>18.5</ele><time>2021-02-18T15:53:32Z</time><name>PT13998</name></trkpt>
<trkpt lat="53.460137" lon="05.830005"><ele>18.4</ele><time>2021-02-18T15:53:33Z</time><name>PT13999</name></trkpt>
<trkpt lat="53.460134" lon="05.829987"><ele>18.5</ele><time>2021-02-18T15:53:34Z</time><name>PT14000</name></trkpt>
<trkpt lat="53.460130" lon="05.829971"><ele>18.4</ele><time>2021-02-18T15:53:35Z</time><name>PT14001</name></trkpt>
<trkpt lat="53.460127" lon="05.829952"><ele>18.4</ele><time>2021-02-18T15:53:36Z</time><name>PT14002</name></trkpt>
<trkpt lat="53.460124" lon="05.829931"><ele>18.3</ele><time>2021-02-18T15:53:37Z</time><name>PT14003</name></trkpt>
<trkpt lat="53.460121" lon="05.829910"><ele>18.4</ele><time>2021-02-18T15:53:38Z</time><name>PT14004</name></trkpt>
<trkpt lat="53.460118" lon="05.829890"><ele>18</ele><time>2021-02-18T15:53:39Z</time><name>PT14005</name></trkpt>
<trkpt lat="53.460116" lon="05.829872"><ele>17.9</ele><time>2021-02-18T15:53:40Z</time><name>PT14006</name></trkpt>
<trkpt lat="53.460114" lon="05.829855"><ele>17.8</ele><time>2021-02-18T15:53:41Z</time><name>PT14007</name></trkpt>
<trkpt lat="53.460112" lon="05.829841"><ele>17.7</ele><time>2021-02-18T15:53:42Z</time><name>PT14008</name></trkpt>
<trkpt lat="53.460110" lon="05.829823"><ele>17.8</ele><time>2021-02-18T15:53:43Z</time><name>PT14009</name></trkpt>
<trkpt lat="53.460108" lon="05.829803"><ele>17.9</ele><time>2021-02-18T15:53:44Z</time><name>PT14010</name></trkpt>
<trkpt lat="53.460107" lon="05.829781"><ele>17.9</ele><time>2021-02-18T15:53:45Z</time><name>PT14011</name></trkpt>
<trkpt lat="53.460107" lon="05.829760"><ele>17.6</ele><time>2021-02-18T15:53:46Z</time><name>PT14012</name></trkpt>
<trkpt lat="53.460107" lon="05.829741"><ele>17.5</ele><time>2021-02-18T15:53:47Z</time><name>PT14013</name></trkpt>
<trkpt lat="53.460108" lon="05.829721"><ele>17.3</ele><time>2021-02-18T15:53:48Z</time><name>PT14014</name></trkpt>
<trkpt lat="53.460110" lon="05.829702"><ele>17.2</ele><time>2021-02-18T15:53:49Z</time><name>PT14015</name></trkpt>
<trkpt lat="53.460111" lon="05.829684"><ele>17.4</ele><time>2021-02-18T15:53:50Z</time><name>PT14016</name></trkpt>
<trkpt lat="53.460112" lon="05.829666"><ele>17.6</ele><time>2021-02-18T15:53:51Z</time><name>PT14017</name></trkpt>
<trkpt lat="53.460111" lon="05.829648"><ele>17.6</ele><time>2021-02-18T15:53:52Z</time><name>PT14018</name></trkpt>
<trkpt lat="53.460109" lon="05.829628"><ele>17.8</ele><time>2021-02-18T15:53:53Z</time><name>PT14019</name></trkpt>
<trkpt lat="53.460106" lon="05.829607"><ele>17.7</ele><time>2021-02-18T15:53:54Z</time><name>PT14020</name></trkpt>
<trkpt lat="53.460102" lon="05.829590"><ele>17.7</ele><time>2021-02-18T15:53:55Z</time><name>PT14021</name></trkpt>
<trkpt lat="53.460102" lon="05.829573"><ele>17.7</ele><time>2021-02-18T15:53:56Z</time><name>PT14022</name></trkpt>
<trkpt lat="53.460102" lon="05.829558"><ele>17.5</ele><time>2021-02-18T15:53:57Z</time><name>PT14023</name></trkpt>
<trkpt lat="53.460100" lon="05.829540"><ele>17.4</ele><time>2021-02-18T15:53:58Z</time><name>PT14024</name></trkpt>
<trkpt lat="53.460100" lon="05.829521"><ele>17.4</ele><time>2021-02-18T15:53:59Z</time><name>PT14025</name></trkpt>
<trkpt lat="53.460098" lon="05.829502"><ele>17.4</ele><time>2021-02-18T15:54:00Z</time><name>PT14026</name></trkpt>
<trkpt lat="53.460096" lon="05.829482"><ele>17.4</ele><time>2021-02-18T15:54:01Z</time><name>PT14027</name></trkpt>
<trkpt lat="53.460096" lon="05.829464"><ele>17.5</ele><time>2021-02-18T15:54:02Z</time><name>PT14028</name></trkpt>
<trkpt lat="53.460094" lon="05.829447"><ele>17.7</ele><time>2021-02-18T15:54:03Z</time><name>PT14029</name></trkpt>
<trkpt lat="53.460092" lon="05.829430"><ele>17.6</ele><time>2021-02-18T15:54:04Z</time><name>PT14030</name></trkpt>
<trkpt lat="53.460091" lon="05.829412"><ele>17.6</ele><time>2021-02-18T15:54:05Z</time><name>PT14031</name></trkpt>
<trkpt lat="53.460089" lon="05.829392"><ele>17.7</ele><time>2021-02-18T15:54:06Z</time><name>PT14032</name></trkpt>
<trkpt lat="53.460086" lon="05.829373"><ele>17.5</ele><time>2021-02-18T15:54:07Z</time><name>PT14033</name></trkpt>
<trkpt lat="53.460084" lon="05.829354"><ele>17.4</ele><time>2021-02-18T15:54:08Z</time><name>PT14034</name></trkpt>
<trkpt lat="53.460082" lon="05.829336"><ele>17.7</ele><time>2021-02-18T15:54:09Z</time><name>PT14035</name></trkpt>
<trkpt lat="53.460081" lon="05.829320"><ele>17.5</ele><time>2021-02-18T15:54:10Z</time><name>PT14036</name></trkpt>
<trkpt lat="53.460078" lon="05.829300"><ele>17.7</ele><time>2021-02-18T15:54:11Z</time><name>PT14037</name></trkpt>
<trkpt lat="53.460075" lon="05.829279"><ele>17.6</ele><time>2021-02-18T15:54:12Z</time><name>PT14038</name></trkpt>
<trkpt lat="53.460073" lon="05.829259"><ele>17.5</ele><time>2021-02-18T15:54:13Z</time><name>PT14039</name></trkpt>
<trkpt lat="53.460072" lon="05.829238"><ele>17.4</ele><time>2021-02-18T15:54:14Z</time><name>PT14040</name></trkpt>
<trkpt lat="53.460071" lon="05.829220"><ele>16.9</ele><time>2021-02-18T15:54:15Z</time><name>PT14041</name></trkpt>
<trkpt lat="53.460067" lon="05.829201"><ele>16.9</ele><time>2021-02-18T15:54:16Z</time><name>PT14042</name></trkpt>
<trkpt lat="53.460063" lon="05.829183"><ele>17.1</ele><time>2021-02-18T15:54:17Z</time><name>PT14043</name></trkpt>
<trkpt lat="53.460058" lon="05.829167"><ele>17.1</ele><time>2021-02-18T15:54:18Z</time><name>PT14044</name></trkpt>
<trkpt lat="53.460055" lon="05.829152"><ele>17.7</ele><time>2021-02-18T15:54:19Z</time><name>PT14045</name></trkpt>
<trkpt lat="53.460051" lon="05.829137"><ele>17.9</ele><time>2021-02-18T15:54:20Z</time><name>PT14046</name></trkpt>
<trkpt lat="53.460049" lon="05.829119"><ele>17.8</ele><time>2021-02-18T15:54:21Z</time><name>PT14047</name></trkpt>
<trkpt lat="53.460047" lon="05.829101"><ele>17.8</ele><time>2021-02-18T15:54:22Z</time><name>PT14048</name></trkpt>
<trkpt lat="53.460047" lon="05.829084"><ele>17.8</ele><time>2021-02-18T15:54:23Z</time><name>PT14049</name></trkpt>
<trkpt lat="53.460046" lon="05.829067"><ele>17.6</ele><time>2021-02-18T15:54:24Z</time><name>PT14050</name></trkpt>
<trkpt lat="53.460044" lon="05.829050"><ele>17.5</ele><time>2021-02-18T15:54:25Z</time><name>PT14051</name></trkpt>
<trkpt lat="53.460040" lon="05.829031"><ele>17.5</ele><time>2021-02-18T15:54:26Z</time><name>PT14052</name></trkpt>
<trkpt lat="53.460037" lon="05.829011"><ele>17.6</ele><time>2021-02-18T15:54:27Z</time><name>PT14053</name></trkpt>
<trkpt lat="53.460034" lon="05.828992"><ele>17.6</ele><time>2021-02-18T15:54:28Z</time><name>PT14054</name></trkpt>
<trkpt lat="53.460030" lon="05.828976"><ele>17.7</ele><time>2021-02-18T15:54:29Z</time><name>PT14055</name></trkpt>
<trkpt lat="53.460027" lon="05.828961"><ele>17.6</ele><time>2021-02-18T15:54:30Z</time><name>PT14056</name></trkpt>
<trkpt lat="53.460022" lon="05.828946"><ele>17.6</ele><time>2021-02-18T15:54:31Z</time><name>PT14057</name></trkpt>
<trkpt lat="53.460017" lon="05.828928"><ele>17.6</ele><time>2021-02-18T15:54:32Z</time><name>PT14058</name></trkpt>
<trkpt lat="53.460014" lon="05.828910"><ele>17.9</ele><time>2021-02-18T15:54:33Z</time><name>PT14059</name></trkpt>
<trkpt lat="53.460012" lon="05.828892"><ele>18.1</ele><time>2021-02-18T15:54:34Z</time><name>PT14060</name></trkpt>
<trkpt lat="53.460011" lon="05.828876"><ele>18.2</ele><time>2021-02-18T15:54:35Z</time><name>PT14061</name></trkpt>
<trkpt lat="53.460008" lon="05.828859"><ele>18.3</ele><time>2021-02-18T15:54:36Z</time><name>PT14062</name></trkpt>
<trkpt lat="53.460006" lon="05.828842"><ele>18.3</ele><time>2021-02-18T15:54:37Z</time><name>PT14063</name></trkpt>
<trkpt lat="53.460004" lon="05.828825"><ele>18.2</ele><time>2021-02-18T15:54:38Z</time><name>PT14064</name></trkpt>
<trkpt lat="53.460002" lon="05.828806"><ele>18.1</ele><time>2021-02-18T15:54:39Z</time><name>PT14065</name></trkpt>
<trkpt lat="53.460000" lon="05.828788"><ele>18</ele><time>2021-02-18T15:54:40Z</time><name>PT14066</name></trkpt>
<trkpt lat="53.459996" lon="05.828771"><ele>17.9</ele><time>2021-02-18T15:54:41Z</time><name>PT14067</name></trkpt>
<trkpt lat="53.459993" lon="05.828752"><ele>17.9</ele><time>2021-02-18T15:54:42Z</time><name>PT14068</name></trkpt>
<trkpt lat="53.459990" lon="05.828735"><ele>18.1</ele><time>2021-02-18T15:54:43Z</time><name>PT14069</name></trkpt>
<trkpt lat="53.459988" lon="05.828718"><ele>18.2</ele><time>2021-02-18T15:54:44Z</time><name>PT14070</name></trkpt>
<trkpt lat="53.459984" lon="05.828700"><ele>18.4</ele><time>2021-02-18T15:54:45Z</time><name>PT14071</name></trkpt>
<trkpt lat="53.459980" lon="05.828683"><ele>18.5</ele><time>2021-02-18T15:54:46Z</time><name>PT14072</name></trkpt>
<trkpt lat="53.459977" lon="05.828664"><ele>18.4</ele><time>2021-02-18T15:54:47Z</time><name>PT14073</name></trkpt>
<trkpt lat="53.459976" lon="05.828645"><ele>18.5</ele><time>2021-02-18T15:54:48Z</time><name>PT14074</name></trkpt>
<trkpt lat="53.459973" lon="05.828628"><ele>18.4</ele><time>2021-02-18T15:54:49Z</time><name>PT14075</name></trkpt>
<trkpt lat="53.459971" lon="05.828610"><ele>18.4</ele><time>2021-02-18T15:54:50Z</time><name>PT14076</name></trkpt>
<trkpt lat="53.459970" lon="05.828592"><ele>18.3</ele><time>2021-02-18T15:54:51Z</time><name>PT14077</name></trkpt>
<trkpt lat="53.459969" lon="05.828574"><ele>18.4</ele><time>2021-02-18T15:54:52Z</time><name>PT14078</name></trkpt>
<trkpt lat="53.459966" lon="05.828553"><ele>18.5</ele><time>2021-02-18T15:54:53Z</time><name>PT14079</name></trkpt>
<trkpt lat="53.459963" lon="05.828533"><ele>18.8</ele><time>2021-02-18T15:54:54Z</time><name>PT14080</name></trkpt>
<trkpt lat="53.459960" lon="05.828516"><ele>18.9</ele><time>2021-02-18T15:54:55Z</time><name>PT14081</name></trkpt>
<trkpt lat="53.459956" lon="05.828496"><ele>18.8</ele><time>2021-02-18T15:54:56Z</time><name>PT14082</name></trkpt>
<trkpt lat="53.459951" lon="05.828476"><ele>18.7</ele><time>2021-02-18T15:54:57Z</time><name>PT14083</name></trkpt>
<trkpt lat="53.459947" lon="05.828455"><ele>18.5</ele><time>2021-02-18T15:54:58Z</time><name>PT14084</name></trkpt>
<trkpt lat="53.459944" lon="05.828436"><ele>18.5</ele><time>2021-02-18T15:54:59Z</time><name>PT14085</name></trkpt>
<trkpt lat="53.459941" lon="05.828418"><ele>18.5</ele><time>2021-02-18T15:55:00Z</time><name>PT14086</name></trkpt>
<trkpt lat="53.459937" lon="05.828400"><ele>18.5</ele><time>2021-02-18T15:55:01Z</time><name>PT14087</name></trkpt>
<trkpt lat="53.459935" lon="05.828382"><ele>18.5</ele><time>2021-02-18T15:55:02Z</time><name>PT14088</name></trkpt>
<trkpt lat="53.459934" lon="05.828366"><ele>18.4</ele><time>2021-02-18T15:55:03Z</time><name>PT14089</name></trkpt>
<trkpt lat="53.459933" lon="05.828348"><ele>18.4</ele><time>2021-02-18T15:55:04Z</time><name>PT14090</name></trkpt>
<trkpt lat="53.459933" lon="05.828330"><ele>18.4</ele><time>2021-02-18T15:55:05Z</time><name>PT14091</name></trkpt>
<trkpt lat="53.459932" lon="05.828312"><ele>18.4</ele><time>2021-02-18T15:55:06Z</time><name>PT14092</name></trkpt>
<trkpt lat="53.459931" lon="05.828292"><ele>18.8</ele><time>2021-02-18T15:55:07Z</time><name>PT14093</name></trkpt>
<trkpt lat="53.459930" lon="05.828272"><ele>18.8</ele><time>2021-02-18T15:55:08Z</time><name>PT14094</name></trkpt>
<trkpt lat="53.459928" lon="05.828252"><ele>18.8</ele><time>2021-02-18T15:55:09Z</time><name>PT14095</name></trkpt>
<trkpt lat="53.459926" lon="05.828233"><ele>18.9</ele><time>2021-02-18T15:55:10Z</time><name>PT14096</name></trkpt>
<trkpt lat="53.459922" lon="05.828214"><ele>18.9</ele><time>2021-02-18T15:55:11Z</time><name>PT14097</name></trkpt>
<trkpt lat="53.459919" lon="05.828199"><ele>18.9</ele><time>2021-02-18T15:55:12Z</time><name>PT14098</name></trkpt>
<trkpt lat="53.459915" lon="05.828185"><ele>18.9</ele><time>2021-02-18T15:55:13Z</time><name>PT14099</name></trkpt>
<trkpt lat="53.459913" lon="05.828169"><ele>18.8</ele><time>2021-02-18T15:55:14Z</time><name>PT14100</name></trkpt>
<trkpt lat="53.459913" lon="05.828151"><ele>18.7</ele><time>2021-02-18T15:55:15Z</time><name>PT14101</name></trkpt>
<trkpt lat="53.459912" lon="05.828133"><ele>18.9</ele><time>2021-02-18T15:55:16Z</time><name>PT14102</name></trkpt>
<trkpt lat="53.459911" lon="05.828115"><ele>18.9</ele><time>2021-02-18T15:55:17Z</time><name>PT14103</name></trkpt>
<trkpt lat="53.459911" lon="05.828094"><ele>19.1</ele><time>2021-02-18T15:55:18Z</time><name>PT14104</name></trkpt>
<trkpt lat="53.459910" lon="05.828073"><ele>18.9</ele><time>2021-02-18T15:55:19Z</time><name>PT14105</name></trkpt>
<trkpt lat="53.459908" lon="05.828055"><ele>19</ele><time>2021-02-18T15:55:20Z</time><name>PT14106</name></trkpt>
<trkpt lat="53.459905" lon="05.828040"><ele>18.9</ele><time>2021-02-18T15:55:21Z</time><name>PT14107</name></trkpt>
<trkpt lat="53.459902" lon="05.828023"><ele>18.9</ele><time>2021-02-18T15:55:22Z</time><name>PT14108</name></trkpt>
<trkpt lat="53.459900" lon="05.828005"><ele>18.9</ele><time>2021-02-18T15:55:23Z</time><name>PT14109</name></trkpt>
<trkpt lat="53.459897" lon="05.827986"><ele>19</ele><time>2021-02-18T15:55:24Z</time><name>PT14110</name></trkpt>
<trkpt lat="53.459895" lon="05.827967"><ele>19.3</ele><time>2021-02-18T15:55:25Z</time><name>PT14111</name></trkpt>
<trkpt lat="53.459893" lon="05.827949"><ele>19.4</ele><time>2021-02-18T15:55:26Z</time><name>PT14112</name></trkpt>
<trkpt lat="53.459892" lon="05.827932"><ele>19.4</ele><time>2021-02-18T15:55:27Z</time><name>PT14113</name></trkpt>
<trkpt lat="53.459891" lon="05.827915"><ele>19.4</ele><time>2021-02-18T15:55:28Z</time><name>PT14114</name></trkpt>
<trkpt lat="53.459889" lon="05.827897"><ele>19.2</ele><time>2021-02-18T15:55:29Z</time><name>PT14115</name></trkpt>
<trkpt lat="53.459886" lon="05.827879"><ele>19.1</ele><time>2021-02-18T15:55:30Z</time><name>PT14116</name></trkpt>
<trkpt lat="53.459883" lon="05.827862"><ele>19</ele><time>2021-02-18T15:55:31Z</time><name>PT14117</name></trkpt>
<trkpt lat="53.459880" lon="05.827845"><ele>18.9</ele><time>2021-02-18T15:55:32Z</time><name>PT14118</name></trkpt>
<trkpt lat="53.459876" lon="05.827826"><ele>18.9</ele><time>2021-02-18T15:55:33Z</time><name>PT14119</name></trkpt>
<trkpt lat="53.459872" lon="05.827809"><ele>18.8</ele><time>2021-02-18T15:55:34Z</time><name>PT14120</name></trkpt>
<trkpt lat="53.459869" lon="05.827795"><ele>18.7</ele><time>2021-02-18T15:55:35Z</time><name>PT14121</name></trkpt>
<trkpt lat="53.459863" lon="05.827783"><ele>18.6</ele><time>2021-02-18T15:55:36Z</time><name>PT14122</name></trkpt>
<trkpt lat="53.459858" lon="05.827771"><ele>18.3</ele><time>2021-02-18T15:55:37Z</time><name>PT14123</name></trkpt>
<trkpt lat="53.459852" lon="05.827759"><ele>18.2</ele><time>2021-02-18T15:55:38Z</time><name>PT14124</name></trkpt>
<trkpt lat="53.459845" lon="05.827746"><ele>17.9</ele><time>2021-02-18T15:55:39Z</time><name>PT14125</name></trkpt>
<trkpt lat="53.459839" lon="05.827730"><ele>17.9</ele><time>2021-02-18T15:55:40Z</time><name>PT14126</name></trkpt>
<trkpt lat="53.459833" lon="05.827711"><ele>17.9</ele><time>2021-02-18T15:55:41Z</time><name>PT14127</name></trkpt>
<trkpt lat="53.459828" lon="05.827693"><ele>17.9</ele><time>2021-02-18T15:55:42Z</time><name>PT14128</name></trkpt>
<trkpt lat="53.459822" lon="05.827677"><ele>17.6</ele><time>2021-02-18T15:55:43Z</time><name>PT14129</name></trkpt>
<trkpt lat="53.459816" lon="05.827661"><ele>17.4</ele><time>2021-02-18T15:55:44Z</time><name>PT14130</name></trkpt>
<trkpt lat="53.459809" lon="05.827645"><ele>17</ele><time>2021-02-18T15:55:45Z</time><name>PT14131</name></trkpt>
<trkpt lat="53.459802" lon="05.827628"><ele>17.1</ele><time>2021-02-18T15:55:46Z</time><name>PT14132</name></trkpt>
<trkpt lat="53.459795" lon="05.827612"><ele>17.2</ele><time>2021-02-18T15:55:47Z</time><name>PT14133</name></trkpt>
<trkpt lat="53.459787" lon="05.827596"><ele>17.5</ele><time>2021-02-18T15:55:48Z</time><name>PT14134</name></trkpt>
<trkpt lat="53.459781" lon="05.827579"><ele>17.8</ele><time>2021-02-18T15:55:49Z</time><name>PT14135</name></trkpt>
<trkpt lat="53.459774" lon="05.827560"><ele>17.7</ele><time>2021-02-18T15:55:50Z</time><name>PT14136</name></trkpt>
<trkpt lat="53.459767" lon="05.827542"><ele>17.8</ele><time>2021-02-18T15:55:51Z</time><name>PT14137</name></trkpt>
<trkpt lat="53.459761" lon="05.827525"><ele>17.9</ele><time>2021-02-18T15:55:52Z</time><name>PT14138</name></trkpt>
<trkpt lat="53.459755" lon="05.827505"><ele>17.9</ele><time>2021-02-18T15:55:53Z</time><name>PT14139</name></trkpt>
<trkpt lat="53.459751" lon="05.827487"><ele>17.8</ele><time>2021-02-18T15:55:54Z</time><name>PT14140</name></trkpt>
<trkpt lat="53.459746" lon="05.827468"><ele>17.8</ele><time>2021-02-18T15:55:55Z</time><name>PT14141</name></trkpt>
<trkpt lat="53.459743" lon="05.827451"><ele>17.7</ele><time>2021-02-18T15:55:56Z</time><name>PT14142</name></trkpt>
<trkpt lat="53.459740" lon="05.827434"><ele>17.7</ele><time>2021-02-18T15:55:57Z</time><name>PT14143</name></trkpt>
<trkpt lat="53.459737" lon="05.827417"><ele>17.7</ele><time>2021-02-18T15:55:58Z</time><name>PT14144</name></trkpt>
<trkpt lat="53.459736" lon="05.827401"><ele>17.7</ele><time>2021-02-18T15:55:59Z</time><name>PT14145</name></trkpt>
<trkpt lat="53.459734" lon="05.827383"><ele>17.7</ele><time>2021-02-18T15:56:00Z</time><name>PT14146</name></trkpt>
<trkpt lat="53.459731" lon="05.827365"><ele>17.7</ele><time>2021-02-18T15:56:01Z</time><name>PT14147</name></trkpt>
<trkpt lat="53.459726" lon="05.827344"><ele>17.8</ele><time>2021-02-18T15:56:02Z</time><name>PT14148</name></trkpt>
<trkpt lat="53.459724" lon="05.827325"><ele>17.7</ele><time>2021-02-18T15:56:03Z</time><name>PT14149</name></trkpt>
<trkpt lat="53.459719" lon="05.827306"><ele>17.8</ele><time>2021-02-18T15:56:04Z</time><name>PT14150</name></trkpt>
<trkpt lat="53.459715" lon="05.827288"><ele>17.8</ele><time>2021-02-18T15:56:05Z</time><name>PT14151</name></trkpt>
<trkpt lat="53.459711" lon="05.827269"><ele>17.6</ele><time>2021-02-18T15:56:06Z</time><name>PT14152</name></trkpt>
<trkpt lat="53.459707" lon="05.827252"><ele>17.7</ele><time>2021-02-18T15:56:07Z</time><name>PT14153</name></trkpt>
<trkpt lat="53.459705" lon="05.827236"><ele>17.6</ele><time>2021-02-18T15:56:08Z</time><name>PT14154</name></trkpt>
<trkpt lat="53.459705" lon="05.827217"><ele>17.5</ele><time>2021-02-18T15:56:09Z</time><name>PT14155</name></trkpt>
<trkpt lat="53.459705" lon="05.827198"><ele>17.5</ele><time>2021-02-18T15:56:10Z</time><name>PT14156</name></trkpt>
<trkpt lat="53.459705" lon="05.827179"><ele>17.7</ele><time>2021-02-18T15:56:11Z</time><name>PT14157</name></trkpt>
<trkpt lat="53.459705" lon="05.827163"><ele>17.8</ele><time>2021-02-18T15:56:12Z</time><name>PT14158</name></trkpt>
<trkpt lat="53.459703" lon="05.827147"><ele>18.2</ele><time>2021-02-18T15:56:13Z</time><name>PT14159</name></trkpt>
<trkpt lat="53.459700" lon="05.827132"><ele>18.3</ele><time>2021-02-18T15:56:14Z</time><name>PT14160</name></trkpt>
<trkpt lat="53.459698" lon="05.827114"><ele>18.3</ele><time>2021-02-18T15:56:15Z</time><name>PT14161</name></trkpt>
<trkpt lat="53.459698" lon="05.827097"><ele>18.2</ele><time>2021-02-18T15:56:16Z</time><name>PT14162</name></trkpt>
<trkpt lat="53.459698" lon="05.827079"><ele>18.4</ele><time>2021-02-18T15:56:17Z</time><name>PT14163</name></trkpt>
<trkpt lat="53.459698" lon="05.827060"><ele>18.4</ele><time>2021-02-18T15:56:18Z</time><name>PT14164</name></trkpt>
<trkpt lat="53.459697" lon="05.827041"><ele>18.5</ele><time>2021-02-18T15:56:19Z</time><name>PT14165</name></trkpt>
<trkpt lat="53.459693" lon="05.827023"><ele>18.6</ele><time>2021-02-18T15:56:20Z</time><name>PT14166</name></trkpt>
<trkpt lat="53.459691" lon="05.827005"><ele>18.7</ele><time>2021-02-18T15:56:21Z</time><name>PT14167</name></trkpt>
<trkpt lat="53.459688" lon="05.826989"><ele>18.6</ele><time>2021-02-18T15:56:22Z</time><name>PT14168</name></trkpt>
<trkpt lat="53.459686" lon="05.826971"><ele>18.5</ele><time>2021-02-18T15:56:23Z</time><name>PT14169</name></trkpt>
<trkpt lat="53.459683" lon="05.826953"><ele>18.5</ele><time>2021-02-18T15:56:24Z</time><name>PT14170</name></trkpt>
<trkpt lat="53.459682" lon="05.826938"><ele>18.4</ele><time>2021-02-18T15:56:25Z</time><name>PT14171</name></trkpt>
<trkpt lat="53.459677" lon="05.826925"><ele>18.4</ele><time>2021-02-18T15:56:26Z</time><name>PT14172</name></trkpt>
<trkpt lat="53.459675" lon="05.826907"><ele>18.3</ele><time>2021-02-18T15:56:27Z</time><name>PT14173</name></trkpt>
<trkpt lat="53.459672" lon="05.826889"><ele>18.3</ele><time>2021-02-18T15:56:28Z</time><name>PT14174</name></trkpt>
<trkpt lat="53.459669" lon="05.826871"><ele>18.3</ele><time>2021-02-18T15:56:29Z</time><name>PT14175</name></trkpt>
<trkpt lat="53.459665" lon="05.826851"><ele>18.3</ele><time>2021-02-18T15:56:30Z</time><name>PT14176</name></trkpt>
<trkpt lat="53.459661" lon="05.826832"><ele>18.6</ele><time>2021-02-18T15:56:31Z</time><name>PT14177</name></trkpt>
<trkpt lat="53.459657" lon="05.826815"><ele>18.5</ele><time>2021-02-18T15:56:32Z</time><name>PT14178</name></trkpt>
<trkpt lat="53.459652" lon="05.826798"><ele>18.5</ele><time>2021-02-18T15:56:33Z</time><name>PT14179</name></trkpt>
<trkpt lat="53.459646" lon="05.826783"><ele>18.4</ele><time>2021-02-18T15:56:34Z</time><name>PT14180</name></trkpt>
<trkpt lat="53.459641" lon="05.826770"><ele>18.1</ele><time>2021-02-18T15:56:35Z</time><name>PT14181</name></trkpt>
<trkpt lat="53.459636" lon="05.826756"><ele>17.7</ele><time>2021-02-18T15:56:36Z</time><name>PT14182</name></trkpt>
<trkpt lat="53.459631" lon="05.826742"><ele>17.4</ele><time>2021-02-18T15:56:37Z</time><name>PT14183</name></trkpt>
<trkpt lat="53.459626" lon="05.826725"><ele>17.3</ele><time>2021-02-18T15:56:38Z</time><name>PT14184</name></trkpt>
<trkpt lat="53.459620" lon="05.826707"><ele>17.1</ele><time>2021-02-18T15:56:39Z</time><name>PT14185</name></trkpt>
<trkpt lat="53.459614" lon="05.826690"><ele>17.4</ele><time>2021-02-18T15:56:40Z</time><name>PT14186</name></trkpt>
<trkpt lat="53.459609" lon="05.826674"><ele>17.4</ele><time>2021-02-18T15:56:41Z</time><name>PT14187</name></trkpt>
<trkpt lat="53.459604" lon="05.826658"><ele>17.3</ele><time>2021-02-18T15:56:42Z</time><name>PT14188</name></trkpt>
<trkpt lat="53.459599" lon="05.826641"><ele>17.4</ele><time>2021-02-18T15:56:43Z</time><name>PT14189</name></trkpt>
<trkpt lat="53.459594" lon="05.826625"><ele>17.4</ele><time>2021-02-18T15:56:44Z</time><name>PT14190</name></trkpt>
<trkpt lat="53.459590" lon="05.826610"><ele>17.2</ele><time>2021-02-18T15:56:45Z</time><name>PT14191</name></trkpt>
<trkpt lat="53.459588" lon="05.826592"><ele>17.2</ele><time>2021-02-18T15:56:46Z</time><name>PT14192</name></trkpt>
<trkpt lat="53.459586" lon="05.826573"><ele>17.1</ele><time>2021-02-18T15:56:47Z</time><name>PT14193</name></trkpt>
<trkpt lat="53.459585" lon="05.826553"><ele>17</ele><time>2021-02-18T15:56:48Z</time><name>PT14194</name></trkpt>
<trkpt lat="53.459585" lon="05.826531"><ele>16.9</ele><time>2021-02-18T15:56:49Z</time><name>PT14195</name></trkpt>
<trkpt lat="53.459584" lon="05.826512"><ele>16.9</ele><time>2021-02-18T15:56:50Z</time><name>PT14196</name></trkpt>
<trkpt lat="53.459584" lon="05.826493"><ele>16.8</ele><time>2021-02-18T15:56:51Z</time><name>PT14197</name></trkpt>
<trkpt lat="53.459582" lon="05.826475"><ele>16.8</ele><time>2021-02-18T15:56:52Z</time><name>PT14198</name></trkpt>
<trkpt lat="53.459580" lon="05.826457"><ele>16.9</ele><time>2021-02-18T15:56:53Z</time><name>PT14199</name></trkpt>
<trkpt lat="53.459578" lon="05.826441"><ele>16.6</ele><time>2021-02-18T15:56:54Z</time><name>PT14200</name></trkpt>
<trkpt lat="53.459577" lon="05.826425"><ele>16.9</ele><time>2021-02-18T15:56:55Z</time><name>PT14201</name></trkpt>
<trkpt lat="53.459578" lon="05.826410"><ele>16.9</ele><time>2021-02-18T15:56:56Z</time><name>PT14202</name></trkpt>
<trkpt lat="53.459581" lon="05.826394"><ele>16.9</ele><time>2021-02-18T15:56:57Z</time><name>PT14203</name></trkpt>
<trkpt lat="53.459584" lon="05.826376"><ele>16.9</ele><time>2021-02-18T15:56:58Z</time><name>PT14204</name></trkpt>
<trkpt lat="53.459586" lon="05.826358"><ele>17</ele><time>2021-02-18T15:56:59Z</time><name>PT14205</name></trkpt>
<trkpt lat="53.459589" lon="05.826339"><ele>17</ele><time>2021-02-18T15:57:00Z</time><name>PT14206</name></trkpt>
<trkpt lat="53.459592" lon="05.826319"><ele>17</ele><time>2021-02-18T15:57:01Z</time><name>PT14207</name></trkpt>
<trkpt lat="53.459596" lon="05.826299"><ele>17</ele><time>2021-02-18T15:57:02Z</time><name>PT14208</name></trkpt>
<trkpt lat="53.459598" lon="05.826282"><ele>17</ele><time>2021-02-18T15:57:03Z</time><name>PT14209</name></trkpt>
<trkpt lat="53.459601" lon="05.826265"><ele>17</ele><time>2021-02-18T15:57:04Z</time><name>PT14210</name></trkpt>
<trkpt lat="53.459607" lon="05.826248"><ele>16.9</ele><time>2021-02-18T15:57:05Z</time><name>PT14211</name></trkpt>
<trkpt lat="53.459611" lon="05.826232"><ele>16.7</ele><time>2021-02-18T15:57:06Z</time><name>PT14212</name></trkpt>
<trkpt lat="53.459615" lon="05.826211"><ele>16.8</ele><time>2021-02-18T15:57:07Z</time><name>PT14213</name></trkpt>
<trkpt lat="53.459617" lon="05.826195"><ele>16.7</ele><time>2021-02-18T15:57:08Z</time><name>PT14214</name></trkpt>
<trkpt lat="53.459620" lon="05.826177"><ele>16.6</ele><time>2021-02-18T15:57:09Z</time><name>PT14215</name></trkpt>
<trkpt lat="53.459622" lon="05.826158"><ele>16.7</ele><time>2021-02-18T15:57:10Z</time><name>PT14216</name></trkpt>
<trkpt lat="53.459625" lon="05.826139"><ele>16.8</ele><time>2021-02-18T15:57:11Z</time><name>PT14217</name></trkpt>
<trkpt lat="53.459627" lon="05.826120"><ele>16.8</ele><time>2021-02-18T15:57:12Z</time><name>PT14218</name></trkpt>
<trkpt lat="53.459630" lon="05.826103"><ele>16.8</ele><time>2021-02-18T15:57:13Z</time><name>PT14219</name></trkpt>
<trkpt lat="53.459633" lon="05.826087"><ele>16.8</ele><time>2021-02-18T15:57:14Z</time><name>PT14220</name></trkpt>
<trkpt lat="53.459634" lon="05.826069"><ele>16.6</ele><time>2021-02-18T15:57:15Z</time><name>PT14221</name></trkpt>
<trkpt lat="53.459634" lon="05.826050"><ele>16.5</ele><time>2021-02-18T15:57:16Z</time><name>PT14222</name></trkpt>
<trkpt lat="53.459636" lon="05.826032"><ele>16.4</ele><time>2021-02-18T15:57:17Z</time><name>PT14223</name></trkpt>
<trkpt lat="53.459636" lon="05.826015"><ele>16.4</ele><time>2021-02-18T15:57:18Z</time><name>PT14224</name></trkpt>
<trkpt lat="53.459635" lon="05.825996"><ele>16.5</ele><time>2021-02-18T15:57:19Z</time><name>PT14225</name></trkpt>
<trkpt lat="53.459633" lon="05.825976"><ele>16.5</ele><time>2021-02-18T15:57:20Z</time><name>PT14226</name></trkpt>
<trkpt lat="53.459629" lon="05.825959"><ele>16.4</ele><time>2021-02-18T15:57:21Z</time><name>PT14227</name></trkpt>
<trkpt lat="53.459626" lon="05.825947"><ele>16.4</ele><time>2021-02-18T15:57:22Z</time><name>PT14228</name></trkpt>
<trkpt lat="53.459623" lon="05.825929"><ele>16.3</ele><time>2021-02-18T15:57:23Z</time><name>PT14229</name></trkpt>
<trkpt lat="53.459620" lon="05.825912"><ele>16.2</ele><time>2021-02-18T15:57:24Z</time><name>PT14230</name></trkpt>
<trkpt lat="53.459617" lon="05.825893"><ele>16.4</ele><time>2021-02-18T15:57:25Z</time><name>PT14231</name></trkpt>
<trkpt lat="53.459614" lon="05.825877"><ele>16.3</ele><time>2021-02-18T15:57:26Z</time><name>PT14232</name></trkpt>
<trkpt lat="53.459612" lon="05.825857"><ele>16.2</ele><time>2021-02-18T15:57:27Z</time><name>PT14233</name></trkpt>
<trkpt lat="53.459612" lon="05.825837"><ele>16.4</ele><time>2021-02-18T15:57:28Z</time><name>PT14234</name></trkpt>
<trkpt lat="53.459611" lon="05.825820"><ele>16.4</ele><time>2021-02-18T15:57:29Z</time><name>PT14235</name></trkpt>
<trkpt lat="53.459607" lon="05.825802"><ele>16.4</ele><time>2021-02-18T15:57:30Z</time><name>PT14236</name></trkpt>
<trkpt lat="53.459603" lon="05.825783"><ele>16.4</ele><time>2021-02-18T15:57:31Z</time><name>PT14237</name></trkpt>
<trkpt lat="53.459598" lon="05.825764"><ele>16.4</ele><time>2021-02-18T15:57:32Z</time><name>PT14238</name></trkpt>
<trkpt lat="53.459596" lon="05.825745"><ele>16.3</ele><time>2021-02-18T15:57:33Z</time><name>PT14239</name></trkpt>
<trkpt lat="53.459592" lon="05.825728"><ele>16.1</ele><time>2021-02-18T15:57:34Z</time><name>PT14240</name></trkpt>
<trkpt lat="53.459588" lon="05.825711"><ele>16</ele><time>2021-02-18T15:57:35Z</time><name>PT14241</name></trkpt>
<trkpt lat="53.459585" lon="05.825694"><ele>16</ele><time>2021-02-18T15:57:36Z</time><name>PT14242</name></trkpt>
<trkpt lat="53.459582" lon="05.825676"><ele>15.8</ele><time>2021-02-18T15:57:37Z</time><name>PT14243</name></trkpt>
<trkpt lat="53.459580" lon="05.825657"><ele>15.9</ele><time>2021-02-18T15:57:38Z</time><name>PT14244</name></trkpt>
<trkpt lat="53.459578" lon="05.825639"><ele>16</ele><time>2021-02-18T15:57:39Z</time><name>PT14245</name></trkpt>
<trkpt lat="53.459575" lon="05.825623"><ele>16</ele><time>2021-02-18T15:57:40Z</time><name>PT14246</name></trkpt>
<trkpt lat="53.459571" lon="05.825605"><ele>16.2</ele><time>2021-02-18T15:57:41Z</time><name>PT14247</name></trkpt>
<trkpt lat="53.459567" lon="05.825586"><ele>16.4</ele><time>2021-02-18T15:57:42Z</time><name>PT14248</name></trkpt>
<trkpt lat="53.459561" lon="05.825570"><ele>16.4</ele><time>2021-02-18T15:57:43Z</time><name>PT14249</name></trkpt>
<trkpt lat="53.459557" lon="05.825554"><ele>16.2</ele><time>2021-02-18T15:57:44Z</time><name>PT14250</name></trkpt>
<trkpt lat="53.459554" lon="05.825541"><ele>16</ele><time>2021-02-18T15:57:45Z</time><name>PT14251</name></trkpt>
<trkpt lat="53.459553" lon="05.825525"><ele>16.1</ele><time>2021-02-18T15:57:46Z</time><name>PT14252</name></trkpt>
<trkpt lat="53.459552" lon="05.825507"><ele>16</ele><time>2021-02-18T15:57:47Z</time><name>PT14253</name></trkpt>
<trkpt lat="53.459551" lon="05.825488"><ele>16.1</ele><time>2021-02-18T15:57:48Z</time><name>PT14254</name></trkpt>
<trkpt lat="53.459547" lon="05.825468"><ele>16.5</ele><time>2021-02-18T15:57:49Z</time><name>PT14255</name></trkpt>
<trkpt lat="53.459544" lon="05.825448"><ele>16.7</ele><time>2021-02-18T15:57:50Z</time><name>PT14256</name></trkpt>
<trkpt lat="53.459540" lon="05.825430"><ele>16.7</ele><time>2021-02-18T15:57:51Z</time><name>PT14257</name></trkpt>
<trkpt lat="53.459538" lon="05.825411"><ele>16.8</ele><time>2021-02-18T15:57:52Z</time><name>PT14258</name></trkpt>
<trkpt lat="53.459537" lon="05.825393"><ele>16.7</ele><time>2021-02-18T15:57:53Z</time><name>PT14259</name></trkpt>
<trkpt lat="53.459536" lon="05.825378"><ele>16.6</ele><time>2021-02-18T15:57:54Z</time><name>PT14260</name></trkpt>
<trkpt lat="53.459533" lon="05.825361"><ele>16.6</ele><time>2021-02-18T15:57:55Z</time><name>PT14261</name></trkpt>
<trkpt lat="53.459529" lon="05.825343"><ele>16.6</ele><time>2021-02-18T15:57:56Z</time><name>PT14262</name></trkpt>
<trkpt lat="53.459525" lon="05.825323"><ele>16.6</ele><time>2021-02-18T15:57:57Z</time><name>PT14263</name></trkpt>
<trkpt lat="53.459522" lon="05.825307"><ele>16.6</ele><time>2021-02-18T15:57:58Z</time><name>PT14264</name></trkpt>
<trkpt lat="53.459522" lon="05.825290"><ele>16.6</ele><time>2021-02-18T15:57:59Z</time><name>PT14265</name></trkpt>
<trkpt lat="53.459520" lon="05.825273"><ele>16.5</ele><time>2021-02-18T15:58:00Z</time><name>PT14266</name></trkpt>
<trkpt lat="53.459519" lon="05.825257"><ele>16.7</ele><time>2021-02-18T15:58:01Z</time><name>PT14267</name></trkpt>
<trkpt lat="53.459517" lon="05.825239"><ele>16.5</ele><time>2021-02-18T15:58:02Z</time><name>PT14268</name></trkpt>
<trkpt lat="53.459515" lon="05.825222"><ele>16.7</ele><time>2021-02-18T15:58:03Z</time><name>PT14269</name></trkpt>
<trkpt lat="53.459513" lon="05.825205"><ele>16.4</ele><time>2021-02-18T15:58:04Z</time><name>PT14270</name></trkpt>
<trkpt lat="53.459512" lon="05.825187"><ele>16.5</ele><time>2021-02-18T15:58:05Z</time><name>PT14271</name></trkpt>
<trkpt lat="53.459511" lon="05.825168"><ele>16.6</ele><time>2021-02-18T15:58:06Z</time><name>PT14272</name></trkpt>
<trkpt lat="53.459510" lon="05.825151"><ele>16.4</ele><time>2021-02-18T15:58:07Z</time><name>PT14273</name></trkpt>
<trkpt lat="53.459507" lon="05.825134"><ele>16.5</ele><time>2021-02-18T15:58:08Z</time><name>PT14274</name></trkpt>
<trkpt lat="53.459503" lon="05.825118"><ele>16.5</ele><time>2021-02-18T15:58:09Z</time><name>PT14275</name></trkpt>
<trkpt lat="53.459502" lon="05.825102"><ele>16.3</ele><time>2021-02-18T15:58:10Z</time><name>PT14276</name></trkpt>
<trkpt lat="53.459503" lon="05.825083"><ele>16.3</ele><time>2021-02-18T15:58:11Z</time><name>PT14277</name></trkpt>
<trkpt lat="53.459503" lon="05.825064"><ele>16.4</ele><time>2021-02-18T15:58:12Z</time><name>PT14278</name></trkpt>
<trkpt lat="53.459503" lon="05.825046"><ele>16.2</ele><time>2021-02-18T15:58:13Z</time><name>PT14279</name></trkpt>
<trkpt lat="53.459503" lon="05.825028"><ele>16.3</ele><time>2021-02-18T15:58:14Z</time><name>PT14280</name></trkpt>
<trkpt lat="53.459504" lon="05.825008"><ele>16.4</ele><time>2021-02-18T15:58:15Z</time><name>PT14281</name></trkpt>
<trkpt lat="53.459502" lon="05.824987"><ele>16.4</ele><time>2021-02-18T15:58:16Z</time><name>PT14282</name></trkpt>
<trkpt lat="53.459501" lon="05.824970"><ele>16.5</ele><time>2021-02-18T15:58:17Z</time><name>PT14283</name></trkpt>
<trkpt lat="53.459501" lon="05.824954"><ele>16.5</ele><time>2021-02-18T15:58:18Z</time><name>PT14284</name></trkpt>
<trkpt lat="53.459503" lon="05.824937"><ele>16.8</ele><time>2021-02-18T15:58:19Z</time><name>PT14285</name></trkpt>
<trkpt lat="53.459504" lon="05.824920"><ele>16.8</ele><time>2021-02-18T15:58:20Z</time><name>PT14286</name></trkpt>
<trkpt lat="53.459506" lon="05.824903"><ele>16.7</ele><time>2021-02-18T15:58:21Z</time><name>PT14287</name></trkpt>
<trkpt lat="53.459507" lon="05.824884"><ele>16.9</ele><time>2021-02-18T15:58:22Z</time><name>PT14288</name></trkpt>
<trkpt lat="53.459507" lon="05.824863"><ele>16.9</ele><time>2021-02-18T15:58:23Z</time><name>PT14289</name></trkpt>
<trkpt lat="53.459506" lon="05.824843"><ele>16.8</ele><time>2021-02-18T15:58:24Z</time><name>PT14290</name></trkpt>
<trkpt lat="53.459505" lon="05.824822"><ele>16.7</ele><time>2021-02-18T15:58:25Z</time><name>PT14291</name></trkpt>
<trkpt lat="53.459504" lon="05.824804"><ele>16.5</ele><time>2021-02-18T15:58:26Z</time><name>PT14292</name></trkpt>
<trkpt lat="53.459503" lon="05.824786"><ele>16.5</ele><time>2021-02-18T15:58:27Z</time><name>PT14293</name></trkpt>
<trkpt lat="53.459503" lon="05.824768"><ele>16.4</ele><time>2021-02-18T15:58:28Z</time><name>PT14294</name></trkpt>
<trkpt lat="53.459503" lon="05.824750"><ele>16.4</ele><time>2021-02-18T15:58:29Z</time><name>PT14295</name></trkpt>
<trkpt lat="53.459504" lon="05.824732"><ele>16.5</ele><time>2021-02-18T15:58:30Z</time><name>PT14296</name></trkpt>
<trkpt lat="53.459505" lon="05.824715"><ele>16.4</ele><time>2021-02-18T15:58:31Z</time><name>PT14297</name></trkpt>
<trkpt lat="53.459506" lon="05.824694"><ele>16.4</ele><time>2021-02-18T15:58:32Z</time><name>PT14298</name></trkpt>
<trkpt lat="53.459506" lon="05.824674"><ele>16.4</ele><time>2021-02-18T15:58:33Z</time><name>PT14299</name></trkpt>
<trkpt lat="53.459506" lon="05.824654"><ele>16.4</ele><time>2021-02-18T15:58:34Z</time><name>PT14300</name></trkpt>
<trkpt lat="53.459506" lon="05.824635"><ele>16.4</ele><time>2021-02-18T15:58:35Z</time><name>PT14301</name></trkpt>
<trkpt lat="53.459505" lon="05.824617"><ele>16.2</ele><time>2021-02-18T15:58:36Z</time><name>PT14302</name></trkpt>
<trkpt lat="53.459503" lon="05.824598"><ele>16</ele><time>2021-02-18T15:58:37Z</time><name>PT14303</name></trkpt>
<trkpt lat="53.459502" lon="05.824581"><ele>16</ele><time>2021-02-18T15:58:38Z</time><name>PT14304</name></trkpt>
<trkpt lat="53.459500" lon="05.824564"><ele>16.1</ele><time>2021-02-18T15:58:39Z</time><name>PT14305</name></trkpt>
<trkpt lat="53.459498" lon="05.824547"><ele>16</ele><time>2021-02-18T15:58:40Z</time><name>PT14306</name></trkpt>
<trkpt lat="53.459496" lon="05.824530"><ele>16.2</ele><time>2021-02-18T15:58:41Z</time><name>PT14307</name></trkpt>
<trkpt lat="53.459495" lon="05.824514"><ele>16.4</ele><time>2021-02-18T15:58:42Z</time><name>PT14308</name></trkpt>
<trkpt lat="53.459493" lon="05.824499"><ele>16.4</ele><time>2021-02-18T15:58:43Z</time><name>PT14309</name></trkpt>
<trkpt lat="53.459491" lon="05.824483"><ele>16.4</ele><time>2021-02-18T15:58:44Z</time><name>PT14310</name></trkpt>
<trkpt lat="53.459490" lon="05.824466"><ele>16.6</ele><time>2021-02-18T15:58:45Z</time><name>PT14311</name></trkpt>
<trkpt lat="53.459490" lon="05.824449"><ele>16.7</ele><time>2021-02-18T15:58:46Z</time><name>PT14312</name></trkpt>
<trkpt lat="53.459491" lon="05.824435"><ele>16.9</ele><time>2021-02-18T15:58:47Z</time><name>PT14313</name></trkpt>
<trkpt lat="53.459492" lon="05.824420"><ele>16.7</ele><time>2021-02-18T15:58:48Z</time><name>PT14314</name></trkpt>
<trkpt lat="53.459492" lon="05.824402"><ele>16.9</ele><time>2021-02-18T15:58:49Z</time><name>PT14315</name></trkpt>
<trkpt lat="53.459491" lon="05.824383"><ele>16.6</ele><time>2021-02-18T15:58:50Z</time><name>PT14316</name></trkpt>
<trkpt lat="53.459491" lon="05.824364"><ele>16.4</ele><time>2021-02-18T15:58:51Z</time><name>PT14317</name></trkpt>
<trkpt lat="53.459492" lon="05.824347"><ele>16.3</ele><time>2021-02-18T15:58:52Z</time><name>PT14318</name></trkpt>
<trkpt lat="53.459493" lon="05.824330"><ele>16.4</ele><time>2021-02-18T15:58:53Z</time><name>PT14319</name></trkpt>
<trkpt lat="53.459496" lon="05.824312"><ele>16.4</ele><time>2021-02-18T15:58:54Z</time><name>PT14320</name></trkpt>
<trkpt lat="53.459500" lon="05.824294"><ele>16.7</ele><time>2021-02-18T15:58:55Z</time><name>PT14321</name></trkpt>
<trkpt lat="53.459502" lon="05.824275"><ele>16.8</ele><time>2021-02-18T15:58:56Z</time><name>PT14322</name></trkpt>
<trkpt lat="53.459504" lon="05.824255"><ele>16.8</ele><time>2021-02-18T15:58:57Z</time><name>PT14323</name></trkpt>
<trkpt lat="53.459504" lon="05.824234"><ele>16.8</ele><time>2021-02-18T15:58:58Z</time><name>PT14324</name></trkpt>
<trkpt lat="53.459504" lon="05.824214"><ele>16.8</ele><time>2021-02-18T15:58:59Z</time><name>PT14325</name></trkpt>
<trkpt lat="53.459507" lon="05.824196"><ele>16.5</ele><time>2021-02-18T15:59:00Z</time><name>PT14326</name></trkpt>
<trkpt lat="53.459507" lon="05.824178"><ele>16.4</ele><time>2021-02-18T15:59:01Z</time><name>PT14327</name></trkpt>
<trkpt lat="53.459507" lon="05.824160"><ele>16.2</ele><time>2021-02-18T15:59:02Z</time><name>PT14328</name></trkpt>
<trkpt lat="53.459507" lon="05.824141"><ele>16.1</ele><time>2021-02-18T15:59:03Z</time><name>PT14329</name></trkpt>
<trkpt lat="53.459508" lon="05.824123"><ele>16.2</ele><time>2021-02-18T15:59:04Z</time><name>PT14330</name></trkpt>
<trkpt lat="53.459509" lon="05.824104"><ele>16.2</ele><time>2021-02-18T15:59:05Z</time><name>PT14331</name></trkpt>
<trkpt lat="53.459509" lon="05.824085"><ele>16.4</ele><time>2021-02-18T15:59:06Z</time><name>PT14332</name></trkpt>
<trkpt lat="53.459511" lon="05.824067"><ele>16.4</ele><time>2021-02-18T15:59:07Z</time><name>PT14333</name></trkpt>
<trkpt lat="53.459512" lon="05.824048"><ele>16.4</ele><time>2021-02-18T15:59:08Z</time><name>PT14334</name></trkpt>
<trkpt lat="53.459513" lon="05.824026"><ele>16.3</ele><time>2021-02-18T15:59:09Z</time><name>PT14335</name></trkpt>
<trkpt lat="53.459513" lon="05.824006"><ele>16.1</ele><time>2021-02-18T15:59:10Z</time><name>PT14336</name></trkpt>
<trkpt lat="53.459513" lon="05.823987"><ele>16.2</ele><time>2021-02-18T15:59:11Z</time><name>PT14337</name></trkpt>
<trkpt lat="53.459514" lon="05.823969"><ele>16</ele><time>2021-02-18T15:59:12Z</time><name>PT14338</name></trkpt>
<trkpt lat="53.459514" lon="05.823949"><ele>16</ele><time>2021-02-18T15:59:13Z</time><name>PT14339</name></trkpt>
<trkpt lat="53.459514" lon="05.823929"><ele>15.9</ele><time>2021-02-18T15:59:14Z</time><name>PT14340</name></trkpt>
<trkpt lat="53.459512" lon="05.823910"><ele>15.7</ele><time>2021-02-18T15:59:15Z</time><name>PT14341</name></trkpt>
<trkpt lat="53.459511" lon="05.823891"><ele>15.9</ele><time>2021-02-18T15:59:16Z</time><name>PT14342</name></trkpt>
<trkpt lat="53.459509" lon="05.823871"><ele>15.9</ele><time>2021-02-18T15:59:17Z</time><name>PT14343</name></trkpt>
<trkpt lat="53.459506" lon="05.823855"><ele>15.8</ele><time>2021-02-18T15:59:18Z</time><name>PT14344</name></trkpt>
<trkpt lat="53.459504" lon="05.823839"><ele>15.9</ele><time>2021-02-18T15:59:19Z</time><name>PT14345</name></trkpt>
<trkpt lat="53.459504" lon="05.823823"><ele>15.8</ele><time>2021-02-18T15:59:20Z</time><name>PT14346</name></trkpt>
<trkpt lat="53.459504" lon="05.823806"><ele>15.7</ele><time>2021-02-18T15:59:21Z</time><name>PT14347</name></trkpt>
<trkpt lat="53.459501" lon="05.823788"><ele>15.5</ele><time>2021-02-18T15:59:22Z</time><name>PT14348</name></trkpt>
<trkpt lat="53.459496" lon="05.823772"><ele>15.5</ele><time>2021-02-18T15:59:23Z</time><name>PT14349</name></trkpt>
<trkpt lat="53.459489" lon="05.823759"><ele>15.6</ele><time>2021-02-18T15:59:24Z</time><name>PT14350</name></trkpt>
<trkpt lat="53.459484" lon="05.823746"><ele>15.8</ele><time>2021-02-18T15:59:25Z</time><name>PT14351</name></trkpt>
<trkpt lat="53.459480" lon="05.823731"><ele>15.8</ele><time>2021-02-18T15:59:26Z</time><name>PT14352</name></trkpt>
<trkpt lat="53.459476" lon="05.823715"><ele>15.9</ele><time>2021-02-18T15:59:27Z</time><name>PT14353</name></trkpt>
<trkpt lat="53.459472" lon="05.823698"><ele>16.1</ele><time>2021-02-18T15:59:28Z</time><name>PT14354</name></trkpt>
<trkpt lat="53.459469" lon="05.823681"><ele>16</ele><time>2021-02-18T15:59:29Z</time><name>PT14355</name></trkpt>
<trkpt lat="53.459465" lon="05.823663"><ele>16</ele><time>2021-02-18T15:59:30Z</time><name>PT14356</name></trkpt>
<trkpt lat="53.459460" lon="05.823646"><ele>16</ele><time>2021-02-18T15:59:31Z</time><name>PT14357</name></trkpt>
<trkpt lat="53.459455" lon="05.823630"><ele>15.8</ele><time>2021-02-18T15:59:32Z</time><name>PT14358</name></trkpt>
<trkpt lat="53.459451" lon="05.823613"><ele>15.7</ele><time>2021-02-18T15:59:33Z</time><name>PT14359</name></trkpt>
<trkpt lat="53.459445" lon="05.823597"><ele>15.7</ele><time>2021-02-18T15:59:34Z</time><name>PT14360</name></trkpt>
<trkpt lat="53.459438" lon="05.823582"><ele>15.7</ele><time>2021-02-18T15:59:35Z</time><name>PT14361</name></trkpt>
<trkpt lat="53.459433" lon="05.823567"><ele>15.9</ele><time>2021-02-18T15:59:36Z</time><name>PT14362</name></trkpt>
<trkpt lat="53.459429" lon="05.823551"><ele>16.1</ele><time>2021-02-18T15:59:37Z</time><name>PT14363</name></trkpt>
<trkpt lat="53.459427" lon="05.823535"><ele>16.2</ele><time>2021-02-18T15:59:38Z</time><name>PT14364</name></trkpt>
<trkpt lat="53.459423" lon="05.823518"><ele>16.2</ele><time>2021-02-18T15:59:39Z</time><name>PT14365</name></trkpt>
<trkpt lat="53.459419" lon="05.823503"><ele>16.2</ele><time>2021-02-18T15:59:40Z</time><name>PT14366</name></trkpt>
<trkpt lat="53.459415" lon="05.823487"><ele>16.4</ele><time>2021-02-18T15:59:41Z</time><name>PT14367</name></trkpt>
<trkpt lat="53.459410" lon="05.823469"><ele>16.5</ele><time>2021-02-18T15:59:42Z</time><name>PT14368</name></trkpt>
<trkpt lat="53.459406" lon="05.823452"><ele>16.6</ele><time>2021-02-18T15:59:43Z</time><name>PT14369</name></trkpt>
<trkpt lat="53.459401" lon="05.823437"><ele>16.7</ele><time>2021-02-18T15:59:44Z</time><name>PT14370</name></trkpt>
<trkpt lat="53.459396" lon="05.823422"><ele>16.7</ele><time>2021-02-18T15:59:45Z</time><name>PT14371</name></trkpt>
<trkpt lat="53.459392" lon="05.823408"><ele>16.4</ele><time>2021-02-18T15:59:46Z</time><name>PT14372</name></trkpt>
<trkpt lat="53.459387" lon="05.823393"><ele>16.3</ele><time>2021-02-18T15:59:47Z</time><name>PT14373</name></trkpt>
<trkpt lat="53.459382" lon="05.823375"><ele>16.2</ele><time>2021-02-18T15:59:48Z</time><name>PT14374</name></trkpt>
<trkpt lat="53.459377" lon="05.823358"><ele>16.3</ele><time>2021-02-18T15:59:49Z</time><name>PT14375</name></trkpt>
<trkpt lat="53.459372" lon="05.823341"><ele>16.2</ele><time>2021-02-18T15:59:50Z</time><name>PT14376</name></trkpt>
<trkpt lat="53.459367" lon="05.823329"><ele>16.4</ele><time>2021-02-18T15:59:51Z</time><name>PT14377</name></trkpt>
<trkpt lat="53.459360" lon="05.823317"><ele>16.4</ele><time>2021-02-18T15:59:52Z</time><name>PT14378</name></trkpt>
<trkpt lat="53.459354" lon="05.823303"><ele>16.5</ele><time>2021-02-18T15:59:53Z</time><name>PT14379</name></trkpt>
<trkpt lat="53.459347" lon="05.823287"><ele>16.4</ele><time>2021-02-18T15:59:54Z</time><name>PT14380</name></trkpt>
<trkpt lat="53.459342" lon="05.823272"><ele>16.3</ele><time>2021-02-18T15:59:55Z</time><name>PT14381</name></trkpt>
<trkpt lat="53.459340" lon="05.823257"><ele>16.3</ele><time>2021-02-18T15:59:56Z</time><name>PT14382</name></trkpt>
<trkpt lat="53.459337" lon="05.823240"><ele>16.3</ele><time>2021-02-18T15:59:57Z</time><name>PT14383</name></trkpt>
<trkpt lat="53.459334" lon="05.823221"><ele>16.4</ele><time>2021-02-18T15:59:58Z</time><name>PT14384</name></trkpt>
<trkpt lat="53.459329" lon="05.823203"><ele>16.3</ele><time>2021-02-18T15:59:59Z</time><name>PT14385</name></trkpt>
<trkpt lat="53.459324" lon="05.823187"><ele>16.4</ele><time>2021-02-18T16:00:00Z</time><name>PT14386</name></trkpt>
<trkpt lat="53.459318" lon="05.823172"><ele>16.3</ele><time>2021-02-18T16:00:01Z</time><name>PT14387</name></trkpt>
<trkpt lat="53.459312" lon="05.823157"><ele>16.1</ele><time>2021-02-18T16:00:02Z</time><name>PT14388</name></trkpt>
<trkpt lat="53.459305" lon="05.823143"><ele>16.3</ele><time>2021-02-18T16:00:03Z</time><name>PT14389</name></trkpt>
<trkpt lat="53.459298" lon="05.823128"><ele>16.2</ele><time>2021-02-18T16:00:04Z</time><name>PT14390</name></trkpt>
<trkpt lat="53.459294" lon="05.823112"><ele>16.2</ele><time>2021-02-18T16:00:05Z</time><name>PT14391</name></trkpt>
<trkpt lat="53.459291" lon="05.823094"><ele>16</ele><time>2021-02-18T16:00:06Z</time><name>PT14392</name></trkpt>
<trkpt lat="53.459287" lon="05.823076"><ele>16</ele><time>2021-02-18T16:00:07Z</time><name>PT14393</name></trkpt>
<trkpt lat="53.459281" lon="05.823059"><ele>15.9</ele><time>2021-02-18T16:00:08Z</time><name>PT14394</name></trkpt>
<trkpt lat="53.459276" lon="05.823044"><ele>15.9</ele><time>2021-02-18T16:00:09Z</time><name>PT14395</name></trkpt>
<trkpt lat="53.459271" lon="05.823029"><ele>16.2</ele><time>2021-02-18T16:00:10Z</time><name>PT14396</name></trkpt>
<trkpt lat="53.459266" lon="05.823014"><ele>16.5</ele><time>2021-02-18T16:00:11Z</time><name>PT14397</name></trkpt>
<trkpt lat="53.459261" lon="05.823000"><ele>16.5</ele><time>2021-02-18T16:00:12Z</time><name>PT14398</name></trkpt>
<trkpt lat="53.459256" lon="05.822985"><ele>16.5</ele><time>2021-02-18T16:00:13Z</time><name>PT14399</name></trkpt>
<trkpt lat="53.459252" lon="05.822967"><ele>16.6</ele><time>2021-02-18T16:00:14Z</time><name>PT14400</name></trkpt>
<trkpt lat="53.459248" lon="05.822948"><ele>16.5</ele><time>2021-02-18T16:00:15Z</time><name>PT14401</name></trkpt>
<trkpt lat="53.459244" lon="05.822929"><ele>16.6</ele><time>2021-02-18T16:00:16Z</time><name>PT14402</name></trkpt>
<trkpt lat="53.459241" lon="05.822910"><ele>16.6</ele><time>2021-02-18T16:00:17Z</time><name>PT14403</name></trkpt>
<trkpt lat="53.459236" lon="05.822893"><ele>16.6</ele><time>2021-02-18T16:00:18Z</time><name>PT14404</name></trkpt>
<trkpt lat="53.459230" lon="05.822876"><ele>16.6</ele><time>2021-02-18T16:00:19Z</time><name>PT14405</name></trkpt>
<trkpt lat="53.459226" lon="05.822861"><ele>16.4</ele><time>2021-02-18T16:00:20Z</time><name>PT14406</name></trkpt>
<trkpt lat="53.459223" lon="05.822844"><ele>16.3</ele><time>2021-02-18T16:00:21Z</time><name>PT14407</name></trkpt>
<trkpt lat="53.459223" lon="05.822827"><ele>16.4</ele><time>2021-02-18T16:00:22Z</time><name>PT14408</name></trkpt>
<trkpt lat="53.459223" lon="05.822809"><ele>16.3</ele><time>2021-02-18T16:00:23Z</time><name>PT14409</name></trkpt>
<trkpt lat="53.459218" lon="05.822789"><ele>16.4</ele><time>2021-02-18T16:00:24Z</time><name>PT14410</name></trkpt>
<trkpt lat="53.459212" lon="05.822772"><ele>16.4</ele><time>2021-02-18T16:00:25Z</time><name>PT14411</name></trkpt>
<trkpt lat="53.459207" lon="05.822752"><ele>16.4</ele><time>2021-02-18T16:00:26Z</time><name>PT14412</name></trkpt>
<trkpt lat="53.459203" lon="05.822736"><ele>16.1</ele><time>2021-02-18T16:00:27Z</time><name>PT14413</name></trkpt>
<trkpt lat="53.459199" lon="05.822719"><ele>15.9</ele><time>2021-02-18T16:00:28Z</time><name>PT14414</name></trkpt>
<trkpt lat="53.459195" lon="05.822704"><ele>15.7</ele><time>2021-02-18T16:00:29Z</time><name>PT14415</name></trkpt>
<trkpt lat="53.459190" lon="05.822688"><ele>15.8</ele><time>2021-02-18T16:00:30Z</time><name>PT14416</name></trkpt>
<trkpt lat="53.459186" lon="05.822671"><ele>15.8</ele><time>2021-02-18T16:00:31Z</time><name>PT14417</name></trkpt>
<trkpt lat="53.459180" lon="05.822654"><ele>15.8</ele><time>2021-02-18T16:00:32Z</time><name>PT14418</name></trkpt>
<trkpt lat="53.459176" lon="05.822640"><ele>15.9</ele><time>2021-02-18T16:00:33Z</time><name>PT14419</name></trkpt>
<trkpt lat="53.459172" lon="05.822625"><ele>15.9</ele><time>2021-02-18T16:00:34Z</time><name>PT14420</name></trkpt>
<trkpt lat="53.459167" lon="05.822610"><ele>15.7</ele><time>2021-02-18T16:00:35Z</time><name>PT14421</name></trkpt>
<trkpt lat="53.459161" lon="05.822597"><ele>15.6</ele><time>2021-02-18T16:00:36Z</time><name>PT14422</name></trkpt>
<trkpt lat="53.459157" lon="05.822584"><ele>15.4</ele><time>2021-02-18T16:00:37Z</time><name>PT14423</name></trkpt>
<trkpt lat="53.459151" lon="05.822568"><ele>15.4</ele><time>2021-02-18T16:00:38Z</time><name>PT14424</name></trkpt>
<trkpt lat="53.459146" lon="05.822550"><ele>15.4</ele><time>2021-02-18T16:00:39Z</time><name>PT14425</name></trkpt>
<trkpt lat="53.459140" lon="05.822534"><ele>15.4</ele><time>2021-02-18T16:00:40Z</time><name>PT14426</name></trkpt>
<trkpt lat="53.459135" lon="05.822524"><ele>15.7</ele><time>2021-02-18T16:00:41Z</time><name>PT14427</name></trkpt>
<trkpt lat="53.459128" lon="05.822511"><ele>15.8</ele><time>2021-02-18T16:00:42Z</time><name>PT14428</name></trkpt>
<trkpt lat="53.459121" lon="05.822496"><ele>15.9</ele><time>2021-02-18T16:00:43Z</time><name>PT14429</name></trkpt>
<trkpt lat="53.459116" lon="05.822481"><ele>15.9</ele><time>2021-02-18T16:00:44Z</time><name>PT14430</name></trkpt>
<trkpt lat="53.459113" lon="05.822466"><ele>16</ele><time>2021-02-18T16:00:45Z</time><name>PT14431</name></trkpt>
<trkpt lat="53.459108" lon="05.822450"><ele>15.9</ele><time>2021-02-18T16:00:46Z</time><name>PT14432</name></trkpt>
<trkpt lat="53.459103" lon="05.822436"><ele>16.1</ele><time>2021-02-18T16:00:47Z</time><name>PT14433</name></trkpt>
<trkpt lat="53.459097" lon="05.822419"><ele>16.4</ele><time>2021-02-18T16:00:48Z</time><name>PT14434</name></trkpt>
<trkpt lat="53.459092" lon="05.822402"><ele>16.4</ele><time>2021-02-18T16:00:49Z</time><name>PT14435</name></trkpt>
<trkpt lat="53.459087" lon="05.822387"><ele>16.4</ele><time>2021-02-18T16:00:50Z</time><name>PT14436</name></trkpt>
<trkpt lat="53.459080" lon="05.822374"><ele>16.4</ele><time>2021-02-18T16:00:51Z</time><name>PT14437</name></trkpt>
<trkpt lat="53.459073" lon="05.822358"><ele>16.3</ele><time>2021-02-18T16:00:52Z</time><name>PT14438</name></trkpt>
<trkpt lat="53.459066" lon="05.822342"><ele>16.4</ele><time>2021-02-18T16:00:53Z</time><name>PT14439</name></trkpt>
<trkpt lat="53.459062" lon="05.822325"><ele>16.3</ele><time>2021-02-18T16:00:54Z</time><name>PT14440</name></trkpt>
<trkpt lat="53.459058" lon="05.822308"><ele>16.2</ele><time>2021-02-18T16:00:55Z</time><name>PT14441</name></trkpt>
<trkpt lat="53.459057" lon="05.822292"><ele>16.3</ele><time>2021-02-18T16:00:56Z</time><name>PT14442</name></trkpt>
<trkpt lat="53.459054" lon="05.822275"><ele>16</ele><time>2021-02-18T16:00:57Z</time><name>PT14443</name></trkpt>
<trkpt lat="53.459051" lon="05.822258"><ele>16.3</ele><time>2021-02-18T16:00:58Z</time><name>PT14444</name></trkpt>
<trkpt lat="53.459049" lon="05.822242"><ele>16.3</ele><time>2021-02-18T16:00:59Z</time><name>PT14445</name></trkpt>
<trkpt lat="53.459047" lon="05.822227"><ele>16.5</ele><time>2021-02-18T16:01:00Z</time><name>PT14446</name></trkpt>
<trkpt lat="53.459047" lon="05.822214"><ele>16.6</ele><time>2021-02-18T16:01:01Z</time><name>PT14447</name></trkpt>
<trkpt lat="53.459046" lon="05.822198"><ele>16.5</ele><time>2021-02-18T16:01:02Z</time><name>PT14448</name></trkpt>
<trkpt lat="53.459044" lon="05.822181"><ele>16.4</ele><time>2021-02-18T16:01:03Z</time><name>PT14449</name></trkpt>
<trkpt lat="53.459043" lon="05.822166"><ele>16.4</ele><time>2021-02-18T16:01:04Z</time><name>PT14450</name></trkpt>
<trkpt lat="53.459041" lon="05.822152"><ele>16.4</ele><time>2021-02-18T16:01:05Z</time><name>PT14451</name></trkpt>
<trkpt lat="53.459039" lon="05.822140"><ele>16.4</ele><time>2021-02-18T16:01:06Z</time><name>PT14452</name></trkpt>
<trkpt lat="53.459039" lon="05.822126"><ele>16.6</ele><time>2021-02-18T16:01:07Z</time><name>PT14453</name></trkpt>
<trkpt lat="53.459039" lon="05.822114"><ele>16.6</ele><time>2021-02-18T16:01:08Z</time><name>PT14454</name></trkpt>
<trkpt lat="53.459037" lon="05.822103"><ele>16.7</ele><time>2021-02-18T16:01:09Z</time><name>PT14455</name></trkpt>
<trkpt lat="53.459035" lon="05.822092"><ele>16.8</ele><time>2021-02-18T16:01:10Z</time><name>PT14456</name></trkpt>
<trkpt lat="53.459035" lon="05.822082"><ele>17</ele><time>2021-02-18T16:01:11Z</time><name>PT14457</name></trkpt>
<trkpt lat="53.459037" lon="05.822073"><ele>17.4</ele><time>2021-02-18T16:01:12Z</time><name>PT14458</name></trkpt>
<trkpt lat="53.459037" lon="05.822064"><ele>17.4</ele><time>2021-02-18T16:01:13Z</time><name>PT14459</name></trkpt>
<trkpt lat="53.459037" lon="05.822055"><ele>17.4</ele><time>2021-02-18T16:01:14Z</time><name>PT14460</name></trkpt>
<trkpt lat="53.459035" lon="05.822048"><ele>17.2</ele><time>2021-02-18T16:01:15Z</time><name>PT14461</name></trkpt>
<trkpt lat="53.459035" lon="05.822045"><ele>17</ele><time>2021-02-18T16:01:16Z</time><name>PT14462</name></trkpt>
<trkpt lat="53.459035" lon="05.822044"><ele>17.1</ele><time>2021-02-18T16:01:17Z</time><name>PT14463</name></trkpt>
<trkpt lat="53.459036" lon="05.822045"><ele>17.4</ele><time>2021-02-18T16:01:18Z</time><name>PT14464</name></trkpt>
<trkpt lat="53.459035" lon="05.822042"><ele>0.7</ele><time>2021-02-18T16:02:11Z</time><name>PT14465</name></trkpt>
<trkpt lat="53.459035" lon="05.822041"><ele>0.8</ele><time>2021-02-18T16:02:12Z</time><name>PT14466</name></trkpt>
<trkpt lat="53.459036" lon="05.822041"><ele>1</ele><time>2021-02-18T16:02:13Z</time><name>PT14467</name></trkpt>
<trkpt lat="53.459036" lon="05.822036"><ele>3.1</ele><time>2021-02-18T16:02:46Z</time><name>PT14468</name></trkpt>
<trkpt lat="53.459035" lon="05.822037"><ele>3.1</ele><time>2021-02-18T16:02:47Z</time><name>PT14469</name></trkpt>
<trkpt lat="53.459034" lon="05.822018"><ele>3.5</ele><time>2021-02-18T16:03:24Z</time><name>PT14470</name></trkpt>
<trkpt lat="53.459031" lon="05.821993"><ele>3.4</ele><time>2021-02-18T16:03:25Z</time><name>PT14471</name></trkpt>
<trkpt lat="53.459028" lon="05.821980"><ele>3.3</ele><time>2021-02-18T16:03:26Z</time><name>PT14472</name></trkpt>
<trkpt lat="53.459024" lon="05.821969"><ele>3.3</ele><time>2021-02-18T16:03:27Z</time><name>PT14473</name></trkpt>
<trkpt lat="53.459018" lon="05.821952"><ele>3.1</ele><time>2021-02-18T16:03:28Z</time><name>PT14474</name></trkpt>
<trkpt lat="53.459014" lon="05.821942"><ele>2.9</ele><time>2021-02-18T16:03:29Z</time><name>PT14475</name></trkpt>
<trkpt lat="53.459012" lon="05.821936"><ele>2.9</ele><time>2021-02-18T16:03:30Z</time><name>PT14476</name></trkpt>
<trkpt lat="53.459012" lon="05.821934"><ele>3</ele><time>2021-02-18T16:03:31Z</time><name>PT14477</name></trkpt>
<trkpt lat="53.459013" lon="05.821932"><ele>3</ele><time>2021-02-18T16:03:32Z</time><name>PT14478</name></trkpt>
<trkpt lat="53.459015" lon="05.821931"><ele>3.2</ele><time>2021-02-18T16:03:33Z</time><name>PT14479</name></trkpt>
<trkpt lat="53.459013" lon="05.821921"><ele>3.3</ele><time>2021-02-18T16:03:34Z</time><name>PT14480</name></trkpt>
<trkpt lat="53.459008" lon="05.821911"><ele>3.2</ele><time>2021-02-18T16:03:35Z</time><name>PT14481</name></trkpt>
<trkpt lat="53.459004" lon="05.821900"><ele>2.9</ele><time>2021-02-18T16:03:36Z</time><name>PT14482</name></trkpt>
<trkpt lat="53.459000" lon="05.821889"><ele>2.9</ele><time>2021-02-18T16:03:37Z</time><name>PT14483</name></trkpt>
<trkpt lat="53.458998" lon="05.821875"><ele>2.9</ele><time>2021-02-18T16:03:38Z</time><name>PT14484</name></trkpt>
<trkpt lat="53.458993" lon="05.821863"><ele>2.8</ele><time>2021-02-18T16:03:39Z</time><name>PT14485</name></trkpt>
<trkpt lat="53.458990" lon="05.821855"><ele>3</ele><time>2021-02-18T16:03:40Z</time><name>PT14486</name></trkpt>
<trkpt lat="53.458990" lon="05.821851"><ele>3.1</ele><time>2021-02-18T16:03:41Z</time><name>PT14487</name></trkpt>
<trkpt lat="53.458987" lon="05.821851"><ele>3.2</ele><time>2021-02-18T16:03:42Z</time><name>PT14488</name></trkpt>
<trkpt lat="53.458988" lon="05.821859"><ele>3.3</ele><time>2021-02-18T16:03:43Z</time><name>PT14489</name></trkpt>
<trkpt lat="53.458987" lon="05.821864"><ele>3.2</ele><time>2021-02-18T16:03:44Z</time><name>PT14490</name></trkpt>
<trkpt lat="53.458992" lon="05.821865"><ele>3.2</ele><time>2021-02-18T16:03:45Z</time><name>PT14491</name></trkpt>
<trkpt lat="53.458994" lon="05.821860"><ele>3.3</ele><time>2021-02-18T16:03:46Z</time><name>PT14492</name></trkpt>
<trkpt lat="53.458994" lon="05.821857"><ele>3.3</ele><time>2021-02-18T16:03:47Z</time><name>PT14493</name></trkpt>
<trkpt lat="53.458993" lon="05.821854"><ele>3.3</ele><time>2021-02-18T16:03:48Z</time><name>PT14494</name></trkpt>
<trkpt lat="53.458993" lon="05.821852"><ele>3.4</ele><time>2021-02-18T16:03:49Z</time><name>PT14495</name></trkpt>
<trkpt lat="53.458992" lon="05.821848"><ele>3.2</ele><time>2021-02-18T16:03:58Z</time><name>PT14496</name></trkpt>
<trkpt lat="53.458988" lon="05.821846"><ele>2.9</ele><time>2021-02-18T16:03:59Z</time><name>PT14497</name></trkpt>
<trkpt lat="53.458985" lon="05.821846"><ele>3.2</ele><time>2021-02-18T16:04:00Z</time><name>PT14498</name></trkpt>
<trkpt lat="53.458982" lon="05.821844"><ele>3.3</ele><time>2021-02-18T16:04:01Z</time><name>PT14499</name></trkpt>
<trkpt lat="53.458979" lon="05.821843"><ele>3.7</ele><time>2021-02-18T16:04:04Z</time><name>PT14500</name></trkpt>
<trkpt lat="53.458970" lon="05.821838"><ele>3.4</ele><time>2021-02-18T16:04:05Z</time><name>PT14501</name></trkpt>
<trkpt lat="53.458958" lon="05.821831"><ele>3.4</ele><time>2021-02-18T16:04:06Z</time><name>PT14502</name></trkpt>
<trkpt lat="53.458948" lon="05.821825"><ele>3.2</ele><time>2021-02-18T16:04:07Z</time><name>PT14503</name></trkpt>
<trkpt lat="53.458938" lon="05.821820"><ele>3.1</ele><time>2021-02-18T16:04:08Z</time><name>PT14504</name></trkpt>
<trkpt lat="53.458927" lon="05.821813"><ele>2.9</ele><time>2021-02-18T16:04:09Z</time><name>PT14505</name></trkpt>
<trkpt lat="53.458917" lon="05.821806"><ele>2.7</ele><time>2021-02-18T16:04:10Z</time><name>PT14506</name></trkpt>
<trkpt lat="53.458908" lon="05.821797"><ele>2.6</ele><time>2021-02-18T16:04:11Z</time><name>PT14507</name></trkpt>
<trkpt lat="53.458897" lon="05.821794"><ele>2.6</ele><time>2021-02-18T16:04:12Z</time><name>PT14508</name></trkpt>
<trkpt lat="53.458886" lon="05.821794"><ele>2.9</ele><time>2021-02-18T16:04:13Z</time><name>PT14509</name></trkpt>
<trkpt lat="53.458876" lon="05.821792"><ele>3.2</ele><time>2021-02-18T16:04:14Z</time><name>PT14510</name></trkpt>
<trkpt lat="53.458865" lon="05.821790"><ele>3.7</ele><time>2021-02-18T16:04:15Z</time><name>PT14511</name></trkpt>
<trkpt lat="53.458855" lon="05.821785"><ele>3.9</ele><time>2021-02-18T16:04:16Z</time><name>PT14512</name></trkpt>
<trkpt lat="53.458845" lon="05.821778"><ele>4.3</ele><time>2021-02-18T16:04:17Z</time><name>PT14513</name></trkpt>
<trkpt lat="53.458835" lon="05.821773"><ele>4.2</ele><time>2021-02-18T16:04:18Z</time><name>PT14514</name></trkpt>
<trkpt lat="53.458823" lon="05.821768"><ele>3.8</ele><time>2021-02-18T16:04:19Z</time><name>PT14515</name></trkpt>
<trkpt lat="53.458812" lon="05.821766"><ele>3.7</ele><time>2021-02-18T16:04:20Z</time><name>PT14516</name></trkpt>
<trkpt lat="53.458801" lon="05.821765"><ele>3.2</ele><time>2021-02-18T16:04:21Z</time><name>PT14517</name></trkpt>
<trkpt lat="53.458791" lon="05.821763"><ele>2.8</ele><time>2021-02-18T16:04:22Z</time><name>PT14518</name></trkpt>
<trkpt lat="53.458781" lon="05.821759"><ele>2.8</ele><time>2021-02-18T16:04:23Z</time><name>PT14519</name></trkpt>
<trkpt lat="53.458770" lon="05.821755"><ele>2.8</ele><time>2021-02-18T16:04:24Z</time><name>PT14520</name></trkpt>
<trkpt lat="53.458758" lon="05.821751"><ele>2.8</ele><time>2021-02-18T16:04:25Z</time><name>PT14521</name></trkpt>
<trkpt lat="53.458747" lon="05.821744"><ele>2.9</ele><time>2021-02-18T16:04:26Z</time><name>PT14522</name></trkpt>
<trkpt lat="53.458738" lon="05.821736"><ele>3.1</ele><time>2021-02-18T16:04:27Z</time><name>PT14523</name></trkpt>
<trkpt lat="53.458728" lon="05.821729"><ele>3.3</ele><time>2021-02-18T16:04:28Z</time><name>PT14524</name></trkpt>
<trkpt lat="53.458720" lon="05.821723"><ele>3.4</ele><time>2021-02-18T16:04:29Z</time><name>PT14525</name></trkpt>
<trkpt lat="53.458711" lon="05.821718"><ele>3.5</ele><time>2021-02-18T16:04:30Z</time><name>PT14526</name></trkpt>
<trkpt lat="53.458702" lon="05.821711"><ele>3.4</ele><time>2021-02-18T16:04:31Z</time><name>PT14527</name></trkpt>
<trkpt lat="53.458694" lon="05.821707"><ele>3.3</ele><time>2021-02-18T16:04:32Z</time><name>PT14528</name></trkpt>
<trkpt lat="53.458685" lon="05.821701"><ele>3.3</ele><time>2021-02-18T16:04:33Z</time><name>PT14529</name></trkpt>
<trkpt lat="53.458674" lon="05.821686"><ele>3.3</ele><time>2021-02-18T16:04:34Z</time><name>PT14530</name></trkpt>
<trkpt lat="53.458665" lon="05.821682"><ele>3.4</ele><time>2021-02-18T16:04:35Z</time><name>PT14531</name></trkpt>
<trkpt lat="53.458660" lon="05.821681"><ele>3.6</ele><time>2021-02-18T16:04:36Z</time><name>PT14532</name></trkpt>
<trkpt lat="53.458657" lon="05.821678"><ele>3.4</ele><time>2021-02-18T16:04:37Z</time><name>PT14533</name></trkpt>
<trkpt lat="53.458655" lon="05.821678"><ele>3.6</ele><time>2021-02-18T16:04:38Z</time><name>PT14534</name></trkpt>
<trkpt lat="53.458654" lon="05.821679"><ele>3.6</ele><time>2021-02-18T16:04:39Z</time><name>PT14535</name></trkpt>
<trkpt lat="53.458649" lon="05.821678"><ele>3.5</ele><time>2021-02-18T16:04:40Z</time><name>PT14536</name></trkpt>
<trkpt lat="53.458642" lon="05.821672"><ele>3.7</ele><time>2021-02-18T16:04:41Z</time><name>PT14537</name></trkpt>
<trkpt lat="53.458636" lon="05.821669"><ele>3.7</ele><time>2021-02-18T16:04:42Z</time><name>PT14538</name></trkpt>
<trkpt lat="53.458629" lon="05.821669"><ele>3.5</ele><time>2021-02-18T16:04:43Z</time><name>PT14539</name></trkpt>
<trkpt lat="53.458623" lon="05.821664"><ele>3.5</ele><time>2021-02-18T16:04:44Z</time><name>PT14540</name></trkpt>
<trkpt lat="53.458618" lon="05.821656"><ele>3.3</ele><time>2021-02-18T16:04:45Z</time><name>PT14541</name></trkpt>
<trkpt lat="53.458613" lon="05.821650"><ele>3.3</ele><time>2021-02-18T16:04:46Z</time><name>PT14542</name></trkpt>
<trkpt lat="53.458607" lon="05.821643"><ele>3.3</ele><time>2021-02-18T16:04:47Z</time><name>PT14543</name></trkpt>
<trkpt lat="53.458603" lon="05.821634"><ele>3.3</ele><time>2021-02-18T16:04:48Z</time><name>PT14544</name></trkpt>
<trkpt lat="53.458596" lon="05.821629"><ele>3.4</ele><time>2021-02-18T16:04:49Z</time><name>PT14545</name></trkpt>
<trkpt lat="53.458588" lon="05.821619"><ele>3.5</ele><time>2021-02-18T16:04:50Z</time><name>PT14546</name></trkpt>
<trkpt lat="53.458581" lon="05.821611"><ele>3.4</ele><time>2021-02-18T16:04:51Z</time><name>PT14547</name></trkpt>
<trkpt lat="53.458575" lon="05.821600"><ele>3.3</ele><time>2021-02-18T16:04:52Z</time><name>PT14548</name></trkpt>
<trkpt lat="53.458571" lon="05.821590"><ele>3.4</ele><time>2021-02-18T16:04:53Z</time><name>PT14549</name></trkpt>
<trkpt lat="53.458566" lon="05.821580"><ele>3.3</ele><time>2021-02-18T16:04:54Z</time><name>PT14550</name></trkpt>
<trkpt lat="53.458560" lon="05.821573"><ele>3.1</ele><time>2021-02-18T16:04:55Z</time><name>PT14551</name></trkpt>
<trkpt lat="53.458555" lon="05.821563"><ele>3.1</ele><time>2021-02-18T16:04:56Z</time><name>PT14552</name></trkpt>
<trkpt lat="53.458553" lon="05.821557"><ele>3.1</ele><time>2021-02-18T16:04:57Z</time><name>PT14553</name></trkpt>
<trkpt lat="53.458552" lon="05.821555"><ele>3.2</ele><time>2021-02-18T16:04:58Z</time><name>PT14554</name></trkpt>
<trkpt lat="53.458552" lon="05.821552"><ele>3.2</ele><time>2021-02-18T16:04:59Z</time><name>PT14555</name></trkpt>
<trkpt lat="53.458548" lon="05.821545"><ele>3.2</ele><time>2021-02-18T16:05:00Z</time><name>PT14556</name></trkpt>
<trkpt lat="53.458543" lon="05.821538"><ele>3.3</ele><time>2021-02-18T16:05:01Z</time><name>PT14557</name></trkpt>
<trkpt lat="53.458542" lon="05.821530"><ele>3.3</ele><time>2021-02-18T16:05:02Z</time><name>PT14558</name></trkpt>
<trkpt lat="53.458541" lon="05.821526"><ele>3.2</ele><time>2021-02-18T16:05:03Z</time><name>PT14559</name></trkpt>
<trkpt lat="53.458541" lon="05.821527"><ele>3.3</ele><time>2021-02-18T16:05:04Z</time><name>PT14560</name></trkpt>
<trkpt lat="53.458542" lon="05.821526"><ele>3.4</ele><time>2021-02-18T16:05:05Z</time><name>PT14561</name></trkpt>
<trkpt lat="53.458541" lon="05.821524"><ele>3.3</ele><time>2021-02-18T16:05:07Z</time><name>PT14562</name></trkpt>
<trkpt lat="53.458539" lon="05.821514"><ele>3.4</ele><time>2021-02-18T16:05:08Z</time><name>PT14563</name></trkpt>
<trkpt lat="53.458539" lon="05.821500"><ele>3.4</ele><time>2021-02-18T16:05:09Z</time><name>PT14564</name></trkpt>
<trkpt lat="53.458539" lon="05.821490"><ele>3.3</ele><time>2021-02-18T16:05:10Z</time><name>PT14565</name></trkpt>
<trkpt lat="53.458537" lon="05.821480"><ele>3.2</ele><time>2021-02-18T16:05:11Z</time><name>PT14566</name></trkpt>
<trkpt lat="53.458534" lon="05.821468"><ele>3.4</ele><time>2021-02-18T16:05:12Z</time><name>PT14567</name></trkpt>
<trkpt lat="53.458534" lon="05.821455"><ele>3.5</ele><time>2021-02-18T16:05:13Z</time><name>PT14568</name></trkpt>
<trkpt lat="53.458532" lon="05.821446"><ele>3.4</ele><time>2021-02-18T16:05:14Z</time><name>PT14569</name></trkpt>
<trkpt lat="53.458527" lon="05.821434"><ele>3.3</ele><time>2021-02-18T16:05:15Z</time><name>PT14570</name></trkpt>
<trkpt lat="53.458525" lon="05.821427"><ele>3.3</ele><time>2021-02-18T16:05:16Z</time><name>PT14571</name></trkpt>
<trkpt lat="53.458522" lon="05.821421"><ele>3.2</ele><time>2021-02-18T16:05:17Z</time><name>PT14572</name></trkpt>
<trkpt lat="53.458522" lon="05.821420"><ele>3.1</ele><time>2021-02-18T16:05:18Z</time><name>PT14573</name></trkpt>
<trkpt lat="53.458522" lon="05.821424"><ele>3.3</ele><time>2021-02-18T16:05:19Z</time><name>PT14574</name></trkpt>
<trkpt lat="53.458523" lon="05.821422"><ele>3.2</ele><time>2021-02-18T16:05:20Z</time><name>PT14575</name></trkpt>
<trkpt lat="53.458523" lon="05.821415"><ele>3.3</ele><time>2021-02-18T16:05:21Z</time><name>PT14576</name></trkpt>
<trkpt lat="53.458523" lon="05.821405"><ele>3.3</ele><time>2021-02-18T16:05:22Z</time><name>PT14577</name></trkpt>
<trkpt lat="53.458523" lon="05.821396"><ele>3.3</ele><time>2021-02-18T16:05:23Z</time><name>PT14578</name></trkpt>
<trkpt lat="53.458524" lon="05.821386"><ele>3.1</ele><time>2021-02-18T16:05:24Z</time><name>PT14579</name></trkpt>
<trkpt lat="53.458523" lon="05.821373"><ele>3</ele><time>2021-02-18T16:05:25Z</time><name>PT14580</name></trkpt>
<trkpt lat="53.458521" lon="05.821365"><ele>2.8</ele><time>2021-02-18T16:05:26Z</time><name>PT14581</name></trkpt>
<trkpt lat="53.458518" lon="05.821357"><ele>2.8</ele><time>2021-02-18T16:05:27Z</time><name>PT14582</name></trkpt>
<trkpt lat="53.458517" lon="05.821346"><ele>2.8</ele><time>2021-02-18T16:05:28Z</time><name>PT14583</name></trkpt>
<trkpt lat="53.458518" lon="05.821334"><ele>2.8</ele><time>2021-02-18T16:05:29Z</time><name>PT14584</name></trkpt>
<trkpt lat="53.458524" lon="05.821317"><ele>2.7</ele><time>2021-02-18T16:05:30Z</time><name>PT14585</name></trkpt>
<trkpt lat="53.458527" lon="05.821310"><ele>2.8</ele><time>2021-02-18T16:05:31Z</time><name>PT14586</name></trkpt>
<trkpt lat="53.458530" lon="05.821296"><ele>2.7</ele><time>2021-02-18T16:05:32Z</time><name>PT14587</name></trkpt>
<trkpt lat="53.458530" lon="05.821286"><ele>2.8</ele><time>2021-02-18T16:05:33Z</time><name>PT14588</name></trkpt>
<trkpt lat="53.458534" lon="05.821278"><ele>2.8</ele><time>2021-02-18T16:05:34Z</time><name>PT14589</name></trkpt>
<trkpt lat="53.458537" lon="05.821268"><ele>3.1</ele><time>2021-02-18T16:05:35Z</time><name>PT14590</name></trkpt>
<trkpt lat="53.458538" lon="05.821255"><ele>3.2</ele><time>2021-02-18T16:05:36Z</time><name>PT14591</name></trkpt>
<trkpt lat="53.458536" lon="05.821243"><ele>3.3</ele><time>2021-02-18T16:05:37Z</time><name>PT14592</name></trkpt>
<trkpt lat="53.458536" lon="05.821233"><ele>3.3</ele><time>2021-02-18T16:05:38Z</time><name>PT14593</name></trkpt>
<trkpt lat="53.458537" lon="05.821218"><ele>3.1</ele><time>2021-02-18T16:05:39Z</time><name>PT14594</name></trkpt>
<trkpt lat="53.458538" lon="05.821202"><ele>3</ele><time>2021-02-18T16:05:40Z</time><name>PT14595</name></trkpt>
<trkpt lat="53.458538" lon="05.821185"><ele>2.9</ele><time>2021-02-18T16:05:41Z</time><name>PT14596</name></trkpt>
<trkpt lat="53.458540" lon="05.821172"><ele>2.8</ele><time>2021-02-18T16:05:42Z</time><name>PT14597</name></trkpt>
<trkpt lat="53.458542" lon="05.821154"><ele>2.8</ele><time>2021-02-18T16:05:43Z</time><name>PT14598</name></trkpt>
<trkpt lat="53.458540" lon="05.821138"><ele>2.8</ele><time>2021-02-18T16:05:44Z</time><name>PT14599</name></trkpt>
<trkpt lat="53.458536" lon="05.821124"><ele>2.8</ele><time>2021-02-18T16:05:45Z</time><name>PT14600</name></trkpt>
<trkpt lat="53.458529" lon="05.821101"><ele>2.8</ele><time>2021-02-18T16:05:46Z</time><name>PT14601</name></trkpt>
<trkpt lat="53.458528" lon="05.821090"><ele>2.7</ele><time>2021-02-18T16:05:47Z</time><name>PT14602</name></trkpt>
<trkpt lat="53.458529" lon="05.821083"><ele>2.8</ele><time>2021-02-18T16:05:48Z</time><name>PT14603</name></trkpt>
<trkpt lat="53.458528" lon="05.821068"><ele>2.8</ele><time>2021-02-18T16:05:49Z</time><name>PT14604</name></trkpt>
<trkpt lat="53.458531" lon="05.821053"><ele>2.8</ele><time>2021-02-18T16:05:50Z</time><name>PT14605</name></trkpt>
<trkpt lat="53.458532" lon="05.821040"><ele>2.9</ele><time>2021-02-18T16:05:51Z</time><name>PT14606</name></trkpt>
<trkpt lat="53.458531" lon="05.821024"><ele>2.9</ele><time>2021-02-18T16:05:52Z</time><name>PT14607</name></trkpt>
<trkpt lat="53.458527" lon="05.821008"><ele>2.9</ele><time>2021-02-18T16:05:53Z</time><name>PT14608</name></trkpt>
<trkpt lat="53.458525" lon="05.820993"><ele>3</ele><time>2021-02-18T16:05:54Z</time><name>PT14609</name></trkpt>
<trkpt lat="53.458523" lon="05.820978"><ele>2.8</ele><time>2021-02-18T16:05:55Z</time><name>PT14610</name></trkpt>
<trkpt lat="53.458519" lon="05.820956"><ele>2.8</ele><time>2021-02-18T16:05:56Z</time><name>PT14611</name></trkpt>
<trkpt lat="53.458517" lon="05.820938"><ele>2.8</ele><time>2021-02-18T16:05:57Z</time><name>PT14612</name></trkpt>
<trkpt lat="53.458514" lon="05.820923"><ele>2.8</ele><time>2021-02-18T16:05:58Z</time><name>PT14613</name></trkpt>
<trkpt lat="53.458516" lon="05.820906"><ele>2.8</ele><time>2021-02-18T16:05:59Z</time><name>PT14614</name></trkpt>
<trkpt lat="53.458516" lon="05.820896"><ele>3</ele><time>2021-02-18T16:06:00Z</time><name>PT14615</name></trkpt>
<trkpt lat="53.458516" lon="05.820887"><ele>2.9</ele><time>2021-02-18T16:06:01Z</time><name>PT14616</name></trkpt>
<trkpt lat="53.458518" lon="05.820872"><ele>2.9</ele><time>2021-02-18T16:06:02Z</time><name>PT14617</name></trkpt>
<trkpt lat="53.458521" lon="05.820861"><ele>2.8</ele><time>2021-02-18T16:06:03Z</time><name>PT14618</name></trkpt>
<trkpt lat="53.458522" lon="05.820848"><ele>2.9</ele><time>2021-02-18T16:06:04Z</time><name>PT14619</name></trkpt>
<trkpt lat="53.458515" lon="05.820826"><ele>2.8</ele><time>2021-02-18T16:06:05Z</time><name>PT14620</name></trkpt>
<trkpt lat="53.458510" lon="05.820802"><ele>2.9</ele><time>2021-02-18T16:06:06Z</time><name>PT14621</name></trkpt>
<trkpt lat="53.458509" lon="05.820782"><ele>2.8</ele><time>2021-02-18T16:06:07Z</time><name>PT14622</name></trkpt>
<trkpt lat="53.458507" lon="05.820762"><ele>3</ele><time>2021-02-18T16:06:08Z</time><name>PT14623</name></trkpt>
<trkpt lat="53.458505" lon="05.820746"><ele>3</ele><time>2021-02-18T16:06:09Z</time><name>PT14624</name></trkpt>
<trkpt lat="53.458504" lon="05.820723"><ele>3</ele><time>2021-02-18T16:06:10Z</time><name>PT14625</name></trkpt>
<trkpt lat="53.458507" lon="05.820705"><ele>3</ele><time>2021-02-18T16:06:11Z</time><name>PT14626</name></trkpt>
<trkpt lat="53.458506" lon="05.820688"><ele>3.1</ele><time>2021-02-18T16:06:12Z</time><name>PT14627</name></trkpt>
<trkpt lat="53.458504" lon="05.820672"><ele>3</ele><time>2021-02-18T16:06:13Z</time><name>PT14628</name></trkpt>
<trkpt lat="53.458503" lon="05.820650"><ele>3</ele><time>2021-02-18T16:06:14Z</time><name>PT14629</name></trkpt>
<trkpt lat="53.458499" lon="05.820633"><ele>2.9</ele><time>2021-02-18T16:06:15Z</time><name>PT14630</name></trkpt>
<trkpt lat="53.458497" lon="05.820623"><ele>3</ele><time>2021-02-18T16:06:16Z</time><name>PT14631</name></trkpt>
<trkpt lat="53.458499" lon="05.820618"><ele>3</ele><time>2021-02-18T16:06:17Z</time><name>PT14632</name></trkpt>
<trkpt lat="53.458509" lon="05.820604"><ele>3.2</ele><time>2021-02-18T16:06:18Z</time><name>PT14633</name></trkpt>
<trkpt lat="53.458508" lon="05.820582"><ele>3.3</ele><time>2021-02-18T16:06:19Z</time><name>PT14634</name></trkpt>
<trkpt lat="53.458508" lon="05.820571"><ele>3.4</ele><time>2021-02-18T16:06:20Z</time><name>PT14635</name></trkpt>
<trkpt lat="53.458507" lon="05.820555"><ele>3.3</ele><time>2021-02-18T16:06:21Z</time><name>PT14636</name></trkpt>
<trkpt lat="53.458503" lon="05.820538"><ele>3.3</ele><time>2021-02-18T16:06:22Z</time><name>PT14637</name></trkpt>
<trkpt lat="53.458502" lon="05.820529"><ele>3.3</ele><time>2021-02-18T16:06:23Z</time><name>PT14638</name></trkpt>
<trkpt lat="53.458500" lon="05.820510"><ele>3.3</ele><time>2021-02-18T16:06:24Z</time><name>PT14639</name></trkpt>
<trkpt lat="53.458499" lon="05.820489"><ele>3.5</ele><time>2021-02-18T16:06:25Z</time><name>PT14640</name></trkpt>
<trkpt lat="53.458498" lon="05.820472"><ele>3.5</ele><time>2021-02-18T16:06:26Z</time><name>PT14641</name></trkpt>
<trkpt lat="53.458500" lon="05.820459"><ele>3.4</ele><time>2021-02-18T16:06:27Z</time><name>PT14642</name></trkpt>
<trkpt lat="53.458496" lon="05.820439"><ele>3.3</ele><time>2021-02-18T16:06:28Z</time><name>PT14643</name></trkpt>
<trkpt lat="53.458493" lon="05.820417"><ele>3.2</ele><time>2021-02-18T16:06:29Z</time><name>PT14644</name></trkpt>
<trkpt lat="53.458493" lon="05.820398"><ele>3</ele><time>2021-02-18T16:06:30Z</time><name>PT14645</name></trkpt>
<trkpt lat="53.458491" lon="05.820377"><ele>2.8</ele><time>2021-02-18T16:06:31Z</time><name>PT14646</name></trkpt>
<trkpt lat="53.458492" lon="05.820358"><ele>2.8</ele><time>2021-02-18T16:06:32Z</time><name>PT14647</name></trkpt>
<trkpt lat="53.458493" lon="05.820344"><ele>2.8</ele><time>2021-02-18T16:06:33Z</time><name>PT14648</name></trkpt>
<trkpt lat="53.458493" lon="05.820328"><ele>3</ele><time>2021-02-18T16:06:34Z</time><name>PT14649</name></trkpt>
<trkpt lat="53.458494" lon="05.820308"><ele>3</ele><time>2021-02-18T16:06:35Z</time><name>PT14650</name></trkpt>
<trkpt lat="53.458497" lon="05.820273"><ele>2.9</ele><time>2021-02-18T16:06:36Z</time><name>PT14651</name></trkpt>
<trkpt lat="53.458503" lon="05.820251"><ele>2.9</ele><time>2021-02-18T16:06:37Z</time><name>PT14652</name></trkpt>
<trkpt lat="53.458504" lon="05.820223"><ele>3.1</ele><time>2021-02-18T16:06:38Z</time><name>PT14653</name></trkpt>
<trkpt lat="53.458505" lon="05.820208"><ele>3</ele><time>2021-02-18T16:06:39Z</time><name>PT14654</name></trkpt>
<trkpt lat="53.458505" lon="05.820189"><ele>2.8</ele><time>2021-02-18T16:06:40Z</time><name>PT14655</name></trkpt>
<trkpt lat="53.458506" lon="05.820171"><ele>2.9</ele><time>2021-02-18T16:06:41Z</time><name>PT14656</name></trkpt>
<trkpt lat="53.458506" lon="05.820156"><ele>2.9</ele><time>2021-02-18T16:06:42Z</time><name>PT14657</name></trkpt>
<trkpt lat="53.458509" lon="05.820149"><ele>2.9</ele><time>2021-02-18T16:06:43Z</time><name>PT14658</name></trkpt>
<trkpt lat="53.458508" lon="05.820130"><ele>2.9</ele><time>2021-02-18T16:06:44Z</time><name>PT14659</name></trkpt>
<trkpt lat="53.458513" lon="05.820120"><ele>3</ele><time>2021-02-18T16:06:45Z</time><name>PT14660</name></trkpt>
<trkpt lat="53.458513" lon="05.820112"><ele>3</ele><time>2021-02-18T16:06:46Z</time><name>PT14661</name></trkpt>
<trkpt lat="53.458510" lon="05.820093"><ele>3</ele><time>2021-02-18T16:06:47Z</time><name>PT14662</name></trkpt>
<trkpt lat="53.458508" lon="05.820076"><ele>3.2</ele><time>2021-02-18T16:06:48Z</time><name>PT14663</name></trkpt>
<trkpt lat="53.458508" lon="05.820058"><ele>3.4</ele><time>2021-02-18T16:06:49Z</time><name>PT14664</name></trkpt>
<trkpt lat="53.458506" lon="05.820043"><ele>3.3</ele><time>2021-02-18T16:06:50Z</time><name>PT14665</name></trkpt>
<trkpt lat="53.458506" lon="05.820030"><ele>3.6</ele><time>2021-02-18T16:06:51Z</time><name>PT14666</name></trkpt>
<trkpt lat="53.458504" lon="05.820017"><ele>3.8</ele><time>2021-02-18T16:06:52Z</time><name>PT14667</name></trkpt>
<trkpt lat="53.458505" lon="05.820008"><ele>3.8</ele><time>2021-02-18T16:06:53Z</time><name>PT14668</name></trkpt>
<trkpt lat="53.458506" lon="05.820000"><ele>4</ele><time>2021-02-18T16:06:54Z</time><name>PT14669</name></trkpt>
<trkpt lat="53.458507" lon="05.819991"><ele>4.3</ele><time>2021-02-18T16:06:55Z</time><name>PT14670</name></trkpt>
<trkpt lat="53.458508" lon="05.819977"><ele>4.3</ele><time>2021-02-18T16:06:56Z</time><name>PT14671</name></trkpt>
<trkpt lat="53.458510" lon="05.819959"><ele>4.5</ele><time>2021-02-18T16:06:57Z</time><name>PT14672</name></trkpt>
<trkpt lat="53.458512" lon="05.819949"><ele>4.5</ele><time>2021-02-18T16:06:58Z</time><name>PT14673</name></trkpt>
<trkpt lat="53.458513" lon="05.819938"><ele>4.6</ele><time>2021-02-18T16:06:59Z</time><name>PT14674</name></trkpt>
<trkpt lat="53.458516" lon="05.819932"><ele>4.8</ele><time>2021-02-18T16:07:00Z</time><name>PT14675</name></trkpt>
<trkpt lat="53.458517" lon="05.819925"><ele>5.2</ele><time>2021-02-18T16:07:01Z</time><name>PT14676</name></trkpt>
<trkpt lat="53.458518" lon="05.819902"><ele>5.2</ele><time>2021-02-18T16:07:02Z</time><name>PT14677</name></trkpt>
<trkpt lat="53.458518" lon="05.819881"><ele>5.4</ele><time>2021-02-18T16:07:03Z</time><name>PT14678</name></trkpt>
<trkpt lat="53.458518" lon="05.819863"><ele>5.5</ele><time>2021-02-18T16:07:04Z</time><name>PT14679</name></trkpt>
<trkpt lat="53.458521" lon="05.819837"><ele>5.5</ele><time>2021-02-18T16:07:05Z</time><name>PT14680</name></trkpt>
<trkpt lat="53.458527" lon="05.819815"><ele>5.7</ele><time>2021-02-18T16:07:06Z</time><name>PT14681</name></trkpt>
<trkpt lat="53.458531" lon="05.819798"><ele>5.9</ele><time>2021-02-18T16:07:07Z</time><name>PT14682</name></trkpt>
<trkpt lat="53.458539" lon="05.819775"><ele>6.1</ele><time>2021-02-18T16:07:08Z</time><name>PT14683</name></trkpt>
<trkpt lat="53.458542" lon="05.819761"><ele>6.2</ele><time>2021-02-18T16:07:09Z</time><name>PT14684</name></trkpt>
<trkpt lat="53.458549" lon="05.819743"><ele>6.4</ele><time>2021-02-18T16:07:10Z</time><name>PT14685</name></trkpt>
<trkpt lat="53.458552" lon="05.819724"><ele>6.4</ele><time>2021-02-18T16:07:11Z</time><name>PT14686</name></trkpt>
<trkpt lat="53.458560" lon="05.819705"><ele>6.4</ele><time>2021-02-18T16:07:12Z</time><name>PT14687</name></trkpt>
<trkpt lat="53.458562" lon="05.819696"><ele>6.3</ele><time>2021-02-18T16:07:13Z</time><name>PT14688</name></trkpt>
<trkpt lat="53.458567" lon="05.819688"><ele>6.3</ele><time>2021-02-18T16:07:14Z</time><name>PT14689</name></trkpt>
<trkpt lat="53.458566" lon="05.819664"><ele>6</ele><time>2021-02-18T16:07:15Z</time><name>PT14690</name></trkpt>
<trkpt lat="53.458566" lon="05.819643"><ele>5.8</ele><time>2021-02-18T16:07:16Z</time><name>PT14691</name></trkpt>
<trkpt lat="53.458565" lon="05.819618"><ele>5.5</ele><time>2021-02-18T16:07:17Z</time><name>PT14692</name></trkpt>
<trkpt lat="53.458566" lon="05.819600"><ele>5.4</ele><time>2021-02-18T16:07:18Z</time><name>PT14693</name></trkpt>
<trkpt lat="53.458568" lon="05.819584"><ele>5.3</ele><time>2021-02-18T16:07:19Z</time><name>PT14694</name></trkpt>
<trkpt lat="53.458568" lon="05.819563"><ele>5.2</ele><time>2021-02-18T16:07:20Z</time><name>PT14695</name></trkpt>
<trkpt lat="53.458571" lon="05.819547"><ele>5.1</ele><time>2021-02-18T16:07:21Z</time><name>PT14696</name></trkpt>
<trkpt lat="53.458571" lon="05.819534"><ele>4.9</ele><time>2021-02-18T16:07:22Z</time><name>PT14697</name></trkpt>
<trkpt lat="53.458572" lon="05.819524"><ele>4.9</ele><time>2021-02-18T16:07:23Z</time><name>PT14698</name></trkpt>
<trkpt lat="53.458575" lon="05.819515"><ele>4.8</ele><time>2021-02-18T16:07:24Z</time><name>PT14699</name></trkpt>
<trkpt lat="53.458576" lon="05.819498"><ele>4.6</ele><time>2021-02-18T16:07:25Z</time><name>PT14700</name></trkpt>
<trkpt lat="53.458579" lon="05.819481"><ele>4.5</ele><time>2021-02-18T16:07:26Z</time><name>PT14701</name></trkpt>
<trkpt lat="53.458580" lon="05.819473"><ele>4.6</ele><time>2021-02-18T16:07:27Z</time><name>PT14702</name></trkpt>
<trkpt lat="53.458585" lon="05.819462"><ele>4.5</ele><time>2021-02-18T16:07:28Z</time><name>PT14703</name></trkpt>
<trkpt lat="53.458590" lon="05.819448"><ele>4.5</ele><time>2021-02-18T16:07:29Z</time><name>PT14704</name></trkpt>
<trkpt lat="53.458592" lon="05.819434"><ele>4.6</ele><time>2021-02-18T16:07:30Z</time><name>PT14705</name></trkpt>
<trkpt lat="53.458592" lon="05.819416"><ele>4.5</ele><time>2021-02-18T16:07:31Z</time><name>PT14706</name></trkpt>
<trkpt lat="53.458595" lon="05.819399"><ele>4.3</ele><time>2021-02-18T16:07:32Z</time><name>PT14707</name></trkpt>
<trkpt lat="53.458599" lon="05.819385"><ele>4.3</ele><time>2021-02-18T16:07:33Z</time><name>PT14708</name></trkpt>
<trkpt lat="53.458605" lon="05.819373"><ele>3.9</ele><time>2021-02-18T16:07:34Z</time><name>PT14709</name></trkpt>
<trkpt lat="53.458609" lon="05.819362"><ele>3.8</ele><time>2021-02-18T16:07:35Z</time><name>PT14710</name></trkpt>
<trkpt lat="53.458617" lon="05.819355"><ele>3.8</ele><time>2021-02-18T16:07:36Z</time><name>PT14711</name></trkpt>
<trkpt lat="53.458618" lon="05.819343"><ele>3.8</ele><time>2021-02-18T16:07:37Z</time><name>PT14712</name></trkpt>
<trkpt lat="53.458620" lon="05.819319"><ele>3.8</ele><time>2021-02-18T16:07:38Z</time><name>PT14713</name></trkpt>
<trkpt lat="53.458625" lon="05.819309"><ele>3.9</ele><time>2021-02-18T16:07:39Z</time><name>PT14714</name></trkpt>
<trkpt lat="53.458624" lon="05.819291"><ele>3.9</ele><time>2021-02-18T16:07:40Z</time><name>PT14715</name></trkpt>
<trkpt lat="53.458622" lon="05.819270"><ele>4</ele><time>2021-02-18T16:07:41Z</time><name>PT14716</name></trkpt>
<trkpt lat="53.458632" lon="05.819265"><ele>3.9</ele><time>2021-02-18T16:07:42Z</time><name>PT14717</name></trkpt>
<trkpt lat="53.458639" lon="05.819254"><ele>3.8</ele><time>2021-02-18T16:07:43Z</time><name>PT14718</name></trkpt>
<trkpt lat="53.458652" lon="05.819232"><ele>3.8</ele><time>2021-02-18T16:07:44Z</time><name>PT14719</name></trkpt>
<trkpt lat="53.458658" lon="05.819214"><ele>3.8</ele><time>2021-02-18T16:07:45Z</time><name>PT14720</name></trkpt>
<trkpt lat="53.458659" lon="05.819198"><ele>3.8</ele><time>2021-02-18T16:07:46Z</time><name>PT14721</name></trkpt>
<trkpt lat="53.458659" lon="05.819176"><ele>3.8</ele><time>2021-02-18T16:07:47Z</time><name>PT14722</name></trkpt>
<trkpt lat="53.458657" lon="05.819157"><ele>3.9</ele><time>2021-02-18T16:07:48Z</time><name>PT14723</name></trkpt>
<trkpt lat="53.458662" lon="05.819145"><ele>3.8</ele><time>2021-02-18T16:07:49Z</time><name>PT14724</name></trkpt>
<trkpt lat="53.458667" lon="05.819130"><ele>3.8</ele><time>2021-02-18T16:07:50Z</time><name>PT14725</name></trkpt>
<trkpt lat="53.458669" lon="05.819113"><ele>3.7</ele><time>2021-02-18T16:07:51Z</time><name>PT14726</name></trkpt>
<trkpt lat="53.458676" lon="05.819098"><ele>3.6</ele><time>2021-02-18T16:07:52Z</time><name>PT14727</name></trkpt>
<trkpt lat="53.458681" lon="05.819093"><ele>3.6</ele><time>2021-02-18T16:07:53Z</time><name>PT14728</name></trkpt>
<trkpt lat="53.458683" lon="05.819084"><ele>3.8</ele><time>2021-02-18T16:07:54Z</time><name>PT14729</name></trkpt>
<trkpt lat="53.458685" lon="05.819073"><ele>3.9</ele><time>2021-02-18T16:08:00Z</time><name>PT14730</name></trkpt>
<trkpt lat="53.458690" lon="05.819072"><ele>3.9</ele><time>2021-02-18T16:08:01Z</time><name>PT14731</name></trkpt>
<trkpt lat="53.458689" lon="05.819063"><ele>3.9</ele><time>2021-02-18T16:08:02Z</time><name>PT14732</name></trkpt>
<trkpt lat="53.458690" lon="05.819061"><ele>4</ele><time>2021-02-18T16:08:03Z</time><name>PT14733</name></trkpt>
<trkpt lat="53.458693" lon="05.819058"><ele>4</ele><time>2021-02-18T16:08:04Z</time><name>PT14734</name></trkpt>
<trkpt lat="53.458695" lon="05.819026"><ele>3.9</ele><time>2021-02-18T16:08:05Z</time><name>PT14735</name></trkpt>
<trkpt lat="53.458698" lon="05.819011"><ele>3.8</ele><time>2021-02-18T16:08:06Z</time><name>PT14736</name></trkpt>
<trkpt lat="53.458692" lon="05.819003"><ele>3.8</ele><time>2021-02-18T16:08:07Z</time><name>PT14737</name></trkpt>
<trkpt lat="53.458694" lon="05.818993"><ele>3.8</ele><time>2021-02-18T16:08:08Z</time><name>PT14738</name></trkpt>
<trkpt lat="53.458683" lon="05.818979"><ele>3.6</ele><time>2021-02-18T16:08:17Z</time><name>PT14739</name></trkpt>
<trkpt lat="53.458676" lon="05.818971"><ele>3.6</ele><time>2021-02-18T16:08:18Z</time><name>PT14740</name></trkpt>
<trkpt lat="53.458673" lon="05.818962"><ele>3.5</ele><time>2021-02-18T16:08:19Z</time><name>PT14741</name></trkpt>
<trkpt lat="53.458671" lon="05.818949"><ele>3.5</ele><time>2021-02-18T16:08:20Z</time><name>PT14742</name></trkpt>
<trkpt lat="53.458672" lon="05.818949"><ele>3.4</ele><time>2021-02-18T16:08:21Z</time><name>PT14743</name></trkpt>
<trkpt lat="53.458670" lon="05.818947"><ele>3.6</ele><time>2021-02-18T16:08:22Z</time><name>PT14744</name></trkpt>
<trkpt lat="53.458677" lon="05.818937"><ele>3.3</ele><time>2021-02-18T16:09:03Z</time><name>PT14745</name></trkpt>
<trkpt lat="53.458680" lon="05.818926"><ele>3.3</ele><time>2021-02-18T16:09:04Z</time><name>PT14746</name></trkpt>
<trkpt lat="53.458682" lon="05.818908"><ele>3.3</ele><time>2021-02-18T16:09:05Z</time><name>PT14747</name></trkpt>
<trkpt lat="53.458682" lon="05.818895"><ele>3.4</ele><time>2021-02-18T16:09:06Z</time><name>PT14748</name></trkpt>
<trkpt lat="53.458681" lon="05.818890"><ele>3.3</ele><time>2021-02-18T16:09:07Z</time><name>PT14749</name></trkpt>
<trkpt lat="53.458681" lon="05.818885"><ele>3.3</ele><time>2021-02-18T16:09:08Z</time><name>PT14750</name></trkpt>
<trkpt lat="53.458680" lon="05.818873"><ele>3.3</ele><time>2021-02-18T16:09:09Z</time><name>PT14751</name></trkpt>
<trkpt lat="53.458671" lon="05.818863"><ele>3.4</ele><time>2021-02-18T16:09:10Z</time><name>PT14752</name></trkpt>
<trkpt lat="53.458668" lon="05.818852"><ele>3.4</ele><time>2021-02-18T16:09:11Z</time><name>PT14753</name></trkpt>
<trkpt lat="53.458666" lon="05.818846"><ele>3.5</ele><time>2021-02-18T16:09:12Z</time><name>PT14754</name></trkpt>
<trkpt lat="53.458664" lon="05.818843"><ele>3.4</ele><time>2021-02-18T16:09:13Z</time><name>PT14755</name></trkpt>
<trkpt lat="53.458663" lon="05.818837"><ele>3.4</ele><time>2021-02-18T16:09:14Z</time><name>PT14756</name></trkpt>
<trkpt lat="53.458661" lon="05.818834"><ele>3.1</ele><time>2021-02-18T16:09:15Z</time><name>PT14757</name></trkpt>
<trkpt lat="53.458659" lon="05.818836"><ele>3.1</ele><time>2021-02-18T16:09:16Z</time><name>PT14758</name></trkpt>
<trkpt lat="53.458659" lon="05.818838"><ele>3.3</ele><time>2021-02-18T16:09:17Z</time><name>PT14759</name></trkpt>
<trkpt lat="53.458658" lon="05.818838"><ele>3.4</ele><time>2021-02-18T16:09:18Z</time><name>PT14760</name></trkpt>
<trkpt lat="53.458658" lon="05.818838"><ele>3.5</ele><time>2021-02-18T16:09:19Z</time><name>PT14761</name></trkpt>
<trkpt lat="53.458652" lon="05.818840"><ele>3.3</ele><time>2021-02-18T16:09:46Z</time><name>PT14762</name></trkpt>
<trkpt lat="53.458645" lon="05.818846"><ele>3.3</ele><time>2021-02-18T16:09:47Z</time><name>PT14763</name></trkpt>
<trkpt lat="53.458638" lon="05.818841"><ele>3.1</ele><time>2021-02-18T16:09:48Z</time><name>PT14764</name></trkpt>
<trkpt lat="53.458631" lon="05.818831"><ele>3.1</ele><time>2021-02-18T16:09:49Z</time><name>PT14765</name></trkpt>
<trkpt lat="53.458624" lon="05.818810"><ele>3</ele><time>2021-02-18T16:09:50Z</time><name>PT14766</name></trkpt>
<trkpt lat="53.458619" lon="05.818797"><ele>2.9</ele><time>2021-02-18T16:09:51Z</time><name>PT14767</name></trkpt>
<trkpt lat="53.458611" lon="05.818786"><ele>2.8</ele><time>2021-02-18T16:09:52Z</time><name>PT14768</name></trkpt>
<trkpt lat="53.458602" lon="05.818774"><ele>2.9</ele><time>2021-02-18T16:09:53Z</time><name>PT14769</name></trkpt>
<trkpt lat="53.458597" lon="05.818759"><ele>2.8</ele><time>2021-02-18T16:09:54Z</time><name>PT14770</name></trkpt>
<trkpt lat="53.458590" lon="05.818748"><ele>2.9</ele><time>2021-02-18T16:09:55Z</time><name>PT14771</name></trkpt>
<trkpt lat="53.458583" lon="05.818737"><ele>3.1</ele><time>2021-02-18T16:09:56Z</time><name>PT14772</name></trkpt>
<trkpt lat="53.458581" lon="05.818729"><ele>3.1</ele><time>2021-02-18T16:09:57Z</time><name>PT14773</name></trkpt>
<trkpt lat="53.458580" lon="05.818717"><ele>3.3</ele><time>2021-02-18T16:09:58Z</time><name>PT14774</name></trkpt>
<trkpt lat="53.458576" lon="05.818709"><ele>3.5</ele><time>2021-02-18T16:09:59Z</time><name>PT14775</name></trkpt>
<trkpt lat="53.458571" lon="05.818697"><ele>3.7</ele><time>2021-02-18T16:10:00Z</time><name>PT14776</name></trkpt>
<trkpt lat="53.458567" lon="05.818688"><ele>3.7</ele><time>2021-02-18T16:10:01Z</time><name>PT14777</name></trkpt>
<trkpt lat="53.458561" lon="05.818682"><ele>3.7</ele><time>2021-02-18T16:10:02Z</time><name>PT14778</name></trkpt>
<trkpt lat="53.458555" lon="05.818672"><ele>3.7</ele><time>2021-02-18T16:10:03Z</time><name>PT14779</name></trkpt>
<trkpt lat="53.458552" lon="05.818663"><ele>3.5</ele><time>2021-02-18T16:10:04Z</time><name>PT14780</name></trkpt>
<trkpt lat="53.458550" lon="05.818658"><ele>3.4</ele><time>2021-02-18T16:10:05Z</time><name>PT14781</name></trkpt>
<trkpt lat="53.458548" lon="05.818649"><ele>3.4</ele><time>2021-02-18T16:10:06Z</time><name>PT14782</name></trkpt>
<trkpt lat="53.458544" lon="05.818634"><ele>3.4</ele><time>2021-02-18T16:10:07Z</time><name>PT14783</name></trkpt>
<trkpt lat="53.458539" lon="05.818622"><ele>3.3</ele><time>2021-02-18T16:10:08Z</time><name>PT14784</name></trkpt>
<trkpt lat="53.458533" lon="05.818615"><ele>3.4</ele><time>2021-02-18T16:10:09Z</time><name>PT14785</name></trkpt>
<trkpt lat="53.458524" lon="05.818608"><ele>3.5</ele><time>2021-02-18T16:10:10Z</time><name>PT14786</name></trkpt>
<trkpt lat="53.458518" lon="05.818595"><ele>3.5</ele><time>2021-02-18T16:10:11Z</time><name>PT14787</name></trkpt>
<trkpt lat="53.458511" lon="05.818586"><ele>3.6</ele><time>2021-02-18T16:10:12Z</time><name>PT14788</name></trkpt>
<trkpt lat="53.458505" lon="05.818581"><ele>3.6</ele><time>2021-02-18T16:10:13Z</time><name>PT14789</name></trkpt>
<trkpt lat="53.458497" lon="05.818576"><ele>3.4</ele><time>2021-02-18T16:10:14Z</time><name>PT14790</name></trkpt>
<trkpt lat="53.458485" lon="05.818567"><ele>3.3</ele><time>2021-02-18T16:10:15Z</time><name>PT14791</name></trkpt>
<trkpt lat="53.458476" lon="05.818557"><ele>3.3</ele><time>2021-02-18T16:10:16Z</time><name>PT14792</name></trkpt>
<trkpt lat="53.458469" lon="05.818548"><ele>3.3</ele><time>2021-02-18T16:10:17Z</time><name>PT14793</name></trkpt>
<trkpt lat="53.458460" lon="05.818537"><ele>3.3</ele><time>2021-02-18T16:10:18Z</time><name>PT14794</name></trkpt>
<trkpt lat="53.458454" lon="05.818523"><ele>3.2</ele><time>2021-02-18T16:10:19Z</time><name>PT14795</name></trkpt>
<trkpt lat="53.458445" lon="05.818509"><ele>3</ele><time>2021-02-18T16:10:20Z</time><name>PT14796</name></trkpt>
<trkpt lat="53.458432" lon="05.818502"><ele>3.1</ele><time>2021-02-18T16:10:21Z</time><name>PT14797</name></trkpt>
<trkpt lat="53.458423" lon="05.818492"><ele>2.9</ele><time>2021-02-18T16:10:22Z</time><name>PT14798</name></trkpt>
<trkpt lat="53.458412" lon="05.818489"><ele>2.9</ele><time>2021-02-18T16:10:23Z</time><name>PT14799</name></trkpt>
<trkpt lat="53.458403" lon="05.818487"><ele>3</ele><time>2021-02-18T16:10:24Z</time><name>PT14800</name></trkpt>
<trkpt lat="53.458395" lon="05.818482"><ele>3.1</ele><time>2021-02-18T16:10:25Z</time><name>PT14801</name></trkpt>
<trkpt lat="53.458386" lon="05.818479"><ele>3.2</ele><time>2021-02-18T16:10:26Z</time><name>PT14802</name></trkpt>
<trkpt lat="53.458374" lon="05.818470"><ele>3.3</ele><time>2021-02-18T16:10:27Z</time><name>PT14803</name></trkpt>
<trkpt lat="53.458362" lon="05.818459"><ele>3.4</ele><time>2021-02-18T16:10:28Z</time><name>PT14804</name></trkpt>
<trkpt lat="53.458351" lon="05.818442"><ele>3.3</ele><time>2021-02-18T16:10:29Z</time><name>PT14805</name></trkpt>
<trkpt lat="53.458342" lon="05.818429"><ele>3.3</ele><time>2021-02-18T16:10:30Z</time><name>PT14806</name></trkpt>
<trkpt lat="53.458334" lon="05.818415"><ele>3.3</ele><time>2021-02-18T16:10:31Z</time><name>PT14807</name></trkpt>
<trkpt lat="53.458326" lon="05.818396"><ele>3.3</ele><time>2021-02-18T16:10:32Z</time><name>PT14808</name></trkpt>
<trkpt lat="53.458319" lon="05.818380"><ele>3.4</ele><time>2021-02-18T16:10:33Z</time><name>PT14809</name></trkpt>
<trkpt lat="53.458313" lon="05.818362"><ele>3.7</ele><time>2021-02-18T16:10:34Z</time><name>PT14810</name></trkpt>
<trkpt lat="53.458306" lon="05.818346"><ele>3.8</ele><time>2021-02-18T16:10:35Z</time><name>PT14811</name></trkpt>
<trkpt lat="53.458300" lon="05.818332"><ele>4.1</ele><time>2021-02-18T16:10:36Z</time><name>PT14812</name></trkpt>
<trkpt lat="53.458295" lon="05.818316"><ele>4.2</ele><time>2021-02-18T16:10:37Z</time><name>PT14813</name></trkpt>
<trkpt lat="53.458288" lon="05.818300"><ele>4.2</ele><time>2021-02-18T16:10:38Z</time><name>PT14814</name></trkpt>
<trkpt lat="53.458283" lon="05.818284"><ele>4.1</ele><time>2021-02-18T16:10:39Z</time><name>PT14815</name></trkpt>
<trkpt lat="53.458277" lon="05.818267"><ele>4.1</ele><time>2021-02-18T16:10:40Z</time><name>PT14816</name></trkpt>
<trkpt lat="53.458271" lon="05.818248"><ele>4</ele><time>2021-02-18T16:10:41Z</time><name>PT14817</name></trkpt>
<trkpt lat="53.458266" lon="05.818233"><ele>4.1</ele><time>2021-02-18T16:10:42Z</time><name>PT14818</name></trkpt>
<trkpt lat="53.458262" lon="05.818216"><ele>4.4</ele><time>2021-02-18T16:10:43Z</time><name>PT14819</name></trkpt>
<trkpt lat="53.458258" lon="05.818197"><ele>4.7</ele><time>2021-02-18T16:10:44Z</time><name>PT14820</name></trkpt>
<trkpt lat="53.458253" lon="05.818173"><ele>4.7</ele><time>2021-02-18T16:10:45Z</time><name>PT14821</name></trkpt>
<trkpt lat="53.458251" lon="05.818154"><ele>4.8</ele><time>2021-02-18T16:10:46Z</time><name>PT14822</name></trkpt>
<trkpt lat="53.458247" lon="05.818133"><ele>4.8</ele><time>2021-02-18T16:10:47Z</time><name>PT14823</name></trkpt>
<trkpt lat="53.458242" lon="05.818118"><ele>4.8</ele><time>2021-02-18T16:10:48Z</time><name>PT14824</name></trkpt>
<trkpt lat="53.458235" lon="05.818096"><ele>4.7</ele><time>2021-02-18T16:10:49Z</time><name>PT14825</name></trkpt>
<trkpt lat="53.458231" lon="05.818078"><ele>4.7</ele><time>2021-02-18T16:10:50Z</time><name>PT14826</name></trkpt>
<trkpt lat="53.458228" lon="05.818060"><ele>4.8</ele><time>2021-02-18T16:10:51Z</time><name>PT14827</name></trkpt>
<trkpt lat="53.458223" lon="05.818042"><ele>4.7</ele><time>2021-02-18T16:10:52Z</time><name>PT14828</name></trkpt>
<trkpt lat="53.458218" lon="05.818021"><ele>4.8</ele><time>2021-02-18T16:10:53Z</time><name>PT14829</name></trkpt>
<trkpt lat="53.458214" lon="05.818003"><ele>4.8</ele><time>2021-02-18T16:10:54Z</time><name>PT14830</name></trkpt>
<trkpt lat="53.458207" lon="05.817986"><ele>5.1</ele><time>2021-02-18T16:10:55Z</time><name>PT14831</name></trkpt>
<trkpt lat="53.458203" lon="05.817970"><ele>5.1</ele><time>2021-02-18T16:10:56Z</time><name>PT14832</name></trkpt>
<trkpt lat="53.458198" lon="05.817955"><ele>5.1</ele><time>2021-02-18T16:10:57Z</time><name>PT14833</name></trkpt>
<trkpt lat="53.458193" lon="05.817936"><ele>5.2</ele><time>2021-02-18T16:10:58Z</time><name>PT14834</name></trkpt>
<trkpt lat="53.458186" lon="05.817920"><ele>5.3</ele><time>2021-02-18T16:10:59Z</time><name>PT14835</name></trkpt>
<trkpt lat="53.458183" lon="05.817904"><ele>5.3</ele><time>2021-02-18T16:11:00Z</time><name>PT14836</name></trkpt>
<trkpt lat="53.458178" lon="05.817885"><ele>5.3</ele><time>2021-02-18T16:11:01Z</time><name>PT14837</name></trkpt>
<trkpt lat="53.458174" lon="05.817866"><ele>5.4</ele><time>2021-02-18T16:11:02Z</time><name>PT14838</name></trkpt>
<trkpt lat="53.458172" lon="05.817849"><ele>5.6</ele><time>2021-02-18T16:11:03Z</time><name>PT14839</name></trkpt>
<trkpt lat="53.458170" lon="05.817829"><ele>5.7</ele><time>2021-02-18T16:11:04Z</time><name>PT14840</name></trkpt>
<trkpt lat="53.458166" lon="05.817810"><ele>5.6</ele><time>2021-02-18T16:11:05Z</time><name>PT14841</name></trkpt>
<trkpt lat="53.458163" lon="05.817791"><ele>5.8</ele><time>2021-02-18T16:11:06Z</time><name>PT14842</name></trkpt>
<trkpt lat="53.458160" lon="05.817773"><ele>5.8</ele><time>2021-02-18T16:11:07Z</time><name>PT14843</name></trkpt>
<trkpt lat="53.458155" lon="05.817754"><ele>5.8</ele><time>2021-02-18T16:11:08Z</time><name>PT14844</name></trkpt>
<trkpt lat="53.458151" lon="05.817735"><ele>5.8</ele><time>2021-02-18T16:11:09Z</time><name>PT14845</name></trkpt>
<trkpt lat="53.458147" lon="05.817716"><ele>5.9</ele><time>2021-02-18T16:11:10Z</time><name>PT14846</name></trkpt>
<trkpt lat="53.458142" lon="05.817699"><ele>5.9</ele><time>2021-02-18T16:11:11Z</time><name>PT14847</name></trkpt>
<trkpt lat="53.458135" lon="05.817680"><ele>5.9</ele><time>2021-02-18T16:11:12Z</time><name>PT14848</name></trkpt>
<trkpt lat="53.458130" lon="05.817663"><ele>5.9</ele><time>2021-02-18T16:11:13Z</time><name>PT14849</name></trkpt>
<trkpt lat="53.458126" lon="05.817645"><ele>5.9</ele><time>2021-02-18T16:11:14Z</time><name>PT14850</name></trkpt>
<trkpt lat="53.458123" lon="05.817629"><ele>5.9</ele><time>2021-02-18T16:11:15Z</time><name>PT14851</name></trkpt>
<trkpt lat="53.458120" lon="05.817614"><ele>5.9</ele><time>2021-02-18T16:11:16Z</time><name>PT14852</name></trkpt>
<trkpt lat="53.458115" lon="05.817598"><ele>5.9</ele><time>2021-02-18T16:11:17Z</time><name>PT14853</name></trkpt>
<trkpt lat="53.458112" lon="05.817582"><ele>5.9</ele><time>2021-02-18T16:11:18Z</time><name>PT14854</name></trkpt>
<trkpt lat="53.458109" lon="05.817566"><ele>5.8</ele><time>2021-02-18T16:11:19Z</time><name>PT14855</name></trkpt>
<trkpt lat="53.458106" lon="05.817549"><ele>5.7</ele><time>2021-02-18T16:11:20Z</time><name>PT14856</name></trkpt>
<trkpt lat="53.458105" lon="05.817530"><ele>5.6</ele><time>2021-02-18T16:11:21Z</time><name>PT14857</name></trkpt>
<trkpt lat="53.458101" lon="05.817509"><ele>5.4</ele><time>2021-02-18T16:11:22Z</time><name>PT14858</name></trkpt>
<trkpt lat="53.458098" lon="05.817489"><ele>5.5</ele><time>2021-02-18T16:11:23Z</time><name>PT14859</name></trkpt>
<trkpt lat="53.458094" lon="05.817471"><ele>5.4</ele><time>2021-02-18T16:11:24Z</time><name>PT14860</name></trkpt>
<trkpt lat="53.458090" lon="05.817454"><ele>5.3</ele><time>2021-02-18T16:11:25Z</time><name>PT14861</name></trkpt>
<trkpt lat="53.458084" lon="05.817436"><ele>5.4</ele><time>2021-02-18T16:11:26Z</time><name>PT14862</name></trkpt>
<trkpt lat="53.458078" lon="05.817420"><ele>5.5</ele><time>2021-02-18T16:11:27Z</time><name>PT14863</name></trkpt>
<trkpt lat="53.458072" lon="05.817403"><ele>5.6</ele><time>2021-02-18T16:11:28Z</time><name>PT14864</name></trkpt>
<trkpt lat="53.458067" lon="05.817387"><ele>5.7</ele><time>2021-02-18T16:11:29Z</time><name>PT14865</name></trkpt>
<trkpt lat="53.458063" lon="05.817374"><ele>5.9</ele><time>2021-02-18T16:11:30Z</time><name>PT14866</name></trkpt>
<trkpt lat="53.458058" lon="05.817359"><ele>5.9</ele><time>2021-02-18T16:11:31Z</time><name>PT14867</name></trkpt>
<trkpt lat="53.458056" lon="05.817342"><ele>5.9</ele><time>2021-02-18T16:11:32Z</time><name>PT14868</name></trkpt>
<trkpt lat="53.458052" lon="05.817322"><ele>5.9</ele><time>2021-02-18T16:11:33Z</time><name>PT14869</name></trkpt>
<trkpt lat="53.458048" lon="05.817302"><ele>5.9</ele><time>2021-02-18T16:11:34Z</time><name>PT14870</name></trkpt>
<trkpt lat="53.458043" lon="05.817287"><ele>5.8</ele><time>2021-02-18T16:11:35Z</time><name>PT14871</name></trkpt>
<trkpt lat="53.458037" lon="05.817272"><ele>5.8</ele><time>2021-02-18T16:11:36Z</time><name>PT14872</name></trkpt>
<trkpt lat="53.458030" lon="05.817255"><ele>5.6</ele><time>2021-02-18T16:11:37Z</time><name>PT14873</name></trkpt>
<trkpt lat="53.458025" lon="05.817240"><ele>5.5</ele><time>2021-02-18T16:11:38Z</time><name>PT14874</name></trkpt>
<trkpt lat="53.458021" lon="05.817224"><ele>5.6</ele><time>2021-02-18T16:11:39Z</time><name>PT14875</name></trkpt>
<trkpt lat="53.458017" lon="05.817207"><ele>5.9</ele><time>2021-02-18T16:11:40Z</time><name>PT14876</name></trkpt>
<trkpt lat="53.458013" lon="05.817189"><ele>5.8</ele><time>2021-02-18T16:11:41Z</time><name>PT14877</name></trkpt>
<trkpt lat="53.458008" lon="05.817171"><ele>5.9</ele><time>2021-02-18T16:11:42Z</time><name>PT14878</name></trkpt>
<trkpt lat="53.458004" lon="05.817154"><ele>5.8</ele><time>2021-02-18T16:11:43Z</time><name>PT14879</name></trkpt>
<trkpt lat="53.458001" lon="05.817137"><ele>5.8</ele><time>2021-02-18T16:11:44Z</time><name>PT14880</name></trkpt>
<trkpt lat="53.457996" lon="05.817122"><ele>5.4</ele><time>2021-02-18T16:11:45Z</time><name>PT14881</name></trkpt>
<trkpt lat="53.457991" lon="05.817104"><ele>5.5</ele><time>2021-02-18T16:11:46Z</time><name>PT14882</name></trkpt>
<trkpt lat="53.457985" lon="05.817086"><ele>5.3</ele><time>2021-02-18T16:11:47Z</time><name>PT14883</name></trkpt>
<trkpt lat="53.457979" lon="05.817069"><ele>5.4</ele><time>2021-02-18T16:11:48Z</time><name>PT14884</name></trkpt>
<trkpt lat="53.457973" lon="05.817052"><ele>5.5</ele><time>2021-02-18T16:11:49Z</time><name>PT14885</name></trkpt>
<trkpt lat="53.457967" lon="05.817034"><ele>5.4</ele><time>2021-02-18T16:11:50Z</time><name>PT14886</name></trkpt>
<trkpt lat="53.457962" lon="05.817013"><ele>5.4</ele><time>2021-02-18T16:11:51Z</time><name>PT14887</name></trkpt>
<trkpt lat="53.457957" lon="05.816997"><ele>5.4</ele><time>2021-02-18T16:11:52Z</time><name>PT14888</name></trkpt>
<trkpt lat="53.457950" lon="05.816980"><ele>5.4</ele><time>2021-02-18T16:11:53Z</time><name>PT14889</name></trkpt>
<trkpt lat="53.457943" lon="05.816963"><ele>5.4</ele><time>2021-02-18T16:11:54Z</time><name>PT14890</name></trkpt>
<trkpt lat="53.457938" lon="05.816945"><ele>5.8</ele><time>2021-02-18T16:11:55Z</time><name>PT14891</name></trkpt>
<trkpt lat="53.457934" lon="05.816927"><ele>5.8</ele><time>2021-02-18T16:11:56Z</time><name>PT14892</name></trkpt>
<trkpt lat="53.457928" lon="05.816911"><ele>5.9</ele><time>2021-02-18T16:11:57Z</time><name>PT14893</name></trkpt>
<trkpt lat="53.457922" lon="05.816898"><ele>6</ele><time>2021-02-18T16:11:58Z</time><name>PT14894</name></trkpt>
<trkpt lat="53.457915" lon="05.816884"><ele>5.9</ele><time>2021-02-18T16:11:59Z</time><name>PT14895</name></trkpt>
<trkpt lat="53.457908" lon="05.816868"><ele>5.9</ele><time>2021-02-18T16:12:00Z</time><name>PT14896</name></trkpt>
<trkpt lat="53.457903" lon="05.816853"><ele>5.9</ele><time>2021-02-18T16:12:01Z</time><name>PT14897</name></trkpt>
<trkpt lat="53.457899" lon="05.816839"><ele>5.9</ele><time>2021-02-18T16:12:02Z</time><name>PT14898</name></trkpt>
<trkpt lat="53.457893" lon="05.816824"><ele>6</ele><time>2021-02-18T16:12:03Z</time><name>PT14899</name></trkpt>
<trkpt lat="53.457889" lon="05.816808"><ele>5.9</ele><time>2021-02-18T16:12:04Z</time><name>PT14900</name></trkpt>
<trkpt lat="53.457883" lon="05.816790"><ele>5.9</ele><time>2021-02-18T16:12:05Z</time><name>PT14901</name></trkpt>
<trkpt lat="53.457876" lon="05.816776"><ele>5.9</ele><time>2021-02-18T16:12:06Z</time><name>PT14902</name></trkpt>
<trkpt lat="53.457869" lon="05.816759"><ele>5.9</ele><time>2021-02-18T16:12:07Z</time><name>PT14903</name></trkpt>
<trkpt lat="53.457859" lon="05.816744"><ele>5.9</ele><time>2021-02-18T16:12:08Z</time><name>PT14904</name></trkpt>
<trkpt lat="53.457851" lon="05.816730"><ele>5.9</ele><time>2021-02-18T16:12:09Z</time><name>PT14905</name></trkpt>
<trkpt lat="53.457842" lon="05.816719"><ele>5.9</ele><time>2021-02-18T16:12:10Z</time><name>PT14906</name></trkpt>
<trkpt lat="53.457835" lon="05.816710"><ele>5.9</ele><time>2021-02-18T16:12:11Z</time><name>PT14907</name></trkpt>
<trkpt lat="53.457827" lon="05.816700"><ele>5.9</ele><time>2021-02-18T16:12:12Z</time><name>PT14908</name></trkpt>
<trkpt lat="53.457819" lon="05.816690"><ele>5.9</ele><time>2021-02-18T16:12:13Z</time><name>PT14909</name></trkpt>
<trkpt lat="53.457809" lon="05.816681"><ele>5.8</ele><time>2021-02-18T16:12:14Z</time><name>PT14910</name></trkpt>
<trkpt lat="53.457800" lon="05.816672"><ele>5.7</ele><time>2021-02-18T16:12:15Z</time><name>PT14911</name></trkpt>
<trkpt lat="53.457790" lon="05.816665"><ele>5.6</ele><time>2021-02-18T16:12:16Z</time><name>PT14912</name></trkpt>
<trkpt lat="53.457779" lon="05.816657"><ele>5.5</ele><time>2021-02-18T16:12:17Z</time><name>PT14913</name></trkpt>
<trkpt lat="53.457769" lon="05.816648"><ele>5.7</ele><time>2021-02-18T16:12:18Z</time><name>PT14914</name></trkpt>
<trkpt lat="53.457759" lon="05.816640"><ele>5.8</ele><time>2021-02-18T16:12:19Z</time><name>PT14915</name></trkpt>
<trkpt lat="53.457750" lon="05.816626"><ele>5.9</ele><time>2021-02-18T16:12:20Z</time><name>PT14916</name></trkpt>
<trkpt lat="53.457741" lon="05.816615"><ele>5.8</ele><time>2021-02-18T16:12:21Z</time><name>PT14917</name></trkpt>
<trkpt lat="53.457734" lon="05.816604"><ele>5.9</ele><time>2021-02-18T16:12:22Z</time><name>PT14918</name></trkpt>
<trkpt lat="53.457726" lon="05.816593"><ele>5.9</ele><time>2021-02-18T16:12:23Z</time><name>PT14919</name></trkpt>
<trkpt lat="53.457719" lon="05.816579"><ele>5.9</ele><time>2021-02-18T16:12:24Z</time><name>PT14920</name></trkpt>
<trkpt lat="53.457711" lon="05.816565"><ele>5.9</ele><time>2021-02-18T16:12:25Z</time><name>PT14921</name></trkpt>
<trkpt lat="53.457702" lon="05.816551"><ele>6</ele><time>2021-02-18T16:12:26Z</time><name>PT14922</name></trkpt>
<trkpt lat="53.457693" lon="05.816539"><ele>5.9</ele><time>2021-02-18T16:12:27Z</time><name>PT14923</name></trkpt>
<trkpt lat="53.457684" lon="05.816528"><ele>6.2</ele><time>2021-02-18T16:12:28Z</time><name>PT14924</name></trkpt>
<trkpt lat="53.457676" lon="05.816515"><ele>6.2</ele><time>2021-02-18T16:12:29Z</time><name>PT14925</name></trkpt>
<trkpt lat="53.457668" lon="05.816501"><ele>6.3</ele><time>2021-02-18T16:12:30Z</time><name>PT14926</name></trkpt>
<trkpt lat="53.457659" lon="05.816486"><ele>6.2</ele><time>2021-02-18T16:12:31Z</time><name>PT14927</name></trkpt>
<trkpt lat="53.457652" lon="05.816472"><ele>6.1</ele><time>2021-02-18T16:12:32Z</time><name>PT14928</name></trkpt>
<trkpt lat="53.457645" lon="05.816462"><ele>5.9</ele><time>2021-02-18T16:12:33Z</time><name>PT14929</name></trkpt>
<trkpt lat="53.457636" lon="05.816446"><ele>5.8</ele><time>2021-02-18T16:12:34Z</time><name>PT14930</name></trkpt>
<trkpt lat="53.457628" lon="05.816433"><ele>5.7</ele><time>2021-02-18T16:12:35Z</time><name>PT14931</name></trkpt>
<trkpt lat="53.457623" lon="05.816418"><ele>5.7</ele><time>2021-02-18T16:12:36Z</time><name>PT14932</name></trkpt>
<trkpt lat="53.457616" lon="05.816400"><ele>5.8</ele><time>2021-02-18T16:12:37Z</time><name>PT14933</name></trkpt>
<trkpt lat="53.457609" lon="05.816383"><ele>5.9</ele><time>2021-02-18T16:12:38Z</time><name>PT14934</name></trkpt>
<trkpt lat="53.457603" lon="05.816368"><ele>6</ele><time>2021-02-18T16:12:39Z</time><name>PT14935</name></trkpt>
<trkpt lat="53.457596" lon="05.816356"><ele>6.1</ele><time>2021-02-18T16:12:40Z</time><name>PT14936</name></trkpt>
<trkpt lat="53.457589" lon="05.816343"><ele>6</ele><time>2021-02-18T16:12:41Z</time><name>PT14937</name></trkpt>
<trkpt lat="53.457581" lon="05.816330"><ele>6.1</ele><time>2021-02-18T16:12:42Z</time><name>PT14938</name></trkpt>
<trkpt lat="53.457574" lon="05.816317"><ele>6</ele><time>2021-02-18T16:12:43Z</time><name>PT14939</name></trkpt>
<trkpt lat="53.457568" lon="05.816304"><ele>6</ele><time>2021-02-18T16:12:44Z</time><name>PT14940</name></trkpt>
<trkpt lat="53.457563" lon="05.816289"><ele>5.9</ele><time>2021-02-18T16:12:45Z</time><name>PT14941</name></trkpt>
<trkpt lat="53.457559" lon="05.816273"><ele>6</ele><time>2021-02-18T16:12:46Z</time><name>PT14942</name></trkpt>
<trkpt lat="53.457554" lon="05.816256"><ele>6</ele><time>2021-02-18T16:12:47Z</time><name>PT14943</name></trkpt>
<trkpt lat="53.457548" lon="05.816240"><ele>6</ele><time>2021-02-18T16:12:48Z</time><name>PT14944</name></trkpt>
<trkpt lat="53.457544" lon="05.816223"><ele>5.9</ele><time>2021-02-18T16:12:49Z</time><name>PT14945</name></trkpt>
<trkpt lat="53.457540" lon="05.816207"><ele>5.9</ele><time>2021-02-18T16:12:50Z</time><name>PT14946</name></trkpt>
<trkpt lat="53.457537" lon="05.816193"><ele>5.9</ele><time>2021-02-18T16:12:51Z</time><name>PT14947</name></trkpt>
<trkpt lat="53.457534" lon="05.816179"><ele>5.9</ele><time>2021-02-18T16:12:52Z</time><name>PT14948</name></trkpt>
<trkpt lat="53.457532" lon="05.816162"><ele>6</ele><time>2021-02-18T16:12:53Z</time><name>PT14949</name></trkpt>
<trkpt lat="53.457527" lon="05.816145"><ele>5.9</ele><time>2021-02-18T16:12:54Z</time><name>PT14950</name></trkpt>
<trkpt lat="53.457523" lon="05.816125"><ele>5.8</ele><time>2021-02-18T16:12:55Z</time><name>PT14951</name></trkpt>
<trkpt lat="53.457521" lon="05.816106"><ele>5.6</ele><time>2021-02-18T16:12:56Z</time><name>PT14952</name></trkpt>
<trkpt lat="53.457517" lon="05.816088"><ele>5.4</ele><time>2021-02-18T16:12:57Z</time><name>PT14953</name></trkpt>
<trkpt lat="53.457513" lon="05.816072"><ele>5.2</ele><time>2021-02-18T16:12:58Z</time><name>PT14954</name></trkpt>
<trkpt lat="53.457510" lon="05.816057"><ele>5.2</ele><time>2021-02-18T16:12:59Z</time><name>PT14955</name></trkpt>
<trkpt lat="53.457506" lon="05.816040"><ele>5</ele><time>2021-02-18T16:13:00Z</time><name>PT14956</name></trkpt>
<trkpt lat="53.457504" lon="05.816022"><ele>4.9</ele><time>2021-02-18T16:13:01Z</time><name>PT14957</name></trkpt>
<trkpt lat="53.457504" lon="05.816004"><ele>5</ele><time>2021-02-18T16:13:02Z</time><name>PT14958</name></trkpt>
<trkpt lat="53.457504" lon="05.815987"><ele>4.9</ele><time>2021-02-18T16:13:03Z</time><name>PT14959</name></trkpt>
<trkpt lat="53.457504" lon="05.815971"><ele>4.9</ele><time>2021-02-18T16:13:04Z</time><name>PT14960</name></trkpt>
<trkpt lat="53.457503" lon="05.815954"><ele>4.8</ele><time>2021-02-18T16:13:05Z</time><name>PT14961</name></trkpt>
<trkpt lat="53.457502" lon="05.815936"><ele>4.8</ele><time>2021-02-18T16:13:06Z</time><name>PT14962</name></trkpt>
<trkpt lat="53.457503" lon="05.815918"><ele>4.9</ele><time>2021-02-18T16:13:07Z</time><name>PT14963</name></trkpt>
<trkpt lat="53.457503" lon="05.815898"><ele>4.9</ele><time>2021-02-18T16:13:08Z</time><name>PT14964</name></trkpt>
<trkpt lat="53.457503" lon="05.815878"><ele>4.9</ele><time>2021-02-18T16:13:09Z</time><name>PT14965</name></trkpt>
<trkpt lat="53.457500" lon="05.815860"><ele>5</ele><time>2021-02-18T16:13:10Z</time><name>PT14966</name></trkpt>
<trkpt lat="53.457498" lon="05.815844"><ele>5</ele><time>2021-02-18T16:13:11Z</time><name>PT14967</name></trkpt>
<trkpt lat="53.457498" lon="05.815827"><ele>4.8</ele><time>2021-02-18T16:13:12Z</time><name>PT14968</name></trkpt>
<trkpt lat="53.457497" lon="05.815811"><ele>4.9</ele><time>2021-02-18T16:13:13Z</time><name>PT14969</name></trkpt>
<trkpt lat="53.457496" lon="05.815792"><ele>4.8</ele><time>2021-02-18T16:13:14Z</time><name>PT14970</name></trkpt>
<trkpt lat="53.457495" lon="05.815773"><ele>4.6</ele><time>2021-02-18T16:13:15Z</time><name>PT14971</name></trkpt>
<trkpt lat="53.457494" lon="05.815757"><ele>4.7</ele><time>2021-02-18T16:13:16Z</time><name>PT14972</name></trkpt>
<trkpt lat="53.457494" lon="05.815743"><ele>4.5</ele><time>2021-02-18T16:13:17Z</time><name>PT14973</name></trkpt>
<trkpt lat="53.457492" lon="05.815726"><ele>4.5</ele><time>2021-02-18T16:13:18Z</time><name>PT14974</name></trkpt>
<trkpt lat="53.457490" lon="05.815708"><ele>4.6</ele><time>2021-02-18T16:13:19Z</time><name>PT14975</name></trkpt>
<trkpt lat="53.457491" lon="05.815687"><ele>4.6</ele><time>2021-02-18T16:13:20Z</time><name>PT14976</name></trkpt>
<trkpt lat="53.457491" lon="05.815669"><ele>4.5</ele><time>2021-02-18T16:13:21Z</time><name>PT14977</name></trkpt>
<trkpt lat="53.457490" lon="05.815650"><ele>4.7</ele><time>2021-02-18T16:13:22Z</time><name>PT14978</name></trkpt>
<trkpt lat="53.457488" lon="05.815632"><ele>4.6</ele><time>2021-02-18T16:13:23Z</time><name>PT14979</name></trkpt>
<trkpt lat="53.457485" lon="05.815613"><ele>4.6</ele><time>2021-02-18T16:13:24Z</time><name>PT14980</name></trkpt>
<trkpt lat="53.457482" lon="05.815595"><ele>4.5</ele><time>2021-02-18T16:13:25Z</time><name>PT14981</name></trkpt>
<trkpt lat="53.457483" lon="05.815581"><ele>4.4</ele><time>2021-02-18T16:13:26Z</time><name>PT14982</name></trkpt>
<trkpt lat="53.457484" lon="05.815565"><ele>4.1</ele><time>2021-02-18T16:13:27Z</time><name>PT14983</name></trkpt>
<trkpt lat="53.457484" lon="05.815546"><ele>4.1</ele><time>2021-02-18T16:13:28Z</time><name>PT14984</name></trkpt>
<trkpt lat="53.457485" lon="05.815529"><ele>4</ele><time>2021-02-18T16:13:29Z</time><name>PT14985</name></trkpt>
<trkpt lat="53.457486" lon="05.815513"><ele>4.1</ele><time>2021-02-18T16:13:30Z</time><name>PT14986</name></trkpt>
<trkpt lat="53.457484" lon="05.815496"><ele>4.1</ele><time>2021-02-18T16:13:31Z</time><name>PT14987</name></trkpt>
<trkpt lat="53.457483" lon="05.815477"><ele>4.1</ele><time>2021-02-18T16:13:32Z</time><name>PT14988</name></trkpt>
<trkpt lat="53.457482" lon="05.815461"><ele>3.8</ele><time>2021-02-18T16:13:33Z</time><name>PT14989</name></trkpt>
<trkpt lat="53.457483" lon="05.815446"><ele>4</ele><time>2021-02-18T16:13:34Z</time><name>PT14990</name></trkpt>
<trkpt lat="53.457484" lon="05.815432"><ele>4.1</ele><time>2021-02-18T16:13:35Z</time><name>PT14991</name></trkpt>
<trkpt lat="53.457484" lon="05.815419"><ele>4</ele><time>2021-02-18T16:13:36Z</time><name>PT14992</name></trkpt>
<trkpt lat="53.457483" lon="05.815408"><ele>4.2</ele><time>2021-02-18T16:13:37Z</time><name>PT14993</name></trkpt>
<trkpt lat="53.457484" lon="05.815398"><ele>4.3</ele><time>2021-02-18T16:13:38Z</time><name>PT14994</name></trkpt>
<trkpt lat="53.457485" lon="05.815389"><ele>4.3</ele><time>2021-02-18T16:13:39Z</time><name>PT14995</name></trkpt>
<trkpt lat="53.457485" lon="05.815383"><ele>4.2</ele><time>2021-02-18T16:13:40Z</time><name>PT14996</name></trkpt>
<trkpt lat="53.457485" lon="05.815381"><ele>4.2</ele><time>2021-02-18T16:13:41Z</time><name>PT14997</name></trkpt>
<trkpt lat="53.457485" lon="05.815379"><ele>4.3</ele><time>2021-02-18T16:13:42Z</time><name>PT14998</name></trkpt>
<trkpt lat="53.457485" lon="05.815373"><ele>4.2</ele><time>2021-02-18T16:13:43Z</time><name>PT14999</name></trkpt>
<trkpt lat="53.457485" lon="05.815366"><ele>4.1</ele><time>2021-02-18T16:13:44Z</time><name>PT15000</name></trkpt>
<trkpt lat="53.457485" lon="05.815357"><ele>4.1</ele><time>2021-02-18T16:13:45Z</time><name>PT15001</name></trkpt>
<trkpt lat="53.457483" lon="05.815346"><ele>4.2</ele><time>2021-02-18T16:13:46Z</time><name>PT15002</name></trkpt>
<trkpt lat="53.457481" lon="05.815332"><ele>4.2</ele><time>2021-02-18T16:13:47Z</time><name>PT15003</name></trkpt>
<trkpt lat="53.457481" lon="05.815317"><ele>4.3</ele><time>2021-02-18T16:13:48Z</time><name>PT15004</name></trkpt>
<trkpt lat="53.457483" lon="05.815301"><ele>4.1</ele><time>2021-02-18T16:13:49Z</time><name>PT15005</name></trkpt>
<trkpt lat="53.457480" lon="05.815282"><ele>4.2</ele><time>2021-02-18T16:13:50Z</time><name>PT15006</name></trkpt>
<trkpt lat="53.457475" lon="05.815265"><ele>4.2</ele><time>2021-02-18T16:13:51Z</time><name>PT15007</name></trkpt>
<trkpt lat="53.457471" lon="05.815246"><ele>4</ele><time>2021-02-18T16:13:52Z</time><name>PT15008</name></trkpt>
<trkpt lat="53.457468" lon="05.815231"><ele>4</ele><time>2021-02-18T16:13:53Z</time><name>PT15009</name></trkpt>
<trkpt lat="53.457466" lon="05.815215"><ele>4.2</ele><time>2021-02-18T16:13:54Z</time><name>PT15010</name></trkpt>
<trkpt lat="53.457464" lon="05.815201"><ele>4.3</ele><time>2021-02-18T16:13:55Z</time><name>PT15011</name></trkpt>
<trkpt lat="53.457461" lon="05.815187"><ele>4.2</ele><time>2021-02-18T16:13:56Z</time><name>PT15012</name></trkpt>
<trkpt lat="53.457454" lon="05.815167"><ele>4.3</ele><time>2021-02-18T16:13:57Z</time><name>PT15013</name></trkpt>
<trkpt lat="53.457452" lon="05.815152"><ele>4.3</ele><time>2021-02-18T16:13:58Z</time><name>PT15014</name></trkpt>
<trkpt lat="53.457450" lon="05.815136"><ele>4.5</ele><time>2021-02-18T16:13:59Z</time><name>PT15015</name></trkpt>
<trkpt lat="53.457447" lon="05.815120"><ele>4.4</ele><time>2021-02-18T16:14:00Z</time><name>PT15016</name></trkpt>
<trkpt lat="53.457442" lon="05.815101"><ele>4.6</ele><time>2021-02-18T16:14:01Z</time><name>PT15017</name></trkpt>
<trkpt lat="53.457437" lon="05.815089"><ele>4.4</ele><time>2021-02-18T16:14:02Z</time><name>PT15018</name></trkpt>
<trkpt lat="53.457434" lon="05.815080"><ele>4.4</ele><time>2021-02-18T16:14:03Z</time><name>PT15019</name></trkpt>
<trkpt lat="53.457430" lon="05.815072"><ele>4.3</ele><time>2021-02-18T16:14:04Z</time><name>PT15020</name></trkpt>
<trkpt lat="53.457427" lon="05.815060"><ele>4.1</ele><time>2021-02-18T16:14:05Z</time><name>PT15021</name></trkpt>
<trkpt lat="53.457424" lon="05.815044"><ele>4</ele><time>2021-02-18T16:14:06Z</time><name>PT15022</name></trkpt>
<trkpt lat="53.457420" lon="05.815028"><ele>3.9</ele><time>2021-02-18T16:14:07Z</time><name>PT15023</name></trkpt>
<trkpt lat="53.457415" lon="05.815011"><ele>3.9</ele><time>2021-02-18T16:14:08Z</time><name>PT15024</name></trkpt>
<trkpt lat="53.457409" lon="05.814995"><ele>3.8</ele><time>2021-02-18T16:14:09Z</time><name>PT15025</name></trkpt>
<trkpt lat="53.457404" lon="05.814982"><ele>4.1</ele><time>2021-02-18T16:14:10Z</time><name>PT15026</name></trkpt>
<trkpt lat="53.457400" lon="05.814971"><ele>4</ele><time>2021-02-18T16:14:11Z</time><name>PT15027</name></trkpt>
<trkpt lat="53.457397" lon="05.814958"><ele>4</ele><time>2021-02-18T16:14:12Z</time><name>PT15028</name></trkpt>
<trkpt lat="53.457395" lon="05.814947"><ele>3.9</ele><time>2021-02-18T16:14:13Z</time><name>PT15029</name></trkpt>
<trkpt lat="53.457393" lon="05.814940"><ele>3.8</ele><time>2021-02-18T16:14:14Z</time><name>PT15030</name></trkpt>
<trkpt lat="53.457390" lon="05.814929"><ele>3.7</ele><time>2021-02-18T16:14:15Z</time><name>PT15031</name></trkpt>
<trkpt lat="53.457389" lon="05.814915"><ele>3.8</ele><time>2021-02-18T16:14:16Z</time><name>PT15032</name></trkpt>
<trkpt lat="53.457385" lon="05.814901"><ele>3.8</ele><time>2021-02-18T16:14:17Z</time><name>PT15033</name></trkpt>
<trkpt lat="53.457381" lon="05.814888"><ele>3.6</ele><time>2021-02-18T16:14:18Z</time><name>PT15034</name></trkpt>
<trkpt lat="53.457377" lon="05.814875"><ele>3.6</ele><time>2021-02-18T16:14:19Z</time><name>PT15035</name></trkpt>
<trkpt lat="53.457373" lon="05.814862"><ele>3.6</ele><time>2021-02-18T16:14:20Z</time><name>PT15036</name></trkpt>
<trkpt lat="53.457370" lon="05.814849"><ele>3.7</ele><time>2021-02-18T16:14:21Z</time><name>PT15037</name></trkpt>
<trkpt lat="53.457367" lon="05.814834"><ele>3.5</ele><time>2021-02-18T16:14:22Z</time><name>PT15038</name></trkpt>
<trkpt lat="53.457363" lon="05.814819"><ele>3.7</ele><time>2021-02-18T16:14:23Z</time><name>PT15039</name></trkpt>
<trkpt lat="53.457361" lon="05.814807"><ele>3.8</ele><time>2021-02-18T16:14:24Z</time><name>PT15040</name></trkpt>
<trkpt lat="53.457360" lon="05.814796"><ele>3.8</ele><time>2021-02-18T16:14:25Z</time><name>PT15041</name></trkpt>
<trkpt lat="53.457357" lon="05.814786"><ele>3.8</ele><time>2021-02-18T16:14:26Z</time><name>PT15042</name></trkpt>
<trkpt lat="53.457354" lon="05.814778"><ele>4</ele><time>2021-02-18T16:14:27Z</time><name>PT15043</name></trkpt>
<trkpt lat="53.457352" lon="05.814767"><ele>4</ele><time>2021-02-18T16:14:28Z</time><name>PT15044</name></trkpt>
<trkpt lat="53.457352" lon="05.814751"><ele>3.9</ele><time>2021-02-18T16:14:29Z</time><name>PT15045</name></trkpt>
<trkpt lat="53.457350" lon="05.814739"><ele>3.9</ele><time>2021-02-18T16:14:30Z</time><name>PT15046</name></trkpt>
<trkpt lat="53.457346" lon="05.814729"><ele>3.8</ele><time>2021-02-18T16:14:31Z</time><name>PT15047</name></trkpt>
<trkpt lat="53.457345" lon="05.814720"><ele>3.8</ele><time>2021-02-18T16:14:32Z</time><name>PT15048</name></trkpt>
<trkpt lat="53.457343" lon="05.814716"><ele>3.8</ele><time>2021-02-18T16:14:33Z</time><name>PT15049</name></trkpt>
<trkpt lat="53.457344" lon="05.814716"><ele>4.2</ele><time>2021-02-18T16:14:34Z</time><name>PT15050</name></trkpt>
<trkpt lat="53.457342" lon="05.814713"><ele>4</ele><time>2021-02-18T16:14:35Z</time><name>PT15051</name></trkpt>
<trkpt lat="53.457339" lon="05.814705"><ele>4.3</ele><time>2021-02-18T16:14:36Z</time><name>PT15052</name></trkpt>
<trkpt lat="53.457333" lon="05.814697"><ele>4.1</ele><time>2021-02-18T16:14:37Z</time><name>PT15053</name></trkpt>
<trkpt lat="53.457326" lon="05.814688"><ele>3.9</ele><time>2021-02-18T16:14:38Z</time><name>PT15054</name></trkpt>
<trkpt lat="53.457317" lon="05.814685"><ele>3.9</ele><time>2021-02-18T16:14:39Z</time><name>PT15055</name></trkpt>
<trkpt lat="53.457308" lon="05.814684"><ele>3.7</ele><time>2021-02-18T16:14:40Z</time><name>PT15056</name></trkpt>
<trkpt lat="53.457298" lon="05.814683"><ele>3.5</ele><time>2021-02-18T16:14:41Z</time><name>PT15057</name></trkpt>
<trkpt lat="53.457288" lon="05.814680"><ele>3.3</ele><time>2021-02-18T16:14:42Z</time><name>PT15058</name></trkpt>
<trkpt lat="53.457276" lon="05.814677"><ele>3.3</ele><time>2021-02-18T16:14:43Z</time><name>PT15059</name></trkpt>
<trkpt lat="53.457265" lon="05.814671"><ele>3.3</ele><time>2021-02-18T16:14:44Z</time><name>PT15060</name></trkpt>
<trkpt lat="53.457252" lon="05.814664"><ele>3.3</ele><time>2021-02-18T16:14:45Z</time><name>PT15061</name></trkpt>
<trkpt lat="53.457240" lon="05.814660"><ele>3.4</ele><time>2021-02-18T16:14:46Z</time><name>PT15062</name></trkpt>
<trkpt lat="53.457229" lon="05.814659"><ele>3.3</ele><time>2021-02-18T16:14:47Z</time><name>PT15063</name></trkpt>
<trkpt lat="53.457218" lon="05.814660"><ele>3.1</ele><time>2021-02-18T16:14:48Z</time><name>PT15064</name></trkpt>
<trkpt lat="53.457208" lon="05.814663"><ele>2.9</ele><time>2021-02-18T16:14:49Z</time><name>PT15065</name></trkpt>
<trkpt lat="53.457197" lon="05.814664"><ele>2.6</ele><time>2021-02-18T16:14:50Z</time><name>PT15066</name></trkpt>
<trkpt lat="53.457186" lon="05.814663"><ele>2.3</ele><time>2021-02-18T16:14:51Z</time><name>PT15067</name></trkpt>
<trkpt lat="53.457176" lon="05.814661"><ele>2.3</ele><time>2021-02-18T16:14:52Z</time><name>PT15068</name></trkpt>
<trkpt lat="53.457164" lon="05.814657"><ele>2.3</ele><time>2021-02-18T16:14:53Z</time><name>PT15069</name></trkpt>
<trkpt lat="53.457151" lon="05.814655"><ele>2.4</ele><time>2021-02-18T16:14:54Z</time><name>PT15070</name></trkpt>
<trkpt lat="53.457139" lon="05.814654"><ele>2.5</ele><time>2021-02-18T16:14:55Z</time><name>PT15071</name></trkpt>
<trkpt lat="53.457127" lon="05.814653"><ele>2.4</ele><time>2021-02-18T16:14:56Z</time><name>PT15072</name></trkpt>
<trkpt lat="53.457114" lon="05.814650"><ele>2.3</ele><time>2021-02-18T16:14:57Z</time><name>PT15073</name></trkpt>
<trkpt lat="53.457102" lon="05.814647"><ele>2.3</ele><time>2021-02-18T16:14:58Z</time><name>PT15074</name></trkpt>
<trkpt lat="53.457090" lon="05.814644"><ele>2.2</ele><time>2021-02-18T16:14:59Z</time><name>PT15075</name></trkpt>
<trkpt lat="53.457078" lon="05.814642"><ele>2.1</ele><time>2021-02-18T16:15:00Z</time><name>PT15076</name></trkpt>
<trkpt lat="53.457066" lon="05.814641"><ele>2.1</ele><time>2021-02-18T16:15:01Z</time><name>PT15077</name></trkpt>
<trkpt lat="53.457053" lon="05.814638"><ele>2.3</ele><time>2021-02-18T16:15:02Z</time><name>PT15078</name></trkpt>
<trkpt lat="53.457040" lon="05.814635"><ele>2.3</ele><time>2021-02-18T16:15:03Z</time><name>PT15079</name></trkpt>
<trkpt lat="53.457030" lon="05.814632"><ele>2.7</ele><time>2021-02-18T16:15:04Z</time><name>PT15080</name></trkpt>
<trkpt lat="53.457020" lon="05.814632"><ele>2.9</ele><time>2021-02-18T16:15:05Z</time><name>PT15081</name></trkpt>
<trkpt lat="53.457010" lon="05.814633"><ele>3.2</ele><time>2021-02-18T16:15:06Z</time><name>PT15082</name></trkpt>
<trkpt lat="53.456999" lon="05.814634"><ele>3.3</ele><time>2021-02-18T16:15:07Z</time><name>PT15083</name></trkpt>
<trkpt lat="53.456988" lon="05.814633"><ele>3.3</ele><time>2021-02-18T16:15:08Z</time><name>PT15084</name></trkpt>
<trkpt lat="53.456977" lon="05.814632"><ele>3.3</ele><time>2021-02-18T16:15:09Z</time><name>PT15085</name></trkpt>
<trkpt lat="53.456965" lon="05.814631"><ele>3.3</ele><time>2021-02-18T16:15:10Z</time><name>PT15086</name></trkpt>
<trkpt lat="53.456953" lon="05.814630"><ele>3.3</ele><time>2021-02-18T16:15:11Z</time><name>PT15087</name></trkpt>
<trkpt lat="53.456941" lon="05.814627"><ele>3.3</ele><time>2021-02-18T16:15:12Z</time><name>PT15088</name></trkpt>
<trkpt lat="53.456929" lon="05.814623"><ele>3.3</ele><time>2021-02-18T16:15:13Z</time><name>PT15089</name></trkpt>
<trkpt lat="53.456917" lon="05.814618"><ele>3.3</ele><time>2021-02-18T16:15:14Z</time><name>PT15090</name></trkpt>
<trkpt lat="53.456906" lon="05.814614"><ele>3.3</ele><time>2021-02-18T16:15:15Z</time><name>PT15091</name></trkpt>
<trkpt lat="53.456894" lon="05.814613"><ele>3.4</ele><time>2021-02-18T16:15:16Z</time><name>PT15092</name></trkpt>
<trkpt lat="53.456882" lon="05.814612"><ele>3.3</ele><time>2021-02-18T16:15:17Z</time><name>PT15093</name></trkpt>
<trkpt lat="53.456870" lon="05.814610"><ele>3.4</ele><time>2021-02-18T16:15:18Z</time><name>PT15094</name></trkpt>
<trkpt lat="53.456857" lon="05.814608"><ele>3.5</ele><time>2021-02-18T16:15:19Z</time><name>PT15095</name></trkpt>
<trkpt lat="53.456845" lon="05.814607"><ele>3.5</ele><time>2021-02-18T16:15:20Z</time><name>PT15096</name></trkpt>
<trkpt lat="53.456834" lon="05.814607"><ele>3.5</ele><time>2021-02-18T16:15:21Z</time><name>PT15097</name></trkpt>
<trkpt lat="53.456824" lon="05.814608"><ele>3.7</ele><time>2021-02-18T16:15:22Z</time><name>PT15098</name></trkpt>
<trkpt lat="53.456813" lon="05.814608"><ele>3.5</ele><time>2021-02-18T16:15:23Z</time><name>PT15099</name></trkpt>
<trkpt lat="53.456804" lon="05.814606"><ele>3.2</ele><time>2021-02-18T16:15:24Z</time><name>PT15100</name></trkpt>
<trkpt lat="53.456793" lon="05.814601"><ele>3</ele><time>2021-02-18T16:15:25Z</time><name>PT15101</name></trkpt>
<trkpt lat="53.456783" lon="05.814597"><ele>2.8</ele><time>2021-02-18T16:15:26Z</time><name>PT15102</name></trkpt>
<trkpt lat="53.456772" lon="05.814593"><ele>2.4</ele><time>2021-02-18T16:15:27Z</time><name>PT15103</name></trkpt>
<trkpt lat="53.456760" lon="05.814589"><ele>2.4</ele><time>2021-02-18T16:15:28Z</time><name>PT15104</name></trkpt>
<trkpt lat="53.456749" lon="05.814589"><ele>2.3</ele><time>2021-02-18T16:15:29Z</time><name>PT15105</name></trkpt>
<trkpt lat="53.456737" lon="05.814589"><ele>2.3</ele><time>2021-02-18T16:15:30Z</time><name>PT15106</name></trkpt>
<trkpt lat="53.456725" lon="05.814586"><ele>2.5</ele><time>2021-02-18T16:15:31Z</time><name>PT15107</name></trkpt>
<trkpt lat="53.456713" lon="05.814585"><ele>2.6</ele><time>2021-02-18T16:15:32Z</time><name>PT15108</name></trkpt>
<trkpt lat="53.456701" lon="05.814586"><ele>2.7</ele><time>2021-02-18T16:15:33Z</time><name>PT15109</name></trkpt>
<trkpt lat="53.456690" lon="05.814586"><ele>2.6</ele><time>2021-02-18T16:15:34Z</time><name>PT15110</name></trkpt>
<trkpt lat="53.456680" lon="05.814584"><ele>2.6</ele><time>2021-02-18T16:15:35Z</time><name>PT15111</name></trkpt>
<trkpt lat="53.456669" lon="05.814583"><ele>2.5</ele><time>2021-02-18T16:15:36Z</time><name>PT15112</name></trkpt>
<trkpt lat="53.456659" lon="05.814580"><ele>2.5</ele><time>2021-02-18T16:15:37Z</time><name>PT15113</name></trkpt>
<trkpt lat="53.456648" lon="05.814576"><ele>2.5</ele><time>2021-02-18T16:15:38Z</time><name>PT15114</name></trkpt>
<trkpt lat="53.456637" lon="05.814572"><ele>2.4</ele><time>2021-02-18T16:15:39Z</time><name>PT15115</name></trkpt>
<trkpt lat="53.456626" lon="05.814572"><ele>2.4</ele><time>2021-02-18T16:15:40Z</time><name>PT15116</name></trkpt>
<trkpt lat="53.456616" lon="05.814571"><ele>2.4</ele><time>2021-02-18T16:15:41Z</time><name>PT15117</name></trkpt>
<trkpt lat="53.456605" lon="05.814571"><ele>2.3</ele><time>2021-02-18T16:15:42Z</time><name>PT15118</name></trkpt>
<trkpt lat="53.456594" lon="05.814570"><ele>2.6</ele><time>2021-02-18T16:15:43Z</time><name>PT15119</name></trkpt>
<trkpt lat="53.456583" lon="05.814571"><ele>2.5</ele><time>2021-02-18T16:15:44Z</time><name>PT15120</name></trkpt>
<trkpt lat="53.456572" lon="05.814570"><ele>2.3</ele><time>2021-02-18T16:15:45Z</time><name>PT15121</name></trkpt>
<trkpt lat="53.456560" lon="05.814569"><ele>2.3</ele><time>2021-02-18T16:15:46Z</time><name>PT15122</name></trkpt>
<trkpt lat="53.456548" lon="05.814568"><ele>2.4</ele><time>2021-02-18T16:15:47Z</time><name>PT15123</name></trkpt>
<trkpt lat="53.456535" lon="05.814567"><ele>2.3</ele><time>2021-02-18T16:15:48Z</time><name>PT15124</name></trkpt>
<trkpt lat="53.456525" lon="05.814569"><ele>2.3</ele><time>2021-02-18T16:15:49Z</time><name>PT15125</name></trkpt>
<trkpt lat="53.456514" lon="05.814570"><ele>2.3</ele><time>2021-02-18T16:15:50Z</time><name>PT15126</name></trkpt>
<trkpt lat="53.456502" lon="05.814568"><ele>2.3</ele><time>2021-02-18T16:15:51Z</time><name>PT15127</name></trkpt>
<trkpt lat="53.456491" lon="05.814568"><ele>2.1</ele><time>2021-02-18T16:15:52Z</time><name>PT15128</name></trkpt>
<trkpt lat="53.456480" lon="05.814567"><ele>2.3</ele><time>2021-02-18T16:15:53Z</time><name>PT15129</name></trkpt>
<trkpt lat="53.456468" lon="05.814565"><ele>2.1</ele><time>2021-02-18T16:15:54Z</time><name>PT15130</name></trkpt>
<trkpt lat="53.456456" lon="05.814563"><ele>2.1</ele><time>2021-02-18T16:15:55Z</time><name>PT15131</name></trkpt>
<trkpt lat="53.456444" lon="05.814561"><ele>2</ele><time>2021-02-18T16:15:56Z</time><name>PT15132</name></trkpt>
<trkpt lat="53.456433" lon="05.814559"><ele>2.3</ele><time>2021-02-18T16:15:57Z</time><name>PT15133</name></trkpt>
<trkpt lat="53.456423" lon="05.814560"><ele>1.9</ele><time>2021-02-18T16:15:58Z</time><name>PT15134</name></trkpt>
<trkpt lat="53.456413" lon="05.814561"><ele>2</ele><time>2021-02-18T16:15:59Z</time><name>PT15135</name></trkpt>
<trkpt lat="53.456401" lon="05.814560"><ele>2.1</ele><time>2021-02-18T16:16:00Z</time><name>PT15136</name></trkpt>
<trkpt lat="53.456390" lon="05.814558"><ele>1.8</ele><time>2021-02-18T16:16:01Z</time><name>PT15137</name></trkpt>
<trkpt lat="53.456380" lon="05.814555"><ele>1.7</ele><time>2021-02-18T16:16:02Z</time><name>PT15138</name></trkpt>
<trkpt lat="53.456368" lon="05.814554"><ele>1.7</ele><time>2021-02-18T16:16:03Z</time><name>PT15139</name></trkpt>
<trkpt lat="53.456356" lon="05.814552"><ele>1.8</ele><time>2021-02-18T16:16:04Z</time><name>PT15140</name></trkpt>
<trkpt lat="53.456345" lon="05.814552"><ele>1.8</ele><time>2021-02-18T16:16:05Z</time><name>PT15141</name></trkpt>
<trkpt lat="53.456332" lon="05.814549"><ele>1.8</ele><time>2021-02-18T16:16:06Z</time><name>PT15142</name></trkpt>
<trkpt lat="53.456320" lon="05.814547"><ele>2.2</ele><time>2021-02-18T16:16:07Z</time><name>PT15143</name></trkpt>
<trkpt lat="53.456305" lon="05.814541"><ele>2.2</ele><time>2021-02-18T16:16:08Z</time><name>PT15144</name></trkpt>
<trkpt lat="53.456294" lon="05.814539"><ele>2.1</ele><time>2021-02-18T16:16:09Z</time><name>PT15145</name></trkpt>
<trkpt lat="53.456283" lon="05.814535"><ele>2.2</ele><time>2021-02-18T16:16:10Z</time><name>PT15146</name></trkpt>
<trkpt lat="53.456273" lon="05.814535"><ele>2.1</ele><time>2021-02-18T16:16:11Z</time><name>PT15147</name></trkpt>
<trkpt lat="53.456262" lon="05.814534"><ele>1.9</ele><time>2021-02-18T16:16:12Z</time><name>PT15148</name></trkpt>
<trkpt lat="53.456249" lon="05.814530"><ele>1.8</ele><time>2021-02-18T16:16:13Z</time><name>PT15149</name></trkpt>
<trkpt lat="53.456236" lon="05.814528"><ele>1.8</ele><time>2021-02-18T16:16:14Z</time><name>PT15150</name></trkpt>
<trkpt lat="53.456223" lon="05.814527"><ele>2</ele><time>2021-02-18T16:16:15Z</time><name>PT15151</name></trkpt>
<trkpt lat="53.456209" lon="05.814525"><ele>2.3</ele><time>2021-02-18T16:16:16Z</time><name>PT15152</name></trkpt>
<trkpt lat="53.456198" lon="05.814523"><ele>2.3</ele><time>2021-02-18T16:16:17Z</time><name>PT15153</name></trkpt>
<trkpt lat="53.456187" lon="05.814523"><ele>2.4</ele><time>2021-02-18T16:16:18Z</time><name>PT15154</name></trkpt>
<trkpt lat="53.456174" lon="05.814523"><ele>2.4</ele><time>2021-02-18T16:16:19Z</time><name>PT15155</name></trkpt>
<trkpt lat="53.456163" lon="05.814524"><ele>2.5</ele><time>2021-02-18T16:16:20Z</time><name>PT15156</name></trkpt>
<trkpt lat="53.456150" lon="05.814522"><ele>2.3</ele><time>2021-02-18T16:16:21Z</time><name>PT15157</name></trkpt>
<trkpt lat="53.456140" lon="05.814523"><ele>2.3</ele><time>2021-02-18T16:16:22Z</time><name>PT15158</name></trkpt>
<trkpt lat="53.456129" lon="05.814519"><ele>2.4</ele><time>2021-02-18T16:16:23Z</time><name>PT15159</name></trkpt>
<trkpt lat="53.456121" lon="05.814520"><ele>2.3</ele><time>2021-02-18T16:16:24Z</time><name>PT15160</name></trkpt>
<trkpt lat="53.456112" lon="05.814519"><ele>2.2</ele><time>2021-02-18T16:16:25Z</time><name>PT15161</name></trkpt>
<trkpt lat="53.456100" lon="05.814516"><ele>2.3</ele><time>2021-02-18T16:16:26Z</time><name>PT15162</name></trkpt>
<trkpt lat="53.456087" lon="05.814511"><ele>2.3</ele><time>2021-02-18T16:16:27Z</time><name>PT15163</name></trkpt>
<trkpt lat="53.456077" lon="05.814509"><ele>2.4</ele><time>2021-02-18T16:16:28Z</time><name>PT15164</name></trkpt>
<trkpt lat="53.456066" lon="05.814508"><ele>2.5</ele><time>2021-02-18T16:16:29Z</time><name>PT15165</name></trkpt>
<trkpt lat="53.456053" lon="05.814508"><ele>2.7</ele><time>2021-02-18T16:16:30Z</time><name>PT15166</name></trkpt>
<trkpt lat="53.456042" lon="05.814508"><ele>2.6</ele><time>2021-02-18T16:16:31Z</time><name>PT15167</name></trkpt>
<trkpt lat="53.456032" lon="05.814507"><ele>2.6</ele><time>2021-02-18T16:16:32Z</time><name>PT15168</name></trkpt>
<trkpt lat="53.456022" lon="05.814505"><ele>2.7</ele><time>2021-02-18T16:16:33Z</time><name>PT15169</name></trkpt>
<trkpt lat="53.456010" lon="05.814504"><ele>2.7</ele><time>2021-02-18T16:16:34Z</time><name>PT15170</name></trkpt>
<trkpt lat="53.455999" lon="05.814502"><ele>2.8</ele><time>2021-02-18T16:16:35Z</time><name>PT15171</name></trkpt>
<trkpt lat="53.455987" lon="05.814500"><ele>2.8</ele><time>2021-02-18T16:16:36Z</time><name>PT15172</name></trkpt>
<trkpt lat="53.455974" lon="05.814498"><ele>2.7</ele><time>2021-02-18T16:16:37Z</time><name>PT15173</name></trkpt>
<trkpt lat="53.455964" lon="05.814500"><ele>2.8</ele><time>2021-02-18T16:16:38Z</time><name>PT15174</name></trkpt>
<trkpt lat="53.455952" lon="05.814501"><ele>2.8</ele><time>2021-02-18T16:16:39Z</time><name>PT15175</name></trkpt>
<trkpt lat="53.455940" lon="05.814500"><ele>2.8</ele><time>2021-02-18T16:16:40Z</time><name>PT15176</name></trkpt>
<trkpt lat="53.455929" lon="05.814495"><ele>2.6</ele><time>2021-02-18T16:16:41Z</time><name>PT15177</name></trkpt>
<trkpt lat="53.455922" lon="05.814494"><ele>2.5</ele><time>2021-02-18T16:16:42Z</time><name>PT15178</name></trkpt>
<trkpt lat="53.455914" lon="05.814491"><ele>2.3</ele><time>2021-02-18T16:16:43Z</time><name>PT15179</name></trkpt>
<trkpt lat="53.455908" lon="05.814491"><ele>2.2</ele><time>2021-02-18T16:16:44Z</time><name>PT15180</name></trkpt>
<trkpt lat="53.455906" lon="05.814490"><ele>2.5</ele><time>2021-02-18T16:16:45Z</time><name>PT15181</name></trkpt>
<trkpt lat="53.455908" lon="05.814494"><ele>2.9</ele><time>2021-02-18T16:16:46Z</time><name>PT15182</name></trkpt>
<trkpt lat="53.455908" lon="05.814495"><ele>3.1</ele><time>2021-02-18T16:16:47Z</time><name>PT15183</name></trkpt>
<trkpt lat="53.455908" lon="05.814497"><ele>3.3</ele><time>2021-02-18T16:16:48Z</time><name>PT15184</name></trkpt>
<trkpt lat="53.455904" lon="05.814502"><ele>3.1</ele><time>2021-02-18T16:16:53Z</time><name>PT15185</name></trkpt>
<trkpt lat="53.455892" lon="05.814506"><ele>2.9</ele><time>2021-02-18T16:16:54Z</time><name>PT15186</name></trkpt>
<trkpt lat="53.455881" lon="05.814506"><ele>2.8</ele><time>2021-02-18T16:16:55Z</time><name>PT15187</name></trkpt>
<trkpt lat="53.455871" lon="05.814502"><ele>2.8</ele><time>2021-02-18T16:16:56Z</time><name>PT15188</name></trkpt>
<trkpt lat="53.455860" lon="05.814502"><ele>2.5</ele><time>2021-02-18T16:16:57Z</time><name>PT15189</name></trkpt>
<trkpt lat="53.455850" lon="05.814503"><ele>2.2</ele><time>2021-02-18T16:16:58Z</time><name>PT15190</name></trkpt>
<trkpt lat="53.455839" lon="05.814504"><ele>2</ele><time>2021-02-18T16:16:59Z</time><name>PT15191</name></trkpt>
<trkpt lat="53.455830" lon="05.814504"><ele>1.9</ele><time>2021-02-18T16:17:00Z</time><name>PT15192</name></trkpt>
<trkpt lat="53.455820" lon="05.814501"><ele>2</ele><time>2021-02-18T16:17:01Z</time><name>PT15193</name></trkpt>
<trkpt lat="53.455809" lon="05.814500"><ele>2</ele><time>2021-02-18T16:17:02Z</time><name>PT15194</name></trkpt>
<trkpt lat="53.455798" lon="05.814500"><ele>2.1</ele><time>2021-02-18T16:17:03Z</time><name>PT15195</name></trkpt>
<trkpt lat="53.455788" lon="05.814500"><ele>2.2</ele><time>2021-02-18T16:17:04Z</time><name>PT15196</name></trkpt>
<trkpt lat="53.455777" lon="05.814499"><ele>2.3</ele><time>2021-02-18T16:17:05Z</time><name>PT15197</name></trkpt>
<trkpt lat="53.455766" lon="05.814501"><ele>2.3</ele><time>2021-02-18T16:17:06Z</time><name>PT15198</name></trkpt>
<trkpt lat="53.455757" lon="05.814502"><ele>2.1</ele><time>2021-02-18T16:17:07Z</time><name>PT15199</name></trkpt>
<trkpt lat="53.455748" lon="05.814503"><ele>2.3</ele><time>2021-02-18T16:17:08Z</time><name>PT15200</name></trkpt>
<trkpt lat="53.455737" lon="05.814504"><ele>2.2</ele><time>2021-02-18T16:17:09Z</time><name>PT15201</name></trkpt>
<trkpt lat="53.455728" lon="05.814503"><ele>2.3</ele><time>2021-02-18T16:17:10Z</time><name>PT15202</name></trkpt>
<trkpt lat="53.455717" lon="05.814503"><ele>2.5</ele><time>2021-02-18T16:17:11Z</time><name>PT15203</name></trkpt>
<trkpt lat="53.455703" lon="05.814495"><ele>2.9</ele><time>2021-02-18T16:17:12Z</time><name>PT15204</name></trkpt>
<trkpt lat="53.455693" lon="05.814489"><ele>3.1</ele><time>2021-02-18T16:17:13Z</time><name>PT15205</name></trkpt>
<trkpt lat="53.455685" lon="05.814479"><ele>3.3</ele><time>2021-02-18T16:17:14Z</time><name>PT15206</name></trkpt>
<trkpt lat="53.455675" lon="05.814467"><ele>3.5</ele><time>2021-02-18T16:17:15Z</time><name>PT15207</name></trkpt>
<trkpt lat="53.455664" lon="05.814458"><ele>3.3</ele><time>2021-02-18T16:17:16Z</time><name>PT15208</name></trkpt>
<trkpt lat="53.455654" lon="05.814449"><ele>3.3</ele><time>2021-02-18T16:17:17Z</time><name>PT15209</name></trkpt>
<trkpt lat="53.455645" lon="05.814437"><ele>3.3</ele><time>2021-02-18T16:17:18Z</time><name>PT15210</name></trkpt>
<trkpt lat="53.455635" lon="05.814422"><ele>3.1</ele><time>2021-02-18T16:17:19Z</time><name>PT15211</name></trkpt>
<trkpt lat="53.455626" lon="05.814408"><ele>3.1</ele><time>2021-02-18T16:17:20Z</time><name>PT15212</name></trkpt>
<trkpt lat="53.455619" lon="05.814394"><ele>3.3</ele><time>2021-02-18T16:17:21Z</time><name>PT15213</name></trkpt>
<trkpt lat="53.455614" lon="05.814378"><ele>3.3</ele><time>2021-02-18T16:17:22Z</time><name>PT15214</name></trkpt>
<trkpt lat="53.455609" lon="05.814357"><ele>3.3</ele><time>2021-02-18T16:17:23Z</time><name>PT15215</name></trkpt>
<trkpt lat="53.455608" lon="05.814341"><ele>3.3</ele><time>2021-02-18T16:17:24Z</time><name>PT15216</name></trkpt>
<trkpt lat="53.455609" lon="05.814319"><ele>3.4</ele><time>2021-02-18T16:17:25Z</time><name>PT15217</name></trkpt>
<trkpt lat="53.455608" lon="05.814300"><ele>3.5</ele><time>2021-02-18T16:17:26Z</time><name>PT15218</name></trkpt>
<trkpt lat="53.455604" lon="05.814280"><ele>3.4</ele><time>2021-02-18T16:17:27Z</time><name>PT15219</name></trkpt>
<trkpt lat="53.455604" lon="05.814257"><ele>3.5</ele><time>2021-02-18T16:17:28Z</time><name>PT15220</name></trkpt>
<trkpt lat="53.455604" lon="05.814233"><ele>3.6</ele><time>2021-02-18T16:17:29Z</time><name>PT15221</name></trkpt>
<trkpt lat="53.455604" lon="05.814209"><ele>3.5</ele><time>2021-02-18T16:17:30Z</time><name>PT15222</name></trkpt>
<trkpt lat="53.455604" lon="05.814187"><ele>3.6</ele><time>2021-02-18T16:17:31Z</time><name>PT15223</name></trkpt>
<trkpt lat="53.455604" lon="05.814163"><ele>3.6</ele><time>2021-02-18T16:17:32Z</time><name>PT15224</name></trkpt>
<trkpt lat="53.455605" lon="05.814139"><ele>3.4</ele><time>2021-02-18T16:17:33Z</time><name>PT15225</name></trkpt>
<trkpt lat="53.455604" lon="05.814116"><ele>3.3</ele><time>2021-02-18T16:17:34Z</time><name>PT15226</name></trkpt>
<trkpt lat="53.455604" lon="05.814094"><ele>3.3</ele><time>2021-02-18T16:17:35Z</time><name>PT15227</name></trkpt>
<trkpt lat="53.455604" lon="05.814073"><ele>3.4</ele><time>2021-02-18T16:17:36Z</time><name>PT15228</name></trkpt>
<trkpt lat="53.455603" lon="05.814051"><ele>3.3</ele><time>2021-02-18T16:17:37Z</time><name>PT15229</name></trkpt>
<trkpt lat="53.455600" lon="05.814026"><ele>3.4</ele><time>2021-02-18T16:17:38Z</time><name>PT15230</name></trkpt>
<trkpt lat="53.455599" lon="05.814001"><ele>3.4</ele><time>2021-02-18T16:17:39Z</time><name>PT15231</name></trkpt>
<trkpt lat="53.455598" lon="05.813978"><ele>3.3</ele><time>2021-02-18T16:17:40Z</time><name>PT15232</name></trkpt>
<trkpt lat="53.455598" lon="05.813955"><ele>3.3</ele><time>2021-02-18T16:17:41Z</time><name>PT15233</name></trkpt>
<trkpt lat="53.455597" lon="05.813934"><ele>3.3</ele><time>2021-02-18T16:17:42Z</time><name>PT15234</name></trkpt>
<trkpt lat="53.455596" lon="05.813913"><ele>3.3</ele><time>2021-02-18T16:17:43Z</time><name>PT15235</name></trkpt>
<trkpt lat="53.455595" lon="05.813890"><ele>3.3</ele><time>2021-02-18T16:17:44Z</time><name>PT15236</name></trkpt>
<trkpt lat="53.455593" lon="05.813868"><ele>3.2</ele><time>2021-02-18T16:17:45Z</time><name>PT15237</name></trkpt>
<trkpt lat="53.455592" lon="05.813846"><ele>3.3</ele><time>2021-02-18T16:17:46Z</time><name>PT15238</name></trkpt>
<trkpt lat="53.455592" lon="05.813823"><ele>3.3</ele><time>2021-02-18T16:17:47Z</time><name>PT15239</name></trkpt>
<trkpt lat="53.455592" lon="05.813802"><ele>3.5</ele><time>2021-02-18T16:17:48Z</time><name>PT15240</name></trkpt>
<trkpt lat="53.455591" lon="05.813782"><ele>3.4</ele><time>2021-02-18T16:17:49Z</time><name>PT15241</name></trkpt>
<trkpt lat="53.455589" lon="05.813760"><ele>3.4</ele><time>2021-02-18T16:17:50Z</time><name>PT15242</name></trkpt>
<trkpt lat="53.455586" lon="05.813739"><ele>3.3</ele><time>2021-02-18T16:17:51Z</time><name>PT15243</name></trkpt>
<trkpt lat="53.455584" lon="05.813718"><ele>3.3</ele><time>2021-02-18T16:17:52Z</time><name>PT15244</name></trkpt>
<trkpt lat="53.455581" lon="05.813699"><ele>3.2</ele><time>2021-02-18T16:17:53Z</time><name>PT15245</name></trkpt>
<trkpt lat="53.455579" lon="05.813677"><ele>3.3</ele><time>2021-02-18T16:17:54Z</time><name>PT15246</name></trkpt>
<trkpt lat="53.455577" lon="05.813655"><ele>3.4</ele><time>2021-02-18T16:17:55Z</time><name>PT15247</name></trkpt>
<trkpt lat="53.455575" lon="05.813633"><ele>3.5</ele><time>2021-02-18T16:17:56Z</time><name>PT15248</name></trkpt>
<trkpt lat="53.455572" lon="05.813612"><ele>3.5</ele><time>2021-02-18T16:17:57Z</time><name>PT15249</name></trkpt>
<trkpt lat="53.455570" lon="05.813590"><ele>3.5</ele><time>2021-02-18T16:17:58Z</time><name>PT15250</name></trkpt>
<trkpt lat="53.455568" lon="05.813569"><ele>3.5</ele><time>2021-02-18T16:17:59Z</time><name>PT15251</name></trkpt>
<trkpt lat="53.455566" lon="05.813549"><ele>3.8</ele><time>2021-02-18T16:18:00Z</time><name>PT15252</name></trkpt>
<trkpt lat="53.455564" lon="05.813527"><ele>3.7</ele><time>2021-02-18T16:18:01Z</time><name>PT15253</name></trkpt>
<trkpt lat="53.455562" lon="05.813507"><ele>3.8</ele><time>2021-02-18T16:18:02Z</time><name>PT15254</name></trkpt>
<trkpt lat="53.455562" lon="05.813485"><ele>3.9</ele><time>2021-02-18T16:18:03Z</time><name>PT15255</name></trkpt>
<trkpt lat="53.455560" lon="05.813463"><ele>3.5</ele><time>2021-02-18T16:18:04Z</time><name>PT15256</name></trkpt>
<trkpt lat="53.455558" lon="05.813442"><ele>3.6</ele><time>2021-02-18T16:18:05Z</time><name>PT15257</name></trkpt>
<trkpt lat="53.455557" lon="05.813421"><ele>3.4</ele><time>2021-02-18T16:18:06Z</time><name>PT15258</name></trkpt>
<trkpt lat="53.455555" lon="05.813399"><ele>3.3</ele><time>2021-02-18T16:18:07Z</time><name>PT15259</name></trkpt>
<trkpt lat="53.455554" lon="05.813380"><ele>3.3</ele><time>2021-02-18T16:18:08Z</time><name>PT15260</name></trkpt>
<trkpt lat="53.455553" lon="05.813361"><ele>3.3</ele><time>2021-02-18T16:18:09Z</time><name>PT15261</name></trkpt>
<trkpt lat="53.455553" lon="05.813340"><ele>3.3</ele><time>2021-02-18T16:18:10Z</time><name>PT15262</name></trkpt>
<trkpt lat="53.455551" lon="05.813318"><ele>3.4</ele><time>2021-02-18T16:18:11Z</time><name>PT15263</name></trkpt>
<trkpt lat="53.455548" lon="05.813294"><ele>3.3</ele><time>2021-02-18T16:18:12Z</time><name>PT15264</name></trkpt>
<trkpt lat="53.455547" lon="05.813272"><ele>3.3</ele><time>2021-02-18T16:18:13Z</time><name>PT15265</name></trkpt>
<trkpt lat="53.455546" lon="05.813249"><ele>3.3</ele><time>2021-02-18T16:18:14Z</time><name>PT15266</name></trkpt>
<trkpt lat="53.455544" lon="05.813225"><ele>3.3</ele><time>2021-02-18T16:18:15Z</time><name>PT15267</name></trkpt>
<trkpt lat="53.455544" lon="05.813205"><ele>3.4</ele><time>2021-02-18T16:18:16Z</time><name>PT15268</name></trkpt>
<trkpt lat="53.455545" lon="05.813183"><ele>3.5</ele><time>2021-02-18T16:18:17Z</time><name>PT15269</name></trkpt>
<trkpt lat="53.455545" lon="05.813165"><ele>3.7</ele><time>2021-02-18T16:18:18Z</time><name>PT15270</name></trkpt>
<trkpt lat="53.455545" lon="05.813146"><ele>3.8</ele><time>2021-02-18T16:18:19Z</time><name>PT15271</name></trkpt>
<trkpt lat="53.455546" lon="05.813128"><ele>3.9</ele><time>2021-02-18T16:18:20Z</time><name>PT15272</name></trkpt>
<trkpt lat="53.455546" lon="05.813108"><ele>3.8</ele><time>2021-02-18T16:18:21Z</time><name>PT15273</name></trkpt>
<trkpt lat="53.455545" lon="05.813089"><ele>3.8</ele><time>2021-02-18T16:18:22Z</time><name>PT15274</name></trkpt>
<trkpt lat="53.455544" lon="05.813070"><ele>3.8</ele><time>2021-02-18T16:18:23Z</time><name>PT15275</name></trkpt>
<trkpt lat="53.455543" lon="05.813053"><ele>3.7</ele><time>2021-02-18T16:18:24Z</time><name>PT15276</name></trkpt>
<trkpt lat="53.455543" lon="05.813035"><ele>3.8</ele><time>2021-02-18T16:18:25Z</time><name>PT15277</name></trkpt>
<trkpt lat="53.455545" lon="05.813018"><ele>3.8</ele><time>2021-02-18T16:18:26Z</time><name>PT15278</name></trkpt>
<trkpt lat="53.455546" lon="05.813002"><ele>3.8</ele><time>2021-02-18T16:18:27Z</time><name>PT15279</name></trkpt>
<trkpt lat="53.455547" lon="05.812984"><ele>3.9</ele><time>2021-02-18T16:18:28Z</time><name>PT15280</name></trkpt>
<trkpt lat="53.455547" lon="05.812965"><ele>3.9</ele><time>2021-02-18T16:18:29Z</time><name>PT15281</name></trkpt>
<trkpt lat="53.455548" lon="05.812945"><ele>3.8</ele><time>2021-02-18T16:18:30Z</time><name>PT15282</name></trkpt>
<trkpt lat="53.455549" lon="05.812925"><ele>3.5</ele><time>2021-02-18T16:18:31Z</time><name>PT15283</name></trkpt>
<trkpt lat="53.455549" lon="05.812905"><ele>3.5</ele><time>2021-02-18T16:18:32Z</time><name>PT15284</name></trkpt>
<trkpt lat="53.455549" lon="05.812883"><ele>3.4</ele><time>2021-02-18T16:18:33Z</time><name>PT15285</name></trkpt>
<trkpt lat="53.455549" lon="05.812862"><ele>3.5</ele><time>2021-02-18T16:18:34Z</time><name>PT15286</name></trkpt>
<trkpt lat="53.455551" lon="05.812842"><ele>3.4</ele><time>2021-02-18T16:18:35Z</time><name>PT15287</name></trkpt>
<trkpt lat="53.455554" lon="05.812820"><ele>3.5</ele><time>2021-02-18T16:18:36Z</time><name>PT15288</name></trkpt>
<trkpt lat="53.455555" lon="05.812798"><ele>3.7</ele><time>2021-02-18T16:18:37Z</time><name>PT15289</name></trkpt>
<trkpt lat="53.455557" lon="05.812779"><ele>3.7</ele><time>2021-02-18T16:18:38Z</time><name>PT15290</name></trkpt>
<trkpt lat="53.455558" lon="05.812760"><ele>3.7</ele><time>2021-02-18T16:18:39Z</time><name>PT15291</name></trkpt>
<trkpt lat="53.455560" lon="05.812733"><ele>3.7</ele><time>2021-02-18T16:18:40Z</time><name>PT15292</name></trkpt>
<trkpt lat="53.455561" lon="05.812708"><ele>3.7</ele><time>2021-02-18T16:18:41Z</time><name>PT15293</name></trkpt>
<trkpt lat="53.455560" lon="05.812684"><ele>3.6</ele><time>2021-02-18T16:18:42Z</time><name>PT15294</name></trkpt>
<trkpt lat="53.455561" lon="05.812663"><ele>3.4</ele><time>2021-02-18T16:18:43Z</time><name>PT15295</name></trkpt>
<trkpt lat="53.455561" lon="05.812642"><ele>3.4</ele><time>2021-02-18T16:18:44Z</time><name>PT15296</name></trkpt>
<trkpt lat="53.455561" lon="05.812621"><ele>3.5</ele><time>2021-02-18T16:18:45Z</time><name>PT15297</name></trkpt>
<trkpt lat="53.455560" lon="05.812601"><ele>3.4</ele><time>2021-02-18T16:18:46Z</time><name>PT15298</name></trkpt>
<trkpt lat="53.455561" lon="05.812578"><ele>3.4</ele><time>2021-02-18T16:18:47Z</time><name>PT15299</name></trkpt>
<trkpt lat="53.455561" lon="05.812558"><ele>3.5</ele><time>2021-02-18T16:18:48Z</time><name>PT15300</name></trkpt>
<trkpt lat="53.455561" lon="05.812538"><ele>3.5</ele><time>2021-02-18T16:18:49Z</time><name>PT15301</name></trkpt>
<trkpt lat="53.455561" lon="05.812518"><ele>3.4</ele><time>2021-02-18T16:18:50Z</time><name>PT15302</name></trkpt>
<trkpt lat="53.455561" lon="05.812499"><ele>3.5</ele><time>2021-02-18T16:18:51Z</time><name>PT15303</name></trkpt>
<trkpt lat="53.455558" lon="05.812478"><ele>3.4</ele><time>2021-02-18T16:18:52Z</time><name>PT15304</name></trkpt>
<trkpt lat="53.455557" lon="05.812457"><ele>3.4</ele><time>2021-02-18T16:18:53Z</time><name>PT15305</name></trkpt>
<trkpt lat="53.455556" lon="05.812437"><ele>3.5</ele><time>2021-02-18T16:18:54Z</time><name>PT15306</name></trkpt>
<trkpt lat="53.455555" lon="05.812413"><ele>3.5</ele><time>2021-02-18T16:18:55Z</time><name>PT15307</name></trkpt>
<trkpt lat="53.455552" lon="05.812391"><ele>3.6</ele><time>2021-02-18T16:18:56Z</time><name>PT15308</name></trkpt>
<trkpt lat="53.455548" lon="05.812369"><ele>3.7</ele><time>2021-02-18T16:18:57Z</time><name>PT15309</name></trkpt>
<trkpt lat="53.455547" lon="05.812347"><ele>3.5</ele><time>2021-02-18T16:18:58Z</time><name>PT15310</name></trkpt>
<trkpt lat="53.455545" lon="05.812325"><ele>3.6</ele><time>2021-02-18T16:18:59Z</time><name>PT15311</name></trkpt>
<trkpt lat="53.455543" lon="05.812304"><ele>3.7</ele><time>2021-02-18T16:19:00Z</time><name>PT15312</name></trkpt>
<trkpt lat="53.455541" lon="05.812281"><ele>3.7</ele><time>2021-02-18T16:19:01Z</time><name>PT15313</name></trkpt>
<trkpt lat="53.455538" lon="05.812261"><ele>3.7</ele><time>2021-02-18T16:19:02Z</time><name>PT15314</name></trkpt>
<trkpt lat="53.455535" lon="05.812240"><ele>3.8</ele><time>2021-02-18T16:19:03Z</time><name>PT15315</name></trkpt>
<trkpt lat="53.455534" lon="05.812219"><ele>3.6</ele><time>2021-02-18T16:19:04Z</time><name>PT15316</name></trkpt>
<trkpt lat="53.455534" lon="05.812196"><ele>3.4</ele><time>2021-02-18T16:19:05Z</time><name>PT15317</name></trkpt>
<trkpt lat="53.455533" lon="05.812173"><ele>3.3</ele><time>2021-02-18T16:19:06Z</time><name>PT15318</name></trkpt>
<trkpt lat="53.455532" lon="05.812153"><ele>3.4</ele><time>2021-02-18T16:19:07Z</time><name>PT15319</name></trkpt>
<trkpt lat="53.455531" lon="05.812133"><ele>3.5</ele><time>2021-02-18T16:19:08Z</time><name>PT15320</name></trkpt>
<trkpt lat="53.455529" lon="05.812114"><ele>3.5</ele><time>2021-02-18T16:19:09Z</time><name>PT15321</name></trkpt>
<trkpt lat="53.455529" lon="05.812094"><ele>3.6</ele><time>2021-02-18T16:19:10Z</time><name>PT15322</name></trkpt>
<trkpt lat="53.455528" lon="05.812074"><ele>3.5</ele><time>2021-02-18T16:19:11Z</time><name>PT15323</name></trkpt>
<trkpt lat="53.455528" lon="05.812055"><ele>3.5</ele><time>2021-02-18T16:19:12Z</time><name>PT15324</name></trkpt>
<trkpt lat="53.455527" lon="05.812035"><ele>3.6</ele><time>2021-02-18T16:19:13Z</time><name>PT15325</name></trkpt>
<trkpt lat="53.455527" lon="05.812016"><ele>3.7</ele><time>2021-02-18T16:19:14Z</time><name>PT15326</name></trkpt>
<trkpt lat="53.455527" lon="05.811997"><ele>3.7</ele><time>2021-02-18T16:19:15Z</time><name>PT15327</name></trkpt>
<trkpt lat="53.455527" lon="05.811977"><ele>3.6</ele><time>2021-02-18T16:19:16Z</time><name>PT15328</name></trkpt>
<trkpt lat="53.455527" lon="05.811958"><ele>3.4</ele><time>2021-02-18T16:19:17Z</time><name>PT15329</name></trkpt>
<trkpt lat="53.455527" lon="05.811937"><ele>3.2</ele><time>2021-02-18T16:19:18Z</time><name>PT15330</name></trkpt>
<trkpt lat="53.455526" lon="05.811916"><ele>3.1</ele><time>2021-02-18T16:19:19Z</time><name>PT15331</name></trkpt>
<trkpt lat="53.455526" lon="05.811894"><ele>3.1</ele><time>2021-02-18T16:19:20Z</time><name>PT15332</name></trkpt>
<trkpt lat="53.455526" lon="05.811871"><ele>3.2</ele><time>2021-02-18T16:19:21Z</time><name>PT15333</name></trkpt>
<trkpt lat="53.455527" lon="05.811847"><ele>3.1</ele><time>2021-02-18T16:19:22Z</time><name>PT15334</name></trkpt>
<trkpt lat="53.455527" lon="05.811823"><ele>3.2</ele><time>2021-02-18T16:19:23Z</time><name>PT15335</name></trkpt>
<trkpt lat="53.455526" lon="05.811801"><ele>3.3</ele><time>2021-02-18T16:19:24Z</time><name>PT15336</name></trkpt>
<trkpt lat="53.455526" lon="05.811779"><ele>3.2</ele><time>2021-02-18T16:19:25Z</time><name>PT15337</name></trkpt>
<trkpt lat="53.455525" lon="05.811759"><ele>3.2</ele><time>2021-02-18T16:19:26Z</time><name>PT15338</name></trkpt>
<trkpt lat="53.455525" lon="05.811737"><ele>3.3</ele><time>2021-02-18T16:19:27Z</time><name>PT15339</name></trkpt>
<trkpt lat="53.455524" lon="05.811716"><ele>3.3</ele><time>2021-02-18T16:19:28Z</time><name>PT15340</name></trkpt>
<trkpt lat="53.455523" lon="05.811696"><ele>3.4</ele><time>2021-02-18T16:19:29Z</time><name>PT15341</name></trkpt>
<trkpt lat="53.455521" lon="05.811674"><ele>3.4</ele><time>2021-02-18T16:19:30Z</time><name>PT15342</name></trkpt>
<trkpt lat="53.455519" lon="05.811655"><ele>3.6</ele><time>2021-02-18T16:19:31Z</time><name>PT15343</name></trkpt>
<trkpt lat="53.455518" lon="05.811634"><ele>3.7</ele><time>2021-02-18T16:19:32Z</time><name>PT15344</name></trkpt>
<trkpt lat="53.455516" lon="05.811614"><ele>3.8</ele><time>2021-02-18T16:19:33Z</time><name>PT15345</name></trkpt>
<trkpt lat="53.455514" lon="05.811594"><ele>3.8</ele><time>2021-02-18T16:19:34Z</time><name>PT15346</name></trkpt>
<trkpt lat="53.455513" lon="05.811572"><ele>3.8</ele><time>2021-02-18T16:19:35Z</time><name>PT15347</name></trkpt>
<trkpt lat="53.455512" lon="05.811552"><ele>3.8</ele><time>2021-02-18T16:19:36Z</time><name>PT15348</name></trkpt>
<trkpt lat="53.455511" lon="05.811533"><ele>3.5</ele><time>2021-02-18T16:19:37Z</time><name>PT15349</name></trkpt>
<trkpt lat="53.455510" lon="05.811514"><ele>3.4</ele><time>2021-02-18T16:19:38Z</time><name>PT15350</name></trkpt>
<trkpt lat="53.455509" lon="05.811497"><ele>3.7</ele><time>2021-02-18T16:19:39Z</time><name>PT15351</name></trkpt>
<trkpt lat="53.455509" lon="05.811480"><ele>3.7</ele><time>2021-02-18T16:19:40Z</time><name>PT15352</name></trkpt>
<trkpt lat="53.455509" lon="05.811462"><ele>3.6</ele><time>2021-02-18T16:19:41Z</time><name>PT15353</name></trkpt>
<trkpt lat="53.455510" lon="05.811443"><ele>3.8</ele><time>2021-02-18T16:19:42Z</time><name>PT15354</name></trkpt>
<trkpt lat="53.455510" lon="05.811424"><ele>3.7</ele><time>2021-02-18T16:19:43Z</time><name>PT15355</name></trkpt>
<trkpt lat="53.455510" lon="05.811405"><ele>3.7</ele><time>2021-02-18T16:19:44Z</time><name>PT15356</name></trkpt>
<trkpt lat="53.455509" lon="05.811386"><ele>3.5</ele><time>2021-02-18T16:19:45Z</time><name>PT15357</name></trkpt>
<trkpt lat="53.455509" lon="05.811367"><ele>3.6</ele><time>2021-02-18T16:19:46Z</time><name>PT15358</name></trkpt>
<trkpt lat="53.455509" lon="05.811346"><ele>3.6</ele><time>2021-02-18T16:19:47Z</time><name>PT15359</name></trkpt>
<trkpt lat="53.455510" lon="05.811322"><ele>3.6</ele><time>2021-02-18T16:19:48Z</time><name>PT15360</name></trkpt>
<trkpt lat="53.455511" lon="05.811297"><ele>3.5</ele><time>2021-02-18T16:19:49Z</time><name>PT15361</name></trkpt>
<trkpt lat="53.455512" lon="05.811276"><ele>3.4</ele><time>2021-02-18T16:19:50Z</time><name>PT15362</name></trkpt>
<trkpt lat="53.455513" lon="05.811256"><ele>3.4</ele><time>2021-02-18T16:19:51Z</time><name>PT15363</name></trkpt>
<trkpt lat="53.455512" lon="05.811236"><ele>3.3</ele><time>2021-02-18T16:19:52Z</time><name>PT15364</name></trkpt>
<trkpt lat="53.455509" lon="05.811217"><ele>3.3</ele><time>2021-02-18T16:19:53Z</time><name>PT15365</name></trkpt>
<trkpt lat="53.455505" lon="05.811197"><ele>3.3</ele><time>2021-02-18T16:19:54Z</time><name>PT15366</name></trkpt>
<trkpt lat="53.455503" lon="05.811175"><ele>3.2</ele><time>2021-02-18T16:19:55Z</time><name>PT15367</name></trkpt>
<trkpt lat="53.455502" lon="05.811153"><ele>3.3</ele><time>2021-02-18T16:19:56Z</time><name>PT15368</name></trkpt>
<trkpt lat="53.455500" lon="05.811132"><ele>3.3</ele><time>2021-02-18T16:19:57Z</time><name>PT15369</name></trkpt>
<trkpt lat="53.455499" lon="05.811112"><ele>3.4</ele><time>2021-02-18T16:19:58Z</time><name>PT15370</name></trkpt>
<trkpt lat="53.455500" lon="05.811095"><ele>3.4</ele><time>2021-02-18T16:19:59Z</time><name>PT15371</name></trkpt>
<trkpt lat="53.455500" lon="05.811077"><ele>3.5</ele><time>2021-02-18T16:20:00Z</time><name>PT15372</name></trkpt>
<trkpt lat="53.455500" lon="05.811058"><ele>3.5</ele><time>2021-02-18T16:20:01Z</time><name>PT15373</name></trkpt>
<trkpt lat="53.455500" lon="05.811041"><ele>3.4</ele><time>2021-02-18T16:20:02Z</time><name>PT15374</name></trkpt>
<trkpt lat="53.455500" lon="05.811021"><ele>3.5</ele><time>2021-02-18T16:20:03Z</time><name>PT15375</name></trkpt>
<trkpt lat="53.455500" lon="05.811001"><ele>3.7</ele><time>2021-02-18T16:20:04Z</time><name>PT15376</name></trkpt>
<trkpt lat="53.455500" lon="05.810981"><ele>3.7</ele><time>2021-02-18T16:20:05Z</time><name>PT15377</name></trkpt>
<trkpt lat="53.455500" lon="05.810963"><ele>3.7</ele><time>2021-02-18T16:20:06Z</time><name>PT15378</name></trkpt>
<trkpt lat="53.455499" lon="05.810942"><ele>3.8</ele><time>2021-02-18T16:20:07Z</time><name>PT15379</name></trkpt>
<trkpt lat="53.455497" lon="05.810921"><ele>3.8</ele><time>2021-02-18T16:20:08Z</time><name>PT15380</name></trkpt>
<trkpt lat="53.455495" lon="05.810900"><ele>3.8</ele><time>2021-02-18T16:20:09Z</time><name>PT15381</name></trkpt>
<trkpt lat="53.455492" lon="05.810879"><ele>3.7</ele><time>2021-02-18T16:20:10Z</time><name>PT15382</name></trkpt>
<trkpt lat="53.455491" lon="05.810858"><ele>3.6</ele><time>2021-02-18T16:20:11Z</time><name>PT15383</name></trkpt>
<trkpt lat="53.455491" lon="05.810840"><ele>3.4</ele><time>2021-02-18T16:20:12Z</time><name>PT15384</name></trkpt>
<trkpt lat="53.455491" lon="05.810822"><ele>3.3</ele><time>2021-02-18T16:20:13Z</time><name>PT15385</name></trkpt>
<trkpt lat="53.455491" lon="05.810806"><ele>3.3</ele><time>2021-02-18T16:20:14Z</time><name>PT15386</name></trkpt>
<trkpt lat="53.455491" lon="05.810787"><ele>3.2</ele><time>2021-02-18T16:20:15Z</time><name>PT15387</name></trkpt>
<trkpt lat="53.455491" lon="05.810768"><ele>3.3</ele><time>2021-02-18T16:20:16Z</time><name>PT15388</name></trkpt>
<trkpt lat="53.455491" lon="05.810750"><ele>3.4</ele><time>2021-02-18T16:20:17Z</time><name>PT15389</name></trkpt>
<trkpt lat="53.455492" lon="05.810731"><ele>3.4</ele><time>2021-02-18T16:20:18Z</time><name>PT15390</name></trkpt>
<trkpt lat="53.455490" lon="05.810711"><ele>3.3</ele><time>2021-02-18T16:20:19Z</time><name>PT15391</name></trkpt>
<trkpt lat="53.455490" lon="05.810690"><ele>3.4</ele><time>2021-02-18T16:20:20Z</time><name>PT15392</name></trkpt>
<trkpt lat="53.455491" lon="05.810667"><ele>3.3</ele><time>2021-02-18T16:20:21Z</time><name>PT15393</name></trkpt>
<trkpt lat="53.455492" lon="05.810645"><ele>3.4</ele><time>2021-02-18T16:20:22Z</time><name>PT15394</name></trkpt>
<trkpt lat="53.455490" lon="05.810624"><ele>3.3</ele><time>2021-02-18T16:20:23Z</time><name>PT15395</name></trkpt>
<trkpt lat="53.455490" lon="05.810603"><ele>3.4</ele><time>2021-02-18T16:20:24Z</time><name>PT15396</name></trkpt>
<trkpt lat="53.455488" lon="05.810582"><ele>3.6</ele><time>2021-02-18T16:20:25Z</time><name>PT15397</name></trkpt>
<trkpt lat="53.455485" lon="05.810562"><ele>3.6</ele><time>2021-02-18T16:20:26Z</time><name>PT15398</name></trkpt>
<trkpt lat="53.455484" lon="05.810543"><ele>3.5</ele><time>2021-02-18T16:20:27Z</time><name>PT15399</name></trkpt>
<trkpt lat="53.455481" lon="05.810525"><ele>3.4</ele><time>2021-02-18T16:20:28Z</time><name>PT15400</name></trkpt>
<trkpt lat="53.455478" lon="05.810511"><ele>3.4</ele><time>2021-02-18T16:20:29Z</time><name>PT15401</name></trkpt>
<trkpt lat="53.455474" lon="05.810495"><ele>3.4</ele><time>2021-02-18T16:20:30Z</time><name>PT15402</name></trkpt>
<trkpt lat="53.455473" lon="05.810477"><ele>3.4</ele><time>2021-02-18T16:20:31Z</time><name>PT15403</name></trkpt>
<trkpt lat="53.455475" lon="05.810456"><ele>3.4</ele><time>2021-02-18T16:20:32Z</time><name>PT15404</name></trkpt>
<trkpt lat="53.455475" lon="05.810438"><ele>3.3</ele><time>2021-02-18T16:20:33Z</time><name>PT15405</name></trkpt>
<trkpt lat="53.455475" lon="05.810418"><ele>3.2</ele><time>2021-02-18T16:20:34Z</time><name>PT15406</name></trkpt>
<trkpt lat="53.455475" lon="05.810399"><ele>3.3</ele><time>2021-02-18T16:20:35Z</time><name>PT15407</name></trkpt>
<trkpt lat="53.455477" lon="05.810379"><ele>3.1</ele><time>2021-02-18T16:20:36Z</time><name>PT15408</name></trkpt>
<trkpt lat="53.455479" lon="05.810358"><ele>3</ele><time>2021-02-18T16:20:37Z</time><name>PT15409</name></trkpt>
<trkpt lat="53.455479" lon="05.810335"><ele>3.1</ele><time>2021-02-18T16:20:38Z</time><name>PT15410</name></trkpt>
<trkpt lat="53.455480" lon="05.810312"><ele>3.2</ele><time>2021-02-18T16:20:39Z</time><name>PT15411</name></trkpt>
<trkpt lat="53.455480" lon="05.810290"><ele>3.4</ele><time>2021-02-18T16:20:40Z</time><name>PT15412</name></trkpt>
<trkpt lat="53.455482" lon="05.810267"><ele>3.4</ele><time>2021-02-18T16:20:41Z</time><name>PT15413</name></trkpt>
<trkpt lat="53.455482" lon="05.810247"><ele>3.7</ele><time>2021-02-18T16:20:42Z</time><name>PT15414</name></trkpt>
<trkpt lat="53.455481" lon="05.810225"><ele>3.7</ele><time>2021-02-18T16:20:43Z</time><name>PT15415</name></trkpt>
<trkpt lat="53.455480" lon="05.810202"><ele>3.5</ele><time>2021-02-18T16:20:44Z</time><name>PT15416</name></trkpt>
<trkpt lat="53.455478" lon="05.810184"><ele>3.2</ele><time>2021-02-18T16:20:45Z</time><name>PT15417</name></trkpt>
<trkpt lat="53.455476" lon="05.810164"><ele>3.3</ele><time>2021-02-18T16:20:46Z</time><name>PT15418</name></trkpt>
<trkpt lat="53.455476" lon="05.810144"><ele>3.3</ele><time>2021-02-18T16:20:47Z</time><name>PT15419</name></trkpt>
<trkpt lat="53.455474" lon="05.810124"><ele>3.5</ele><time>2021-02-18T16:20:48Z</time><name>PT15420</name></trkpt>
<trkpt lat="53.455471" lon="05.810103"><ele>3.6</ele><time>2021-02-18T16:20:49Z</time><name>PT15421</name></trkpt>
<trkpt lat="53.455468" lon="05.810081"><ele>3.5</ele><time>2021-02-18T16:20:50Z</time><name>PT15422</name></trkpt>
<trkpt lat="53.455467" lon="05.810060"><ele>3.5</ele><time>2021-02-18T16:20:51Z</time><name>PT15423</name></trkpt>
<trkpt lat="53.455466" lon="05.810040"><ele>3.3</ele><time>2021-02-18T16:20:52Z</time><name>PT15424</name></trkpt>
<trkpt lat="53.455465" lon="05.810020"><ele>3.3</ele><time>2021-02-18T16:20:53Z</time><name>PT15425</name></trkpt>
<trkpt lat="53.455464" lon="05.809999"><ele>3.4</ele><time>2021-02-18T16:20:54Z</time><name>PT15426</name></trkpt>
<trkpt lat="53.455463" lon="05.809981"><ele>3.6</ele><time>2021-02-18T16:20:55Z</time><name>PT15427</name></trkpt>
<trkpt lat="53.455461" lon="05.809967"><ele>3.8</ele><time>2021-02-18T16:20:56Z</time><name>PT15428</name></trkpt>
<trkpt lat="53.455459" lon="05.809949"><ele>3.6</ele><time>2021-02-18T16:20:57Z</time><name>PT15429</name></trkpt>
<trkpt lat="53.455461" lon="05.809935"><ele>3.8</ele><time>2021-02-18T16:20:58Z</time><name>PT15430</name></trkpt>
<trkpt lat="53.455460" lon="05.809931"><ele>3.8</ele><time>2021-02-18T16:20:59Z</time><name>PT15431</name></trkpt>
<trkpt lat="53.455460" lon="05.809927"><ele>3.8</ele><time>2021-02-18T16:21:00Z</time><name>PT15432</name></trkpt>
<trkpt lat="53.455459" lon="05.809922"><ele>3.8</ele><time>2021-02-18T16:21:01Z</time><name>PT15433</name></trkpt>
<trkpt lat="53.455460" lon="05.809912"><ele>3.8</ele><time>2021-02-18T16:21:04Z</time><name>PT15434</name></trkpt>
<trkpt lat="53.455461" lon="05.809891"><ele>3.7</ele><time>2021-02-18T16:21:05Z</time><name>PT15435</name></trkpt>
<trkpt lat="53.455461" lon="05.809874"><ele>3.6</ele><time>2021-02-18T16:21:06Z</time><name>PT15436</name></trkpt>
<trkpt lat="53.455463" lon="05.809857"><ele>3.7</ele><time>2021-02-18T16:21:07Z</time><name>PT15437</name></trkpt>
<trkpt lat="53.455468" lon="05.809838"><ele>3.7</ele><time>2021-02-18T16:21:08Z</time><name>PT15438</name></trkpt>
<trkpt lat="53.455468" lon="05.809817"><ele>3.6</ele><time>2021-02-18T16:21:09Z</time><name>PT15439</name></trkpt>
<trkpt lat="53.455469" lon="05.809797"><ele>3.6</ele><time>2021-02-18T16:21:10Z</time><name>PT15440</name></trkpt>
<trkpt lat="53.455468" lon="05.809779"><ele>3.7</ele><time>2021-02-18T16:21:11Z</time><name>PT15441</name></trkpt>
<trkpt lat="53.455464" lon="05.809762"><ele>3.6</ele><time>2021-02-18T16:21:12Z</time><name>PT15442</name></trkpt>
<trkpt lat="53.455467" lon="05.809752"><ele>3.8</ele><time>2021-02-18T16:21:13Z</time><name>PT15443</name></trkpt>
<trkpt lat="53.455465" lon="05.809742"><ele>3.8</ele><time>2021-02-18T16:21:14Z</time><name>PT15444</name></trkpt>
<trkpt lat="53.455465" lon="05.809733"><ele>3.9</ele><time>2021-02-18T16:21:15Z</time><name>PT15445</name></trkpt>
<trkpt lat="53.455465" lon="05.809718"><ele>3.9</ele><time>2021-02-18T16:21:16Z</time><name>PT15446</name></trkpt>
<trkpt lat="53.455465" lon="05.809703"><ele>3.8</ele><time>2021-02-18T16:21:17Z</time><name>PT15447</name></trkpt>
<trkpt lat="53.455462" lon="05.809685"><ele>3.8</ele><time>2021-02-18T16:21:18Z</time><name>PT15448</name></trkpt>
<trkpt lat="53.455459" lon="05.809670"><ele>3.7</ele><time>2021-02-18T16:21:19Z</time><name>PT15449</name></trkpt>
<trkpt lat="53.455459" lon="05.809650"><ele>3.6</ele><time>2021-02-18T16:21:20Z</time><name>PT15450</name></trkpt>
<trkpt lat="53.455460" lon="05.809631"><ele>3.7</ele><time>2021-02-18T16:21:21Z</time><name>PT15451</name></trkpt>
<trkpt lat="53.455461" lon="05.809610"><ele>3.8</ele><time>2021-02-18T16:21:22Z</time><name>PT15452</name></trkpt>
<trkpt lat="53.455461" lon="05.809591"><ele>3.8</ele><time>2021-02-18T16:21:23Z</time><name>PT15453</name></trkpt>
<trkpt lat="53.455460" lon="05.809573"><ele>3.8</ele><time>2021-02-18T16:21:24Z</time><name>PT15454</name></trkpt>
<trkpt lat="53.455457" lon="05.809552"><ele>3.9</ele><time>2021-02-18T16:21:25Z</time><name>PT15455</name></trkpt>
<trkpt lat="53.455455" lon="05.809532"><ele>4</ele><time>2021-02-18T16:21:26Z</time><name>PT15456</name></trkpt>
<trkpt lat="53.455454" lon="05.809513"><ele>3.9</ele><time>2021-02-18T16:21:27Z</time><name>PT15457</name></trkpt>
<trkpt lat="53.455453" lon="05.809495"><ele>4.1</ele><time>2021-02-18T16:21:28Z</time><name>PT15458</name></trkpt>
<trkpt lat="53.455453" lon="05.809477"><ele>4.1</ele><time>2021-02-18T16:21:29Z</time><name>PT15459</name></trkpt>
<trkpt lat="53.455453" lon="05.809460"><ele>4.3</ele><time>2021-02-18T16:21:30Z</time><name>PT15460</name></trkpt>
<trkpt lat="53.455453" lon="05.809442"><ele>4.3</ele><time>2021-02-18T16:21:31Z</time><name>PT15461</name></trkpt>
<trkpt lat="53.455454" lon="05.809423"><ele>4.4</ele><time>2021-02-18T16:21:32Z</time><name>PT15462</name></trkpt>
<trkpt lat="53.455455" lon="05.809402"><ele>4.4</ele><time>2021-02-18T16:21:33Z</time><name>PT15463</name></trkpt>
<trkpt lat="53.455454" lon="05.809383"><ele>4.3</ele><time>2021-02-18T16:21:34Z</time><name>PT15464</name></trkpt>
<trkpt lat="53.455452" lon="05.809364"><ele>4.2</ele><time>2021-02-18T16:21:35Z</time><name>PT15465</name></trkpt>
<trkpt lat="53.455450" lon="05.809346"><ele>4</ele><time>2021-02-18T16:21:36Z</time><name>PT15466</name></trkpt>
<trkpt lat="53.455449" lon="05.809329"><ele>4</ele><time>2021-02-18T16:21:37Z</time><name>PT15467</name></trkpt>
<trkpt lat="53.455447" lon="05.809312"><ele>4</ele><time>2021-02-18T16:21:38Z</time><name>PT15468</name></trkpt>
<trkpt lat="53.455447" lon="05.809295"><ele>4.1</ele><time>2021-02-18T16:21:39Z</time><name>PT15469</name></trkpt>
<trkpt lat="53.455447" lon="05.809276"><ele>4.2</ele><time>2021-02-18T16:21:40Z</time><name>PT15470</name></trkpt>
<trkpt lat="53.455448" lon="05.809258"><ele>4.2</ele><time>2021-02-18T16:21:41Z</time><name>PT15471</name></trkpt>
<trkpt lat="53.455450" lon="05.809239"><ele>4.1</ele><time>2021-02-18T16:21:42Z</time><name>PT15472</name></trkpt>
<trkpt lat="53.455449" lon="05.809221"><ele>4.2</ele><time>2021-02-18T16:21:43Z</time><name>PT15473</name></trkpt>
<trkpt lat="53.455449" lon="05.809203"><ele>4.1</ele><time>2021-02-18T16:21:44Z</time><name>PT15474</name></trkpt>
<trkpt lat="53.455448" lon="05.809186"><ele>4</ele><time>2021-02-18T16:21:45Z</time><name>PT15475</name></trkpt>
<trkpt lat="53.455446" lon="05.809168"><ele>4.1</ele><time>2021-02-18T16:21:46Z</time><name>PT15476</name></trkpt>
<trkpt lat="53.455446" lon="05.809151"><ele>4.2</ele><time>2021-02-18T16:21:47Z</time><name>PT15477</name></trkpt>
<trkpt lat="53.455447" lon="05.809133"><ele>4.2</ele><time>2021-02-18T16:21:48Z</time><name>PT15478</name></trkpt>
<trkpt lat="53.455448" lon="05.809113"><ele>4.2</ele><time>2021-02-18T16:21:49Z</time><name>PT15479</name></trkpt>
<trkpt lat="53.455449" lon="05.809092"><ele>4.2</ele><time>2021-02-18T16:21:50Z</time><name>PT15480</name></trkpt>
<trkpt lat="53.455449" lon="05.809071"><ele>4</ele><time>2021-02-18T16:21:51Z</time><name>PT15481</name></trkpt>
<trkpt lat="53.455450" lon="05.809048"><ele>4</ele><time>2021-02-18T16:21:52Z</time><name>PT15482</name></trkpt>
<trkpt lat="53.455449" lon="05.809027"><ele>4.1</ele><time>2021-02-18T16:21:53Z</time><name>PT15483</name></trkpt>
<trkpt lat="53.455446" lon="05.809007"><ele>4.2</ele><time>2021-02-18T16:21:54Z</time><name>PT15484</name></trkpt>
<trkpt lat="53.455443" lon="05.808992"><ele>4.4</ele><time>2021-02-18T16:21:55Z</time><name>PT15485</name></trkpt>
<trkpt lat="53.455442" lon="05.808984"><ele>4.4</ele><time>2021-02-18T16:21:56Z</time><name>PT15486</name></trkpt>
<trkpt lat="53.455438" lon="05.808969"><ele>4.7</ele><time>2021-02-18T16:21:57Z</time><name>PT15487</name></trkpt>
<trkpt lat="53.455435" lon="05.808966"><ele>4.8</ele><time>2021-02-18T16:21:58Z</time><name>PT15488</name></trkpt>
<trkpt lat="53.455434" lon="05.808955"><ele>4.7</ele><time>2021-02-18T16:22:02Z</time><name>PT15489</name></trkpt>
<trkpt lat="53.455434" lon="05.808935"><ele>4.4</ele><time>2021-02-18T16:22:03Z</time><name>PT15490</name></trkpt>
<trkpt lat="53.455434" lon="05.808916"><ele>4.3</ele><time>2021-02-18T16:22:04Z</time><name>PT15491</name></trkpt>
<trkpt lat="53.455434" lon="05.808897"><ele>4.1</ele><time>2021-02-18T16:22:05Z</time><name>PT15492</name></trkpt>
<trkpt lat="53.455432" lon="05.808878"><ele>4</ele><time>2021-02-18T16:22:06Z</time><name>PT15493</name></trkpt>
<trkpt lat="53.455432" lon="05.808855"><ele>4.1</ele><time>2021-02-18T16:22:07Z</time><name>PT15494</name></trkpt>
<trkpt lat="53.455431" lon="05.808835"><ele>4.2</ele><time>2021-02-18T16:22:08Z</time><name>PT15495</name></trkpt>
<trkpt lat="53.455432" lon="05.808811"><ele>4.3</ele><time>2021-02-18T16:22:09Z</time><name>PT15496</name></trkpt>
<trkpt lat="53.455431" lon="05.808789"><ele>4</ele><time>2021-02-18T16:22:10Z</time><name>PT15497</name></trkpt>
<trkpt lat="53.455430" lon="05.808770"><ele>4.1</ele><time>2021-02-18T16:22:11Z</time><name>PT15498</name></trkpt>
<trkpt lat="53.455429" lon="05.808754"><ele>3.9</ele><time>2021-02-18T16:22:12Z</time><name>PT15499</name></trkpt>
<trkpt lat="53.455428" lon="05.808737"><ele>3.8</ele><time>2021-02-18T16:22:13Z</time><name>PT15500</name></trkpt>
<trkpt lat="53.455429" lon="05.808721"><ele>3.8</ele><time>2021-02-18T16:22:14Z</time><name>PT15501</name></trkpt>
<trkpt lat="53.455429" lon="05.808701"><ele>3.8</ele><time>2021-02-18T16:22:15Z</time><name>PT15502</name></trkpt>
<trkpt lat="53.455431" lon="05.808678"><ele>3.8</ele><time>2021-02-18T16:22:16Z</time><name>PT15503</name></trkpt>
<trkpt lat="53.455432" lon="05.808658"><ele>3.8</ele><time>2021-02-18T16:22:17Z</time><name>PT15504</name></trkpt>
<trkpt lat="53.455433" lon="05.808638"><ele>3.7</ele><time>2021-02-18T16:22:18Z</time><name>PT15505</name></trkpt>
<trkpt lat="53.455432" lon="05.808616"><ele>3.7</ele><time>2021-02-18T16:22:19Z</time><name>PT15506</name></trkpt>
<trkpt lat="53.455431" lon="05.808597"><ele>3.8</ele><time>2021-02-18T16:22:20Z</time><name>PT15507</name></trkpt>
<trkpt lat="53.455429" lon="05.808578"><ele>3.7</ele><time>2021-02-18T16:22:21Z</time><name>PT15508</name></trkpt>
<trkpt lat="53.455429" lon="05.808556"><ele>3.7</ele><time>2021-02-18T16:22:22Z</time><name>PT15509</name></trkpt>
<trkpt lat="53.455427" lon="05.808535"><ele>3.8</ele><time>2021-02-18T16:22:23Z</time><name>PT15510</name></trkpt>
<trkpt lat="53.455425" lon="05.808514"><ele>3.7</ele><time>2021-02-18T16:22:24Z</time><name>PT15511</name></trkpt>
<trkpt lat="53.455423" lon="05.808492"><ele>3.8</ele><time>2021-02-18T16:22:25Z</time><name>PT15512</name></trkpt>
<trkpt lat="53.455421" lon="05.808471"><ele>3.8</ele><time>2021-02-18T16:22:26Z</time><name>PT15513</name></trkpt>
<trkpt lat="53.455420" lon="05.808449"><ele>3.7</ele><time>2021-02-18T16:22:27Z</time><name>PT15514</name></trkpt>
<trkpt lat="53.455420" lon="05.808430"><ele>3.5</ele><time>2021-02-18T16:22:28Z</time><name>PT15515</name></trkpt>
<trkpt lat="53.455419" lon="05.808412"><ele>3.6</ele><time>2021-02-18T16:22:29Z</time><name>PT15516</name></trkpt>
<trkpt lat="53.455419" lon="05.808392"><ele>3.5</ele><time>2021-02-18T16:22:30Z</time><name>PT15517</name></trkpt>
<trkpt lat="53.455419" lon="05.808371"><ele>3.6</ele><time>2021-02-18T16:22:31Z</time><name>PT15518</name></trkpt>
<trkpt lat="53.455418" lon="05.808354"><ele>3.8</ele><time>2021-02-18T16:22:32Z</time><name>PT15519</name></trkpt>
<trkpt lat="53.455417" lon="05.808336"><ele>3.8</ele><time>2021-02-18T16:22:33Z</time><name>PT15520</name></trkpt>
<trkpt lat="53.455418" lon="05.808317"><ele>3.7</ele><time>2021-02-18T16:22:34Z</time><name>PT15521</name></trkpt>
<trkpt lat="53.455419" lon="05.808297"><ele>3.8</ele><time>2021-02-18T16:22:35Z</time><name>PT15522</name></trkpt>
<trkpt lat="53.455419" lon="05.808275"><ele>3.8</ele><time>2021-02-18T16:22:36Z</time><name>PT15523</name></trkpt>
<trkpt lat="53.455419" lon="05.808253"><ele>3.8</ele><time>2021-02-18T16:22:37Z</time><name>PT15524</name></trkpt>
<trkpt lat="53.455418" lon="05.808233"><ele>3.8</ele><time>2021-02-18T16:22:38Z</time><name>PT15525</name></trkpt>
<trkpt lat="53.455417" lon="05.808214"><ele>4</ele><time>2021-02-18T16:22:39Z</time><name>PT15526</name></trkpt>
<trkpt lat="53.455414" lon="05.808196"><ele>4</ele><time>2021-02-18T16:22:40Z</time><name>PT15527</name></trkpt>
<trkpt lat="53.455413" lon="05.808177"><ele>4</ele><time>2021-02-18T16:22:41Z</time><name>PT15528</name></trkpt>
<trkpt lat="53.455412" lon="05.808156"><ele>4</ele><time>2021-02-18T16:22:42Z</time><name>PT15529</name></trkpt>
<trkpt lat="53.455411" lon="05.808137"><ele>4</ele><time>2021-02-18T16:22:43Z</time><name>PT15530</name></trkpt>
<trkpt lat="53.455411" lon="05.808118"><ele>3.9</ele><time>2021-02-18T16:22:44Z</time><name>PT15531</name></trkpt>
<trkpt lat="53.455411" lon="05.808102"><ele>4</ele><time>2021-02-18T16:22:45Z</time><name>PT15532</name></trkpt>
<trkpt lat="53.455411" lon="05.808085"><ele>4</ele><time>2021-02-18T16:22:46Z</time><name>PT15533</name></trkpt>
<trkpt lat="53.455410" lon="05.808067"><ele>3.9</ele><time>2021-02-18T16:22:47Z</time><name>PT15534</name></trkpt>
<trkpt lat="53.455410" lon="05.808049"><ele>4</ele><time>2021-02-18T16:22:48Z</time><name>PT15535</name></trkpt>
<trkpt lat="53.455411" lon="05.808030"><ele>3.8</ele><time>2021-02-18T16:22:49Z</time><name>PT15536</name></trkpt>
<trkpt lat="53.455414" lon="05.808012"><ele>3.8</ele><time>2021-02-18T16:22:50Z</time><name>PT15537</name></trkpt>
<trkpt lat="53.455416" lon="05.807994"><ele>3.8</ele><time>2021-02-18T16:22:51Z</time><name>PT15538</name></trkpt>
<trkpt lat="53.455418" lon="05.807973"><ele>3.8</ele><time>2021-02-18T16:22:52Z</time><name>PT15539</name></trkpt>
<trkpt lat="53.455416" lon="05.807948"><ele>3.8</ele><time>2021-02-18T16:22:53Z</time><name>PT15540</name></trkpt>
<trkpt lat="53.455418" lon="05.807928"><ele>3.8</ele><time>2021-02-18T16:22:54Z</time><name>PT15541</name></trkpt>
<trkpt lat="53.455418" lon="05.807911"><ele>3.7</ele><time>2021-02-18T16:22:55Z</time><name>PT15542</name></trkpt>
<trkpt lat="53.455416" lon="05.807892"><ele>3.6</ele><time>2021-02-18T16:22:56Z</time><name>PT15543</name></trkpt>
<trkpt lat="53.455414" lon="05.807874"><ele>3.6</ele><time>2021-02-18T16:22:57Z</time><name>PT15544</name></trkpt>
<trkpt lat="53.455411" lon="05.807856"><ele>3.7</ele><time>2021-02-18T16:22:58Z</time><name>PT15545</name></trkpt>
<trkpt lat="53.455409" lon="05.807836"><ele>3.8</ele><time>2021-02-18T16:22:59Z</time><name>PT15546</name></trkpt>
<trkpt lat="53.455408" lon="05.807816"><ele>3.8</ele><time>2021-02-18T16:23:00Z</time><name>PT15547</name></trkpt>
<trkpt lat="53.455408" lon="05.807797"><ele>4.1</ele><time>2021-02-18T16:23:01Z</time><name>PT15548</name></trkpt>
<trkpt lat="53.455409" lon="05.807780"><ele>4.1</ele><time>2021-02-18T16:23:02Z</time><name>PT15549</name></trkpt>
<trkpt lat="53.455411" lon="05.807765"><ele>3.8</ele><time>2021-02-18T16:23:03Z</time><name>PT15550</name></trkpt>
<trkpt lat="53.455411" lon="05.807749"><ele>3.8</ele><time>2021-02-18T16:23:04Z</time><name>PT15551</name></trkpt>
<trkpt lat="53.455412" lon="05.807732"><ele>3.8</ele><time>2021-02-18T16:23:05Z</time><name>PT15552</name></trkpt>
<trkpt lat="53.455414" lon="05.807714"><ele>3.8</ele><time>2021-02-18T16:23:06Z</time><name>PT15553</name></trkpt>
<trkpt lat="53.455417" lon="05.807694"><ele>3.8</ele><time>2021-02-18T16:23:07Z</time><name>PT15554</name></trkpt>
<trkpt lat="53.455418" lon="05.807675"><ele>4</ele><time>2021-02-18T16:23:08Z</time><name>PT15555</name></trkpt>
<trkpt lat="53.455419" lon="05.807658"><ele>3.7</ele><time>2021-02-18T16:23:09Z</time><name>PT15556</name></trkpt>
<trkpt lat="53.455418" lon="05.807639"><ele>3.8</ele><time>2021-02-18T16:23:10Z</time><name>PT15557</name></trkpt>
<trkpt lat="53.455418" lon="05.807618"><ele>3.7</ele><time>2021-02-18T16:23:11Z</time><name>PT15558</name></trkpt>
<trkpt lat="53.455417" lon="05.807597"><ele>3.6</ele><time>2021-02-18T16:23:12Z</time><name>PT15559</name></trkpt>
<trkpt lat="53.455417" lon="05.807578"><ele>3.6</ele><time>2021-02-18T16:23:13Z</time><name>PT15560</name></trkpt>
<trkpt lat="53.455419" lon="05.807559"><ele>3.7</ele><time>2021-02-18T16:23:14Z</time><name>PT15561</name></trkpt>
<trkpt lat="53.455420" lon="05.807542"><ele>3.8</ele><time>2021-02-18T16:23:15Z</time><name>PT15562</name></trkpt>
<trkpt lat="53.455420" lon="05.807525"><ele>3.9</ele><time>2021-02-18T16:23:16Z</time><name>PT15563</name></trkpt>
<trkpt lat="53.455421" lon="05.807507"><ele>4</ele><time>2021-02-18T16:23:17Z</time><name>PT15564</name></trkpt>
<trkpt lat="53.455422" lon="05.807488"><ele>4</ele><time>2021-02-18T16:23:18Z</time><name>PT15565</name></trkpt>
<trkpt lat="53.455423" lon="05.807467"><ele>4</ele><time>2021-02-18T16:23:19Z</time><name>PT15566</name></trkpt>
<trkpt lat="53.455425" lon="05.807446"><ele>4</ele><time>2021-02-18T16:23:20Z</time><name>PT15567</name></trkpt>
<trkpt lat="53.455429" lon="05.807425"><ele>4.2</ele><time>2021-02-18T16:23:21Z</time><name>PT15568</name></trkpt>
<trkpt lat="53.455432" lon="05.807406"><ele>4.3</ele><time>2021-02-18T16:23:22Z</time><name>PT15569</name></trkpt>
<trkpt lat="53.455431" lon="05.807385"><ele>4.3</ele><time>2021-02-18T16:23:23Z</time><name>PT15570</name></trkpt>
<trkpt lat="53.455432" lon="05.807367"><ele>4.3</ele><time>2021-02-18T16:23:24Z</time><name>PT15571</name></trkpt>
<trkpt lat="53.455432" lon="05.807349"><ele>4.1</ele><time>2021-02-18T16:23:25Z</time><name>PT15572</name></trkpt>
<trkpt lat="53.455431" lon="05.807335"><ele>3.8</ele><time>2021-02-18T16:23:26Z</time><name>PT15573</name></trkpt>
<trkpt lat="53.455432" lon="05.807319"><ele>3.7</ele><time>2021-02-18T16:23:27Z</time><name>PT15574</name></trkpt>
<trkpt lat="53.455434" lon="05.807303"><ele>3.5</ele><time>2021-02-18T16:23:28Z</time><name>PT15575</name></trkpt>
<trkpt lat="53.455435" lon="05.807285"><ele>3.6</ele><time>2021-02-18T16:23:29Z</time><name>PT15576</name></trkpt>
<trkpt lat="53.455435" lon="05.807266"><ele>3.6</ele><time>2021-02-18T16:23:30Z</time><name>PT15577</name></trkpt>
<trkpt lat="53.455435" lon="05.807247"><ele>3.7</ele><time>2021-02-18T16:23:31Z</time><name>PT15578</name></trkpt>
<trkpt lat="53.455437" lon="05.807227"><ele>3.6</ele><time>2021-02-18T16:23:32Z</time><name>PT15579</name></trkpt>
<trkpt lat="53.455438" lon="05.807207"><ele>3.6</ele><time>2021-02-18T16:23:33Z</time><name>PT15580</name></trkpt>
<trkpt lat="53.455441" lon="05.807186"><ele>3.6</ele><time>2021-02-18T16:23:34Z</time><name>PT15581</name></trkpt>
<trkpt lat="53.455441" lon="05.807164"><ele>3.6</ele><time>2021-02-18T16:23:35Z</time><name>PT15582</name></trkpt>
<trkpt lat="53.455442" lon="05.807145"><ele>3.5</ele><time>2021-02-18T16:23:36Z</time><name>PT15583</name></trkpt>
<trkpt lat="53.455442" lon="05.807125"><ele>3.8</ele><time>2021-02-18T16:23:37Z</time><name>PT15584</name></trkpt>
<trkpt lat="53.455442" lon="05.807104"><ele>3.7</ele><time>2021-02-18T16:23:38Z</time><name>PT15585</name></trkpt>
<trkpt lat="53.455441" lon="05.807083"><ele>3.8</ele><time>2021-02-18T16:23:39Z</time><name>PT15586</name></trkpt>
<trkpt lat="53.455441" lon="05.807062"><ele>3.6</ele><time>2021-02-18T16:23:40Z</time><name>PT15587</name></trkpt>
<trkpt lat="53.455441" lon="05.807040"><ele>3.4</ele><time>2021-02-18T16:23:41Z</time><name>PT15588</name></trkpt>
<trkpt lat="53.455441" lon="05.807016"><ele>3.5</ele><time>2021-02-18T16:23:42Z</time><name>PT15589</name></trkpt>
<trkpt lat="53.455440" lon="05.806995"><ele>3.5</ele><time>2021-02-18T16:23:43Z</time><name>PT15590</name></trkpt>
<trkpt lat="53.455440" lon="05.806978"><ele>3.5</ele><time>2021-02-18T16:23:44Z</time><name>PT15591</name></trkpt>
<trkpt lat="53.455439" lon="05.806961"><ele>3.8</ele><time>2021-02-18T16:23:45Z</time><name>PT15592</name></trkpt>
<trkpt lat="53.455440" lon="05.806943"><ele>3.8</ele><time>2021-02-18T16:23:46Z</time><name>PT15593</name></trkpt>
<trkpt lat="53.455442" lon="05.806927"><ele>3.7</ele><time>2021-02-18T16:23:47Z</time><name>PT15594</name></trkpt>
<trkpt lat="53.455442" lon="05.806907"><ele>3.7</ele><time>2021-02-18T16:23:48Z</time><name>PT15595</name></trkpt>
<trkpt lat="53.455442" lon="05.806886"><ele>3.6</ele><time>2021-02-18T16:23:49Z</time><name>PT15596</name></trkpt>
<trkpt lat="53.455444" lon="05.806865"><ele>3.6</ele><time>2021-02-18T16:23:50Z</time><name>PT15597</name></trkpt>
<trkpt lat="53.455445" lon="05.806844"><ele>3.6</ele><time>2021-02-18T16:23:51Z</time><name>PT15598</name></trkpt>
<trkpt lat="53.455447" lon="05.806822"><ele>3.6</ele><time>2021-02-18T16:23:52Z</time><name>PT15599</name></trkpt>
<trkpt lat="53.455449" lon="05.806805"><ele>3.7</ele><time>2021-02-18T16:23:53Z</time><name>PT15600</name></trkpt>
<trkpt lat="53.455449" lon="05.806786"><ele>3.7</ele><time>2021-02-18T16:23:54Z</time><name>PT15601</name></trkpt>
<trkpt lat="53.455450" lon="05.806766"><ele>3.7</ele><time>2021-02-18T16:23:55Z</time><name>PT15602</name></trkpt>
<trkpt lat="53.455448" lon="05.806744"><ele>3.8</ele><time>2021-02-18T16:23:56Z</time><name>PT15603</name></trkpt>
<trkpt lat="53.455447" lon="05.806724"><ele>3.9</ele><time>2021-02-18T16:23:57Z</time><name>PT15604</name></trkpt>
<trkpt lat="53.455447" lon="05.806703"><ele>4</ele><time>2021-02-18T16:23:58Z</time><name>PT15605</name></trkpt>
<trkpt lat="53.455449" lon="05.806684"><ele>4.1</ele><time>2021-02-18T16:23:59Z</time><name>PT15606</name></trkpt>
<trkpt lat="53.455449" lon="05.806664"><ele>4</ele><time>2021-02-18T16:24:00Z</time><name>PT15607</name></trkpt>
<trkpt lat="53.455449" lon="05.806645"><ele>4.1</ele><time>2021-02-18T16:24:01Z</time><name>PT15608</name></trkpt>
<trkpt lat="53.455449" lon="05.806629"><ele>3.9</ele><time>2021-02-18T16:24:02Z</time><name>PT15609</name></trkpt>
<trkpt lat="53.455449" lon="05.806610"><ele>3.9</ele><time>2021-02-18T16:24:03Z</time><name>PT15610</name></trkpt>
<trkpt lat="53.455449" lon="05.806593"><ele>3.7</ele><time>2021-02-18T16:24:04Z</time><name>PT15611</name></trkpt>
<trkpt lat="53.455451" lon="05.806576"><ele>3.8</ele><time>2021-02-18T16:24:05Z</time><name>PT15612</name></trkpt>
<trkpt lat="53.455451" lon="05.806557"><ele>3.6</ele><time>2021-02-18T16:24:06Z</time><name>PT15613</name></trkpt>
<trkpt lat="53.455452" lon="05.806538"><ele>3.7</ele><time>2021-02-18T16:24:07Z</time><name>PT15614</name></trkpt>
<trkpt lat="53.455454" lon="05.806520"><ele>3.7</ele><time>2021-02-18T16:24:08Z</time><name>PT15615</name></trkpt>
<trkpt lat="53.455454" lon="05.806500"><ele>3.7</ele><time>2021-02-18T16:24:09Z</time><name>PT15616</name></trkpt>
<trkpt lat="53.455453" lon="05.806482"><ele>3.6</ele><time>2021-02-18T16:24:10Z</time><name>PT15617</name></trkpt>
<trkpt lat="53.455452" lon="05.806463"><ele>3.6</ele><time>2021-02-18T16:24:11Z</time><name>PT15618</name></trkpt>
<trkpt lat="53.455453" lon="05.806445"><ele>3.7</ele><time>2021-02-18T16:24:12Z</time><name>PT15619</name></trkpt>
<trkpt lat="53.455454" lon="05.806427"><ele>3.8</ele><time>2021-02-18T16:24:13Z</time><name>PT15620</name></trkpt>
<trkpt lat="53.455453" lon="05.806408"><ele>3.8</ele><time>2021-02-18T16:24:14Z</time><name>PT15621</name></trkpt>
<trkpt lat="53.455452" lon="05.806390"><ele>4</ele><time>2021-02-18T16:24:15Z</time><name>PT15622</name></trkpt>
<trkpt lat="53.455450" lon="05.806369"><ele>3.8</ele><time>2021-02-18T16:24:16Z</time><name>PT15623</name></trkpt>
<trkpt lat="53.455450" lon="05.806348"><ele>3.8</ele><time>2021-02-18T16:24:17Z</time><name>PT15624</name></trkpt>
<trkpt lat="53.455450" lon="05.806327"><ele>3.8</ele><time>2021-02-18T16:24:18Z</time><name>PT15625</name></trkpt>
<trkpt lat="53.455453" lon="05.806308"><ele>3.8</ele><time>2021-02-18T16:24:19Z</time><name>PT15626</name></trkpt>
<trkpt lat="53.455453" lon="05.806288"><ele>3.7</ele><time>2021-02-18T16:24:20Z</time><name>PT15627</name></trkpt>
<trkpt lat="53.455455" lon="05.806272"><ele>3.9</ele><time>2021-02-18T16:24:21Z</time><name>PT15628</name></trkpt>
<trkpt lat="53.455457" lon="05.806256"><ele>3.9</ele><time>2021-02-18T16:24:22Z</time><name>PT15629</name></trkpt>
<trkpt lat="53.455457" lon="05.806240"><ele>3.9</ele><time>2021-02-18T16:24:23Z</time><name>PT15630</name></trkpt>
<trkpt lat="53.455458" lon="05.806223"><ele>3.9</ele><time>2021-02-18T16:24:24Z</time><name>PT15631</name></trkpt>
<trkpt lat="53.455457" lon="05.806204"><ele>4</ele><time>2021-02-18T16:24:25Z</time><name>PT15632</name></trkpt>
<trkpt lat="53.455457" lon="05.806186"><ele>4</ele><time>2021-02-18T16:24:26Z</time><name>PT15633</name></trkpt>
<trkpt lat="53.455456" lon="05.806166"><ele>3.9</ele><time>2021-02-18T16:24:27Z</time><name>PT15634</name></trkpt>
<trkpt lat="53.455457" lon="05.806148"><ele>3.9</ele><time>2021-02-18T16:24:28Z</time><name>PT15635</name></trkpt>
<trkpt lat="53.455457" lon="05.806127"><ele>3.9</ele><time>2021-02-18T16:24:29Z</time><name>PT15636</name></trkpt>
<trkpt lat="53.455457" lon="05.806105"><ele>4</ele><time>2021-02-18T16:24:30Z</time><name>PT15637</name></trkpt>
<trkpt lat="53.455458" lon="05.806086"><ele>4</ele><time>2021-02-18T16:24:31Z</time><name>PT15638</name></trkpt>
<trkpt lat="53.455461" lon="05.806065"><ele>4.1</ele><time>2021-02-18T16:24:32Z</time><name>PT15639</name></trkpt>
<trkpt lat="53.455465" lon="05.806046"><ele>4.1</ele><time>2021-02-18T16:24:33Z</time><name>PT15640</name></trkpt>
<trkpt lat="53.455468" lon="05.806027"><ele>3.9</ele><time>2021-02-18T16:24:34Z</time><name>PT15641</name></trkpt>
<trkpt lat="53.455469" lon="05.806010"><ele>3.9</ele><time>2021-02-18T16:24:35Z</time><name>PT15642</name></trkpt>
<trkpt lat="53.455470" lon="05.805993"><ele>3.9</ele><time>2021-02-18T16:24:36Z</time><name>PT15643</name></trkpt>
<trkpt lat="53.455469" lon="05.805971"><ele>3.9</ele><time>2021-02-18T16:24:37Z</time><name>PT15644</name></trkpt>
<trkpt lat="53.455469" lon="05.805950"><ele>3.8</ele><time>2021-02-18T16:24:38Z</time><name>PT15645</name></trkpt>
<trkpt lat="53.455469" lon="05.805932"><ele>3.8</ele><time>2021-02-18T16:24:39Z</time><name>PT15646</name></trkpt>
<trkpt lat="53.455470" lon="05.805915"><ele>3.8</ele><time>2021-02-18T16:24:40Z</time><name>PT15647</name></trkpt>
<trkpt lat="53.455471" lon="05.805899"><ele>4</ele><time>2021-02-18T16:24:41Z</time><name>PT15648</name></trkpt>
<trkpt lat="53.455472" lon="05.805879"><ele>3.9</ele><time>2021-02-18T16:24:42Z</time><name>PT15649</name></trkpt>
<trkpt lat="53.455473" lon="05.805861"><ele>4.1</ele><time>2021-02-18T16:24:43Z</time><name>PT15650</name></trkpt>
<trkpt lat="53.455474" lon="05.805841"><ele>4.2</ele><time>2021-02-18T16:24:44Z</time><name>PT15651</name></trkpt>
<trkpt lat="53.455475" lon="05.805821"><ele>4.2</ele><time>2021-02-18T16:24:45Z</time><name>PT15652</name></trkpt>
<trkpt lat="53.455476" lon="05.805802"><ele>4</ele><time>2021-02-18T16:24:46Z</time><name>PT15653</name></trkpt>
<trkpt lat="53.455476" lon="05.805782"><ele>3.9</ele><time>2021-02-18T16:24:47Z</time><name>PT15654</name></trkpt>
<trkpt lat="53.455474" lon="05.805761"><ele>3.8</ele><time>2021-02-18T16:24:48Z</time><name>PT15655</name></trkpt>
<trkpt lat="53.455473" lon="05.805740"><ele>3.8</ele><time>2021-02-18T16:24:49Z</time><name>PT15656</name></trkpt>
<trkpt lat="53.455472" lon="05.805722"><ele>3.6</ele><time>2021-02-18T16:24:50Z</time><name>PT15657</name></trkpt>
<trkpt lat="53.455471" lon="05.805703"><ele>3.7</ele><time>2021-02-18T16:24:51Z</time><name>PT15658</name></trkpt>
<trkpt lat="53.455469" lon="05.805684"><ele>3.7</ele><time>2021-02-18T16:24:52Z</time><name>PT15659</name></trkpt>
<trkpt lat="53.455469" lon="05.805663"><ele>3.6</ele><time>2021-02-18T16:24:53Z</time><name>PT15660</name></trkpt>
<trkpt lat="53.455469" lon="05.805644"><ele>3.6</ele><time>2021-02-18T16:24:54Z</time><name>PT15661</name></trkpt>
<trkpt lat="53.455469" lon="05.805622"><ele>3.8</ele><time>2021-02-18T16:24:55Z</time><name>PT15662</name></trkpt>
<trkpt lat="53.455469" lon="05.805602"><ele>3.8</ele><time>2021-02-18T16:24:56Z</time><name>PT15663</name></trkpt>
<trkpt lat="53.455469" lon="05.805582"><ele>3.7</ele><time>2021-02-18T16:24:57Z</time><name>PT15664</name></trkpt>
<trkpt lat="53.455470" lon="05.805564"><ele>3.8</ele><time>2021-02-18T16:24:58Z</time><name>PT15665</name></trkpt>
<trkpt lat="53.455469" lon="05.805544"><ele>3.8</ele><time>2021-02-18T16:24:59Z</time><name>PT15666</name></trkpt>
<trkpt lat="53.455468" lon="05.805523"><ele>3.6</ele><time>2021-02-18T16:25:00Z</time><name>PT15667</name></trkpt>
<trkpt lat="53.455467" lon="05.805505"><ele>3.6</ele><time>2021-02-18T16:25:01Z</time><name>PT15668</name></trkpt>
<trkpt lat="53.455468" lon="05.805488"><ele>3.6</ele><time>2021-02-18T16:25:02Z</time><name>PT15669</name></trkpt>
<trkpt lat="53.455468" lon="05.805471"><ele>3.7</ele><time>2021-02-18T16:25:03Z</time><name>PT15670</name></trkpt>
<trkpt lat="53.455468" lon="05.805454"><ele>3.5</ele><time>2021-02-18T16:25:04Z</time><name>PT15671</name></trkpt>
<trkpt lat="53.455469" lon="05.805437"><ele>3.5</ele><time>2021-02-18T16:25:05Z</time><name>PT15672</name></trkpt>
<trkpt lat="53.455470" lon="05.805419"><ele>3.6</ele><time>2021-02-18T16:25:06Z</time><name>PT15673</name></trkpt>
<trkpt lat="53.455471" lon="05.805400"><ele>3.7</ele><time>2021-02-18T16:25:07Z</time><name>PT15674</name></trkpt>
<trkpt lat="53.455472" lon="05.805382"><ele>3.6</ele><time>2021-02-18T16:25:08Z</time><name>PT15675</name></trkpt>
<trkpt lat="53.455475" lon="05.805364"><ele>3.6</ele><time>2021-02-18T16:25:09Z</time><name>PT15676</name></trkpt>
<trkpt lat="53.455477" lon="05.805345"><ele>3.7</ele><time>2021-02-18T16:25:10Z</time><name>PT15677</name></trkpt>
<trkpt lat="53.455477" lon="05.805326"><ele>3.5</ele><time>2021-02-18T16:25:11Z</time><name>PT15678</name></trkpt>
<trkpt lat="53.455478" lon="05.805307"><ele>3.6</ele><time>2021-02-18T16:25:12Z</time><name>PT15679</name></trkpt>
<trkpt lat="53.455478" lon="05.805288"><ele>3.7</ele><time>2021-02-18T16:25:13Z</time><name>PT15680</name></trkpt>
<trkpt lat="53.455478" lon="05.805269"><ele>3.7</ele><time>2021-02-18T16:25:14Z</time><name>PT15681</name></trkpt>
<trkpt lat="53.455479" lon="05.805251"><ele>3.7</ele><time>2021-02-18T16:25:15Z</time><name>PT15682</name></trkpt>
<trkpt lat="53.455480" lon="05.805235"><ele>3.6</ele><time>2021-02-18T16:25:16Z</time><name>PT15683</name></trkpt>
<trkpt lat="53.455479" lon="05.805216"><ele>3.6</ele><time>2021-02-18T16:25:17Z</time><name>PT15684</name></trkpt>
<trkpt lat="53.455480" lon="05.805197"><ele>3.5</ele><time>2021-02-18T16:25:18Z</time><name>PT15685</name></trkpt>
<trkpt lat="53.455482" lon="05.805177"><ele>3.3</ele><time>2021-02-18T16:25:19Z</time><name>PT15686</name></trkpt>
<trkpt lat="53.455485" lon="05.805157"><ele>3.4</ele><time>2021-02-18T16:25:20Z</time><name>PT15687</name></trkpt>
<trkpt lat="53.455487" lon="05.805138"><ele>3.5</ele><time>2021-02-18T16:25:21Z</time><name>PT15688</name></trkpt>
<trkpt lat="53.455488" lon="05.805117"><ele>3.5</ele><time>2021-02-18T16:25:22Z</time><name>PT15689</name></trkpt>
<trkpt lat="53.455489" lon="05.805100"><ele>3.7</ele><time>2021-02-18T16:25:23Z</time><name>PT15690</name></trkpt>
<trkpt lat="53.455486" lon="05.805082"><ele>3.7</ele><time>2021-02-18T16:25:24Z</time><name>PT15691</name></trkpt>
<trkpt lat="53.455486" lon="05.805065"><ele>3.5</ele><time>2021-02-18T16:25:25Z</time><name>PT15692</name></trkpt>
<trkpt lat="53.455485" lon="05.805049"><ele>3.6</ele><time>2021-02-18T16:25:26Z</time><name>PT15693</name></trkpt>
<trkpt lat="53.455486" lon="05.805033"><ele>3.6</ele><time>2021-02-18T16:25:27Z</time><name>PT15694</name></trkpt>
<trkpt lat="53.455490" lon="05.805016"><ele>3.6</ele><time>2021-02-18T16:25:28Z</time><name>PT15695</name></trkpt>
<trkpt lat="53.455491" lon="05.804999"><ele>3.4</ele><time>2021-02-18T16:25:29Z</time><name>PT15696</name></trkpt>
<trkpt lat="53.455491" lon="05.804982"><ele>3.5</ele><time>2021-02-18T16:25:30Z</time><name>PT15697</name></trkpt>
<trkpt lat="53.455490" lon="05.804963"><ele>3.3</ele><time>2021-02-18T16:25:31Z</time><name>PT15698</name></trkpt>
<trkpt lat="53.455489" lon="05.804947"><ele>3.3</ele><time>2021-02-18T16:25:32Z</time><name>PT15699</name></trkpt>
<trkpt lat="53.455486" lon="05.804930"><ele>3.3</ele><time>2021-02-18T16:25:33Z</time><name>PT15700</name></trkpt>
<trkpt lat="53.455485" lon="05.804913"><ele>3.4</ele><time>2021-02-18T16:25:34Z</time><name>PT15701</name></trkpt>
<trkpt lat="53.455488" lon="05.804897"><ele>3.6</ele><time>2021-02-18T16:25:35Z</time><name>PT15702</name></trkpt>
<trkpt lat="53.455488" lon="05.804876"><ele>3.4</ele><time>2021-02-18T16:25:36Z</time><name>PT15703</name></trkpt>
<trkpt lat="53.455488" lon="05.804858"><ele>3.6</ele><time>2021-02-18T16:25:37Z</time><name>PT15704</name></trkpt>
<trkpt lat="53.455485" lon="05.804836"><ele>3.6</ele><time>2021-02-18T16:25:38Z</time><name>PT15705</name></trkpt>
<trkpt lat="53.455483" lon="05.804818"><ele>3.6</ele><time>2021-02-18T16:25:39Z</time><name>PT15706</name></trkpt>
<trkpt lat="53.455483" lon="05.804801"><ele>3.6</ele><time>2021-02-18T16:25:40Z</time><name>PT15707</name></trkpt>
<trkpt lat="53.455484" lon="05.804784"><ele>3.5</ele><time>2021-02-18T16:25:41Z</time><name>PT15708</name></trkpt>
<trkpt lat="53.455486" lon="05.804766"><ele>3.4</ele><time>2021-02-18T16:25:42Z</time><name>PT15709</name></trkpt>
<trkpt lat="53.455487" lon="05.804748"><ele>3.5</ele><time>2021-02-18T16:25:43Z</time><name>PT15710</name></trkpt>
<trkpt lat="53.455489" lon="05.804731"><ele>3.3</ele><time>2021-02-18T16:25:44Z</time><name>PT15711</name></trkpt>
<trkpt lat="53.455489" lon="05.804716"><ele>3.5</ele><time>2021-02-18T16:25:45Z</time><name>PT15712</name></trkpt>
<trkpt lat="53.455488" lon="05.804703"><ele>3.5</ele><time>2021-02-18T16:25:46Z</time><name>PT15713</name></trkpt>
<trkpt lat="53.455489" lon="05.804688"><ele>3.5</ele><time>2021-02-18T16:25:47Z</time><name>PT15714</name></trkpt>
<trkpt lat="53.455490" lon="05.804672"><ele>3.7</ele><time>2021-02-18T16:25:48Z</time><name>PT15715</name></trkpt>
<trkpt lat="53.455492" lon="05.804656"><ele>3.5</ele><time>2021-02-18T16:25:49Z</time><name>PT15716</name></trkpt>
<trkpt lat="53.455492" lon="05.804639"><ele>3.5</ele><time>2021-02-18T16:25:50Z</time><name>PT15717</name></trkpt>
<trkpt lat="53.455492" lon="05.804622"><ele>3.4</ele><time>2021-02-18T16:25:51Z</time><name>PT15718</name></trkpt>
<trkpt lat="53.455491" lon="05.804605"><ele>3.3</ele><time>2021-02-18T16:25:52Z</time><name>PT15719</name></trkpt>
<trkpt lat="53.455491" lon="05.804587"><ele>3.3</ele><time>2021-02-18T16:25:53Z</time><name>PT15720</name></trkpt>
<trkpt lat="53.455493" lon="05.804569"><ele>3.5</ele><time>2021-02-18T16:25:54Z</time><name>PT15721</name></trkpt>
<trkpt lat="53.455495" lon="05.804555"><ele>3.6</ele><time>2021-02-18T16:25:55Z</time><name>PT15722</name></trkpt>
<trkpt lat="53.455495" lon="05.804538"><ele>3.5</ele><time>2021-02-18T16:25:56Z</time><name>PT15723</name></trkpt>
<trkpt lat="53.455493" lon="05.804526"><ele>3.5</ele><time>2021-02-18T16:25:57Z</time><name>PT15724</name></trkpt>
<trkpt lat="53.455493" lon="05.804511"><ele>3.3</ele><time>2021-02-18T16:25:58Z</time><name>PT15725</name></trkpt>
<trkpt lat="53.455493" lon="05.804496"><ele>3.4</ele><time>2021-02-18T16:25:59Z</time><name>PT15726</name></trkpt>
<trkpt lat="53.455491" lon="05.804483"><ele>3.3</ele><time>2021-02-18T16:26:00Z</time><name>PT15727</name></trkpt>
<trkpt lat="53.455491" lon="05.804471"><ele>3.3</ele><time>2021-02-18T16:26:01Z</time><name>PT15728</name></trkpt>
<trkpt lat="53.455494" lon="05.804456"><ele>3.3</ele><time>2021-02-18T16:26:02Z</time><name>PT15729</name></trkpt>
<trkpt lat="53.455494" lon="05.804437"><ele>3.5</ele><time>2021-02-18T16:26:03Z</time><name>PT15730</name></trkpt>
<trkpt lat="53.455493" lon="05.804419"><ele>3.6</ele><time>2021-02-18T16:26:04Z</time><name>PT15731</name></trkpt>
<trkpt lat="53.455494" lon="05.804403"><ele>3.5</ele><time>2021-02-18T16:26:05Z</time><name>PT15732</name></trkpt>
<trkpt lat="53.455492" lon="05.804388"><ele>3.5</ele><time>2021-02-18T16:26:06Z</time><name>PT15733</name></trkpt>
<trkpt lat="53.455490" lon="05.804373"><ele>3.4</ele><time>2021-02-18T16:26:07Z</time><name>PT15734</name></trkpt>
<trkpt lat="53.455492" lon="05.804360"><ele>3.4</ele><time>2021-02-18T16:26:08Z</time><name>PT15735</name></trkpt>
<trkpt lat="53.455492" lon="05.804346"><ele>3.5</ele><time>2021-02-18T16:26:09Z</time><name>PT15736</name></trkpt>
<trkpt lat="53.455489" lon="05.804330"><ele>3.5</ele><time>2021-02-18T16:26:10Z</time><name>PT15737</name></trkpt>
<trkpt lat="53.455488" lon="05.804318"><ele>3.7</ele><time>2021-02-18T16:26:11Z</time><name>PT15738</name></trkpt>
<trkpt lat="53.455489" lon="05.804307"><ele>3.8</ele><time>2021-02-18T16:26:12Z</time><name>PT15739</name></trkpt>
<trkpt lat="53.455486" lon="05.804292"><ele>3.7</ele><time>2021-02-18T16:26:13Z</time><name>PT15740</name></trkpt>
<trkpt lat="53.455483" lon="05.804278"><ele>3.7</ele><time>2021-02-18T16:26:14Z</time><name>PT15741</name></trkpt>
<trkpt lat="53.455482" lon="05.804265"><ele>3.6</ele><time>2021-02-18T16:26:15Z</time><name>PT15742</name></trkpt>
<trkpt lat="53.455482" lon="05.804253"><ele>3.7</ele><time>2021-02-18T16:26:16Z</time><name>PT15743</name></trkpt>
<trkpt lat="53.455484" lon="05.804242"><ele>3.8</ele><time>2021-02-18T16:26:17Z</time><name>PT15744</name></trkpt>
<trkpt lat="53.455483" lon="05.804226"><ele>3.8</ele><time>2021-02-18T16:26:18Z</time><name>PT15745</name></trkpt>
<trkpt lat="53.455482" lon="05.804212"><ele>3.8</ele><time>2021-02-18T16:26:19Z</time><name>PT15746</name></trkpt>
<trkpt lat="53.455483" lon="05.804204"><ele>3.7</ele><time>2021-02-18T16:26:20Z</time><name>PT15747</name></trkpt>
<trkpt lat="53.455484" lon="05.804192"><ele>3.6</ele><time>2021-02-18T16:26:21Z</time><name>PT15748</name></trkpt>
<trkpt lat="53.455483" lon="05.804181"><ele>3.6</ele><time>2021-02-18T16:26:22Z</time><name>PT15749</name></trkpt>
<trkpt lat="53.455479" lon="05.804166"><ele>3.8</ele><time>2021-02-18T16:26:23Z</time><name>PT15750</name></trkpt>
<trkpt lat="53.455479" lon="05.804150"><ele>3.8</ele><time>2021-02-18T16:26:24Z</time><name>PT15751</name></trkpt>
<trkpt lat="53.455481" lon="05.804139"><ele>3.8</ele><time>2021-02-18T16:26:25Z</time><name>PT15752</name></trkpt>
<trkpt lat="53.455479" lon="05.804127"><ele>3.7</ele><time>2021-02-18T16:26:26Z</time><name>PT15753</name></trkpt>
<trkpt lat="53.455476" lon="05.804121"><ele>3.7</ele><time>2021-02-18T16:26:27Z</time><name>PT15754</name></trkpt>
<trkpt lat="53.455473" lon="05.804111"><ele>3.7</ele><time>2021-02-18T16:26:28Z</time><name>PT15755</name></trkpt>
<trkpt lat="53.455471" lon="05.804105"><ele>3.7</ele><time>2021-02-18T16:26:29Z</time><name>PT15756</name></trkpt>
<trkpt lat="53.455468" lon="05.804100"><ele>3.7</ele><time>2021-02-18T16:26:30Z</time><name>PT15757</name></trkpt>
<trkpt lat="53.455467" lon="05.804098"><ele>3.8</ele><time>2021-02-18T16:26:31Z</time><name>PT15758</name></trkpt>
<trkpt lat="53.455468" lon="05.804095"><ele>3.8</ele><time>2021-02-18T16:26:32Z</time><name>PT15759</name></trkpt>
<trkpt lat="53.455468" lon="05.804095"><ele>3.8</ele><time>2021-02-18T16:26:33Z</time><name>PT15760</name></trkpt>
<trkpt lat="53.455462" lon="05.804089"><ele>3.8</ele><time>2021-02-18T16:26:35Z</time><name>PT15761</name></trkpt>
<trkpt lat="53.455471" lon="05.804085"><ele>3.7</ele><time>2021-02-18T16:26:36Z</time><name>PT15762</name></trkpt>
<trkpt lat="53.455467" lon="05.804082"><ele>3.8</ele><time>2021-02-18T16:26:37Z</time><name>PT15763</name></trkpt>
<trkpt lat="53.455469" lon="05.804086"><ele>3.8</ele><time>2021-02-18T16:26:38Z</time><name>PT15764</name></trkpt>
<trkpt lat="53.455465" lon="05.804072"><ele>3.7</ele><time>2021-02-18T16:26:39Z</time><name>PT15765</name></trkpt>
<trkpt lat="53.455460" lon="05.804064"><ele>3.7</ele><time>2021-02-18T16:26:40Z</time><name>PT15766</name></trkpt>
<trkpt lat="53.455460" lon="05.804050"><ele>3.8</ele><time>2021-02-18T16:28:12Z</time><name>PT15767</name></trkpt>
<trkpt lat="53.455457" lon="05.804032"><ele>3.8</ele><time>2021-02-18T16:28:13Z</time><name>PT15768</name></trkpt>
<trkpt lat="53.455456" lon="05.804016"><ele>3.8</ele><time>2021-02-18T16:28:14Z</time><name>PT15769</name></trkpt>
<trkpt lat="53.455459" lon="05.804001"><ele>3.8</ele><time>2021-02-18T16:28:15Z</time><name>PT15770</name></trkpt>
<trkpt lat="53.455461" lon="05.803988"><ele>3.8</ele><time>2021-02-18T16:28:16Z</time><name>PT15771</name></trkpt>
<trkpt lat="53.455462" lon="05.803975"><ele>3.6</ele><time>2021-02-18T16:28:17Z</time><name>PT15772</name></trkpt>
<trkpt lat="53.455460" lon="05.803962"><ele>3.6</ele><time>2021-02-18T16:28:18Z</time><name>PT15773</name></trkpt>
<trkpt lat="53.455457" lon="05.803950"><ele>3.6</ele><time>2021-02-18T16:28:19Z</time><name>PT15774</name></trkpt>
<trkpt lat="53.455455" lon="05.803936"><ele>3.7</ele><time>2021-02-18T16:28:20Z</time><name>PT15775</name></trkpt>
<trkpt lat="53.455456" lon="05.803921"><ele>3.7</ele><time>2021-02-18T16:28:21Z</time><name>PT15776</name></trkpt>
<trkpt lat="53.455456" lon="05.803907"><ele>3.8</ele><time>2021-02-18T16:28:22Z</time><name>PT15777</name></trkpt>
<trkpt lat="53.455454" lon="05.803896"><ele>3.8</ele><time>2021-02-18T16:28:23Z</time><name>PT15778</name></trkpt>
<trkpt lat="53.455454" lon="05.803886"><ele>3.8</ele><time>2021-02-18T16:28:24Z</time><name>PT15779</name></trkpt>
<trkpt lat="53.455457" lon="05.803883"><ele>3.8</ele><time>2021-02-18T16:28:25Z</time><name>PT15780</name></trkpt>
<trkpt lat="53.455458" lon="05.803877"><ele>3.8</ele><time>2021-02-18T16:28:26Z</time><name>PT15781</name></trkpt>
<trkpt lat="53.455457" lon="05.803875"><ele>4</ele><time>2021-02-18T16:28:27Z</time><name>PT15782</name></trkpt>
<trkpt lat="53.455456" lon="05.803872"><ele>4.2</ele><time>2021-02-18T16:28:28Z</time><name>PT15783</name></trkpt>
<trkpt lat="53.455455" lon="05.803870"><ele>4.3</ele><time>2021-02-18T16:28:34Z</time><name>PT15784</name></trkpt>
<trkpt lat="53.455455" lon="05.803867"><ele>4.3</ele><time>2021-02-18T16:28:35Z</time><name>PT15785</name></trkpt>
<trkpt lat="53.455457" lon="05.803865"><ele>4.3</ele><time>2021-02-18T16:28:36Z</time><name>PT15786</name></trkpt>
<trkpt lat="53.455457" lon="05.803864"><ele>4.2</ele><time>2021-02-18T16:28:37Z</time><name>PT15787</name></trkpt>
<trkpt lat="53.455458" lon="05.803860"><ele>4.2</ele><time>2021-02-18T16:28:38Z</time><name>PT15788</name></trkpt>
<trkpt lat="53.455457" lon="05.803852"><ele>4.1</ele><time>2021-02-18T16:28:39Z</time><name>PT15789</name></trkpt>
<trkpt lat="53.455455" lon="05.803847"><ele>4.1</ele><time>2021-02-18T16:28:40Z</time><name>PT15790</name></trkpt>
<trkpt lat="53.455455" lon="05.803844"><ele>4</ele><time>2021-02-18T16:28:41Z</time><name>PT15791</name></trkpt>
<trkpt lat="53.455453" lon="05.803840"><ele>4.2</ele><time>2021-02-18T16:28:42Z</time><name>PT15792</name></trkpt>
<trkpt lat="53.455453" lon="05.803838"><ele>4.3</ele><time>2021-02-18T16:28:43Z</time><name>PT15793</name></trkpt>
<trkpt lat="53.455454" lon="05.803837"><ele>4.4</ele><time>2021-02-18T16:28:44Z</time><name>PT15794</name></trkpt>
<trkpt lat="53.455454" lon="05.803835"><ele>4.4</ele><time>2021-02-18T16:28:45Z</time><name>PT15795</name></trkpt>
<trkpt lat="53.455449" lon="05.803829"><ele>4.2</ele><time>2021-02-18T16:28:59Z</time><name>PT15796</name></trkpt>
<trkpt lat="53.455438" lon="05.803820"><ele>4.1</ele><time>2021-02-18T16:29:00Z</time><name>PT15797</name></trkpt>
<trkpt lat="53.455424" lon="05.803813"><ele>3.9</ele><time>2021-02-18T16:29:01Z</time><name>PT15798</name></trkpt>
<trkpt lat="53.455411" lon="05.803807"><ele>3.8</ele><time>2021-02-18T16:29:02Z</time><name>PT15799</name></trkpt>
<trkpt lat="53.455400" lon="05.803795"><ele>3.7</ele><time>2021-02-18T16:29:03Z</time><name>PT15800</name></trkpt>
<trkpt lat="53.455390" lon="05.803786"><ele>3.5</ele><time>2021-02-18T16:29:04Z</time><name>PT15801</name></trkpt>
<trkpt lat="53.455386" lon="05.803782"><ele>3.4</ele><time>2021-02-18T16:29:05Z</time><name>PT15802</name></trkpt>
<trkpt lat="53.455382" lon="05.803780"><ele>3.5</ele><time>2021-02-18T16:29:06Z</time><name>PT15803</name></trkpt>
<trkpt lat="53.455380" lon="05.803779"><ele>3.7</ele><time>2021-02-18T16:29:07Z</time><name>PT15804</name></trkpt>
<trkpt lat="53.455380" lon="05.803778"><ele>3.8</ele><time>2021-02-18T16:29:08Z</time><name>PT15805</name></trkpt>
<trkpt lat="53.455378" lon="05.803777"><ele>4</ele><time>2021-02-18T16:29:09Z</time><name>PT15806</name></trkpt>
<trkpt lat="53.455366" lon="05.803768"><ele>3.8</ele><time>2021-02-18T16:29:32Z</time><name>PT15807</name></trkpt>
<trkpt lat="53.455353" lon="05.803760"><ele>3.8</ele><time>2021-02-18T16:29:33Z</time><name>PT15808</name></trkpt>
<trkpt lat="53.455344" lon="05.803759"><ele>3.8</ele><time>2021-02-18T16:29:34Z</time><name>PT15809</name></trkpt>
<trkpt lat="53.455335" lon="05.803755"><ele>3.7</ele><time>2021-02-18T16:29:35Z</time><name>PT15810</name></trkpt>
<trkpt lat="53.455323" lon="05.803749"><ele>3.6</ele><time>2021-02-18T16:29:36Z</time><name>PT15811</name></trkpt>
<trkpt lat="53.455311" lon="05.803744"><ele>3.8</ele><time>2021-02-18T16:29:37Z</time><name>PT15812</name></trkpt>
<trkpt lat="53.455300" lon="05.803738"><ele>3.8</ele><time>2021-02-18T16:29:38Z</time><name>PT15813</name></trkpt>
<trkpt lat="53.455288" lon="05.803729"><ele>3.8</ele><time>2021-02-18T16:29:39Z</time><name>PT15814</name></trkpt>
<trkpt lat="53.455274" lon="05.803717"><ele>3.9</ele><time>2021-02-18T16:29:40Z</time><name>PT15815</name></trkpt>
<trkpt lat="53.455262" lon="05.803708"><ele>4</ele><time>2021-02-18T16:29:41Z</time><name>PT15816</name></trkpt>
<trkpt lat="53.455250" lon="05.803701"><ele>4.1</ele><time>2021-02-18T16:29:42Z</time><name>PT15817</name></trkpt>
<trkpt lat="53.455238" lon="05.803694"><ele>4</ele><time>2021-02-18T16:29:43Z</time><name>PT15818</name></trkpt>
<trkpt lat="53.455227" lon="05.803688"><ele>4</ele><time>2021-02-18T16:29:44Z</time><name>PT15819</name></trkpt>
<trkpt lat="53.455216" lon="05.803682"><ele>4</ele><time>2021-02-18T16:29:45Z</time><name>PT15820</name></trkpt>
<trkpt lat="53.455205" lon="05.803677"><ele>4.1</ele><time>2021-02-18T16:29:46Z</time><name>PT15821</name></trkpt>
<trkpt lat="53.455194" lon="05.803671"><ele>3.9</ele><time>2021-02-18T16:29:47Z</time><name>PT15822</name></trkpt>
<trkpt lat="53.455181" lon="05.803664"><ele>3.8</ele><time>2021-02-18T16:29:48Z</time><name>PT15823</name></trkpt>
<trkpt lat="53.455167" lon="05.803654"><ele>3.6</ele><time>2021-02-18T16:29:49Z</time><name>PT15824</name></trkpt>
<trkpt lat="53.455156" lon="05.803643"><ele>3.6</ele><time>2021-02-18T16:29:50Z</time><name>PT15825</name></trkpt>
<trkpt lat="53.455146" lon="05.803633"><ele>3.4</ele><time>2021-02-18T16:29:51Z</time><name>PT15826</name></trkpt>
<trkpt lat="53.455135" lon="05.803628"><ele>3.8</ele><time>2021-02-18T16:29:52Z</time><name>PT15827</name></trkpt>
<trkpt lat="53.455124" lon="05.803622"><ele>3.8</ele><time>2021-02-18T16:29:53Z</time><name>PT15828</name></trkpt>
<trkpt lat="53.455114" lon="05.803619"><ele>3.8</ele><time>2021-02-18T16:29:54Z</time><name>PT15829</name></trkpt>
<trkpt lat="53.455103" lon="05.803616"><ele>3.9</ele><time>2021-02-18T16:29:55Z</time><name>PT15830</name></trkpt>
<trkpt lat="53.455092" lon="05.803612"><ele>3.8</ele><time>2021-02-18T16:29:56Z</time><name>PT15831</name></trkpt>
<trkpt lat="53.455081" lon="05.803605"><ele>3.8</ele><time>2021-02-18T16:29:57Z</time><name>PT15832</name></trkpt>
<trkpt lat="53.455070" lon="05.803597"><ele>3.7</ele><time>2021-02-18T16:29:58Z</time><name>PT15833</name></trkpt>
<trkpt lat="53.455060" lon="05.803591"><ele>3.8</ele><time>2021-02-18T16:29:59Z</time><name>PT15834</name></trkpt>
<trkpt lat="53.455049" lon="05.803583"><ele>3.9</ele><time>2021-02-18T16:30:00Z</time><name>PT15835</name></trkpt>
<trkpt lat="53.455039" lon="05.803573"><ele>3.8</ele><time>2021-02-18T16:30:01Z</time><name>PT15836</name></trkpt>
<trkpt lat="53.455028" lon="05.803564"><ele>3.8</ele><time>2021-02-18T16:30:02Z</time><name>PT15837</name></trkpt>
<trkpt lat="53.455016" lon="05.803559"><ele>3.9</ele><time>2021-02-18T16:30:03Z</time><name>PT15838</name></trkpt>
<trkpt lat="53.455004" lon="05.803552"><ele>4</ele><time>2021-02-18T16:30:04Z</time><name>PT15839</name></trkpt>
<trkpt lat="53.454992" lon="05.803546"><ele>4</ele><time>2021-02-18T16:30:05Z</time><name>PT15840</name></trkpt>
<trkpt lat="53.454980" lon="05.803540"><ele>4.2</ele><time>2021-02-18T16:30:06Z</time><name>PT15841</name></trkpt>
<trkpt lat="53.454969" lon="05.803533"><ele>4.2</ele><time>2021-02-18T16:30:07Z</time><name>PT15842</name></trkpt>
<trkpt lat="53.454958" lon="05.803529"><ele>4</ele><time>2021-02-18T16:30:08Z</time><name>PT15843</name></trkpt>
<trkpt lat="53.454949" lon="05.803521"><ele>3.8</ele><time>2021-02-18T16:30:09Z</time><name>PT15844</name></trkpt>
<trkpt lat="53.454938" lon="05.803513"><ele>3.8</ele><time>2021-02-18T16:30:10Z</time><name>PT15845</name></trkpt>
<trkpt lat="53.454927" lon="05.803504"><ele>3.8</ele><time>2021-02-18T16:30:11Z</time><name>PT15846</name></trkpt>
<trkpt lat="53.454917" lon="05.803495"><ele>3.8</ele><time>2021-02-18T16:30:12Z</time><name>PT15847</name></trkpt>
<trkpt lat="53.454906" lon="05.803488"><ele>3.8</ele><time>2021-02-18T16:30:13Z</time><name>PT15848</name></trkpt>
<trkpt lat="53.454896" lon="05.803480"><ele>3.8</ele><time>2021-02-18T16:30:14Z</time><name>PT15849</name></trkpt>
<trkpt lat="53.454885" lon="05.803472"><ele>3.7</ele><time>2021-02-18T16:30:15Z</time><name>PT15850</name></trkpt>
<trkpt lat="53.454873" lon="05.803464"><ele>3.8</ele><time>2021-02-18T16:30:16Z</time><name>PT15851</name></trkpt>
<trkpt lat="53.454862" lon="05.803454"><ele>3.8</ele><time>2021-02-18T16:30:17Z</time><name>PT15852</name></trkpt>
<trkpt lat="53.454850" lon="05.803445"><ele>3.8</ele><time>2021-02-18T16:30:18Z</time><name>PT15853</name></trkpt>
<trkpt lat="53.454838" lon="05.803433"><ele>3.8</ele><time>2021-02-18T16:30:19Z</time><name>PT15854</name></trkpt>
<trkpt lat="53.454827" lon="05.803423"><ele>3.9</ele><time>2021-02-18T16:30:20Z</time><name>PT15855</name></trkpt>
<trkpt lat="53.454815" lon="05.803415"><ele>3.8</ele><time>2021-02-18T16:30:21Z</time><name>PT15856</name></trkpt>
<trkpt lat="53.454803" lon="05.803405"><ele>3.9</ele><time>2021-02-18T16:30:22Z</time><name>PT15857</name></trkpt>
<trkpt lat="53.454791" lon="05.803400"><ele>4</ele><time>2021-02-18T16:30:23Z</time><name>PT15858</name></trkpt>
<trkpt lat="53.454780" lon="05.803394"><ele>4</ele><time>2021-02-18T16:30:24Z</time><name>PT15859</name></trkpt>
<trkpt lat="53.454770" lon="05.803389"><ele>4</ele><time>2021-02-18T16:30:25Z</time><name>PT15860</name></trkpt>
<trkpt lat="53.454759" lon="05.803382"><ele>4.2</ele><time>2021-02-18T16:30:26Z</time><name>PT15861</name></trkpt>
<trkpt lat="53.454747" lon="05.803375"><ele>4.1</ele><time>2021-02-18T16:30:27Z</time><name>PT15862</name></trkpt>
<trkpt lat="53.454735" lon="05.803370"><ele>4.3</ele><time>2021-02-18T16:30:28Z</time><name>PT15863</name></trkpt>
<trkpt lat="53.454722" lon="05.803366"><ele>4.2</ele><time>2021-02-18T16:30:29Z</time><name>PT15864</name></trkpt>
<trkpt lat="53.454709" lon="05.803361"><ele>4.2</ele><time>2021-02-18T16:30:30Z</time><name>PT15865</name></trkpt>
<trkpt lat="53.454698" lon="05.803355"><ele>4.2</ele><time>2021-02-18T16:30:31Z</time><name>PT15866</name></trkpt>
<trkpt lat="53.454685" lon="05.803350"><ele>4.3</ele><time>2021-02-18T16:30:32Z</time><name>PT15867</name></trkpt>
<trkpt lat="53.454674" lon="05.803344"><ele>4.3</ele><time>2021-02-18T16:30:33Z</time><name>PT15868</name></trkpt>
<trkpt lat="53.454664" lon="05.803338"><ele>4.5</ele><time>2021-02-18T16:30:34Z</time><name>PT15869</name></trkpt>
<trkpt lat="53.454655" lon="05.803333"><ele>4.7</ele><time>2021-02-18T16:30:35Z</time><name>PT15870</name></trkpt>
<trkpt lat="53.454644" lon="05.803326"><ele>4.6</ele><time>2021-02-18T16:30:36Z</time><name>PT15871</name></trkpt>
<trkpt lat="53.454633" lon="05.803319"><ele>4.5</ele><time>2021-02-18T16:30:37Z</time><name>PT15872</name></trkpt>
<trkpt lat="53.454622" lon="05.803313"><ele>4.6</ele><time>2021-02-18T16:30:38Z</time><name>PT15873</name></trkpt>
<trkpt lat="53.454612" lon="05.803306"><ele>4.6</ele><time>2021-02-18T16:30:39Z</time><name>PT15874</name></trkpt>
<trkpt lat="53.454601" lon="05.803299"><ele>4.6</ele><time>2021-02-18T16:30:40Z</time><name>PT15875</name></trkpt>
<trkpt lat="53.454590" lon="05.803292"><ele>4.5</ele><time>2021-02-18T16:30:41Z</time><name>PT15876</name></trkpt>
<trkpt lat="53.454579" lon="05.803284"><ele>4.5</ele><time>2021-02-18T16:30:42Z</time><name>PT15877</name></trkpt>
<trkpt lat="53.454569" lon="05.803277"><ele>4.3</ele><time>2021-02-18T16:30:43Z</time><name>PT15878</name></trkpt>
<trkpt lat="53.454558" lon="05.803269"><ele>4.3</ele><time>2021-02-18T16:30:44Z</time><name>PT15879</name></trkpt>
<trkpt lat="53.454546" lon="05.803263"><ele>4</ele><time>2021-02-18T16:30:45Z</time><name>PT15880</name></trkpt>
<trkpt lat="53.454535" lon="05.803255"><ele>4.1</ele><time>2021-02-18T16:30:46Z</time><name>PT15881</name></trkpt>
<trkpt lat="53.454523" lon="05.803244"><ele>4</ele><time>2021-02-18T16:30:47Z</time><name>PT15882</name></trkpt>
<trkpt lat="53.454512" lon="05.803234"><ele>4.2</ele><time>2021-02-18T16:30:48Z</time><name>PT15883</name></trkpt>
<trkpt lat="53.454501" lon="05.803227"><ele>4.3</ele><time>2021-02-18T16:30:49Z</time><name>PT15884</name></trkpt>
<trkpt lat="53.454491" lon="05.803220"><ele>4.3</ele><time>2021-02-18T16:30:50Z</time><name>PT15885</name></trkpt>
<trkpt lat="53.454479" lon="05.803213"><ele>4.3</ele><time>2021-02-18T16:30:51Z</time><name>PT15886</name></trkpt>
<trkpt lat="53.454467" lon="05.803206"><ele>4.4</ele><time>2021-02-18T16:30:52Z</time><name>PT15887</name></trkpt>
<trkpt lat="53.454455" lon="05.803200"><ele>4.4</ele><time>2021-02-18T16:30:53Z</time><name>PT15888</name></trkpt>
<trkpt lat="53.454443" lon="05.803195"><ele>4.3</ele><time>2021-02-18T16:30:54Z</time><name>PT15889</name></trkpt>
<trkpt lat="53.454433" lon="05.803188"><ele>4.3</ele><time>2021-02-18T16:30:55Z</time><name>PT15890</name></trkpt>
<trkpt lat="53.454423" lon="05.803179"><ele>4.3</ele><time>2021-02-18T16:30:56Z</time><name>PT15891</name></trkpt>
<trkpt lat="53.454413" lon="05.803169"><ele>4.2</ele><time>2021-02-18T16:30:57Z</time><name>PT15892</name></trkpt>
<trkpt lat="53.454402" lon="05.803163"><ele>4.1</ele><time>2021-02-18T16:30:58Z</time><name>PT15893</name></trkpt>
<trkpt lat="53.454391" lon="05.803156"><ele>4.2</ele><time>2021-02-18T16:30:59Z</time><name>PT15894</name></trkpt>
<trkpt lat="53.454380" lon="05.803148"><ele>4.2</ele><time>2021-02-18T16:31:00Z</time><name>PT15895</name></trkpt>
<trkpt lat="53.454368" lon="05.803140"><ele>4.2</ele><time>2021-02-18T16:31:01Z</time><name>PT15896</name></trkpt>
<trkpt lat="53.454356" lon="05.803132"><ele>4.3</ele><time>2021-02-18T16:31:02Z</time><name>PT15897</name></trkpt>
<trkpt lat="53.454346" lon="05.803122"><ele>4.4</ele><time>2021-02-18T16:31:03Z</time><name>PT15898</name></trkpt>
<trkpt lat="53.454334" lon="05.803114"><ele>4.6</ele><time>2021-02-18T16:31:04Z</time><name>PT15899</name></trkpt>
<trkpt lat="53.454323" lon="05.803105"><ele>4.7</ele><time>2021-02-18T16:31:05Z</time><name>PT15900</name></trkpt>
<trkpt lat="53.454312" lon="05.803096"><ele>4.5</ele><time>2021-02-18T16:31:06Z</time><name>PT15901</name></trkpt>
<trkpt lat="53.454301" lon="05.803086"><ele>4.3</ele><time>2021-02-18T16:31:07Z</time><name>PT15902</name></trkpt>
<trkpt lat="53.454290" lon="05.803078"><ele>4.2</ele><time>2021-02-18T16:31:08Z</time><name>PT15903</name></trkpt>
<trkpt lat="53.454279" lon="05.803071"><ele>4</ele><time>2021-02-18T16:31:09Z</time><name>PT15904</name></trkpt>
<trkpt lat="53.454267" lon="05.803067"><ele>4.1</ele><time>2021-02-18T16:31:10Z</time><name>PT15905</name></trkpt>
<trkpt lat="53.454255" lon="05.803062"><ele>4.1</ele><time>2021-02-18T16:31:11Z</time><name>PT15906</name></trkpt>
<trkpt lat="53.454245" lon="05.803058"><ele>4.1</ele><time>2021-02-18T16:31:12Z</time><name>PT15907</name></trkpt>
<trkpt lat="53.454235" lon="05.803053"><ele>4.1</ele><time>2021-02-18T16:31:13Z</time><name>PT15908</name></trkpt>
<trkpt lat="53.454226" lon="05.803046"><ele>3.9</ele><time>2021-02-18T16:31:14Z</time><name>PT15909</name></trkpt>
<trkpt lat="53.454217" lon="05.803040"><ele>4</ele><time>2021-02-18T16:31:15Z</time><name>PT15910</name></trkpt>
<trkpt lat="53.454207" lon="05.803033"><ele>4.2</ele><time>2021-02-18T16:31:16Z</time><name>PT15911</name></trkpt>
<trkpt lat="53.454197" lon="05.803028"><ele>4.2</ele><time>2021-02-18T16:31:17Z</time><name>PT15912</name></trkpt>
<trkpt lat="53.454186" lon="05.803022"><ele>4.3</ele><time>2021-02-18T16:31:18Z</time><name>PT15913</name></trkpt>
<trkpt lat="53.454175" lon="05.803016"><ele>4.4</ele><time>2021-02-18T16:31:19Z</time><name>PT15914</name></trkpt>
<trkpt lat="53.454163" lon="05.803009"><ele>4.3</ele><time>2021-02-18T16:31:20Z</time><name>PT15915</name></trkpt>
<trkpt lat="53.454152" lon="05.803002"><ele>4.3</ele><time>2021-02-18T16:31:21Z</time><name>PT15916</name></trkpt>
<trkpt lat="53.454141" lon="05.802995"><ele>4.3</ele><time>2021-02-18T16:31:22Z</time><name>PT15917</name></trkpt>
<trkpt lat="53.454132" lon="05.802991"><ele>4.3</ele><time>2021-02-18T16:31:23Z</time><name>PT15918</name></trkpt>
<trkpt lat="53.454123" lon="05.802987"><ele>4.2</ele><time>2021-02-18T16:31:24Z</time><name>PT15919</name></trkpt>
<trkpt lat="53.454113" lon="05.802981"><ele>4.1</ele><time>2021-02-18T16:31:25Z</time><name>PT15920</name></trkpt>
<trkpt lat="53.454104" lon="05.802973"><ele>4</ele><time>2021-02-18T16:31:26Z</time><name>PT15921</name></trkpt>
<trkpt lat="53.454093" lon="05.802967"><ele>4.1</ele><time>2021-02-18T16:31:27Z</time><name>PT15922</name></trkpt>
<trkpt lat="53.454082" lon="05.802960"><ele>4</ele><time>2021-02-18T16:31:28Z</time><name>PT15923</name></trkpt>
<trkpt lat="53.454071" lon="05.802951"><ele>4.1</ele><time>2021-02-18T16:31:29Z</time><name>PT15924</name></trkpt>
<trkpt lat="53.454060" lon="05.802942"><ele>4.1</ele><time>2021-02-18T16:31:30Z</time><name>PT15925</name></trkpt>
<trkpt lat="53.454048" lon="05.802933"><ele>3.8</ele><time>2021-02-18T16:31:31Z</time><name>PT15926</name></trkpt>
<trkpt lat="53.454037" lon="05.802925"><ele>3.6</ele><time>2021-02-18T16:31:32Z</time><name>PT15927</name></trkpt>
<trkpt lat="53.454026" lon="05.802916"><ele>3.7</ele><time>2021-02-18T16:31:33Z</time><name>PT15928</name></trkpt>
<trkpt lat="53.454015" lon="05.802912"><ele>3.4</ele><time>2021-02-18T16:31:34Z</time><name>PT15929</name></trkpt>
<trkpt lat="53.454004" lon="05.802908"><ele>3.3</ele><time>2021-02-18T16:31:35Z</time><name>PT15930</name></trkpt>
<trkpt lat="53.453995" lon="05.802901"><ele>3.1</ele><time>2021-02-18T16:31:36Z</time><name>PT15931</name></trkpt>
<trkpt lat="53.453986" lon="05.802896"><ele>3.2</ele><time>2021-02-18T16:31:37Z</time><name>PT15932</name></trkpt>
<trkpt lat="53.453976" lon="05.802891"><ele>3.2</ele><time>2021-02-18T16:31:38Z</time><name>PT15933</name></trkpt>
<trkpt lat="53.453965" lon="05.802884"><ele>3.2</ele><time>2021-02-18T16:31:39Z</time><name>PT15934</name></trkpt>
<trkpt lat="53.453954" lon="05.802875"><ele>3.7</ele><time>2021-02-18T16:31:40Z</time><name>PT15935</name></trkpt>
<trkpt lat="53.453943" lon="05.802868"><ele>4</ele><time>2021-02-18T16:31:41Z</time><name>PT15936</name></trkpt>
<trkpt lat="53.453931" lon="05.802859"><ele>4.1</ele><time>2021-02-18T16:31:42Z</time><name>PT15937</name></trkpt>
<trkpt lat="53.453920" lon="05.802850"><ele>4.3</ele><time>2021-02-18T16:31:43Z</time><name>PT15938</name></trkpt>
<trkpt lat="53.453909" lon="05.802841"><ele>4.3</ele><time>2021-02-18T16:31:44Z</time><name>PT15939</name></trkpt>
<trkpt lat="53.453898" lon="05.802836"><ele>3.9</ele><time>2021-02-18T16:31:45Z</time><name>PT15940</name></trkpt>
<trkpt lat="53.453886" lon="05.802831"><ele>3.6</ele><time>2021-02-18T16:31:46Z</time><name>PT15941</name></trkpt>
<trkpt lat="53.453875" lon="05.802826"><ele>3.8</ele><time>2021-02-18T16:31:47Z</time><name>PT15942</name></trkpt>
<trkpt lat="53.453864" lon="05.802821"><ele>3.6</ele><time>2021-02-18T16:31:48Z</time><name>PT15943</name></trkpt>
<trkpt lat="53.453854" lon="05.802815"><ele>3.3</ele><time>2021-02-18T16:31:49Z</time><name>PT15944</name></trkpt>
<trkpt lat="53.453845" lon="05.802809"><ele>3.2</ele><time>2021-02-18T16:31:50Z</time><name>PT15945</name></trkpt>
<trkpt lat="53.453834" lon="05.802803"><ele>3.1</ele><time>2021-02-18T16:31:51Z</time><name>PT15946</name></trkpt>
<trkpt lat="53.453823" lon="05.802795"><ele>2.6</ele><time>2021-02-18T16:31:52Z</time><name>PT15947</name></trkpt>
<trkpt lat="53.453813" lon="05.802787"><ele>2.8</ele><time>2021-02-18T16:31:53Z</time><name>PT15948</name></trkpt>
<trkpt lat="53.453802" lon="05.802778"><ele>2.9</ele><time>2021-02-18T16:31:54Z</time><name>PT15949</name></trkpt>
<trkpt lat="53.453793" lon="05.802769"><ele>3.1</ele><time>2021-02-18T16:31:55Z</time><name>PT15950</name></trkpt>
<trkpt lat="53.453783" lon="05.802762"><ele>3.3</ele><time>2021-02-18T16:31:56Z</time><name>PT15951</name></trkpt>
<trkpt lat="53.453772" lon="05.802755"><ele>3.6</ele><time>2021-02-18T16:31:57Z</time><name>PT15952</name></trkpt>
<trkpt lat="53.453761" lon="05.802750"><ele>3.4</ele><time>2021-02-18T16:31:58Z</time><name>PT15953</name></trkpt>
<trkpt lat="53.453750" lon="05.802745"><ele>3.4</ele><time>2021-02-18T16:31:59Z</time><name>PT15954</name></trkpt>
<trkpt lat="53.453740" lon="05.802739"><ele>3.5</ele><time>2021-02-18T16:32:00Z</time><name>PT15955</name></trkpt>
<trkpt lat="53.453730" lon="05.802735"><ele>3.2</ele><time>2021-02-18T16:32:01Z</time><name>PT15956</name></trkpt>
<trkpt lat="53.453721" lon="05.802728"><ele>3.2</ele><time>2021-02-18T16:32:02Z</time><name>PT15957</name></trkpt>
<trkpt lat="53.453711" lon="05.802724"><ele>3.2</ele><time>2021-02-18T16:32:03Z</time><name>PT15958</name></trkpt>
<trkpt lat="53.453702" lon="05.802717"><ele>3.3</ele><time>2021-02-18T16:32:04Z</time><name>PT15959</name></trkpt>
<trkpt lat="53.453692" lon="05.802712"><ele>3.4</ele><time>2021-02-18T16:32:05Z</time><name>PT15960</name></trkpt>
<trkpt lat="53.453682" lon="05.802703"><ele>3.6</ele><time>2021-02-18T16:32:06Z</time><name>PT15961</name></trkpt>
<trkpt lat="53.453672" lon="05.802697"><ele>3.7</ele><time>2021-02-18T16:32:07Z</time><name>PT15962</name></trkpt>
<trkpt lat="53.453660" lon="05.802690"><ele>3.6</ele><time>2021-02-18T16:32:08Z</time><name>PT15963</name></trkpt>
<trkpt lat="53.453648" lon="05.802684"><ele>3.2</ele><time>2021-02-18T16:32:09Z</time><name>PT15964</name></trkpt>
<trkpt lat="53.453636" lon="05.802677"><ele>2.9</ele><time>2021-02-18T16:32:10Z</time><name>PT15965</name></trkpt>
<trkpt lat="53.453623" lon="05.802670"><ele>2.8</ele><time>2021-02-18T16:32:11Z</time><name>PT15966</name></trkpt>
<trkpt lat="53.453611" lon="05.802663"><ele>2.8</ele><time>2021-02-18T16:32:12Z</time><name>PT15967</name></trkpt>
<trkpt lat="53.453599" lon="05.802656"><ele>3.1</ele><time>2021-02-18T16:32:13Z</time><name>PT15968</name></trkpt>
<trkpt lat="53.453589" lon="05.802650"><ele>3.3</ele><time>2021-02-18T16:32:14Z</time><name>PT15969</name></trkpt>
<trkpt lat="53.453578" lon="05.802646"><ele>3.6</ele><time>2021-02-18T16:32:15Z</time><name>PT15970</name></trkpt>
<trkpt lat="53.453567" lon="05.802642"><ele>3.7</ele><time>2021-02-18T16:32:16Z</time><name>PT15971</name></trkpt>
<trkpt lat="53.453557" lon="05.802637"><ele>3.7</ele><time>2021-02-18T16:32:17Z</time><name>PT15972</name></trkpt>
<trkpt lat="53.453549" lon="05.802630"><ele>3.6</ele><time>2021-02-18T16:32:18Z</time><name>PT15973</name></trkpt>
<trkpt lat="53.453540" lon="05.802621"><ele>3.3</ele><time>2021-02-18T16:32:19Z</time><name>PT15974</name></trkpt>
<trkpt lat="53.453530" lon="05.802614"><ele>3.3</ele><time>2021-02-18T16:32:20Z</time><name>PT15975</name></trkpt>
<trkpt lat="53.453520" lon="05.802606"><ele>2.9</ele><time>2021-02-18T16:32:21Z</time><name>PT15976</name></trkpt>
<trkpt lat="53.453511" lon="05.802600"><ele>2.7</ele><time>2021-02-18T16:32:22Z</time><name>PT15977</name></trkpt>
<trkpt lat="53.453504" lon="05.802595"><ele>2.7</ele><time>2021-02-18T16:32:23Z</time><name>PT15978</name></trkpt>
<trkpt lat="53.453497" lon="05.802590"><ele>2.4</ele><time>2021-02-18T16:32:24Z</time><name>PT15979</name></trkpt>
<trkpt lat="53.453487" lon="05.802583"><ele>2.3</ele><time>2021-02-18T16:32:25Z</time><name>PT15980</name></trkpt>
<trkpt lat="53.453478" lon="05.802577"><ele>2.3</ele><time>2021-02-18T16:32:26Z</time><name>PT15981</name></trkpt>
<trkpt lat="53.453468" lon="05.802570"><ele>2.5</ele><time>2021-02-18T16:32:27Z</time><name>PT15982</name></trkpt>
<trkpt lat="53.453457" lon="05.802561"><ele>2.6</ele><time>2021-02-18T16:32:28Z</time><name>PT15983</name></trkpt>
<trkpt lat="53.453447" lon="05.802555"><ele>2.7</ele><time>2021-02-18T16:32:29Z</time><name>PT15984</name></trkpt>
<trkpt lat="53.453436" lon="05.802551"><ele>2.8</ele><time>2021-02-18T16:32:30Z</time><name>PT15985</name></trkpt>
<trkpt lat="53.453426" lon="05.802546"><ele>2.8</ele><time>2021-02-18T16:32:31Z</time><name>PT15986</name></trkpt>
<trkpt lat="53.453415" lon="05.802541"><ele>2.8</ele><time>2021-02-18T16:32:32Z</time><name>PT15987</name></trkpt>
<trkpt lat="53.453404" lon="05.802535"><ele>2.8</ele><time>2021-02-18T16:32:33Z</time><name>PT15988</name></trkpt>
<trkpt lat="53.453392" lon="05.802528"><ele>2.6</ele><time>2021-02-18T16:32:34Z</time><name>PT15989</name></trkpt>
<trkpt lat="53.453381" lon="05.802518"><ele>2.3</ele><time>2021-02-18T16:32:35Z</time><name>PT15990</name></trkpt>
<trkpt lat="53.453371" lon="05.802509"><ele>2.3</ele><time>2021-02-18T16:32:36Z</time><name>PT15991</name></trkpt>
<trkpt lat="53.453360" lon="05.802503"><ele>2.6</ele><time>2021-02-18T16:32:37Z</time><name>PT15992</name></trkpt>
<trkpt lat="53.453350" lon="05.802498"><ele>2.7</ele><time>2021-02-18T16:32:38Z</time><name>PT15993</name></trkpt>
<trkpt lat="53.453340" lon="05.802491"><ele>3.1</ele><time>2021-02-18T16:32:39Z</time><name>PT15994</name></trkpt>
<trkpt lat="53.453329" lon="05.802485"><ele>3.5</ele><time>2021-02-18T16:32:40Z</time><name>PT15995</name></trkpt>
<trkpt lat="53.453320" lon="05.802480"><ele>3.5</ele><time>2021-02-18T16:32:41Z</time><name>PT15996</name></trkpt>
<trkpt lat="53.453309" lon="05.802474"><ele>3.3</ele><time>2021-02-18T16:32:42Z</time><name>PT15997</name></trkpt>
<trkpt lat="53.453297" lon="05.802469"><ele>3.1</ele><time>2021-02-18T16:32:43Z</time><name>PT15998</name></trkpt>
<trkpt lat="53.453285" lon="05.802467"><ele>3.3</ele><time>2021-02-18T16:32:44Z</time><name>PT15999</name></trkpt>
<trkpt lat="53.453274" lon="05.802464"><ele>3.3</ele><time>2021-02-18T16:32:45Z</time><name>PT16000</name></trkpt>
<trkpt lat="53.453264" lon="05.802454"><ele>3.3</ele><time>2021-02-18T16:32:46Z</time><name>PT16001</name></trkpt>
<trkpt lat="53.453255" lon="05.802444"><ele>3.3</ele><time>2021-02-18T16:32:47Z</time><name>PT16002</name></trkpt>
<trkpt lat="53.453245" lon="05.802434"><ele>3.4</ele><time>2021-02-18T16:32:48Z</time><name>PT16003</name></trkpt>
<trkpt lat="53.453234" lon="05.802426"><ele>3.4</ele><time>2021-02-18T16:32:49Z</time><name>PT16004</name></trkpt>
<trkpt lat="53.453223" lon="05.802419"><ele>3.4</ele><time>2021-02-18T16:32:50Z</time><name>PT16005</name></trkpt>
<trkpt lat="53.453212" lon="05.802408"><ele>3.7</ele><time>2021-02-18T16:32:51Z</time><name>PT16006</name></trkpt>
<trkpt lat="53.453202" lon="05.802404"><ele>3.8</ele><time>2021-02-18T16:32:52Z</time><name>PT16007</name></trkpt>
<trkpt lat="53.453191" lon="05.802399"><ele>3.8</ele><time>2021-02-18T16:32:53Z</time><name>PT16008</name></trkpt>
<trkpt lat="53.453180" lon="05.802388"><ele>3.8</ele><time>2021-02-18T16:32:54Z</time><name>PT16009</name></trkpt>
<trkpt lat="53.453169" lon="05.802378"><ele>3.8</ele><time>2021-02-18T16:32:55Z</time><name>PT16010</name></trkpt>
<trkpt lat="53.453157" lon="05.802368"><ele>3.8</ele><time>2021-02-18T16:32:56Z</time><name>PT16011</name></trkpt>
<trkpt lat="53.453146" lon="05.802362"><ele>3.7</ele><time>2021-02-18T16:32:57Z</time><name>PT16012</name></trkpt>
<trkpt lat="53.453134" lon="05.802356"><ele>3.8</ele><time>2021-02-18T16:32:58Z</time><name>PT16013</name></trkpt>
<trkpt lat="53.453122" lon="05.802350"><ele>3.8</ele><time>2021-02-18T16:32:59Z</time><name>PT16014</name></trkpt>
<trkpt lat="53.453110" lon="05.802346"><ele>3.5</ele><time>2021-02-18T16:33:00Z</time><name>PT16015</name></trkpt>
<trkpt lat="53.453100" lon="05.802340"><ele>3.4</ele><time>2021-02-18T16:33:01Z</time><name>PT16016</name></trkpt>
<trkpt lat="53.453090" lon="05.802334"><ele>3.4</ele><time>2021-02-18T16:33:02Z</time><name>PT16017</name></trkpt>
<trkpt lat="53.453079" lon="05.802326"><ele>3.4</ele><time>2021-02-18T16:33:03Z</time><name>PT16018</name></trkpt>
<trkpt lat="53.453069" lon="05.802316"><ele>3.3</ele><time>2021-02-18T16:33:04Z</time><name>PT16019</name></trkpt>
<trkpt lat="53.453059" lon="05.802310"><ele>3.1</ele><time>2021-02-18T16:33:05Z</time><name>PT16020</name></trkpt>
<trkpt lat="53.453049" lon="05.802300"><ele>3.1</ele><time>2021-02-18T16:33:06Z</time><name>PT16021</name></trkpt>
<trkpt lat="53.453039" lon="05.802288"><ele>3.3</ele><time>2021-02-18T16:33:07Z</time><name>PT16022</name></trkpt>
<trkpt lat="53.453030" lon="05.802276"><ele>3.5</ele><time>2021-02-18T16:33:08Z</time><name>PT16023</name></trkpt>
<trkpt lat="53.453020" lon="05.802266"><ele>3.6</ele><time>2021-02-18T16:33:09Z</time><name>PT16024</name></trkpt>
<trkpt lat="53.453009" lon="05.802260"><ele>3.4</ele><time>2021-02-18T16:33:10Z</time><name>PT16025</name></trkpt>
<trkpt lat="53.452997" lon="05.802255"><ele>3.3</ele><time>2021-02-18T16:33:11Z</time><name>PT16026</name></trkpt>
<trkpt lat="53.452987" lon="05.802247"><ele>3.3</ele><time>2021-02-18T16:33:12Z</time><name>PT16027</name></trkpt>
<trkpt lat="53.452976" lon="05.802240"><ele>3.2</ele><time>2021-02-18T16:33:13Z</time><name>PT16028</name></trkpt>
<trkpt lat="53.452964" lon="05.802236"><ele>3.2</ele><time>2021-02-18T16:33:14Z</time><name>PT16029</name></trkpt>
<trkpt lat="53.452952" lon="05.802228"><ele>3.1</ele><time>2021-02-18T16:33:15Z</time><name>PT16030</name></trkpt>
<trkpt lat="53.452939" lon="05.802223"><ele>3.1</ele><time>2021-02-18T16:33:16Z</time><name>PT16031</name></trkpt>
<trkpt lat="53.452927" lon="05.802220"><ele>2.8</ele><time>2021-02-18T16:33:17Z</time><name>PT16032</name></trkpt>
<trkpt lat="53.452916" lon="05.802213"><ele>2.4</ele><time>2021-02-18T16:33:18Z</time><name>PT16033</name></trkpt>
<trkpt lat="53.452906" lon="05.802208"><ele>2.3</ele><time>2021-02-18T16:33:19Z</time><name>PT16034</name></trkpt>
<trkpt lat="53.452895" lon="05.802202"><ele>2.3</ele><time>2021-02-18T16:33:20Z</time><name>PT16035</name></trkpt>
<trkpt lat="53.452885" lon="05.802197"><ele>2.3</ele><time>2021-02-18T16:33:21Z</time><name>PT16036</name></trkpt>
<trkpt lat="53.452873" lon="05.802190"><ele>2.5</ele><time>2021-02-18T16:33:22Z</time><name>PT16037</name></trkpt>
<trkpt lat="53.452861" lon="05.802183"><ele>2.8</ele><time>2021-02-18T16:33:23Z</time><name>PT16038</name></trkpt>
<trkpt lat="53.452851" lon="05.802176"><ele>2.8</ele><time>2021-02-18T16:33:24Z</time><name>PT16039</name></trkpt>
<trkpt lat="53.452839" lon="05.802169"><ele>2.9</ele><time>2021-02-18T16:33:25Z</time><name>PT16040</name></trkpt>
<trkpt lat="53.452828" lon="05.802164"><ele>3</ele><time>2021-02-18T16:33:26Z</time><name>PT16041</name></trkpt>
<trkpt lat="53.452818" lon="05.802157"><ele>3.1</ele><time>2021-02-18T16:33:27Z</time><name>PT16042</name></trkpt>
<trkpt lat="53.452807" lon="05.802151"><ele>3.3</ele><time>2021-02-18T16:33:28Z</time><name>PT16043</name></trkpt>
<trkpt lat="53.452796" lon="05.802145"><ele>3</ele><time>2021-02-18T16:33:29Z</time><name>PT16044</name></trkpt>
<trkpt lat="53.452785" lon="05.802140"><ele>3.3</ele><time>2021-02-18T16:33:30Z</time><name>PT16045</name></trkpt>
<trkpt lat="53.452775" lon="05.802134"><ele>3.4</ele><time>2021-02-18T16:33:31Z</time><name>PT16046</name></trkpt>
<trkpt lat="53.452765" lon="05.802126"><ele>3.4</ele><time>2021-02-18T16:33:32Z</time><name>PT16047</name></trkpt>
<trkpt lat="53.452754" lon="05.802117"><ele>3.3</ele><time>2021-02-18T16:33:33Z</time><name>PT16048</name></trkpt>
<trkpt lat="53.452743" lon="05.802107"><ele>3.3</ele><time>2021-02-18T16:33:34Z</time><name>PT16049</name></trkpt>
<trkpt lat="53.452734" lon="05.802100"><ele>3.3</ele><time>2021-02-18T16:33:35Z</time><name>PT16050</name></trkpt>
<trkpt lat="53.452723" lon="05.802093"><ele>3.2</ele><time>2021-02-18T16:33:36Z</time><name>PT16051</name></trkpt>
<trkpt lat="53.452712" lon="05.802085"><ele>3</ele><time>2021-02-18T16:33:37Z</time><name>PT16052</name></trkpt>
<trkpt lat="53.452701" lon="05.802078"><ele>3</ele><time>2021-02-18T16:33:38Z</time><name>PT16053</name></trkpt>
<trkpt lat="53.452692" lon="05.802073"><ele>3.3</ele><time>2021-02-18T16:33:39Z</time><name>PT16054</name></trkpt>
<trkpt lat="53.452681" lon="05.802072"><ele>3.2</ele><time>2021-02-18T16:33:40Z</time><name>PT16055</name></trkpt>
<trkpt lat="53.452672" lon="05.802070"><ele>3</ele><time>2021-02-18T16:33:41Z</time><name>PT16056</name></trkpt>
<trkpt lat="53.452665" lon="05.802066"><ele>3.1</ele><time>2021-02-18T16:33:42Z</time><name>PT16057</name></trkpt>
<trkpt lat="53.452661" lon="05.802066"><ele>3</ele><time>2021-02-18T16:33:43Z</time><name>PT16058</name></trkpt>
<trkpt lat="53.452654" lon="05.802061"><ele>3</ele><time>2021-02-18T16:33:44Z</time><name>PT16059</name></trkpt>
<trkpt lat="53.452643" lon="05.802050"><ele>3.2</ele><time>2021-02-18T16:33:45Z</time><name>PT16060</name></trkpt>
<trkpt lat="53.452633" lon="05.802040"><ele>3.5</ele><time>2021-02-18T16:33:46Z</time><name>PT16061</name></trkpt>
<trkpt lat="53.452622" lon="05.802031"><ele>3.5</ele><time>2021-02-18T16:33:47Z</time><name>PT16062</name></trkpt>
<trkpt lat="53.452611" lon="05.802025"><ele>3.4</ele><time>2021-02-18T16:33:48Z</time><name>PT16063</name></trkpt>
<trkpt lat="53.452602" lon="05.802022"><ele>3.6</ele><time>2021-02-18T16:33:49Z</time><name>PT16064</name></trkpt>
<trkpt lat="53.452594" lon="05.802019"><ele>3.4</ele><time>2021-02-18T16:33:50Z</time><name>PT16065</name></trkpt>
<trkpt lat="53.452585" lon="05.802015"><ele>3.3</ele><time>2021-02-18T16:33:51Z</time><name>PT16066</name></trkpt>
<trkpt lat="53.452578" lon="05.802007"><ele>3.4</ele><time>2021-02-18T16:33:52Z</time><name>PT16067</name></trkpt>
<trkpt lat="53.452570" lon="05.801999"><ele>3.3</ele><time>2021-02-18T16:33:53Z</time><name>PT16068</name></trkpt>
<trkpt lat="53.452561" lon="05.801991"><ele>3.4</ele><time>2021-02-18T16:33:54Z</time><name>PT16069</name></trkpt>
<trkpt lat="53.452551" lon="05.801983"><ele>3.5</ele><time>2021-02-18T16:33:55Z</time><name>PT16070</name></trkpt>
<trkpt lat="53.452539" lon="05.801975"><ele>3.5</ele><time>2021-02-18T16:33:56Z</time><name>PT16071</name></trkpt>
<trkpt lat="53.452529" lon="05.801967"><ele>3.3</ele><time>2021-02-18T16:33:57Z</time><name>PT16072</name></trkpt>
<trkpt lat="53.452519" lon="05.801960"><ele>3</ele><time>2021-02-18T16:33:58Z</time><name>PT16073</name></trkpt>
<trkpt lat="53.452508" lon="05.801955"><ele>3</ele><time>2021-02-18T16:33:59Z</time><name>PT16074</name></trkpt>
<trkpt lat="53.452497" lon="05.801952"><ele>2.8</ele><time>2021-02-18T16:34:00Z</time><name>PT16075</name></trkpt>
<trkpt lat="53.452485" lon="05.801947"><ele>2.7</ele><time>2021-02-18T16:34:01Z</time><name>PT16076</name></trkpt>
<trkpt lat="53.452476" lon="05.801940"><ele>2.7</ele><time>2021-02-18T16:34:02Z</time><name>PT16077</name></trkpt>
<trkpt lat="53.452465" lon="05.801933"><ele>2.6</ele><time>2021-02-18T16:34:03Z</time><name>PT16078</name></trkpt>
<trkpt lat="53.452455" lon="05.801925"><ele>2.7</ele><time>2021-02-18T16:34:04Z</time><name>PT16079</name></trkpt>
<trkpt lat="53.452445" lon="05.801918"><ele>2.8</ele><time>2021-02-18T16:34:05Z</time><name>PT16080</name></trkpt>
<trkpt lat="53.452436" lon="05.801909"><ele>2.8</ele><time>2021-02-18T16:34:06Z</time><name>PT16081</name></trkpt>
<trkpt lat="53.452426" lon="05.801900"><ele>2.9</ele><time>2021-02-18T16:34:07Z</time><name>PT16082</name></trkpt>
<trkpt lat="53.452414" lon="05.801891"><ele>3.1</ele><time>2021-02-18T16:34:08Z</time><name>PT16083</name></trkpt>
<trkpt lat="53.452403" lon="05.801883"><ele>3.1</ele><time>2021-02-18T16:34:09Z</time><name>PT16084</name></trkpt>
<trkpt lat="53.452392" lon="05.801875"><ele>2.9</ele><time>2021-02-18T16:34:10Z</time><name>PT16085</name></trkpt>
<trkpt lat="53.452381" lon="05.801869"><ele>2.8</ele><time>2021-02-18T16:34:11Z</time><name>PT16086</name></trkpt>
<trkpt lat="53.452369" lon="05.801863"><ele>2.4</ele><time>2021-02-18T16:34:12Z</time><name>PT16087</name></trkpt>
<trkpt lat="53.452356" lon="05.801860"><ele>2.3</ele><time>2021-02-18T16:34:13Z</time><name>PT16088</name></trkpt>
<trkpt lat="53.452344" lon="05.801856"><ele>2.3</ele><time>2021-02-18T16:34:14Z</time><name>PT16089</name></trkpt>
<trkpt lat="53.452332" lon="05.801853"><ele>2.5</ele><time>2021-02-18T16:34:15Z</time><name>PT16090</name></trkpt>
<trkpt lat="53.452321" lon="05.801850"><ele>2.8</ele><time>2021-02-18T16:34:16Z</time><name>PT16091</name></trkpt>
<trkpt lat="53.452312" lon="05.801845"><ele>3</ele><time>2021-02-18T16:34:17Z</time><name>PT16092</name></trkpt>
<trkpt lat="53.452304" lon="05.801838"><ele>3</ele><time>2021-02-18T16:34:18Z</time><name>PT16093</name></trkpt>
<trkpt lat="53.452294" lon="05.801833"><ele>2.9</ele><time>2021-02-18T16:34:19Z</time><name>PT16094</name></trkpt>
<trkpt lat="53.452283" lon="05.801823"><ele>2.9</ele><time>2021-02-18T16:34:20Z</time><name>PT16095</name></trkpt>
<trkpt lat="53.452274" lon="05.801815"><ele>2.7</ele><time>2021-02-18T16:34:21Z</time><name>PT16096</name></trkpt>
<trkpt lat="53.452265" lon="05.801807"><ele>2.3</ele><time>2021-02-18T16:34:22Z</time><name>PT16097</name></trkpt>
<trkpt lat="53.452254" lon="05.801799"><ele>2.3</ele><time>2021-02-18T16:34:23Z</time><name>PT16098</name></trkpt>
<trkpt lat="53.452242" lon="05.801790"><ele>2.3</ele><time>2021-02-18T16:34:24Z</time><name>PT16099</name></trkpt>
<trkpt lat="53.452230" lon="05.801781"><ele>2.5</ele><time>2021-02-18T16:34:25Z</time><name>PT16100</name></trkpt>
<trkpt lat="53.452220" lon="05.801774"><ele>2.7</ele><time>2021-02-18T16:34:26Z</time><name>PT16101</name></trkpt>
<trkpt lat="53.452213" lon="05.801767"><ele>2.8</ele><time>2021-02-18T16:34:27Z</time><name>PT16102</name></trkpt>
<trkpt lat="53.452204" lon="05.801760"><ele>3</ele><time>2021-02-18T16:34:28Z</time><name>PT16103</name></trkpt>
<trkpt lat="53.452193" lon="05.801756"><ele>3.1</ele><time>2021-02-18T16:34:29Z</time><name>PT16104</name></trkpt>
<trkpt lat="53.452182" lon="05.801753"><ele>3.1</ele><time>2021-02-18T16:34:30Z</time><name>PT16105</name></trkpt>
<trkpt lat="53.452168" lon="05.801750"><ele>3.2</ele><time>2021-02-18T16:34:31Z</time><name>PT16106</name></trkpt>
<trkpt lat="53.452157" lon="05.801746"><ele>3.3</ele><time>2021-02-18T16:34:32Z</time><name>PT16107</name></trkpt>
<trkpt lat="53.452148" lon="05.801742"><ele>3.1</ele><time>2021-02-18T16:34:33Z</time><name>PT16108</name></trkpt>
<trkpt lat="53.452139" lon="05.801736"><ele>2.9</ele><time>2021-02-18T16:34:34Z</time><name>PT16109</name></trkpt>
<trkpt lat="53.452129" lon="05.801731"><ele>2.8</ele><time>2021-02-18T16:34:35Z</time><name>PT16110</name></trkpt>
<trkpt lat="53.452119" lon="05.801724"><ele>2.6</ele><time>2021-02-18T16:34:36Z</time><name>PT16111</name></trkpt>
<trkpt lat="53.452109" lon="05.801720"><ele>2.3</ele><time>2021-02-18T16:34:37Z</time><name>PT16112</name></trkpt>
<trkpt lat="53.452098" lon="05.801713"><ele>2.3</ele><time>2021-02-18T16:34:38Z</time><name>PT16113</name></trkpt>
<trkpt lat="53.452088" lon="05.801706"><ele>2.1</ele><time>2021-02-18T16:34:39Z</time><name>PT16114</name></trkpt>
<trkpt lat="53.452077" lon="05.801699"><ele>2.3</ele><time>2021-02-18T16:34:40Z</time><name>PT16115</name></trkpt>
<trkpt lat="53.452066" lon="05.801692"><ele>2.2</ele><time>2021-02-18T16:34:41Z</time><name>PT16116</name></trkpt>
<trkpt lat="53.452054" lon="05.801682"><ele>2.4</ele><time>2021-02-18T16:34:42Z</time><name>PT16117</name></trkpt>
<trkpt lat="53.452043" lon="05.801674"><ele>2.6</ele><time>2021-02-18T16:34:43Z</time><name>PT16118</name></trkpt>
<trkpt lat="53.452033" lon="05.801665"><ele>2.7</ele><time>2021-02-18T16:34:44Z</time><name>PT16119</name></trkpt>
<trkpt lat="53.452025" lon="05.801657"><ele>2.6</ele><time>2021-02-18T16:34:45Z</time><name>PT16120</name></trkpt>
<trkpt lat="53.452013" lon="05.801649"><ele>2.3</ele><time>2021-02-18T16:34:46Z</time><name>PT16121</name></trkpt>
<trkpt lat="53.452002" lon="05.801646"><ele>2.3</ele><time>2021-02-18T16:34:47Z</time><name>PT16122</name></trkpt>
<trkpt lat="53.451990" lon="05.801642"><ele>2.3</ele><time>2021-02-18T16:34:48Z</time><name>PT16123</name></trkpt>
<trkpt lat="53.451982" lon="05.801636"><ele>2.2</ele><time>2021-02-18T16:34:49Z</time><name>PT16124</name></trkpt>
<trkpt lat="53.451974" lon="05.801629"><ele>2.1</ele><time>2021-02-18T16:34:50Z</time><name>PT16125</name></trkpt>
<trkpt lat="53.451965" lon="05.801623"><ele>2.1</ele><time>2021-02-18T16:34:51Z</time><name>PT16126</name></trkpt>
<trkpt lat="53.451953" lon="05.801614"><ele>2.3</ele><time>2021-02-18T16:34:52Z</time><name>PT16127</name></trkpt>
<trkpt lat="53.451940" lon="05.801606"><ele>2.3</ele><time>2021-02-18T16:34:53Z</time><name>PT16128</name></trkpt>
<trkpt lat="53.451930" lon="05.801598"><ele>2.8</ele><time>2021-02-18T16:34:54Z</time><name>PT16129</name></trkpt>
<trkpt lat="53.451921" lon="05.801592"><ele>3.2</ele><time>2021-02-18T16:34:55Z</time><name>PT16130</name></trkpt>
<trkpt lat="53.451912" lon="05.801588"><ele>3.4</ele><time>2021-02-18T16:34:56Z</time><name>PT16131</name></trkpt>
<trkpt lat="53.451901" lon="05.801582"><ele>3.5</ele><time>2021-02-18T16:34:57Z</time><name>PT16132</name></trkpt>
<trkpt lat="53.451890" lon="05.801576"><ele>3.5</ele><time>2021-02-18T16:34:58Z</time><name>PT16133</name></trkpt>
<trkpt lat="53.451880" lon="05.801571"><ele>3.4</ele><time>2021-02-18T16:34:59Z</time><name>PT16134</name></trkpt>
<trkpt lat="53.451867" lon="05.801564"><ele>3.4</ele><time>2021-02-18T16:35:00Z</time><name>PT16135</name></trkpt>
<trkpt lat="53.451858" lon="05.801561"><ele>3.3</ele><time>2021-02-18T16:35:01Z</time><name>PT16136</name></trkpt>
<trkpt lat="53.451850" lon="05.801555"><ele>3.4</ele><time>2021-02-18T16:35:02Z</time><name>PT16137</name></trkpt>
<trkpt lat="53.451839" lon="05.801549"><ele>3.4</ele><time>2021-02-18T16:35:03Z</time><name>PT16138</name></trkpt>
<trkpt lat="53.451830" lon="05.801544"><ele>3.2</ele><time>2021-02-18T16:35:04Z</time><name>PT16139</name></trkpt>
<trkpt lat="53.451821" lon="05.801537"><ele>3.3</ele><time>2021-02-18T16:35:05Z</time><name>PT16140</name></trkpt>
<trkpt lat="53.451809" lon="05.801529"><ele>3.4</ele><time>2021-02-18T16:35:06Z</time><name>PT16141</name></trkpt>
<trkpt lat="53.451796" lon="05.801520"><ele>3.3</ele><time>2021-02-18T16:35:07Z</time><name>PT16142</name></trkpt>
<trkpt lat="53.451781" lon="05.801514"><ele>3.3</ele><time>2021-02-18T16:35:08Z</time><name>PT16143</name></trkpt>
<trkpt lat="53.451769" lon="05.801505"><ele>3.4</ele><time>2021-02-18T16:35:09Z</time><name>PT16144</name></trkpt>
<trkpt lat="53.451759" lon="05.801497"><ele>3.3</ele><time>2021-02-18T16:35:10Z</time><name>PT16145</name></trkpt>
<trkpt lat="53.451747" lon="05.801490"><ele>3.2</ele><time>2021-02-18T16:35:11Z</time><name>PT16146</name></trkpt>
<trkpt lat="53.451735" lon="05.801485"><ele>3.1</ele><time>2021-02-18T16:35:12Z</time><name>PT16147</name></trkpt>
<trkpt lat="53.451727" lon="05.801483"><ele>3.1</ele><time>2021-02-18T16:35:13Z</time><name>PT16148</name></trkpt>
<trkpt lat="53.451716" lon="05.801478"><ele>2.9</ele><time>2021-02-18T16:35:14Z</time><name>PT16149</name></trkpt>
<trkpt lat="53.451704" lon="05.801472"><ele>3</ele><time>2021-02-18T16:35:15Z</time><name>PT16150</name></trkpt>
<trkpt lat="53.451694" lon="05.801463"><ele>3</ele><time>2021-02-18T16:35:16Z</time><name>PT16151</name></trkpt>
<trkpt lat="53.451688" lon="05.801454"><ele>3.1</ele><time>2021-02-18T16:35:17Z</time><name>PT16152</name></trkpt>
<trkpt lat="53.451675" lon="05.801443"><ele>3</ele><time>2021-02-18T16:35:18Z</time><name>PT16153</name></trkpt>
<trkpt lat="53.451660" lon="05.801432"><ele>2.7</ele><time>2021-02-18T16:35:19Z</time><name>PT16154</name></trkpt>
<trkpt lat="53.451648" lon="05.801423"><ele>2.4</ele><time>2021-02-18T16:35:20Z</time><name>PT16155</name></trkpt>
<trkpt lat="53.451637" lon="05.801416"><ele>1.8</ele><time>2021-02-18T16:35:21Z</time><name>PT16156</name></trkpt>
<trkpt lat="53.451628" lon="05.801412"><ele>1.7</ele><time>2021-02-18T16:35:22Z</time><name>PT16157</name></trkpt>
<trkpt lat="53.451616" lon="05.801406"><ele>1.7</ele><time>2021-02-18T16:35:23Z</time><name>PT16158</name></trkpt>
<trkpt lat="53.451603" lon="05.801402"><ele>1.8</ele><time>2021-02-18T16:35:24Z</time><name>PT16159</name></trkpt>
<trkpt lat="53.451592" lon="05.801398"><ele>2.5</ele><time>2021-02-18T16:35:25Z</time><name>PT16160</name></trkpt>
<trkpt lat="53.451582" lon="05.801392"><ele>2.9</ele><time>2021-02-18T16:35:26Z</time><name>PT16161</name></trkpt>
<trkpt lat="53.451569" lon="05.801384"><ele>3.1</ele><time>2021-02-18T16:35:27Z</time><name>PT16162</name></trkpt>
<trkpt lat="53.451559" lon="05.801378"><ele>2.7</ele><time>2021-02-18T16:35:28Z</time><name>PT16163</name></trkpt>
<trkpt lat="53.451555" lon="05.801371"><ele>2.7</ele><time>2021-02-18T16:35:29Z</time><name>PT16164</name></trkpt>
<trkpt lat="53.451547" lon="05.801363"><ele>2.4</ele><time>2021-02-18T16:35:30Z</time><name>PT16165</name></trkpt>
<trkpt lat="53.451535" lon="05.801350"><ele>2.5</ele><time>2021-02-18T16:35:31Z</time><name>PT16166</name></trkpt>
<trkpt lat="53.451524" lon="05.801340"><ele>2.8</ele><time>2021-02-18T16:35:32Z</time><name>PT16167</name></trkpt>
<trkpt lat="53.451517" lon="05.801335"><ele>3.2</ele><time>2021-02-18T16:35:33Z</time><name>PT16168</name></trkpt>
<trkpt lat="53.451513" lon="05.801328"><ele>3.5</ele><time>2021-02-18T16:35:34Z</time><name>PT16169</name></trkpt>
<trkpt lat="53.451511" lon="05.801324"><ele>3.8</ele><time>2021-02-18T16:35:35Z</time><name>PT16170</name></trkpt>
<trkpt lat="53.451509" lon="05.801325"><ele>3.8</ele><time>2021-02-18T16:35:36Z</time><name>PT16171</name></trkpt>
<trkpt lat="53.451505" lon="05.801330"><ele>4</ele><time>2021-02-18T16:35:37Z</time><name>PT16172</name></trkpt>
<trkpt lat="53.451500" lon="05.801331"><ele>4.2</ele><time>2021-02-18T16:35:38Z</time><name>PT16173</name></trkpt>
<trkpt lat="53.451500" lon="05.801334"><ele>4.3</ele><time>2021-02-18T16:35:39Z</time><name>PT16174</name></trkpt>
<trkpt lat="53.451497" lon="05.801335"><ele>4.3</ele><time>2021-02-18T16:35:40Z</time><name>PT16175</name></trkpt>
<trkpt lat="53.451493" lon="05.801336"><ele>4.3</ele><time>2021-02-18T16:35:41Z</time><name>PT16176</name></trkpt>
<trkpt lat="53.451496" lon="05.801335"><ele>3.4</ele><time>2021-02-18T16:35:45Z</time><name>PT16177</name></trkpt>
<trkpt lat="53.451487" lon="05.801325"><ele>3.3</ele><time>2021-02-18T16:35:46Z</time><name>PT16178</name></trkpt>
<trkpt lat="53.451480" lon="05.801319"><ele>3.4</ele><time>2021-02-18T16:35:47Z</time><name>PT16179</name></trkpt>
<trkpt lat="53.451471" lon="05.801316"><ele>3.5</ele><time>2021-02-18T16:35:48Z</time><name>PT16180</name></trkpt>
<trkpt lat="53.451462" lon="05.801310"><ele>3.4</ele><time>2021-02-18T16:35:49Z</time><name>PT16181</name></trkpt>
<trkpt lat="53.451455" lon="05.801302"><ele>3.6</ele><time>2021-02-18T16:35:50Z</time><name>PT16182</name></trkpt>
<trkpt lat="53.451443" lon="05.801293"><ele>3.6</ele><time>2021-02-18T16:35:51Z</time><name>PT16183</name></trkpt>
<trkpt lat="53.451434" lon="05.801286"><ele>3.3</ele><time>2021-02-18T16:35:52Z</time><name>PT16184</name></trkpt>
<trkpt lat="53.451423" lon="05.801276"><ele>3.3</ele><time>2021-02-18T16:35:53Z</time><name>PT16185</name></trkpt>
<trkpt lat="53.451413" lon="05.801271"><ele>3.3</ele><time>2021-02-18T16:35:54Z</time><name>PT16186</name></trkpt>
<trkpt lat="53.451405" lon="05.801267"><ele>3.3</ele><time>2021-02-18T16:35:55Z</time><name>PT16187</name></trkpt>
<trkpt lat="53.451393" lon="05.801261"><ele>3.3</ele><time>2021-02-18T16:35:56Z</time><name>PT16188</name></trkpt>
<trkpt lat="53.451381" lon="05.801251"><ele>3.4</ele><time>2021-02-18T16:35:57Z</time><name>PT16189</name></trkpt>
<trkpt lat="53.451370" lon="05.801245"><ele>3.4</ele><time>2021-02-18T16:35:58Z</time><name>PT16190</name></trkpt>
<trkpt lat="53.451356" lon="05.801240"><ele>3.6</ele><time>2021-02-18T16:35:59Z</time><name>PT16191</name></trkpt>
<trkpt lat="53.451351" lon="05.801237"><ele>3.4</ele><time>2021-02-18T16:36:00Z</time><name>PT16192</name></trkpt>
<trkpt lat="53.451342" lon="05.801231"><ele>3.1</ele><time>2021-02-18T16:36:01Z</time><name>PT16193</name></trkpt>
<trkpt lat="53.451330" lon="05.801223"><ele>3.1</ele><time>2021-02-18T16:36:02Z</time><name>PT16194</name></trkpt>
<trkpt lat="53.451317" lon="05.801217"><ele>2.9</ele><time>2021-02-18T16:36:03Z</time><name>PT16195</name></trkpt>
<trkpt lat="53.451306" lon="05.801214"><ele>2.8</ele><time>2021-02-18T16:36:04Z</time><name>PT16196</name></trkpt>
<trkpt lat="53.451296" lon="05.801207"><ele>2.6</ele><time>2021-02-18T16:36:05Z</time><name>PT16197</name></trkpt>
<trkpt lat="53.451286" lon="05.801203"><ele>2.6</ele><time>2021-02-18T16:36:06Z</time><name>PT16198</name></trkpt>
<trkpt lat="53.451277" lon="05.801203"><ele>2.4</ele><time>2021-02-18T16:36:07Z</time><name>PT16199</name></trkpt>
<trkpt lat="53.451268" lon="05.801202"><ele>2.4</ele><time>2021-02-18T16:36:08Z</time><name>PT16200</name></trkpt>
<trkpt lat="53.451255" lon="05.801201"><ele>2.7</ele><time>2021-02-18T16:36:09Z</time><name>PT16201</name></trkpt>
<trkpt lat="53.451242" lon="05.801197"><ele>2.6</ele><time>2021-02-18T16:36:10Z</time><name>PT16202</name></trkpt>
<trkpt lat="53.451231" lon="05.801192"><ele>2.5</ele><time>2021-02-18T16:36:11Z</time><name>PT16203</name></trkpt>
<trkpt lat="53.451219" lon="05.801188"><ele>2.7</ele><time>2021-02-18T16:36:12Z</time><name>PT16204</name></trkpt>
<trkpt lat="53.451209" lon="05.801185"><ele>2.8</ele><time>2021-02-18T16:36:13Z</time><name>PT16205</name></trkpt>
<trkpt lat="53.451200" lon="05.801181"><ele>2.8</ele><time>2021-02-18T16:36:14Z</time><name>PT16206</name></trkpt>
<trkpt lat="53.451193" lon="05.801174"><ele>3.2</ele><time>2021-02-18T16:36:15Z</time><name>PT16207</name></trkpt>
<trkpt lat="53.451182" lon="05.801163"><ele>3.3</ele><time>2021-02-18T16:36:16Z</time><name>PT16208</name></trkpt>
<trkpt lat="53.451170" lon="05.801154"><ele>3.2</ele><time>2021-02-18T16:36:17Z</time><name>PT16209</name></trkpt>
<trkpt lat="53.451158" lon="05.801147"><ele>2.9</ele><time>2021-02-18T16:36:18Z</time><name>PT16210</name></trkpt>
<trkpt lat="53.451147" lon="05.801138"><ele>2.7</ele><time>2021-02-18T16:36:19Z</time><name>PT16211</name></trkpt>
<trkpt lat="53.451137" lon="05.801128"><ele>2.5</ele><time>2021-02-18T16:36:20Z</time><name>PT16212</name></trkpt>
<trkpt lat="53.451127" lon="05.801119"><ele>2.3</ele><time>2021-02-18T16:36:21Z</time><name>PT16213</name></trkpt>
<trkpt lat="53.451119" lon="05.801112"><ele>2.5</ele><time>2021-02-18T16:36:22Z</time><name>PT16214</name></trkpt>
<trkpt lat="53.451105" lon="05.801108"><ele>2.4</ele><time>2021-02-18T16:36:23Z</time><name>PT16215</name></trkpt>
<trkpt lat="53.451094" lon="05.801099"><ele>2.7</ele><time>2021-02-18T16:36:24Z</time><name>PT16216</name></trkpt>
<trkpt lat="53.451082" lon="05.801094"><ele>2.8</ele><time>2021-02-18T16:36:25Z</time><name>PT16217</name></trkpt>
<trkpt lat="53.451073" lon="05.801085"><ele>2.8</ele><time>2021-02-18T16:36:26Z</time><name>PT16218</name></trkpt>
<trkpt lat="53.451063" lon="05.801076"><ele>2.4</ele><time>2021-02-18T16:36:27Z</time><name>PT16219</name></trkpt>
<trkpt lat="53.451050" lon="05.801066"><ele>2.3</ele><time>2021-02-18T16:36:28Z</time><name>PT16220</name></trkpt>
<trkpt lat="53.451040" lon="05.801059"><ele>2.2</ele><time>2021-02-18T16:36:29Z</time><name>PT16221</name></trkpt>
<trkpt lat="53.451028" lon="05.801053"><ele>2.4</ele><time>2021-02-18T16:36:30Z</time><name>PT16222</name></trkpt>
<trkpt lat="53.451018" lon="05.801049"><ele>2.5</ele><time>2021-02-18T16:36:31Z</time><name>PT16223</name></trkpt>
<trkpt lat="53.451008" lon="05.801042"><ele>2.8</ele><time>2021-02-18T16:36:32Z</time><name>PT16224</name></trkpt>
<trkpt lat="53.450999" lon="05.801035"><ele>3.1</ele><time>2021-02-18T16:36:33Z</time><name>PT16225</name></trkpt>
<trkpt lat="53.450987" lon="05.801027"><ele>2.9</ele><time>2021-02-18T16:36:34Z</time><name>PT16226</name></trkpt>
<trkpt lat="53.450972" lon="05.801023"><ele>2.8</ele><time>2021-02-18T16:36:35Z</time><name>PT16227</name></trkpt>
<trkpt lat="53.450960" lon="05.801018"><ele>3</ele><time>2021-02-18T16:36:36Z</time><name>PT16228</name></trkpt>
<trkpt lat="53.450949" lon="05.801014"><ele>3.2</ele><time>2021-02-18T16:36:37Z</time><name>PT16229</name></trkpt>
<trkpt lat="53.450941" lon="05.801007"><ele>3.3</ele><time>2021-02-18T16:36:38Z</time><name>PT16230</name></trkpt>
<trkpt lat="53.450931" lon="05.801001"><ele>3.5</ele><time>2021-02-18T16:36:39Z</time><name>PT16231</name></trkpt>
<trkpt lat="53.450918" lon="05.800992"><ele>3.6</ele><time>2021-02-18T16:36:40Z</time><name>PT16232</name></trkpt>
<trkpt lat="53.450904" lon="05.800982"><ele>3.6</ele><time>2021-02-18T16:36:41Z</time><name>PT16233</name></trkpt>
<trkpt lat="53.450894" lon="05.800972"><ele>3.4</ele><time>2021-02-18T16:36:42Z</time><name>PT16234</name></trkpt>
<trkpt lat="53.450882" lon="05.800964"><ele>3.8</ele><time>2021-02-18T16:36:43Z</time><name>PT16235</name></trkpt>
<trkpt lat="53.450873" lon="05.800956"><ele>3.7</ele><time>2021-02-18T16:36:44Z</time><name>PT16236</name></trkpt>
<trkpt lat="53.450865" lon="05.800952"><ele>3.5</ele><time>2021-02-18T16:36:45Z</time><name>PT16237</name></trkpt>
<trkpt lat="53.450854" lon="05.800947"><ele>3.5</ele><time>2021-02-18T16:36:46Z</time><name>PT16238</name></trkpt>
<trkpt lat="53.450842" lon="05.800943"><ele>3.5</ele><time>2021-02-18T16:36:47Z</time><name>PT16239</name></trkpt>
<trkpt lat="53.450830" lon="05.800938"><ele>3.4</ele><time>2021-02-18T16:36:48Z</time><name>PT16240</name></trkpt>
<trkpt lat="53.450820" lon="05.800934"><ele>3.6</ele><time>2021-02-18T16:36:49Z</time><name>PT16241</name></trkpt>
<trkpt lat="53.450810" lon="05.800929"><ele>3.9</ele><time>2021-02-18T16:36:50Z</time><name>PT16242</name></trkpt>
<trkpt lat="53.450800" lon="05.800920"><ele>3.9</ele><time>2021-02-18T16:36:51Z</time><name>PT16243</name></trkpt>
<trkpt lat="53.450789" lon="05.800913"><ele>3.6</ele><time>2021-02-18T16:36:52Z</time><name>PT16244</name></trkpt>
<trkpt lat="53.450779" lon="05.800906"><ele>3.3</ele><time>2021-02-18T16:36:53Z</time><name>PT16245</name></trkpt>
<trkpt lat="53.450769" lon="05.800900"><ele>3.3</ele><time>2021-02-18T16:36:54Z</time><name>PT16246</name></trkpt>
<trkpt lat="53.450758" lon="05.800894"><ele>2.8</ele><time>2021-02-18T16:36:55Z</time><name>PT16247</name></trkpt>
<trkpt lat="53.450745" lon="05.800888"><ele>2.8</ele><time>2021-02-18T16:36:56Z</time><name>PT16248</name></trkpt>
<trkpt lat="53.450733" lon="05.800884"><ele>2.9</ele><time>2021-02-18T16:36:57Z</time><name>PT16249</name></trkpt>
<trkpt lat="53.450721" lon="05.800880"><ele>3.2</ele><time>2021-02-18T16:36:58Z</time><name>PT16250</name></trkpt>
<trkpt lat="53.450710" lon="05.800876"><ele>3.2</ele><time>2021-02-18T16:36:59Z</time><name>PT16251</name></trkpt>
<trkpt lat="53.450704" lon="05.800872"><ele>3.5</ele><time>2021-02-18T16:37:00Z</time><name>PT16252</name></trkpt>
<trkpt lat="53.450695" lon="05.800864"><ele>3.3</ele><time>2021-02-18T16:37:01Z</time><name>PT16253</name></trkpt>
<trkpt lat="53.450680" lon="05.800856"><ele>3.3</ele><time>2021-02-18T16:37:02Z</time><name>PT16254</name></trkpt>
<trkpt lat="53.450668" lon="05.800848"><ele>2.8</ele><time>2021-02-18T16:37:03Z</time><name>PT16255</name></trkpt>
<trkpt lat="53.450658" lon="05.800842"><ele>2.7</ele><time>2021-02-18T16:37:04Z</time><name>PT16256</name></trkpt>
<trkpt lat="53.450648" lon="05.800837"><ele>2.4</ele><time>2021-02-18T16:37:05Z</time><name>PT16257</name></trkpt>
<trkpt lat="53.450637" lon="05.800833"><ele>2.6</ele><time>2021-02-18T16:37:06Z</time><name>PT16258</name></trkpt>
<trkpt lat="53.450627" lon="05.800828"><ele>2.6</ele><time>2021-02-18T16:37:07Z</time><name>PT16259</name></trkpt>
<trkpt lat="53.450613" lon="05.800826"><ele>2.8</ele><time>2021-02-18T16:37:08Z</time><name>PT16260</name></trkpt>
<trkpt lat="53.450599" lon="05.800826"><ele>2.8</ele><time>2021-02-18T16:37:09Z</time><name>PT16261</name></trkpt>
<trkpt lat="53.450587" lon="05.800823"><ele>2.8</ele><time>2021-02-18T16:37:10Z</time><name>PT16262</name></trkpt>
<trkpt lat="53.450577" lon="05.800819"><ele>2.8</ele><time>2021-02-18T16:37:11Z</time><name>PT16263</name></trkpt>
<trkpt lat="53.450567" lon="05.800811"><ele>3</ele><time>2021-02-18T16:37:12Z</time><name>PT16264</name></trkpt>
<trkpt lat="53.450559" lon="05.800805"><ele>3.2</ele><time>2021-02-18T16:37:13Z</time><name>PT16265</name></trkpt>
<trkpt lat="53.450550" lon="05.800799"><ele>3.4</ele><time>2021-02-18T16:37:14Z</time><name>PT16266</name></trkpt>
<trkpt lat="53.450539" lon="05.800791"><ele>3.8</ele><time>2021-02-18T16:37:15Z</time><name>PT16267</name></trkpt>
<trkpt lat="53.450528" lon="05.800784"><ele>3.7</ele><time>2021-02-18T16:37:16Z</time><name>PT16268</name></trkpt>
<trkpt lat="53.450518" lon="05.800780"><ele>3.6</ele><time>2021-02-18T16:37:17Z</time><name>PT16269</name></trkpt>
<trkpt lat="53.450506" lon="05.800778"><ele>3.3</ele><time>2021-02-18T16:37:18Z</time><name>PT16270</name></trkpt>
<trkpt lat="53.450495" lon="05.800778"><ele>3</ele><time>2021-02-18T16:37:19Z</time><name>PT16271</name></trkpt>
<trkpt lat="53.450483" lon="05.800780"><ele>3</ele><time>2021-02-18T16:37:20Z</time><name>PT16272</name></trkpt>
<trkpt lat="53.450472" lon="05.800777"><ele>2.8</ele><time>2021-02-18T16:37:21Z</time><name>PT16273</name></trkpt>
<trkpt lat="53.450461" lon="05.800774"><ele>2.8</ele><time>2021-02-18T16:37:22Z</time><name>PT16274</name></trkpt>
<trkpt lat="53.450450" lon="05.800770"><ele>3</ele><time>2021-02-18T16:37:23Z</time><name>PT16275</name></trkpt>
<trkpt lat="53.450441" lon="05.800762"><ele>3</ele><time>2021-02-18T16:37:24Z</time><name>PT16276</name></trkpt>
<trkpt lat="53.450431" lon="05.800755"><ele>2.9</ele><time>2021-02-18T16:37:25Z</time><name>PT16277</name></trkpt>
<trkpt lat="53.450421" lon="05.800746"><ele>3.3</ele><time>2021-02-18T16:37:26Z</time><name>PT16278</name></trkpt>
<trkpt lat="53.450412" lon="05.800739"><ele>3.4</ele><time>2021-02-18T16:37:27Z</time><name>PT16279</name></trkpt>
<trkpt lat="53.450401" lon="05.800732"><ele>3.7</ele><time>2021-02-18T16:37:28Z</time><name>PT16280</name></trkpt>
<trkpt lat="53.450389" lon="05.800724"><ele>3.8</ele><time>2021-02-18T16:37:29Z</time><name>PT16281</name></trkpt>
<trkpt lat="53.450376" lon="05.800715"><ele>4</ele><time>2021-02-18T16:37:30Z</time><name>PT16282</name></trkpt>
<trkpt lat="53.450365" lon="05.800705"><ele>3.8</ele><time>2021-02-18T16:37:31Z</time><name>PT16283</name></trkpt>
<trkpt lat="53.450355" lon="05.800697"><ele>3.9</ele><time>2021-02-18T16:37:32Z</time><name>PT16284</name></trkpt>
<trkpt lat="53.450344" lon="05.800690"><ele>3.9</ele><time>2021-02-18T16:37:33Z</time><name>PT16285</name></trkpt>
<trkpt lat="53.450331" lon="05.800686"><ele>3.8</ele><time>2021-02-18T16:37:34Z</time><name>PT16286</name></trkpt>
<trkpt lat="53.450319" lon="05.800679"><ele>3.8</ele><time>2021-02-18T16:37:35Z</time><name>PT16287</name></trkpt>
<trkpt lat="53.450310" lon="05.800675"><ele>3.9</ele><time>2021-02-18T16:37:36Z</time><name>PT16288</name></trkpt>
<trkpt lat="53.450301" lon="05.800670"><ele>3.8</ele><time>2021-02-18T16:37:37Z</time><name>PT16289</name></trkpt>
<trkpt lat="53.450292" lon="05.800662"><ele>3.9</ele><time>2021-02-18T16:37:38Z</time><name>PT16290</name></trkpt>
<trkpt lat="53.450282" lon="05.800656"><ele>3.9</ele><time>2021-02-18T16:37:39Z</time><name>PT16291</name></trkpt>
<trkpt lat="53.450270" lon="05.800650"><ele>3.8</ele><time>2021-02-18T16:37:40Z</time><name>PT16292</name></trkpt>
<trkpt lat="53.450259" lon="05.800641"><ele>4.1</ele><time>2021-02-18T16:37:41Z</time><name>PT16293</name></trkpt>
<trkpt lat="53.450249" lon="05.800627"><ele>4.3</ele><time>2021-02-18T16:37:42Z</time><name>PT16294</name></trkpt>
<trkpt lat="53.450239" lon="05.800619"><ele>4.4</ele><time>2021-02-18T16:37:43Z</time><name>PT16295</name></trkpt>
<trkpt lat="53.450225" lon="05.800617"><ele>4.4</ele><time>2021-02-18T16:37:44Z</time><name>PT16296</name></trkpt>
<trkpt lat="53.450214" lon="05.800612"><ele>4.3</ele><time>2021-02-18T16:37:45Z</time><name>PT16297</name></trkpt>
<trkpt lat="53.450204" lon="05.800609"><ele>4.1</ele><time>2021-02-18T16:37:46Z</time><name>PT16298</name></trkpt>
<trkpt lat="53.450194" lon="05.800603"><ele>4.1</ele><time>2021-02-18T16:37:47Z</time><name>PT16299</name></trkpt>
<trkpt lat="53.450185" lon="05.800597"><ele>3.9</ele><time>2021-02-18T16:37:48Z</time><name>PT16300</name></trkpt>
<trkpt lat="53.450177" lon="05.800594"><ele>4.1</ele><time>2021-02-18T16:37:49Z</time><name>PT16301</name></trkpt>
<trkpt lat="53.450169" lon="05.800590"><ele>4.2</ele><time>2021-02-18T16:37:50Z</time><name>PT16302</name></trkpt>
<trkpt lat="53.450159" lon="05.800583"><ele>4.2</ele><time>2021-02-18T16:37:51Z</time><name>PT16303</name></trkpt>
<trkpt lat="53.450148" lon="05.800576"><ele>4.3</ele><time>2021-02-18T16:37:52Z</time><name>PT16304</name></trkpt>
<trkpt lat="53.450138" lon="05.800566"><ele>4.4</ele><time>2021-02-18T16:37:53Z</time><name>PT16305</name></trkpt>
<trkpt lat="53.450128" lon="05.800562"><ele>4.4</ele><time>2021-02-18T16:37:54Z</time><name>PT16306</name></trkpt>
<trkpt lat="53.450118" lon="05.800555"><ele>4.6</ele><time>2021-02-18T16:37:55Z</time><name>PT16307</name></trkpt>
<trkpt lat="53.450106" lon="05.800553"><ele>4.6</ele><time>2021-02-18T16:37:56Z</time><name>PT16308</name></trkpt>
<trkpt lat="53.450096" lon="05.800549"><ele>4.7</ele><time>2021-02-18T16:37:57Z</time><name>PT16309</name></trkpt>
<trkpt lat="53.450084" lon="05.800544"><ele>4.6</ele><time>2021-02-18T16:37:58Z</time><name>PT16310</name></trkpt>
<trkpt lat="53.450075" lon="05.800537"><ele>4.5</ele><time>2021-02-18T16:37:59Z</time><name>PT16311</name></trkpt>
<trkpt lat="53.450065" lon="05.800530"><ele>4.3</ele><time>2021-02-18T16:38:00Z</time><name>PT16312</name></trkpt>
<trkpt lat="53.450054" lon="05.800526"><ele>4</ele><time>2021-02-18T16:38:01Z</time><name>PT16313</name></trkpt>
<trkpt lat="53.450043" lon="05.800520"><ele>4</ele><time>2021-02-18T16:38:02Z</time><name>PT16314</name></trkpt>
<trkpt lat="53.450035" lon="05.800513"><ele>3.9</ele><time>2021-02-18T16:38:03Z</time><name>PT16315</name></trkpt>
<trkpt lat="53.450027" lon="05.800508"><ele>4</ele><time>2021-02-18T16:38:04Z</time><name>PT16316</name></trkpt>
<trkpt lat="53.450017" lon="05.800504"><ele>4.1</ele><time>2021-02-18T16:38:05Z</time><name>PT16317</name></trkpt>
<trkpt lat="53.450006" lon="05.800499"><ele>4.1</ele><time>2021-02-18T16:38:06Z</time><name>PT16318</name></trkpt>
<trkpt lat="53.449996" lon="05.800489"><ele>3.9</ele><time>2021-02-18T16:38:07Z</time><name>PT16319</name></trkpt>
<trkpt lat="53.449985" lon="05.800476"><ele>3.8</ele><time>2021-02-18T16:38:08Z</time><name>PT16320</name></trkpt>
<trkpt lat="53.449975" lon="05.800465"><ele>3.6</ele><time>2021-02-18T16:38:09Z</time><name>PT16321</name></trkpt>
<trkpt lat="53.449962" lon="05.800456"><ele>3.6</ele><time>2021-02-18T16:38:10Z</time><name>PT16322</name></trkpt>
<trkpt lat="53.449947" lon="05.800451"><ele>3.8</ele><time>2021-02-18T16:38:11Z</time><name>PT16323</name></trkpt>
<trkpt lat="53.449936" lon="05.800446"><ele>3.9</ele><time>2021-02-18T16:38:12Z</time><name>PT16324</name></trkpt>
<trkpt lat="53.449927" lon="05.800439"><ele>4.3</ele><time>2021-02-18T16:38:13Z</time><name>PT16325</name></trkpt>
<trkpt lat="53.449917" lon="05.800433"><ele>4.5</ele><time>2021-02-18T16:38:14Z</time><name>PT16326</name></trkpt>
<trkpt lat="53.449907" lon="05.800428"><ele>4.4</ele><time>2021-02-18T16:38:15Z</time><name>PT16327</name></trkpt>
<trkpt lat="53.449897" lon="05.800421"><ele>4.5</ele><time>2021-02-18T16:38:16Z</time><name>PT16328</name></trkpt>
<trkpt lat="53.449887" lon="05.800416"><ele>4.6</ele><time>2021-02-18T16:38:17Z</time><name>PT16329</name></trkpt>
<trkpt lat="53.449876" lon="05.800414"><ele>4.5</ele><time>2021-02-18T16:38:18Z</time><name>PT16330</name></trkpt>
<trkpt lat="53.449867" lon="05.800409"><ele>4.3</ele><time>2021-02-18T16:38:19Z</time><name>PT16331</name></trkpt>
<trkpt lat="53.449855" lon="05.800402"><ele>4.3</ele><time>2021-02-18T16:38:20Z</time><name>PT16332</name></trkpt>
<trkpt lat="53.449844" lon="05.800400"><ele>4.2</ele><time>2021-02-18T16:38:21Z</time><name>PT16333</name></trkpt>
<trkpt lat="53.449832" lon="05.800393"><ele>4.1</ele><time>2021-02-18T16:38:22Z</time><name>PT16334</name></trkpt>
<trkpt lat="53.449819" lon="05.800386"><ele>4.1</ele><time>2021-02-18T16:38:23Z</time><name>PT16335</name></trkpt>
<trkpt lat="53.449808" lon="05.800383"><ele>3.8</ele><time>2021-02-18T16:38:24Z</time><name>PT16336</name></trkpt>
<trkpt lat="53.449797" lon="05.800377"><ele>3.8</ele><time>2021-02-18T16:38:25Z</time><name>PT16337</name></trkpt>
<trkpt lat="53.449790" lon="05.800373"><ele>3.7</ele><time>2021-02-18T16:38:26Z</time><name>PT16338</name></trkpt>
<trkpt lat="53.449780" lon="05.800367"><ele>3.5</ele><time>2021-02-18T16:38:27Z</time><name>PT16339</name></trkpt>
<trkpt lat="53.449772" lon="05.800363"><ele>3.7</ele><time>2021-02-18T16:38:28Z</time><name>PT16340</name></trkpt>
<trkpt lat="53.449763" lon="05.800360"><ele>3.8</ele><time>2021-02-18T16:38:29Z</time><name>PT16341</name></trkpt>
<trkpt lat="53.449752" lon="05.800357"><ele>4</ele><time>2021-02-18T16:38:30Z</time><name>PT16342</name></trkpt>
<trkpt lat="53.449740" lon="05.800351"><ele>4</ele><time>2021-02-18T16:38:31Z</time><name>PT16343</name></trkpt>
<trkpt lat="53.449726" lon="05.800343"><ele>4.2</ele><time>2021-02-18T16:38:32Z</time><name>PT16344</name></trkpt>
<trkpt lat="53.449712" lon="05.800333"><ele>4.3</ele><time>2021-02-18T16:38:33Z</time><name>PT16345</name></trkpt>
<trkpt lat="53.449701" lon="05.800329"><ele>4.3</ele><time>2021-02-18T16:38:34Z</time><name>PT16346</name></trkpt>
<trkpt lat="53.449688" lon="05.800328"><ele>4.3</ele><time>2021-02-18T16:38:35Z</time><name>PT16347</name></trkpt>
<trkpt lat="53.449676" lon="05.800321"><ele>4.1</ele><time>2021-02-18T16:38:36Z</time><name>PT16348</name></trkpt>
<trkpt lat="53.449665" lon="05.800311"><ele>3.9</ele><time>2021-02-18T16:38:37Z</time><name>PT16349</name></trkpt>
<trkpt lat="53.449656" lon="05.800301"><ele>4</ele><time>2021-02-18T16:38:38Z</time><name>PT16350</name></trkpt>
<trkpt lat="53.449647" lon="05.800290"><ele>4.1</ele><time>2021-02-18T16:38:39Z</time><name>PT16351</name></trkpt>
<trkpt lat="53.449634" lon="05.800279"><ele>4.3</ele><time>2021-02-18T16:38:40Z</time><name>PT16352</name></trkpt>
<trkpt lat="53.449622" lon="05.800273"><ele>4.3</ele><time>2021-02-18T16:38:41Z</time><name>PT16353</name></trkpt>
<trkpt lat="53.449611" lon="05.800263"><ele>4.3</ele><time>2021-02-18T16:38:42Z</time><name>PT16354</name></trkpt>
<trkpt lat="53.449602" lon="05.800254"><ele>4.2</ele><time>2021-02-18T16:38:43Z</time><name>PT16355</name></trkpt>
<trkpt lat="53.449588" lon="05.800246"><ele>4.1</ele><time>2021-02-18T16:38:44Z</time><name>PT16356</name></trkpt>
<trkpt lat="53.449576" lon="05.800240"><ele>4.3</ele><time>2021-02-18T16:38:45Z</time><name>PT16357</name></trkpt>
<trkpt lat="53.449565" lon="05.800235"><ele>4.5</ele><time>2021-02-18T16:38:46Z</time><name>PT16358</name></trkpt>
<trkpt lat="53.449553" lon="05.800231"><ele>4.4</ele><time>2021-02-18T16:38:47Z</time><name>PT16359</name></trkpt>
<trkpt lat="53.449542" lon="05.800228"><ele>4.6</ele><time>2021-02-18T16:38:48Z</time><name>PT16360</name></trkpt>
<trkpt lat="53.449530" lon="05.800224"><ele>4.3</ele><time>2021-02-18T16:38:49Z</time><name>PT16361</name></trkpt>
<trkpt lat="53.449519" lon="05.800220"><ele>4.3</ele><time>2021-02-18T16:38:50Z</time><name>PT16362</name></trkpt>
<trkpt lat="53.449509" lon="05.800213"><ele>4</ele><time>2021-02-18T16:38:51Z</time><name>PT16363</name></trkpt>
<trkpt lat="53.449500" lon="05.800207"><ele>4.2</ele><time>2021-02-18T16:38:52Z</time><name>PT16364</name></trkpt>
<trkpt lat="53.449491" lon="05.800201"><ele>4.2</ele><time>2021-02-18T16:38:53Z</time><name>PT16365</name></trkpt>
<trkpt lat="53.449480" lon="05.800198"><ele>4.5</ele><time>2021-02-18T16:38:54Z</time><name>PT16366</name></trkpt>
<trkpt lat="53.449468" lon="05.800194"><ele>4.7</ele><time>2021-02-18T16:38:55Z</time><name>PT16367</name></trkpt>
<trkpt lat="53.449458" lon="05.800186"><ele>4.8</ele><time>2021-02-18T16:38:56Z</time><name>PT16368</name></trkpt>
<trkpt lat="53.449449" lon="05.800176"><ele>4.8</ele><time>2021-02-18T16:38:57Z</time><name>PT16369</name></trkpt>
<trkpt lat="53.449440" lon="05.800167"><ele>4.6</ele><time>2021-02-18T16:38:58Z</time><name>PT16370</name></trkpt>
<trkpt lat="53.449428" lon="05.800156"><ele>4.5</ele><time>2021-02-18T16:38:59Z</time><name>PT16371</name></trkpt>
<trkpt lat="53.449417" lon="05.800147"><ele>4.4</ele><time>2021-02-18T16:39:00Z</time><name>PT16372</name></trkpt>
<trkpt lat="53.449409" lon="05.800143"><ele>4.3</ele><time>2021-02-18T16:39:01Z</time><name>PT16373</name></trkpt>
<trkpt lat="53.449399" lon="05.800138"><ele>4.4</ele><time>2021-02-18T16:39:02Z</time><name>PT16374</name></trkpt>
<trkpt lat="53.449389" lon="05.800129"><ele>4.7</ele><time>2021-02-18T16:39:03Z</time><name>PT16375</name></trkpt>
<trkpt lat="53.449378" lon="05.800122"><ele>4.7</ele><time>2021-02-18T16:39:04Z</time><name>PT16376</name></trkpt>
<trkpt lat="53.449369" lon="05.800115"><ele>4.8</ele><time>2021-02-18T16:39:05Z</time><name>PT16377</name></trkpt>
<trkpt lat="53.449358" lon="05.800110"><ele>4.7</ele><time>2021-02-18T16:39:06Z</time><name>PT16378</name></trkpt>
<trkpt lat="53.449349" lon="05.800102"><ele>4.5</ele><time>2021-02-18T16:39:07Z</time><name>PT16379</name></trkpt>
<trkpt lat="53.449339" lon="05.800097"><ele>4.3</ele><time>2021-02-18T16:39:08Z</time><name>PT16380</name></trkpt>
<trkpt lat="53.449329" lon="05.800090"><ele>4</ele><time>2021-02-18T16:39:09Z</time><name>PT16381</name></trkpt>
<trkpt lat="53.449320" lon="05.800084"><ele>4.1</ele><time>2021-02-18T16:39:10Z</time><name>PT16382</name></trkpt>
<trkpt lat="53.449308" lon="05.800078"><ele>4</ele><time>2021-02-18T16:39:11Z</time><name>PT16383</name></trkpt>
<trkpt lat="53.449298" lon="05.800073"><ele>4</ele><time>2021-02-18T16:39:12Z</time><name>PT16384</name></trkpt>
<trkpt lat="53.449286" lon="05.800069"><ele>4</ele><time>2021-02-18T16:39:13Z</time><name>PT16385</name></trkpt>
<trkpt lat="53.449273" lon="05.800064"><ele>4.1</ele><time>2021-02-18T16:39:14Z</time><name>PT16386</name></trkpt>
<trkpt lat="53.449262" lon="05.800059"><ele>3.8</ele><time>2021-02-18T16:39:15Z</time><name>PT16387</name></trkpt>
<trkpt lat="53.449253" lon="05.800058"><ele>3.8</ele><time>2021-02-18T16:39:16Z</time><name>PT16388</name></trkpt>
<trkpt lat="53.449244" lon="05.800056"><ele>3.9</ele><time>2021-02-18T16:39:17Z</time><name>PT16389</name></trkpt>
<trkpt lat="53.449234" lon="05.800047"><ele>4</ele><time>2021-02-18T16:39:18Z</time><name>PT16390</name></trkpt>
<trkpt lat="53.449225" lon="05.800042"><ele>4.3</ele><time>2021-02-18T16:39:19Z</time><name>PT16391</name></trkpt>
<trkpt lat="53.449216" lon="05.800041"><ele>4.4</ele><time>2021-02-18T16:39:20Z</time><name>PT16392</name></trkpt>
<trkpt lat="53.449206" lon="05.800039"><ele>4.6</ele><time>2021-02-18T16:39:21Z</time><name>PT16393</name></trkpt>
<trkpt lat="53.449194" lon="05.800042"><ele>4.7</ele><time>2021-02-18T16:39:22Z</time><name>PT16394</name></trkpt>
<trkpt lat="53.449180" lon="05.800042"><ele>4.4</ele><time>2021-02-18T16:39:23Z</time><name>PT16395</name></trkpt>
<trkpt lat="53.449169" lon="05.800035"><ele>3.9</ele><time>2021-02-18T16:39:24Z</time><name>PT16396</name></trkpt>
<trkpt lat="53.449158" lon="05.800028"><ele>3.8</ele><time>2021-02-18T16:39:25Z</time><name>PT16397</name></trkpt>
<trkpt lat="53.449147" lon="05.800021"><ele>3.8</ele><time>2021-02-18T16:39:26Z</time><name>PT16398</name></trkpt>
<trkpt lat="53.449135" lon="05.800016"><ele>3.8</ele><time>2021-02-18T16:39:27Z</time><name>PT16399</name></trkpt>
<trkpt lat="53.449125" lon="05.800012"><ele>4.1</ele><time>2021-02-18T16:39:28Z</time><name>PT16400</name></trkpt>
<trkpt lat="53.449115" lon="05.800010"><ele>4.3</ele><time>2021-02-18T16:39:29Z</time><name>PT16401</name></trkpt>
<trkpt lat="53.449106" lon="05.800006"><ele>4.3</ele><time>2021-02-18T16:39:30Z</time><name>PT16402</name></trkpt>
<trkpt lat="53.449103" lon="05.800002"><ele>4.3</ele><time>2021-02-18T16:39:31Z</time><name>PT16403</name></trkpt>
<trkpt lat="53.449094" lon="05.799999"><ele>4.3</ele><time>2021-02-18T16:39:32Z</time><name>PT16404</name></trkpt>
<trkpt lat="53.449084" lon="05.799991"><ele>4.2</ele><time>2021-02-18T16:39:33Z</time><name>PT16405</name></trkpt>
<trkpt lat="53.449074" lon="05.799985"><ele>4</ele><time>2021-02-18T16:39:34Z</time><name>PT16406</name></trkpt>
<trkpt lat="53.449063" lon="05.799980"><ele>3.9</ele><time>2021-02-18T16:39:35Z</time><name>PT16407</name></trkpt>
<trkpt lat="53.449054" lon="05.799974"><ele>3.8</ele><time>2021-02-18T16:39:36Z</time><name>PT16408</name></trkpt>
<trkpt lat="53.449040" lon="05.799969"><ele>3.8</ele><time>2021-02-18T16:39:37Z</time><name>PT16409</name></trkpt>
<trkpt lat="53.449028" lon="05.799967"><ele>3.8</ele><time>2021-02-18T16:39:38Z</time><name>PT16410</name></trkpt>
<trkpt lat="53.449017" lon="05.799963"><ele>4.1</ele><time>2021-02-18T16:39:39Z</time><name>PT16411</name></trkpt>
<trkpt lat="53.449005" lon="05.799957"><ele>4.5</ele><time>2021-02-18T16:39:40Z</time><name>PT16412</name></trkpt>
<trkpt lat="53.448991" lon="05.799963"><ele>4.7</ele><time>2021-02-18T16:39:41Z</time><name>PT16413</name></trkpt>
<trkpt lat="53.448976" lon="05.799959"><ele>4.8</ele><time>2021-02-18T16:39:42Z</time><name>PT16414</name></trkpt>
<trkpt lat="53.448959" lon="05.799951"><ele>4.9</ele><time>2021-02-18T16:39:43Z</time><name>PT16415</name></trkpt>
<trkpt lat="53.448946" lon="05.799933"><ele>4.9</ele><time>2021-02-18T16:39:44Z</time><name>PT16416</name></trkpt>
<trkpt lat="53.448930" lon="05.799943"><ele>4.8</ele><time>2021-02-18T16:39:45Z</time><name>PT16417</name></trkpt>
<trkpt lat="53.448917" lon="05.799937"><ele>4.9</ele><time>2021-02-18T16:39:46Z</time><name>PT16418</name></trkpt>
<trkpt lat="53.448906" lon="05.799931"><ele>5</ele><time>2021-02-18T16:39:47Z</time><name>PT16419</name></trkpt>
<trkpt lat="53.448896" lon="05.799924"><ele>5</ele><time>2021-02-18T16:39:48Z</time><name>PT16420</name></trkpt>
<trkpt lat="53.448884" lon="05.799917"><ele>4.9</ele><time>2021-02-18T16:39:49Z</time><name>PT16421</name></trkpt>
<trkpt lat="53.448873" lon="05.799912"><ele>5.1</ele><time>2021-02-18T16:39:50Z</time><name>PT16422</name></trkpt>
<trkpt lat="53.448863" lon="05.799906"><ele>4.9</ele><time>2021-02-18T16:39:51Z</time><name>PT16423</name></trkpt>
<trkpt lat="53.448853" lon="05.799903"><ele>4.8</ele><time>2021-02-18T16:39:52Z</time><name>PT16424</name></trkpt>
<trkpt lat="53.448836" lon="05.799900"><ele>4.8</ele><time>2021-02-18T16:39:53Z</time><name>PT16425</name></trkpt>
<trkpt lat="53.448823" lon="05.799896"><ele>4.8</ele><time>2021-02-18T16:39:54Z</time><name>PT16426</name></trkpt>
<trkpt lat="53.448813" lon="05.799884"><ele>4.6</ele><time>2021-02-18T16:39:55Z</time><name>PT16427</name></trkpt>
<trkpt lat="53.448802" lon="05.799881"><ele>4.5</ele><time>2021-02-18T16:39:56Z</time><name>PT16428</name></trkpt>
<trkpt lat="53.448788" lon="05.799875"><ele>4.4</ele><time>2021-02-18T16:39:57Z</time><name>PT16429</name></trkpt>
<trkpt lat="53.448777" lon="05.799872"><ele>4.4</ele><time>2021-02-18T16:39:58Z</time><name>PT16430</name></trkpt>
<trkpt lat="53.448768" lon="05.799871"><ele>4.5</ele><time>2021-02-18T16:39:59Z</time><name>PT16431</name></trkpt>
<trkpt lat="53.448763" lon="05.799872"><ele>4.4</ele><time>2021-02-18T16:40:00Z</time><name>PT16432</name></trkpt>
<trkpt lat="53.448755" lon="05.799873"><ele>4.7</ele><time>2021-02-18T16:40:01Z</time><name>PT16433</name></trkpt>
<trkpt lat="53.448742" lon="05.799873"><ele>4.8</ele><time>2021-02-18T16:40:02Z</time><name>PT16434</name></trkpt>
<trkpt lat="53.448731" lon="05.799869"><ele>4.8</ele><time>2021-02-18T16:40:03Z</time><name>PT16435</name></trkpt>
<trkpt lat="53.448719" lon="05.799866"><ele>4.8</ele><time>2021-02-18T16:40:04Z</time><name>PT16436</name></trkpt>
<trkpt lat="53.448707" lon="05.799861"><ele>4.9</ele><time>2021-02-18T16:40:05Z</time><name>PT16437</name></trkpt>
<trkpt lat="53.448695" lon="05.799858"><ele>4.8</ele><time>2021-02-18T16:40:06Z</time><name>PT16438</name></trkpt>
<trkpt lat="53.448684" lon="05.799854"><ele>4.5</ele><time>2021-02-18T16:40:07Z</time><name>PT16439</name></trkpt>
<trkpt lat="53.448672" lon="05.799848"><ele>4.4</ele><time>2021-02-18T16:40:08Z</time><name>PT16440</name></trkpt>
<trkpt lat="53.448662" lon="05.799844"><ele>4.3</ele><time>2021-02-18T16:40:09Z</time><name>PT16441</name></trkpt>
<trkpt lat="53.448652" lon="05.799838"><ele>4.1</ele><time>2021-02-18T16:40:10Z</time><name>PT16442</name></trkpt>
<trkpt lat="53.448643" lon="05.799837"><ele>4.1</ele><time>2021-02-18T16:40:11Z</time><name>PT16443</name></trkpt>
<trkpt lat="53.448635" lon="05.799838"><ele>4.2</ele><time>2021-02-18T16:40:12Z</time><name>PT16444</name></trkpt>
<trkpt lat="53.448626" lon="05.799837"><ele>4.3</ele><time>2021-02-18T16:40:13Z</time><name>PT16445</name></trkpt>
<trkpt lat="53.448617" lon="05.799835"><ele>4.4</ele><time>2021-02-18T16:40:14Z</time><name>PT16446</name></trkpt>
<trkpt lat="53.448610" lon="05.799835"><ele>4.6</ele><time>2021-02-18T16:40:15Z</time><name>PT16447</name></trkpt>
<trkpt lat="53.448600" lon="05.799833"><ele>4.8</ele><time>2021-02-18T16:40:16Z</time><name>PT16448</name></trkpt>
<trkpt lat="53.448587" lon="05.799828"><ele>4.8</ele><time>2021-02-18T16:40:17Z</time><name>PT16449</name></trkpt>
<trkpt lat="53.448572" lon="05.799825"><ele>4.8</ele><time>2021-02-18T16:40:18Z</time><name>PT16450</name></trkpt>
<trkpt lat="53.448559" lon="05.799823"><ele>4.8</ele><time>2021-02-18T16:40:19Z</time><name>PT16451</name></trkpt>
<trkpt lat="53.448546" lon="05.799821"><ele>4.7</ele><time>2021-02-18T16:40:20Z</time><name>PT16452</name></trkpt>
<trkpt lat="53.448537" lon="05.799822"><ele>4.4</ele><time>2021-02-18T16:40:21Z</time><name>PT16453</name></trkpt>
<trkpt lat="53.448524" lon="05.799818"><ele>4.3</ele><time>2021-02-18T16:40:22Z</time><name>PT16454</name></trkpt>
<trkpt lat="53.448514" lon="05.799824"><ele>4.3</ele><time>2021-02-18T16:40:23Z</time><name>PT16455</name></trkpt>
<trkpt lat="53.448496" lon="05.799829"><ele>4.2</ele><time>2021-02-18T16:40:24Z</time><name>PT16456</name></trkpt>
<trkpt lat="53.448484" lon="05.799827"><ele>4.2</ele><time>2021-02-18T16:40:25Z</time><name>PT16457</name></trkpt>
<trkpt lat="53.448475" lon="05.799819"><ele>4.2</ele><time>2021-02-18T16:40:26Z</time><name>PT16458</name></trkpt>
<trkpt lat="53.448466" lon="05.799816"><ele>4</ele><time>2021-02-18T16:40:27Z</time><name>PT16459</name></trkpt>
<trkpt lat="53.448454" lon="05.799811"><ele>4.1</ele><time>2021-02-18T16:40:28Z</time><name>PT16460</name></trkpt>
<trkpt lat="53.448439" lon="05.799805"><ele>4.2</ele><time>2021-02-18T16:40:29Z</time><name>PT16461</name></trkpt>
<trkpt lat="53.448427" lon="05.799803"><ele>4.4</ele><time>2021-02-18T16:40:30Z</time><name>PT16462</name></trkpt>
<trkpt lat="53.448411" lon="05.799795"><ele>4.5</ele><time>2021-02-18T16:40:31Z</time><name>PT16463</name></trkpt>
<trkpt lat="53.448402" lon="05.799797"><ele>4.5</ele><time>2021-02-18T16:40:32Z</time><name>PT16464</name></trkpt>
<trkpt lat="53.448393" lon="05.799795"><ele>4.6</ele><time>2021-02-18T16:40:33Z</time><name>PT16465</name></trkpt>
<trkpt lat="53.448382" lon="05.799793"><ele>4.4</ele><time>2021-02-18T16:40:34Z</time><name>PT16466</name></trkpt>
<trkpt lat="53.448374" lon="05.799791"><ele>4.3</ele><time>2021-02-18T16:40:35Z</time><name>PT16467</name></trkpt>
<trkpt lat="53.448362" lon="05.799793"><ele>4.3</ele><time>2021-02-18T16:40:36Z</time><name>PT16468</name></trkpt>
<trkpt lat="53.448351" lon="05.799795"><ele>4.2</ele><time>2021-02-18T16:40:37Z</time><name>PT16469</name></trkpt>
<trkpt lat="53.448337" lon="05.799799"><ele>4.3</ele><time>2021-02-18T16:40:38Z</time><name>PT16470</name></trkpt>
<trkpt lat="53.448324" lon="05.799801"><ele>4.3</ele><time>2021-02-18T16:40:39Z</time><name>PT16471</name></trkpt>
<trkpt lat="53.448312" lon="05.799804"><ele>4.3</ele><time>2021-02-18T16:40:40Z</time><name>PT16472</name></trkpt>
<trkpt lat="53.448303" lon="05.799802"><ele>4.3</ele><time>2021-02-18T16:40:41Z</time><name>PT16473</name></trkpt>
<trkpt lat="53.448294" lon="05.799805"><ele>4.3</ele><time>2021-02-18T16:40:42Z</time><name>PT16474</name></trkpt>
<trkpt lat="53.448277" lon="05.799799"><ele>4.3</ele><time>2021-02-18T16:40:43Z</time><name>PT16475</name></trkpt>
<trkpt lat="53.448263" lon="05.799797"><ele>4.5</ele><time>2021-02-18T16:40:44Z</time><name>PT16476</name></trkpt>
<trkpt lat="53.448251" lon="05.799792"><ele>4.5</ele><time>2021-02-18T16:40:45Z</time><name>PT16477</name></trkpt>
<trkpt lat="53.448237" lon="05.799791"><ele>4.3</ele><time>2021-02-18T16:40:46Z</time><name>PT16478</name></trkpt>
<trkpt lat="53.448231" lon="05.799791"><ele>4.3</ele><time>2021-02-18T16:40:47Z</time><name>PT16479</name></trkpt>
<trkpt lat="53.448223" lon="05.799794"><ele>4.3</ele><time>2021-02-18T16:40:48Z</time><name>PT16480</name></trkpt>
<trkpt lat="53.448211" lon="05.799793"><ele>4.1</ele><time>2021-02-18T16:40:49Z</time><name>PT16481</name></trkpt>
<trkpt lat="53.448199" lon="05.799786"><ele>4.1</ele><time>2021-02-18T16:40:50Z</time><name>PT16482</name></trkpt>
<trkpt lat="53.448187" lon="05.799786"><ele>4.2</ele><time>2021-02-18T16:40:51Z</time><name>PT16483</name></trkpt>
<trkpt lat="53.448174" lon="05.799786"><ele>4.3</ele><time>2021-02-18T16:40:52Z</time><name>PT16484</name></trkpt>
<trkpt lat="53.448162" lon="05.799785"><ele>4.4</ele><time>2021-02-18T16:40:53Z</time><name>PT16485</name></trkpt>
<trkpt lat="53.448153" lon="05.799785"><ele>4.8</ele><time>2021-02-18T16:40:54Z</time><name>PT16486</name></trkpt>
<trkpt lat="53.448143" lon="05.799786"><ele>4.7</ele><time>2021-02-18T16:40:55Z</time><name>PT16487</name></trkpt>
<trkpt lat="53.448132" lon="05.799782"><ele>4.9</ele><time>2021-02-18T16:40:56Z</time><name>PT16488</name></trkpt>
<trkpt lat="53.448123" lon="05.799780"><ele>5</ele><time>2021-02-18T16:40:57Z</time><name>PT16489</name></trkpt>
<trkpt lat="53.448114" lon="05.799771"><ele>4.8</ele><time>2021-02-18T16:40:58Z</time><name>PT16490</name></trkpt>
<trkpt lat="53.448102" lon="05.799761"><ele>4.7</ele><time>2021-02-18T16:40:59Z</time><name>PT16491</name></trkpt>
<trkpt lat="53.448091" lon="05.799757"><ele>4.8</ele><time>2021-02-18T16:41:00Z</time><name>PT16492</name></trkpt>
<trkpt lat="53.448079" lon="05.799755"><ele>4.7</ele><time>2021-02-18T16:41:01Z</time><name>PT16493</name></trkpt>
<trkpt lat="53.448067" lon="05.799754"><ele>4.6</ele><time>2021-02-18T16:41:02Z</time><name>PT16494</name></trkpt>
<trkpt lat="53.448055" lon="05.799747"><ele>4.6</ele><time>2021-02-18T16:41:03Z</time><name>PT16495</name></trkpt>
<trkpt lat="53.448042" lon="05.799748"><ele>4.9</ele><time>2021-02-18T16:41:04Z</time><name>PT16496</name></trkpt>
<trkpt lat="53.448029" lon="05.799745"><ele>4.9</ele><time>2021-02-18T16:41:05Z</time><name>PT16497</name></trkpt>
<trkpt lat="53.448018" lon="05.799742"><ele>5.1</ele><time>2021-02-18T16:41:06Z</time><name>PT16498</name></trkpt>
<trkpt lat="53.448009" lon="05.799737"><ele>5.4</ele><time>2021-02-18T16:41:07Z</time><name>PT16499</name></trkpt>
<trkpt lat="53.447999" lon="05.799733"><ele>5.4</ele><time>2021-02-18T16:41:08Z</time><name>PT16500</name></trkpt>
<trkpt lat="53.447988" lon="05.799734"><ele>5.4</ele><time>2021-02-18T16:41:09Z</time><name>PT16501</name></trkpt>
<trkpt lat="53.447979" lon="05.799733"><ele>5.6</ele><time>2021-02-18T16:41:10Z</time><name>PT16502</name></trkpt>
<trkpt lat="53.447968" lon="05.799731"><ele>5.5</ele><time>2021-02-18T16:41:11Z</time><name>PT16503</name></trkpt>
<trkpt lat="53.447959" lon="05.799728"><ele>5.3</ele><time>2021-02-18T16:41:12Z</time><name>PT16504</name></trkpt>
<trkpt lat="53.447947" lon="05.799727"><ele>5.2</ele><time>2021-02-18T16:41:13Z</time><name>PT16505</name></trkpt>
<trkpt lat="53.447937" lon="05.799722"><ele>5</ele><time>2021-02-18T16:41:14Z</time><name>PT16506</name></trkpt>
<trkpt lat="53.447928" lon="05.799725"><ele>4.7</ele><time>2021-02-18T16:41:15Z</time><name>PT16507</name></trkpt>
<trkpt lat="53.447918" lon="05.799729"><ele>4.9</ele><time>2021-02-18T16:41:16Z</time><name>PT16508</name></trkpt>
<trkpt lat="53.447909" lon="05.799732"><ele>5.1</ele><time>2021-02-18T16:41:17Z</time><name>PT16509</name></trkpt>
<trkpt lat="53.447900" lon="05.799734"><ele>5.1</ele><time>2021-02-18T16:41:18Z</time><name>PT16510</name></trkpt>
<trkpt lat="53.447894" lon="05.799736"><ele>5.5</ele><time>2021-02-18T16:41:19Z</time><name>PT16511</name></trkpt>
<trkpt lat="53.447882" lon="05.799734"><ele>5.6</ele><time>2021-02-18T16:41:20Z</time><name>PT16512</name></trkpt>
<trkpt lat="53.447871" lon="05.799726"><ele>5.3</ele><time>2021-02-18T16:41:21Z</time><name>PT16513</name></trkpt>
<trkpt lat="53.447859" lon="05.799723"><ele>5.3</ele><time>2021-02-18T16:41:22Z</time><name>PT16514</name></trkpt>
<trkpt lat="53.447845" lon="05.799720"><ele>5.3</ele><time>2021-02-18T16:41:23Z</time><name>PT16515</name></trkpt>
<trkpt lat="53.447832" lon="05.799715"><ele>5.1</ele><time>2021-02-18T16:41:24Z</time><name>PT16516</name></trkpt>
<trkpt lat="53.447821" lon="05.799710"><ele>5.3</ele><time>2021-02-18T16:41:25Z</time><name>PT16517</name></trkpt>
<trkpt lat="53.447810" lon="05.799708"><ele>5.4</ele><time>2021-02-18T16:41:26Z</time><name>PT16518</name></trkpt>
<trkpt lat="53.447800" lon="05.799704"><ele>5.4</ele><time>2021-02-18T16:41:27Z</time><name>PT16519</name></trkpt>
<trkpt lat="53.447789" lon="05.799699"><ele>5.6</ele><time>2021-02-18T16:41:28Z</time><name>PT16520</name></trkpt>
<trkpt lat="53.447781" lon="05.799693"><ele>5.5</ele><time>2021-02-18T16:41:29Z</time><name>PT16521</name></trkpt>
<trkpt lat="53.447772" lon="05.799685"><ele>5.3</ele><time>2021-02-18T16:41:30Z</time><name>PT16522</name></trkpt>
<trkpt lat="53.447762" lon="05.799675"><ele>5.1</ele><time>2021-02-18T16:41:31Z</time><name>PT16523</name></trkpt>
<trkpt lat="53.447750" lon="05.799663"><ele>5.1</ele><time>2021-02-18T16:41:32Z</time><name>PT16524</name></trkpt>
<trkpt lat="53.447740" lon="05.799653"><ele>4.9</ele><time>2021-02-18T16:41:33Z</time><name>PT16525</name></trkpt>
<trkpt lat="53.447732" lon="05.799639"><ele>4.8</ele><time>2021-02-18T16:41:34Z</time><name>PT16526</name></trkpt>
<trkpt lat="53.447725" lon="05.799628"><ele>4.8</ele><time>2021-02-18T16:41:35Z</time><name>PT16527</name></trkpt>
<trkpt lat="53.447715" lon="05.799622"><ele>4.8</ele><time>2021-02-18T16:41:36Z</time><name>PT16528</name></trkpt>
<trkpt lat="53.447705" lon="05.799614"><ele>4.8</ele><time>2021-02-18T16:41:37Z</time><name>PT16529</name></trkpt>
<trkpt lat="53.447699" lon="05.799602"><ele>4.9</ele><time>2021-02-18T16:41:38Z</time><name>PT16530</name></trkpt>
<trkpt lat="53.447690" lon="05.799592"><ele>5</ele><time>2021-02-18T16:41:39Z</time><name>PT16531</name></trkpt>
<trkpt lat="53.447681" lon="05.799587"><ele>5.1</ele><time>2021-02-18T16:41:40Z</time><name>PT16532</name></trkpt>
<trkpt lat="53.447674" lon="05.799584"><ele>5.2</ele><time>2021-02-18T16:41:41Z</time><name>PT16533</name></trkpt>
<trkpt lat="53.447667" lon="05.799579"><ele>5.3</ele><time>2021-02-18T16:41:42Z</time><name>PT16534</name></trkpt>
<trkpt lat="53.447657" lon="05.799577"><ele>5.4</ele><time>2021-02-18T16:41:43Z</time><name>PT16535</name></trkpt>
<trkpt lat="53.447647" lon="05.799577"><ele>5.3</ele><time>2021-02-18T16:41:44Z</time><name>PT16536</name></trkpt>
<trkpt lat="53.447639" lon="05.799578"><ele>5.3</ele><time>2021-02-18T16:41:45Z</time><name>PT16537</name></trkpt>
<trkpt lat="53.447631" lon="05.799576"><ele>5.2</ele><time>2021-02-18T16:41:46Z</time><name>PT16538</name></trkpt>
<trkpt lat="53.447624" lon="05.799578"><ele>5.2</ele><time>2021-02-18T16:41:47Z</time><name>PT16539</name></trkpt>
<trkpt lat="53.447617" lon="05.799580"><ele>5.2</ele><time>2021-02-18T16:41:48Z</time><name>PT16540</name></trkpt>
<trkpt lat="53.447611" lon="05.799583"><ele>5.3</ele><time>2021-02-18T16:41:49Z</time><name>PT16541</name></trkpt>
<trkpt lat="53.447605" lon="05.799582"><ele>5.4</ele><time>2021-02-18T16:41:50Z</time><name>PT16542</name></trkpt>
<trkpt lat="53.447602" lon="05.799577"><ele>5.3</ele><time>2021-02-18T16:41:51Z</time><name>PT16543</name></trkpt>
<trkpt lat="53.447596" lon="05.799574"><ele>5.2</ele><time>2021-02-18T16:41:52Z</time><name>PT16544</name></trkpt>
<trkpt lat="53.447587" lon="05.799571"><ele>5.3</ele><time>2021-02-18T16:41:53Z</time><name>PT16545</name></trkpt>
<trkpt lat="53.447575" lon="05.799574"><ele>5.3</ele><time>2021-02-18T16:41:54Z</time><name>PT16546</name></trkpt>
<trkpt lat="53.447566" lon="05.799569"><ele>5.5</ele><time>2021-02-18T16:41:55Z</time><name>PT16547</name></trkpt>
<trkpt lat="53.447559" lon="05.799569"><ele>5.8</ele><time>2021-02-18T16:41:56Z</time><name>PT16548</name></trkpt>
<trkpt lat="53.447551" lon="05.799568"><ele>5.8</ele><time>2021-02-18T16:41:57Z</time><name>PT16549</name></trkpt>
<trkpt lat="53.447540" lon="05.799563"><ele>5.9</ele><time>2021-02-18T16:41:58Z</time><name>PT16550</name></trkpt>
<trkpt lat="53.447532" lon="05.799564"><ele>5.7</ele><time>2021-02-18T16:41:59Z</time><name>PT16551</name></trkpt>
<trkpt lat="53.447515" lon="05.799559"><ele>5.5</ele><time>2021-02-18T16:42:00Z</time><name>PT16552</name></trkpt>
<trkpt lat="53.447505" lon="05.799562"><ele>5.4</ele><time>2021-02-18T16:42:01Z</time><name>PT16553</name></trkpt>
<trkpt lat="53.447498" lon="05.799563"><ele>5.6</ele><time>2021-02-18T16:42:02Z</time><name>PT16554</name></trkpt>
<trkpt lat="53.447486" lon="05.799571"><ele>5.3</ele><time>2021-02-18T16:42:03Z</time><name>PT16555</name></trkpt>
<trkpt lat="53.447484" lon="05.799569"><ele>5.5</ele><time>2021-02-18T16:42:04Z</time><name>PT16556</name></trkpt>
<trkpt lat="53.447483" lon="05.799572"><ele>5.5</ele><time>2021-02-18T16:42:05Z</time><name>PT16557</name></trkpt>
<trkpt lat="53.447483" lon="05.799575"><ele>5.5</ele><time>2021-02-18T16:42:06Z</time><name>PT16558</name></trkpt></trkseg></trk></gpx>